<?xml version="1.0" encoding="UTF-8" standalone="no" ?>
<gpx xmlns="http://www.topografix.com/GPX/1/1" xmlns:xsi="http://www.w3.org/2001/XMLSchema-instance" xsi:schemaLocation="http://www.topografix.com/GPX/1/1 http://www.topografix.com/GPX/1/1/gpx.xsd" version="1.1" creator="VisuGPX - https://www.visugpx.com">
  <metadata>
    <name>2018-05-23 Bike ride-Amberieux en Dombes O via Toussieux 41k</name>
    <desc><![CDATA[2018-05-23 Bike ride-Amberieux en Dombes O via Toussieux 41k]]></desc>
  </metadata>
  <wpt lat="45.92448" lon="4.73715">
    <ele>174</ele>
    <name><![CDATA[2018-05-23 10:15 (Start)]]></name>
  </wpt>
  <wpt lat="45.92459" lon="4.73708">
    <ele>174</ele>
    <name><![CDATA[2018-05-23 10:15 (End)]]></name>
  </wpt>
  <trk>
    <name><![CDATA[2018-05-23 10:15]]></name>
    <trkseg>
      <trkpt lat="45.92448" lon="4.73715">
        <ele>174</ele>
        <time>2018-05-23T08:15:10.122Z</time>
      </trkpt>
      <trkpt lat="45.92453" lon="4.73712">
        <ele>174</ele>
        <time>2018-05-23T08:15:18Z</time>
      </trkpt>
      <trkpt lat="45.92453" lon="4.73712">
        <ele>174</ele>
        <time>2018-05-23T08:15:19Z</time>
      </trkpt>
      <trkpt lat="45.92454" lon="4.73713">
        <ele>174</ele>
        <time>2018-05-23T08:15:22Z</time>
      </trkpt>
      <trkpt lat="45.92455" lon="4.73713">
        <ele>174</ele>
        <time>2018-05-23T08:15:23Z</time>
      </trkpt>
      <trkpt lat="45.92462" lon="4.73706">
        <ele>174</ele>
        <time>2018-05-23T08:15:33Z</time>
      </trkpt>
      <trkpt lat="45.92462" lon="4.73704">
        <ele>174</ele>
        <time>2018-05-23T08:15:34Z</time>
      </trkpt>
      <trkpt lat="45.92463" lon="4.73693">
        <ele>174</ele>
        <time>2018-05-23T08:15:38Z</time>
      </trkpt>
      <trkpt lat="45.92463" lon="4.7369">
        <ele>174</ele>
        <time>2018-05-23T08:15:39Z</time>
      </trkpt>
      <trkpt lat="45.92466" lon="4.73679">
        <ele>174</ele>
        <time>2018-05-23T08:15:42Z</time>
      </trkpt>
      <trkpt lat="45.92466" lon="4.73675">
        <ele>174</ele>
        <time>2018-05-23T08:15:43Z</time>
      </trkpt>
      <trkpt lat="45.92468" lon="4.73666">
        <ele>174</ele>
        <time>2018-05-23T08:15:45Z</time>
      </trkpt>
      <trkpt lat="45.92469" lon="4.73661">
        <ele>174</ele>
        <time>2018-05-23T08:15:46Z</time>
      </trkpt>
      <trkpt lat="45.9247" lon="4.73648">
        <ele>174</ele>
        <time>2018-05-23T08:15:47Z</time>
      </trkpt>
      <trkpt lat="45.92471" lon="4.73637">
        <ele>174</ele>
        <time>2018-05-23T08:15:49Z</time>
      </trkpt>
      <trkpt lat="45.92471" lon="4.73631">
        <ele>174</ele>
        <time>2018-05-23T08:15:50Z</time>
      </trkpt>
      <trkpt lat="45.92471" lon="4.73618">
        <ele>174</ele>
        <time>2018-05-23T08:15:52Z</time>
      </trkpt>
      <trkpt lat="45.9247" lon="4.73612">
        <ele>174</ele>
        <time>2018-05-23T08:15:53Z</time>
      </trkpt>
      <trkpt lat="45.92469" lon="4.73601">
        <ele>174</ele>
        <time>2018-05-23T08:15:55Z</time>
      </trkpt>
      <trkpt lat="45.92468" lon="4.73595">
        <ele>174</ele>
        <time>2018-05-23T08:15:56Z</time>
      </trkpt>
      <trkpt lat="45.92467" lon="4.73583">
        <ele>173</ele>
        <time>2018-05-23T08:15:58Z</time>
      </trkpt>
      <trkpt lat="45.92466" lon="4.73577">
        <ele>173</ele>
        <time>2018-05-23T08:15:59Z</time>
      </trkpt>
      <trkpt lat="45.92464" lon="4.73565">
        <ele>173</ele>
        <time>2018-05-23T08:16:02Z</time>
      </trkpt>
      <trkpt lat="45.92464" lon="4.73561">
        <ele>173</ele>
        <time>2018-05-23T08:16:03Z</time>
      </trkpt>
      <trkpt lat="45.92464" lon="4.7355">
        <ele>173</ele>
        <time>2018-05-23T08:16:06Z</time>
      </trkpt>
      <trkpt lat="45.92464" lon="4.73545">
        <ele>173</ele>
        <time>2018-05-23T08:16:07Z</time>
      </trkpt>
      <trkpt lat="45.92465" lon="4.73533">
        <ele>174</ele>
        <time>2018-05-23T08:16:08Z</time>
      </trkpt>
      <trkpt lat="45.92466" lon="4.73528">
        <ele>174</ele>
        <time>2018-05-23T08:16:09Z</time>
      </trkpt>
      <trkpt lat="45.92466" lon="4.73515">
        <ele>174</ele>
        <time>2018-05-23T08:16:11Z</time>
      </trkpt>
      <trkpt lat="45.92466" lon="4.73508">
        <ele>174</ele>
        <time>2018-05-23T08:16:12Z</time>
      </trkpt>
      <trkpt lat="45.92465" lon="4.735">
        <ele>174</ele>
        <time>2018-05-23T08:16:13Z</time>
      </trkpt>
      <trkpt lat="45.92465" lon="4.73494">
        <ele>173</ele>
        <time>2018-05-23T08:16:14Z</time>
      </trkpt>
      <trkpt lat="45.92466" lon="4.73488">
        <ele>173</ele>
        <time>2018-05-23T08:16:15Z</time>
      </trkpt>
      <trkpt lat="45.92465" lon="4.7348">
        <ele>173</ele>
        <time>2018-05-23T08:16:16Z</time>
      </trkpt>
      <trkpt lat="45.92465" lon="4.73473">
        <ele>173</ele>
        <time>2018-05-23T08:16:17Z</time>
      </trkpt>
      <trkpt lat="45.92466" lon="4.73462">
        <ele>173</ele>
        <time>2018-05-23T08:16:18Z</time>
      </trkpt>
      <trkpt lat="45.92466" lon="4.73454">
        <ele>173</ele>
        <time>2018-05-23T08:16:19Z</time>
      </trkpt>
      <trkpt lat="45.92465" lon="4.73447">
        <ele>173</ele>
        <time>2018-05-23T08:16:20Z</time>
      </trkpt>
      <trkpt lat="45.9246" lon="4.73437">
        <ele>173</ele>
        <time>2018-05-23T08:16:22Z</time>
      </trkpt>
      <trkpt lat="45.92456" lon="4.73431">
        <ele>173</ele>
        <time>2018-05-23T08:16:23Z</time>
      </trkpt>
      <trkpt lat="45.92451" lon="4.73428">
        <ele>173</ele>
        <time>2018-05-23T08:16:24Z</time>
      </trkpt>
      <trkpt lat="45.92447" lon="4.73425">
        <ele>173</ele>
        <time>2018-05-23T08:16:25Z</time>
      </trkpt>
      <trkpt lat="45.92442" lon="4.73421">
        <ele>173</ele>
        <time>2018-05-23T08:16:26Z</time>
      </trkpt>
      <trkpt lat="45.92437" lon="4.73418">
        <ele>173</ele>
        <time>2018-05-23T08:16:27Z</time>
      </trkpt>
      <trkpt lat="45.92434" lon="4.73414">
        <ele>172</ele>
        <time>2018-05-23T08:16:28Z</time>
      </trkpt>
      <trkpt lat="45.9243" lon="4.73409">
        <ele>172</ele>
        <time>2018-05-23T08:16:29Z</time>
      </trkpt>
      <trkpt lat="45.92427" lon="4.73403">
        <ele>172</ele>
        <time>2018-05-23T08:16:30Z</time>
      </trkpt>
      <trkpt lat="45.92424" lon="4.73397">
        <ele>172</ele>
        <time>2018-05-23T08:16:31Z</time>
      </trkpt>
      <trkpt lat="45.92422" lon="4.7339">
        <ele>172</ele>
        <time>2018-05-23T08:16:32Z</time>
      </trkpt>
      <trkpt lat="45.92422" lon="4.73383">
        <ele>172</ele>
        <time>2018-05-23T08:16:33Z</time>
      </trkpt>
      <trkpt lat="45.9242" lon="4.73376">
        <ele>172</ele>
        <time>2018-05-23T08:16:34Z</time>
      </trkpt>
      <trkpt lat="45.92419" lon="4.73369">
        <ele>172</ele>
        <time>2018-05-23T08:16:35Z</time>
      </trkpt>
      <trkpt lat="45.92418" lon="4.73362">
        <ele>172</ele>
        <time>2018-05-23T08:16:36Z</time>
      </trkpt>
      <trkpt lat="45.92416" lon="4.73355">
        <ele>171</ele>
        <time>2018-05-23T08:16:37Z</time>
      </trkpt>
      <trkpt lat="45.92415" lon="4.73347">
        <ele>171</ele>
        <time>2018-05-23T08:16:38Z</time>
      </trkpt>
      <trkpt lat="45.92413" lon="4.7334">
        <ele>171</ele>
        <time>2018-05-23T08:16:39Z</time>
      </trkpt>
      <trkpt lat="45.92412" lon="4.73332">
        <ele>171</ele>
        <time>2018-05-23T08:16:40Z</time>
      </trkpt>
      <trkpt lat="45.92411" lon="4.73325">
        <ele>171</ele>
        <time>2018-05-23T08:16:41Z</time>
      </trkpt>
      <trkpt lat="45.92411" lon="4.73318">
        <ele>171</ele>
        <time>2018-05-23T08:16:42Z</time>
      </trkpt>
      <trkpt lat="45.9241" lon="4.73312">
        <ele>171</ele>
        <time>2018-05-23T08:16:43Z</time>
      </trkpt>
      <trkpt lat="45.92409" lon="4.73304">
        <ele>171</ele>
        <time>2018-05-23T08:16:44Z</time>
      </trkpt>
      <trkpt lat="45.92408" lon="4.73296">
        <ele>171</ele>
        <time>2018-05-23T08:16:45Z</time>
      </trkpt>
      <trkpt lat="45.92411" lon="4.73285">
        <ele>171</ele>
        <time>2018-05-23T08:16:47Z</time>
      </trkpt>
      <trkpt lat="45.9241" lon="4.73277">
        <ele>171</ele>
        <time>2018-05-23T08:16:48Z</time>
      </trkpt>
      <trkpt lat="45.92409" lon="4.73269">
        <ele>171</ele>
        <time>2018-05-23T08:16:49Z</time>
      </trkpt>
      <trkpt lat="45.9241" lon="4.73263">
        <ele>171</ele>
        <time>2018-05-23T08:16:50Z</time>
      </trkpt>
      <trkpt lat="45.92409" lon="4.73256">
        <ele>171</ele>
        <time>2018-05-23T08:16:51Z</time>
      </trkpt>
      <trkpt lat="45.92408" lon="4.73248">
        <ele>171</ele>
        <time>2018-05-23T08:16:52Z</time>
      </trkpt>
      <trkpt lat="45.92408" lon="4.73241">
        <ele>171</ele>
        <time>2018-05-23T08:16:53Z</time>
      </trkpt>
      <trkpt lat="45.92407" lon="4.73231">
        <ele>171</ele>
        <time>2018-05-23T08:16:54Z</time>
      </trkpt>
      <trkpt lat="45.92406" lon="4.73222">
        <ele>171</ele>
        <time>2018-05-23T08:16:55Z</time>
      </trkpt>
      <trkpt lat="45.92406" lon="4.73214">
        <ele>171</ele>
        <time>2018-05-23T08:16:56Z</time>
      </trkpt>
      <trkpt lat="45.92406" lon="4.73206">
        <ele>171</ele>
        <time>2018-05-23T08:16:57Z</time>
      </trkpt>
      <trkpt lat="45.92406" lon="4.73198">
        <ele>171</ele>
        <time>2018-05-23T08:16:58Z</time>
      </trkpt>
      <trkpt lat="45.92407" lon="4.73192">
        <ele>171</ele>
        <time>2018-05-23T08:16:59Z</time>
      </trkpt>
      <trkpt lat="45.92406" lon="4.73184">
        <ele>171</ele>
        <time>2018-05-23T08:17:00Z</time>
      </trkpt>
      <trkpt lat="45.92405" lon="4.73176">
        <ele>171</ele>
        <time>2018-05-23T08:17:01Z</time>
      </trkpt>
      <trkpt lat="45.92406" lon="4.73169">
        <ele>170</ele>
        <time>2018-05-23T08:17:02Z</time>
      </trkpt>
      <trkpt lat="45.92405" lon="4.73161">
        <ele>170</ele>
        <time>2018-05-23T08:17:03Z</time>
      </trkpt>
      <trkpt lat="45.92406" lon="4.73154">
        <ele>171</ele>
        <time>2018-05-23T08:17:04Z</time>
      </trkpt>
      <trkpt lat="45.92408" lon="4.73145">
        <ele>171</ele>
        <time>2018-05-23T08:17:05Z</time>
      </trkpt>
      <trkpt lat="45.92409" lon="4.73138">
        <ele>171</ele>
        <time>2018-05-23T08:17:06Z</time>
      </trkpt>
      <trkpt lat="45.9241" lon="4.73131">
        <ele>171</ele>
        <time>2018-05-23T08:17:07Z</time>
      </trkpt>
      <trkpt lat="45.92411" lon="4.73125">
        <ele>171</ele>
        <time>2018-05-23T08:17:08Z</time>
      </trkpt>
      <trkpt lat="45.92414" lon="4.73119">
        <ele>171</ele>
        <time>2018-05-23T08:17:09Z</time>
      </trkpt>
      <trkpt lat="45.92418" lon="4.73114">
        <ele>170</ele>
        <time>2018-05-23T08:17:10Z</time>
      </trkpt>
      <trkpt lat="45.92422" lon="4.73111">
        <ele>170</ele>
        <time>2018-05-23T08:17:11Z</time>
      </trkpt>
      <trkpt lat="45.92427" lon="4.73108">
        <ele>170</ele>
        <time>2018-05-23T08:17:12Z</time>
      </trkpt>
      <trkpt lat="45.92432" lon="4.73104">
        <ele>170</ele>
        <time>2018-05-23T08:17:13Z</time>
      </trkpt>
      <trkpt lat="45.92437" lon="4.731">
        <ele>170</ele>
        <time>2018-05-23T08:17:14Z</time>
      </trkpt>
      <trkpt lat="45.92442" lon="4.73096">
        <ele>170</ele>
        <time>2018-05-23T08:17:15Z</time>
      </trkpt>
      <trkpt lat="45.92446" lon="4.73092">
        <ele>170</ele>
        <time>2018-05-23T08:17:16Z</time>
      </trkpt>
      <trkpt lat="45.92452" lon="4.73087">
        <ele>170</ele>
        <time>2018-05-23T08:17:17Z</time>
      </trkpt>
      <trkpt lat="45.92456" lon="4.73083">
        <ele>170</ele>
        <time>2018-05-23T08:17:18Z</time>
      </trkpt>
      <trkpt lat="45.92461" lon="4.73078">
        <ele>170</ele>
        <time>2018-05-23T08:17:19Z</time>
      </trkpt>
      <trkpt lat="45.92465" lon="4.73074">
        <ele>170</ele>
        <time>2018-05-23T08:17:20Z</time>
      </trkpt>
      <trkpt lat="45.9247" lon="4.73069">
        <ele>170</ele>
        <time>2018-05-23T08:17:21Z</time>
      </trkpt>
      <trkpt lat="45.92475" lon="4.73065">
        <ele>170</ele>
        <time>2018-05-23T08:17:22Z</time>
      </trkpt>
      <trkpt lat="45.9248" lon="4.73062">
        <ele>170</ele>
        <time>2018-05-23T08:17:23Z</time>
      </trkpt>
      <trkpt lat="45.92485" lon="4.73057">
        <ele>170</ele>
        <time>2018-05-23T08:17:24Z</time>
      </trkpt>
      <trkpt lat="45.92489" lon="4.73052">
        <ele>170</ele>
        <time>2018-05-23T08:17:25Z</time>
      </trkpt>
      <trkpt lat="45.92494" lon="4.73047">
        <ele>170</ele>
        <time>2018-05-23T08:17:26Z</time>
      </trkpt>
      <trkpt lat="45.92498" lon="4.73044">
        <ele>170</ele>
        <time>2018-05-23T08:17:27Z</time>
      </trkpt>
      <trkpt lat="45.92502" lon="4.73039">
        <ele>169</ele>
        <time>2018-05-23T08:17:28Z</time>
      </trkpt>
      <trkpt lat="45.92507" lon="4.73035">
        <ele>169</ele>
        <time>2018-05-23T08:17:29Z</time>
      </trkpt>
      <trkpt lat="45.92511" lon="4.73031">
        <ele>169</ele>
        <time>2018-05-23T08:17:30Z</time>
      </trkpt>
      <trkpt lat="45.92516" lon="4.73027">
        <ele>169</ele>
        <time>2018-05-23T08:17:31Z</time>
      </trkpt>
      <trkpt lat="45.92521" lon="4.73023">
        <ele>169</ele>
        <time>2018-05-23T08:17:32Z</time>
      </trkpt>
      <trkpt lat="45.92526" lon="4.73019">
        <ele>169</ele>
        <time>2018-05-23T08:17:33Z</time>
      </trkpt>
      <trkpt lat="45.9253" lon="4.73015">
        <ele>169</ele>
        <time>2018-05-23T08:17:34Z</time>
      </trkpt>
      <trkpt lat="45.92536" lon="4.73009">
        <ele>169</ele>
        <time>2018-05-23T08:17:35Z</time>
      </trkpt>
      <trkpt lat="45.9254" lon="4.73005">
        <ele>169</ele>
        <time>2018-05-23T08:17:36Z</time>
      </trkpt>
      <trkpt lat="45.92544" lon="4.73">
        <ele>169</ele>
        <time>2018-05-23T08:17:37Z</time>
      </trkpt>
      <trkpt lat="45.92549" lon="4.72996">
        <ele>169</ele>
        <time>2018-05-23T08:17:38Z</time>
      </trkpt>
      <trkpt lat="45.92554" lon="4.72991">
        <ele>169</ele>
        <time>2018-05-23T08:17:39Z</time>
      </trkpt>
      <trkpt lat="45.92559" lon="4.72986">
        <ele>169</ele>
        <time>2018-05-23T08:17:40Z</time>
      </trkpt>
      <trkpt lat="45.92563" lon="4.72982">
        <ele>169</ele>
        <time>2018-05-23T08:17:41Z</time>
      </trkpt>
      <trkpt lat="45.92568" lon="4.72977">
        <ele>169</ele>
        <time>2018-05-23T08:17:42Z</time>
      </trkpt>
      <trkpt lat="45.92573" lon="4.72972">
        <ele>169</ele>
        <time>2018-05-23T08:17:43Z</time>
      </trkpt>
      <trkpt lat="45.92578" lon="4.72965">
        <ele>169</ele>
        <time>2018-05-23T08:17:44Z</time>
      </trkpt>
      <trkpt lat="45.92583" lon="4.72961">
        <ele>169</ele>
        <time>2018-05-23T08:17:45Z</time>
      </trkpt>
      <trkpt lat="45.92587" lon="4.72956">
        <ele>169</ele>
        <time>2018-05-23T08:17:46Z</time>
      </trkpt>
      <trkpt lat="45.92591" lon="4.72951">
        <ele>169</ele>
        <time>2018-05-23T08:17:47Z</time>
      </trkpt>
      <trkpt lat="45.92595" lon="4.72946">
        <ele>169</ele>
        <time>2018-05-23T08:17:48Z</time>
      </trkpt>
      <trkpt lat="45.92599" lon="4.72941">
        <ele>169</ele>
        <time>2018-05-23T08:17:49Z</time>
      </trkpt>
      <trkpt lat="45.92604" lon="4.72937">
        <ele>169</ele>
        <time>2018-05-23T08:17:50Z</time>
      </trkpt>
      <trkpt lat="45.92607" lon="4.72931">
        <ele>169</ele>
        <time>2018-05-23T08:17:51Z</time>
      </trkpt>
      <trkpt lat="45.92612" lon="4.72928">
        <ele>169</ele>
        <time>2018-05-23T08:17:52Z</time>
      </trkpt>
      <trkpt lat="45.92616" lon="4.72923">
        <ele>169</ele>
        <time>2018-05-23T08:17:53Z</time>
      </trkpt>
      <trkpt lat="45.9262" lon="4.72919">
        <ele>169</ele>
        <time>2018-05-23T08:17:54Z</time>
      </trkpt>
      <trkpt lat="45.92624" lon="4.72916">
        <ele>169</ele>
        <time>2018-05-23T08:17:55Z</time>
      </trkpt>
      <trkpt lat="45.92629" lon="4.7291">
        <ele>169</ele>
        <time>2018-05-23T08:17:56Z</time>
      </trkpt>
      <trkpt lat="45.92635" lon="4.72907">
        <ele>169</ele>
        <time>2018-05-23T08:17:57Z</time>
      </trkpt>
      <trkpt lat="45.9264" lon="4.72903">
        <ele>169</ele>
        <time>2018-05-23T08:17:58Z</time>
      </trkpt>
      <trkpt lat="45.92644" lon="4.729">
        <ele>169</ele>
        <time>2018-05-23T08:17:59Z</time>
      </trkpt>
      <trkpt lat="45.92649" lon="4.72898">
        <ele>169</ele>
        <time>2018-05-23T08:18:00Z</time>
      </trkpt>
      <trkpt lat="45.92654" lon="4.72894">
        <ele>169</ele>
        <time>2018-05-23T08:18:01Z</time>
      </trkpt>
      <trkpt lat="45.92658" lon="4.72891">
        <ele>169</ele>
        <time>2018-05-23T08:18:02Z</time>
      </trkpt>
      <trkpt lat="45.92663" lon="4.72888">
        <ele>169</ele>
        <time>2018-05-23T08:18:03Z</time>
      </trkpt>
      <trkpt lat="45.92668" lon="4.72883">
        <ele>170</ele>
        <time>2018-05-23T08:18:04Z</time>
      </trkpt>
      <trkpt lat="45.92673" lon="4.7288">
        <ele>170</ele>
        <time>2018-05-23T08:18:05Z</time>
      </trkpt>
      <trkpt lat="45.92678" lon="4.72876">
        <ele>170</ele>
        <time>2018-05-23T08:18:06Z</time>
      </trkpt>
      <trkpt lat="45.92683" lon="4.72872">
        <ele>169</ele>
        <time>2018-05-23T08:18:07Z</time>
      </trkpt>
      <trkpt lat="45.92687" lon="4.72868">
        <ele>169</ele>
        <time>2018-05-23T08:18:08Z</time>
      </trkpt>
      <trkpt lat="45.92692" lon="4.72864">
        <ele>169</ele>
        <time>2018-05-23T08:18:09Z</time>
      </trkpt>
      <trkpt lat="45.92697" lon="4.72859">
        <ele>169</ele>
        <time>2018-05-23T08:18:10Z</time>
      </trkpt>
      <trkpt lat="45.92703" lon="4.72854">
        <ele>169</ele>
        <time>2018-05-23T08:18:11Z</time>
      </trkpt>
      <trkpt lat="45.92709" lon="4.72851">
        <ele>169</ele>
        <time>2018-05-23T08:18:12Z</time>
      </trkpt>
      <trkpt lat="45.92716" lon="4.72846">
        <ele>169</ele>
        <time>2018-05-23T08:18:13Z</time>
      </trkpt>
      <trkpt lat="45.92722" lon="4.72841">
        <ele>169</ele>
        <time>2018-05-23T08:18:14Z</time>
      </trkpt>
      <trkpt lat="45.92728" lon="4.72837">
        <ele>169</ele>
        <time>2018-05-23T08:18:15Z</time>
      </trkpt>
      <trkpt lat="45.92732" lon="4.72832">
        <ele>169</ele>
        <time>2018-05-23T08:18:16Z</time>
      </trkpt>
      <trkpt lat="45.92737" lon="4.72829">
        <ele>169</ele>
        <time>2018-05-23T08:18:17Z</time>
      </trkpt>
      <trkpt lat="45.92743" lon="4.72824">
        <ele>169</ele>
        <time>2018-05-23T08:18:18Z</time>
      </trkpt>
      <trkpt lat="45.92748" lon="4.7282">
        <ele>169</ele>
        <time>2018-05-23T08:18:19Z</time>
      </trkpt>
      <trkpt lat="45.92753" lon="4.72816">
        <ele>170</ele>
        <time>2018-05-23T08:18:20Z</time>
      </trkpt>
      <trkpt lat="45.92758" lon="4.72813">
        <ele>170</ele>
        <time>2018-05-23T08:18:21Z</time>
      </trkpt>
      <trkpt lat="45.92763" lon="4.72808">
        <ele>170</ele>
        <time>2018-05-23T08:18:22Z</time>
      </trkpt>
      <trkpt lat="45.92768" lon="4.72804">
        <ele>170</ele>
        <time>2018-05-23T08:18:23Z</time>
      </trkpt>
      <trkpt lat="45.92773" lon="4.72801">
        <ele>170</ele>
        <time>2018-05-23T08:18:24Z</time>
      </trkpt>
      <trkpt lat="45.92777" lon="4.72797">
        <ele>170</ele>
        <time>2018-05-23T08:18:25Z</time>
      </trkpt>
      <trkpt lat="45.92782" lon="4.72792">
        <ele>170</ele>
        <time>2018-05-23T08:18:26Z</time>
      </trkpt>
      <trkpt lat="45.92786" lon="4.72789">
        <ele>170</ele>
        <time>2018-05-23T08:18:27Z</time>
      </trkpt>
      <trkpt lat="45.92791" lon="4.72788">
        <ele>171</ele>
        <time>2018-05-23T08:18:28Z</time>
      </trkpt>
      <trkpt lat="45.92798" lon="4.72789">
        <ele>171</ele>
        <time>2018-05-23T08:18:30Z</time>
      </trkpt>
      <trkpt lat="45.92802" lon="4.72791">
        <ele>171</ele>
        <time>2018-05-23T08:18:31Z</time>
      </trkpt>
      <trkpt lat="45.92801" lon="4.72799">
        <ele>171</ele>
        <time>2018-05-23T08:18:32Z</time>
      </trkpt>
      <trkpt lat="45.92802" lon="4.72806">
        <ele>171</ele>
        <time>2018-05-23T08:18:33Z</time>
      </trkpt>
      <trkpt lat="45.92805" lon="4.72817">
        <ele>171</ele>
        <time>2018-05-23T08:18:35Z</time>
      </trkpt>
      <trkpt lat="45.92804" lon="4.72825">
        <ele>171</ele>
        <time>2018-05-23T08:18:36Z</time>
      </trkpt>
      <trkpt lat="45.92805" lon="4.72831">
        <ele>171</ele>
        <time>2018-05-23T08:18:37Z</time>
      </trkpt>
      <trkpt lat="45.92808" lon="4.72838">
        <ele>170</ele>
        <time>2018-05-23T08:18:38Z</time>
      </trkpt>
      <trkpt lat="45.92809" lon="4.72844">
        <ele>170</ele>
        <time>2018-05-23T08:18:39Z</time>
      </trkpt>
      <trkpt lat="45.9281" lon="4.72851">
        <ele>170</ele>
        <time>2018-05-23T08:18:40Z</time>
      </trkpt>
      <trkpt lat="45.92812" lon="4.72858">
        <ele>170</ele>
        <time>2018-05-23T08:18:41Z</time>
      </trkpt>
      <trkpt lat="45.92813" lon="4.72865">
        <ele>170</ele>
        <time>2018-05-23T08:18:42Z</time>
      </trkpt>
      <trkpt lat="45.92815" lon="4.72873">
        <ele>170</ele>
        <time>2018-05-23T08:18:43Z</time>
      </trkpt>
      <trkpt lat="45.92816" lon="4.72881">
        <ele>170</ele>
        <time>2018-05-23T08:18:44Z</time>
      </trkpt>
      <trkpt lat="45.92818" lon="4.72889">
        <ele>170</ele>
        <time>2018-05-23T08:18:45Z</time>
      </trkpt>
      <trkpt lat="45.92819" lon="4.72896">
        <ele>170</ele>
        <time>2018-05-23T08:18:46Z</time>
      </trkpt>
      <trkpt lat="45.92821" lon="4.72903">
        <ele>170</ele>
        <time>2018-05-23T08:18:47Z</time>
      </trkpt>
      <trkpt lat="45.92822" lon="4.72912">
        <ele>170</ele>
        <time>2018-05-23T08:18:48Z</time>
      </trkpt>
      <trkpt lat="45.92823" lon="4.7292">
        <ele>170</ele>
        <time>2018-05-23T08:18:49Z</time>
      </trkpt>
      <trkpt lat="45.92822" lon="4.72928">
        <ele>170</ele>
        <time>2018-05-23T08:18:50Z</time>
      </trkpt>
      <trkpt lat="45.92823" lon="4.72937">
        <ele>170</ele>
        <time>2018-05-23T08:18:51Z</time>
      </trkpt>
      <trkpt lat="45.92824" lon="4.72946">
        <ele>170</ele>
        <time>2018-05-23T08:18:52Z</time>
      </trkpt>
      <trkpt lat="45.92825" lon="4.72953">
        <ele>170</ele>
        <time>2018-05-23T08:18:53Z</time>
      </trkpt>
      <trkpt lat="45.92825" lon="4.72961">
        <ele>170</ele>
        <time>2018-05-23T08:18:54Z</time>
      </trkpt>
      <trkpt lat="45.92826" lon="4.72969">
        <ele>170</ele>
        <time>2018-05-23T08:18:55Z</time>
      </trkpt>
      <trkpt lat="45.92826" lon="4.72976">
        <ele>170</ele>
        <time>2018-05-23T08:18:56Z</time>
      </trkpt>
      <trkpt lat="45.92827" lon="4.72984">
        <ele>170</ele>
        <time>2018-05-23T08:18:57Z</time>
      </trkpt>
      <trkpt lat="45.92828" lon="4.72992">
        <ele>170</ele>
        <time>2018-05-23T08:18:58Z</time>
      </trkpt>
      <trkpt lat="45.9283" lon="4.73001">
        <ele>170</ele>
        <time>2018-05-23T08:18:59Z</time>
      </trkpt>
      <trkpt lat="45.92831" lon="4.73009">
        <ele>170</ele>
        <time>2018-05-23T08:19:00Z</time>
      </trkpt>
      <trkpt lat="45.92833" lon="4.73016">
        <ele>170</ele>
        <time>2018-05-23T08:19:01Z</time>
      </trkpt>
      <trkpt lat="45.92834" lon="4.73024">
        <ele>171</ele>
        <time>2018-05-23T08:19:02Z</time>
      </trkpt>
      <trkpt lat="45.92835" lon="4.73033">
        <ele>171</ele>
        <time>2018-05-23T08:19:03Z</time>
      </trkpt>
      <trkpt lat="45.92836" lon="4.7304">
        <ele>171</ele>
        <time>2018-05-23T08:19:04Z</time>
      </trkpt>
      <trkpt lat="45.92837" lon="4.73048">
        <ele>171</ele>
        <time>2018-05-23T08:19:05Z</time>
      </trkpt>
      <trkpt lat="45.92839" lon="4.73055">
        <ele>171</ele>
        <time>2018-05-23T08:19:06Z</time>
      </trkpt>
      <trkpt lat="45.9284" lon="4.73062">
        <ele>171</ele>
        <time>2018-05-23T08:19:07Z</time>
      </trkpt>
      <trkpt lat="45.92841" lon="4.7307">
        <ele>171</ele>
        <time>2018-05-23T08:19:08Z</time>
      </trkpt>
      <trkpt lat="45.92842" lon="4.73078">
        <ele>171</ele>
        <time>2018-05-23T08:19:09Z</time>
      </trkpt>
      <trkpt lat="45.92843" lon="4.73085">
        <ele>171</ele>
        <time>2018-05-23T08:19:10Z</time>
      </trkpt>
      <trkpt lat="45.92843" lon="4.73092">
        <ele>171</ele>
        <time>2018-05-23T08:19:11Z</time>
      </trkpt>
      <trkpt lat="45.92847" lon="4.73098">
        <ele>171</ele>
        <time>2018-05-23T08:19:12Z</time>
      </trkpt>
      <trkpt lat="45.92852" lon="4.73106">
        <ele>171</ele>
        <time>2018-05-23T08:19:14Z</time>
      </trkpt>
      <trkpt lat="45.92853" lon="4.73107">
        <ele>171</ele>
        <time>2018-05-23T08:19:15Z</time>
      </trkpt>
      <trkpt lat="45.92859" lon="4.73104">
        <ele>171</ele>
        <time>2018-05-23T08:19:18Z</time>
      </trkpt>
      <trkpt lat="45.92867" lon="4.73097">
        <ele>172</ele>
        <time>2018-05-23T08:19:19Z</time>
      </trkpt>
      <trkpt lat="45.92872" lon="4.73091">
        <ele>172</ele>
        <time>2018-05-23T08:19:22Z</time>
      </trkpt>
      <trkpt lat="45.92879" lon="4.73086">
        <ele>172</ele>
        <time>2018-05-23T08:19:23Z</time>
      </trkpt>
      <trkpt lat="45.92887" lon="4.73082">
        <ele>172</ele>
        <time>2018-05-23T08:19:25Z</time>
      </trkpt>
      <trkpt lat="45.9289" lon="4.73077">
        <ele>172</ele>
        <time>2018-05-23T08:19:26Z</time>
      </trkpt>
      <trkpt lat="45.92895" lon="4.73067">
        <ele>172</ele>
        <time>2018-05-23T08:19:28Z</time>
      </trkpt>
      <trkpt lat="45.92898" lon="4.73061">
        <ele>172</ele>
        <time>2018-05-23T08:19:29Z</time>
      </trkpt>
      <trkpt lat="45.92903" lon="4.73052">
        <ele>172</ele>
        <time>2018-05-23T08:19:31Z</time>
      </trkpt>
      <trkpt lat="45.92906" lon="4.73046">
        <ele>172</ele>
        <time>2018-05-23T08:19:32Z</time>
      </trkpt>
      <trkpt lat="45.92909" lon="4.73041">
        <ele>172</ele>
        <time>2018-05-23T08:19:33Z</time>
      </trkpt>
      <trkpt lat="45.92913" lon="4.73036">
        <ele>172</ele>
        <time>2018-05-23T08:19:34Z</time>
      </trkpt>
      <trkpt lat="45.92917" lon="4.7303">
        <ele>172</ele>
        <time>2018-05-23T08:19:35Z</time>
      </trkpt>
      <trkpt lat="45.92921" lon="4.73026">
        <ele>171</ele>
        <time>2018-05-23T08:19:36Z</time>
      </trkpt>
      <trkpt lat="45.92925" lon="4.73023">
        <ele>171</ele>
        <time>2018-05-23T08:19:37Z</time>
      </trkpt>
      <trkpt lat="45.9293" lon="4.73018">
        <ele>171</ele>
        <time>2018-05-23T08:19:38Z</time>
      </trkpt>
      <trkpt lat="45.92934" lon="4.73013">
        <ele>171</ele>
        <time>2018-05-23T08:19:39Z</time>
      </trkpt>
      <trkpt lat="45.92938" lon="4.73008">
        <ele>171</ele>
        <time>2018-05-23T08:19:40Z</time>
      </trkpt>
      <trkpt lat="45.92942" lon="4.73002">
        <ele>171</ele>
        <time>2018-05-23T08:19:41Z</time>
      </trkpt>
      <trkpt lat="45.92946" lon="4.72996">
        <ele>171</ele>
        <time>2018-05-23T08:19:42Z</time>
      </trkpt>
      <trkpt lat="45.92951" lon="4.72991">
        <ele>171</ele>
        <time>2018-05-23T08:19:43Z</time>
      </trkpt>
      <trkpt lat="45.92956" lon="4.72987">
        <ele>171</ele>
        <time>2018-05-23T08:19:44Z</time>
      </trkpt>
      <trkpt lat="45.9296" lon="4.72982">
        <ele>171</ele>
        <time>2018-05-23T08:19:45Z</time>
      </trkpt>
      <trkpt lat="45.92964" lon="4.72977">
        <ele>171</ele>
        <time>2018-05-23T08:19:46Z</time>
      </trkpt>
      <trkpt lat="45.92969" lon="4.72971">
        <ele>171</ele>
        <time>2018-05-23T08:19:47Z</time>
      </trkpt>
      <trkpt lat="45.92973" lon="4.72966">
        <ele>171</ele>
        <time>2018-05-23T08:19:48Z</time>
      </trkpt>
      <trkpt lat="45.92977" lon="4.72961">
        <ele>171</ele>
        <time>2018-05-23T08:19:49Z</time>
      </trkpt>
      <trkpt lat="45.92982" lon="4.72956">
        <ele>171</ele>
        <time>2018-05-23T08:19:50Z</time>
      </trkpt>
      <trkpt lat="45.92985" lon="4.72952">
        <ele>171</ele>
        <time>2018-05-23T08:19:51Z</time>
      </trkpt>
      <trkpt lat="45.9299" lon="4.72945">
        <ele>171</ele>
        <time>2018-05-23T08:19:52Z</time>
      </trkpt>
      <trkpt lat="45.92994" lon="4.7294">
        <ele>171</ele>
        <time>2018-05-23T08:19:53Z</time>
      </trkpt>
      <trkpt lat="45.92999" lon="4.72936">
        <ele>171</ele>
        <time>2018-05-23T08:19:54Z</time>
      </trkpt>
      <trkpt lat="45.93003" lon="4.72931">
        <ele>170</ele>
        <time>2018-05-23T08:19:55Z</time>
      </trkpt>
      <trkpt lat="45.93007" lon="4.72925">
        <ele>170</ele>
        <time>2018-05-23T08:19:56Z</time>
      </trkpt>
      <trkpt lat="45.93012" lon="4.72919">
        <ele>170</ele>
        <time>2018-05-23T08:19:57Z</time>
      </trkpt>
      <trkpt lat="45.93017" lon="4.72913">
        <ele>171</ele>
        <time>2018-05-23T08:19:58Z</time>
      </trkpt>
      <trkpt lat="45.93021" lon="4.72908">
        <ele>172</ele>
        <time>2018-05-23T08:19:59Z</time>
      </trkpt>
      <trkpt lat="45.93026" lon="4.72902">
        <ele>172</ele>
        <time>2018-05-23T08:20:00Z</time>
      </trkpt>
      <trkpt lat="45.93031" lon="4.72897">
        <ele>172</ele>
        <time>2018-05-23T08:20:01Z</time>
      </trkpt>
      <trkpt lat="45.93035" lon="4.72893">
        <ele>172</ele>
        <time>2018-05-23T08:20:02Z</time>
      </trkpt>
      <trkpt lat="45.9304" lon="4.72887">
        <ele>172</ele>
        <time>2018-05-23T08:20:03Z</time>
      </trkpt>
      <trkpt lat="45.93044" lon="4.72882">
        <ele>172</ele>
        <time>2018-05-23T08:20:04Z</time>
      </trkpt>
      <trkpt lat="45.93048" lon="4.72877">
        <ele>172</ele>
        <time>2018-05-23T08:20:05Z</time>
      </trkpt>
      <trkpt lat="45.93053" lon="4.72873">
        <ele>172</ele>
        <time>2018-05-23T08:20:06Z</time>
      </trkpt>
      <trkpt lat="45.93058" lon="4.72868">
        <ele>172</ele>
        <time>2018-05-23T08:20:07Z</time>
      </trkpt>
      <trkpt lat="45.93063" lon="4.72863">
        <ele>172</ele>
        <time>2018-05-23T08:20:08Z</time>
      </trkpt>
      <trkpt lat="45.93067" lon="4.72859">
        <ele>172</ele>
        <time>2018-05-23T08:20:09Z</time>
      </trkpt>
      <trkpt lat="45.93071" lon="4.72854">
        <ele>172</ele>
        <time>2018-05-23T08:20:10Z</time>
      </trkpt>
      <trkpt lat="45.931" lon="4.72819">
        <ele>172</ele>
        <time>2018-05-23T08:20:17Z</time>
      </trkpt>
      <trkpt lat="45.93103" lon="4.72809">
        <ele>171</ele>
        <time>2018-05-23T08:20:18Z</time>
      </trkpt>
      <trkpt lat="45.93108" lon="4.72805">
        <ele>171</ele>
        <time>2018-05-23T08:20:19Z</time>
      </trkpt>
      <trkpt lat="45.93112" lon="4.728">
        <ele>171</ele>
        <time>2018-05-23T08:20:20Z</time>
      </trkpt>
      <trkpt lat="45.93117" lon="4.72795">
        <ele>171</ele>
        <time>2018-05-23T08:20:21Z</time>
      </trkpt>
      <trkpt lat="45.9312" lon="4.7279">
        <ele>171</ele>
        <time>2018-05-23T08:20:22Z</time>
      </trkpt>
      <trkpt lat="45.93125" lon="4.72788">
        <ele>171</ele>
        <time>2018-05-23T08:20:23Z</time>
      </trkpt>
      <trkpt lat="45.93129" lon="4.72783">
        <ele>171</ele>
        <time>2018-05-23T08:20:24Z</time>
      </trkpt>
      <trkpt lat="45.93134" lon="4.72777">
        <ele>171</ele>
        <time>2018-05-23T08:20:25Z</time>
      </trkpt>
      <trkpt lat="45.93137" lon="4.72771">
        <ele>171</ele>
        <time>2018-05-23T08:20:26Z</time>
      </trkpt>
      <trkpt lat="45.93142" lon="4.72766">
        <ele>171</ele>
        <time>2018-05-23T08:20:27Z</time>
      </trkpt>
      <trkpt lat="45.93145" lon="4.72762">
        <ele>171</ele>
        <time>2018-05-23T08:20:28Z</time>
      </trkpt>
      <trkpt lat="45.93148" lon="4.72757">
        <ele>170</ele>
        <time>2018-05-23T08:20:29Z</time>
      </trkpt>
      <trkpt lat="45.93154" lon="4.72751">
        <ele>170</ele>
        <time>2018-05-23T08:20:30Z</time>
      </trkpt>
      <trkpt lat="45.93158" lon="4.72746">
        <ele>170</ele>
        <time>2018-05-23T08:20:31Z</time>
      </trkpt>
      <trkpt lat="45.93163" lon="4.72741">
        <ele>170</ele>
        <time>2018-05-23T08:20:32Z</time>
      </trkpt>
      <trkpt lat="45.93167" lon="4.72736">
        <ele>170</ele>
        <time>2018-05-23T08:20:33Z</time>
      </trkpt>
      <trkpt lat="45.9317" lon="4.72731">
        <ele>170</ele>
        <time>2018-05-23T08:20:34Z</time>
      </trkpt>
      <trkpt lat="45.93174" lon="4.72726">
        <ele>170</ele>
        <time>2018-05-23T08:20:35Z</time>
      </trkpt>
      <trkpt lat="45.93179" lon="4.72722">
        <ele>170</ele>
        <time>2018-05-23T08:20:36Z</time>
      </trkpt>
      <trkpt lat="45.93183" lon="4.72717">
        <ele>169</ele>
        <time>2018-05-23T08:20:37Z</time>
      </trkpt>
      <trkpt lat="45.93188" lon="4.72708">
        <ele>169</ele>
        <time>2018-05-23T08:20:38Z</time>
      </trkpt>
      <trkpt lat="45.93193" lon="4.72704">
        <ele>169</ele>
        <time>2018-05-23T08:20:39Z</time>
      </trkpt>
      <trkpt lat="45.93197" lon="4.727">
        <ele>169</ele>
        <time>2018-05-23T08:20:40Z</time>
      </trkpt>
      <trkpt lat="45.93201" lon="4.72695">
        <ele>169</ele>
        <time>2018-05-23T08:20:41Z</time>
      </trkpt>
      <trkpt lat="45.93205" lon="4.7269">
        <ele>169</ele>
        <time>2018-05-23T08:20:42Z</time>
      </trkpt>
      <trkpt lat="45.93209" lon="4.72686">
        <ele>169</ele>
        <time>2018-05-23T08:20:43Z</time>
      </trkpt>
      <trkpt lat="45.93213" lon="4.7268">
        <ele>169</ele>
        <time>2018-05-23T08:20:44Z</time>
      </trkpt>
      <trkpt lat="45.93217" lon="4.72676">
        <ele>169</ele>
        <time>2018-05-23T08:20:45Z</time>
      </trkpt>
      <trkpt lat="45.9322" lon="4.72672">
        <ele>169</ele>
        <time>2018-05-23T08:20:46Z</time>
      </trkpt>
      <trkpt lat="45.93224" lon="4.72667">
        <ele>169</ele>
        <time>2018-05-23T08:20:47Z</time>
      </trkpt>
      <trkpt lat="45.93228" lon="4.72662">
        <ele>169</ele>
        <time>2018-05-23T08:20:48Z</time>
      </trkpt>
      <trkpt lat="45.93232" lon="4.72656">
        <ele>169</ele>
        <time>2018-05-23T08:20:49Z</time>
      </trkpt>
      <trkpt lat="45.93236" lon="4.7265">
        <ele>170</ele>
        <time>2018-05-23T08:20:50Z</time>
      </trkpt>
      <trkpt lat="45.93241" lon="4.72644">
        <ele>170</ele>
        <time>2018-05-23T08:20:51Z</time>
      </trkpt>
      <trkpt lat="45.93245" lon="4.72638">
        <ele>170</ele>
        <time>2018-05-23T08:20:52Z</time>
      </trkpt>
      <trkpt lat="45.93249" lon="4.72634">
        <ele>170</ele>
        <time>2018-05-23T08:20:53Z</time>
      </trkpt>
      <trkpt lat="45.93254" lon="4.72629">
        <ele>170</ele>
        <time>2018-05-23T08:20:54Z</time>
      </trkpt>
      <trkpt lat="45.93258" lon="4.72625">
        <ele>170</ele>
        <time>2018-05-23T08:20:55Z</time>
      </trkpt>
      <trkpt lat="45.93262" lon="4.72621">
        <ele>170</ele>
        <time>2018-05-23T08:20:56Z</time>
      </trkpt>
      <trkpt lat="45.93266" lon="4.72616">
        <ele>170</ele>
        <time>2018-05-23T08:20:57Z</time>
      </trkpt>
      <trkpt lat="45.9327" lon="4.72611">
        <ele>170</ele>
        <time>2018-05-23T08:20:58Z</time>
      </trkpt>
      <trkpt lat="45.93273" lon="4.72606">
        <ele>170</ele>
        <time>2018-05-23T08:20:59Z</time>
      </trkpt>
      <trkpt lat="45.93278" lon="4.72602">
        <ele>170</ele>
        <time>2018-05-23T08:21:00Z</time>
      </trkpt>
      <trkpt lat="45.93281" lon="4.72599">
        <ele>170</ele>
        <time>2018-05-23T08:21:01Z</time>
      </trkpt>
      <trkpt lat="45.93285" lon="4.72594">
        <ele>170</ele>
        <time>2018-05-23T08:21:02Z</time>
      </trkpt>
      <trkpt lat="45.93289" lon="4.72589">
        <ele>170</ele>
        <time>2018-05-23T08:21:03Z</time>
      </trkpt>
      <trkpt lat="45.93294" lon="4.72584">
        <ele>170</ele>
        <time>2018-05-23T08:21:04Z</time>
      </trkpt>
      <trkpt lat="45.93297" lon="4.7258">
        <ele>171</ele>
        <time>2018-05-23T08:21:05Z</time>
      </trkpt>
      <trkpt lat="45.933" lon="4.72575">
        <ele>171</ele>
        <time>2018-05-23T08:21:06Z</time>
      </trkpt>
      <trkpt lat="45.93304" lon="4.72571">
        <ele>171</ele>
        <time>2018-05-23T08:21:07Z</time>
      </trkpt>
      <trkpt lat="45.93309" lon="4.72566">
        <ele>171</ele>
        <time>2018-05-23T08:21:08Z</time>
      </trkpt>
      <trkpt lat="45.93313" lon="4.72561">
        <ele>171</ele>
        <time>2018-05-23T08:21:09Z</time>
      </trkpt>
      <trkpt lat="45.93317" lon="4.72555">
        <ele>172</ele>
        <time>2018-05-23T08:21:10Z</time>
      </trkpt>
      <trkpt lat="45.9332" lon="4.72551">
        <ele>172</ele>
        <time>2018-05-23T08:21:11Z</time>
      </trkpt>
      <trkpt lat="45.93324" lon="4.72546">
        <ele>172</ele>
        <time>2018-05-23T08:21:12Z</time>
      </trkpt>
      <trkpt lat="45.93328" lon="4.72542">
        <ele>172</ele>
        <time>2018-05-23T08:21:13Z</time>
      </trkpt>
      <trkpt lat="45.93333" lon="4.72538">
        <ele>172</ele>
        <time>2018-05-23T08:21:14Z</time>
      </trkpt>
      <trkpt lat="45.93336" lon="4.72532">
        <ele>172</ele>
        <time>2018-05-23T08:21:15Z</time>
      </trkpt>
      <trkpt lat="45.9334" lon="4.72529">
        <ele>172</ele>
        <time>2018-05-23T08:21:16Z</time>
      </trkpt>
      <trkpt lat="45.93344" lon="4.72525">
        <ele>172</ele>
        <time>2018-05-23T08:21:17Z</time>
      </trkpt>
      <trkpt lat="45.93348" lon="4.7252">
        <ele>172</ele>
        <time>2018-05-23T08:21:18Z</time>
      </trkpt>
      <trkpt lat="45.93352" lon="4.72516">
        <ele>172</ele>
        <time>2018-05-23T08:21:19Z</time>
      </trkpt>
      <trkpt lat="45.93355" lon="4.72511">
        <ele>172</ele>
        <time>2018-05-23T08:21:20Z</time>
      </trkpt>
      <trkpt lat="45.9336" lon="4.72506">
        <ele>172</ele>
        <time>2018-05-23T08:21:21Z</time>
      </trkpt>
      <trkpt lat="45.93364" lon="4.725">
        <ele>172</ele>
        <time>2018-05-23T08:21:22Z</time>
      </trkpt>
      <trkpt lat="45.93367" lon="4.72496">
        <ele>173</ele>
        <time>2018-05-23T08:21:23Z</time>
      </trkpt>
      <trkpt lat="45.93371" lon="4.72491">
        <ele>173</ele>
        <time>2018-05-23T08:21:24Z</time>
      </trkpt>
      <trkpt lat="45.93376" lon="4.72487">
        <ele>173</ele>
        <time>2018-05-23T08:21:25Z</time>
      </trkpt>
      <trkpt lat="45.93379" lon="4.72483">
        <ele>173</ele>
        <time>2018-05-23T08:21:26Z</time>
      </trkpt>
      <trkpt lat="45.93384" lon="4.72478">
        <ele>173</ele>
        <time>2018-05-23T08:21:27Z</time>
      </trkpt>
      <trkpt lat="45.93389" lon="4.72468">
        <ele>173</ele>
        <time>2018-05-23T08:21:29Z</time>
      </trkpt>
      <trkpt lat="45.93391" lon="4.72468">
        <ele>173</ele>
        <time>2018-05-23T08:21:30Z</time>
      </trkpt>
      <trkpt lat="45.93394" lon="4.72462">
        <ele>173</ele>
        <time>2018-05-23T08:21:31Z</time>
      </trkpt>
      <trkpt lat="45.93396" lon="4.72456">
        <ele>173</ele>
        <time>2018-05-23T08:21:32Z</time>
      </trkpt>
      <trkpt lat="45.93397" lon="4.72448">
        <ele>173</ele>
        <time>2018-05-23T08:21:33Z</time>
      </trkpt>
      <trkpt lat="45.93399" lon="4.72442">
        <ele>173</ele>
        <time>2018-05-23T08:21:34Z</time>
      </trkpt>
      <trkpt lat="45.93401" lon="4.72436">
        <ele>173</ele>
        <time>2018-05-23T08:21:35Z</time>
      </trkpt>
      <trkpt lat="45.93405" lon="4.7243">
        <ele>173</ele>
        <time>2018-05-23T08:21:36Z</time>
      </trkpt>
      <trkpt lat="45.93409" lon="4.72426">
        <ele>174</ele>
        <time>2018-05-23T08:21:37Z</time>
      </trkpt>
      <trkpt lat="45.93414" lon="4.72421">
        <ele>174</ele>
        <time>2018-05-23T08:21:38Z</time>
      </trkpt>
      <trkpt lat="45.93418" lon="4.72418">
        <ele>174</ele>
        <time>2018-05-23T08:21:39Z</time>
      </trkpt>
      <trkpt lat="45.93423" lon="4.72416">
        <ele>174</ele>
        <time>2018-05-23T08:21:40Z</time>
      </trkpt>
      <trkpt lat="45.93427" lon="4.72412">
        <ele>174</ele>
        <time>2018-05-23T08:21:41Z</time>
      </trkpt>
      <trkpt lat="45.93433" lon="4.72409">
        <ele>174</ele>
        <time>2018-05-23T08:21:42Z</time>
      </trkpt>
      <trkpt lat="45.93438" lon="4.72406">
        <ele>174</ele>
        <time>2018-05-23T08:21:43Z</time>
      </trkpt>
      <trkpt lat="45.93443" lon="4.72403">
        <ele>173</ele>
        <time>2018-05-23T08:21:44Z</time>
      </trkpt>
      <trkpt lat="45.93447" lon="4.724">
        <ele>173</ele>
        <time>2018-05-23T08:21:45Z</time>
      </trkpt>
      <trkpt lat="45.9345" lon="4.72396">
        <ele>173</ele>
        <time>2018-05-23T08:21:46Z</time>
      </trkpt>
      <trkpt lat="45.93455" lon="4.72391">
        <ele>173</ele>
        <time>2018-05-23T08:21:47Z</time>
      </trkpt>
      <trkpt lat="45.9346" lon="4.72386">
        <ele>173</ele>
        <time>2018-05-23T08:21:48Z</time>
      </trkpt>
      <trkpt lat="45.93465" lon="4.7238">
        <ele>173</ele>
        <time>2018-05-23T08:21:49Z</time>
      </trkpt>
      <trkpt lat="45.93471" lon="4.72375">
        <ele>173</ele>
        <time>2018-05-23T08:21:50Z</time>
      </trkpt>
      <trkpt lat="45.93475" lon="4.72368">
        <ele>173</ele>
        <time>2018-05-23T08:21:51Z</time>
      </trkpt>
      <trkpt lat="45.9348" lon="4.72359">
        <ele>173</ele>
        <time>2018-05-23T08:21:52Z</time>
      </trkpt>
      <trkpt lat="45.93484" lon="4.72353">
        <ele>173</ele>
        <time>2018-05-23T08:21:53Z</time>
      </trkpt>
      <trkpt lat="45.93489" lon="4.72348">
        <ele>173</ele>
        <time>2018-05-23T08:21:54Z</time>
      </trkpt>
      <trkpt lat="45.93493" lon="4.72342">
        <ele>173</ele>
        <time>2018-05-23T08:21:55Z</time>
      </trkpt>
      <trkpt lat="45.93497" lon="4.72336">
        <ele>173</ele>
        <time>2018-05-23T08:21:56Z</time>
      </trkpt>
      <trkpt lat="45.93501" lon="4.7233">
        <ele>173</ele>
        <time>2018-05-23T08:21:57Z</time>
      </trkpt>
      <trkpt lat="45.93506" lon="4.72325">
        <ele>173</ele>
        <time>2018-05-23T08:21:58Z</time>
      </trkpt>
      <trkpt lat="45.93512" lon="4.72318">
        <ele>173</ele>
        <time>2018-05-23T08:21:59Z</time>
      </trkpt>
      <trkpt lat="45.93516" lon="4.72312">
        <ele>173</ele>
        <time>2018-05-23T08:22:00Z</time>
      </trkpt>
      <trkpt lat="45.93519" lon="4.72306">
        <ele>173</ele>
        <time>2018-05-23T08:22:01Z</time>
      </trkpt>
      <trkpt lat="45.93522" lon="4.72301">
        <ele>172</ele>
        <time>2018-05-23T08:22:02Z</time>
      </trkpt>
      <trkpt lat="45.93524" lon="4.72293">
        <ele>172</ele>
        <time>2018-05-23T08:22:03Z</time>
      </trkpt>
      <trkpt lat="45.93527" lon="4.72286">
        <ele>172</ele>
        <time>2018-05-23T08:22:04Z</time>
      </trkpt>
      <trkpt lat="45.93529" lon="4.7228">
        <ele>172</ele>
        <time>2018-05-23T08:22:05Z</time>
      </trkpt>
      <trkpt lat="45.93532" lon="4.72274">
        <ele>172</ele>
        <time>2018-05-23T08:22:06Z</time>
      </trkpt>
      <trkpt lat="45.93534" lon="4.72268">
        <ele>172</ele>
        <time>2018-05-23T08:22:07Z</time>
      </trkpt>
      <trkpt lat="45.93537" lon="4.72262">
        <ele>172</ele>
        <time>2018-05-23T08:22:08Z</time>
      </trkpt>
      <trkpt lat="45.93541" lon="4.7225">
        <ele>172</ele>
        <time>2018-05-23T08:22:10Z</time>
      </trkpt>
      <trkpt lat="45.93542" lon="4.72244">
        <ele>172</ele>
        <time>2018-05-23T08:22:11Z</time>
      </trkpt>
      <trkpt lat="45.93545" lon="4.72238">
        <ele>172</ele>
        <time>2018-05-23T08:22:12Z</time>
      </trkpt>
      <trkpt lat="45.93547" lon="4.72232">
        <ele>172</ele>
        <time>2018-05-23T08:22:13Z</time>
      </trkpt>
      <trkpt lat="45.9355" lon="4.72226">
        <ele>172</ele>
        <time>2018-05-23T08:22:14Z</time>
      </trkpt>
      <trkpt lat="45.93558" lon="4.72221">
        <ele>173</ele>
        <time>2018-05-23T08:22:15Z</time>
      </trkpt>
      <trkpt lat="45.93565" lon="4.72217">
        <ele>173</ele>
        <time>2018-05-23T08:22:16Z</time>
      </trkpt>
      <trkpt lat="45.93568" lon="4.7223">
        <ele>173</ele>
        <time>2018-05-23T08:22:17Z</time>
      </trkpt>
      <trkpt lat="45.93573" lon="4.72236">
        <ele>173</ele>
        <time>2018-05-23T08:22:18Z</time>
      </trkpt>
      <trkpt lat="45.93578" lon="4.72241">
        <ele>173</ele>
        <time>2018-05-23T08:22:19Z</time>
      </trkpt>
      <trkpt lat="45.93582" lon="4.72248">
        <ele>173</ele>
        <time>2018-05-23T08:22:20Z</time>
      </trkpt>
      <trkpt lat="45.93586" lon="4.72251">
        <ele>173</ele>
        <time>2018-05-23T08:22:21Z</time>
      </trkpt>
      <trkpt lat="45.93591" lon="4.72256">
        <ele>173</ele>
        <time>2018-05-23T08:22:22Z</time>
      </trkpt>
      <trkpt lat="45.93596" lon="4.72262">
        <ele>173</ele>
        <time>2018-05-23T08:22:23Z</time>
      </trkpt>
      <trkpt lat="45.936" lon="4.72266">
        <ele>173</ele>
        <time>2018-05-23T08:22:24Z</time>
      </trkpt>
      <trkpt lat="45.93606" lon="4.72271">
        <ele>172</ele>
        <time>2018-05-23T08:22:25Z</time>
      </trkpt>
      <trkpt lat="45.93613" lon="4.72277">
        <ele>172</ele>
        <time>2018-05-23T08:22:27Z</time>
      </trkpt>
      <trkpt lat="45.93616" lon="4.7228">
        <ele>172</ele>
        <time>2018-05-23T08:22:28Z</time>
      </trkpt>
      <trkpt lat="45.93623" lon="4.72285">
        <ele>172</ele>
        <time>2018-05-23T08:22:30Z</time>
      </trkpt>
      <trkpt lat="45.93628" lon="4.72288">
        <ele>172</ele>
        <time>2018-05-23T08:22:31Z</time>
      </trkpt>
      <trkpt lat="45.93633" lon="4.72293">
        <ele>172</ele>
        <time>2018-05-23T08:22:32Z</time>
      </trkpt>
      <trkpt lat="45.93639" lon="4.72299">
        <ele>172</ele>
        <time>2018-05-23T08:22:33Z</time>
      </trkpt>
      <trkpt lat="45.93643" lon="4.72302">
        <ele>172</ele>
        <time>2018-05-23T08:22:34Z</time>
      </trkpt>
      <trkpt lat="45.93647" lon="4.72307">
        <ele>172</ele>
        <time>2018-05-23T08:22:35Z</time>
      </trkpt>
      <trkpt lat="45.93651" lon="4.72313">
        <ele>172</ele>
        <time>2018-05-23T08:22:36Z</time>
      </trkpt>
      <trkpt lat="45.93655" lon="4.72317">
        <ele>172</ele>
        <time>2018-05-23T08:22:37Z</time>
      </trkpt>
      <trkpt lat="45.9366" lon="4.72322">
        <ele>172</ele>
        <time>2018-05-23T08:22:38Z</time>
      </trkpt>
      <trkpt lat="45.93664" lon="4.72324">
        <ele>171</ele>
        <time>2018-05-23T08:22:39Z</time>
      </trkpt>
      <trkpt lat="45.93669" lon="4.7233">
        <ele>171</ele>
        <time>2018-05-23T08:22:40Z</time>
      </trkpt>
      <trkpt lat="45.93674" lon="4.72334">
        <ele>171</ele>
        <time>2018-05-23T08:22:41Z</time>
      </trkpt>
      <trkpt lat="45.93679" lon="4.7234">
        <ele>171</ele>
        <time>2018-05-23T08:22:42Z</time>
      </trkpt>
      <trkpt lat="45.93682" lon="4.72345">
        <ele>171</ele>
        <time>2018-05-23T08:22:43Z</time>
      </trkpt>
      <trkpt lat="45.93686" lon="4.72349">
        <ele>171</ele>
        <time>2018-05-23T08:22:44Z</time>
      </trkpt>
      <trkpt lat="45.93692" lon="4.72352">
        <ele>171</ele>
        <time>2018-05-23T08:22:45Z</time>
      </trkpt>
      <trkpt lat="45.93698" lon="4.72356">
        <ele>171</ele>
        <time>2018-05-23T08:22:47Z</time>
      </trkpt>
      <trkpt lat="45.93704" lon="4.72361">
        <ele>171</ele>
        <time>2018-05-23T08:22:48Z</time>
      </trkpt>
      <trkpt lat="45.93709" lon="4.72364">
        <ele>172</ele>
        <time>2018-05-23T08:22:49Z</time>
      </trkpt>
      <trkpt lat="45.93712" lon="4.7237">
        <ele>172</ele>
        <time>2018-05-23T08:22:50Z</time>
      </trkpt>
      <trkpt lat="45.93718" lon="4.72376">
        <ele>171</ele>
        <time>2018-05-23T08:22:51Z</time>
      </trkpt>
      <trkpt lat="45.93722" lon="4.72379">
        <ele>171</ele>
        <time>2018-05-23T08:22:52Z</time>
      </trkpt>
      <trkpt lat="45.93726" lon="4.72384">
        <ele>171</ele>
        <time>2018-05-23T08:22:53Z</time>
      </trkpt>
      <trkpt lat="45.93731" lon="4.7239">
        <ele>171</ele>
        <time>2018-05-23T08:22:54Z</time>
      </trkpt>
      <trkpt lat="45.93734" lon="4.72393">
        <ele>171</ele>
        <time>2018-05-23T08:22:55Z</time>
      </trkpt>
      <trkpt lat="45.93739" lon="4.72397">
        <ele>171</ele>
        <time>2018-05-23T08:22:56Z</time>
      </trkpt>
      <trkpt lat="45.93743" lon="4.72402">
        <ele>171</ele>
        <time>2018-05-23T08:22:57Z</time>
      </trkpt>
      <trkpt lat="45.93747" lon="4.72406">
        <ele>171</ele>
        <time>2018-05-23T08:22:58Z</time>
      </trkpt>
      <trkpt lat="45.93751" lon="4.7241">
        <ele>171</ele>
        <time>2018-05-23T08:22:59Z</time>
      </trkpt>
      <trkpt lat="45.93755" lon="4.72414">
        <ele>171</ele>
        <time>2018-05-23T08:23:00Z</time>
      </trkpt>
      <trkpt lat="45.93762" lon="4.7242">
        <ele>171</ele>
        <time>2018-05-23T08:23:01Z</time>
      </trkpt>
      <trkpt lat="45.93766" lon="4.72425">
        <ele>171</ele>
        <time>2018-05-23T08:23:02Z</time>
      </trkpt>
      <trkpt lat="45.93771" lon="4.72429">
        <ele>171</ele>
        <time>2018-05-23T08:23:03Z</time>
      </trkpt>
      <trkpt lat="45.93776" lon="4.72434">
        <ele>172</ele>
        <time>2018-05-23T08:23:04Z</time>
      </trkpt>
      <trkpt lat="45.93781" lon="4.72438">
        <ele>172</ele>
        <time>2018-05-23T08:23:05Z</time>
      </trkpt>
      <trkpt lat="45.93785" lon="4.72443">
        <ele>172</ele>
        <time>2018-05-23T08:23:06Z</time>
      </trkpt>
      <trkpt lat="45.9379" lon="4.72447">
        <ele>172</ele>
        <time>2018-05-23T08:23:07Z</time>
      </trkpt>
      <trkpt lat="45.93795" lon="4.72451">
        <ele>172</ele>
        <time>2018-05-23T08:23:08Z</time>
      </trkpt>
      <trkpt lat="45.93803" lon="4.72456">
        <ele>172</ele>
        <time>2018-05-23T08:23:10Z</time>
      </trkpt>
      <trkpt lat="45.93806" lon="4.72463">
        <ele>172</ele>
        <time>2018-05-23T08:23:11Z</time>
      </trkpt>
      <trkpt lat="45.9381" lon="4.72468">
        <ele>172</ele>
        <time>2018-05-23T08:23:12Z</time>
      </trkpt>
      <trkpt lat="45.93817" lon="4.72472">
        <ele>172</ele>
        <time>2018-05-23T08:23:13Z</time>
      </trkpt>
      <trkpt lat="45.93818" lon="4.72474">
        <ele>172</ele>
        <time>2018-05-23T08:23:14Z</time>
      </trkpt>
      <trkpt lat="45.93824" lon="4.72481">
        <ele>173</ele>
        <time>2018-05-23T08:23:15Z</time>
      </trkpt>
      <trkpt lat="45.93828" lon="4.72484">
        <ele>173</ele>
        <time>2018-05-23T08:23:16Z</time>
      </trkpt>
      <trkpt lat="45.93832" lon="4.72488">
        <ele>173</ele>
        <time>2018-05-23T08:23:17Z</time>
      </trkpt>
      <trkpt lat="45.93836" lon="4.72493">
        <ele>173</ele>
        <time>2018-05-23T08:23:18Z</time>
      </trkpt>
      <trkpt lat="45.93841" lon="4.72497">
        <ele>173</ele>
        <time>2018-05-23T08:23:19Z</time>
      </trkpt>
      <trkpt lat="45.93845" lon="4.72502">
        <ele>174</ele>
        <time>2018-05-23T08:23:20Z</time>
      </trkpt>
      <trkpt lat="45.93851" lon="4.72505">
        <ele>174</ele>
        <time>2018-05-23T08:23:21Z</time>
      </trkpt>
      <trkpt lat="45.93854" lon="4.72514">
        <ele>173</ele>
        <time>2018-05-23T08:23:22Z</time>
      </trkpt>
      <trkpt lat="45.93857" lon="4.72519">
        <ele>173</ele>
        <time>2018-05-23T08:23:23Z</time>
      </trkpt>
      <trkpt lat="45.93862" lon="4.72522">
        <ele>173</ele>
        <time>2018-05-23T08:23:24Z</time>
      </trkpt>
      <trkpt lat="45.93869" lon="4.72523">
        <ele>173</ele>
        <time>2018-05-23T08:23:25Z</time>
      </trkpt>
      <trkpt lat="45.93875" lon="4.72516">
        <ele>173</ele>
        <time>2018-05-23T08:23:26Z</time>
      </trkpt>
      <trkpt lat="45.93879" lon="4.72514">
        <ele>173</ele>
        <time>2018-05-23T08:23:27Z</time>
      </trkpt>
      <trkpt lat="45.93883" lon="4.72508">
        <ele>173</ele>
        <time>2018-05-23T08:23:28Z</time>
      </trkpt>
      <trkpt lat="45.93887" lon="4.72504">
        <ele>173</ele>
        <time>2018-05-23T08:23:29Z</time>
      </trkpt>
      <trkpt lat="45.93892" lon="4.72499">
        <ele>172</ele>
        <time>2018-05-23T08:23:30Z</time>
      </trkpt>
      <trkpt lat="45.93896" lon="4.72494">
        <ele>172</ele>
        <time>2018-05-23T08:23:31Z</time>
      </trkpt>
      <trkpt lat="45.939" lon="4.72489">
        <ele>172</ele>
        <time>2018-05-23T08:23:32Z</time>
      </trkpt>
      <trkpt lat="45.93904" lon="4.72483">
        <ele>172</ele>
        <time>2018-05-23T08:23:33Z</time>
      </trkpt>
      <trkpt lat="45.93908" lon="4.72477">
        <ele>172</ele>
        <time>2018-05-23T08:23:34Z</time>
      </trkpt>
      <trkpt lat="45.93913" lon="4.72471">
        <ele>172</ele>
        <time>2018-05-23T08:23:35Z</time>
      </trkpt>
      <trkpt lat="45.93917" lon="4.72466">
        <ele>171</ele>
        <time>2018-05-23T08:23:36Z</time>
      </trkpt>
      <trkpt lat="45.93923" lon="4.7246">
        <ele>171</ele>
        <time>2018-05-23T08:23:37Z</time>
      </trkpt>
      <trkpt lat="45.93927" lon="4.72454">
        <ele>171</ele>
        <time>2018-05-23T08:23:38Z</time>
      </trkpt>
      <trkpt lat="45.93932" lon="4.72449">
        <ele>171</ele>
        <time>2018-05-23T08:23:39Z</time>
      </trkpt>
      <trkpt lat="45.93938" lon="4.72441">
        <ele>171</ele>
        <time>2018-05-23T08:23:40Z</time>
      </trkpt>
      <trkpt lat="45.93944" lon="4.72434">
        <ele>171</ele>
        <time>2018-05-23T08:23:41Z</time>
      </trkpt>
      <trkpt lat="45.9395" lon="4.72429">
        <ele>171</ele>
        <time>2018-05-23T08:23:42Z</time>
      </trkpt>
      <trkpt lat="45.93955" lon="4.72423">
        <ele>171</ele>
        <time>2018-05-23T08:23:43Z</time>
      </trkpt>
      <trkpt lat="45.93961" lon="4.72416">
        <ele>171</ele>
        <time>2018-05-23T08:23:44Z</time>
      </trkpt>
      <trkpt lat="45.93966" lon="4.7241">
        <ele>171</ele>
        <time>2018-05-23T08:23:45Z</time>
      </trkpt>
      <trkpt lat="45.9397" lon="4.72403">
        <ele>171</ele>
        <time>2018-05-23T08:23:46Z</time>
      </trkpt>
      <trkpt lat="45.93976" lon="4.72397">
        <ele>171</ele>
        <time>2018-05-23T08:23:47Z</time>
      </trkpt>
      <trkpt lat="45.93981" lon="4.72392">
        <ele>171</ele>
        <time>2018-05-23T08:23:48Z</time>
      </trkpt>
      <trkpt lat="45.93985" lon="4.72387">
        <ele>171</ele>
        <time>2018-05-23T08:23:49Z</time>
      </trkpt>
      <trkpt lat="45.93991" lon="4.7238">
        <ele>171</ele>
        <time>2018-05-23T08:23:50Z</time>
      </trkpt>
      <trkpt lat="45.93995" lon="4.72374">
        <ele>171</ele>
        <time>2018-05-23T08:23:51Z</time>
      </trkpt>
      <trkpt lat="45.93999" lon="4.7237">
        <ele>171</ele>
        <time>2018-05-23T08:23:52Z</time>
      </trkpt>
      <trkpt lat="45.94003" lon="4.72362">
        <ele>171</ele>
        <time>2018-05-23T08:23:53Z</time>
      </trkpt>
      <trkpt lat="45.94007" lon="4.72356">
        <ele>171</ele>
        <time>2018-05-23T08:23:54Z</time>
      </trkpt>
      <trkpt lat="45.94012" lon="4.72351">
        <ele>171</ele>
        <time>2018-05-23T08:23:55Z</time>
      </trkpt>
      <trkpt lat="45.94016" lon="4.72346">
        <ele>171</ele>
        <time>2018-05-23T08:23:56Z</time>
      </trkpt>
      <trkpt lat="45.94022" lon="4.72341">
        <ele>171</ele>
        <time>2018-05-23T08:23:57Z</time>
      </trkpt>
      <trkpt lat="45.94027" lon="4.72337">
        <ele>171</ele>
        <time>2018-05-23T08:23:58Z</time>
      </trkpt>
      <trkpt lat="45.9403" lon="4.72331">
        <ele>171</ele>
        <time>2018-05-23T08:23:59Z</time>
      </trkpt>
      <trkpt lat="45.94034" lon="4.72325">
        <ele>171</ele>
        <time>2018-05-23T08:24:00Z</time>
      </trkpt>
      <trkpt lat="45.94039" lon="4.72319">
        <ele>171</ele>
        <time>2018-05-23T08:24:01Z</time>
      </trkpt>
      <trkpt lat="45.94044" lon="4.72313">
        <ele>171</ele>
        <time>2018-05-23T08:24:02Z</time>
      </trkpt>
      <trkpt lat="45.94048" lon="4.72308">
        <ele>171</ele>
        <time>2018-05-23T08:24:03Z</time>
      </trkpt>
      <trkpt lat="45.94054" lon="4.72305">
        <ele>171</ele>
        <time>2018-05-23T08:24:04Z</time>
      </trkpt>
      <trkpt lat="45.94058" lon="4.72298">
        <ele>171</ele>
        <time>2018-05-23T08:24:05Z</time>
      </trkpt>
      <trkpt lat="45.94062" lon="4.72292">
        <ele>171</ele>
        <time>2018-05-23T08:24:06Z</time>
      </trkpt>
      <trkpt lat="45.94067" lon="4.72289">
        <ele>171</ele>
        <time>2018-05-23T08:24:07Z</time>
      </trkpt>
      <trkpt lat="45.94071" lon="4.72283">
        <ele>171</ele>
        <time>2018-05-23T08:24:08Z</time>
      </trkpt>
      <trkpt lat="45.94075" lon="4.72278">
        <ele>171</ele>
        <time>2018-05-23T08:24:09Z</time>
      </trkpt>
      <trkpt lat="45.9408" lon="4.72273">
        <ele>171</ele>
        <time>2018-05-23T08:24:10Z</time>
      </trkpt>
      <trkpt lat="45.94084" lon="4.7227">
        <ele>171</ele>
        <time>2018-05-23T08:24:11Z</time>
      </trkpt>
      <trkpt lat="45.94093" lon="4.72269">
        <ele>171</ele>
        <time>2018-05-23T08:24:13Z</time>
      </trkpt>
      <trkpt lat="45.94098" lon="4.7227">
        <ele>171</ele>
        <time>2018-05-23T08:24:14Z</time>
      </trkpt>
      <trkpt lat="45.94104" lon="4.72271">
        <ele>171</ele>
        <time>2018-05-23T08:24:15Z</time>
      </trkpt>
      <trkpt lat="45.94111" lon="4.72271">
        <ele>171</ele>
        <time>2018-05-23T08:24:16Z</time>
      </trkpt>
      <trkpt lat="45.94115" lon="4.72273">
        <ele>171</ele>
        <time>2018-05-23T08:24:17Z</time>
      </trkpt>
      <trkpt lat="45.94121" lon="4.72276">
        <ele>171</ele>
        <time>2018-05-23T08:24:18Z</time>
      </trkpt>
      <trkpt lat="45.94126" lon="4.72278">
        <ele>171</ele>
        <time>2018-05-23T08:24:19Z</time>
      </trkpt>
      <trkpt lat="45.94132" lon="4.7228">
        <ele>171</ele>
        <time>2018-05-23T08:24:20Z</time>
      </trkpt>
      <trkpt lat="45.94136" lon="4.72282">
        <ele>171</ele>
        <time>2018-05-23T08:24:21Z</time>
      </trkpt>
      <trkpt lat="45.94142" lon="4.72286">
        <ele>171</ele>
        <time>2018-05-23T08:24:22Z</time>
      </trkpt>
      <trkpt lat="45.94148" lon="4.72288">
        <ele>171</ele>
        <time>2018-05-23T08:24:23Z</time>
      </trkpt>
      <trkpt lat="45.94153" lon="4.72289">
        <ele>171</ele>
        <time>2018-05-23T08:24:24Z</time>
      </trkpt>
      <trkpt lat="45.94158" lon="4.72291">
        <ele>171</ele>
        <time>2018-05-23T08:24:25Z</time>
      </trkpt>
      <trkpt lat="45.94163" lon="4.72292">
        <ele>171</ele>
        <time>2018-05-23T08:24:26Z</time>
      </trkpt>
      <trkpt lat="45.94169" lon="4.72291">
        <ele>171</ele>
        <time>2018-05-23T08:24:27Z</time>
      </trkpt>
      <trkpt lat="45.94175" lon="4.72292">
        <ele>171</ele>
        <time>2018-05-23T08:24:28Z</time>
      </trkpt>
      <trkpt lat="45.9418" lon="4.72292">
        <ele>171</ele>
        <time>2018-05-23T08:24:29Z</time>
      </trkpt>
      <trkpt lat="45.94186" lon="4.72293">
        <ele>171</ele>
        <time>2018-05-23T08:24:30Z</time>
      </trkpt>
      <trkpt lat="45.94192" lon="4.72293">
        <ele>171</ele>
        <time>2018-05-23T08:24:31Z</time>
      </trkpt>
      <trkpt lat="45.94196" lon="4.72294">
        <ele>171</ele>
        <time>2018-05-23T08:24:32Z</time>
      </trkpt>
      <trkpt lat="45.94201" lon="4.72293">
        <ele>171</ele>
        <time>2018-05-23T08:24:33Z</time>
      </trkpt>
      <trkpt lat="45.94206" lon="4.72293">
        <ele>171</ele>
        <time>2018-05-23T08:24:34Z</time>
      </trkpt>
      <trkpt lat="45.94212" lon="4.72293">
        <ele>171</ele>
        <time>2018-05-23T08:24:35Z</time>
      </trkpt>
      <trkpt lat="45.94217" lon="4.72293">
        <ele>171</ele>
        <time>2018-05-23T08:24:36Z</time>
      </trkpt>
      <trkpt lat="45.94222" lon="4.72292">
        <ele>171</ele>
        <time>2018-05-23T08:24:37Z</time>
      </trkpt>
      <trkpt lat="45.94226" lon="4.72291">
        <ele>171</ele>
        <time>2018-05-23T08:24:38Z</time>
      </trkpt>
      <trkpt lat="45.94232" lon="4.72291">
        <ele>171</ele>
        <time>2018-05-23T08:24:39Z</time>
      </trkpt>
      <trkpt lat="45.94236" lon="4.72289">
        <ele>171</ele>
        <time>2018-05-23T08:24:40Z</time>
      </trkpt>
      <trkpt lat="45.94244" lon="4.72285">
        <ele>171</ele>
        <time>2018-05-23T08:24:42Z</time>
      </trkpt>
      <trkpt lat="45.94249" lon="4.72283">
        <ele>171</ele>
        <time>2018-05-23T08:24:43Z</time>
      </trkpt>
      <trkpt lat="45.94257" lon="4.7228">
        <ele>171</ele>
        <time>2018-05-23T08:24:45Z</time>
      </trkpt>
      <trkpt lat="45.94261" lon="4.72278">
        <ele>171</ele>
        <time>2018-05-23T08:24:46Z</time>
      </trkpt>
      <trkpt lat="45.94265" lon="4.72276">
        <ele>171</ele>
        <time>2018-05-23T08:24:47Z</time>
      </trkpt>
      <trkpt lat="45.94271" lon="4.72277">
        <ele>171</ele>
        <time>2018-05-23T08:24:48Z</time>
      </trkpt>
      <trkpt lat="45.94276" lon="4.72286">
        <ele>171</ele>
        <time>2018-05-23T08:24:50Z</time>
      </trkpt>
      <trkpt lat="45.94278" lon="4.72291">
        <ele>171</ele>
        <time>2018-05-23T08:24:51Z</time>
      </trkpt>
      <trkpt lat="45.94281" lon="4.72297">
        <ele>171</ele>
        <time>2018-05-23T08:24:52Z</time>
      </trkpt>
      <trkpt lat="45.94285" lon="4.72301">
        <ele>171</ele>
        <time>2018-05-23T08:24:53Z</time>
      </trkpt>
      <trkpt lat="45.94291" lon="4.7231">
        <ele>171</ele>
        <time>2018-05-23T08:24:55Z</time>
      </trkpt>
      <trkpt lat="45.94294" lon="4.72316">
        <ele>171</ele>
        <time>2018-05-23T08:24:56Z</time>
      </trkpt>
      <trkpt lat="45.94296" lon="4.72323">
        <ele>171</ele>
        <time>2018-05-23T08:24:57Z</time>
      </trkpt>
      <trkpt lat="45.94299" lon="4.72329">
        <ele>171</ele>
        <time>2018-05-23T08:24:58Z</time>
      </trkpt>
      <trkpt lat="45.94301" lon="4.72336">
        <ele>172</ele>
        <time>2018-05-23T08:24:59Z</time>
      </trkpt>
      <trkpt lat="45.94304" lon="4.72343">
        <ele>172</ele>
        <time>2018-05-23T08:25:00Z</time>
      </trkpt>
      <trkpt lat="45.94307" lon="4.7235">
        <ele>172</ele>
        <time>2018-05-23T08:25:01Z</time>
      </trkpt>
      <trkpt lat="45.9431" lon="4.72356">
        <ele>172</ele>
        <time>2018-05-23T08:25:02Z</time>
      </trkpt>
      <trkpt lat="45.94313" lon="4.72362">
        <ele>172</ele>
        <time>2018-05-23T08:25:03Z</time>
      </trkpt>
      <trkpt lat="45.94316" lon="4.7237">
        <ele>172</ele>
        <time>2018-05-23T08:25:04Z</time>
      </trkpt>
      <trkpt lat="45.94318" lon="4.72376">
        <ele>172</ele>
        <time>2018-05-23T08:25:05Z</time>
      </trkpt>
      <trkpt lat="45.94323" lon="4.72383">
        <ele>172</ele>
        <time>2018-05-23T08:25:06Z</time>
      </trkpt>
      <trkpt lat="45.94326" lon="4.72389">
        <ele>172</ele>
        <time>2018-05-23T08:25:07Z</time>
      </trkpt>
      <trkpt lat="45.94329" lon="4.72396">
        <ele>172</ele>
        <time>2018-05-23T08:25:08Z</time>
      </trkpt>
      <trkpt lat="45.94332" lon="4.72402">
        <ele>173</ele>
        <time>2018-05-23T08:25:09Z</time>
      </trkpt>
      <trkpt lat="45.94334" lon="4.72409">
        <ele>173</ele>
        <time>2018-05-23T08:25:10Z</time>
      </trkpt>
      <trkpt lat="45.94337" lon="4.72416">
        <ele>173</ele>
        <time>2018-05-23T08:25:11Z</time>
      </trkpt>
      <trkpt lat="45.94339" lon="4.72423">
        <ele>173</ele>
        <time>2018-05-23T08:25:12Z</time>
      </trkpt>
      <trkpt lat="45.94342" lon="4.7243">
        <ele>173</ele>
        <time>2018-05-23T08:25:13Z</time>
      </trkpt>
      <trkpt lat="45.94345" lon="4.72438">
        <ele>173</ele>
        <time>2018-05-23T08:25:14Z</time>
      </trkpt>
      <trkpt lat="45.94347" lon="4.72445">
        <ele>173</ele>
        <time>2018-05-23T08:25:15Z</time>
      </trkpt>
      <trkpt lat="45.9435" lon="4.72452">
        <ele>173</ele>
        <time>2018-05-23T08:25:16Z</time>
      </trkpt>
      <trkpt lat="45.94353" lon="4.72459">
        <ele>173</ele>
        <time>2018-05-23T08:25:17Z</time>
      </trkpt>
      <trkpt lat="45.94356" lon="4.72466">
        <ele>173</ele>
        <time>2018-05-23T08:25:18Z</time>
      </trkpt>
      <trkpt lat="45.94359" lon="4.72473">
        <ele>173</ele>
        <time>2018-05-23T08:25:19Z</time>
      </trkpt>
      <trkpt lat="45.94361" lon="4.7248">
        <ele>173</ele>
        <time>2018-05-23T08:25:20Z</time>
      </trkpt>
      <trkpt lat="45.94364" lon="4.72489">
        <ele>173</ele>
        <time>2018-05-23T08:25:21Z</time>
      </trkpt>
      <trkpt lat="45.94367" lon="4.72496">
        <ele>173</ele>
        <time>2018-05-23T08:25:22Z</time>
      </trkpt>
      <trkpt lat="45.94371" lon="4.72503">
        <ele>173</ele>
        <time>2018-05-23T08:25:23Z</time>
      </trkpt>
      <trkpt lat="45.94373" lon="4.72509">
        <ele>173</ele>
        <time>2018-05-23T08:25:24Z</time>
      </trkpt>
      <trkpt lat="45.94374" lon="4.72517">
        <ele>173</ele>
        <time>2018-05-23T08:25:25Z</time>
      </trkpt>
      <trkpt lat="45.94377" lon="4.72523">
        <ele>174</ele>
        <time>2018-05-23T08:25:26Z</time>
      </trkpt>
      <trkpt lat="45.94378" lon="4.72532">
        <ele>174</ele>
        <time>2018-05-23T08:25:27Z</time>
      </trkpt>
      <trkpt lat="45.94381" lon="4.72538">
        <ele>174</ele>
        <time>2018-05-23T08:25:28Z</time>
      </trkpt>
      <trkpt lat="45.94382" lon="4.72546">
        <ele>173</ele>
        <time>2018-05-23T08:25:29Z</time>
      </trkpt>
      <trkpt lat="45.94384" lon="4.72552">
        <ele>173</ele>
        <time>2018-05-23T08:25:30Z</time>
      </trkpt>
      <trkpt lat="45.94386" lon="4.72559">
        <ele>173</ele>
        <time>2018-05-23T08:25:31Z</time>
      </trkpt>
      <trkpt lat="45.94387" lon="4.72566">
        <ele>173</ele>
        <time>2018-05-23T08:25:32Z</time>
      </trkpt>
      <trkpt lat="45.94389" lon="4.72575">
        <ele>173</ele>
        <time>2018-05-23T08:25:33Z</time>
      </trkpt>
      <trkpt lat="45.9439" lon="4.72583">
        <ele>173</ele>
        <time>2018-05-23T08:25:34Z</time>
      </trkpt>
      <trkpt lat="45.94391" lon="4.72591">
        <ele>173</ele>
        <time>2018-05-23T08:25:35Z</time>
      </trkpt>
      <trkpt lat="45.94393" lon="4.72599">
        <ele>173</ele>
        <time>2018-05-23T08:25:36Z</time>
      </trkpt>
      <trkpt lat="45.94394" lon="4.72605">
        <ele>173</ele>
        <time>2018-05-23T08:25:37Z</time>
      </trkpt>
      <trkpt lat="45.94395" lon="4.72613">
        <ele>173</ele>
        <time>2018-05-23T08:25:38Z</time>
      </trkpt>
      <trkpt lat="45.94396" lon="4.72622">
        <ele>173</ele>
        <time>2018-05-23T08:25:39Z</time>
      </trkpt>
      <trkpt lat="45.94397" lon="4.72631">
        <ele>174</ele>
        <time>2018-05-23T08:25:40Z</time>
      </trkpt>
      <trkpt lat="45.94399" lon="4.72639">
        <ele>174</ele>
        <time>2018-05-23T08:25:41Z</time>
      </trkpt>
      <trkpt lat="45.944" lon="4.72647">
        <ele>174</ele>
        <time>2018-05-23T08:25:42Z</time>
      </trkpt>
      <trkpt lat="45.944" lon="4.72655">
        <ele>174</ele>
        <time>2018-05-23T08:25:43Z</time>
      </trkpt>
      <trkpt lat="45.94401" lon="4.72664">
        <ele>174</ele>
        <time>2018-05-23T08:25:44Z</time>
      </trkpt>
      <trkpt lat="45.94402" lon="4.72672">
        <ele>173</ele>
        <time>2018-05-23T08:25:45Z</time>
      </trkpt>
      <trkpt lat="45.94404" lon="4.72682">
        <ele>173</ele>
        <time>2018-05-23T08:25:46Z</time>
      </trkpt>
      <trkpt lat="45.94405" lon="4.72689">
        <ele>173</ele>
        <time>2018-05-23T08:25:47Z</time>
      </trkpt>
      <trkpt lat="45.94406" lon="4.72697">
        <ele>172</ele>
        <time>2018-05-23T08:25:48Z</time>
      </trkpt>
      <trkpt lat="45.94408" lon="4.72707">
        <ele>172</ele>
        <time>2018-05-23T08:25:49Z</time>
      </trkpt>
      <trkpt lat="45.94408" lon="4.72715">
        <ele>172</ele>
        <time>2018-05-23T08:25:50Z</time>
      </trkpt>
      <trkpt lat="45.94409" lon="4.72721">
        <ele>172</ele>
        <time>2018-05-23T08:25:51Z</time>
      </trkpt>
      <trkpt lat="45.9441" lon="4.72729">
        <ele>172</ele>
        <time>2018-05-23T08:25:52Z</time>
      </trkpt>
      <trkpt lat="45.9441" lon="4.72737">
        <ele>171</ele>
        <time>2018-05-23T08:25:53Z</time>
      </trkpt>
      <trkpt lat="45.94412" lon="4.72745">
        <ele>171</ele>
        <time>2018-05-23T08:25:54Z</time>
      </trkpt>
      <trkpt lat="45.94413" lon="4.72757">
        <ele>170</ele>
        <time>2018-05-23T08:25:56Z</time>
      </trkpt>
      <trkpt lat="45.94414" lon="4.72763">
        <ele>170</ele>
        <time>2018-05-23T08:25:57Z</time>
      </trkpt>
      <trkpt lat="45.94415" lon="4.7277">
        <ele>169</ele>
        <time>2018-05-23T08:25:58Z</time>
      </trkpt>
      <trkpt lat="45.94416" lon="4.72778">
        <ele>169</ele>
        <time>2018-05-23T08:25:59Z</time>
      </trkpt>
      <trkpt lat="45.94418" lon="4.7279">
        <ele>168</ele>
        <time>2018-05-23T08:26:01Z</time>
      </trkpt>
      <trkpt lat="45.94419" lon="4.72797">
        <ele>167</ele>
        <time>2018-05-23T08:26:02Z</time>
      </trkpt>
      <trkpt lat="45.9442" lon="4.72804">
        <ele>167</ele>
        <time>2018-05-23T08:26:03Z</time>
      </trkpt>
      <trkpt lat="45.94421" lon="4.7281">
        <ele>167</ele>
        <time>2018-05-23T08:26:04Z</time>
      </trkpt>
      <trkpt lat="45.94422" lon="4.72823">
        <ele>167</ele>
        <time>2018-05-23T08:26:06Z</time>
      </trkpt>
      <trkpt lat="45.94423" lon="4.72829">
        <ele>166</ele>
        <time>2018-05-23T08:26:07Z</time>
      </trkpt>
      <trkpt lat="45.94424" lon="4.7284">
        <ele>166</ele>
        <time>2018-05-23T08:26:09Z</time>
      </trkpt>
      <trkpt lat="45.94425" lon="4.72846">
        <ele>166</ele>
        <time>2018-05-23T08:26:10Z</time>
      </trkpt>
      <trkpt lat="45.94426" lon="4.72858">
        <ele>166</ele>
        <time>2018-05-23T08:26:12Z</time>
      </trkpt>
      <trkpt lat="45.94426" lon="4.72864">
        <ele>166</ele>
        <time>2018-05-23T08:26:13Z</time>
      </trkpt>
      <trkpt lat="45.94428" lon="4.72874">
        <ele>166</ele>
        <time>2018-05-23T08:26:15Z</time>
      </trkpt>
      <trkpt lat="45.94429" lon="4.7288">
        <ele>166</ele>
        <time>2018-05-23T08:26:16Z</time>
      </trkpt>
      <trkpt lat="45.94431" lon="4.72891">
        <ele>166</ele>
        <time>2018-05-23T08:26:18Z</time>
      </trkpt>
      <trkpt lat="45.94432" lon="4.72896">
        <ele>166</ele>
        <time>2018-05-23T08:26:19Z</time>
      </trkpt>
      <trkpt lat="45.94432" lon="4.72902">
        <ele>166</ele>
        <time>2018-05-23T08:26:20Z</time>
      </trkpt>
      <trkpt lat="45.94433" lon="4.72909">
        <ele>166</ele>
        <time>2018-05-23T08:26:21Z</time>
      </trkpt>
      <trkpt lat="45.94435" lon="4.72919">
        <ele>167</ele>
        <time>2018-05-23T08:26:23Z</time>
      </trkpt>
      <trkpt lat="45.94436" lon="4.72926">
        <ele>167</ele>
        <time>2018-05-23T08:26:24Z</time>
      </trkpt>
      <trkpt lat="45.94437" lon="4.72934">
        <ele>167</ele>
        <time>2018-05-23T08:26:25Z</time>
      </trkpt>
      <trkpt lat="45.94438" lon="4.72942">
        <ele>167</ele>
        <time>2018-05-23T08:26:26Z</time>
      </trkpt>
      <trkpt lat="45.94439" lon="4.7295">
        <ele>167</ele>
        <time>2018-05-23T08:26:27Z</time>
      </trkpt>
      <trkpt lat="45.94439" lon="4.72958">
        <ele>167</ele>
        <time>2018-05-23T08:26:28Z</time>
      </trkpt>
      <trkpt lat="45.9444" lon="4.72967">
        <ele>167</ele>
        <time>2018-05-23T08:26:29Z</time>
      </trkpt>
      <trkpt lat="45.94442" lon="4.72977">
        <ele>167</ele>
        <time>2018-05-23T08:26:30Z</time>
      </trkpt>
      <trkpt lat="45.94443" lon="4.72986">
        <ele>167</ele>
        <time>2018-05-23T08:26:31Z</time>
      </trkpt>
      <trkpt lat="45.94445" lon="4.72997">
        <ele>167</ele>
        <time>2018-05-23T08:26:32Z</time>
      </trkpt>
      <trkpt lat="45.94446" lon="4.73007">
        <ele>169</ele>
        <time>2018-05-23T08:26:33Z</time>
      </trkpt>
      <trkpt lat="45.94447" lon="4.73016">
        <ele>169</ele>
        <time>2018-05-23T08:26:34Z</time>
      </trkpt>
      <trkpt lat="45.94449" lon="4.73026">
        <ele>169</ele>
        <time>2018-05-23T08:26:35Z</time>
      </trkpt>
      <trkpt lat="45.9445" lon="4.73036">
        <ele>169</ele>
        <time>2018-05-23T08:26:36Z</time>
      </trkpt>
      <trkpt lat="45.94452" lon="4.73047">
        <ele>169</ele>
        <time>2018-05-23T08:26:37Z</time>
      </trkpt>
      <trkpt lat="45.94452" lon="4.73059">
        <ele>170</ele>
        <time>2018-05-23T08:26:38Z</time>
      </trkpt>
      <trkpt lat="45.94454" lon="4.7307">
        <ele>170</ele>
        <time>2018-05-23T08:26:39Z</time>
      </trkpt>
      <trkpt lat="45.94455" lon="4.73082">
        <ele>170</ele>
        <time>2018-05-23T08:26:40Z</time>
      </trkpt>
      <trkpt lat="45.94456" lon="4.73092">
        <ele>171</ele>
        <time>2018-05-23T08:26:41Z</time>
      </trkpt>
      <trkpt lat="45.94458" lon="4.73103">
        <ele>171</ele>
        <time>2018-05-23T08:26:42Z</time>
      </trkpt>
      <trkpt lat="45.94459" lon="4.73114">
        <ele>172</ele>
        <time>2018-05-23T08:26:43Z</time>
      </trkpt>
      <trkpt lat="45.9446" lon="4.73123">
        <ele>172</ele>
        <time>2018-05-23T08:26:44Z</time>
      </trkpt>
      <trkpt lat="45.94462" lon="4.73132">
        <ele>172</ele>
        <time>2018-05-23T08:26:45Z</time>
      </trkpt>
      <trkpt lat="45.94463" lon="4.73142">
        <ele>172</ele>
        <time>2018-05-23T08:26:46Z</time>
      </trkpt>
      <trkpt lat="45.94465" lon="4.73152">
        <ele>172</ele>
        <time>2018-05-23T08:26:47Z</time>
      </trkpt>
      <trkpt lat="45.94465" lon="4.73161">
        <ele>172</ele>
        <time>2018-05-23T08:26:48Z</time>
      </trkpt>
      <trkpt lat="45.94466" lon="4.7317">
        <ele>174</ele>
        <time>2018-05-23T08:26:49Z</time>
      </trkpt>
      <trkpt lat="45.94468" lon="4.73179">
        <ele>174</ele>
        <time>2018-05-23T08:26:50Z</time>
      </trkpt>
      <trkpt lat="45.94469" lon="4.73187">
        <ele>174</ele>
        <time>2018-05-23T08:26:51Z</time>
      </trkpt>
      <trkpt lat="45.9447" lon="4.73195">
        <ele>174</ele>
        <time>2018-05-23T08:26:52Z</time>
      </trkpt>
      <trkpt lat="45.9447" lon="4.73203">
        <ele>174</ele>
        <time>2018-05-23T08:26:53Z</time>
      </trkpt>
      <trkpt lat="45.94471" lon="4.73209">
        <ele>175</ele>
        <time>2018-05-23T08:26:54Z</time>
      </trkpt>
      <trkpt lat="45.94473" lon="4.73221">
        <ele>175</ele>
        <time>2018-05-23T08:26:56Z</time>
      </trkpt>
      <trkpt lat="45.94474" lon="4.73226">
        <ele>175</ele>
        <time>2018-05-23T08:26:57Z</time>
      </trkpt>
      <trkpt lat="45.94476" lon="4.73238">
        <ele>175</ele>
        <time>2018-05-23T08:26:59Z</time>
      </trkpt>
      <trkpt lat="45.94477" lon="4.73242">
        <ele>175</ele>
        <time>2018-05-23T08:27:00Z</time>
      </trkpt>
      <trkpt lat="45.94479" lon="4.73254">
        <ele>176</ele>
        <time>2018-05-23T08:27:03Z</time>
      </trkpt>
      <trkpt lat="45.94479" lon="4.73259">
        <ele>177</ele>
        <time>2018-05-23T08:27:04Z</time>
      </trkpt>
      <trkpt lat="45.94479" lon="4.73263">
        <ele>177</ele>
        <time>2018-05-23T08:27:05Z</time>
      </trkpt>
      <trkpt lat="45.94481" lon="4.73277">
        <ele>177</ele>
        <time>2018-05-23T08:27:06Z</time>
      </trkpt>
      <trkpt lat="45.94482" lon="4.73284">
        <ele>177</ele>
        <time>2018-05-23T08:27:07Z</time>
      </trkpt>
      <trkpt lat="45.94483" lon="4.73291">
        <ele>177</ele>
        <time>2018-05-23T08:27:08Z</time>
      </trkpt>
      <trkpt lat="45.94485" lon="4.73302">
        <ele>177</ele>
        <time>2018-05-23T08:27:10Z</time>
      </trkpt>
      <trkpt lat="45.94487" lon="4.73309">
        <ele>177</ele>
        <time>2018-05-23T08:27:11Z</time>
      </trkpt>
      <trkpt lat="45.94488" lon="4.7332">
        <ele>177</ele>
        <time>2018-05-23T08:27:13Z</time>
      </trkpt>
      <trkpt lat="45.94489" lon="4.73326">
        <ele>177</ele>
        <time>2018-05-23T08:27:14Z</time>
      </trkpt>
      <trkpt lat="45.9449" lon="4.73337">
        <ele>178</ele>
        <time>2018-05-23T08:27:16Z</time>
      </trkpt>
      <trkpt lat="45.9449" lon="4.73343">
        <ele>178</ele>
        <time>2018-05-23T08:27:17Z</time>
      </trkpt>
      <trkpt lat="45.94491" lon="4.73354">
        <ele>178</ele>
        <time>2018-05-23T08:27:19Z</time>
      </trkpt>
      <trkpt lat="45.94492" lon="4.73359">
        <ele>179</ele>
        <time>2018-05-23T08:27:20Z</time>
      </trkpt>
      <trkpt lat="45.94493" lon="4.7337">
        <ele>179</ele>
        <time>2018-05-23T08:27:22Z</time>
      </trkpt>
      <trkpt lat="45.94494" lon="4.73375">
        <ele>179</ele>
        <time>2018-05-23T08:27:23Z</time>
      </trkpt>
      <trkpt lat="45.94495" lon="4.73386">
        <ele>179</ele>
        <time>2018-05-23T08:27:25Z</time>
      </trkpt>
      <trkpt lat="45.94495" lon="4.73388">
        <ele>179</ele>
        <time>2018-05-23T08:27:26Z</time>
      </trkpt>
      <trkpt lat="45.94495" lon="4.73395">
        <ele>179</ele>
        <time>2018-05-23T08:27:28Z</time>
      </trkpt>
      <trkpt lat="45.94496" lon="4.73406">
        <ele>180</ele>
        <time>2018-05-23T08:27:29Z</time>
      </trkpt>
      <trkpt lat="45.94496" lon="4.73414">
        <ele>180</ele>
        <time>2018-05-23T08:27:31Z</time>
      </trkpt>
      <trkpt lat="45.94497" lon="4.73421">
        <ele>180</ele>
        <time>2018-05-23T08:27:32Z</time>
      </trkpt>
      <trkpt lat="45.94497" lon="4.73432">
        <ele>181</ele>
        <time>2018-05-23T08:27:34Z</time>
      </trkpt>
      <trkpt lat="45.94497" lon="4.73437">
        <ele>181</ele>
        <time>2018-05-23T08:27:35Z</time>
      </trkpt>
      <trkpt lat="45.94497" lon="4.73447">
        <ele>181</ele>
        <time>2018-05-23T08:27:37Z</time>
      </trkpt>
      <trkpt lat="45.94497" lon="4.73452">
        <ele>182</ele>
        <time>2018-05-23T08:27:38Z</time>
      </trkpt>
      <trkpt lat="45.94496" lon="4.73462">
        <ele>182</ele>
        <time>2018-05-23T08:27:40Z</time>
      </trkpt>
      <trkpt lat="45.94496" lon="4.73468">
        <ele>182</ele>
        <time>2018-05-23T08:27:41Z</time>
      </trkpt>
      <trkpt lat="45.94496" lon="4.73473">
        <ele>182</ele>
        <time>2018-05-23T08:27:43Z</time>
      </trkpt>
      <trkpt lat="45.94496" lon="4.73482">
        <ele>182</ele>
        <time>2018-05-23T08:27:44Z</time>
      </trkpt>
      <trkpt lat="45.94496" lon="4.73494">
        <ele>183</ele>
        <time>2018-05-23T08:27:46Z</time>
      </trkpt>
      <trkpt lat="45.94496" lon="4.73499">
        <ele>183</ele>
        <time>2018-05-23T08:27:47Z</time>
      </trkpt>
      <trkpt lat="45.94496" lon="4.73511">
        <ele>184</ele>
        <time>2018-05-23T08:27:49Z</time>
      </trkpt>
      <trkpt lat="45.94496" lon="4.73516">
        <ele>184</ele>
        <time>2018-05-23T08:27:50Z</time>
      </trkpt>
      <trkpt lat="45.94496" lon="4.73529">
        <ele>184</ele>
        <time>2018-05-23T08:27:52Z</time>
      </trkpt>
      <trkpt lat="45.94496" lon="4.73535">
        <ele>184</ele>
        <time>2018-05-23T08:27:53Z</time>
      </trkpt>
      <trkpt lat="45.94495" lon="4.73547">
        <ele>185</ele>
        <time>2018-05-23T08:27:55Z</time>
      </trkpt>
      <trkpt lat="45.94495" lon="4.73554">
        <ele>185</ele>
        <time>2018-05-23T08:27:56Z</time>
      </trkpt>
      <trkpt lat="45.94494" lon="4.73566">
        <ele>185</ele>
        <time>2018-05-23T08:27:58Z</time>
      </trkpt>
      <trkpt lat="45.94494" lon="4.73572">
        <ele>185</ele>
        <time>2018-05-23T08:27:59Z</time>
      </trkpt>
      <trkpt lat="45.94493" lon="4.73583">
        <ele>185</ele>
        <time>2018-05-23T08:28:01Z</time>
      </trkpt>
      <trkpt lat="45.94493" lon="4.73589">
        <ele>185</ele>
        <time>2018-05-23T08:28:02Z</time>
      </trkpt>
      <trkpt lat="45.94493" lon="4.736">
        <ele>185</ele>
        <time>2018-05-23T08:28:04Z</time>
      </trkpt>
      <trkpt lat="45.94493" lon="4.73606">
        <ele>186</ele>
        <time>2018-05-23T08:28:05Z</time>
      </trkpt>
      <trkpt lat="45.94493" lon="4.73614">
        <ele>186</ele>
        <time>2018-05-23T08:28:06Z</time>
      </trkpt>
      <trkpt lat="45.94494" lon="4.73621">
        <ele>186</ele>
        <time>2018-05-23T08:28:07Z</time>
      </trkpt>
      <trkpt lat="45.94493" lon="4.73627">
        <ele>186</ele>
        <time>2018-05-23T08:28:08Z</time>
      </trkpt>
      <trkpt lat="45.94492" lon="4.73635">
        <ele>186</ele>
        <time>2018-05-23T08:28:09Z</time>
      </trkpt>
      <trkpt lat="45.94491" lon="4.73641">
        <ele>186</ele>
        <time>2018-05-23T08:28:10Z</time>
      </trkpt>
      <trkpt lat="45.9449" lon="4.73648">
        <ele>186</ele>
        <time>2018-05-23T08:28:11Z</time>
      </trkpt>
      <trkpt lat="45.94489" lon="4.73656">
        <ele>185</ele>
        <time>2018-05-23T08:28:12Z</time>
      </trkpt>
      <trkpt lat="45.94487" lon="4.73663">
        <ele>185</ele>
        <time>2018-05-23T08:28:13Z</time>
      </trkpt>
      <trkpt lat="45.94486" lon="4.7367">
        <ele>185</ele>
        <time>2018-05-23T08:28:14Z</time>
      </trkpt>
      <trkpt lat="45.94485" lon="4.73679">
        <ele>186</ele>
        <time>2018-05-23T08:28:15Z</time>
      </trkpt>
      <trkpt lat="45.94484" lon="4.73686">
        <ele>186</ele>
        <time>2018-05-23T08:28:16Z</time>
      </trkpt>
      <trkpt lat="45.94483" lon="4.73692">
        <ele>186</ele>
        <time>2018-05-23T08:28:17Z</time>
      </trkpt>
      <trkpt lat="45.94481" lon="4.73699">
        <ele>186</ele>
        <time>2018-05-23T08:28:18Z</time>
      </trkpt>
      <trkpt lat="45.94481" lon="4.73707">
        <ele>186</ele>
        <time>2018-05-23T08:28:19Z</time>
      </trkpt>
      <trkpt lat="45.9448" lon="4.73714">
        <ele>186</ele>
        <time>2018-05-23T08:28:20Z</time>
      </trkpt>
      <trkpt lat="45.9448" lon="4.73721">
        <ele>186</ele>
        <time>2018-05-23T08:28:21Z</time>
      </trkpt>
      <trkpt lat="45.94479" lon="4.73728">
        <ele>186</ele>
        <time>2018-05-23T08:28:22Z</time>
      </trkpt>
      <trkpt lat="45.94478" lon="4.73734">
        <ele>186</ele>
        <time>2018-05-23T08:28:23Z</time>
      </trkpt>
      <trkpt lat="45.94478" lon="4.7374">
        <ele>186</ele>
        <time>2018-05-23T08:28:24Z</time>
      </trkpt>
      <trkpt lat="45.94477" lon="4.73747">
        <ele>186</ele>
        <time>2018-05-23T08:28:25Z</time>
      </trkpt>
      <trkpt lat="45.94475" lon="4.73753">
        <ele>186</ele>
        <time>2018-05-23T08:28:26Z</time>
      </trkpt>
      <trkpt lat="45.94474" lon="4.7376">
        <ele>186</ele>
        <time>2018-05-23T08:28:27Z</time>
      </trkpt>
      <trkpt lat="45.94474" lon="4.73767">
        <ele>186</ele>
        <time>2018-05-23T08:28:28Z</time>
      </trkpt>
      <trkpt lat="45.94477" lon="4.73773">
        <ele>186</ele>
        <time>2018-05-23T08:28:29Z</time>
      </trkpt>
      <trkpt lat="45.94483" lon="4.73781">
        <ele>186</ele>
        <time>2018-05-23T08:28:31Z</time>
      </trkpt>
      <trkpt lat="45.94487" lon="4.73785">
        <ele>186</ele>
        <time>2018-05-23T08:28:32Z</time>
      </trkpt>
      <trkpt lat="45.94491" lon="4.73788">
        <ele>186</ele>
        <time>2018-05-23T08:28:33Z</time>
      </trkpt>
      <trkpt lat="45.94495" lon="4.73792">
        <ele>185</ele>
        <time>2018-05-23T08:28:34Z</time>
      </trkpt>
      <trkpt lat="45.94503" lon="4.73796">
        <ele>186</ele>
        <time>2018-05-23T08:28:36Z</time>
      </trkpt>
      <trkpt lat="45.94506" lon="4.73801">
        <ele>186</ele>
        <time>2018-05-23T08:28:37Z</time>
      </trkpt>
      <trkpt lat="45.94511" lon="4.73804">
        <ele>186</ele>
        <time>2018-05-23T08:28:38Z</time>
      </trkpt>
      <trkpt lat="45.94514" lon="4.73808">
        <ele>186</ele>
        <time>2018-05-23T08:28:39Z</time>
      </trkpt>
      <trkpt lat="45.94518" lon="4.73812">
        <ele>186</ele>
        <time>2018-05-23T08:28:40Z</time>
      </trkpt>
      <trkpt lat="45.94522" lon="4.73818">
        <ele>186</ele>
        <time>2018-05-23T08:28:41Z</time>
      </trkpt>
      <trkpt lat="45.94526" lon="4.73823">
        <ele>186</ele>
        <time>2018-05-23T08:28:42Z</time>
      </trkpt>
      <trkpt lat="45.94531" lon="4.73827">
        <ele>186</ele>
        <time>2018-05-23T08:28:43Z</time>
      </trkpt>
      <trkpt lat="45.94535" lon="4.73831">
        <ele>186</ele>
        <time>2018-05-23T08:28:44Z</time>
      </trkpt>
      <trkpt lat="45.9454" lon="4.73835">
        <ele>186</ele>
        <time>2018-05-23T08:28:45Z</time>
      </trkpt>
      <trkpt lat="45.94544" lon="4.73839">
        <ele>186</ele>
        <time>2018-05-23T08:28:46Z</time>
      </trkpt>
      <trkpt lat="45.94547" lon="4.73843">
        <ele>186</ele>
        <time>2018-05-23T08:28:47Z</time>
      </trkpt>
      <trkpt lat="45.94551" lon="4.73848">
        <ele>186</ele>
        <time>2018-05-23T08:28:48Z</time>
      </trkpt>
      <trkpt lat="45.94555" lon="4.73849">
        <ele>186</ele>
        <time>2018-05-23T08:28:49Z</time>
      </trkpt>
      <trkpt lat="45.9456" lon="4.73853">
        <ele>186</ele>
        <time>2018-05-23T08:28:50Z</time>
      </trkpt>
      <trkpt lat="45.94564" lon="4.73858">
        <ele>186</ele>
        <time>2018-05-23T08:28:51Z</time>
      </trkpt>
      <trkpt lat="45.94568" lon="4.73862">
        <ele>186</ele>
        <time>2018-05-23T08:28:52Z</time>
      </trkpt>
      <trkpt lat="45.94572" lon="4.73866">
        <ele>186</ele>
        <time>2018-05-23T08:28:53Z</time>
      </trkpt>
      <trkpt lat="45.94576" lon="4.73871">
        <ele>186</ele>
        <time>2018-05-23T08:28:54Z</time>
      </trkpt>
      <trkpt lat="45.9458" lon="4.73875">
        <ele>186</ele>
        <time>2018-05-23T08:28:55Z</time>
      </trkpt>
      <trkpt lat="45.94587" lon="4.73881">
        <ele>187</ele>
        <time>2018-05-23T08:28:57Z</time>
      </trkpt>
      <trkpt lat="45.9459" lon="4.73886">
        <ele>187</ele>
        <time>2018-05-23T08:28:58Z</time>
      </trkpt>
      <trkpt lat="45.94597" lon="4.73894">
        <ele>187</ele>
        <time>2018-05-23T08:29:00Z</time>
      </trkpt>
      <trkpt lat="45.946" lon="4.73898">
        <ele>187</ele>
        <time>2018-05-23T08:29:01Z</time>
      </trkpt>
      <trkpt lat="45.94607" lon="4.73905">
        <ele>187</ele>
        <time>2018-05-23T08:29:03Z</time>
      </trkpt>
      <trkpt lat="45.94611" lon="4.7391">
        <ele>187</ele>
        <time>2018-05-23T08:29:04Z</time>
      </trkpt>
      <trkpt lat="45.94618" lon="4.73917">
        <ele>187</ele>
        <time>2018-05-23T08:29:06Z</time>
      </trkpt>
      <trkpt lat="45.94622" lon="4.73922">
        <ele>187</ele>
        <time>2018-05-23T08:29:07Z</time>
      </trkpt>
      <trkpt lat="45.94625" lon="4.73926">
        <ele>187</ele>
        <time>2018-05-23T08:29:08Z</time>
      </trkpt>
      <trkpt lat="45.94629" lon="4.7393">
        <ele>187</ele>
        <time>2018-05-23T08:29:09Z</time>
      </trkpt>
      <trkpt lat="45.94636" lon="4.73939">
        <ele>187</ele>
        <time>2018-05-23T08:29:11Z</time>
      </trkpt>
      <trkpt lat="45.94638" lon="4.73944">
        <ele>187</ele>
        <time>2018-05-23T08:29:12Z</time>
      </trkpt>
      <trkpt lat="45.94642" lon="4.73951">
        <ele>187</ele>
        <time>2018-05-23T08:29:13Z</time>
      </trkpt>
      <trkpt lat="45.94645" lon="4.73956">
        <ele>187</ele>
        <time>2018-05-23T08:29:14Z</time>
      </trkpt>
      <trkpt lat="45.94649" lon="4.7396">
        <ele>187</ele>
        <time>2018-05-23T08:29:15Z</time>
      </trkpt>
      <trkpt lat="45.94652" lon="4.73968">
        <ele>187</ele>
        <time>2018-05-23T08:29:16Z</time>
      </trkpt>
      <trkpt lat="45.94656" lon="4.73972">
        <ele>187</ele>
        <time>2018-05-23T08:29:17Z</time>
      </trkpt>
      <trkpt lat="45.9466" lon="4.73977">
        <ele>187</ele>
        <time>2018-05-23T08:29:18Z</time>
      </trkpt>
      <trkpt lat="45.94664" lon="4.73982">
        <ele>187</ele>
        <time>2018-05-23T08:29:19Z</time>
      </trkpt>
      <trkpt lat="45.94668" lon="4.73987">
        <ele>187</ele>
        <time>2018-05-23T08:29:20Z</time>
      </trkpt>
      <trkpt lat="45.94672" lon="4.73993">
        <ele>187</ele>
        <time>2018-05-23T08:29:21Z</time>
      </trkpt>
      <trkpt lat="45.94676" lon="4.73999">
        <ele>187</ele>
        <time>2018-05-23T08:29:22Z</time>
      </trkpt>
      <trkpt lat="45.9468" lon="4.74003">
        <ele>187</ele>
        <time>2018-05-23T08:29:23Z</time>
      </trkpt>
      <trkpt lat="45.94684" lon="4.74008">
        <ele>187</ele>
        <time>2018-05-23T08:29:24Z</time>
      </trkpt>
      <trkpt lat="45.94688" lon="4.74012">
        <ele>187</ele>
        <time>2018-05-23T08:29:25Z</time>
      </trkpt>
      <trkpt lat="45.94693" lon="4.74015">
        <ele>187</ele>
        <time>2018-05-23T08:29:26Z</time>
      </trkpt>
      <trkpt lat="45.94697" lon="4.74021">
        <ele>187</ele>
        <time>2018-05-23T08:29:27Z</time>
      </trkpt>
      <trkpt lat="45.94701" lon="4.74025">
        <ele>187</ele>
        <time>2018-05-23T08:29:28Z</time>
      </trkpt>
      <trkpt lat="45.94704" lon="4.7403">
        <ele>187</ele>
        <time>2018-05-23T08:29:29Z</time>
      </trkpt>
      <trkpt lat="45.94708" lon="4.74036">
        <ele>187</ele>
        <time>2018-05-23T08:29:30Z</time>
      </trkpt>
      <trkpt lat="45.94712" lon="4.74041">
        <ele>187</ele>
        <time>2018-05-23T08:29:31Z</time>
      </trkpt>
      <trkpt lat="45.94715" lon="4.74046">
        <ele>187</ele>
        <time>2018-05-23T08:29:32Z</time>
      </trkpt>
      <trkpt lat="45.94719" lon="4.74053">
        <ele>187</ele>
        <time>2018-05-23T08:29:33Z</time>
      </trkpt>
      <trkpt lat="45.94722" lon="4.74058">
        <ele>188</ele>
        <time>2018-05-23T08:29:34Z</time>
      </trkpt>
      <trkpt lat="45.94726" lon="4.74063">
        <ele>188</ele>
        <time>2018-05-23T08:29:35Z</time>
      </trkpt>
      <trkpt lat="45.94729" lon="4.74068">
        <ele>188</ele>
        <time>2018-05-23T08:29:36Z</time>
      </trkpt>
      <trkpt lat="45.94733" lon="4.74073">
        <ele>188</ele>
        <time>2018-05-23T08:29:37Z</time>
      </trkpt>
      <trkpt lat="45.94737" lon="4.74079">
        <ele>188</ele>
        <time>2018-05-23T08:29:38Z</time>
      </trkpt>
      <trkpt lat="45.94741" lon="4.74084">
        <ele>188</ele>
        <time>2018-05-23T08:29:39Z</time>
      </trkpt>
      <trkpt lat="45.94745" lon="4.74089">
        <ele>188</ele>
        <time>2018-05-23T08:29:40Z</time>
      </trkpt>
      <trkpt lat="45.94749" lon="4.74094">
        <ele>188</ele>
        <time>2018-05-23T08:29:41Z</time>
      </trkpt>
      <trkpt lat="45.94752" lon="4.74099">
        <ele>189</ele>
        <time>2018-05-23T08:29:42Z</time>
      </trkpt>
      <trkpt lat="45.94759" lon="4.74107">
        <ele>189</ele>
        <time>2018-05-23T08:29:44Z</time>
      </trkpt>
      <trkpt lat="45.94762" lon="4.74112">
        <ele>189</ele>
        <time>2018-05-23T08:29:45Z</time>
      </trkpt>
      <trkpt lat="45.94765" lon="4.74117">
        <ele>189</ele>
        <time>2018-05-23T08:29:46Z</time>
      </trkpt>
      <trkpt lat="45.94769" lon="4.74121">
        <ele>189</ele>
        <time>2018-05-23T08:29:47Z</time>
      </trkpt>
      <trkpt lat="45.94772" lon="4.74127">
        <ele>189</ele>
        <time>2018-05-23T08:29:48Z</time>
      </trkpt>
      <trkpt lat="45.94775" lon="4.74132">
        <ele>189</ele>
        <time>2018-05-23T08:29:49Z</time>
      </trkpt>
      <trkpt lat="45.94778" lon="4.74137">
        <ele>189</ele>
        <time>2018-05-23T08:29:50Z</time>
      </trkpt>
      <trkpt lat="45.94782" lon="4.74141">
        <ele>189</ele>
        <time>2018-05-23T08:29:51Z</time>
      </trkpt>
      <trkpt lat="45.94789" lon="4.74149">
        <ele>189</ele>
        <time>2018-05-23T08:29:53Z</time>
      </trkpt>
      <trkpt lat="45.94792" lon="4.74154">
        <ele>189</ele>
        <time>2018-05-23T08:29:54Z</time>
      </trkpt>
      <trkpt lat="45.94796" lon="4.74159">
        <ele>189</ele>
        <time>2018-05-23T08:29:55Z</time>
      </trkpt>
      <trkpt lat="45.94799" lon="4.74165">
        <ele>189</ele>
        <time>2018-05-23T08:29:56Z</time>
      </trkpt>
      <trkpt lat="45.94802" lon="4.7417">
        <ele>189</ele>
        <time>2018-05-23T08:29:57Z</time>
      </trkpt>
      <trkpt lat="45.94805" lon="4.74176">
        <ele>189</ele>
        <time>2018-05-23T08:29:58Z</time>
      </trkpt>
      <trkpt lat="45.94808" lon="4.74181">
        <ele>189</ele>
        <time>2018-05-23T08:29:59Z</time>
      </trkpt>
      <trkpt lat="45.94811" lon="4.74186">
        <ele>189</ele>
        <time>2018-05-23T08:30:00Z</time>
      </trkpt>
      <trkpt lat="45.94814" lon="4.74192">
        <ele>189</ele>
        <time>2018-05-23T08:30:01Z</time>
      </trkpt>
      <trkpt lat="45.94817" lon="4.74199">
        <ele>189</ele>
        <time>2018-05-23T08:30:02Z</time>
      </trkpt>
      <trkpt lat="45.9482" lon="4.74204">
        <ele>189</ele>
        <time>2018-05-23T08:30:03Z</time>
      </trkpt>
      <trkpt lat="45.94823" lon="4.7421">
        <ele>188</ele>
        <time>2018-05-23T08:30:04Z</time>
      </trkpt>
      <trkpt lat="45.94827" lon="4.74216">
        <ele>188</ele>
        <time>2018-05-23T08:30:05Z</time>
      </trkpt>
      <trkpt lat="45.9483" lon="4.74223">
        <ele>188</ele>
        <time>2018-05-23T08:30:06Z</time>
      </trkpt>
      <trkpt lat="45.94832" lon="4.74231">
        <ele>189</ele>
        <time>2018-05-23T08:30:07Z</time>
      </trkpt>
      <trkpt lat="45.94835" lon="4.74236">
        <ele>190</ele>
        <time>2018-05-23T08:30:08Z</time>
      </trkpt>
      <trkpt lat="45.94838" lon="4.74241">
        <ele>189</ele>
        <time>2018-05-23T08:30:09Z</time>
      </trkpt>
      <trkpt lat="45.94841" lon="4.74246">
        <ele>189</ele>
        <time>2018-05-23T08:30:10Z</time>
      </trkpt>
      <trkpt lat="45.94844" lon="4.74252">
        <ele>190</ele>
        <time>2018-05-23T08:30:11Z</time>
      </trkpt>
      <trkpt lat="45.94847" lon="4.74257">
        <ele>190</ele>
        <time>2018-05-23T08:30:12Z</time>
      </trkpt>
      <trkpt lat="45.94852" lon="4.74263">
        <ele>190</ele>
        <time>2018-05-23T08:30:13Z</time>
      </trkpt>
      <trkpt lat="45.94856" lon="4.74268">
        <ele>190</ele>
        <time>2018-05-23T08:30:14Z</time>
      </trkpt>
      <trkpt lat="45.9486" lon="4.74273">
        <ele>190</ele>
        <time>2018-05-23T08:30:15Z</time>
      </trkpt>
      <trkpt lat="45.94863" lon="4.74279">
        <ele>190</ele>
        <time>2018-05-23T08:30:16Z</time>
      </trkpt>
      <trkpt lat="45.94866" lon="4.74286">
        <ele>191</ele>
        <time>2018-05-23T08:30:17Z</time>
      </trkpt>
      <trkpt lat="45.94868" lon="4.74293">
        <ele>191</ele>
        <time>2018-05-23T08:30:18Z</time>
      </trkpt>
      <trkpt lat="45.94871" lon="4.74299">
        <ele>191</ele>
        <time>2018-05-23T08:30:19Z</time>
      </trkpt>
      <trkpt lat="45.94875" lon="4.74306">
        <ele>191</ele>
        <time>2018-05-23T08:30:20Z</time>
      </trkpt>
      <trkpt lat="45.94878" lon="4.74312">
        <ele>191</ele>
        <time>2018-05-23T08:30:21Z</time>
      </trkpt>
      <trkpt lat="45.94881" lon="4.74319">
        <ele>191</ele>
        <time>2018-05-23T08:30:22Z</time>
      </trkpt>
      <trkpt lat="45.94883" lon="4.74325">
        <ele>191</ele>
        <time>2018-05-23T08:30:23Z</time>
      </trkpt>
      <trkpt lat="45.94886" lon="4.74331">
        <ele>191</ele>
        <time>2018-05-23T08:30:24Z</time>
      </trkpt>
      <trkpt lat="45.94889" lon="4.74337">
        <ele>191</ele>
        <time>2018-05-23T08:30:25Z</time>
      </trkpt>
      <trkpt lat="45.94892" lon="4.74344">
        <ele>191</ele>
        <time>2018-05-23T08:30:26Z</time>
      </trkpt>
      <trkpt lat="45.94895" lon="4.7435">
        <ele>191</ele>
        <time>2018-05-23T08:30:27Z</time>
      </trkpt>
      <trkpt lat="45.94898" lon="4.74355">
        <ele>191</ele>
        <time>2018-05-23T08:30:28Z</time>
      </trkpt>
      <trkpt lat="45.94901" lon="4.7436">
        <ele>191</ele>
        <time>2018-05-23T08:30:29Z</time>
      </trkpt>
      <trkpt lat="45.94904" lon="4.74366">
        <ele>191</ele>
        <time>2018-05-23T08:30:30Z</time>
      </trkpt>
      <trkpt lat="45.94907" lon="4.74373">
        <ele>191</ele>
        <time>2018-05-23T08:30:31Z</time>
      </trkpt>
      <trkpt lat="45.9491" lon="4.74377">
        <ele>191</ele>
        <time>2018-05-23T08:30:32Z</time>
      </trkpt>
      <trkpt lat="45.94912" lon="4.74383">
        <ele>191</ele>
        <time>2018-05-23T08:30:33Z</time>
      </trkpt>
      <trkpt lat="45.94915" lon="4.74388">
        <ele>191</ele>
        <time>2018-05-23T08:30:34Z</time>
      </trkpt>
      <trkpt lat="45.9492" lon="4.74398">
        <ele>192</ele>
        <time>2018-05-23T08:30:36Z</time>
      </trkpt>
      <trkpt lat="45.94923" lon="4.74403">
        <ele>192</ele>
        <time>2018-05-23T08:30:37Z</time>
      </trkpt>
      <trkpt lat="45.94925" lon="4.74408">
        <ele>192</ele>
        <time>2018-05-23T08:30:38Z</time>
      </trkpt>
      <trkpt lat="45.94928" lon="4.74414">
        <ele>192</ele>
        <time>2018-05-23T08:30:39Z</time>
      </trkpt>
      <trkpt lat="45.94931" lon="4.74419">
        <ele>192</ele>
        <time>2018-05-23T08:30:40Z</time>
      </trkpt>
      <trkpt lat="45.94933" lon="4.74426">
        <ele>192</ele>
        <time>2018-05-23T08:30:41Z</time>
      </trkpt>
      <trkpt lat="45.94938" lon="4.74435">
        <ele>192</ele>
        <time>2018-05-23T08:30:43Z</time>
      </trkpt>
      <trkpt lat="45.94941" lon="4.74441">
        <ele>192</ele>
        <time>2018-05-23T08:30:44Z</time>
      </trkpt>
      <trkpt lat="45.94944" lon="4.74446">
        <ele>192</ele>
        <time>2018-05-23T08:30:45Z</time>
      </trkpt>
      <trkpt lat="45.94947" lon="4.74452">
        <ele>192</ele>
        <time>2018-05-23T08:30:46Z</time>
      </trkpt>
      <trkpt lat="45.94949" lon="4.74458">
        <ele>192</ele>
        <time>2018-05-23T08:30:47Z</time>
      </trkpt>
      <trkpt lat="45.94952" lon="4.74463">
        <ele>193</ele>
        <time>2018-05-23T08:30:48Z</time>
      </trkpt>
      <trkpt lat="45.94955" lon="4.74468">
        <ele>193</ele>
        <time>2018-05-23T08:30:49Z</time>
      </trkpt>
      <trkpt lat="45.94958" lon="4.74474">
        <ele>193</ele>
        <time>2018-05-23T08:30:50Z</time>
      </trkpt>
      <trkpt lat="45.94961" lon="4.7448">
        <ele>193</ele>
        <time>2018-05-23T08:30:51Z</time>
      </trkpt>
      <trkpt lat="45.94964" lon="4.74485">
        <ele>193</ele>
        <time>2018-05-23T08:30:52Z</time>
      </trkpt>
      <trkpt lat="45.94967" lon="4.74491">
        <ele>193</ele>
        <time>2018-05-23T08:30:53Z</time>
      </trkpt>
      <trkpt lat="45.9497" lon="4.74496">
        <ele>193</ele>
        <time>2018-05-23T08:30:54Z</time>
      </trkpt>
      <trkpt lat="45.94974" lon="4.74499">
        <ele>193</ele>
        <time>2018-05-23T08:30:55Z</time>
      </trkpt>
      <trkpt lat="45.94977" lon="4.74505">
        <ele>193</ele>
        <time>2018-05-23T08:30:56Z</time>
      </trkpt>
      <trkpt lat="45.9498" lon="4.74512">
        <ele>193</ele>
        <time>2018-05-23T08:30:57Z</time>
      </trkpt>
      <trkpt lat="45.94982" lon="4.74517">
        <ele>193</ele>
        <time>2018-05-23T08:30:58Z</time>
      </trkpt>
      <trkpt lat="45.94986" lon="4.74522">
        <ele>193</ele>
        <time>2018-05-23T08:30:59Z</time>
      </trkpt>
      <trkpt lat="45.94989" lon="4.74528">
        <ele>193</ele>
        <time>2018-05-23T08:31:00Z</time>
      </trkpt>
      <trkpt lat="45.94992" lon="4.74533">
        <ele>193</ele>
        <time>2018-05-23T08:31:01Z</time>
      </trkpt>
      <trkpt lat="45.94995" lon="4.74539">
        <ele>193</ele>
        <time>2018-05-23T08:31:02Z</time>
      </trkpt>
      <trkpt lat="45.94998" lon="4.74544">
        <ele>193</ele>
        <time>2018-05-23T08:31:03Z</time>
      </trkpt>
      <trkpt lat="45.95001" lon="4.74551">
        <ele>194</ele>
        <time>2018-05-23T08:31:04Z</time>
      </trkpt>
      <trkpt lat="45.95004" lon="4.74557">
        <ele>194</ele>
        <time>2018-05-23T08:31:05Z</time>
      </trkpt>
      <trkpt lat="45.95007" lon="4.74563">
        <ele>194</ele>
        <time>2018-05-23T08:31:06Z</time>
      </trkpt>
      <trkpt lat="45.9501" lon="4.74569">
        <ele>194</ele>
        <time>2018-05-23T08:31:07Z</time>
      </trkpt>
      <trkpt lat="45.95012" lon="4.74576">
        <ele>194</ele>
        <time>2018-05-23T08:31:08Z</time>
      </trkpt>
      <trkpt lat="45.95015" lon="4.74581">
        <ele>194</ele>
        <time>2018-05-23T08:31:09Z</time>
      </trkpt>
      <trkpt lat="45.95018" lon="4.74587">
        <ele>194</ele>
        <time>2018-05-23T08:31:10Z</time>
      </trkpt>
      <trkpt lat="45.95021" lon="4.74593">
        <ele>194</ele>
        <time>2018-05-23T08:31:11Z</time>
      </trkpt>
      <trkpt lat="45.95024" lon="4.74598">
        <ele>194</ele>
        <time>2018-05-23T08:31:12Z</time>
      </trkpt>
      <trkpt lat="45.95027" lon="4.74604">
        <ele>194</ele>
        <time>2018-05-23T08:31:13Z</time>
      </trkpt>
      <trkpt lat="45.9503" lon="4.7461">
        <ele>194</ele>
        <time>2018-05-23T08:31:14Z</time>
      </trkpt>
      <trkpt lat="45.95033" lon="4.74617">
        <ele>194</ele>
        <time>2018-05-23T08:31:15Z</time>
      </trkpt>
      <trkpt lat="45.95037" lon="4.74623">
        <ele>194</ele>
        <time>2018-05-23T08:31:16Z</time>
      </trkpt>
      <trkpt lat="45.9504" lon="4.74629">
        <ele>194</ele>
        <time>2018-05-23T08:31:17Z</time>
      </trkpt>
      <trkpt lat="45.95043" lon="4.74635">
        <ele>194</ele>
        <time>2018-05-23T08:31:18Z</time>
      </trkpt>
      <trkpt lat="45.95045" lon="4.74641">
        <ele>194</ele>
        <time>2018-05-23T08:31:19Z</time>
      </trkpt>
      <trkpt lat="45.95048" lon="4.74646">
        <ele>194</ele>
        <time>2018-05-23T08:31:20Z</time>
      </trkpt>
      <trkpt lat="45.95051" lon="4.74652">
        <ele>194</ele>
        <time>2018-05-23T08:31:21Z</time>
      </trkpt>
      <trkpt lat="45.95054" lon="4.74657">
        <ele>194</ele>
        <time>2018-05-23T08:31:22Z</time>
      </trkpt>
      <trkpt lat="45.95057" lon="4.74663">
        <ele>194</ele>
        <time>2018-05-23T08:31:23Z</time>
      </trkpt>
      <trkpt lat="45.9506" lon="4.74669">
        <ele>194</ele>
        <time>2018-05-23T08:31:24Z</time>
      </trkpt>
      <trkpt lat="45.95065" lon="4.74679">
        <ele>194</ele>
        <time>2018-05-23T08:31:26Z</time>
      </trkpt>
      <trkpt lat="45.95069" lon="4.74685">
        <ele>194</ele>
        <time>2018-05-23T08:31:27Z</time>
      </trkpt>
      <trkpt lat="45.95072" lon="4.74691">
        <ele>194</ele>
        <time>2018-05-23T08:31:28Z</time>
      </trkpt>
      <trkpt lat="45.95075" lon="4.74697">
        <ele>194</ele>
        <time>2018-05-23T08:31:29Z</time>
      </trkpt>
      <trkpt lat="45.95079" lon="4.74703">
        <ele>194</ele>
        <time>2018-05-23T08:31:30Z</time>
      </trkpt>
      <trkpt lat="45.95082" lon="4.74708">
        <ele>194</ele>
        <time>2018-05-23T08:31:31Z</time>
      </trkpt>
      <trkpt lat="45.95085" lon="4.74713">
        <ele>194</ele>
        <time>2018-05-23T08:31:32Z</time>
      </trkpt>
      <trkpt lat="45.95088" lon="4.74719">
        <ele>194</ele>
        <time>2018-05-23T08:31:33Z</time>
      </trkpt>
      <trkpt lat="45.95092" lon="4.74725">
        <ele>194</ele>
        <time>2018-05-23T08:31:34Z</time>
      </trkpt>
      <trkpt lat="45.95096" lon="4.7473">
        <ele>194</ele>
        <time>2018-05-23T08:31:35Z</time>
      </trkpt>
      <trkpt lat="45.95099" lon="4.74736">
        <ele>194</ele>
        <time>2018-05-23T08:31:36Z</time>
      </trkpt>
      <trkpt lat="45.95103" lon="4.74742">
        <ele>194</ele>
        <time>2018-05-23T08:31:37Z</time>
      </trkpt>
      <trkpt lat="45.95108" lon="4.74747">
        <ele>194</ele>
        <time>2018-05-23T08:31:38Z</time>
      </trkpt>
      <trkpt lat="45.95112" lon="4.74754">
        <ele>194</ele>
        <time>2018-05-23T08:31:39Z</time>
      </trkpt>
      <trkpt lat="45.95115" lon="4.7476">
        <ele>194</ele>
        <time>2018-05-23T08:31:40Z</time>
      </trkpt>
      <trkpt lat="45.95119" lon="4.74768">
        <ele>194</ele>
        <time>2018-05-23T08:31:41Z</time>
      </trkpt>
      <trkpt lat="45.95122" lon="4.74774">
        <ele>194</ele>
        <time>2018-05-23T08:31:42Z</time>
      </trkpt>
      <trkpt lat="45.95126" lon="4.74779">
        <ele>194</ele>
        <time>2018-05-23T08:31:43Z</time>
      </trkpt>
      <trkpt lat="45.9513" lon="4.74785">
        <ele>194</ele>
        <time>2018-05-23T08:31:44Z</time>
      </trkpt>
      <trkpt lat="45.95133" lon="4.74791">
        <ele>194</ele>
        <time>2018-05-23T08:31:45Z</time>
      </trkpt>
      <trkpt lat="45.95137" lon="4.74796">
        <ele>194</ele>
        <time>2018-05-23T08:31:46Z</time>
      </trkpt>
      <trkpt lat="45.95141" lon="4.74802">
        <ele>194</ele>
        <time>2018-05-23T08:31:47Z</time>
      </trkpt>
      <trkpt lat="45.95144" lon="4.74809">
        <ele>194</ele>
        <time>2018-05-23T08:31:48Z</time>
      </trkpt>
      <trkpt lat="45.95148" lon="4.74815">
        <ele>194</ele>
        <time>2018-05-23T08:31:49Z</time>
      </trkpt>
      <trkpt lat="45.95151" lon="4.74823">
        <ele>194</ele>
        <time>2018-05-23T08:31:50Z</time>
      </trkpt>
      <trkpt lat="45.95155" lon="4.74829">
        <ele>194</ele>
        <time>2018-05-23T08:31:51Z</time>
      </trkpt>
      <trkpt lat="45.95159" lon="4.74835">
        <ele>194</ele>
        <time>2018-05-23T08:31:52Z</time>
      </trkpt>
      <trkpt lat="45.95163" lon="4.74841">
        <ele>193</ele>
        <time>2018-05-23T08:31:53Z</time>
      </trkpt>
      <trkpt lat="45.95167" lon="4.74847">
        <ele>194</ele>
        <time>2018-05-23T08:31:54Z</time>
      </trkpt>
      <trkpt lat="45.95171" lon="4.74851">
        <ele>194</ele>
        <time>2018-05-23T08:31:55Z</time>
      </trkpt>
      <trkpt lat="45.95174" lon="4.74857">
        <ele>194</ele>
        <time>2018-05-23T08:31:56Z</time>
      </trkpt>
      <trkpt lat="45.95178" lon="4.74862">
        <ele>194</ele>
        <time>2018-05-23T08:31:57Z</time>
      </trkpt>
      <trkpt lat="45.95181" lon="4.74868">
        <ele>194</ele>
        <time>2018-05-23T08:31:58Z</time>
      </trkpt>
      <trkpt lat="45.95184" lon="4.74873">
        <ele>194</ele>
        <time>2018-05-23T08:31:59Z</time>
      </trkpt>
      <trkpt lat="45.95188" lon="4.74879">
        <ele>194</ele>
        <time>2018-05-23T08:32:00Z</time>
      </trkpt>
      <trkpt lat="45.95192" lon="4.74884">
        <ele>194</ele>
        <time>2018-05-23T08:32:01Z</time>
      </trkpt>
      <trkpt lat="45.95195" lon="4.74891">
        <ele>194</ele>
        <time>2018-05-23T08:32:02Z</time>
      </trkpt>
      <trkpt lat="45.95198" lon="4.74896">
        <ele>194</ele>
        <time>2018-05-23T08:32:03Z</time>
      </trkpt>
      <trkpt lat="45.95202" lon="4.74901">
        <ele>194</ele>
        <time>2018-05-23T08:32:04Z</time>
      </trkpt>
      <trkpt lat="45.95206" lon="4.74907">
        <ele>194</ele>
        <time>2018-05-23T08:32:05Z</time>
      </trkpt>
      <trkpt lat="45.95209" lon="4.74913">
        <ele>193</ele>
        <time>2018-05-23T08:32:06Z</time>
      </trkpt>
      <trkpt lat="45.95213" lon="4.74919">
        <ele>192</ele>
        <time>2018-05-23T08:32:07Z</time>
      </trkpt>
      <trkpt lat="45.95216" lon="4.74924">
        <ele>192</ele>
        <time>2018-05-23T08:32:08Z</time>
      </trkpt>
      <trkpt lat="45.9522" lon="4.7493">
        <ele>192</ele>
        <time>2018-05-23T08:32:09Z</time>
      </trkpt>
      <trkpt lat="45.95224" lon="4.74936">
        <ele>192</ele>
        <time>2018-05-23T08:32:10Z</time>
      </trkpt>
      <trkpt lat="45.95228" lon="4.74941">
        <ele>192</ele>
        <time>2018-05-23T08:32:11Z</time>
      </trkpt>
      <trkpt lat="45.95232" lon="4.74946">
        <ele>192</ele>
        <time>2018-05-23T08:32:12Z</time>
      </trkpt>
      <trkpt lat="45.95236" lon="4.74952">
        <ele>192</ele>
        <time>2018-05-23T08:32:13Z</time>
      </trkpt>
      <trkpt lat="45.95239" lon="4.74957">
        <ele>192</ele>
        <time>2018-05-23T08:32:14Z</time>
      </trkpt>
      <trkpt lat="45.95243" lon="4.74963">
        <ele>191</ele>
        <time>2018-05-23T08:32:15Z</time>
      </trkpt>
      <trkpt lat="45.95247" lon="4.74969">
        <ele>191</ele>
        <time>2018-05-23T08:32:16Z</time>
      </trkpt>
      <trkpt lat="45.9525" lon="4.74975">
        <ele>191</ele>
        <time>2018-05-23T08:32:17Z</time>
      </trkpt>
      <trkpt lat="45.95253" lon="4.74981">
        <ele>192</ele>
        <time>2018-05-23T08:32:18Z</time>
      </trkpt>
      <trkpt lat="45.95257" lon="4.74986">
        <ele>192</ele>
        <time>2018-05-23T08:32:19Z</time>
      </trkpt>
      <trkpt lat="45.9526" lon="4.74994">
        <ele>192</ele>
        <time>2018-05-23T08:32:20Z</time>
      </trkpt>
      <trkpt lat="45.95263" lon="4.75">
        <ele>192</ele>
        <time>2018-05-23T08:32:21Z</time>
      </trkpt>
      <trkpt lat="45.95267" lon="4.75005">
        <ele>191</ele>
        <time>2018-05-23T08:32:22Z</time>
      </trkpt>
      <trkpt lat="45.95271" lon="4.75011">
        <ele>191</ele>
        <time>2018-05-23T08:32:23Z</time>
      </trkpt>
      <trkpt lat="45.95275" lon="4.75017">
        <ele>191</ele>
        <time>2018-05-23T08:32:24Z</time>
      </trkpt>
      <trkpt lat="45.95279" lon="4.75023">
        <ele>191</ele>
        <time>2018-05-23T08:32:25Z</time>
      </trkpt>
      <trkpt lat="45.95283" lon="4.75029">
        <ele>191</ele>
        <time>2018-05-23T08:32:26Z</time>
      </trkpt>
      <trkpt lat="45.95287" lon="4.75035">
        <ele>191</ele>
        <time>2018-05-23T08:32:27Z</time>
      </trkpt>
      <trkpt lat="45.9529" lon="4.75042">
        <ele>191</ele>
        <time>2018-05-23T08:32:28Z</time>
      </trkpt>
      <trkpt lat="45.95294" lon="4.75047">
        <ele>191</ele>
        <time>2018-05-23T08:32:29Z</time>
      </trkpt>
      <trkpt lat="45.95299" lon="4.75055">
        <ele>191</ele>
        <time>2018-05-23T08:32:30Z</time>
      </trkpt>
      <trkpt lat="45.95303" lon="4.75061">
        <ele>191</ele>
        <time>2018-05-23T08:32:31Z</time>
      </trkpt>
      <trkpt lat="45.95307" lon="4.75067">
        <ele>192</ele>
        <time>2018-05-23T08:32:32Z</time>
      </trkpt>
      <trkpt lat="45.95311" lon="4.75071">
        <ele>192</ele>
        <time>2018-05-23T08:32:33Z</time>
      </trkpt>
      <trkpt lat="45.95315" lon="4.75077">
        <ele>192</ele>
        <time>2018-05-23T08:32:34Z</time>
      </trkpt>
      <trkpt lat="45.95318" lon="4.75083">
        <ele>192</ele>
        <time>2018-05-23T08:32:35Z</time>
      </trkpt>
      <trkpt lat="45.95322" lon="4.7509">
        <ele>191</ele>
        <time>2018-05-23T08:32:36Z</time>
      </trkpt>
      <trkpt lat="45.95326" lon="4.75096">
        <ele>191</ele>
        <time>2018-05-23T08:32:37Z</time>
      </trkpt>
      <trkpt lat="45.9533" lon="4.75102">
        <ele>190</ele>
        <time>2018-05-23T08:32:38Z</time>
      </trkpt>
      <trkpt lat="45.95334" lon="4.75108">
        <ele>192</ele>
        <time>2018-05-23T08:32:39Z</time>
      </trkpt>
      <trkpt lat="45.95338" lon="4.75114">
        <ele>192</ele>
        <time>2018-05-23T08:32:40Z</time>
      </trkpt>
      <trkpt lat="45.95341" lon="4.75119">
        <ele>191</ele>
        <time>2018-05-23T08:32:41Z</time>
      </trkpt>
      <trkpt lat="45.95345" lon="4.75125">
        <ele>191</ele>
        <time>2018-05-23T08:32:42Z</time>
      </trkpt>
      <trkpt lat="45.95349" lon="4.75131">
        <ele>191</ele>
        <time>2018-05-23T08:32:43Z</time>
      </trkpt>
      <trkpt lat="45.95352" lon="4.75138">
        <ele>191</ele>
        <time>2018-05-23T08:32:44Z</time>
      </trkpt>
      <trkpt lat="45.95356" lon="4.75143">
        <ele>191</ele>
        <time>2018-05-23T08:32:45Z</time>
      </trkpt>
      <trkpt lat="45.9536" lon="4.75149">
        <ele>191</ele>
        <time>2018-05-23T08:32:46Z</time>
      </trkpt>
      <trkpt lat="45.95364" lon="4.75155">
        <ele>191</ele>
        <time>2018-05-23T08:32:47Z</time>
      </trkpt>
      <trkpt lat="45.95368" lon="4.7516">
        <ele>191</ele>
        <time>2018-05-23T08:32:48Z</time>
      </trkpt>
      <trkpt lat="45.95372" lon="4.75166">
        <ele>191</ele>
        <time>2018-05-23T08:32:49Z</time>
      </trkpt>
      <trkpt lat="45.95376" lon="4.75173">
        <ele>189</ele>
        <time>2018-05-23T08:32:50Z</time>
      </trkpt>
      <trkpt lat="45.9538" lon="4.75179">
        <ele>189</ele>
        <time>2018-05-23T08:32:51Z</time>
      </trkpt>
      <trkpt lat="45.95384" lon="4.75186">
        <ele>189</ele>
        <time>2018-05-23T08:32:52Z</time>
      </trkpt>
      <trkpt lat="45.95388" lon="4.75193">
        <ele>189</ele>
        <time>2018-05-23T08:32:53Z</time>
      </trkpt>
      <trkpt lat="45.95391" lon="4.752">
        <ele>189</ele>
        <time>2018-05-23T08:32:54Z</time>
      </trkpt>
      <trkpt lat="45.95395" lon="4.75207">
        <ele>188</ele>
        <time>2018-05-23T08:32:55Z</time>
      </trkpt>
      <trkpt lat="45.95397" lon="4.75213">
        <ele>188</ele>
        <time>2018-05-23T08:32:56Z</time>
      </trkpt>
      <trkpt lat="45.95401" lon="4.7522">
        <ele>188</ele>
        <time>2018-05-23T08:32:57Z</time>
      </trkpt>
      <trkpt lat="45.95406" lon="4.75225">
        <ele>188</ele>
        <time>2018-05-23T08:32:58Z</time>
      </trkpt>
      <trkpt lat="45.95409" lon="4.75232">
        <ele>189</ele>
        <time>2018-05-23T08:32:59Z</time>
      </trkpt>
      <trkpt lat="45.95413" lon="4.75238">
        <ele>189</ele>
        <time>2018-05-23T08:33:00Z</time>
      </trkpt>
      <trkpt lat="45.95416" lon="4.75244">
        <ele>189</ele>
        <time>2018-05-23T08:33:01Z</time>
      </trkpt>
      <trkpt lat="45.95419" lon="4.75251">
        <ele>189</ele>
        <time>2018-05-23T08:33:02Z</time>
      </trkpt>
      <trkpt lat="45.95422" lon="4.75258">
        <ele>189</ele>
        <time>2018-05-23T08:33:03Z</time>
      </trkpt>
      <trkpt lat="45.95427" lon="4.7526">
        <ele>189</ele>
        <time>2018-05-23T08:33:04Z</time>
      </trkpt>
      <trkpt lat="45.95431" lon="4.75266">
        <ele>189</ele>
        <time>2018-05-23T08:33:05Z</time>
      </trkpt>
      <trkpt lat="45.95435" lon="4.75274">
        <ele>188</ele>
        <time>2018-05-23T08:33:06Z</time>
      </trkpt>
      <trkpt lat="45.95439" lon="4.75281">
        <ele>188</ele>
        <time>2018-05-23T08:33:07Z</time>
      </trkpt>
      <trkpt lat="45.95442" lon="4.75288">
        <ele>188</ele>
        <time>2018-05-23T08:33:08Z</time>
      </trkpt>
      <trkpt lat="45.95445" lon="4.75296">
        <ele>188</ele>
        <time>2018-05-23T08:33:09Z</time>
      </trkpt>
      <trkpt lat="45.9545" lon="4.75302">
        <ele>188</ele>
        <time>2018-05-23T08:33:10Z</time>
      </trkpt>
      <trkpt lat="45.95454" lon="4.75311">
        <ele>188</ele>
        <time>2018-05-23T08:33:11Z</time>
      </trkpt>
      <trkpt lat="45.95458" lon="4.75319">
        <ele>188</ele>
        <time>2018-05-23T08:33:12Z</time>
      </trkpt>
      <trkpt lat="45.95462" lon="4.75326">
        <ele>188</ele>
        <time>2018-05-23T08:33:13Z</time>
      </trkpt>
      <trkpt lat="45.95467" lon="4.75332">
        <ele>188</ele>
        <time>2018-05-23T08:33:14Z</time>
      </trkpt>
      <trkpt lat="45.95471" lon="4.7534">
        <ele>186</ele>
        <time>2018-05-23T08:33:15Z</time>
      </trkpt>
      <trkpt lat="45.95475" lon="4.75347">
        <ele>186</ele>
        <time>2018-05-23T08:33:16Z</time>
      </trkpt>
      <trkpt lat="45.95479" lon="4.75355">
        <ele>186</ele>
        <time>2018-05-23T08:33:17Z</time>
      </trkpt>
      <trkpt lat="45.95482" lon="4.75363">
        <ele>186</ele>
        <time>2018-05-23T08:33:18Z</time>
      </trkpt>
      <trkpt lat="45.95485" lon="4.7537">
        <ele>185</ele>
        <time>2018-05-23T08:33:19Z</time>
      </trkpt>
      <trkpt lat="45.95489" lon="4.75378">
        <ele>185</ele>
        <time>2018-05-23T08:33:20Z</time>
      </trkpt>
      <trkpt lat="45.95492" lon="4.75385">
        <ele>185</ele>
        <time>2018-05-23T08:33:21Z</time>
      </trkpt>
      <trkpt lat="45.95495" lon="4.75392">
        <ele>185</ele>
        <time>2018-05-23T08:33:22Z</time>
      </trkpt>
      <trkpt lat="45.95499" lon="4.754">
        <ele>185</ele>
        <time>2018-05-23T08:33:23Z</time>
      </trkpt>
      <trkpt lat="45.95502" lon="4.75409">
        <ele>186</ele>
        <time>2018-05-23T08:33:24Z</time>
      </trkpt>
      <trkpt lat="45.95504" lon="4.75417">
        <ele>185</ele>
        <time>2018-05-23T08:33:25Z</time>
      </trkpt>
      <trkpt lat="45.95506" lon="4.75426">
        <ele>186</ele>
        <time>2018-05-23T08:33:26Z</time>
      </trkpt>
      <trkpt lat="45.95507" lon="4.75433">
        <ele>186</ele>
        <time>2018-05-23T08:33:27Z</time>
      </trkpt>
      <trkpt lat="45.95508" lon="4.75441">
        <ele>186</ele>
        <time>2018-05-23T08:33:28Z</time>
      </trkpt>
      <trkpt lat="45.95511" lon="4.75447">
        <ele>187</ele>
        <time>2018-05-23T08:33:29Z</time>
      </trkpt>
      <trkpt lat="45.9551" lon="4.75453">
        <ele>187</ele>
        <time>2018-05-23T08:33:30Z</time>
      </trkpt>
      <trkpt lat="45.95509" lon="4.7546">
        <ele>186</ele>
        <time>2018-05-23T08:33:31Z</time>
      </trkpt>
      <trkpt lat="45.95508" lon="4.75468">
        <ele>186</ele>
        <time>2018-05-23T08:33:32Z</time>
      </trkpt>
      <trkpt lat="45.95507" lon="4.75476">
        <ele>186</ele>
        <time>2018-05-23T08:33:33Z</time>
      </trkpt>
      <trkpt lat="45.95509" lon="4.75484">
        <ele>186</ele>
        <time>2018-05-23T08:33:34Z</time>
      </trkpt>
      <trkpt lat="45.95511" lon="4.75491">
        <ele>185</ele>
        <time>2018-05-23T08:33:35Z</time>
      </trkpt>
      <trkpt lat="45.95515" lon="4.75497">
        <ele>186</ele>
        <time>2018-05-23T08:33:36Z</time>
      </trkpt>
      <trkpt lat="45.9552" lon="4.75501">
        <ele>185</ele>
        <time>2018-05-23T08:33:37Z</time>
      </trkpt>
      <trkpt lat="45.95525" lon="4.75505">
        <ele>185</ele>
        <time>2018-05-23T08:33:38Z</time>
      </trkpt>
      <trkpt lat="45.95531" lon="4.7551">
        <ele>185</ele>
        <time>2018-05-23T08:33:39Z</time>
      </trkpt>
      <trkpt lat="45.95536" lon="4.75515">
        <ele>186</ele>
        <time>2018-05-23T08:33:40Z</time>
      </trkpt>
      <trkpt lat="45.95541" lon="4.7552">
        <ele>186</ele>
        <time>2018-05-23T08:33:41Z</time>
      </trkpt>
      <trkpt lat="45.95546" lon="4.75525">
        <ele>186</ele>
        <time>2018-05-23T08:33:42Z</time>
      </trkpt>
      <trkpt lat="45.95551" lon="4.75531">
        <ele>186</ele>
        <time>2018-05-23T08:33:43Z</time>
      </trkpt>
      <trkpt lat="45.95557" lon="4.75537">
        <ele>186</ele>
        <time>2018-05-23T08:33:44Z</time>
      </trkpt>
      <trkpt lat="45.95562" lon="4.75542">
        <ele>186</ele>
        <time>2018-05-23T08:33:45Z</time>
      </trkpt>
      <trkpt lat="45.95567" lon="4.75547">
        <ele>186</ele>
        <time>2018-05-23T08:33:46Z</time>
      </trkpt>
      <trkpt lat="45.95572" lon="4.75552">
        <ele>186</ele>
        <time>2018-05-23T08:33:47Z</time>
      </trkpt>
      <trkpt lat="45.95576" lon="4.75558">
        <ele>186</ele>
        <time>2018-05-23T08:33:48Z</time>
      </trkpt>
      <trkpt lat="45.9558" lon="4.75564">
        <ele>186</ele>
        <time>2018-05-23T08:33:49Z</time>
      </trkpt>
      <trkpt lat="45.95585" lon="4.7557">
        <ele>187</ele>
        <time>2018-05-23T08:33:50Z</time>
      </trkpt>
      <trkpt lat="45.95588" lon="4.75577">
        <ele>187</ele>
        <time>2018-05-23T08:33:51Z</time>
      </trkpt>
      <trkpt lat="45.95592" lon="4.75583">
        <ele>187</ele>
        <time>2018-05-23T08:33:52Z</time>
      </trkpt>
      <trkpt lat="45.95595" lon="4.75589">
        <ele>187</ele>
        <time>2018-05-23T08:33:53Z</time>
      </trkpt>
      <trkpt lat="45.95598" lon="4.75596">
        <ele>187</ele>
        <time>2018-05-23T08:33:54Z</time>
      </trkpt>
      <trkpt lat="45.95601" lon="4.75603">
        <ele>187</ele>
        <time>2018-05-23T08:33:55Z</time>
      </trkpt>
      <trkpt lat="45.95604" lon="4.7561">
        <ele>187</ele>
        <time>2018-05-23T08:33:56Z</time>
      </trkpt>
      <trkpt lat="45.95606" lon="4.75618">
        <ele>188</ele>
        <time>2018-05-23T08:33:57Z</time>
      </trkpt>
      <trkpt lat="45.95608" lon="4.75625">
        <ele>188</ele>
        <time>2018-05-23T08:33:58Z</time>
      </trkpt>
      <trkpt lat="45.9561" lon="4.75633">
        <ele>188</ele>
        <time>2018-05-23T08:33:59Z</time>
      </trkpt>
      <trkpt lat="45.95612" lon="4.75641">
        <ele>188</ele>
        <time>2018-05-23T08:34:00Z</time>
      </trkpt>
      <trkpt lat="45.95614" lon="4.75648">
        <ele>188</ele>
        <time>2018-05-23T08:34:01Z</time>
      </trkpt>
      <trkpt lat="45.95615" lon="4.75655">
        <ele>188</ele>
        <time>2018-05-23T08:34:02Z</time>
      </trkpt>
      <trkpt lat="45.95616" lon="4.75663">
        <ele>188</ele>
        <time>2018-05-23T08:34:03Z</time>
      </trkpt>
      <trkpt lat="45.95618" lon="4.75671">
        <ele>187</ele>
        <time>2018-05-23T08:34:04Z</time>
      </trkpt>
      <trkpt lat="45.95619" lon="4.75679">
        <ele>187</ele>
        <time>2018-05-23T08:34:05Z</time>
      </trkpt>
      <trkpt lat="45.9562" lon="4.75687">
        <ele>187</ele>
        <time>2018-05-23T08:34:06Z</time>
      </trkpt>
      <trkpt lat="45.95621" lon="4.75695">
        <ele>187</ele>
        <time>2018-05-23T08:34:07Z</time>
      </trkpt>
      <trkpt lat="45.95622" lon="4.75702">
        <ele>187</ele>
        <time>2018-05-23T08:34:08Z</time>
      </trkpt>
      <trkpt lat="45.95624" lon="4.75709">
        <ele>187</ele>
        <time>2018-05-23T08:34:09Z</time>
      </trkpt>
      <trkpt lat="45.95626" lon="4.75716">
        <ele>187</ele>
        <time>2018-05-23T08:34:10Z</time>
      </trkpt>
      <trkpt lat="45.95626" lon="4.75724">
        <ele>187</ele>
        <time>2018-05-23T08:34:11Z</time>
      </trkpt>
      <trkpt lat="45.95628" lon="4.75732">
        <ele>187</ele>
        <time>2018-05-23T08:34:12Z</time>
      </trkpt>
      <trkpt lat="45.95629" lon="4.75739">
        <ele>187</ele>
        <time>2018-05-23T08:34:13Z</time>
      </trkpt>
      <trkpt lat="45.95631" lon="4.75748">
        <ele>187</ele>
        <time>2018-05-23T08:34:14Z</time>
      </trkpt>
      <trkpt lat="45.95632" lon="4.75757">
        <ele>186</ele>
        <time>2018-05-23T08:34:15Z</time>
      </trkpt>
      <trkpt lat="45.95633" lon="4.75765">
        <ele>186</ele>
        <time>2018-05-23T08:34:16Z</time>
      </trkpt>
      <trkpt lat="45.95634" lon="4.75775">
        <ele>185</ele>
        <time>2018-05-23T08:34:17Z</time>
      </trkpt>
      <trkpt lat="45.95635" lon="4.75784">
        <ele>185</ele>
        <time>2018-05-23T08:34:18Z</time>
      </trkpt>
      <trkpt lat="45.95637" lon="4.75793">
        <ele>185</ele>
        <time>2018-05-23T08:34:19Z</time>
      </trkpt>
      <trkpt lat="45.95639" lon="4.75802">
        <ele>185</ele>
        <time>2018-05-23T08:34:20Z</time>
      </trkpt>
      <trkpt lat="45.9564" lon="4.75811">
        <ele>185</ele>
        <time>2018-05-23T08:34:21Z</time>
      </trkpt>
      <trkpt lat="45.95641" lon="4.7582">
        <ele>185</ele>
        <time>2018-05-23T08:34:22Z</time>
      </trkpt>
      <trkpt lat="45.95643" lon="4.75829">
        <ele>185</ele>
        <time>2018-05-23T08:34:23Z</time>
      </trkpt>
      <trkpt lat="45.95645" lon="4.75837">
        <ele>184</ele>
        <time>2018-05-23T08:34:24Z</time>
      </trkpt>
      <trkpt lat="45.95647" lon="4.75845">
        <ele>184</ele>
        <time>2018-05-23T08:34:25Z</time>
      </trkpt>
      <trkpt lat="45.9565" lon="4.75855">
        <ele>184</ele>
        <time>2018-05-23T08:34:26Z</time>
      </trkpt>
      <trkpt lat="45.95652" lon="4.75863">
        <ele>184</ele>
        <time>2018-05-23T08:34:27Z</time>
      </trkpt>
      <trkpt lat="45.95654" lon="4.75872">
        <ele>184</ele>
        <time>2018-05-23T08:34:28Z</time>
      </trkpt>
      <trkpt lat="45.95656" lon="4.7588">
        <ele>184</ele>
        <time>2018-05-23T08:34:29Z</time>
      </trkpt>
      <trkpt lat="45.95659" lon="4.75889">
        <ele>184</ele>
        <time>2018-05-23T08:34:30Z</time>
      </trkpt>
      <trkpt lat="45.95661" lon="4.75898">
        <ele>184</ele>
        <time>2018-05-23T08:34:31Z</time>
      </trkpt>
      <trkpt lat="45.95664" lon="4.75905">
        <ele>184</ele>
        <time>2018-05-23T08:34:32Z</time>
      </trkpt>
      <trkpt lat="45.95667" lon="4.75913">
        <ele>184</ele>
        <time>2018-05-23T08:34:33Z</time>
      </trkpt>
      <trkpt lat="45.9567" lon="4.75922">
        <ele>184</ele>
        <time>2018-05-23T08:34:34Z</time>
      </trkpt>
      <trkpt lat="45.95675" lon="4.7593">
        <ele>185</ele>
        <time>2018-05-23T08:34:35Z</time>
      </trkpt>
      <trkpt lat="45.95678" lon="4.75935">
        <ele>185</ele>
        <time>2018-05-23T08:34:36Z</time>
      </trkpt>
      <trkpt lat="45.95682" lon="4.75941">
        <ele>185</ele>
        <time>2018-05-23T08:34:37Z</time>
      </trkpt>
      <trkpt lat="45.95685" lon="4.75947">
        <ele>185</ele>
        <time>2018-05-23T08:34:38Z</time>
      </trkpt>
      <trkpt lat="45.95688" lon="4.75954">
        <ele>185</ele>
        <time>2018-05-23T08:34:39Z</time>
      </trkpt>
      <trkpt lat="45.95691" lon="4.75961">
        <ele>185</ele>
        <time>2018-05-23T08:34:40Z</time>
      </trkpt>
      <trkpt lat="45.95694" lon="4.75969">
        <ele>185</ele>
        <time>2018-05-23T08:34:41Z</time>
      </trkpt>
      <trkpt lat="45.95697" lon="4.75976">
        <ele>185</ele>
        <time>2018-05-23T08:34:42Z</time>
      </trkpt>
      <trkpt lat="45.957" lon="4.75984">
        <ele>185</ele>
        <time>2018-05-23T08:34:43Z</time>
      </trkpt>
      <trkpt lat="45.95703" lon="4.75992">
        <ele>185</ele>
        <time>2018-05-23T08:34:44Z</time>
      </trkpt>
      <trkpt lat="45.95708" lon="4.76">
        <ele>185</ele>
        <time>2018-05-23T08:34:45Z</time>
      </trkpt>
      <trkpt lat="45.95711" lon="4.76007">
        <ele>184</ele>
        <time>2018-05-23T08:34:46Z</time>
      </trkpt>
      <trkpt lat="45.95714" lon="4.76014">
        <ele>184</ele>
        <time>2018-05-23T08:34:47Z</time>
      </trkpt>
      <trkpt lat="45.95718" lon="4.76021">
        <ele>184</ele>
        <time>2018-05-23T08:34:48Z</time>
      </trkpt>
      <trkpt lat="45.95721" lon="4.76029">
        <ele>184</ele>
        <time>2018-05-23T08:34:49Z</time>
      </trkpt>
      <trkpt lat="45.95725" lon="4.76036">
        <ele>184</ele>
        <time>2018-05-23T08:34:50Z</time>
      </trkpt>
      <trkpt lat="45.95728" lon="4.76044">
        <ele>184</ele>
        <time>2018-05-23T08:34:51Z</time>
      </trkpt>
      <trkpt lat="45.95732" lon="4.7605">
        <ele>184</ele>
        <time>2018-05-23T08:34:52Z</time>
      </trkpt>
      <trkpt lat="45.95735" lon="4.76056">
        <ele>184</ele>
        <time>2018-05-23T08:34:53Z</time>
      </trkpt>
      <trkpt lat="45.95738" lon="4.76062">
        <ele>184</ele>
        <time>2018-05-23T08:34:54Z</time>
      </trkpt>
      <trkpt lat="45.95741" lon="4.7607">
        <ele>185</ele>
        <time>2018-05-23T08:34:55Z</time>
      </trkpt>
      <trkpt lat="45.95745" lon="4.76077">
        <ele>185</ele>
        <time>2018-05-23T08:34:56Z</time>
      </trkpt>
      <trkpt lat="45.95748" lon="4.76085">
        <ele>185</ele>
        <time>2018-05-23T08:34:57Z</time>
      </trkpt>
      <trkpt lat="45.9575" lon="4.76092">
        <ele>185</ele>
        <time>2018-05-23T08:34:58Z</time>
      </trkpt>
      <trkpt lat="45.95753" lon="4.761">
        <ele>186</ele>
        <time>2018-05-23T08:34:59Z</time>
      </trkpt>
      <trkpt lat="45.95755" lon="4.76108">
        <ele>186</ele>
        <time>2018-05-23T08:35:00Z</time>
      </trkpt>
      <trkpt lat="45.95756" lon="4.76116">
        <ele>186</ele>
        <time>2018-05-23T08:35:01Z</time>
      </trkpt>
      <trkpt lat="45.95758" lon="4.76125">
        <ele>186</ele>
        <time>2018-05-23T08:35:02Z</time>
      </trkpt>
      <trkpt lat="45.95759" lon="4.76133">
        <ele>186</ele>
        <time>2018-05-23T08:35:03Z</time>
      </trkpt>
      <trkpt lat="45.95759" lon="4.76143">
        <ele>186</ele>
        <time>2018-05-23T08:35:04Z</time>
      </trkpt>
      <trkpt lat="45.9576" lon="4.76152">
        <ele>186</ele>
        <time>2018-05-23T08:35:05Z</time>
      </trkpt>
      <trkpt lat="45.9576" lon="4.76161">
        <ele>186</ele>
        <time>2018-05-23T08:35:06Z</time>
      </trkpt>
      <trkpt lat="45.9576" lon="4.7617">
        <ele>185</ele>
        <time>2018-05-23T08:35:07Z</time>
      </trkpt>
      <trkpt lat="45.95761" lon="4.76178">
        <ele>185</ele>
        <time>2018-05-23T08:35:08Z</time>
      </trkpt>
      <trkpt lat="45.95761" lon="4.76186">
        <ele>186</ele>
        <time>2018-05-23T08:35:09Z</time>
      </trkpt>
      <trkpt lat="45.95762" lon="4.76194">
        <ele>186</ele>
        <time>2018-05-23T08:35:10Z</time>
      </trkpt>
      <trkpt lat="45.9576" lon="4.76203">
        <ele>186</ele>
        <time>2018-05-23T08:35:11Z</time>
      </trkpt>
      <trkpt lat="45.95761" lon="4.7621">
        <ele>186</ele>
        <time>2018-05-23T08:35:12Z</time>
      </trkpt>
      <trkpt lat="45.95761" lon="4.76218">
        <ele>186</ele>
        <time>2018-05-23T08:35:13Z</time>
      </trkpt>
      <trkpt lat="45.95762" lon="4.76226">
        <ele>186</ele>
        <time>2018-05-23T08:35:14Z</time>
      </trkpt>
      <trkpt lat="45.95763" lon="4.76233">
        <ele>186</ele>
        <time>2018-05-23T08:35:15Z</time>
      </trkpt>
      <trkpt lat="45.95764" lon="4.76241">
        <ele>185</ele>
        <time>2018-05-23T08:35:16Z</time>
      </trkpt>
      <trkpt lat="45.95764" lon="4.76249">
        <ele>185</ele>
        <time>2018-05-23T08:35:17Z</time>
      </trkpt>
      <trkpt lat="45.95764" lon="4.76258">
        <ele>185</ele>
        <time>2018-05-23T08:35:18Z</time>
      </trkpt>
      <trkpt lat="45.95765" lon="4.76266">
        <ele>185</ele>
        <time>2018-05-23T08:35:19Z</time>
      </trkpt>
      <trkpt lat="45.95765" lon="4.76274">
        <ele>186</ele>
        <time>2018-05-23T08:35:20Z</time>
      </trkpt>
      <trkpt lat="45.95766" lon="4.76282">
        <ele>186</ele>
        <time>2018-05-23T08:35:21Z</time>
      </trkpt>
      <trkpt lat="45.95767" lon="4.7629">
        <ele>186</ele>
        <time>2018-05-23T08:35:22Z</time>
      </trkpt>
      <trkpt lat="45.95766" lon="4.76298">
        <ele>186</ele>
        <time>2018-05-23T08:35:23Z</time>
      </trkpt>
      <trkpt lat="45.95768" lon="4.76307">
        <ele>186</ele>
        <time>2018-05-23T08:35:24Z</time>
      </trkpt>
      <trkpt lat="45.95768" lon="4.76314">
        <ele>185</ele>
        <time>2018-05-23T08:35:25Z</time>
      </trkpt>
      <trkpt lat="45.95768" lon="4.76321">
        <ele>185</ele>
        <time>2018-05-23T08:35:26Z</time>
      </trkpt>
      <trkpt lat="45.95769" lon="4.76331">
        <ele>185</ele>
        <time>2018-05-23T08:35:27Z</time>
      </trkpt>
      <trkpt lat="45.95769" lon="4.76339">
        <ele>186</ele>
        <time>2018-05-23T08:35:28Z</time>
      </trkpt>
      <trkpt lat="45.95769" lon="4.76346">
        <ele>186</ele>
        <time>2018-05-23T08:35:29Z</time>
      </trkpt>
      <trkpt lat="45.95769" lon="4.76354">
        <ele>186</ele>
        <time>2018-05-23T08:35:30Z</time>
      </trkpt>
      <trkpt lat="45.95769" lon="4.76362">
        <ele>186</ele>
        <time>2018-05-23T08:35:31Z</time>
      </trkpt>
      <trkpt lat="45.95769" lon="4.76369">
        <ele>186</ele>
        <time>2018-05-23T08:35:32Z</time>
      </trkpt>
      <trkpt lat="45.9577" lon="4.76377">
        <ele>186</ele>
        <time>2018-05-23T08:35:33Z</time>
      </trkpt>
      <trkpt lat="45.9577" lon="4.76384">
        <ele>186</ele>
        <time>2018-05-23T08:35:34Z</time>
      </trkpt>
      <trkpt lat="45.95771" lon="4.76392">
        <ele>186</ele>
        <time>2018-05-23T08:35:35Z</time>
      </trkpt>
      <trkpt lat="45.95772" lon="4.76401">
        <ele>186</ele>
        <time>2018-05-23T08:35:36Z</time>
      </trkpt>
      <trkpt lat="45.95772" lon="4.76408">
        <ele>186</ele>
        <time>2018-05-23T08:35:37Z</time>
      </trkpt>
      <trkpt lat="45.95773" lon="4.76416">
        <ele>186</ele>
        <time>2018-05-23T08:35:38Z</time>
      </trkpt>
      <trkpt lat="45.95774" lon="4.76425">
        <ele>186</ele>
        <time>2018-05-23T08:35:39Z</time>
      </trkpt>
      <trkpt lat="45.95775" lon="4.76433">
        <ele>186</ele>
        <time>2018-05-23T08:35:40Z</time>
      </trkpt>
      <trkpt lat="45.95777" lon="4.76444">
        <ele>186</ele>
        <time>2018-05-23T08:35:41Z</time>
      </trkpt>
      <trkpt lat="45.95778" lon="4.76451">
        <ele>186</ele>
        <time>2018-05-23T08:35:42Z</time>
      </trkpt>
      <trkpt lat="45.95779" lon="4.76458">
        <ele>186</ele>
        <time>2018-05-23T08:35:43Z</time>
      </trkpt>
      <trkpt lat="45.9578" lon="4.76466">
        <ele>186</ele>
        <time>2018-05-23T08:35:44Z</time>
      </trkpt>
      <trkpt lat="45.95782" lon="4.76476">
        <ele>186</ele>
        <time>2018-05-23T08:35:45Z</time>
      </trkpt>
      <trkpt lat="45.95783" lon="4.76483">
        <ele>186</ele>
        <time>2018-05-23T08:35:46Z</time>
      </trkpt>
      <trkpt lat="45.95784" lon="4.76491">
        <ele>186</ele>
        <time>2018-05-23T08:35:47Z</time>
      </trkpt>
      <trkpt lat="45.95785" lon="4.76498">
        <ele>186</ele>
        <time>2018-05-23T08:35:48Z</time>
      </trkpt>
      <trkpt lat="45.95786" lon="4.76505">
        <ele>187</ele>
        <time>2018-05-23T08:35:49Z</time>
      </trkpt>
      <trkpt lat="45.95787" lon="4.76513">
        <ele>187</ele>
        <time>2018-05-23T08:35:50Z</time>
      </trkpt>
      <trkpt lat="45.95788" lon="4.7652">
        <ele>187</ele>
        <time>2018-05-23T08:35:51Z</time>
      </trkpt>
      <trkpt lat="45.95789" lon="4.76527">
        <ele>187</ele>
        <time>2018-05-23T08:35:52Z</time>
      </trkpt>
      <trkpt lat="45.95791" lon="4.76535">
        <ele>187</ele>
        <time>2018-05-23T08:35:53Z</time>
      </trkpt>
      <trkpt lat="45.95791" lon="4.76543">
        <ele>187</ele>
        <time>2018-05-23T08:35:54Z</time>
      </trkpt>
      <trkpt lat="45.95793" lon="4.7655">
        <ele>187</ele>
        <time>2018-05-23T08:35:55Z</time>
      </trkpt>
      <trkpt lat="45.95793" lon="4.76557">
        <ele>187</ele>
        <time>2018-05-23T08:35:56Z</time>
      </trkpt>
      <trkpt lat="45.95794" lon="4.76564">
        <ele>187</ele>
        <time>2018-05-23T08:35:57Z</time>
      </trkpt>
      <trkpt lat="45.95795" lon="4.7657">
        <ele>187</ele>
        <time>2018-05-23T08:35:58Z</time>
      </trkpt>
      <trkpt lat="45.95796" lon="4.76577">
        <ele>187</ele>
        <time>2018-05-23T08:35:59Z</time>
      </trkpt>
      <trkpt lat="45.95797" lon="4.76584">
        <ele>187</ele>
        <time>2018-05-23T08:36:00Z</time>
      </trkpt>
      <trkpt lat="45.95797" lon="4.76591">
        <ele>187</ele>
        <time>2018-05-23T08:36:01Z</time>
      </trkpt>
      <trkpt lat="45.95799" lon="4.76598">
        <ele>187</ele>
        <time>2018-05-23T08:36:02Z</time>
      </trkpt>
      <trkpt lat="45.958" lon="4.76605">
        <ele>187</ele>
        <time>2018-05-23T08:36:03Z</time>
      </trkpt>
      <trkpt lat="45.95801" lon="4.76612">
        <ele>188</ele>
        <time>2018-05-23T08:36:04Z</time>
      </trkpt>
      <trkpt lat="45.95802" lon="4.76619">
        <ele>188</ele>
        <time>2018-05-23T08:36:05Z</time>
      </trkpt>
      <trkpt lat="45.95804" lon="4.76627">
        <ele>188</ele>
        <time>2018-05-23T08:36:06Z</time>
      </trkpt>
      <trkpt lat="45.95805" lon="4.76635">
        <ele>188</ele>
        <time>2018-05-23T08:36:07Z</time>
      </trkpt>
      <trkpt lat="45.95806" lon="4.76643">
        <ele>188</ele>
        <time>2018-05-23T08:36:08Z</time>
      </trkpt>
      <trkpt lat="45.95807" lon="4.76651">
        <ele>188</ele>
        <time>2018-05-23T08:36:09Z</time>
      </trkpt>
      <trkpt lat="45.95807" lon="4.76659">
        <ele>188</ele>
        <time>2018-05-23T08:36:10Z</time>
      </trkpt>
      <trkpt lat="45.95808" lon="4.76665">
        <ele>188</ele>
        <time>2018-05-23T08:36:11Z</time>
      </trkpt>
      <trkpt lat="45.95809" lon="4.76673">
        <ele>189</ele>
        <time>2018-05-23T08:36:12Z</time>
      </trkpt>
      <trkpt lat="45.9581" lon="4.7668">
        <ele>189</ele>
        <time>2018-05-23T08:36:13Z</time>
      </trkpt>
      <trkpt lat="45.95811" lon="4.76687">
        <ele>189</ele>
        <time>2018-05-23T08:36:14Z</time>
      </trkpt>
      <trkpt lat="45.95812" lon="4.76694">
        <ele>189</ele>
        <time>2018-05-23T08:36:15Z</time>
      </trkpt>
      <trkpt lat="45.95812" lon="4.76702">
        <ele>189</ele>
        <time>2018-05-23T08:36:16Z</time>
      </trkpt>
      <trkpt lat="45.95813" lon="4.76709">
        <ele>189</ele>
        <time>2018-05-23T08:36:17Z</time>
      </trkpt>
      <trkpt lat="45.95815" lon="4.76717">
        <ele>189</ele>
        <time>2018-05-23T08:36:18Z</time>
      </trkpt>
      <trkpt lat="45.95816" lon="4.76724">
        <ele>189</ele>
        <time>2018-05-23T08:36:19Z</time>
      </trkpt>
      <trkpt lat="45.95817" lon="4.76733">
        <ele>190</ele>
        <time>2018-05-23T08:36:20Z</time>
      </trkpt>
      <trkpt lat="45.95819" lon="4.7674">
        <ele>190</ele>
        <time>2018-05-23T08:36:21Z</time>
      </trkpt>
      <trkpt lat="45.9582" lon="4.76748">
        <ele>190</ele>
        <time>2018-05-23T08:36:22Z</time>
      </trkpt>
      <trkpt lat="45.95821" lon="4.76755">
        <ele>190</ele>
        <time>2018-05-23T08:36:23Z</time>
      </trkpt>
      <trkpt lat="45.95822" lon="4.76763">
        <ele>190</ele>
        <time>2018-05-23T08:36:24Z</time>
      </trkpt>
      <trkpt lat="45.95824" lon="4.76769">
        <ele>190</ele>
        <time>2018-05-23T08:36:25Z</time>
      </trkpt>
      <trkpt lat="45.95825" lon="4.76777">
        <ele>190</ele>
        <time>2018-05-23T08:36:26Z</time>
      </trkpt>
      <trkpt lat="45.95826" lon="4.76784">
        <ele>190</ele>
        <time>2018-05-23T08:36:27Z</time>
      </trkpt>
      <trkpt lat="45.95826" lon="4.76791">
        <ele>190</ele>
        <time>2018-05-23T08:36:28Z</time>
      </trkpt>
      <trkpt lat="45.95826" lon="4.768">
        <ele>190</ele>
        <time>2018-05-23T08:36:29Z</time>
      </trkpt>
      <trkpt lat="45.95827" lon="4.76807">
        <ele>190</ele>
        <time>2018-05-23T08:36:30Z</time>
      </trkpt>
      <trkpt lat="45.95827" lon="4.76815">
        <ele>190</ele>
        <time>2018-05-23T08:36:31Z</time>
      </trkpt>
      <trkpt lat="45.95826" lon="4.76823">
        <ele>190</ele>
        <time>2018-05-23T08:36:32Z</time>
      </trkpt>
      <trkpt lat="45.95825" lon="4.76832">
        <ele>190</ele>
        <time>2018-05-23T08:36:33Z</time>
      </trkpt>
      <trkpt lat="45.95825" lon="4.7684">
        <ele>190</ele>
        <time>2018-05-23T08:36:34Z</time>
      </trkpt>
      <trkpt lat="45.95824" lon="4.76847">
        <ele>190</ele>
        <time>2018-05-23T08:36:35Z</time>
      </trkpt>
      <trkpt lat="45.95822" lon="4.76855">
        <ele>189</ele>
        <time>2018-05-23T08:36:36Z</time>
      </trkpt>
      <trkpt lat="45.9582" lon="4.76863">
        <ele>189</ele>
        <time>2018-05-23T08:36:37Z</time>
      </trkpt>
      <trkpt lat="45.95819" lon="4.7687">
        <ele>189</ele>
        <time>2018-05-23T08:36:38Z</time>
      </trkpt>
      <trkpt lat="45.95819" lon="4.76878">
        <ele>189</ele>
        <time>2018-05-23T08:36:39Z</time>
      </trkpt>
      <trkpt lat="45.9582" lon="4.76886">
        <ele>189</ele>
        <time>2018-05-23T08:36:40Z</time>
      </trkpt>
      <trkpt lat="45.95818" lon="4.76894">
        <ele>189</ele>
        <time>2018-05-23T08:36:41Z</time>
      </trkpt>
      <trkpt lat="45.95817" lon="4.76901">
        <ele>189</ele>
        <time>2018-05-23T08:36:42Z</time>
      </trkpt>
      <trkpt lat="45.95815" lon="4.76909">
        <ele>189</ele>
        <time>2018-05-23T08:36:43Z</time>
      </trkpt>
      <trkpt lat="45.95813" lon="4.76917">
        <ele>189</ele>
        <time>2018-05-23T08:36:44Z</time>
      </trkpt>
      <trkpt lat="45.95811" lon="4.76925">
        <ele>189</ele>
        <time>2018-05-23T08:36:45Z</time>
      </trkpt>
      <trkpt lat="45.9581" lon="4.76933">
        <ele>189</ele>
        <time>2018-05-23T08:36:46Z</time>
      </trkpt>
      <trkpt lat="45.95809" lon="4.76941">
        <ele>189</ele>
        <time>2018-05-23T08:36:47Z</time>
      </trkpt>
      <trkpt lat="45.95807" lon="4.76948">
        <ele>189</ele>
        <time>2018-05-23T08:36:48Z</time>
      </trkpt>
      <trkpt lat="45.95805" lon="4.76956">
        <ele>189</ele>
        <time>2018-05-23T08:36:49Z</time>
      </trkpt>
      <trkpt lat="45.95803" lon="4.76964">
        <ele>189</ele>
        <time>2018-05-23T08:36:50Z</time>
      </trkpt>
      <trkpt lat="45.95802" lon="4.76972">
        <ele>189</ele>
        <time>2018-05-23T08:36:51Z</time>
      </trkpt>
      <trkpt lat="45.958" lon="4.76979">
        <ele>189</ele>
        <time>2018-05-23T08:36:52Z</time>
      </trkpt>
      <trkpt lat="45.95799" lon="4.76987">
        <ele>189</ele>
        <time>2018-05-23T08:36:53Z</time>
      </trkpt>
      <trkpt lat="45.95798" lon="4.76994">
        <ele>189</ele>
        <time>2018-05-23T08:36:54Z</time>
      </trkpt>
      <trkpt lat="45.95798" lon="4.77003">
        <ele>190</ele>
        <time>2018-05-23T08:36:55Z</time>
      </trkpt>
      <trkpt lat="45.95799" lon="4.77011">
        <ele>190</ele>
        <time>2018-05-23T08:36:56Z</time>
      </trkpt>
      <trkpt lat="45.958" lon="4.77019">
        <ele>190</ele>
        <time>2018-05-23T08:36:57Z</time>
      </trkpt>
      <trkpt lat="45.95802" lon="4.77027">
        <ele>190</ele>
        <time>2018-05-23T08:36:58Z</time>
      </trkpt>
      <trkpt lat="45.95805" lon="4.77034">
        <ele>190</ele>
        <time>2018-05-23T08:36:59Z</time>
      </trkpt>
      <trkpt lat="45.95808" lon="4.77042">
        <ele>190</ele>
        <time>2018-05-23T08:37:00Z</time>
      </trkpt>
      <trkpt lat="45.95812" lon="4.77046">
        <ele>190</ele>
        <time>2018-05-23T08:37:01Z</time>
      </trkpt>
      <trkpt lat="45.95816" lon="4.77053">
        <ele>190</ele>
        <time>2018-05-23T08:37:02Z</time>
      </trkpt>
      <trkpt lat="45.95819" lon="4.7706">
        <ele>190</ele>
        <time>2018-05-23T08:37:03Z</time>
      </trkpt>
      <trkpt lat="45.95821" lon="4.77067">
        <ele>191</ele>
        <time>2018-05-23T08:37:04Z</time>
      </trkpt>
      <trkpt lat="45.95824" lon="4.77074">
        <ele>191</ele>
        <time>2018-05-23T08:37:05Z</time>
      </trkpt>
      <trkpt lat="45.95826" lon="4.77082">
        <ele>191</ele>
        <time>2018-05-23T08:37:06Z</time>
      </trkpt>
      <trkpt lat="45.95832" lon="4.77088">
        <ele>191</ele>
        <time>2018-05-23T08:37:07Z</time>
      </trkpt>
      <trkpt lat="45.95834" lon="4.77095">
        <ele>193</ele>
        <time>2018-05-23T08:37:08Z</time>
      </trkpt>
      <trkpt lat="45.95837" lon="4.771">
        <ele>193</ele>
        <time>2018-05-23T08:37:09Z</time>
      </trkpt>
      <trkpt lat="45.9584" lon="4.77107">
        <ele>193</ele>
        <time>2018-05-23T08:37:10Z</time>
      </trkpt>
      <trkpt lat="45.95841" lon="4.77115">
        <ele>193</ele>
        <time>2018-05-23T08:37:11Z</time>
      </trkpt>
      <trkpt lat="45.95843" lon="4.77123">
        <ele>193</ele>
        <time>2018-05-23T08:37:12Z</time>
      </trkpt>
      <trkpt lat="45.95844" lon="4.77129">
        <ele>193</ele>
        <time>2018-05-23T08:37:13Z</time>
      </trkpt>
      <trkpt lat="45.95846" lon="4.77136">
        <ele>193</ele>
        <time>2018-05-23T08:37:14Z</time>
      </trkpt>
      <trkpt lat="45.95848" lon="4.77143">
        <ele>193</ele>
        <time>2018-05-23T08:37:15Z</time>
      </trkpt>
      <trkpt lat="45.95849" lon="4.7715">
        <ele>192</ele>
        <time>2018-05-23T08:37:16Z</time>
      </trkpt>
      <trkpt lat="45.95851" lon="4.77155">
        <ele>192</ele>
        <time>2018-05-23T08:37:17Z</time>
      </trkpt>
      <trkpt lat="45.95853" lon="4.77161">
        <ele>192</ele>
        <time>2018-05-23T08:37:18Z</time>
      </trkpt>
      <trkpt lat="45.95857" lon="4.77168">
        <ele>192</ele>
        <time>2018-05-23T08:37:19Z</time>
      </trkpt>
      <trkpt lat="45.95859" lon="4.77176">
        <ele>192</ele>
        <time>2018-05-23T08:37:20Z</time>
      </trkpt>
      <trkpt lat="45.95861" lon="4.77183">
        <ele>192</ele>
        <time>2018-05-23T08:37:21Z</time>
      </trkpt>
      <trkpt lat="45.95863" lon="4.7719">
        <ele>192</ele>
        <time>2018-05-23T08:37:22Z</time>
      </trkpt>
      <trkpt lat="45.95864" lon="4.77197">
        <ele>193</ele>
        <time>2018-05-23T08:37:23Z</time>
      </trkpt>
      <trkpt lat="45.95866" lon="4.77204">
        <ele>193</ele>
        <time>2018-05-23T08:37:24Z</time>
      </trkpt>
      <trkpt lat="45.95867" lon="4.77211">
        <ele>193</ele>
        <time>2018-05-23T08:37:25Z</time>
      </trkpt>
      <trkpt lat="45.95868" lon="4.77219">
        <ele>193</ele>
        <time>2018-05-23T08:37:26Z</time>
      </trkpt>
      <trkpt lat="45.9587" lon="4.77226">
        <ele>193</ele>
        <time>2018-05-23T08:37:27Z</time>
      </trkpt>
      <trkpt lat="45.95872" lon="4.77233">
        <ele>193</ele>
        <time>2018-05-23T08:37:28Z</time>
      </trkpt>
      <trkpt lat="45.95873" lon="4.77241">
        <ele>193</ele>
        <time>2018-05-23T08:37:29Z</time>
      </trkpt>
      <trkpt lat="45.95874" lon="4.77248">
        <ele>193</ele>
        <time>2018-05-23T08:37:30Z</time>
      </trkpt>
      <trkpt lat="45.95876" lon="4.77255">
        <ele>193</ele>
        <time>2018-05-23T08:37:31Z</time>
      </trkpt>
      <trkpt lat="45.95877" lon="4.77263">
        <ele>193</ele>
        <time>2018-05-23T08:37:32Z</time>
      </trkpt>
      <trkpt lat="45.95878" lon="4.7727">
        <ele>193</ele>
        <time>2018-05-23T08:37:33Z</time>
      </trkpt>
      <trkpt lat="45.9588" lon="4.77278">
        <ele>193</ele>
        <time>2018-05-23T08:37:34Z</time>
      </trkpt>
      <trkpt lat="45.95883" lon="4.77283">
        <ele>193</ele>
        <time>2018-05-23T08:37:35Z</time>
      </trkpt>
      <trkpt lat="45.95884" lon="4.77289">
        <ele>193</ele>
        <time>2018-05-23T08:37:36Z</time>
      </trkpt>
      <trkpt lat="45.95886" lon="4.77296">
        <ele>193</ele>
        <time>2018-05-23T08:37:37Z</time>
      </trkpt>
      <trkpt lat="45.95888" lon="4.77302">
        <ele>193</ele>
        <time>2018-05-23T08:37:38Z</time>
      </trkpt>
      <trkpt lat="45.95889" lon="4.77309">
        <ele>193</ele>
        <time>2018-05-23T08:37:39Z</time>
      </trkpt>
      <trkpt lat="45.9589" lon="4.77315">
        <ele>193</ele>
        <time>2018-05-23T08:37:40Z</time>
      </trkpt>
      <trkpt lat="45.95892" lon="4.77321">
        <ele>193</ele>
        <time>2018-05-23T08:37:41Z</time>
      </trkpt>
      <trkpt lat="45.95894" lon="4.77327">
        <ele>193</ele>
        <time>2018-05-23T08:37:42Z</time>
      </trkpt>
      <trkpt lat="45.95896" lon="4.77333">
        <ele>193</ele>
        <time>2018-05-23T08:37:43Z</time>
      </trkpt>
      <trkpt lat="45.95897" lon="4.7734">
        <ele>193</ele>
        <time>2018-05-23T08:37:44Z</time>
      </trkpt>
      <trkpt lat="45.95899" lon="4.77346">
        <ele>193</ele>
        <time>2018-05-23T08:37:45Z</time>
      </trkpt>
      <trkpt lat="45.95901" lon="4.77353">
        <ele>193</ele>
        <time>2018-05-23T08:37:46Z</time>
      </trkpt>
      <trkpt lat="45.95903" lon="4.7736">
        <ele>193</ele>
        <time>2018-05-23T08:37:47Z</time>
      </trkpt>
      <trkpt lat="45.95905" lon="4.77366">
        <ele>193</ele>
        <time>2018-05-23T08:37:48Z</time>
      </trkpt>
      <trkpt lat="45.95907" lon="4.77372">
        <ele>193</ele>
        <time>2018-05-23T08:37:49Z</time>
      </trkpt>
      <trkpt lat="45.95908" lon="4.77378">
        <ele>193</ele>
        <time>2018-05-23T08:37:50Z</time>
      </trkpt>
      <trkpt lat="45.9591" lon="4.77385">
        <ele>193</ele>
        <time>2018-05-23T08:37:51Z</time>
      </trkpt>
      <trkpt lat="45.95912" lon="4.77391">
        <ele>193</ele>
        <time>2018-05-23T08:37:52Z</time>
      </trkpt>
      <trkpt lat="45.95916" lon="4.77395">
        <ele>193</ele>
        <time>2018-05-23T08:37:53Z</time>
      </trkpt>
      <trkpt lat="45.95919" lon="4.77402">
        <ele>195</ele>
        <time>2018-05-23T08:37:54Z</time>
      </trkpt>
      <trkpt lat="45.9592" lon="4.77408">
        <ele>195</ele>
        <time>2018-05-23T08:37:55Z</time>
      </trkpt>
      <trkpt lat="45.95922" lon="4.77413">
        <ele>195</ele>
        <time>2018-05-23T08:37:56Z</time>
      </trkpt>
      <trkpt lat="45.95925" lon="4.77419">
        <ele>195</ele>
        <time>2018-05-23T08:37:57Z</time>
      </trkpt>
      <trkpt lat="45.95927" lon="4.77425">
        <ele>195</ele>
        <time>2018-05-23T08:37:58Z</time>
      </trkpt>
      <trkpt lat="45.95929" lon="4.77431">
        <ele>195</ele>
        <time>2018-05-23T08:37:59Z</time>
      </trkpt>
      <trkpt lat="45.95931" lon="4.77436">
        <ele>195</ele>
        <time>2018-05-23T08:38:00Z</time>
      </trkpt>
      <trkpt lat="45.95933" lon="4.77443">
        <ele>195</ele>
        <time>2018-05-23T08:38:01Z</time>
      </trkpt>
      <trkpt lat="45.95937" lon="4.77453">
        <ele>195</ele>
        <time>2018-05-23T08:38:03Z</time>
      </trkpt>
      <trkpt lat="45.95939" lon="4.7746">
        <ele>195</ele>
        <time>2018-05-23T08:38:04Z</time>
      </trkpt>
      <trkpt lat="45.95941" lon="4.77466">
        <ele>195</ele>
        <time>2018-05-23T08:38:05Z</time>
      </trkpt>
      <trkpt lat="45.95943" lon="4.77471">
        <ele>195</ele>
        <time>2018-05-23T08:38:06Z</time>
      </trkpt>
      <trkpt lat="45.95945" lon="4.77477">
        <ele>195</ele>
        <time>2018-05-23T08:38:07Z</time>
      </trkpt>
      <trkpt lat="45.95947" lon="4.77483">
        <ele>195</ele>
        <time>2018-05-23T08:38:08Z</time>
      </trkpt>
      <trkpt lat="45.95949" lon="4.77489">
        <ele>195</ele>
        <time>2018-05-23T08:38:09Z</time>
      </trkpt>
      <trkpt lat="45.9595" lon="4.77495">
        <ele>195</ele>
        <time>2018-05-23T08:38:10Z</time>
      </trkpt>
      <trkpt lat="45.95954" lon="4.77506">
        <ele>195</ele>
        <time>2018-05-23T08:38:12Z</time>
      </trkpt>
      <trkpt lat="45.95955" lon="4.77512">
        <ele>195</ele>
        <time>2018-05-23T08:38:13Z</time>
      </trkpt>
      <trkpt lat="45.95961" lon="4.77522">
        <ele>195</ele>
        <time>2018-05-23T08:38:15Z</time>
      </trkpt>
      <trkpt lat="45.95964" lon="4.77527">
        <ele>195</ele>
        <time>2018-05-23T08:38:16Z</time>
      </trkpt>
      <trkpt lat="45.95969" lon="4.77536">
        <ele>195</ele>
        <time>2018-05-23T08:38:19Z</time>
      </trkpt>
      <trkpt lat="45.95974" lon="4.77543">
        <ele>195</ele>
        <time>2018-05-23T08:38:20Z</time>
      </trkpt>
      <trkpt lat="45.95979" lon="4.77553">
        <ele>195</ele>
        <time>2018-05-23T08:38:22Z</time>
      </trkpt>
      <trkpt lat="45.95982" lon="4.77559">
        <ele>196</ele>
        <time>2018-05-23T08:38:23Z</time>
      </trkpt>
      <trkpt lat="45.95983" lon="4.77566">
        <ele>196</ele>
        <time>2018-05-23T08:38:24Z</time>
      </trkpt>
      <trkpt lat="45.95986" lon="4.77572">
        <ele>196</ele>
        <time>2018-05-23T08:38:25Z</time>
      </trkpt>
      <trkpt lat="45.95989" lon="4.77578">
        <ele>196</ele>
        <time>2018-05-23T08:38:26Z</time>
      </trkpt>
      <trkpt lat="45.95992" lon="4.77585">
        <ele>196</ele>
        <time>2018-05-23T08:38:27Z</time>
      </trkpt>
      <trkpt lat="45.95995" lon="4.77591">
        <ele>196</ele>
        <time>2018-05-23T08:38:28Z</time>
      </trkpt>
      <trkpt lat="45.95999" lon="4.77596">
        <ele>196</ele>
        <time>2018-05-23T08:38:29Z</time>
      </trkpt>
      <trkpt lat="45.96004" lon="4.776">
        <ele>198</ele>
        <time>2018-05-23T08:38:30Z</time>
      </trkpt>
      <trkpt lat="45.96008" lon="4.77605">
        <ele>198</ele>
        <time>2018-05-23T08:38:31Z</time>
      </trkpt>
      <trkpt lat="45.96011" lon="4.77611">
        <ele>199</ele>
        <time>2018-05-23T08:38:32Z</time>
      </trkpt>
      <trkpt lat="45.96015" lon="4.77615">
        <ele>199</ele>
        <time>2018-05-23T08:38:33Z</time>
      </trkpt>
      <trkpt lat="45.96018" lon="4.77621">
        <ele>199</ele>
        <time>2018-05-23T08:38:34Z</time>
      </trkpt>
      <trkpt lat="45.96022" lon="4.77625">
        <ele>199</ele>
        <time>2018-05-23T08:38:35Z</time>
      </trkpt>
      <trkpt lat="45.96025" lon="4.77629">
        <ele>199</ele>
        <time>2018-05-23T08:38:36Z</time>
      </trkpt>
      <trkpt lat="45.96031" lon="4.77632">
        <ele>199</ele>
        <time>2018-05-23T08:38:37Z</time>
      </trkpt>
      <trkpt lat="45.96038" lon="4.77639">
        <ele>199</ele>
        <time>2018-05-23T08:38:39Z</time>
      </trkpt>
      <trkpt lat="45.96041" lon="4.77644">
        <ele>199</ele>
        <time>2018-05-23T08:38:40Z</time>
      </trkpt>
      <trkpt lat="45.96044" lon="4.77649">
        <ele>199</ele>
        <time>2018-05-23T08:38:41Z</time>
      </trkpt>
      <trkpt lat="45.96048" lon="4.77654">
        <ele>200</ele>
        <time>2018-05-23T08:38:42Z</time>
      </trkpt>
      <trkpt lat="45.96052" lon="4.77658">
        <ele>200</ele>
        <time>2018-05-23T08:38:43Z</time>
      </trkpt>
      <trkpt lat="45.96056" lon="4.77663">
        <ele>200</ele>
        <time>2018-05-23T08:38:44Z</time>
      </trkpt>
      <trkpt lat="45.96061" lon="4.77668">
        <ele>198</ele>
        <time>2018-05-23T08:38:45Z</time>
      </trkpt>
      <trkpt lat="45.96064" lon="4.77673">
        <ele>198</ele>
        <time>2018-05-23T08:38:46Z</time>
      </trkpt>
      <trkpt lat="45.96068" lon="4.77678">
        <ele>198</ele>
        <time>2018-05-23T08:38:47Z</time>
      </trkpt>
      <trkpt lat="45.96071" lon="4.77685">
        <ele>198</ele>
        <time>2018-05-23T08:38:48Z</time>
      </trkpt>
      <trkpt lat="45.96074" lon="4.7769">
        <ele>198</ele>
        <time>2018-05-23T08:38:49Z</time>
      </trkpt>
      <trkpt lat="45.96077" lon="4.77695">
        <ele>197</ele>
        <time>2018-05-23T08:38:50Z</time>
      </trkpt>
      <trkpt lat="45.9608" lon="4.77701">
        <ele>197</ele>
        <time>2018-05-23T08:38:51Z</time>
      </trkpt>
      <trkpt lat="45.96084" lon="4.77706">
        <ele>200</ele>
        <time>2018-05-23T08:38:52Z</time>
      </trkpt>
      <trkpt lat="45.96086" lon="4.77713">
        <ele>199</ele>
        <time>2018-05-23T08:38:53Z</time>
      </trkpt>
      <trkpt lat="45.9609" lon="4.77716">
        <ele>199</ele>
        <time>2018-05-23T08:38:54Z</time>
      </trkpt>
      <trkpt lat="45.96092" lon="4.77722">
        <ele>199</ele>
        <time>2018-05-23T08:38:55Z</time>
      </trkpt>
      <trkpt lat="45.96095" lon="4.77727">
        <ele>199</ele>
        <time>2018-05-23T08:38:56Z</time>
      </trkpt>
      <trkpt lat="45.96098" lon="4.77733">
        <ele>199</ele>
        <time>2018-05-23T08:38:57Z</time>
      </trkpt>
      <trkpt lat="45.96102" lon="4.77739">
        <ele>198</ele>
        <time>2018-05-23T08:38:58Z</time>
      </trkpt>
      <trkpt lat="45.96105" lon="4.77745">
        <ele>198</ele>
        <time>2018-05-23T08:38:59Z</time>
      </trkpt>
      <trkpt lat="45.96108" lon="4.77753">
        <ele>197</ele>
        <time>2018-05-23T08:39:00Z</time>
      </trkpt>
      <trkpt lat="45.96114" lon="4.77761">
        <ele>197</ele>
        <time>2018-05-23T08:39:02Z</time>
      </trkpt>
      <trkpt lat="45.96118" lon="4.77767">
        <ele>197</ele>
        <time>2018-05-23T08:39:03Z</time>
      </trkpt>
      <trkpt lat="45.96122" lon="4.77775">
        <ele>197</ele>
        <time>2018-05-23T08:39:05Z</time>
      </trkpt>
      <trkpt lat="45.96124" lon="4.77781">
        <ele>197</ele>
        <time>2018-05-23T08:39:06Z</time>
      </trkpt>
      <trkpt lat="45.96127" lon="4.77787">
        <ele>197</ele>
        <time>2018-05-23T08:39:07Z</time>
      </trkpt>
      <trkpt lat="45.9613" lon="4.77793">
        <ele>197</ele>
        <time>2018-05-23T08:39:08Z</time>
      </trkpt>
      <trkpt lat="45.96133" lon="4.77798">
        <ele>197</ele>
        <time>2018-05-23T08:39:09Z</time>
      </trkpt>
      <trkpt lat="45.96136" lon="4.77802">
        <ele>198</ele>
        <time>2018-05-23T08:39:10Z</time>
      </trkpt>
      <trkpt lat="45.96139" lon="4.77807">
        <ele>198</ele>
        <time>2018-05-23T08:39:11Z</time>
      </trkpt>
      <trkpt lat="45.96144" lon="4.77816">
        <ele>198</ele>
        <time>2018-05-23T08:39:12Z</time>
      </trkpt>
      <trkpt lat="45.96147" lon="4.7782">
        <ele>198</ele>
        <time>2018-05-23T08:39:13Z</time>
      </trkpt>
      <trkpt lat="45.9615" lon="4.77827">
        <ele>198</ele>
        <time>2018-05-23T08:39:14Z</time>
      </trkpt>
      <trkpt lat="45.96153" lon="4.77832">
        <ele>198</ele>
        <time>2018-05-23T08:39:15Z</time>
      </trkpt>
      <trkpt lat="45.96156" lon="4.77837">
        <ele>197</ele>
        <time>2018-05-23T08:39:16Z</time>
      </trkpt>
      <trkpt lat="45.96159" lon="4.77843">
        <ele>197</ele>
        <time>2018-05-23T08:39:17Z</time>
      </trkpt>
      <trkpt lat="45.96162" lon="4.77849">
        <ele>197</ele>
        <time>2018-05-23T08:39:18Z</time>
      </trkpt>
      <trkpt lat="45.96167" lon="4.77856">
        <ele>196</ele>
        <time>2018-05-23T08:39:19Z</time>
      </trkpt>
      <trkpt lat="45.9617" lon="4.77862">
        <ele>201</ele>
        <time>2018-05-23T08:39:20Z</time>
      </trkpt>
      <trkpt lat="45.96174" lon="4.77869">
        <ele>201</ele>
        <time>2018-05-23T08:39:21Z</time>
      </trkpt>
      <trkpt lat="45.96177" lon="4.77875">
        <ele>201</ele>
        <time>2018-05-23T08:39:22Z</time>
      </trkpt>
      <trkpt lat="45.96181" lon="4.77881">
        <ele>201</ele>
        <time>2018-05-23T08:39:23Z</time>
      </trkpt>
      <trkpt lat="45.96186" lon="4.77887">
        <ele>201</ele>
        <time>2018-05-23T08:39:24Z</time>
      </trkpt>
      <trkpt lat="45.96189" lon="4.77893">
        <ele>201</ele>
        <time>2018-05-23T08:39:25Z</time>
      </trkpt>
      <trkpt lat="45.96194" lon="4.77901">
        <ele>201</ele>
        <time>2018-05-23T08:39:26Z</time>
      </trkpt>
      <trkpt lat="45.96198" lon="4.77906">
        <ele>201</ele>
        <time>2018-05-23T08:39:27Z</time>
      </trkpt>
      <trkpt lat="45.96202" lon="4.7791">
        <ele>201</ele>
        <time>2018-05-23T08:39:28Z</time>
      </trkpt>
      <trkpt lat="45.96206" lon="4.77917">
        <ele>199</ele>
        <time>2018-05-23T08:39:29Z</time>
      </trkpt>
      <trkpt lat="45.9621" lon="4.77923">
        <ele>199</ele>
        <time>2018-05-23T08:39:30Z</time>
      </trkpt>
      <trkpt lat="45.96214" lon="4.77928">
        <ele>199</ele>
        <time>2018-05-23T08:39:31Z</time>
      </trkpt>
      <trkpt lat="45.96218" lon="4.77933">
        <ele>200</ele>
        <time>2018-05-23T08:39:32Z</time>
      </trkpt>
      <trkpt lat="45.96222" lon="4.77938">
        <ele>200</ele>
        <time>2018-05-23T08:39:33Z</time>
      </trkpt>
      <trkpt lat="45.96224" lon="4.77944">
        <ele>200</ele>
        <time>2018-05-23T08:39:34Z</time>
      </trkpt>
      <trkpt lat="45.9623" lon="4.77953">
        <ele>199</ele>
        <time>2018-05-23T08:39:36Z</time>
      </trkpt>
      <trkpt lat="45.96236" lon="4.77958">
        <ele>199</ele>
        <time>2018-05-23T08:39:37Z</time>
      </trkpt>
      <trkpt lat="45.9624" lon="4.77964">
        <ele>199</ele>
        <time>2018-05-23T08:39:38Z</time>
      </trkpt>
      <trkpt lat="45.96245" lon="4.77967">
        <ele>198</ele>
        <time>2018-05-23T08:39:39Z</time>
      </trkpt>
      <trkpt lat="45.96249" lon="4.77971">
        <ele>198</ele>
        <time>2018-05-23T08:39:40Z</time>
      </trkpt>
      <trkpt lat="45.96255" lon="4.77977">
        <ele>202</ele>
        <time>2018-05-23T08:39:41Z</time>
      </trkpt>
      <trkpt lat="45.96259" lon="4.77982">
        <ele>202</ele>
        <time>2018-05-23T08:39:42Z</time>
      </trkpt>
      <trkpt lat="45.96263" lon="4.77986">
        <ele>201</ele>
        <time>2018-05-23T08:39:43Z</time>
      </trkpt>
      <trkpt lat="45.96267" lon="4.7799">
        <ele>202</ele>
        <time>2018-05-23T08:39:44Z</time>
      </trkpt>
      <trkpt lat="45.96272" lon="4.77994">
        <ele>202</ele>
        <time>2018-05-23T08:39:45Z</time>
      </trkpt>
      <trkpt lat="45.96277" lon="4.77997">
        <ele>203</ele>
        <time>2018-05-23T08:39:46Z</time>
      </trkpt>
      <trkpt lat="45.9628" lon="4.78002">
        <ele>198</ele>
        <time>2018-05-23T08:39:47Z</time>
      </trkpt>
      <trkpt lat="45.96285" lon="4.78008">
        <ele>199</ele>
        <time>2018-05-23T08:39:48Z</time>
      </trkpt>
      <trkpt lat="45.96292" lon="4.78008">
        <ele>199</ele>
        <time>2018-05-23T08:39:49Z</time>
      </trkpt>
      <trkpt lat="45.96297" lon="4.78011">
        <ele>199</ele>
        <time>2018-05-23T08:39:50Z</time>
      </trkpt>
      <trkpt lat="45.96302" lon="4.78017">
        <ele>200</ele>
        <time>2018-05-23T08:39:51Z</time>
      </trkpt>
      <trkpt lat="45.96306" lon="4.78023">
        <ele>200</ele>
        <time>2018-05-23T08:39:52Z</time>
      </trkpt>
      <trkpt lat="45.96309" lon="4.78029">
        <ele>199</ele>
        <time>2018-05-23T08:39:53Z</time>
      </trkpt>
      <trkpt lat="45.96317" lon="4.78032">
        <ele>200</ele>
        <time>2018-05-23T08:39:54Z</time>
      </trkpt>
      <trkpt lat="45.96322" lon="4.78037">
        <ele>200</ele>
        <time>2018-05-23T08:39:55Z</time>
      </trkpt>
      <trkpt lat="45.96325" lon="4.78043">
        <ele>199</ele>
        <time>2018-05-23T08:39:56Z</time>
      </trkpt>
      <trkpt lat="45.9633" lon="4.78048">
        <ele>199</ele>
        <time>2018-05-23T08:39:57Z</time>
      </trkpt>
      <trkpt lat="45.96335" lon="4.78054">
        <ele>202</ele>
        <time>2018-05-23T08:39:58Z</time>
      </trkpt>
      <trkpt lat="45.96339" lon="4.7806">
        <ele>202</ele>
        <time>2018-05-23T08:39:59Z</time>
      </trkpt>
      <trkpt lat="45.96344" lon="4.78066">
        <ele>201</ele>
        <time>2018-05-23T08:40:00Z</time>
      </trkpt>
      <trkpt lat="45.96349" lon="4.78071">
        <ele>201</ele>
        <time>2018-05-23T08:40:01Z</time>
      </trkpt>
      <trkpt lat="45.96352" lon="4.78076">
        <ele>201</ele>
        <time>2018-05-23T08:40:02Z</time>
      </trkpt>
      <trkpt lat="45.96357" lon="4.78079">
        <ele>202</ele>
        <time>2018-05-23T08:40:03Z</time>
      </trkpt>
      <trkpt lat="45.96362" lon="4.78082">
        <ele>202</ele>
        <time>2018-05-23T08:40:04Z</time>
      </trkpt>
      <trkpt lat="45.96366" lon="4.78086">
        <ele>199</ele>
        <time>2018-05-23T08:40:05Z</time>
      </trkpt>
      <trkpt lat="45.96369" lon="4.78091">
        <ele>199</ele>
        <time>2018-05-23T08:40:06Z</time>
      </trkpt>
      <trkpt lat="45.96374" lon="4.78096">
        <ele>200</ele>
        <time>2018-05-23T08:40:07Z</time>
      </trkpt>
      <trkpt lat="45.96378" lon="4.78099">
        <ele>200</ele>
        <time>2018-05-23T08:40:08Z</time>
      </trkpt>
      <trkpt lat="45.96383" lon="4.78103">
        <ele>200</ele>
        <time>2018-05-23T08:40:09Z</time>
      </trkpt>
      <trkpt lat="45.96387" lon="4.78112">
        <ele>200</ele>
        <time>2018-05-23T08:40:10Z</time>
      </trkpt>
      <trkpt lat="45.96393" lon="4.78114">
        <ele>200</ele>
        <time>2018-05-23T08:40:11Z</time>
      </trkpt>
      <trkpt lat="45.96397" lon="4.78118">
        <ele>200</ele>
        <time>2018-05-23T08:40:12Z</time>
      </trkpt>
      <trkpt lat="45.96401" lon="4.78122">
        <ele>200</ele>
        <time>2018-05-23T08:40:13Z</time>
      </trkpt>
      <trkpt lat="45.96405" lon="4.78126">
        <ele>200</ele>
        <time>2018-05-23T08:40:14Z</time>
      </trkpt>
      <trkpt lat="45.9641" lon="4.78131">
        <ele>199</ele>
        <time>2018-05-23T08:40:15Z</time>
      </trkpt>
      <trkpt lat="45.96414" lon="4.78135">
        <ele>199</ele>
        <time>2018-05-23T08:40:16Z</time>
      </trkpt>
      <trkpt lat="45.96419" lon="4.78139">
        <ele>203</ele>
        <time>2018-05-23T08:40:17Z</time>
      </trkpt>
      <trkpt lat="45.96421" lon="4.78146">
        <ele>202</ele>
        <time>2018-05-23T08:40:18Z</time>
      </trkpt>
      <trkpt lat="45.96428" lon="4.78148">
        <ele>202</ele>
        <time>2018-05-23T08:40:19Z</time>
      </trkpt>
      <trkpt lat="45.96433" lon="4.78152">
        <ele>202</ele>
        <time>2018-05-23T08:40:20Z</time>
      </trkpt>
      <trkpt lat="45.96437" lon="4.78157">
        <ele>203</ele>
        <time>2018-05-23T08:40:21Z</time>
      </trkpt>
      <trkpt lat="45.96442" lon="4.78161">
        <ele>203</ele>
        <time>2018-05-23T08:40:22Z</time>
      </trkpt>
      <trkpt lat="45.96446" lon="4.78165">
        <ele>203</ele>
        <time>2018-05-23T08:40:23Z</time>
      </trkpt>
      <trkpt lat="45.9645" lon="4.78169">
        <ele>199</ele>
        <time>2018-05-23T08:40:24Z</time>
      </trkpt>
      <trkpt lat="45.96455" lon="4.78172">
        <ele>200</ele>
        <time>2018-05-23T08:40:25Z</time>
      </trkpt>
      <trkpt lat="45.96458" lon="4.78175">
        <ele>200</ele>
        <time>2018-05-23T08:40:26Z</time>
      </trkpt>
      <trkpt lat="45.96462" lon="4.78179">
        <ele>200</ele>
        <time>2018-05-23T08:40:27Z</time>
      </trkpt>
      <trkpt lat="45.96466" lon="4.78182">
        <ele>200</ele>
        <time>2018-05-23T08:40:28Z</time>
      </trkpt>
      <trkpt lat="45.9647" lon="4.78186">
        <ele>200</ele>
        <time>2018-05-23T08:40:29Z</time>
      </trkpt>
      <trkpt lat="45.96475" lon="4.78189">
        <ele>200</ele>
        <time>2018-05-23T08:40:30Z</time>
      </trkpt>
      <trkpt lat="45.96479" lon="4.78192">
        <ele>200</ele>
        <time>2018-05-23T08:40:31Z</time>
      </trkpt>
      <trkpt lat="45.96483" lon="4.78194">
        <ele>200</ele>
        <time>2018-05-23T08:40:32Z</time>
      </trkpt>
      <trkpt lat="45.96489" lon="4.78192">
        <ele>201</ele>
        <time>2018-05-23T08:40:33Z</time>
      </trkpt>
      <trkpt lat="45.96493" lon="4.78192">
        <ele>201</ele>
        <time>2018-05-23T08:40:34Z</time>
      </trkpt>
      <trkpt lat="45.96497" lon="4.78198">
        <ele>201</ele>
        <time>2018-05-23T08:40:35Z</time>
      </trkpt>
      <trkpt lat="45.96501" lon="4.78202">
        <ele>205</ele>
        <time>2018-05-23T08:40:36Z</time>
      </trkpt>
      <trkpt lat="45.96506" lon="4.78206">
        <ele>205</ele>
        <time>2018-05-23T08:40:37Z</time>
      </trkpt>
      <trkpt lat="45.9651" lon="4.7821">
        <ele>205</ele>
        <time>2018-05-23T08:40:38Z</time>
      </trkpt>
      <trkpt lat="45.96513" lon="4.78216">
        <ele>205</ele>
        <time>2018-05-23T08:40:39Z</time>
      </trkpt>
      <trkpt lat="45.96519" lon="4.78224">
        <ele>204</ele>
        <time>2018-05-23T08:40:41Z</time>
      </trkpt>
      <trkpt lat="45.96522" lon="4.78231">
        <ele>204</ele>
        <time>2018-05-23T08:40:42Z</time>
      </trkpt>
      <trkpt lat="45.96525" lon="4.78236">
        <ele>204</ele>
        <time>2018-05-23T08:40:43Z</time>
      </trkpt>
      <trkpt lat="45.96528" lon="4.78241">
        <ele>204</ele>
        <time>2018-05-23T08:40:44Z</time>
      </trkpt>
      <trkpt lat="45.96534" lon="4.78251">
        <ele>200</ele>
        <time>2018-05-23T08:40:46Z</time>
      </trkpt>
      <trkpt lat="45.96538" lon="4.78257">
        <ele>200</ele>
        <time>2018-05-23T08:40:47Z</time>
      </trkpt>
      <trkpt lat="45.96541" lon="4.78263">
        <ele>200</ele>
        <time>2018-05-23T08:40:48Z</time>
      </trkpt>
      <trkpt lat="45.96545" lon="4.78266">
        <ele>200</ele>
        <time>2018-05-23T08:40:49Z</time>
      </trkpt>
      <trkpt lat="45.9655" lon="4.78273">
        <ele>200</ele>
        <time>2018-05-23T08:40:50Z</time>
      </trkpt>
      <trkpt lat="45.96553" lon="4.78276">
        <ele>201</ele>
        <time>2018-05-23T08:40:51Z</time>
      </trkpt>
      <trkpt lat="45.96557" lon="4.78281">
        <ele>200</ele>
        <time>2018-05-23T08:40:52Z</time>
      </trkpt>
      <trkpt lat="45.96561" lon="4.78285">
        <ele>200</ele>
        <time>2018-05-23T08:40:53Z</time>
      </trkpt>
      <trkpt lat="45.96566" lon="4.7829">
        <ele>200</ele>
        <time>2018-05-23T08:40:54Z</time>
      </trkpt>
      <trkpt lat="45.96569" lon="4.78297">
        <ele>200</ele>
        <time>2018-05-23T08:40:55Z</time>
      </trkpt>
      <trkpt lat="45.96573" lon="4.78303">
        <ele>200</ele>
        <time>2018-05-23T08:40:56Z</time>
      </trkpt>
      <trkpt lat="45.96577" lon="4.78308">
        <ele>200</ele>
        <time>2018-05-23T08:40:57Z</time>
      </trkpt>
      <trkpt lat="45.96582" lon="4.78314">
        <ele>199</ele>
        <time>2018-05-23T08:40:58Z</time>
      </trkpt>
      <trkpt lat="45.96586" lon="4.78321">
        <ele>202</ele>
        <time>2018-05-23T08:40:59Z</time>
      </trkpt>
      <trkpt lat="45.96591" lon="4.78325">
        <ele>201</ele>
        <time>2018-05-23T08:41:00Z</time>
      </trkpt>
      <trkpt lat="45.96596" lon="4.78329">
        <ele>202</ele>
        <time>2018-05-23T08:41:01Z</time>
      </trkpt>
      <trkpt lat="45.96601" lon="4.78334">
        <ele>200</ele>
        <time>2018-05-23T08:41:02Z</time>
      </trkpt>
      <trkpt lat="45.96606" lon="4.78339">
        <ele>200</ele>
        <time>2018-05-23T08:41:03Z</time>
      </trkpt>
      <trkpt lat="45.9661" lon="4.78343">
        <ele>200</ele>
        <time>2018-05-23T08:41:04Z</time>
      </trkpt>
      <trkpt lat="45.96612" lon="4.7835">
        <ele>200</ele>
        <time>2018-05-23T08:41:05Z</time>
      </trkpt>
      <trkpt lat="45.96616" lon="4.78354">
        <ele>201</ele>
        <time>2018-05-23T08:41:06Z</time>
      </trkpt>
      <trkpt lat="45.9662" lon="4.78358">
        <ele>201</ele>
        <time>2018-05-23T08:41:07Z</time>
      </trkpt>
      <trkpt lat="45.96624" lon="4.78363">
        <ele>201</ele>
        <time>2018-05-23T08:41:08Z</time>
      </trkpt>
      <trkpt lat="45.96628" lon="4.78367">
        <ele>201</ele>
        <time>2018-05-23T08:41:09Z</time>
      </trkpt>
      <trkpt lat="45.96633" lon="4.78371">
        <ele>201</ele>
        <time>2018-05-23T08:41:10Z</time>
      </trkpt>
      <trkpt lat="45.96637" lon="4.78375">
        <ele>201</ele>
        <time>2018-05-23T08:41:11Z</time>
      </trkpt>
      <trkpt lat="45.96643" lon="4.78379">
        <ele>201</ele>
        <time>2018-05-23T08:41:12Z</time>
      </trkpt>
      <trkpt lat="45.96647" lon="4.78383">
        <ele>201</ele>
        <time>2018-05-23T08:41:13Z</time>
      </trkpt>
      <trkpt lat="45.96652" lon="4.78387">
        <ele>201</ele>
        <time>2018-05-23T08:41:14Z</time>
      </trkpt>
      <trkpt lat="45.96656" lon="4.78392">
        <ele>201</ele>
        <time>2018-05-23T08:41:15Z</time>
      </trkpt>
      <trkpt lat="45.96661" lon="4.78396">
        <ele>201</ele>
        <time>2018-05-23T08:41:16Z</time>
      </trkpt>
      <trkpt lat="45.96666" lon="4.784">
        <ele>201</ele>
        <time>2018-05-23T08:41:17Z</time>
      </trkpt>
      <trkpt lat="45.9667" lon="4.78403">
        <ele>203</ele>
        <time>2018-05-23T08:41:18Z</time>
      </trkpt>
      <trkpt lat="45.96674" lon="4.78409">
        <ele>203</ele>
        <time>2018-05-23T08:41:19Z</time>
      </trkpt>
      <trkpt lat="45.96677" lon="4.78413">
        <ele>203</ele>
        <time>2018-05-23T08:41:20Z</time>
      </trkpt>
      <trkpt lat="45.96682" lon="4.78417">
        <ele>202</ele>
        <time>2018-05-23T08:41:21Z</time>
      </trkpt>
      <trkpt lat="45.9669" lon="4.7842">
        <ele>202</ele>
        <time>2018-05-23T08:41:23Z</time>
      </trkpt>
      <trkpt lat="45.96693" lon="4.78423">
        <ele>202</ele>
        <time>2018-05-23T08:41:24Z</time>
      </trkpt>
      <trkpt lat="45.967" lon="4.7843">
        <ele>203</ele>
        <time>2018-05-23T08:41:26Z</time>
      </trkpt>
      <trkpt lat="45.96703" lon="4.78435">
        <ele>203</ele>
        <time>2018-05-23T08:41:27Z</time>
      </trkpt>
      <trkpt lat="45.96707" lon="4.78439">
        <ele>203</ele>
        <time>2018-05-23T08:41:28Z</time>
      </trkpt>
      <trkpt lat="45.9671" lon="4.78443">
        <ele>203</ele>
        <time>2018-05-23T08:41:29Z</time>
      </trkpt>
      <trkpt lat="45.96717" lon="4.78451">
        <ele>203</ele>
        <time>2018-05-23T08:41:31Z</time>
      </trkpt>
      <trkpt lat="45.96721" lon="4.78454">
        <ele>203</ele>
        <time>2018-05-23T08:41:32Z</time>
      </trkpt>
      <trkpt lat="45.96725" lon="4.78458">
        <ele>203</ele>
        <time>2018-05-23T08:41:33Z</time>
      </trkpt>
      <trkpt lat="45.9673" lon="4.78462">
        <ele>203</ele>
        <time>2018-05-23T08:41:34Z</time>
      </trkpt>
      <trkpt lat="45.96735" lon="4.78467">
        <ele>203</ele>
        <time>2018-05-23T08:41:35Z</time>
      </trkpt>
      <trkpt lat="45.96739" lon="4.78471">
        <ele>203</ele>
        <time>2018-05-23T08:41:36Z</time>
      </trkpt>
      <trkpt lat="45.96744" lon="4.78476">
        <ele>203</ele>
        <time>2018-05-23T08:41:37Z</time>
      </trkpt>
      <trkpt lat="45.9675" lon="4.78475">
        <ele>203</ele>
        <time>2018-05-23T08:41:38Z</time>
      </trkpt>
      <trkpt lat="45.96753" lon="4.78478">
        <ele>205</ele>
        <time>2018-05-23T08:41:39Z</time>
      </trkpt>
      <trkpt lat="45.96758" lon="4.78481">
        <ele>205</ele>
        <time>2018-05-23T08:41:40Z</time>
      </trkpt>
      <trkpt lat="45.96763" lon="4.78488">
        <ele>205</ele>
        <time>2018-05-23T08:41:41Z</time>
      </trkpt>
      <trkpt lat="45.96767" lon="4.78492">
        <ele>205</ele>
        <time>2018-05-23T08:41:42Z</time>
      </trkpt>
      <trkpt lat="45.96771" lon="4.78497">
        <ele>205</ele>
        <time>2018-05-23T08:41:43Z</time>
      </trkpt>
      <trkpt lat="45.96775" lon="4.78502">
        <ele>203</ele>
        <time>2018-05-23T08:41:44Z</time>
      </trkpt>
      <trkpt lat="45.96777" lon="4.78507">
        <ele>203</ele>
        <time>2018-05-23T08:41:45Z</time>
      </trkpt>
      <trkpt lat="45.9678" lon="4.78513">
        <ele>203</ele>
        <time>2018-05-23T08:41:46Z</time>
      </trkpt>
      <trkpt lat="45.96784" lon="4.78518">
        <ele>203</ele>
        <time>2018-05-23T08:41:47Z</time>
      </trkpt>
      <trkpt lat="45.96786" lon="4.78524">
        <ele>203</ele>
        <time>2018-05-23T08:41:48Z</time>
      </trkpt>
      <trkpt lat="45.96789" lon="4.78529">
        <ele>203</ele>
        <time>2018-05-23T08:41:49Z</time>
      </trkpt>
      <trkpt lat="45.96794" lon="4.78537">
        <ele>203</ele>
        <time>2018-05-23T08:41:50Z</time>
      </trkpt>
      <trkpt lat="45.96796" lon="4.78542">
        <ele>203</ele>
        <time>2018-05-23T08:41:51Z</time>
      </trkpt>
      <trkpt lat="45.96798" lon="4.78548">
        <ele>203</ele>
        <time>2018-05-23T08:41:52Z</time>
      </trkpt>
      <trkpt lat="45.96804" lon="4.78558">
        <ele>203</ele>
        <time>2018-05-23T08:41:54Z</time>
      </trkpt>
      <trkpt lat="45.96807" lon="4.78563">
        <ele>203</ele>
        <time>2018-05-23T08:41:55Z</time>
      </trkpt>
      <trkpt lat="45.96812" lon="4.78571">
        <ele>203</ele>
        <time>2018-05-23T08:41:58Z</time>
      </trkpt>
      <trkpt lat="45.96814" lon="4.78573">
        <ele>203</ele>
        <time>2018-05-23T08:41:59Z</time>
      </trkpt>
      <trkpt lat="45.96815" lon="4.78576">
        <ele>203</ele>
        <time>2018-05-23T08:42:00Z</time>
      </trkpt>
      <trkpt lat="45.96819" lon="4.78584">
        <ele>202</ele>
        <time>2018-05-23T08:42:01Z</time>
      </trkpt>
      <trkpt lat="45.96823" lon="4.78594">
        <ele>202</ele>
        <time>2018-05-23T08:42:03Z</time>
      </trkpt>
      <trkpt lat="45.96825" lon="4.78601">
        <ele>202</ele>
        <time>2018-05-23T08:42:04Z</time>
      </trkpt>
      <trkpt lat="45.96827" lon="4.78607">
        <ele>202</ele>
        <time>2018-05-23T08:42:05Z</time>
      </trkpt>
      <trkpt lat="45.9683" lon="4.78612">
        <ele>202</ele>
        <time>2018-05-23T08:42:06Z</time>
      </trkpt>
      <trkpt lat="45.96831" lon="4.78618">
        <ele>202</ele>
        <time>2018-05-23T08:42:07Z</time>
      </trkpt>
      <trkpt lat="45.96833" lon="4.78625">
        <ele>201</ele>
        <time>2018-05-23T08:42:08Z</time>
      </trkpt>
      <trkpt lat="45.96836" lon="4.78631">
        <ele>203</ele>
        <time>2018-05-23T08:42:09Z</time>
      </trkpt>
      <trkpt lat="45.96838" lon="4.78637">
        <ele>203</ele>
        <time>2018-05-23T08:42:10Z</time>
      </trkpt>
      <trkpt lat="45.9684" lon="4.78643">
        <ele>203</ele>
        <time>2018-05-23T08:42:11Z</time>
      </trkpt>
      <trkpt lat="45.96843" lon="4.78648">
        <ele>203</ele>
        <time>2018-05-23T08:42:12Z</time>
      </trkpt>
      <trkpt lat="45.96846" lon="4.78653">
        <ele>203</ele>
        <time>2018-05-23T08:42:13Z</time>
      </trkpt>
      <trkpt lat="45.9685" lon="4.78659">
        <ele>202</ele>
        <time>2018-05-23T08:42:14Z</time>
      </trkpt>
      <trkpt lat="45.96854" lon="4.7867">
        <ele>202</ele>
        <time>2018-05-23T08:42:16Z</time>
      </trkpt>
      <trkpt lat="45.96857" lon="4.78676">
        <ele>202</ele>
        <time>2018-05-23T08:42:17Z</time>
      </trkpt>
      <trkpt lat="45.96859" lon="4.78681">
        <ele>202</ele>
        <time>2018-05-23T08:42:18Z</time>
      </trkpt>
      <trkpt lat="45.96862" lon="4.78687">
        <ele>202</ele>
        <time>2018-05-23T08:42:19Z</time>
      </trkpt>
      <trkpt lat="45.96864" lon="4.78693">
        <ele>202</ele>
        <time>2018-05-23T08:42:20Z</time>
      </trkpt>
      <trkpt lat="45.96866" lon="4.78699">
        <ele>202</ele>
        <time>2018-05-23T08:42:21Z</time>
      </trkpt>
      <trkpt lat="45.96871" lon="4.78709">
        <ele>202</ele>
        <time>2018-05-23T08:42:23Z</time>
      </trkpt>
      <trkpt lat="45.96874" lon="4.78716">
        <ele>202</ele>
        <time>2018-05-23T08:42:24Z</time>
      </trkpt>
      <trkpt lat="45.96877" lon="4.78721">
        <ele>202</ele>
        <time>2018-05-23T08:42:25Z</time>
      </trkpt>
      <trkpt lat="45.9688" lon="4.78726">
        <ele>202</ele>
        <time>2018-05-23T08:42:26Z</time>
      </trkpt>
      <trkpt lat="45.96886" lon="4.78735">
        <ele>202</ele>
        <time>2018-05-23T08:42:28Z</time>
      </trkpt>
      <trkpt lat="45.96888" lon="4.7874">
        <ele>202</ele>
        <time>2018-05-23T08:42:29Z</time>
      </trkpt>
      <trkpt lat="45.9689" lon="4.78746">
        <ele>202</ele>
        <time>2018-05-23T08:42:30Z</time>
      </trkpt>
      <trkpt lat="45.96892" lon="4.78752">
        <ele>201</ele>
        <time>2018-05-23T08:42:31Z</time>
      </trkpt>
      <trkpt lat="45.96894" lon="4.78758">
        <ele>201</ele>
        <time>2018-05-23T08:42:32Z</time>
      </trkpt>
      <trkpt lat="45.96896" lon="4.78765">
        <ele>201</ele>
        <time>2018-05-23T08:42:33Z</time>
      </trkpt>
      <trkpt lat="45.969" lon="4.78776">
        <ele>201</ele>
        <time>2018-05-23T08:42:35Z</time>
      </trkpt>
      <trkpt lat="45.96903" lon="4.78782">
        <ele>201</ele>
        <time>2018-05-23T08:42:36Z</time>
      </trkpt>
      <trkpt lat="45.96905" lon="4.78788">
        <ele>201</ele>
        <time>2018-05-23T08:42:37Z</time>
      </trkpt>
      <trkpt lat="45.96908" lon="4.78793">
        <ele>201</ele>
        <time>2018-05-23T08:42:38Z</time>
      </trkpt>
      <trkpt lat="45.96914" lon="4.78801">
        <ele>200</ele>
        <time>2018-05-23T08:42:40Z</time>
      </trkpt>
      <trkpt lat="45.96917" lon="4.78807">
        <ele>203</ele>
        <time>2018-05-23T08:42:41Z</time>
      </trkpt>
      <trkpt lat="45.96923" lon="4.78814">
        <ele>202</ele>
        <time>2018-05-23T08:42:43Z</time>
      </trkpt>
      <trkpt lat="45.96926" lon="4.78819">
        <ele>202</ele>
        <time>2018-05-23T08:42:44Z</time>
      </trkpt>
      <trkpt lat="45.96929" lon="4.78823">
        <ele>202</ele>
        <time>2018-05-23T08:42:45Z</time>
      </trkpt>
      <trkpt lat="45.96932" lon="4.78828">
        <ele>202</ele>
        <time>2018-05-23T08:42:46Z</time>
      </trkpt>
      <trkpt lat="45.96936" lon="4.78833">
        <ele>202</ele>
        <time>2018-05-23T08:42:47Z</time>
      </trkpt>
      <trkpt lat="45.9694" lon="4.78837">
        <ele>202</ele>
        <time>2018-05-23T08:42:48Z</time>
      </trkpt>
      <trkpt lat="45.96943" lon="4.78842">
        <ele>202</ele>
        <time>2018-05-23T08:42:49Z</time>
      </trkpt>
      <trkpt lat="45.96947" lon="4.78847">
        <ele>202</ele>
        <time>2018-05-23T08:42:50Z</time>
      </trkpt>
      <trkpt lat="45.96951" lon="4.78852">
        <ele>202</ele>
        <time>2018-05-23T08:42:51Z</time>
      </trkpt>
      <trkpt lat="45.96955" lon="4.78856">
        <ele>203</ele>
        <time>2018-05-23T08:42:52Z</time>
      </trkpt>
      <trkpt lat="45.96959" lon="4.7886">
        <ele>203</ele>
        <time>2018-05-23T08:42:53Z</time>
      </trkpt>
      <trkpt lat="45.96963" lon="4.78865">
        <ele>203</ele>
        <time>2018-05-23T08:42:54Z</time>
      </trkpt>
      <trkpt lat="45.96966" lon="4.78868">
        <ele>203</ele>
        <time>2018-05-23T08:42:55Z</time>
      </trkpt>
      <trkpt lat="45.9697" lon="4.78874">
        <ele>203</ele>
        <time>2018-05-23T08:42:56Z</time>
      </trkpt>
      <trkpt lat="45.96977" lon="4.78882">
        <ele>203</ele>
        <time>2018-05-23T08:42:58Z</time>
      </trkpt>
      <trkpt lat="45.9698" lon="4.78885">
        <ele>203</ele>
        <time>2018-05-23T08:42:59Z</time>
      </trkpt>
      <trkpt lat="45.96987" lon="4.78893">
        <ele>203</ele>
        <time>2018-05-23T08:43:01Z</time>
      </trkpt>
      <trkpt lat="45.9699" lon="4.78899">
        <ele>203</ele>
        <time>2018-05-23T08:43:02Z</time>
      </trkpt>
      <trkpt lat="45.96993" lon="4.78906">
        <ele>204</ele>
        <time>2018-05-23T08:43:03Z</time>
      </trkpt>
      <trkpt lat="45.96997" lon="4.7891">
        <ele>204</ele>
        <time>2018-05-23T08:43:04Z</time>
      </trkpt>
      <trkpt lat="45.97" lon="4.78914">
        <ele>204</ele>
        <time>2018-05-23T08:43:05Z</time>
      </trkpt>
      <trkpt lat="45.97003" lon="4.78918">
        <ele>204</ele>
        <time>2018-05-23T08:43:06Z</time>
      </trkpt>
      <trkpt lat="45.9701" lon="4.78925">
        <ele>204</ele>
        <time>2018-05-23T08:43:08Z</time>
      </trkpt>
      <trkpt lat="45.97013" lon="4.7893">
        <ele>205</ele>
        <time>2018-05-23T08:43:09Z</time>
      </trkpt>
      <trkpt lat="45.97016" lon="4.78934">
        <ele>205</ele>
        <time>2018-05-23T08:43:10Z</time>
      </trkpt>
      <trkpt lat="45.97019" lon="4.7894">
        <ele>205</ele>
        <time>2018-05-23T08:43:11Z</time>
      </trkpt>
      <trkpt lat="45.97024" lon="4.7895">
        <ele>205</ele>
        <time>2018-05-23T08:43:13Z</time>
      </trkpt>
      <trkpt lat="45.97027" lon="4.78954">
        <ele>205</ele>
        <time>2018-05-23T08:43:14Z</time>
      </trkpt>
      <trkpt lat="45.97033" lon="4.78962">
        <ele>205</ele>
        <time>2018-05-23T08:43:16Z</time>
      </trkpt>
      <trkpt lat="45.97035" lon="4.78966">
        <ele>205</ele>
        <time>2018-05-23T08:43:17Z</time>
      </trkpt>
      <trkpt lat="45.9704" lon="4.78976">
        <ele>205</ele>
        <time>2018-05-23T08:43:19Z</time>
      </trkpt>
      <trkpt lat="45.97042" lon="4.7898">
        <ele>205</ele>
        <time>2018-05-23T08:43:20Z</time>
      </trkpt>
      <trkpt lat="45.97046" lon="4.7899">
        <ele>204</ele>
        <time>2018-05-23T08:43:22Z</time>
      </trkpt>
      <trkpt lat="45.97047" lon="4.78995">
        <ele>204</ele>
        <time>2018-05-23T08:43:23Z</time>
      </trkpt>
      <trkpt lat="45.97051" lon="4.79006">
        <ele>203</ele>
        <time>2018-05-23T08:43:25Z</time>
      </trkpt>
      <trkpt lat="45.97051" lon="4.79015">
        <ele>203</ele>
        <time>2018-05-23T08:43:26Z</time>
      </trkpt>
      <trkpt lat="45.97052" lon="4.79021">
        <ele>203</ele>
        <time>2018-05-23T08:43:27Z</time>
      </trkpt>
      <trkpt lat="45.97056" lon="4.79029">
        <ele>203</ele>
        <time>2018-05-23T08:43:28Z</time>
      </trkpt>
      <trkpt lat="45.97059" lon="4.79034">
        <ele>203</ele>
        <time>2018-05-23T08:43:29Z</time>
      </trkpt>
      <trkpt lat="45.97061" lon="4.7904">
        <ele>203</ele>
        <time>2018-05-23T08:43:30Z</time>
      </trkpt>
      <trkpt lat="45.97063" lon="4.79046">
        <ele>203</ele>
        <time>2018-05-23T08:43:31Z</time>
      </trkpt>
      <trkpt lat="45.97065" lon="4.79052">
        <ele>203</ele>
        <time>2018-05-23T08:43:32Z</time>
      </trkpt>
      <trkpt lat="45.97066" lon="4.79059">
        <ele>203</ele>
        <time>2018-05-23T08:43:33Z</time>
      </trkpt>
      <trkpt lat="45.97067" lon="4.79066">
        <ele>203</ele>
        <time>2018-05-23T08:43:34Z</time>
      </trkpt>
      <trkpt lat="45.97069" lon="4.79072">
        <ele>204</ele>
        <time>2018-05-23T08:43:35Z</time>
      </trkpt>
      <trkpt lat="45.97071" lon="4.7908">
        <ele>204</ele>
        <time>2018-05-23T08:43:36Z</time>
      </trkpt>
      <trkpt lat="45.97073" lon="4.79087">
        <ele>204</ele>
        <time>2018-05-23T08:43:37Z</time>
      </trkpt>
      <trkpt lat="45.97075" lon="4.79093">
        <ele>204</ele>
        <time>2018-05-23T08:43:38Z</time>
      </trkpt>
      <trkpt lat="45.97077" lon="4.791">
        <ele>204</ele>
        <time>2018-05-23T08:43:39Z</time>
      </trkpt>
      <trkpt lat="45.9708" lon="4.79108">
        <ele>204</ele>
        <time>2018-05-23T08:43:40Z</time>
      </trkpt>
      <trkpt lat="45.97081" lon="4.79115">
        <ele>204</ele>
        <time>2018-05-23T08:43:41Z</time>
      </trkpt>
      <trkpt lat="45.97082" lon="4.79121">
        <ele>204</ele>
        <time>2018-05-23T08:43:42Z</time>
      </trkpt>
      <trkpt lat="45.97085" lon="4.79128">
        <ele>206</ele>
        <time>2018-05-23T08:43:43Z</time>
      </trkpt>
      <trkpt lat="45.97086" lon="4.79135">
        <ele>206</ele>
        <time>2018-05-23T08:43:44Z</time>
      </trkpt>
      <trkpt lat="45.9709" lon="4.79142">
        <ele>206</ele>
        <time>2018-05-23T08:43:45Z</time>
      </trkpt>
      <trkpt lat="45.97094" lon="4.79147">
        <ele>206</ele>
        <time>2018-05-23T08:43:46Z</time>
      </trkpt>
      <trkpt lat="45.97097" lon="4.79153">
        <ele>206</ele>
        <time>2018-05-23T08:43:47Z</time>
      </trkpt>
      <trkpt lat="45.97101" lon="4.79157">
        <ele>206</ele>
        <time>2018-05-23T08:43:48Z</time>
      </trkpt>
      <trkpt lat="45.97105" lon="4.79164">
        <ele>206</ele>
        <time>2018-05-23T08:43:49Z</time>
      </trkpt>
      <trkpt lat="45.97108" lon="4.7917">
        <ele>205</ele>
        <time>2018-05-23T08:43:50Z</time>
      </trkpt>
      <trkpt lat="45.97111" lon="4.79176">
        <ele>205</ele>
        <time>2018-05-23T08:43:51Z</time>
      </trkpt>
      <trkpt lat="45.97113" lon="4.79182">
        <ele>205</ele>
        <time>2018-05-23T08:43:52Z</time>
      </trkpt>
      <trkpt lat="45.97116" lon="4.79188">
        <ele>206</ele>
        <time>2018-05-23T08:43:53Z</time>
      </trkpt>
      <trkpt lat="45.97118" lon="4.79192">
        <ele>206</ele>
        <time>2018-05-23T08:43:54Z</time>
      </trkpt>
      <trkpt lat="45.9712" lon="4.79199">
        <ele>206</ele>
        <time>2018-05-23T08:43:55Z</time>
      </trkpt>
      <trkpt lat="45.97123" lon="4.79206">
        <ele>205</ele>
        <time>2018-05-23T08:43:56Z</time>
      </trkpt>
      <trkpt lat="45.97125" lon="4.79211">
        <ele>205</ele>
        <time>2018-05-23T08:43:57Z</time>
      </trkpt>
      <trkpt lat="45.97128" lon="4.79218">
        <ele>205</ele>
        <time>2018-05-23T08:43:58Z</time>
      </trkpt>
      <trkpt lat="45.97131" lon="4.79224">
        <ele>205</ele>
        <time>2018-05-23T08:43:59Z</time>
      </trkpt>
      <trkpt lat="45.97134" lon="4.7923">
        <ele>205</ele>
        <time>2018-05-23T08:44:00Z</time>
      </trkpt>
      <trkpt lat="45.97137" lon="4.79235">
        <ele>205</ele>
        <time>2018-05-23T08:44:01Z</time>
      </trkpt>
      <trkpt lat="45.9714" lon="4.79241">
        <ele>205</ele>
        <time>2018-05-23T08:44:02Z</time>
      </trkpt>
      <trkpt lat="45.97142" lon="4.79248">
        <ele>205</ele>
        <time>2018-05-23T08:44:03Z</time>
      </trkpt>
      <trkpt lat="45.97146" lon="4.79254">
        <ele>204</ele>
        <time>2018-05-23T08:44:04Z</time>
      </trkpt>
      <trkpt lat="45.97148" lon="4.7926">
        <ele>204</ele>
        <time>2018-05-23T08:44:05Z</time>
      </trkpt>
      <trkpt lat="45.97151" lon="4.79266">
        <ele>204</ele>
        <time>2018-05-23T08:44:06Z</time>
      </trkpt>
      <trkpt lat="45.97153" lon="4.79273">
        <ele>204</ele>
        <time>2018-05-23T08:44:07Z</time>
      </trkpt>
      <trkpt lat="45.97155" lon="4.79279">
        <ele>204</ele>
        <time>2018-05-23T08:44:08Z</time>
      </trkpt>
      <trkpt lat="45.97157" lon="4.79284">
        <ele>204</ele>
        <time>2018-05-23T08:44:09Z</time>
      </trkpt>
      <trkpt lat="45.9716" lon="4.79291">
        <ele>204</ele>
        <time>2018-05-23T08:44:10Z</time>
      </trkpt>
      <trkpt lat="45.97162" lon="4.79298">
        <ele>204</ele>
        <time>2018-05-23T08:44:11Z</time>
      </trkpt>
      <trkpt lat="45.97165" lon="4.79305">
        <ele>204</ele>
        <time>2018-05-23T08:44:12Z</time>
      </trkpt>
      <trkpt lat="45.97167" lon="4.79311">
        <ele>207</ele>
        <time>2018-05-23T08:44:13Z</time>
      </trkpt>
      <trkpt lat="45.9717" lon="4.79318">
        <ele>207</ele>
        <time>2018-05-23T08:44:14Z</time>
      </trkpt>
      <trkpt lat="45.97172" lon="4.79324">
        <ele>206</ele>
        <time>2018-05-23T08:44:15Z</time>
      </trkpt>
      <trkpt lat="45.97175" lon="4.7933">
        <ele>206</ele>
        <time>2018-05-23T08:44:16Z</time>
      </trkpt>
      <trkpt lat="45.97178" lon="4.79336">
        <ele>206</ele>
        <time>2018-05-23T08:44:17Z</time>
      </trkpt>
      <trkpt lat="45.97181" lon="4.79341">
        <ele>206</ele>
        <time>2018-05-23T08:44:18Z</time>
      </trkpt>
      <trkpt lat="45.97183" lon="4.79346">
        <ele>207</ele>
        <time>2018-05-23T08:44:19Z</time>
      </trkpt>
      <trkpt lat="45.97185" lon="4.79352">
        <ele>207</ele>
        <time>2018-05-23T08:44:20Z</time>
      </trkpt>
      <trkpt lat="45.97189" lon="4.79357">
        <ele>207</ele>
        <time>2018-05-23T08:44:21Z</time>
      </trkpt>
      <trkpt lat="45.97193" lon="4.79361">
        <ele>207</ele>
        <time>2018-05-23T08:44:22Z</time>
      </trkpt>
      <trkpt lat="45.97197" lon="4.79366">
        <ele>207</ele>
        <time>2018-05-23T08:44:23Z</time>
      </trkpt>
      <trkpt lat="45.972" lon="4.79373">
        <ele>207</ele>
        <time>2018-05-23T08:44:24Z</time>
      </trkpt>
      <trkpt lat="45.97202" lon="4.79379">
        <ele>208</ele>
        <time>2018-05-23T08:44:25Z</time>
      </trkpt>
      <trkpt lat="45.97204" lon="4.79386">
        <ele>208</ele>
        <time>2018-05-23T08:44:26Z</time>
      </trkpt>
      <trkpt lat="45.97206" lon="4.79392">
        <ele>208</ele>
        <time>2018-05-23T08:44:27Z</time>
      </trkpt>
      <trkpt lat="45.97208" lon="4.79399">
        <ele>208</ele>
        <time>2018-05-23T08:44:28Z</time>
      </trkpt>
      <trkpt lat="45.9721" lon="4.79406">
        <ele>208</ele>
        <time>2018-05-23T08:44:29Z</time>
      </trkpt>
      <trkpt lat="45.97213" lon="4.79411">
        <ele>208</ele>
        <time>2018-05-23T08:44:30Z</time>
      </trkpt>
      <trkpt lat="45.97215" lon="4.79418">
        <ele>208</ele>
        <time>2018-05-23T08:44:31Z</time>
      </trkpt>
      <trkpt lat="45.97217" lon="4.79424">
        <ele>208</ele>
        <time>2018-05-23T08:44:32Z</time>
      </trkpt>
      <trkpt lat="45.97222" lon="4.79434">
        <ele>209</ele>
        <time>2018-05-23T08:44:34Z</time>
      </trkpt>
      <trkpt lat="45.97224" lon="4.7944">
        <ele>209</ele>
        <time>2018-05-23T08:44:35Z</time>
      </trkpt>
      <trkpt lat="45.97227" lon="4.79446">
        <ele>209</ele>
        <time>2018-05-23T08:44:36Z</time>
      </trkpt>
      <trkpt lat="45.9723" lon="4.79451">
        <ele>209</ele>
        <time>2018-05-23T08:44:37Z</time>
      </trkpt>
      <trkpt lat="45.97234" lon="4.79463">
        <ele>209</ele>
        <time>2018-05-23T08:44:39Z</time>
      </trkpt>
      <trkpt lat="45.97237" lon="4.79466">
        <ele>209</ele>
        <time>2018-05-23T08:44:40Z</time>
      </trkpt>
      <trkpt lat="45.97238" lon="4.79473">
        <ele>209</ele>
        <time>2018-05-23T08:44:41Z</time>
      </trkpt>
      <trkpt lat="45.97239" lon="4.7948">
        <ele>209</ele>
        <time>2018-05-23T08:44:42Z</time>
      </trkpt>
      <trkpt lat="45.97241" lon="4.79491">
        <ele>210</ele>
        <time>2018-05-23T08:44:44Z</time>
      </trkpt>
      <trkpt lat="45.97242" lon="4.79496">
        <ele>210</ele>
        <time>2018-05-23T08:44:45Z</time>
      </trkpt>
      <trkpt lat="45.97245" lon="4.79507">
        <ele>210</ele>
        <time>2018-05-23T08:44:47Z</time>
      </trkpt>
      <trkpt lat="45.97246" lon="4.79513">
        <ele>210</ele>
        <time>2018-05-23T08:44:48Z</time>
      </trkpt>
      <trkpt lat="45.97248" lon="4.79525">
        <ele>210</ele>
        <time>2018-05-23T08:44:50Z</time>
      </trkpt>
      <trkpt lat="45.97249" lon="4.79531">
        <ele>210</ele>
        <time>2018-05-23T08:44:51Z</time>
      </trkpt>
      <trkpt lat="45.9725" lon="4.79538">
        <ele>210</ele>
        <time>2018-05-23T08:44:52Z</time>
      </trkpt>
      <trkpt lat="45.97251" lon="4.79544">
        <ele>214</ele>
        <time>2018-05-23T08:44:53Z</time>
      </trkpt>
      <trkpt lat="45.97252" lon="4.79551">
        <ele>214</ele>
        <time>2018-05-23T08:44:54Z</time>
      </trkpt>
      <trkpt lat="45.97252" lon="4.79557">
        <ele>213</ele>
        <time>2018-05-23T08:44:55Z</time>
      </trkpt>
      <trkpt lat="45.97254" lon="4.79568">
        <ele>213</ele>
        <time>2018-05-23T08:44:57Z</time>
      </trkpt>
      <trkpt lat="45.97255" lon="4.79573">
        <ele>212</ele>
        <time>2018-05-23T08:44:58Z</time>
      </trkpt>
      <trkpt lat="45.97255" lon="4.7958">
        <ele>211</ele>
        <time>2018-05-23T08:44:59Z</time>
      </trkpt>
      <trkpt lat="45.97254" lon="4.79587">
        <ele>211</ele>
        <time>2018-05-23T08:45:00Z</time>
      </trkpt>
      <trkpt lat="45.97254" lon="4.79595">
        <ele>212</ele>
        <time>2018-05-23T08:45:01Z</time>
      </trkpt>
      <trkpt lat="45.97254" lon="4.79601">
        <ele>212</ele>
        <time>2018-05-23T08:45:02Z</time>
      </trkpt>
      <trkpt lat="45.97253" lon="4.79608">
        <ele>213</ele>
        <time>2018-05-23T08:45:03Z</time>
      </trkpt>
      <trkpt lat="45.97253" lon="4.79615">
        <ele>213</ele>
        <time>2018-05-23T08:45:04Z</time>
      </trkpt>
      <trkpt lat="45.97253" lon="4.79621">
        <ele>213</ele>
        <time>2018-05-23T08:45:05Z</time>
      </trkpt>
      <trkpt lat="45.97254" lon="4.79628">
        <ele>213</ele>
        <time>2018-05-23T08:45:06Z</time>
      </trkpt>
      <trkpt lat="45.97254" lon="4.79635">
        <ele>213</ele>
        <time>2018-05-23T08:45:07Z</time>
      </trkpt>
      <trkpt lat="45.97254" lon="4.79642">
        <ele>212</ele>
        <time>2018-05-23T08:45:08Z</time>
      </trkpt>
      <trkpt lat="45.97253" lon="4.7965">
        <ele>211</ele>
        <time>2018-05-23T08:45:09Z</time>
      </trkpt>
      <trkpt lat="45.97253" lon="4.79656">
        <ele>211</ele>
        <time>2018-05-23T08:45:10Z</time>
      </trkpt>
      <trkpt lat="45.9725" lon="4.79664">
        <ele>209</ele>
        <time>2018-05-23T08:45:11Z</time>
      </trkpt>
      <trkpt lat="45.97249" lon="4.79672">
        <ele>208</ele>
        <time>2018-05-23T08:45:12Z</time>
      </trkpt>
      <trkpt lat="45.97247" lon="4.79679">
        <ele>208</ele>
        <time>2018-05-23T08:45:13Z</time>
      </trkpt>
      <trkpt lat="45.97247" lon="4.79686">
        <ele>208</ele>
        <time>2018-05-23T08:45:14Z</time>
      </trkpt>
      <trkpt lat="45.97245" lon="4.79698">
        <ele>208</ele>
        <time>2018-05-23T08:45:16Z</time>
      </trkpt>
      <trkpt lat="45.97245" lon="4.79705">
        <ele>208</ele>
        <time>2018-05-23T08:45:17Z</time>
      </trkpt>
      <trkpt lat="45.97245" lon="4.79711">
        <ele>209</ele>
        <time>2018-05-23T08:45:18Z</time>
      </trkpt>
      <trkpt lat="45.97244" lon="4.7972">
        <ele>209</ele>
        <time>2018-05-23T08:45:19Z</time>
      </trkpt>
      <trkpt lat="45.97244" lon="4.79726">
        <ele>209</ele>
        <time>2018-05-23T08:45:20Z</time>
      </trkpt>
      <trkpt lat="45.97243" lon="4.79734">
        <ele>209</ele>
        <time>2018-05-23T08:45:21Z</time>
      </trkpt>
      <trkpt lat="45.97241" lon="4.7974">
        <ele>209</ele>
        <time>2018-05-23T08:45:22Z</time>
      </trkpt>
      <trkpt lat="45.97241" lon="4.79747">
        <ele>209</ele>
        <time>2018-05-23T08:45:23Z</time>
      </trkpt>
      <trkpt lat="45.9724" lon="4.79754">
        <ele>209</ele>
        <time>2018-05-23T08:45:24Z</time>
      </trkpt>
      <trkpt lat="45.97239" lon="4.79761">
        <ele>209</ele>
        <time>2018-05-23T08:45:25Z</time>
      </trkpt>
      <trkpt lat="45.9724" lon="4.79773">
        <ele>210</ele>
        <time>2018-05-23T08:45:27Z</time>
      </trkpt>
      <trkpt lat="45.9724" lon="4.79779">
        <ele>210</ele>
        <time>2018-05-23T08:45:28Z</time>
      </trkpt>
      <trkpt lat="45.97239" lon="4.79791">
        <ele>210</ele>
        <time>2018-05-23T08:45:30Z</time>
      </trkpt>
      <trkpt lat="45.97239" lon="4.79797">
        <ele>210</ele>
        <time>2018-05-23T08:45:31Z</time>
      </trkpt>
      <trkpt lat="45.97238" lon="4.79805">
        <ele>210</ele>
        <time>2018-05-23T08:45:32Z</time>
      </trkpt>
      <trkpt lat="45.97238" lon="4.79811">
        <ele>210</ele>
        <time>2018-05-23T08:45:33Z</time>
      </trkpt>
      <trkpt lat="45.97238" lon="4.7982">
        <ele>211</ele>
        <time>2018-05-23T08:45:34Z</time>
      </trkpt>
      <trkpt lat="45.97237" lon="4.79826">
        <ele>211</ele>
        <time>2018-05-23T08:45:35Z</time>
      </trkpt>
      <trkpt lat="45.97236" lon="4.79836">
        <ele>211</ele>
        <time>2018-05-23T08:45:37Z</time>
      </trkpt>
      <trkpt lat="45.97236" lon="4.79842">
        <ele>211</ele>
        <time>2018-05-23T08:45:38Z</time>
      </trkpt>
      <trkpt lat="45.97236" lon="4.79855">
        <ele>211</ele>
        <time>2018-05-23T08:45:40Z</time>
      </trkpt>
      <trkpt lat="45.97237" lon="4.79862">
        <ele>211</ele>
        <time>2018-05-23T08:45:41Z</time>
      </trkpt>
      <trkpt lat="45.9724" lon="4.79872">
        <ele>211</ele>
        <time>2018-05-23T08:45:43Z</time>
      </trkpt>
      <trkpt lat="45.97241" lon="4.79876">
        <ele>211</ele>
        <time>2018-05-23T08:45:44Z</time>
      </trkpt>
      <trkpt lat="45.97244" lon="4.79885">
        <ele>211</ele>
        <time>2018-05-23T08:45:47Z</time>
      </trkpt>
      <trkpt lat="45.97245" lon="4.79889">
        <ele>211</ele>
        <time>2018-05-23T08:45:48Z</time>
      </trkpt>
      <trkpt lat="45.97248" lon="4.799">
        <ele>211</ele>
        <time>2018-05-23T08:45:51Z</time>
      </trkpt>
      <trkpt lat="45.97249" lon="4.79903">
        <ele>212</ele>
        <time>2018-05-23T08:45:52Z</time>
      </trkpt>
      <trkpt lat="45.97252" lon="4.7991">
        <ele>212</ele>
        <time>2018-05-23T08:45:54Z</time>
      </trkpt>
      <trkpt lat="45.97259" lon="4.79918">
        <ele>212</ele>
        <time>2018-05-23T08:45:55Z</time>
      </trkpt>
      <trkpt lat="45.97267" lon="4.79918">
        <ele>212</ele>
        <time>2018-05-23T08:45:57Z</time>
      </trkpt>
      <trkpt lat="45.97271" lon="4.79917">
        <ele>212</ele>
        <time>2018-05-23T08:45:58Z</time>
      </trkpt>
      <trkpt lat="45.97279" lon="4.79915">
        <ele>213</ele>
        <time>2018-05-23T08:46:00Z</time>
      </trkpt>
      <trkpt lat="45.97283" lon="4.79914">
        <ele>213</ele>
        <time>2018-05-23T08:46:01Z</time>
      </trkpt>
      <trkpt lat="45.97291" lon="4.79913">
        <ele>213</ele>
        <time>2018-05-23T08:46:03Z</time>
      </trkpt>
      <trkpt lat="45.97295" lon="4.79912">
        <ele>213</ele>
        <time>2018-05-23T08:46:04Z</time>
      </trkpt>
      <trkpt lat="45.97304" lon="4.79911">
        <ele>213</ele>
        <time>2018-05-23T08:46:06Z</time>
      </trkpt>
      <trkpt lat="45.97308" lon="4.7991">
        <ele>213</ele>
        <time>2018-05-23T08:46:07Z</time>
      </trkpt>
      <trkpt lat="45.97316" lon="4.79908">
        <ele>213</ele>
        <time>2018-05-23T08:46:09Z</time>
      </trkpt>
      <trkpt lat="45.9732" lon="4.79908">
        <ele>213</ele>
        <time>2018-05-23T08:46:10Z</time>
      </trkpt>
      <trkpt lat="45.97329" lon="4.79906">
        <ele>213</ele>
        <time>2018-05-23T08:46:12Z</time>
      </trkpt>
      <trkpt lat="45.97333" lon="4.79905">
        <ele>213</ele>
        <time>2018-05-23T08:46:13Z</time>
      </trkpt>
      <trkpt lat="45.97341" lon="4.79904">
        <ele>215</ele>
        <time>2018-05-23T08:46:15Z</time>
      </trkpt>
      <trkpt lat="45.97345" lon="4.79903">
        <ele>215</ele>
        <time>2018-05-23T08:46:16Z</time>
      </trkpt>
      <trkpt lat="45.97353" lon="4.79903">
        <ele>216</ele>
        <time>2018-05-23T08:46:18Z</time>
      </trkpt>
      <trkpt lat="45.97355" lon="4.79903">
        <ele>216</ele>
        <time>2018-05-23T08:46:19Z</time>
      </trkpt>
      <trkpt lat="45.97362" lon="4.79904">
        <ele>216</ele>
        <time>2018-05-23T08:46:20Z</time>
      </trkpt>
      <trkpt lat="45.97366" lon="4.79902">
        <ele>216</ele>
        <time>2018-05-23T08:46:21Z</time>
      </trkpt>
      <trkpt lat="45.9737" lon="4.79901">
        <ele>217</ele>
        <time>2018-05-23T08:46:22Z</time>
      </trkpt>
      <trkpt lat="45.97375" lon="4.799">
        <ele>217</ele>
        <time>2018-05-23T08:46:23Z</time>
      </trkpt>
      <trkpt lat="45.97383" lon="4.79898">
        <ele>217</ele>
        <time>2018-05-23T08:46:25Z</time>
      </trkpt>
      <trkpt lat="45.97384" lon="4.79898">
        <ele>217</ele>
        <time>2018-05-23T08:46:26Z</time>
      </trkpt>
      <trkpt lat="45.97393" lon="4.79899">
        <ele>217</ele>
        <time>2018-05-23T08:46:28Z</time>
      </trkpt>
      <trkpt lat="45.97395" lon="4.799">
        <ele>217</ele>
        <time>2018-05-23T08:46:29Z</time>
      </trkpt>
      <trkpt lat="45.97403" lon="4.799">
        <ele>217</ele>
        <time>2018-05-23T08:46:31Z</time>
      </trkpt>
      <trkpt lat="45.97406" lon="4.799">
        <ele>217</ele>
        <time>2018-05-23T08:46:32Z</time>
      </trkpt>
      <trkpt lat="45.97414" lon="4.799">
        <ele>217</ele>
        <time>2018-05-23T08:46:34Z</time>
      </trkpt>
      <trkpt lat="45.97416" lon="4.79899">
        <ele>217</ele>
        <time>2018-05-23T08:46:35Z</time>
      </trkpt>
      <trkpt lat="45.97421" lon="4.79899">
        <ele>219</ele>
        <time>2018-05-23T08:46:37Z</time>
      </trkpt>
      <trkpt lat="45.97428" lon="4.799">
        <ele>219</ele>
        <time>2018-05-23T08:46:38Z</time>
      </trkpt>
      <trkpt lat="45.97437" lon="4.79899">
        <ele>219</ele>
        <time>2018-05-23T08:46:41Z</time>
      </trkpt>
      <trkpt lat="45.97442" lon="4.79899">
        <ele>220</ele>
        <time>2018-05-23T08:46:42Z</time>
      </trkpt>
      <trkpt lat="45.97449" lon="4.79898">
        <ele>220</ele>
        <time>2018-05-23T08:46:44Z</time>
      </trkpt>
      <trkpt lat="45.97453" lon="4.79897">
        <ele>220</ele>
        <time>2018-05-23T08:46:45Z</time>
      </trkpt>
      <trkpt lat="45.97461" lon="4.79896">
        <ele>220</ele>
        <time>2018-05-23T08:46:47Z</time>
      </trkpt>
      <trkpt lat="45.97465" lon="4.79896">
        <ele>220</ele>
        <time>2018-05-23T08:46:48Z</time>
      </trkpt>
      <trkpt lat="45.97473" lon="4.79895">
        <ele>221</ele>
        <time>2018-05-23T08:46:50Z</time>
      </trkpt>
      <trkpt lat="45.97477" lon="4.79895">
        <ele>221</ele>
        <time>2018-05-23T08:46:51Z</time>
      </trkpt>
      <trkpt lat="45.97483" lon="4.79894">
        <ele>221</ele>
        <time>2018-05-23T08:46:54Z</time>
      </trkpt>
      <trkpt lat="45.97486" lon="4.79894">
        <ele>221</ele>
        <time>2018-05-23T08:46:55Z</time>
      </trkpt>
      <trkpt lat="45.97492" lon="4.79894">
        <ele>221</ele>
        <time>2018-05-23T08:46:57Z</time>
      </trkpt>
      <trkpt lat="45.97496" lon="4.79894">
        <ele>221</ele>
        <time>2018-05-23T08:46:58Z</time>
      </trkpt>
      <trkpt lat="45.97502" lon="4.79894">
        <ele>221</ele>
        <time>2018-05-23T08:47:00Z</time>
      </trkpt>
      <trkpt lat="45.97505" lon="4.79893">
        <ele>221</ele>
        <time>2018-05-23T08:47:01Z</time>
      </trkpt>
      <trkpt lat="45.97513" lon="4.79893">
        <ele>221</ele>
        <time>2018-05-23T08:47:04Z</time>
      </trkpt>
      <trkpt lat="45.97516" lon="4.79892">
        <ele>221</ele>
        <time>2018-05-23T08:47:05Z</time>
      </trkpt>
      <trkpt lat="45.97525" lon="4.79891">
        <ele>221</ele>
        <time>2018-05-23T08:47:08Z</time>
      </trkpt>
      <trkpt lat="45.97528" lon="4.79891">
        <ele>221</ele>
        <time>2018-05-23T08:47:09Z</time>
      </trkpt>
      <trkpt lat="45.97537" lon="4.79891">
        <ele>221</ele>
        <time>2018-05-23T08:47:12Z</time>
      </trkpt>
      <trkpt lat="45.9754" lon="4.7989">
        <ele>221</ele>
        <time>2018-05-23T08:47:13Z</time>
      </trkpt>
      <trkpt lat="45.97548" lon="4.79889">
        <ele>221</ele>
        <time>2018-05-23T08:47:16Z</time>
      </trkpt>
      <trkpt lat="45.97551" lon="4.79888">
        <ele>221</ele>
        <time>2018-05-23T08:47:17Z</time>
      </trkpt>
      <trkpt lat="45.97557" lon="4.79886">
        <ele>221</ele>
        <time>2018-05-23T08:47:19Z</time>
      </trkpt>
      <trkpt lat="45.9756" lon="4.79885">
        <ele>221</ele>
        <time>2018-05-23T08:47:20Z</time>
      </trkpt>
      <trkpt lat="45.97567" lon="4.79883">
        <ele>221</ele>
        <time>2018-05-23T08:47:22Z</time>
      </trkpt>
      <trkpt lat="45.9757" lon="4.79882">
        <ele>221</ele>
        <time>2018-05-23T08:47:23Z</time>
      </trkpt>
      <trkpt lat="45.97573" lon="4.79881">
        <ele>221</ele>
        <time>2018-05-23T08:47:24Z</time>
      </trkpt>
      <trkpt lat="45.97582" lon="4.79878">
        <ele>221</ele>
        <time>2018-05-23T08:47:25Z</time>
      </trkpt>
      <trkpt lat="45.97589" lon="4.79875">
        <ele>221</ele>
        <time>2018-05-23T08:47:28Z</time>
      </trkpt>
      <trkpt lat="45.97591" lon="4.79874">
        <ele>221</ele>
        <time>2018-05-23T08:47:29Z</time>
      </trkpt>
      <trkpt lat="45.97599" lon="4.7987">
        <ele>221</ele>
        <time>2018-05-23T08:47:32Z</time>
      </trkpt>
      <trkpt lat="45.97607" lon="4.79867">
        <ele>221</ele>
        <time>2018-05-23T08:47:33Z</time>
      </trkpt>
      <trkpt lat="45.97614" lon="4.79863">
        <ele>221</ele>
        <time>2018-05-23T08:47:35Z</time>
      </trkpt>
      <trkpt lat="45.97617" lon="4.79862">
        <ele>221</ele>
        <time>2018-05-23T08:47:36Z</time>
      </trkpt>
      <trkpt lat="45.97624" lon="4.79859">
        <ele>221</ele>
        <time>2018-05-23T08:47:38Z</time>
      </trkpt>
      <trkpt lat="45.97627" lon="4.79858">
        <ele>221</ele>
        <time>2018-05-23T08:47:39Z</time>
      </trkpt>
      <trkpt lat="45.97635" lon="4.79856">
        <ele>221</ele>
        <time>2018-05-23T08:47:41Z</time>
      </trkpt>
      <trkpt lat="45.97639" lon="4.79855">
        <ele>221</ele>
        <time>2018-05-23T08:47:42Z</time>
      </trkpt>
      <trkpt lat="45.97646" lon="4.79852">
        <ele>221</ele>
        <time>2018-05-23T08:47:44Z</time>
      </trkpt>
      <trkpt lat="45.97651" lon="4.7985">
        <ele>221</ele>
        <time>2018-05-23T08:47:45Z</time>
      </trkpt>
      <trkpt lat="45.97659" lon="4.79848">
        <ele>221</ele>
        <time>2018-05-23T08:47:47Z</time>
      </trkpt>
      <trkpt lat="45.97663" lon="4.79847">
        <ele>221</ele>
        <time>2018-05-23T08:47:48Z</time>
      </trkpt>
      <trkpt lat="45.97671" lon="4.79845">
        <ele>221</ele>
        <time>2018-05-23T08:47:50Z</time>
      </trkpt>
      <trkpt lat="45.97674" lon="4.79844">
        <ele>221</ele>
        <time>2018-05-23T08:47:51Z</time>
      </trkpt>
      <trkpt lat="45.97682" lon="4.79843">
        <ele>221</ele>
        <time>2018-05-23T08:47:53Z</time>
      </trkpt>
      <trkpt lat="45.97686" lon="4.79842">
        <ele>221</ele>
        <time>2018-05-23T08:47:54Z</time>
      </trkpt>
      <trkpt lat="45.97694" lon="4.7984">
        <ele>220</ele>
        <time>2018-05-23T08:47:56Z</time>
      </trkpt>
      <trkpt lat="45.97698" lon="4.79839">
        <ele>220</ele>
        <time>2018-05-23T08:47:57Z</time>
      </trkpt>
      <trkpt lat="45.97706" lon="4.79838">
        <ele>220</ele>
        <time>2018-05-23T08:47:59Z</time>
      </trkpt>
      <trkpt lat="45.97711" lon="4.79837">
        <ele>220</ele>
        <time>2018-05-23T08:48:00Z</time>
      </trkpt>
      <trkpt lat="45.97716" lon="4.79836">
        <ele>220</ele>
        <time>2018-05-23T08:48:01Z</time>
      </trkpt>
      <trkpt lat="45.9772" lon="4.79835">
        <ele>220</ele>
        <time>2018-05-23T08:48:02Z</time>
      </trkpt>
      <trkpt lat="45.97725" lon="4.79833">
        <ele>223</ele>
        <time>2018-05-23T08:48:03Z</time>
      </trkpt>
      <trkpt lat="45.9773" lon="4.79833">
        <ele>223</ele>
        <time>2018-05-23T08:48:04Z</time>
      </trkpt>
      <trkpt lat="45.97739" lon="4.79831">
        <ele>223</ele>
        <time>2018-05-23T08:48:06Z</time>
      </trkpt>
      <trkpt lat="45.97744" lon="4.79829">
        <ele>222</ele>
        <time>2018-05-23T08:48:07Z</time>
      </trkpt>
      <trkpt lat="45.97749" lon="4.79826">
        <ele>222</ele>
        <time>2018-05-23T08:48:08Z</time>
      </trkpt>
      <trkpt lat="45.97753" lon="4.79825">
        <ele>222</ele>
        <time>2018-05-23T08:48:09Z</time>
      </trkpt>
      <trkpt lat="45.97758" lon="4.79822">
        <ele>223</ele>
        <time>2018-05-23T08:48:10Z</time>
      </trkpt>
      <trkpt lat="45.97763" lon="4.79821">
        <ele>223</ele>
        <time>2018-05-23T08:48:11Z</time>
      </trkpt>
      <trkpt lat="45.97768" lon="4.7982">
        <ele>223</ele>
        <time>2018-05-23T08:48:12Z</time>
      </trkpt>
      <trkpt lat="45.97772" lon="4.79821">
        <ele>223</ele>
        <time>2018-05-23T08:48:13Z</time>
      </trkpt>
      <trkpt lat="45.97776" lon="4.7982">
        <ele>223</ele>
        <time>2018-05-23T08:48:14Z</time>
      </trkpt>
      <trkpt lat="45.97781" lon="4.79819">
        <ele>223</ele>
        <time>2018-05-23T08:48:15Z</time>
      </trkpt>
      <trkpt lat="45.97785" lon="4.79817">
        <ele>223</ele>
        <time>2018-05-23T08:48:16Z</time>
      </trkpt>
      <trkpt lat="45.97792" lon="4.79815">
        <ele>223</ele>
        <time>2018-05-23T08:48:17Z</time>
      </trkpt>
      <trkpt lat="45.97797" lon="4.79814">
        <ele>223</ele>
        <time>2018-05-23T08:48:18Z</time>
      </trkpt>
      <trkpt lat="45.97803" lon="4.79812">
        <ele>223</ele>
        <time>2018-05-23T08:48:19Z</time>
      </trkpt>
      <trkpt lat="45.97809" lon="4.79811">
        <ele>223</ele>
        <time>2018-05-23T08:48:20Z</time>
      </trkpt>
      <trkpt lat="45.97814" lon="4.79811">
        <ele>223</ele>
        <time>2018-05-23T08:48:21Z</time>
      </trkpt>
      <trkpt lat="45.9782" lon="4.79811">
        <ele>223</ele>
        <time>2018-05-23T08:48:22Z</time>
      </trkpt>
      <trkpt lat="45.97825" lon="4.7981">
        <ele>223</ele>
        <time>2018-05-23T08:48:23Z</time>
      </trkpt>
      <trkpt lat="45.97833" lon="4.79809">
        <ele>223</ele>
        <time>2018-05-23T08:48:25Z</time>
      </trkpt>
      <trkpt lat="45.97837" lon="4.79807">
        <ele>224</ele>
        <time>2018-05-23T08:48:26Z</time>
      </trkpt>
      <trkpt lat="45.97846" lon="4.79807">
        <ele>224</ele>
        <time>2018-05-23T08:48:28Z</time>
      </trkpt>
      <trkpt lat="45.97851" lon="4.79805">
        <ele>224</ele>
        <time>2018-05-23T08:48:29Z</time>
      </trkpt>
      <trkpt lat="45.97856" lon="4.79804">
        <ele>224</ele>
        <time>2018-05-23T08:48:30Z</time>
      </trkpt>
      <trkpt lat="45.97861" lon="4.79803">
        <ele>224</ele>
        <time>2018-05-23T08:48:31Z</time>
      </trkpt>
      <trkpt lat="45.97866" lon="4.79805">
        <ele>224</ele>
        <time>2018-05-23T08:48:32Z</time>
      </trkpt>
      <trkpt lat="45.9787" lon="4.79806">
        <ele>224</ele>
        <time>2018-05-23T08:48:33Z</time>
      </trkpt>
      <trkpt lat="45.97875" lon="4.79805">
        <ele>224</ele>
        <time>2018-05-23T08:48:34Z</time>
      </trkpt>
      <trkpt lat="45.9788" lon="4.79805">
        <ele>224</ele>
        <time>2018-05-23T08:48:35Z</time>
      </trkpt>
      <trkpt lat="45.97885" lon="4.79804">
        <ele>224</ele>
        <time>2018-05-23T08:48:36Z</time>
      </trkpt>
      <trkpt lat="45.9789" lon="4.79802">
        <ele>224</ele>
        <time>2018-05-23T08:48:37Z</time>
      </trkpt>
      <trkpt lat="45.97896" lon="4.798">
        <ele>224</ele>
        <time>2018-05-23T08:48:38Z</time>
      </trkpt>
      <trkpt lat="45.97902" lon="4.79799">
        <ele>224</ele>
        <time>2018-05-23T08:48:39Z</time>
      </trkpt>
      <trkpt lat="45.97907" lon="4.79798">
        <ele>224</ele>
        <time>2018-05-23T08:48:40Z</time>
      </trkpt>
      <trkpt lat="45.97912" lon="4.79797">
        <ele>224</ele>
        <time>2018-05-23T08:48:41Z</time>
      </trkpt>
      <trkpt lat="45.97917" lon="4.79797">
        <ele>224</ele>
        <time>2018-05-23T08:48:42Z</time>
      </trkpt>
      <trkpt lat="45.97922" lon="4.79796">
        <ele>224</ele>
        <time>2018-05-23T08:48:43Z</time>
      </trkpt>
      <trkpt lat="45.97928" lon="4.79794">
        <ele>224</ele>
        <time>2018-05-23T08:48:44Z</time>
      </trkpt>
      <trkpt lat="45.97932" lon="4.79793">
        <ele>224</ele>
        <time>2018-05-23T08:48:45Z</time>
      </trkpt>
      <trkpt lat="45.97939" lon="4.79792">
        <ele>224</ele>
        <time>2018-05-23T08:48:47Z</time>
      </trkpt>
      <trkpt lat="45.97944" lon="4.79792">
        <ele>224</ele>
        <time>2018-05-23T08:48:48Z</time>
      </trkpt>
      <trkpt lat="45.97949" lon="4.79794">
        <ele>224</ele>
        <time>2018-05-23T08:48:49Z</time>
      </trkpt>
      <trkpt lat="45.97954" lon="4.79791">
        <ele>224</ele>
        <time>2018-05-23T08:48:50Z</time>
      </trkpt>
      <trkpt lat="45.97959" lon="4.7979">
        <ele>224</ele>
        <time>2018-05-23T08:48:51Z</time>
      </trkpt>
      <trkpt lat="45.97963" lon="4.79791">
        <ele>224</ele>
        <time>2018-05-23T08:48:52Z</time>
      </trkpt>
      <trkpt lat="45.97972" lon="4.79792">
        <ele>224</ele>
        <time>2018-05-23T08:48:54Z</time>
      </trkpt>
      <trkpt lat="45.97977" lon="4.79791">
        <ele>224</ele>
        <time>2018-05-23T08:48:55Z</time>
      </trkpt>
      <trkpt lat="45.97982" lon="4.7979">
        <ele>224</ele>
        <time>2018-05-23T08:48:56Z</time>
      </trkpt>
      <trkpt lat="45.97987" lon="4.79791">
        <ele>224</ele>
        <time>2018-05-23T08:48:57Z</time>
      </trkpt>
      <trkpt lat="45.97993" lon="4.7979">
        <ele>224</ele>
        <time>2018-05-23T08:48:58Z</time>
      </trkpt>
      <trkpt lat="45.97998" lon="4.7979">
        <ele>224</ele>
        <time>2018-05-23T08:48:59Z</time>
      </trkpt>
      <trkpt lat="45.98003" lon="4.79789">
        <ele>223</ele>
        <time>2018-05-23T08:49:00Z</time>
      </trkpt>
      <trkpt lat="45.98009" lon="4.79786">
        <ele>223</ele>
        <time>2018-05-23T08:49:01Z</time>
      </trkpt>
      <trkpt lat="45.98015" lon="4.79785">
        <ele>223</ele>
        <time>2018-05-23T08:49:02Z</time>
      </trkpt>
      <trkpt lat="45.9802" lon="4.79784">
        <ele>223</ele>
        <time>2018-05-23T08:49:03Z</time>
      </trkpt>
      <trkpt lat="45.98024" lon="4.79784">
        <ele>223</ele>
        <time>2018-05-23T08:49:04Z</time>
      </trkpt>
      <trkpt lat="45.9803" lon="4.79784">
        <ele>223</ele>
        <time>2018-05-23T08:49:05Z</time>
      </trkpt>
      <trkpt lat="45.98036" lon="4.79784">
        <ele>223</ele>
        <time>2018-05-23T08:49:06Z</time>
      </trkpt>
      <trkpt lat="45.98042" lon="4.79783">
        <ele>223</ele>
        <time>2018-05-23T08:49:07Z</time>
      </trkpt>
      <trkpt lat="45.98048" lon="4.79783">
        <ele>223</ele>
        <time>2018-05-23T08:49:08Z</time>
      </trkpt>
      <trkpt lat="45.98053" lon="4.79781">
        <ele>223</ele>
        <time>2018-05-23T08:49:09Z</time>
      </trkpt>
      <trkpt lat="45.98057" lon="4.79779">
        <ele>223</ele>
        <time>2018-05-23T08:49:10Z</time>
      </trkpt>
      <trkpt lat="45.98064" lon="4.79777">
        <ele>223</ele>
        <time>2018-05-23T08:49:11Z</time>
      </trkpt>
      <trkpt lat="45.98068" lon="4.79777">
        <ele>223</ele>
        <time>2018-05-23T08:49:12Z</time>
      </trkpt>
      <trkpt lat="45.98073" lon="4.79775">
        <ele>223</ele>
        <time>2018-05-23T08:49:13Z</time>
      </trkpt>
      <trkpt lat="45.98078" lon="4.79775">
        <ele>223</ele>
        <time>2018-05-23T08:49:14Z</time>
      </trkpt>
      <trkpt lat="45.98082" lon="4.79774">
        <ele>223</ele>
        <time>2018-05-23T08:49:15Z</time>
      </trkpt>
      <trkpt lat="45.98088" lon="4.79773">
        <ele>223</ele>
        <time>2018-05-23T08:49:16Z</time>
      </trkpt>
      <trkpt lat="45.98093" lon="4.79772">
        <ele>223</ele>
        <time>2018-05-23T08:49:17Z</time>
      </trkpt>
      <trkpt lat="45.98098" lon="4.79771">
        <ele>223</ele>
        <time>2018-05-23T08:49:18Z</time>
      </trkpt>
      <trkpt lat="45.98102" lon="4.79768">
        <ele>224</ele>
        <time>2018-05-23T08:49:19Z</time>
      </trkpt>
      <trkpt lat="45.98107" lon="4.79767">
        <ele>224</ele>
        <time>2018-05-23T08:49:20Z</time>
      </trkpt>
      <trkpt lat="45.98111" lon="4.79767">
        <ele>224</ele>
        <time>2018-05-23T08:49:21Z</time>
      </trkpt>
      <trkpt lat="45.98115" lon="4.79763">
        <ele>224</ele>
        <time>2018-05-23T08:49:22Z</time>
      </trkpt>
      <trkpt lat="45.98121" lon="4.79763">
        <ele>224</ele>
        <time>2018-05-23T08:49:23Z</time>
      </trkpt>
      <trkpt lat="45.9813" lon="4.79764">
        <ele>224</ele>
        <time>2018-05-23T08:49:25Z</time>
      </trkpt>
      <trkpt lat="45.98134" lon="4.79763">
        <ele>224</ele>
        <time>2018-05-23T08:49:26Z</time>
      </trkpt>
      <trkpt lat="45.98141" lon="4.79765">
        <ele>224</ele>
        <time>2018-05-23T08:49:28Z</time>
      </trkpt>
      <trkpt lat="45.98145" lon="4.79765">
        <ele>224</ele>
        <time>2018-05-23T08:49:29Z</time>
      </trkpt>
      <trkpt lat="45.98153" lon="4.79766">
        <ele>225</ele>
        <time>2018-05-23T08:49:31Z</time>
      </trkpt>
      <trkpt lat="45.98154" lon="4.79766">
        <ele>225</ele>
        <time>2018-05-23T08:49:32Z</time>
      </trkpt>
      <trkpt lat="45.98163" lon="4.79771">
        <ele>225</ele>
        <time>2018-05-23T08:49:34Z</time>
      </trkpt>
      <trkpt lat="45.98166" lon="4.79774">
        <ele>225</ele>
        <time>2018-05-23T08:49:35Z</time>
      </trkpt>
      <trkpt lat="45.98171" lon="4.79782">
        <ele>226</ele>
        <time>2018-05-23T08:49:37Z</time>
      </trkpt>
      <trkpt lat="45.98174" lon="4.79787">
        <ele>226</ele>
        <time>2018-05-23T08:49:38Z</time>
      </trkpt>
      <trkpt lat="45.98177" lon="4.79798">
        <ele>226</ele>
        <time>2018-05-23T08:49:40Z</time>
      </trkpt>
      <trkpt lat="45.98179" lon="4.79804">
        <ele>225</ele>
        <time>2018-05-23T08:49:41Z</time>
      </trkpt>
      <trkpt lat="45.9818" lon="4.79813">
        <ele>225</ele>
        <time>2018-05-23T08:49:42Z</time>
      </trkpt>
      <trkpt lat="45.98183" lon="4.79818">
        <ele>225</ele>
        <time>2018-05-23T08:49:43Z</time>
      </trkpt>
      <trkpt lat="45.98185" lon="4.79824">
        <ele>225</ele>
        <time>2018-05-23T08:49:44Z</time>
      </trkpt>
      <trkpt lat="45.98187" lon="4.79831">
        <ele>225</ele>
        <time>2018-05-23T08:49:45Z</time>
      </trkpt>
      <trkpt lat="45.9819" lon="4.79838">
        <ele>225</ele>
        <time>2018-05-23T08:49:46Z</time>
      </trkpt>
      <trkpt lat="45.98193" lon="4.79845">
        <ele>225</ele>
        <time>2018-05-23T08:49:47Z</time>
      </trkpt>
      <trkpt lat="45.98196" lon="4.79853">
        <ele>225</ele>
        <time>2018-05-23T08:49:48Z</time>
      </trkpt>
      <trkpt lat="45.98198" lon="4.79861">
        <ele>225</ele>
        <time>2018-05-23T08:49:49Z</time>
      </trkpt>
      <trkpt lat="45.98201" lon="4.7987">
        <ele>225</ele>
        <time>2018-05-23T08:49:50Z</time>
      </trkpt>
      <trkpt lat="45.98206" lon="4.79877">
        <ele>225</ele>
        <time>2018-05-23T08:49:51Z</time>
      </trkpt>
      <trkpt lat="45.98209" lon="4.79885">
        <ele>225</ele>
        <time>2018-05-23T08:49:52Z</time>
      </trkpt>
      <trkpt lat="45.98212" lon="4.79893">
        <ele>225</ele>
        <time>2018-05-23T08:49:53Z</time>
      </trkpt>
      <trkpt lat="45.98214" lon="4.79901">
        <ele>225</ele>
        <time>2018-05-23T08:49:54Z</time>
      </trkpt>
      <trkpt lat="45.98216" lon="4.79907">
        <ele>225</ele>
        <time>2018-05-23T08:49:55Z</time>
      </trkpt>
      <trkpt lat="45.98219" lon="4.79914">
        <ele>225</ele>
        <time>2018-05-23T08:49:56Z</time>
      </trkpt>
      <trkpt lat="45.98222" lon="4.79921">
        <ele>225</ele>
        <time>2018-05-23T08:49:57Z</time>
      </trkpt>
      <trkpt lat="45.98225" lon="4.79928">
        <ele>225</ele>
        <time>2018-05-23T08:49:58Z</time>
      </trkpt>
      <trkpt lat="45.98227" lon="4.79935">
        <ele>225</ele>
        <time>2018-05-23T08:49:59Z</time>
      </trkpt>
      <trkpt lat="45.98229" lon="4.79942">
        <ele>225</ele>
        <time>2018-05-23T08:50:00Z</time>
      </trkpt>
      <trkpt lat="45.98231" lon="4.79949">
        <ele>225</ele>
        <time>2018-05-23T08:50:01Z</time>
      </trkpt>
      <trkpt lat="45.98233" lon="4.79955">
        <ele>225</ele>
        <time>2018-05-23T08:50:02Z</time>
      </trkpt>
      <trkpt lat="45.98235" lon="4.79963">
        <ele>225</ele>
        <time>2018-05-23T08:50:03Z</time>
      </trkpt>
      <trkpt lat="45.98236" lon="4.7997">
        <ele>225</ele>
        <time>2018-05-23T08:50:04Z</time>
      </trkpt>
      <trkpt lat="45.98239" lon="4.79976">
        <ele>225</ele>
        <time>2018-05-23T08:50:05Z</time>
      </trkpt>
      <trkpt lat="45.98244" lon="4.79986">
        <ele>225</ele>
        <time>2018-05-23T08:50:07Z</time>
      </trkpt>
      <trkpt lat="45.98246" lon="4.79992">
        <ele>226</ele>
        <time>2018-05-23T08:50:08Z</time>
      </trkpt>
      <trkpt lat="45.98249" lon="4.79996">
        <ele>226</ele>
        <time>2018-05-23T08:50:09Z</time>
      </trkpt>
      <trkpt lat="45.98251" lon="4.80004">
        <ele>227</ele>
        <time>2018-05-23T08:50:10Z</time>
      </trkpt>
      <trkpt lat="45.98254" lon="4.8001">
        <ele>227</ele>
        <time>2018-05-23T08:50:11Z</time>
      </trkpt>
      <trkpt lat="45.98256" lon="4.80015">
        <ele>228</ele>
        <time>2018-05-23T08:50:12Z</time>
      </trkpt>
      <trkpt lat="45.98258" lon="4.80021">
        <ele>228</ele>
        <time>2018-05-23T08:50:13Z</time>
      </trkpt>
      <trkpt lat="45.98261" lon="4.80027">
        <ele>228</ele>
        <time>2018-05-23T08:50:14Z</time>
      </trkpt>
      <trkpt lat="45.98263" lon="4.80033">
        <ele>228</ele>
        <time>2018-05-23T08:50:15Z</time>
      </trkpt>
      <trkpt lat="45.98265" lon="4.80039">
        <ele>229</ele>
        <time>2018-05-23T08:50:16Z</time>
      </trkpt>
      <trkpt lat="45.98268" lon="4.80046">
        <ele>229</ele>
        <time>2018-05-23T08:50:17Z</time>
      </trkpt>
      <trkpt lat="45.9827" lon="4.80053">
        <ele>229</ele>
        <time>2018-05-23T08:50:18Z</time>
      </trkpt>
      <trkpt lat="45.98273" lon="4.8006">
        <ele>229</ele>
        <time>2018-05-23T08:50:19Z</time>
      </trkpt>
      <trkpt lat="45.98275" lon="4.80067">
        <ele>229</ele>
        <time>2018-05-23T08:50:20Z</time>
      </trkpt>
      <trkpt lat="45.98277" lon="4.80074">
        <ele>229</ele>
        <time>2018-05-23T08:50:21Z</time>
      </trkpt>
      <trkpt lat="45.98278" lon="4.80081">
        <ele>229</ele>
        <time>2018-05-23T08:50:22Z</time>
      </trkpt>
      <trkpt lat="45.98281" lon="4.80087">
        <ele>228</ele>
        <time>2018-05-23T08:50:23Z</time>
      </trkpt>
      <trkpt lat="45.98283" lon="4.80094">
        <ele>228</ele>
        <time>2018-05-23T08:50:24Z</time>
      </trkpt>
      <trkpt lat="45.98285" lon="4.801">
        <ele>228</ele>
        <time>2018-05-23T08:50:25Z</time>
      </trkpt>
      <trkpt lat="45.98288" lon="4.80105">
        <ele>228</ele>
        <time>2018-05-23T08:50:26Z</time>
      </trkpt>
      <trkpt lat="45.9829" lon="4.80112">
        <ele>228</ele>
        <time>2018-05-23T08:50:27Z</time>
      </trkpt>
      <trkpt lat="45.98292" lon="4.80118">
        <ele>228</ele>
        <time>2018-05-23T08:50:28Z</time>
      </trkpt>
      <trkpt lat="45.98295" lon="4.80124">
        <ele>228</ele>
        <time>2018-05-23T08:50:29Z</time>
      </trkpt>
      <trkpt lat="45.98296" lon="4.80131">
        <ele>228</ele>
        <time>2018-05-23T08:50:30Z</time>
      </trkpt>
      <trkpt lat="45.98298" lon="4.80138">
        <ele>228</ele>
        <time>2018-05-23T08:50:31Z</time>
      </trkpt>
      <trkpt lat="45.98301" lon="4.80144">
        <ele>228</ele>
        <time>2018-05-23T08:50:32Z</time>
      </trkpt>
      <trkpt lat="45.98303" lon="4.8015">
        <ele>228</ele>
        <time>2018-05-23T08:50:33Z</time>
      </trkpt>
      <trkpt lat="45.98305" lon="4.80156">
        <ele>228</ele>
        <time>2018-05-23T08:50:34Z</time>
      </trkpt>
      <trkpt lat="45.98307" lon="4.80163">
        <ele>228</ele>
        <time>2018-05-23T08:50:35Z</time>
      </trkpt>
      <trkpt lat="45.9831" lon="4.80169">
        <ele>227</ele>
        <time>2018-05-23T08:50:36Z</time>
      </trkpt>
      <trkpt lat="45.98312" lon="4.80176">
        <ele>227</ele>
        <time>2018-05-23T08:50:37Z</time>
      </trkpt>
      <trkpt lat="45.98314" lon="4.80182">
        <ele>227</ele>
        <time>2018-05-23T08:50:38Z</time>
      </trkpt>
      <trkpt lat="45.98316" lon="4.80187">
        <ele>227</ele>
        <time>2018-05-23T08:50:39Z</time>
      </trkpt>
      <trkpt lat="45.98318" lon="4.80194">
        <ele>227</ele>
        <time>2018-05-23T08:50:40Z</time>
      </trkpt>
      <trkpt lat="45.98321" lon="4.802">
        <ele>227</ele>
        <time>2018-05-23T08:50:41Z</time>
      </trkpt>
      <trkpt lat="45.98323" lon="4.80207">
        <ele>227</ele>
        <time>2018-05-23T08:50:42Z</time>
      </trkpt>
      <trkpt lat="45.98324" lon="4.80214">
        <ele>227</ele>
        <time>2018-05-23T08:50:43Z</time>
      </trkpt>
      <trkpt lat="45.98326" lon="4.8022">
        <ele>227</ele>
        <time>2018-05-23T08:50:44Z</time>
      </trkpt>
      <trkpt lat="45.98328" lon="4.80227">
        <ele>228</ele>
        <time>2018-05-23T08:50:45Z</time>
      </trkpt>
      <trkpt lat="45.98328" lon="4.80233">
        <ele>228</ele>
        <time>2018-05-23T08:50:46Z</time>
      </trkpt>
      <trkpt lat="45.98326" lon="4.80245">
        <ele>229</ele>
        <time>2018-05-23T08:50:48Z</time>
      </trkpt>
      <trkpt lat="45.98325" lon="4.80252">
        <ele>229</ele>
        <time>2018-05-23T08:50:49Z</time>
      </trkpt>
      <trkpt lat="45.98323" lon="4.80259">
        <ele>228</ele>
        <time>2018-05-23T08:50:50Z</time>
      </trkpt>
      <trkpt lat="45.98321" lon="4.80266">
        <ele>227</ele>
        <time>2018-05-23T08:50:51Z</time>
      </trkpt>
      <trkpt lat="45.98319" lon="4.80273">
        <ele>227</ele>
        <time>2018-05-23T08:50:52Z</time>
      </trkpt>
      <trkpt lat="45.98318" lon="4.8028">
        <ele>227</ele>
        <time>2018-05-23T08:50:53Z</time>
      </trkpt>
      <trkpt lat="45.98316" lon="4.8029">
        <ele>226</ele>
        <time>2018-05-23T08:50:54Z</time>
      </trkpt>
      <trkpt lat="45.98315" lon="4.80299">
        <ele>226</ele>
        <time>2018-05-23T08:50:55Z</time>
      </trkpt>
      <trkpt lat="45.98312" lon="4.80306">
        <ele>226</ele>
        <time>2018-05-23T08:50:56Z</time>
      </trkpt>
      <trkpt lat="45.9831" lon="4.80314">
        <ele>226</ele>
        <time>2018-05-23T08:50:57Z</time>
      </trkpt>
      <trkpt lat="45.98309" lon="4.80322">
        <ele>226</ele>
        <time>2018-05-23T08:50:58Z</time>
      </trkpt>
      <trkpt lat="45.98308" lon="4.80333">
        <ele>226</ele>
        <time>2018-05-23T08:50:59Z</time>
      </trkpt>
      <trkpt lat="45.98307" lon="4.80342">
        <ele>226</ele>
        <time>2018-05-23T08:51:00Z</time>
      </trkpt>
      <trkpt lat="45.98305" lon="4.8035">
        <ele>225</ele>
        <time>2018-05-23T08:51:01Z</time>
      </trkpt>
      <trkpt lat="45.98302" lon="4.80358">
        <ele>225</ele>
        <time>2018-05-23T08:51:02Z</time>
      </trkpt>
      <trkpt lat="45.98301" lon="4.80368">
        <ele>225</ele>
        <time>2018-05-23T08:51:03Z</time>
      </trkpt>
      <trkpt lat="45.98298" lon="4.80377">
        <ele>225</ele>
        <time>2018-05-23T08:51:04Z</time>
      </trkpt>
      <trkpt lat="45.98297" lon="4.80386">
        <ele>224</ele>
        <time>2018-05-23T08:51:05Z</time>
      </trkpt>
      <trkpt lat="45.98295" lon="4.80396">
        <ele>224</ele>
        <time>2018-05-23T08:51:06Z</time>
      </trkpt>
      <trkpt lat="45.98293" lon="4.80405">
        <ele>224</ele>
        <time>2018-05-23T08:51:07Z</time>
      </trkpt>
      <trkpt lat="45.98291" lon="4.80415">
        <ele>224</ele>
        <time>2018-05-23T08:51:08Z</time>
      </trkpt>
      <trkpt lat="45.98289" lon="4.80426">
        <ele>224</ele>
        <time>2018-05-23T08:51:09Z</time>
      </trkpt>
      <trkpt lat="45.98288" lon="4.80435">
        <ele>224</ele>
        <time>2018-05-23T08:51:10Z</time>
      </trkpt>
      <trkpt lat="45.98286" lon="4.80442">
        <ele>224</ele>
        <time>2018-05-23T08:51:11Z</time>
      </trkpt>
      <trkpt lat="45.98283" lon="4.80452">
        <ele>223</ele>
        <time>2018-05-23T08:51:12Z</time>
      </trkpt>
      <trkpt lat="45.98281" lon="4.80463">
        <ele>223</ele>
        <time>2018-05-23T08:51:13Z</time>
      </trkpt>
      <trkpt lat="45.98277" lon="4.80472">
        <ele>223</ele>
        <time>2018-05-23T08:51:14Z</time>
      </trkpt>
      <trkpt lat="45.98277" lon="4.80478">
        <ele>223</ele>
        <time>2018-05-23T08:51:15Z</time>
      </trkpt>
      <trkpt lat="45.98273" lon="4.80486">
        <ele>223</ele>
        <time>2018-05-23T08:51:16Z</time>
      </trkpt>
      <trkpt lat="45.98271" lon="4.80496">
        <ele>223</ele>
        <time>2018-05-23T08:51:17Z</time>
      </trkpt>
      <trkpt lat="45.98266" lon="4.80511">
        <ele>223</ele>
        <time>2018-05-23T08:51:18Z</time>
      </trkpt>
      <trkpt lat="45.98264" lon="4.80523">
        <ele>223</ele>
        <time>2018-05-23T08:51:20Z</time>
      </trkpt>
      <trkpt lat="45.98263" lon="4.80524">
        <ele>223</ele>
        <time>2018-05-23T08:51:21Z</time>
      </trkpt>
      <trkpt lat="45.9826" lon="4.80533">
        <ele>224</ele>
        <time>2018-05-23T08:51:22Z</time>
      </trkpt>
      <trkpt lat="45.98257" lon="4.8054">
        <ele>224</ele>
        <time>2018-05-23T08:51:23Z</time>
      </trkpt>
      <trkpt lat="45.98254" lon="4.80544">
        <ele>224</ele>
        <time>2018-05-23T08:51:24Z</time>
      </trkpt>
      <trkpt lat="45.98252" lon="4.80551">
        <ele>224</ele>
        <time>2018-05-23T08:51:25Z</time>
      </trkpt>
      <trkpt lat="45.9825" lon="4.80558">
        <ele>223</ele>
        <time>2018-05-23T08:51:26Z</time>
      </trkpt>
      <trkpt lat="45.98248" lon="4.80565">
        <ele>223</ele>
        <time>2018-05-23T08:51:27Z</time>
      </trkpt>
      <trkpt lat="45.98244" lon="4.80577">
        <ele>224</ele>
        <time>2018-05-23T08:51:29Z</time>
      </trkpt>
      <trkpt lat="45.98242" lon="4.80583">
        <ele>224</ele>
        <time>2018-05-23T08:51:30Z</time>
      </trkpt>
      <trkpt lat="45.9824" lon="4.8059">
        <ele>224</ele>
        <time>2018-05-23T08:51:31Z</time>
      </trkpt>
      <trkpt lat="45.98239" lon="4.80598">
        <ele>224</ele>
        <time>2018-05-23T08:51:32Z</time>
      </trkpt>
      <trkpt lat="45.98237" lon="4.80605">
        <ele>224</ele>
        <time>2018-05-23T08:51:33Z</time>
      </trkpt>
      <trkpt lat="45.98235" lon="4.80612">
        <ele>224</ele>
        <time>2018-05-23T08:51:34Z</time>
      </trkpt>
      <trkpt lat="45.98232" lon="4.8062">
        <ele>224</ele>
        <time>2018-05-23T08:51:35Z</time>
      </trkpt>
      <trkpt lat="45.98229" lon="4.80627">
        <ele>224</ele>
        <time>2018-05-23T08:51:36Z</time>
      </trkpt>
      <trkpt lat="45.98228" lon="4.80636">
        <ele>224</ele>
        <time>2018-05-23T08:51:37Z</time>
      </trkpt>
      <trkpt lat="45.98226" lon="4.80643">
        <ele>224</ele>
        <time>2018-05-23T08:51:38Z</time>
      </trkpt>
      <trkpt lat="45.98224" lon="4.8065">
        <ele>224</ele>
        <time>2018-05-23T08:51:39Z</time>
      </trkpt>
      <trkpt lat="45.98222" lon="4.80655">
        <ele>224</ele>
        <time>2018-05-23T08:51:40Z</time>
      </trkpt>
      <trkpt lat="45.98221" lon="4.80665">
        <ele>224</ele>
        <time>2018-05-23T08:51:42Z</time>
      </trkpt>
      <trkpt lat="45.98218" lon="4.8067">
        <ele>224</ele>
        <time>2018-05-23T08:51:43Z</time>
      </trkpt>
      <trkpt lat="45.98212" lon="4.80676">
        <ele>224</ele>
        <time>2018-05-23T08:51:45Z</time>
      </trkpt>
      <trkpt lat="45.98209" lon="4.80678">
        <ele>224</ele>
        <time>2018-05-23T08:51:46Z</time>
      </trkpt>
      <trkpt lat="45.982" lon="4.8068">
        <ele>225</ele>
        <time>2018-05-23T08:51:48Z</time>
      </trkpt>
      <trkpt lat="45.98196" lon="4.80682">
        <ele>225</ele>
        <time>2018-05-23T08:51:49Z</time>
      </trkpt>
      <trkpt lat="45.98189" lon="4.80684">
        <ele>225</ele>
        <time>2018-05-23T08:51:51Z</time>
      </trkpt>
      <trkpt lat="45.98185" lon="4.80685">
        <ele>225</ele>
        <time>2018-05-23T08:51:52Z</time>
      </trkpt>
      <trkpt lat="45.98177" lon="4.80688">
        <ele>225</ele>
        <time>2018-05-23T08:51:54Z</time>
      </trkpt>
      <trkpt lat="45.98173" lon="4.80689">
        <ele>225</ele>
        <time>2018-05-23T08:51:55Z</time>
      </trkpt>
      <trkpt lat="45.98165" lon="4.80691">
        <ele>227</ele>
        <time>2018-05-23T08:51:57Z</time>
      </trkpt>
      <trkpt lat="45.98161" lon="4.80691">
        <ele>227</ele>
        <time>2018-05-23T08:51:58Z</time>
      </trkpt>
      <trkpt lat="45.98154" lon="4.80691">
        <ele>227</ele>
        <time>2018-05-23T08:52:00Z</time>
      </trkpt>
      <trkpt lat="45.98151" lon="4.80692">
        <ele>228</ele>
        <time>2018-05-23T08:52:01Z</time>
      </trkpt>
      <trkpt lat="45.98144" lon="4.80692">
        <ele>228</ele>
        <time>2018-05-23T08:52:04Z</time>
      </trkpt>
      <trkpt lat="45.98141" lon="4.80692">
        <ele>228</ele>
        <time>2018-05-23T08:52:05Z</time>
      </trkpt>
      <trkpt lat="45.98133" lon="4.80691">
        <ele>228</ele>
        <time>2018-05-23T08:52:08Z</time>
      </trkpt>
      <trkpt lat="45.98125" lon="4.80691">
        <ele>228</ele>
        <time>2018-05-23T08:52:09Z</time>
      </trkpt>
      <trkpt lat="45.98118" lon="4.80691">
        <ele>228</ele>
        <time>2018-05-23T08:52:12Z</time>
      </trkpt>
      <trkpt lat="45.98115" lon="4.80691">
        <ele>228</ele>
        <time>2018-05-23T08:52:13Z</time>
      </trkpt>
      <trkpt lat="45.98109" lon="4.8069">
        <ele>228</ele>
        <time>2018-05-23T08:52:15Z</time>
      </trkpt>
      <trkpt lat="45.98105" lon="4.8069">
        <ele>228</ele>
        <time>2018-05-23T08:52:16Z</time>
      </trkpt>
      <trkpt lat="45.98099" lon="4.80689">
        <ele>228</ele>
        <time>2018-05-23T08:52:18Z</time>
      </trkpt>
      <trkpt lat="45.98096" lon="4.80689">
        <ele>228</ele>
        <time>2018-05-23T08:52:19Z</time>
      </trkpt>
      <trkpt lat="45.98089" lon="4.80689">
        <ele>228</ele>
        <time>2018-05-23T08:52:21Z</time>
      </trkpt>
      <trkpt lat="45.98085" lon="4.80689">
        <ele>228</ele>
        <time>2018-05-23T08:52:22Z</time>
      </trkpt>
      <trkpt lat="45.98079" lon="4.80689">
        <ele>229</ele>
        <time>2018-05-23T08:52:24Z</time>
      </trkpt>
      <trkpt lat="45.98076" lon="4.80689">
        <ele>230</ele>
        <time>2018-05-23T08:52:25Z</time>
      </trkpt>
      <trkpt lat="45.98067" lon="4.80688">
        <ele>230</ele>
        <time>2018-05-23T08:52:28Z</time>
      </trkpt>
      <trkpt lat="45.98065" lon="4.80688">
        <ele>230</ele>
        <time>2018-05-23T08:52:29Z</time>
      </trkpt>
      <trkpt lat="45.98056" lon="4.80689">
        <ele>230</ele>
        <time>2018-05-23T08:52:32Z</time>
      </trkpt>
      <trkpt lat="45.98053" lon="4.80689">
        <ele>230</ele>
        <time>2018-05-23T08:52:33Z</time>
      </trkpt>
      <trkpt lat="45.98044" lon="4.80693">
        <ele>230</ele>
        <time>2018-05-23T08:52:36Z</time>
      </trkpt>
      <trkpt lat="45.98042" lon="4.80694">
        <ele>230</ele>
        <time>2018-05-23T08:52:37Z</time>
      </trkpt>
      <trkpt lat="45.98034" lon="4.807">
        <ele>230</ele>
        <time>2018-05-23T08:52:40Z</time>
      </trkpt>
      <trkpt lat="45.98032" lon="4.80702">
        <ele>230</ele>
        <time>2018-05-23T08:52:41Z</time>
      </trkpt>
      <trkpt lat="45.9803" lon="4.80715">
        <ele>231</ele>
        <time>2018-05-23T08:52:45Z</time>
      </trkpt>
      <trkpt lat="45.9803" lon="4.80718">
        <ele>231</ele>
        <time>2018-05-23T08:52:46Z</time>
      </trkpt>
      <trkpt lat="45.98033" lon="4.80727">
        <ele>231</ele>
        <time>2018-05-23T08:52:49Z</time>
      </trkpt>
      <trkpt lat="45.98033" lon="4.80731">
        <ele>231</ele>
        <time>2018-05-23T08:52:50Z</time>
      </trkpt>
      <trkpt lat="45.98035" lon="4.8074">
        <ele>231</ele>
        <time>2018-05-23T08:52:53Z</time>
      </trkpt>
      <trkpt lat="45.98035" lon="4.80744">
        <ele>231</ele>
        <time>2018-05-23T08:52:54Z</time>
      </trkpt>
      <trkpt lat="45.98038" lon="4.80753">
        <ele>233</ele>
        <time>2018-05-23T08:52:57Z</time>
      </trkpt>
      <trkpt lat="45.98039" lon="4.80757">
        <ele>233</ele>
        <time>2018-05-23T08:52:58Z</time>
      </trkpt>
      <trkpt lat="45.98041" lon="4.80768">
        <ele>233</ele>
        <time>2018-05-23T08:53:01Z</time>
      </trkpt>
      <trkpt lat="45.98042" lon="4.80771">
        <ele>233</ele>
        <time>2018-05-23T08:53:02Z</time>
      </trkpt>
      <trkpt lat="45.98044" lon="4.80782">
        <ele>233</ele>
        <time>2018-05-23T08:53:05Z</time>
      </trkpt>
      <trkpt lat="45.98045" lon="4.80786">
        <ele>233</ele>
        <time>2018-05-23T08:53:06Z</time>
      </trkpt>
      <trkpt lat="45.98048" lon="4.80797">
        <ele>234</ele>
        <time>2018-05-23T08:53:09Z</time>
      </trkpt>
      <trkpt lat="45.98049" lon="4.80801">
        <ele>234</ele>
        <time>2018-05-23T08:53:10Z</time>
      </trkpt>
      <trkpt lat="45.98051" lon="4.80812">
        <ele>234</ele>
        <time>2018-05-23T08:53:13Z</time>
      </trkpt>
      <trkpt lat="45.98052" lon="4.80815">
        <ele>234</ele>
        <time>2018-05-23T08:53:14Z</time>
      </trkpt>
      <trkpt lat="45.98054" lon="4.80826">
        <ele>234</ele>
        <time>2018-05-23T08:53:17Z</time>
      </trkpt>
      <trkpt lat="45.98055" lon="4.80829">
        <ele>234</ele>
        <time>2018-05-23T08:53:18Z</time>
      </trkpt>
      <trkpt lat="45.98058" lon="4.80839">
        <ele>236</ele>
        <time>2018-05-23T08:53:21Z</time>
      </trkpt>
      <trkpt lat="45.98059" lon="4.80842">
        <ele>236</ele>
        <time>2018-05-23T08:53:22Z</time>
      </trkpt>
      <trkpt lat="45.98062" lon="4.80853">
        <ele>236</ele>
        <time>2018-05-23T08:53:25Z</time>
      </trkpt>
      <trkpt lat="45.98062" lon="4.80856">
        <ele>236</ele>
        <time>2018-05-23T08:53:26Z</time>
      </trkpt>
      <trkpt lat="45.98065" lon="4.80867">
        <ele>237</ele>
        <time>2018-05-23T08:53:29Z</time>
      </trkpt>
      <trkpt lat="45.98065" lon="4.8087">
        <ele>237</ele>
        <time>2018-05-23T08:53:30Z</time>
      </trkpt>
      <trkpt lat="45.98069" lon="4.80882">
        <ele>237</ele>
        <time>2018-05-23T08:53:34Z</time>
      </trkpt>
      <trkpt lat="45.98069" lon="4.80885">
        <ele>237</ele>
        <time>2018-05-23T08:53:35Z</time>
      </trkpt>
      <trkpt lat="45.98072" lon="4.80896">
        <ele>238</ele>
        <time>2018-05-23T08:53:39Z</time>
      </trkpt>
      <trkpt lat="45.98073" lon="4.809">
        <ele>238</ele>
        <time>2018-05-23T08:53:40Z</time>
      </trkpt>
      <trkpt lat="45.98075" lon="4.8091">
        <ele>238</ele>
        <time>2018-05-23T08:53:43Z</time>
      </trkpt>
      <trkpt lat="45.98076" lon="4.80914">
        <ele>239</ele>
        <time>2018-05-23T08:53:44Z</time>
      </trkpt>
      <trkpt lat="45.98077" lon="4.80924">
        <ele>240</ele>
        <time>2018-05-23T08:53:47Z</time>
      </trkpt>
      <trkpt lat="45.98078" lon="4.80928">
        <ele>240</ele>
        <time>2018-05-23T08:53:48Z</time>
      </trkpt>
      <trkpt lat="45.98081" lon="4.80938">
        <ele>240</ele>
        <time>2018-05-23T08:53:51Z</time>
      </trkpt>
      <trkpt lat="45.98082" lon="4.80941">
        <ele>240</ele>
        <time>2018-05-23T08:53:52Z</time>
      </trkpt>
      <trkpt lat="45.98084" lon="4.80951">
        <ele>238</ele>
        <time>2018-05-23T08:53:55Z</time>
      </trkpt>
      <trkpt lat="45.98085" lon="4.80955">
        <ele>239</ele>
        <time>2018-05-23T08:53:56Z</time>
      </trkpt>
      <trkpt lat="45.98089" lon="4.80964">
        <ele>239</ele>
        <time>2018-05-23T08:53:59Z</time>
      </trkpt>
      <trkpt lat="45.9809" lon="4.80967">
        <ele>239</ele>
        <time>2018-05-23T08:54:00Z</time>
      </trkpt>
      <trkpt lat="45.98091" lon="4.80977">
        <ele>239</ele>
        <time>2018-05-23T08:54:03Z</time>
      </trkpt>
      <trkpt lat="45.98092" lon="4.8098">
        <ele>240</ele>
        <time>2018-05-23T08:54:04Z</time>
      </trkpt>
      <trkpt lat="45.98094" lon="4.8099">
        <ele>240</ele>
        <time>2018-05-23T08:54:07Z</time>
      </trkpt>
      <trkpt lat="45.98095" lon="4.80993">
        <ele>240</ele>
        <time>2018-05-23T08:54:08Z</time>
      </trkpt>
      <trkpt lat="45.98099" lon="4.81004">
        <ele>242</ele>
        <time>2018-05-23T08:54:09Z</time>
      </trkpt>
      <trkpt lat="45.98101" lon="4.81008">
        <ele>242</ele>
        <time>2018-05-23T08:54:10Z</time>
      </trkpt>
      <trkpt lat="45.98105" lon="4.81018">
        <ele>242</ele>
        <time>2018-05-23T08:54:12Z</time>
      </trkpt>
      <trkpt lat="45.98107" lon="4.81023">
        <ele>242</ele>
        <time>2018-05-23T08:54:13Z</time>
      </trkpt>
      <trkpt lat="45.9811" lon="4.81034">
        <ele>242</ele>
        <time>2018-05-23T08:54:15Z</time>
      </trkpt>
      <trkpt lat="45.98112" lon="4.81039">
        <ele>242</ele>
        <time>2018-05-23T08:54:16Z</time>
      </trkpt>
      <trkpt lat="45.98116" lon="4.81051">
        <ele>243</ele>
        <time>2018-05-23T08:54:18Z</time>
      </trkpt>
      <trkpt lat="45.98117" lon="4.81057">
        <ele>243</ele>
        <time>2018-05-23T08:54:19Z</time>
      </trkpt>
      <trkpt lat="45.98119" lon="4.81063">
        <ele>243</ele>
        <time>2018-05-23T08:54:20Z</time>
      </trkpt>
      <trkpt lat="45.98121" lon="4.81069">
        <ele>243</ele>
        <time>2018-05-23T08:54:21Z</time>
      </trkpt>
      <trkpt lat="45.98127" lon="4.81079">
        <ele>243</ele>
        <time>2018-05-23T08:54:23Z</time>
      </trkpt>
      <trkpt lat="45.98129" lon="4.81084">
        <ele>245</ele>
        <time>2018-05-23T08:54:24Z</time>
      </trkpt>
      <trkpt lat="45.98132" lon="4.81095">
        <ele>245</ele>
        <time>2018-05-23T08:54:26Z</time>
      </trkpt>
      <trkpt lat="45.98134" lon="4.81101">
        <ele>245</ele>
        <time>2018-05-23T08:54:27Z</time>
      </trkpt>
      <trkpt lat="45.98138" lon="4.81111">
        <ele>245</ele>
        <time>2018-05-23T08:54:29Z</time>
      </trkpt>
      <trkpt lat="45.9814" lon="4.81117">
        <ele>245</ele>
        <time>2018-05-23T08:54:30Z</time>
      </trkpt>
      <trkpt lat="45.98145" lon="4.81128">
        <ele>245</ele>
        <time>2018-05-23T08:54:32Z</time>
      </trkpt>
      <trkpt lat="45.98148" lon="4.81133">
        <ele>245</ele>
        <time>2018-05-23T08:54:33Z</time>
      </trkpt>
      <trkpt lat="45.98151" lon="4.81144">
        <ele>245</ele>
        <time>2018-05-23T08:54:35Z</time>
      </trkpt>
      <trkpt lat="45.98153" lon="4.81149">
        <ele>245</ele>
        <time>2018-05-23T08:54:36Z</time>
      </trkpt>
      <trkpt lat="45.98156" lon="4.81153">
        <ele>245</ele>
        <time>2018-05-23T08:54:37Z</time>
      </trkpt>
      <trkpt lat="45.98159" lon="4.8116">
        <ele>245</ele>
        <time>2018-05-23T08:54:38Z</time>
      </trkpt>
      <trkpt lat="45.98162" lon="4.81171">
        <ele>245</ele>
        <time>2018-05-23T08:54:40Z</time>
      </trkpt>
      <trkpt lat="45.98165" lon="4.81176">
        <ele>246</ele>
        <time>2018-05-23T08:54:41Z</time>
      </trkpt>
      <trkpt lat="45.98168" lon="4.81186">
        <ele>245</ele>
        <time>2018-05-23T08:54:43Z</time>
      </trkpt>
      <trkpt lat="45.98168" lon="4.81189">
        <ele>245</ele>
        <time>2018-05-23T08:54:44Z</time>
      </trkpt>
      <trkpt lat="45.98169" lon="4.812">
        <ele>245</ele>
        <time>2018-05-23T08:54:47Z</time>
      </trkpt>
      <trkpt lat="45.98171" lon="4.81212">
        <ele>246</ele>
        <time>2018-05-23T08:54:48Z</time>
      </trkpt>
      <trkpt lat="45.98172" lon="4.81223">
        <ele>246</ele>
        <time>2018-05-23T08:54:50Z</time>
      </trkpt>
      <trkpt lat="45.98173" lon="4.81228">
        <ele>246</ele>
        <time>2018-05-23T08:54:51Z</time>
      </trkpt>
      <trkpt lat="45.98173" lon="4.81238">
        <ele>247</ele>
        <time>2018-05-23T08:54:54Z</time>
      </trkpt>
      <trkpt lat="45.98173" lon="4.81242">
        <ele>247</ele>
        <time>2018-05-23T08:54:55Z</time>
      </trkpt>
      <trkpt lat="45.98174" lon="4.81251">
        <ele>248</ele>
        <time>2018-05-23T08:54:56Z</time>
      </trkpt>
      <trkpt lat="45.98175" lon="4.81256">
        <ele>247</ele>
        <time>2018-05-23T08:54:57Z</time>
      </trkpt>
      <trkpt lat="45.98178" lon="4.81266">
        <ele>247</ele>
        <time>2018-05-23T08:54:59Z</time>
      </trkpt>
      <trkpt lat="45.98179" lon="4.81271">
        <ele>247</ele>
        <time>2018-05-23T08:55:00Z</time>
      </trkpt>
      <trkpt lat="45.9818" lon="4.81279">
        <ele>247</ele>
        <time>2018-05-23T08:55:02Z</time>
      </trkpt>
      <trkpt lat="45.98181" lon="4.81286">
        <ele>247</ele>
        <time>2018-05-23T08:55:03Z</time>
      </trkpt>
      <trkpt lat="45.98183" lon="4.81296">
        <ele>247</ele>
        <time>2018-05-23T08:55:05Z</time>
      </trkpt>
      <trkpt lat="45.98184" lon="4.81301">
        <ele>247</ele>
        <time>2018-05-23T08:55:06Z</time>
      </trkpt>
      <trkpt lat="45.98186" lon="4.81313">
        <ele>247</ele>
        <time>2018-05-23T08:55:08Z</time>
      </trkpt>
      <trkpt lat="45.98187" lon="4.81319">
        <ele>247</ele>
        <time>2018-05-23T08:55:09Z</time>
      </trkpt>
      <trkpt lat="45.9819" lon="4.81329">
        <ele>247</ele>
        <time>2018-05-23T08:55:11Z</time>
      </trkpt>
      <trkpt lat="45.98191" lon="4.81335">
        <ele>248</ele>
        <time>2018-05-23T08:55:12Z</time>
      </trkpt>
      <trkpt lat="45.98194" lon="4.81346">
        <ele>248</ele>
        <time>2018-05-23T08:55:14Z</time>
      </trkpt>
      <trkpt lat="45.98195" lon="4.81352">
        <ele>248</ele>
        <time>2018-05-23T08:55:15Z</time>
      </trkpt>
      <trkpt lat="45.98198" lon="4.81363">
        <ele>248</ele>
        <time>2018-05-23T08:55:18Z</time>
      </trkpt>
      <trkpt lat="45.98199" lon="4.81366">
        <ele>248</ele>
        <time>2018-05-23T08:55:19Z</time>
      </trkpt>
      <trkpt lat="45.98201" lon="4.81377">
        <ele>248</ele>
        <time>2018-05-23T08:55:22Z</time>
      </trkpt>
      <trkpt lat="45.98201" lon="4.81379">
        <ele>248</ele>
        <time>2018-05-23T08:55:23Z</time>
      </trkpt>
      <trkpt lat="45.98201" lon="4.81392">
        <ele>248</ele>
        <time>2018-05-23T08:55:27Z</time>
      </trkpt>
      <trkpt lat="45.98202" lon="4.81395">
        <ele>248</ele>
        <time>2018-05-23T08:55:28Z</time>
      </trkpt>
      <trkpt lat="45.98206" lon="4.81402">
        <ele>248</ele>
        <time>2018-05-23T08:55:30Z</time>
      </trkpt>
      <trkpt lat="45.98212" lon="4.81413">
        <ele>248</ele>
        <time>2018-05-23T08:55:31Z</time>
      </trkpt>
      <trkpt lat="45.98216" lon="4.81423">
        <ele>249</ele>
        <time>2018-05-23T08:55:33Z</time>
      </trkpt>
      <trkpt lat="45.98218" lon="4.81429">
        <ele>249</ele>
        <time>2018-05-23T08:55:34Z</time>
      </trkpt>
      <trkpt lat="45.98221" lon="4.8144">
        <ele>249</ele>
        <time>2018-05-23T08:55:36Z</time>
      </trkpt>
      <trkpt lat="45.98223" lon="4.81445">
        <ele>249</ele>
        <time>2018-05-23T08:55:37Z</time>
      </trkpt>
      <trkpt lat="45.98226" lon="4.81457">
        <ele>249</ele>
        <time>2018-05-23T08:55:39Z</time>
      </trkpt>
      <trkpt lat="45.98228" lon="4.81462">
        <ele>249</ele>
        <time>2018-05-23T08:55:40Z</time>
      </trkpt>
      <trkpt lat="45.9823" lon="4.81468">
        <ele>249</ele>
        <time>2018-05-23T08:55:41Z</time>
      </trkpt>
      <trkpt lat="45.98233" lon="4.81474">
        <ele>249</ele>
        <time>2018-05-23T08:55:42Z</time>
      </trkpt>
      <trkpt lat="45.98234" lon="4.81481">
        <ele>249</ele>
        <time>2018-05-23T08:55:43Z</time>
      </trkpt>
      <trkpt lat="45.98236" lon="4.81488">
        <ele>249</ele>
        <time>2018-05-23T08:55:44Z</time>
      </trkpt>
      <trkpt lat="45.98238" lon="4.81496">
        <ele>249</ele>
        <time>2018-05-23T08:55:45Z</time>
      </trkpt>
      <trkpt lat="45.98241" lon="4.81503">
        <ele>249</ele>
        <time>2018-05-23T08:55:46Z</time>
      </trkpt>
      <trkpt lat="45.98243" lon="4.8151">
        <ele>249</ele>
        <time>2018-05-23T08:55:47Z</time>
      </trkpt>
      <trkpt lat="45.98245" lon="4.81518">
        <ele>249</ele>
        <time>2018-05-23T08:55:48Z</time>
      </trkpt>
      <trkpt lat="45.98248" lon="4.81525">
        <ele>249</ele>
        <time>2018-05-23T08:55:49Z</time>
      </trkpt>
      <trkpt lat="45.98251" lon="4.81531">
        <ele>247</ele>
        <time>2018-05-23T08:55:50Z</time>
      </trkpt>
      <trkpt lat="45.98253" lon="4.81538">
        <ele>247</ele>
        <time>2018-05-23T08:55:51Z</time>
      </trkpt>
      <trkpt lat="45.98256" lon="4.81545">
        <ele>247</ele>
        <time>2018-05-23T08:55:52Z</time>
      </trkpt>
      <trkpt lat="45.98259" lon="4.81552">
        <ele>247</ele>
        <time>2018-05-23T08:55:53Z</time>
      </trkpt>
      <trkpt lat="45.98261" lon="4.8156">
        <ele>247</ele>
        <time>2018-05-23T08:55:54Z</time>
      </trkpt>
      <trkpt lat="45.98263" lon="4.81567">
        <ele>247</ele>
        <time>2018-05-23T08:55:55Z</time>
      </trkpt>
      <trkpt lat="45.98265" lon="4.81574">
        <ele>247</ele>
        <time>2018-05-23T08:55:56Z</time>
      </trkpt>
      <trkpt lat="45.98267" lon="4.81582">
        <ele>247</ele>
        <time>2018-05-23T08:55:57Z</time>
      </trkpt>
      <trkpt lat="45.98269" lon="4.81588">
        <ele>247</ele>
        <time>2018-05-23T08:55:58Z</time>
      </trkpt>
      <trkpt lat="45.98272" lon="4.81594">
        <ele>247</ele>
        <time>2018-05-23T08:55:59Z</time>
      </trkpt>
      <trkpt lat="45.98274" lon="4.816">
        <ele>247</ele>
        <time>2018-05-23T08:56:00Z</time>
      </trkpt>
      <trkpt lat="45.98277" lon="4.81607">
        <ele>247</ele>
        <time>2018-05-23T08:56:01Z</time>
      </trkpt>
      <trkpt lat="45.9828" lon="4.81614">
        <ele>247</ele>
        <time>2018-05-23T08:56:02Z</time>
      </trkpt>
      <trkpt lat="45.98282" lon="4.81621">
        <ele>247</ele>
        <time>2018-05-23T08:56:03Z</time>
      </trkpt>
      <trkpt lat="45.98285" lon="4.81627">
        <ele>247</ele>
        <time>2018-05-23T08:56:04Z</time>
      </trkpt>
      <trkpt lat="45.98288" lon="4.81633">
        <ele>247</ele>
        <time>2018-05-23T08:56:05Z</time>
      </trkpt>
      <trkpt lat="45.98291" lon="4.81638">
        <ele>247</ele>
        <time>2018-05-23T08:56:06Z</time>
      </trkpt>
      <trkpt lat="45.98295" lon="4.81642">
        <ele>247</ele>
        <time>2018-05-23T08:56:07Z</time>
      </trkpt>
      <trkpt lat="45.98299" lon="4.81646">
        <ele>247</ele>
        <time>2018-05-23T08:56:08Z</time>
      </trkpt>
      <trkpt lat="45.98303" lon="4.8165">
        <ele>247</ele>
        <time>2018-05-23T08:56:09Z</time>
      </trkpt>
      <trkpt lat="45.98307" lon="4.81654">
        <ele>246</ele>
        <time>2018-05-23T08:56:10Z</time>
      </trkpt>
      <trkpt lat="45.98311" lon="4.81657">
        <ele>246</ele>
        <time>2018-05-23T08:56:11Z</time>
      </trkpt>
      <trkpt lat="45.98315" lon="4.81661">
        <ele>246</ele>
        <time>2018-05-23T08:56:12Z</time>
      </trkpt>
      <trkpt lat="45.9832" lon="4.81664">
        <ele>246</ele>
        <time>2018-05-23T08:56:13Z</time>
      </trkpt>
      <trkpt lat="45.98324" lon="4.81667">
        <ele>246</ele>
        <time>2018-05-23T08:56:14Z</time>
      </trkpt>
      <trkpt lat="45.9833" lon="4.81671">
        <ele>246</ele>
        <time>2018-05-23T08:56:15Z</time>
      </trkpt>
      <trkpt lat="45.98335" lon="4.81674">
        <ele>245</ele>
        <time>2018-05-23T08:56:16Z</time>
      </trkpt>
      <trkpt lat="45.98341" lon="4.81676">
        <ele>245</ele>
        <time>2018-05-23T08:56:17Z</time>
      </trkpt>
      <trkpt lat="45.98348" lon="4.81677">
        <ele>245</ele>
        <time>2018-05-23T08:56:18Z</time>
      </trkpt>
      <trkpt lat="45.98354" lon="4.81678">
        <ele>245</ele>
        <time>2018-05-23T08:56:19Z</time>
      </trkpt>
      <trkpt lat="45.9836" lon="4.81679">
        <ele>244</ele>
        <time>2018-05-23T08:56:20Z</time>
      </trkpt>
      <trkpt lat="45.98367" lon="4.81679">
        <ele>244</ele>
        <time>2018-05-23T08:56:21Z</time>
      </trkpt>
      <trkpt lat="45.98373" lon="4.81678">
        <ele>244</ele>
        <time>2018-05-23T08:56:22Z</time>
      </trkpt>
      <trkpt lat="45.98379" lon="4.81676">
        <ele>244</ele>
        <time>2018-05-23T08:56:23Z</time>
      </trkpt>
      <trkpt lat="45.98386" lon="4.81675">
        <ele>243</ele>
        <time>2018-05-23T08:56:24Z</time>
      </trkpt>
      <trkpt lat="45.98391" lon="4.81674">
        <ele>243</ele>
        <time>2018-05-23T08:56:25Z</time>
      </trkpt>
      <trkpt lat="45.98397" lon="4.81672">
        <ele>243</ele>
        <time>2018-05-23T08:56:26Z</time>
      </trkpt>
      <trkpt lat="45.98402" lon="4.8167">
        <ele>242</ele>
        <time>2018-05-23T08:56:27Z</time>
      </trkpt>
      <trkpt lat="45.98407" lon="4.81669">
        <ele>242</ele>
        <time>2018-05-23T08:56:28Z</time>
      </trkpt>
      <trkpt lat="45.98412" lon="4.81669">
        <ele>242</ele>
        <time>2018-05-23T08:56:29Z</time>
      </trkpt>
      <trkpt lat="45.98417" lon="4.81669">
        <ele>241</ele>
        <time>2018-05-23T08:56:30Z</time>
      </trkpt>
      <trkpt lat="45.98422" lon="4.81671">
        <ele>241</ele>
        <time>2018-05-23T08:56:31Z</time>
      </trkpt>
      <trkpt lat="45.98427" lon="4.81672">
        <ele>240</ele>
        <time>2018-05-23T08:56:32Z</time>
      </trkpt>
      <trkpt lat="45.98432" lon="4.81675">
        <ele>240</ele>
        <time>2018-05-23T08:56:33Z</time>
      </trkpt>
      <trkpt lat="45.98437" lon="4.81678">
        <ele>240</ele>
        <time>2018-05-23T08:56:34Z</time>
      </trkpt>
      <trkpt lat="45.98441" lon="4.81683">
        <ele>239</ele>
        <time>2018-05-23T08:56:35Z</time>
      </trkpt>
      <trkpt lat="45.98445" lon="4.81687">
        <ele>239</ele>
        <time>2018-05-23T08:56:36Z</time>
      </trkpt>
      <trkpt lat="45.98449" lon="4.81694">
        <ele>239</ele>
        <time>2018-05-23T08:56:37Z</time>
      </trkpt>
      <trkpt lat="45.98452" lon="4.81702">
        <ele>239</ele>
        <time>2018-05-23T08:56:38Z</time>
      </trkpt>
      <trkpt lat="45.98456" lon="4.81708">
        <ele>239</ele>
        <time>2018-05-23T08:56:39Z</time>
      </trkpt>
      <trkpt lat="45.9846" lon="4.81715">
        <ele>239</ele>
        <time>2018-05-23T08:56:40Z</time>
      </trkpt>
      <trkpt lat="45.98465" lon="4.81723">
        <ele>239</ele>
        <time>2018-05-23T08:56:41Z</time>
      </trkpt>
      <trkpt lat="45.98468" lon="4.8173">
        <ele>239</ele>
        <time>2018-05-23T08:56:42Z</time>
      </trkpt>
      <trkpt lat="45.98474" lon="4.81736">
        <ele>239</ele>
        <time>2018-05-23T08:56:43Z</time>
      </trkpt>
      <trkpt lat="45.98481" lon="4.81742">
        <ele>238</ele>
        <time>2018-05-23T08:56:44Z</time>
      </trkpt>
      <trkpt lat="45.98489" lon="4.81747">
        <ele>238</ele>
        <time>2018-05-23T08:56:45Z</time>
      </trkpt>
      <trkpt lat="45.98496" lon="4.81753">
        <ele>238</ele>
        <time>2018-05-23T08:56:46Z</time>
      </trkpt>
      <trkpt lat="45.98502" lon="4.8176">
        <ele>237</ele>
        <time>2018-05-23T08:56:47Z</time>
      </trkpt>
      <trkpt lat="45.98509" lon="4.81767">
        <ele>237</ele>
        <time>2018-05-23T08:56:48Z</time>
      </trkpt>
      <trkpt lat="45.98514" lon="4.81776">
        <ele>238</ele>
        <time>2018-05-23T08:56:49Z</time>
      </trkpt>
      <trkpt lat="45.9852" lon="4.81785">
        <ele>238</ele>
        <time>2018-05-23T08:56:50Z</time>
      </trkpt>
      <trkpt lat="45.98525" lon="4.81796">
        <ele>238</ele>
        <time>2018-05-23T08:56:51Z</time>
      </trkpt>
      <trkpt lat="45.98531" lon="4.81804">
        <ele>238</ele>
        <time>2018-05-23T08:56:52Z</time>
      </trkpt>
      <trkpt lat="45.98537" lon="4.81811">
        <ele>238</ele>
        <time>2018-05-23T08:56:53Z</time>
      </trkpt>
      <trkpt lat="45.98543" lon="4.81816">
        <ele>238</ele>
        <time>2018-05-23T08:56:54Z</time>
      </trkpt>
      <trkpt lat="45.98549" lon="4.81817">
        <ele>238</ele>
        <time>2018-05-23T08:56:55Z</time>
      </trkpt>
      <trkpt lat="45.98554" lon="4.81814">
        <ele>238</ele>
        <time>2018-05-23T08:56:56Z</time>
      </trkpt>
      <trkpt lat="45.98559" lon="4.81809">
        <ele>238</ele>
        <time>2018-05-23T08:56:57Z</time>
      </trkpt>
      <trkpt lat="45.98563" lon="4.81803">
        <ele>238</ele>
        <time>2018-05-23T08:56:58Z</time>
      </trkpt>
      <trkpt lat="45.98567" lon="4.81796">
        <ele>238</ele>
        <time>2018-05-23T08:56:59Z</time>
      </trkpt>
      <trkpt lat="45.98571" lon="4.81789">
        <ele>238</ele>
        <time>2018-05-23T08:57:00Z</time>
      </trkpt>
      <trkpt lat="45.98576" lon="4.81783">
        <ele>238</ele>
        <time>2018-05-23T08:57:01Z</time>
      </trkpt>
      <trkpt lat="45.98581" lon="4.81777">
        <ele>238</ele>
        <time>2018-05-23T08:57:02Z</time>
      </trkpt>
      <trkpt lat="45.98584" lon="4.81775">
        <ele>238</ele>
        <time>2018-05-23T08:57:03Z</time>
      </trkpt>
      <trkpt lat="45.98588" lon="4.81772">
        <ele>238</ele>
        <time>2018-05-23T08:57:04Z</time>
      </trkpt>
      <trkpt lat="45.98593" lon="4.81769">
        <ele>238</ele>
        <time>2018-05-23T08:57:05Z</time>
      </trkpt>
      <trkpt lat="45.98598" lon="4.81766">
        <ele>238</ele>
        <time>2018-05-23T08:57:06Z</time>
      </trkpt>
      <trkpt lat="45.98602" lon="4.81762">
        <ele>238</ele>
        <time>2018-05-23T08:57:07Z</time>
      </trkpt>
      <trkpt lat="45.9861" lon="4.8176">
        <ele>238</ele>
        <time>2018-05-23T08:57:09Z</time>
      </trkpt>
      <trkpt lat="45.98615" lon="4.81759">
        <ele>238</ele>
        <time>2018-05-23T08:57:10Z</time>
      </trkpt>
      <trkpt lat="45.98619" lon="4.81757">
        <ele>238</ele>
        <time>2018-05-23T08:57:11Z</time>
      </trkpt>
      <trkpt lat="45.98624" lon="4.81755">
        <ele>238</ele>
        <time>2018-05-23T08:57:12Z</time>
      </trkpt>
      <trkpt lat="45.9863" lon="4.81753">
        <ele>238</ele>
        <time>2018-05-23T08:57:13Z</time>
      </trkpt>
      <trkpt lat="45.98635" lon="4.81751">
        <ele>238</ele>
        <time>2018-05-23T08:57:14Z</time>
      </trkpt>
      <trkpt lat="45.98639" lon="4.8175">
        <ele>237</ele>
        <time>2018-05-23T08:57:15Z</time>
      </trkpt>
      <trkpt lat="45.98644" lon="4.81749">
        <ele>237</ele>
        <time>2018-05-23T08:57:16Z</time>
      </trkpt>
      <trkpt lat="45.98651" lon="4.81749">
        <ele>237</ele>
        <time>2018-05-23T08:57:17Z</time>
      </trkpt>
      <trkpt lat="45.98656" lon="4.81748">
        <ele>237</ele>
        <time>2018-05-23T08:57:18Z</time>
      </trkpt>
      <trkpt lat="45.98661" lon="4.81748">
        <ele>238</ele>
        <time>2018-05-23T08:57:19Z</time>
      </trkpt>
      <trkpt lat="45.98666" lon="4.81746">
        <ele>238</ele>
        <time>2018-05-23T08:57:20Z</time>
      </trkpt>
      <trkpt lat="45.98672" lon="4.81745">
        <ele>238</ele>
        <time>2018-05-23T08:57:21Z</time>
      </trkpt>
      <trkpt lat="45.98677" lon="4.81742">
        <ele>238</ele>
        <time>2018-05-23T08:57:22Z</time>
      </trkpt>
      <trkpt lat="45.98686" lon="4.81741">
        <ele>238</ele>
        <time>2018-05-23T08:57:24Z</time>
      </trkpt>
      <trkpt lat="45.9869" lon="4.8174">
        <ele>238</ele>
        <time>2018-05-23T08:57:25Z</time>
      </trkpt>
      <trkpt lat="45.98694" lon="4.81738">
        <ele>239</ele>
        <time>2018-05-23T08:57:26Z</time>
      </trkpt>
      <trkpt lat="45.987" lon="4.81737">
        <ele>239</ele>
        <time>2018-05-23T08:57:27Z</time>
      </trkpt>
      <trkpt lat="45.98706" lon="4.81735">
        <ele>239</ele>
        <time>2018-05-23T08:57:28Z</time>
      </trkpt>
      <trkpt lat="45.98711" lon="4.81735">
        <ele>239</ele>
        <time>2018-05-23T08:57:29Z</time>
      </trkpt>
      <trkpt lat="45.98718" lon="4.81734">
        <ele>239</ele>
        <time>2018-05-23T08:57:30Z</time>
      </trkpt>
      <trkpt lat="45.98723" lon="4.81732">
        <ele>239</ele>
        <time>2018-05-23T08:57:31Z</time>
      </trkpt>
      <trkpt lat="45.98727" lon="4.81735">
        <ele>239</ele>
        <time>2018-05-23T08:57:32Z</time>
      </trkpt>
      <trkpt lat="45.98734" lon="4.81738">
        <ele>240</ele>
        <time>2018-05-23T08:57:33Z</time>
      </trkpt>
      <trkpt lat="45.98737" lon="4.81744">
        <ele>240</ele>
        <time>2018-05-23T08:57:34Z</time>
      </trkpt>
      <trkpt lat="45.9874" lon="4.81749">
        <ele>240</ele>
        <time>2018-05-23T08:57:35Z</time>
      </trkpt>
      <trkpt lat="45.98745" lon="4.81758">
        <ele>240</ele>
        <time>2018-05-23T08:57:37Z</time>
      </trkpt>
      <trkpt lat="45.98748" lon="4.81764">
        <ele>240</ele>
        <time>2018-05-23T08:57:38Z</time>
      </trkpt>
      <trkpt lat="45.98752" lon="4.81767">
        <ele>241</ele>
        <time>2018-05-23T08:57:39Z</time>
      </trkpt>
      <trkpt lat="45.98755" lon="4.81773">
        <ele>241</ele>
        <time>2018-05-23T08:57:40Z</time>
      </trkpt>
      <trkpt lat="45.98757" lon="4.81778">
        <ele>241</ele>
        <time>2018-05-23T08:57:41Z</time>
      </trkpt>
      <trkpt lat="45.98759" lon="4.81784">
        <ele>241</ele>
        <time>2018-05-23T08:57:42Z</time>
      </trkpt>
      <trkpt lat="45.9876" lon="4.81791">
        <ele>241</ele>
        <time>2018-05-23T08:57:43Z</time>
      </trkpt>
      <trkpt lat="45.98762" lon="4.81797">
        <ele>240</ele>
        <time>2018-05-23T08:57:44Z</time>
      </trkpt>
      <trkpt lat="45.98764" lon="4.81803">
        <ele>240</ele>
        <time>2018-05-23T08:57:45Z</time>
      </trkpt>
      <trkpt lat="45.98767" lon="4.81809">
        <ele>240</ele>
        <time>2018-05-23T08:57:46Z</time>
      </trkpt>
      <trkpt lat="45.9877" lon="4.81816">
        <ele>240</ele>
        <time>2018-05-23T08:57:47Z</time>
      </trkpt>
      <trkpt lat="45.98775" lon="4.8182">
        <ele>240</ele>
        <time>2018-05-23T08:57:48Z</time>
      </trkpt>
      <trkpt lat="45.98777" lon="4.81827">
        <ele>240</ele>
        <time>2018-05-23T08:57:49Z</time>
      </trkpt>
      <trkpt lat="45.98781" lon="4.81834">
        <ele>239</ele>
        <time>2018-05-23T08:57:50Z</time>
      </trkpt>
      <trkpt lat="45.98784" lon="4.81841">
        <ele>239</ele>
        <time>2018-05-23T08:57:51Z</time>
      </trkpt>
      <trkpt lat="45.98787" lon="4.81848">
        <ele>239</ele>
        <time>2018-05-23T08:57:52Z</time>
      </trkpt>
      <trkpt lat="45.98791" lon="4.81854">
        <ele>239</ele>
        <time>2018-05-23T08:57:53Z</time>
      </trkpt>
      <trkpt lat="45.98794" lon="4.81861">
        <ele>239</ele>
        <time>2018-05-23T08:57:54Z</time>
      </trkpt>
      <trkpt lat="45.98797" lon="4.81868">
        <ele>239</ele>
        <time>2018-05-23T08:57:55Z</time>
      </trkpt>
      <trkpt lat="45.988" lon="4.81875">
        <ele>239</ele>
        <time>2018-05-23T08:57:56Z</time>
      </trkpt>
      <trkpt lat="45.98803" lon="4.81884">
        <ele>239</ele>
        <time>2018-05-23T08:57:57Z</time>
      </trkpt>
      <trkpt lat="45.98805" lon="4.81892">
        <ele>239</ele>
        <time>2018-05-23T08:57:58Z</time>
      </trkpt>
      <trkpt lat="45.98807" lon="4.81901">
        <ele>239</ele>
        <time>2018-05-23T08:57:59Z</time>
      </trkpt>
      <trkpt lat="45.98808" lon="4.8191">
        <ele>239</ele>
        <time>2018-05-23T08:58:00Z</time>
      </trkpt>
      <trkpt lat="45.98809" lon="4.81919">
        <ele>239</ele>
        <time>2018-05-23T08:58:01Z</time>
      </trkpt>
      <trkpt lat="45.98811" lon="4.81927">
        <ele>239</ele>
        <time>2018-05-23T08:58:02Z</time>
      </trkpt>
      <trkpt lat="45.98812" lon="4.81936">
        <ele>239</ele>
        <time>2018-05-23T08:58:03Z</time>
      </trkpt>
      <trkpt lat="45.98813" lon="4.81945">
        <ele>239</ele>
        <time>2018-05-23T08:58:04Z</time>
      </trkpt>
      <trkpt lat="45.98814" lon="4.81954">
        <ele>239</ele>
        <time>2018-05-23T08:58:05Z</time>
      </trkpt>
      <trkpt lat="45.98815" lon="4.81963">
        <ele>239</ele>
        <time>2018-05-23T08:58:06Z</time>
      </trkpt>
      <trkpt lat="45.98815" lon="4.81973">
        <ele>239</ele>
        <time>2018-05-23T08:58:07Z</time>
      </trkpt>
      <trkpt lat="45.98816" lon="4.81983">
        <ele>238</ele>
        <time>2018-05-23T08:58:08Z</time>
      </trkpt>
      <trkpt lat="45.98816" lon="4.81992">
        <ele>238</ele>
        <time>2018-05-23T08:58:09Z</time>
      </trkpt>
      <trkpt lat="45.98817" lon="4.82">
        <ele>238</ele>
        <time>2018-05-23T08:58:10Z</time>
      </trkpt>
      <trkpt lat="45.98819" lon="4.82009">
        <ele>238</ele>
        <time>2018-05-23T08:58:11Z</time>
      </trkpt>
      <trkpt lat="45.9882" lon="4.82017">
        <ele>238</ele>
        <time>2018-05-23T08:58:12Z</time>
      </trkpt>
      <trkpt lat="45.98822" lon="4.82025">
        <ele>238</ele>
        <time>2018-05-23T08:58:13Z</time>
      </trkpt>
      <trkpt lat="45.98823" lon="4.82033">
        <ele>238</ele>
        <time>2018-05-23T08:58:14Z</time>
      </trkpt>
      <trkpt lat="45.98824" lon="4.82041">
        <ele>238</ele>
        <time>2018-05-23T08:58:15Z</time>
      </trkpt>
      <trkpt lat="45.98825" lon="4.8205">
        <ele>238</ele>
        <time>2018-05-23T08:58:16Z</time>
      </trkpt>
      <trkpt lat="45.98827" lon="4.8206">
        <ele>237</ele>
        <time>2018-05-23T08:58:17Z</time>
      </trkpt>
      <trkpt lat="45.98829" lon="4.82072">
        <ele>237</ele>
        <time>2018-05-23T08:58:18Z</time>
      </trkpt>
      <trkpt lat="45.9883" lon="4.82079">
        <ele>236</ele>
        <time>2018-05-23T08:58:19Z</time>
      </trkpt>
      <trkpt lat="45.98832" lon="4.82087">
        <ele>236</ele>
        <time>2018-05-23T08:58:20Z</time>
      </trkpt>
      <trkpt lat="45.98833" lon="4.82094">
        <ele>237</ele>
        <time>2018-05-23T08:58:21Z</time>
      </trkpt>
      <trkpt lat="45.98834" lon="4.82102">
        <ele>236</ele>
        <time>2018-05-23T08:58:22Z</time>
      </trkpt>
      <trkpt lat="45.98835" lon="4.82112">
        <ele>236</ele>
        <time>2018-05-23T08:58:23Z</time>
      </trkpt>
      <trkpt lat="45.98837" lon="4.82121">
        <ele>236</ele>
        <time>2018-05-23T08:58:24Z</time>
      </trkpt>
      <trkpt lat="45.98839" lon="4.8213">
        <ele>236</ele>
        <time>2018-05-23T08:58:25Z</time>
      </trkpt>
      <trkpt lat="45.98841" lon="4.82139">
        <ele>236</ele>
        <time>2018-05-23T08:58:26Z</time>
      </trkpt>
      <trkpt lat="45.98842" lon="4.82147">
        <ele>236</ele>
        <time>2018-05-23T08:58:27Z</time>
      </trkpt>
      <trkpt lat="45.98844" lon="4.82154">
        <ele>236</ele>
        <time>2018-05-23T08:58:28Z</time>
      </trkpt>
      <trkpt lat="45.98846" lon="4.82162">
        <ele>236</ele>
        <time>2018-05-23T08:58:29Z</time>
      </trkpt>
      <trkpt lat="45.98849" lon="4.82169">
        <ele>236</ele>
        <time>2018-05-23T08:58:30Z</time>
      </trkpt>
      <trkpt lat="45.98851" lon="4.82177">
        <ele>236</ele>
        <time>2018-05-23T08:58:31Z</time>
      </trkpt>
      <trkpt lat="45.98854" lon="4.82184">
        <ele>236</ele>
        <time>2018-05-23T08:58:32Z</time>
      </trkpt>
      <trkpt lat="45.98856" lon="4.82192">
        <ele>236</ele>
        <time>2018-05-23T08:58:33Z</time>
      </trkpt>
      <trkpt lat="45.98859" lon="4.82198">
        <ele>236</ele>
        <time>2018-05-23T08:58:34Z</time>
      </trkpt>
      <trkpt lat="45.98862" lon="4.82207">
        <ele>236</ele>
        <time>2018-05-23T08:58:35Z</time>
      </trkpt>
      <trkpt lat="45.98865" lon="4.82215">
        <ele>236</ele>
        <time>2018-05-23T08:58:36Z</time>
      </trkpt>
      <trkpt lat="45.98868" lon="4.82222">
        <ele>236</ele>
        <time>2018-05-23T08:58:37Z</time>
      </trkpt>
      <trkpt lat="45.98871" lon="4.8223">
        <ele>236</ele>
        <time>2018-05-23T08:58:38Z</time>
      </trkpt>
      <trkpt lat="45.98874" lon="4.82237">
        <ele>236</ele>
        <time>2018-05-23T08:58:39Z</time>
      </trkpt>
      <trkpt lat="45.98877" lon="4.82244">
        <ele>236</ele>
        <time>2018-05-23T08:58:40Z</time>
      </trkpt>
      <trkpt lat="45.9888" lon="4.82251">
        <ele>237</ele>
        <time>2018-05-23T08:58:41Z</time>
      </trkpt>
      <trkpt lat="45.98884" lon="4.82256">
        <ele>236</ele>
        <time>2018-05-23T08:58:42Z</time>
      </trkpt>
      <trkpt lat="45.98888" lon="4.82261">
        <ele>236</ele>
        <time>2018-05-23T08:58:43Z</time>
      </trkpt>
      <trkpt lat="45.98892" lon="4.82268">
        <ele>236</ele>
        <time>2018-05-23T08:58:44Z</time>
      </trkpt>
      <trkpt lat="45.98896" lon="4.82276">
        <ele>236</ele>
        <time>2018-05-23T08:58:45Z</time>
      </trkpt>
      <trkpt lat="45.989" lon="4.82283">
        <ele>236</ele>
        <time>2018-05-23T08:58:46Z</time>
      </trkpt>
      <trkpt lat="45.98904" lon="4.82289">
        <ele>237</ele>
        <time>2018-05-23T08:58:47Z</time>
      </trkpt>
      <trkpt lat="45.98909" lon="4.82294">
        <ele>237</ele>
        <time>2018-05-23T08:58:48Z</time>
      </trkpt>
      <trkpt lat="45.98914" lon="4.82299">
        <ele>237</ele>
        <time>2018-05-23T08:58:49Z</time>
      </trkpt>
      <trkpt lat="45.98918" lon="4.82304">
        <ele>234</ele>
        <time>2018-05-23T08:58:50Z</time>
      </trkpt>
      <trkpt lat="45.98922" lon="4.82309">
        <ele>235</ele>
        <time>2018-05-23T08:58:51Z</time>
      </trkpt>
      <trkpt lat="45.98927" lon="4.82314">
        <ele>235</ele>
        <time>2018-05-23T08:58:52Z</time>
      </trkpt>
      <trkpt lat="45.98932" lon="4.82319">
        <ele>235</ele>
        <time>2018-05-23T08:58:53Z</time>
      </trkpt>
      <trkpt lat="45.98937" lon="4.82324">
        <ele>235</ele>
        <time>2018-05-23T08:58:54Z</time>
      </trkpt>
      <trkpt lat="45.98941" lon="4.8233">
        <ele>234</ele>
        <time>2018-05-23T08:58:55Z</time>
      </trkpt>
      <trkpt lat="45.98946" lon="4.82335">
        <ele>235</ele>
        <time>2018-05-23T08:58:56Z</time>
      </trkpt>
      <trkpt lat="45.9895" lon="4.82342">
        <ele>235</ele>
        <time>2018-05-23T08:58:57Z</time>
      </trkpt>
      <trkpt lat="45.98953" lon="4.82349">
        <ele>235</ele>
        <time>2018-05-23T08:58:58Z</time>
      </trkpt>
      <trkpt lat="45.98956" lon="4.82356">
        <ele>235</ele>
        <time>2018-05-23T08:58:59Z</time>
      </trkpt>
      <trkpt lat="45.98958" lon="4.82363">
        <ele>235</ele>
        <time>2018-05-23T08:59:00Z</time>
      </trkpt>
      <trkpt lat="45.9896" lon="4.82371">
        <ele>235</ele>
        <time>2018-05-23T08:59:01Z</time>
      </trkpt>
      <trkpt lat="45.98962" lon="4.82378">
        <ele>235</ele>
        <time>2018-05-23T08:59:02Z</time>
      </trkpt>
      <trkpt lat="45.98964" lon="4.82386">
        <ele>235</ele>
        <time>2018-05-23T08:59:03Z</time>
      </trkpt>
      <trkpt lat="45.98966" lon="4.82393">
        <ele>235</ele>
        <time>2018-05-23T08:59:04Z</time>
      </trkpt>
      <trkpt lat="45.98968" lon="4.824">
        <ele>235</ele>
        <time>2018-05-23T08:59:05Z</time>
      </trkpt>
      <trkpt lat="45.98971" lon="4.82408">
        <ele>235</ele>
        <time>2018-05-23T08:59:06Z</time>
      </trkpt>
      <trkpt lat="45.98973" lon="4.82416">
        <ele>235</ele>
        <time>2018-05-23T08:59:07Z</time>
      </trkpt>
      <trkpt lat="45.98975" lon="4.82424">
        <ele>236</ele>
        <time>2018-05-23T08:59:08Z</time>
      </trkpt>
      <trkpt lat="45.98977" lon="4.82432">
        <ele>236</ele>
        <time>2018-05-23T08:59:09Z</time>
      </trkpt>
      <trkpt lat="45.98979" lon="4.8244">
        <ele>236</ele>
        <time>2018-05-23T08:59:10Z</time>
      </trkpt>
      <trkpt lat="45.98981" lon="4.82447">
        <ele>236</ele>
        <time>2018-05-23T08:59:11Z</time>
      </trkpt>
      <trkpt lat="45.98982" lon="4.82454">
        <ele>236</ele>
        <time>2018-05-23T08:59:12Z</time>
      </trkpt>
      <trkpt lat="45.98984" lon="4.82463">
        <ele>236</ele>
        <time>2018-05-23T08:59:13Z</time>
      </trkpt>
      <trkpt lat="45.98986" lon="4.8247">
        <ele>236</ele>
        <time>2018-05-23T08:59:14Z</time>
      </trkpt>
      <trkpt lat="45.98991" lon="4.82477">
        <ele>236</ele>
        <time>2018-05-23T08:59:15Z</time>
      </trkpt>
      <trkpt lat="45.98993" lon="4.82485">
        <ele>236</ele>
        <time>2018-05-23T08:59:16Z</time>
      </trkpt>
      <trkpt lat="45.98995" lon="4.82492">
        <ele>236</ele>
        <time>2018-05-23T08:59:17Z</time>
      </trkpt>
      <trkpt lat="45.98999" lon="4.82501">
        <ele>235</ele>
        <time>2018-05-23T08:59:18Z</time>
      </trkpt>
      <trkpt lat="45.99002" lon="4.82508">
        <ele>235</ele>
        <time>2018-05-23T08:59:19Z</time>
      </trkpt>
      <trkpt lat="45.99003" lon="4.82514">
        <ele>235</ele>
        <time>2018-05-23T08:59:20Z</time>
      </trkpt>
      <trkpt lat="45.99006" lon="4.8252">
        <ele>235</ele>
        <time>2018-05-23T08:59:21Z</time>
      </trkpt>
      <trkpt lat="45.99011" lon="4.82525">
        <ele>235</ele>
        <time>2018-05-23T08:59:22Z</time>
      </trkpt>
      <trkpt lat="45.99015" lon="4.82531">
        <ele>235</ele>
        <time>2018-05-23T08:59:23Z</time>
      </trkpt>
      <trkpt lat="45.99018" lon="4.82538">
        <ele>235</ele>
        <time>2018-05-23T08:59:24Z</time>
      </trkpt>
      <trkpt lat="45.99022" lon="4.82543">
        <ele>235</ele>
        <time>2018-05-23T08:59:25Z</time>
      </trkpt>
      <trkpt lat="45.99026" lon="4.82548">
        <ele>235</ele>
        <time>2018-05-23T08:59:26Z</time>
      </trkpt>
      <trkpt lat="45.99032" lon="4.82551">
        <ele>235</ele>
        <time>2018-05-23T08:59:27Z</time>
      </trkpt>
      <trkpt lat="45.99037" lon="4.82555">
        <ele>235</ele>
        <time>2018-05-23T08:59:28Z</time>
      </trkpt>
      <trkpt lat="45.99041" lon="4.8256">
        <ele>235</ele>
        <time>2018-05-23T08:59:29Z</time>
      </trkpt>
      <trkpt lat="45.99046" lon="4.82564">
        <ele>235</ele>
        <time>2018-05-23T08:59:30Z</time>
      </trkpt>
      <trkpt lat="45.99051" lon="4.82566">
        <ele>235</ele>
        <time>2018-05-23T08:59:31Z</time>
      </trkpt>
      <trkpt lat="45.99057" lon="4.82569">
        <ele>235</ele>
        <time>2018-05-23T08:59:32Z</time>
      </trkpt>
      <trkpt lat="45.99062" lon="4.8257">
        <ele>235</ele>
        <time>2018-05-23T08:59:33Z</time>
      </trkpt>
      <trkpt lat="45.99067" lon="4.82571">
        <ele>235</ele>
        <time>2018-05-23T08:59:34Z</time>
      </trkpt>
      <trkpt lat="45.99075" lon="4.82576">
        <ele>235</ele>
        <time>2018-05-23T08:59:36Z</time>
      </trkpt>
      <trkpt lat="45.99076" lon="4.82579">
        <ele>235</ele>
        <time>2018-05-23T08:59:37Z</time>
      </trkpt>
      <trkpt lat="45.99077" lon="4.82586">
        <ele>235</ele>
        <time>2018-05-23T08:59:38Z</time>
      </trkpt>
      <trkpt lat="45.99074" lon="4.82594">
        <ele>235</ele>
        <time>2018-05-23T08:59:39Z</time>
      </trkpt>
      <trkpt lat="45.99071" lon="4.82604">
        <ele>236</ele>
        <time>2018-05-23T08:59:43Z</time>
      </trkpt>
      <trkpt lat="45.9907" lon="4.82607">
        <ele>236</ele>
        <time>2018-05-23T08:59:44Z</time>
      </trkpt>
      <trkpt lat="45.99065" lon="4.82616">
        <ele>236</ele>
        <time>2018-05-23T08:59:45Z</time>
      </trkpt>
      <trkpt lat="45.99063" lon="4.82621">
        <ele>236</ele>
        <time>2018-05-23T08:59:46Z</time>
      </trkpt>
      <trkpt lat="45.99061" lon="4.82626">
        <ele>236</ele>
        <time>2018-05-23T08:59:48Z</time>
      </trkpt>
      <trkpt lat="45.99057" lon="4.82635">
        <ele>236</ele>
        <time>2018-05-23T08:59:49Z</time>
      </trkpt>
      <trkpt lat="45.99053" lon="4.82645">
        <ele>236</ele>
        <time>2018-05-23T08:59:52Z</time>
      </trkpt>
      <trkpt lat="45.99051" lon="4.82648">
        <ele>236</ele>
        <time>2018-05-23T08:59:53Z</time>
      </trkpt>
      <trkpt lat="45.99048" lon="4.82659">
        <ele>236</ele>
        <time>2018-05-23T08:59:56Z</time>
      </trkpt>
      <trkpt lat="45.99046" lon="4.82663">
        <ele>236</ele>
        <time>2018-05-23T08:59:57Z</time>
      </trkpt>
      <trkpt lat="45.99043" lon="4.82671">
        <ele>238</ele>
        <time>2018-05-23T08:59:59Z</time>
      </trkpt>
      <trkpt lat="45.99042" lon="4.82674">
        <ele>238</ele>
        <time>2018-05-23T09:00:00Z</time>
      </trkpt>
      <trkpt lat="45.99039" lon="4.82682">
        <ele>238</ele>
        <time>2018-05-23T09:00:02Z</time>
      </trkpt>
      <trkpt lat="45.99037" lon="4.82686">
        <ele>238</ele>
        <time>2018-05-23T09:00:03Z</time>
      </trkpt>
      <trkpt lat="45.99032" lon="4.82697">
        <ele>238</ele>
        <time>2018-05-23T09:00:06Z</time>
      </trkpt>
      <trkpt lat="45.99031" lon="4.827">
        <ele>238</ele>
        <time>2018-05-23T09:00:07Z</time>
      </trkpt>
      <trkpt lat="45.99026" lon="4.82711">
        <ele>238</ele>
        <time>2018-05-23T09:00:10Z</time>
      </trkpt>
      <trkpt lat="45.99025" lon="4.82714">
        <ele>238</ele>
        <time>2018-05-23T09:00:11Z</time>
      </trkpt>
      <trkpt lat="45.9902" lon="4.82724">
        <ele>239</ele>
        <time>2018-05-23T09:00:14Z</time>
      </trkpt>
      <trkpt lat="45.99018" lon="4.82727">
        <ele>239</ele>
        <time>2018-05-23T09:00:15Z</time>
      </trkpt>
      <trkpt lat="45.99014" lon="4.82737">
        <ele>239</ele>
        <time>2018-05-23T09:00:18Z</time>
      </trkpt>
      <trkpt lat="45.99012" lon="4.8274">
        <ele>240</ele>
        <time>2018-05-23T09:00:19Z</time>
      </trkpt>
      <trkpt lat="45.99008" lon="4.8275">
        <ele>240</ele>
        <time>2018-05-23T09:00:22Z</time>
      </trkpt>
      <trkpt lat="45.99006" lon="4.82753">
        <ele>241</ele>
        <time>2018-05-23T09:00:23Z</time>
      </trkpt>
      <trkpt lat="45.99002" lon="4.82761">
        <ele>241</ele>
        <time>2018-05-23T09:00:26Z</time>
      </trkpt>
      <trkpt lat="45.99001" lon="4.82765">
        <ele>241</ele>
        <time>2018-05-23T09:00:27Z</time>
      </trkpt>
      <trkpt lat="45.98996" lon="4.82773">
        <ele>246</ele>
        <time>2018-05-23T09:00:30Z</time>
      </trkpt>
      <trkpt lat="45.98995" lon="4.82776">
        <ele>246</ele>
        <time>2018-05-23T09:00:31Z</time>
      </trkpt>
      <trkpt lat="45.9899" lon="4.82785">
        <ele>247</ele>
        <time>2018-05-23T09:00:34Z</time>
      </trkpt>
      <trkpt lat="45.98989" lon="4.82788">
        <ele>247</ele>
        <time>2018-05-23T09:00:35Z</time>
      </trkpt>
      <trkpt lat="45.98985" lon="4.82797">
        <ele>248</ele>
        <time>2018-05-23T09:00:38Z</time>
      </trkpt>
      <trkpt lat="45.98984" lon="4.828">
        <ele>248</ele>
        <time>2018-05-23T09:00:39Z</time>
      </trkpt>
      <trkpt lat="45.9898" lon="4.82808">
        <ele>248</ele>
        <time>2018-05-23T09:00:42Z</time>
      </trkpt>
      <trkpt lat="45.98979" lon="4.82811">
        <ele>248</ele>
        <time>2018-05-23T09:00:43Z</time>
      </trkpt>
      <trkpt lat="45.98975" lon="4.82819">
        <ele>249</ele>
        <time>2018-05-23T09:00:46Z</time>
      </trkpt>
      <trkpt lat="45.98974" lon="4.82822">
        <ele>249</ele>
        <time>2018-05-23T09:00:47Z</time>
      </trkpt>
      <trkpt lat="45.9897" lon="4.82831">
        <ele>249</ele>
        <time>2018-05-23T09:00:50Z</time>
      </trkpt>
      <trkpt lat="45.98968" lon="4.82834">
        <ele>251</ele>
        <time>2018-05-23T09:00:51Z</time>
      </trkpt>
      <trkpt lat="45.98965" lon="4.82842">
        <ele>252</ele>
        <time>2018-05-23T09:00:54Z</time>
      </trkpt>
      <trkpt lat="45.98964" lon="4.82845">
        <ele>252</ele>
        <time>2018-05-23T09:00:55Z</time>
      </trkpt>
      <trkpt lat="45.98961" lon="4.82856">
        <ele>252</ele>
        <time>2018-05-23T09:00:59Z</time>
      </trkpt>
      <trkpt lat="45.9896" lon="4.82858">
        <ele>252</ele>
        <time>2018-05-23T09:01:00Z</time>
      </trkpt>
      <trkpt lat="45.98956" lon="4.82867">
        <ele>252</ele>
        <time>2018-05-23T09:01:04Z</time>
      </trkpt>
      <trkpt lat="45.98954" lon="4.8287">
        <ele>253</ele>
        <time>2018-05-23T09:01:05Z</time>
      </trkpt>
      <trkpt lat="45.98949" lon="4.8288">
        <ele>253</ele>
        <time>2018-05-23T09:01:09Z</time>
      </trkpt>
      <trkpt lat="45.98948" lon="4.82882">
        <ele>253</ele>
        <time>2018-05-23T09:01:10Z</time>
      </trkpt>
      <trkpt lat="45.98944" lon="4.82893">
        <ele>253</ele>
        <time>2018-05-23T09:01:14Z</time>
      </trkpt>
      <trkpt lat="45.98943" lon="4.82896">
        <ele>253</ele>
        <time>2018-05-23T09:01:15Z</time>
      </trkpt>
      <trkpt lat="45.98939" lon="4.82907">
        <ele>254</ele>
        <time>2018-05-23T09:01:19Z</time>
      </trkpt>
      <trkpt lat="45.98937" lon="4.82909">
        <ele>254</ele>
        <time>2018-05-23T09:01:20Z</time>
      </trkpt>
      <trkpt lat="45.98933" lon="4.8292">
        <ele>255</ele>
        <time>2018-05-23T09:01:24Z</time>
      </trkpt>
      <trkpt lat="45.98931" lon="4.82923">
        <ele>255</ele>
        <time>2018-05-23T09:01:25Z</time>
      </trkpt>
      <trkpt lat="45.98927" lon="4.82934">
        <ele>255</ele>
        <time>2018-05-23T09:01:29Z</time>
      </trkpt>
      <trkpt lat="45.98926" lon="4.82936">
        <ele>255</ele>
        <time>2018-05-23T09:01:30Z</time>
      </trkpt>
      <trkpt lat="45.98922" lon="4.82946">
        <ele>255</ele>
        <time>2018-05-23T09:01:34Z</time>
      </trkpt>
      <trkpt lat="45.9892" lon="4.82949">
        <ele>255</ele>
        <time>2018-05-23T09:01:35Z</time>
      </trkpt>
      <trkpt lat="45.98915" lon="4.82958">
        <ele>258</ele>
        <time>2018-05-23T09:01:39Z</time>
      </trkpt>
      <trkpt lat="45.98914" lon="4.8296">
        <ele>258</ele>
        <time>2018-05-23T09:01:40Z</time>
      </trkpt>
      <trkpt lat="45.98909" lon="4.82968">
        <ele>259</ele>
        <time>2018-05-23T09:01:44Z</time>
      </trkpt>
      <trkpt lat="45.98908" lon="4.82971">
        <ele>259</ele>
        <time>2018-05-23T09:01:45Z</time>
      </trkpt>
      <trkpt lat="45.98902" lon="4.82977">
        <ele>259</ele>
        <time>2018-05-23T09:01:49Z</time>
      </trkpt>
      <trkpt lat="45.98901" lon="4.82978">
        <ele>259</ele>
        <time>2018-05-23T09:01:50Z</time>
      </trkpt>
      <trkpt lat="45.98893" lon="4.82984">
        <ele>259</ele>
        <time>2018-05-23T09:01:55Z</time>
      </trkpt>
      <trkpt lat="45.98892" lon="4.82985">
        <ele>259</ele>
        <time>2018-05-23T09:01:56Z</time>
      </trkpt>
      <trkpt lat="45.98885" lon="4.8299">
        <ele>259</ele>
        <time>2018-05-23T09:02:00Z</time>
      </trkpt>
      <trkpt lat="45.98883" lon="4.8299">
        <ele>259</ele>
        <time>2018-05-23T09:02:01Z</time>
      </trkpt>
      <trkpt lat="45.98876" lon="4.82994">
        <ele>260</ele>
        <time>2018-05-23T09:02:05Z</time>
      </trkpt>
      <trkpt lat="45.98874" lon="4.82996">
        <ele>260</ele>
        <time>2018-05-23T09:02:06Z</time>
      </trkpt>
      <trkpt lat="45.98868" lon="4.83001">
        <ele>260</ele>
        <time>2018-05-23T09:02:10Z</time>
      </trkpt>
      <trkpt lat="45.98866" lon="4.83002">
        <ele>260</ele>
        <time>2018-05-23T09:02:11Z</time>
      </trkpt>
      <trkpt lat="45.98858" lon="4.83007">
        <ele>261</ele>
        <time>2018-05-23T09:02:15Z</time>
      </trkpt>
      <trkpt lat="45.98857" lon="4.83008">
        <ele>261</ele>
        <time>2018-05-23T09:02:16Z</time>
      </trkpt>
      <trkpt lat="45.98849" lon="4.83011">
        <ele>261</ele>
        <time>2018-05-23T09:02:20Z</time>
      </trkpt>
      <trkpt lat="45.98847" lon="4.83013">
        <ele>261</ele>
        <time>2018-05-23T09:02:21Z</time>
      </trkpt>
      <trkpt lat="45.9884" lon="4.83018">
        <ele>261</ele>
        <time>2018-05-23T09:02:25Z</time>
      </trkpt>
      <trkpt lat="45.98839" lon="4.83019">
        <ele>261</ele>
        <time>2018-05-23T09:02:26Z</time>
      </trkpt>
      <trkpt lat="45.98832" lon="4.83025">
        <ele>264</ele>
        <time>2018-05-23T09:02:30Z</time>
      </trkpt>
      <trkpt lat="45.98829" lon="4.83026">
        <ele>264</ele>
        <time>2018-05-23T09:02:31Z</time>
      </trkpt>
      <trkpt lat="45.98823" lon="4.83029">
        <ele>264</ele>
        <time>2018-05-23T09:02:34Z</time>
      </trkpt>
      <trkpt lat="45.9882" lon="4.8303">
        <ele>264</ele>
        <time>2018-05-23T09:02:35Z</time>
      </trkpt>
      <trkpt lat="45.98814" lon="4.83035">
        <ele>264</ele>
        <time>2018-05-23T09:02:38Z</time>
      </trkpt>
      <trkpt lat="45.98812" lon="4.83036">
        <ele>264</ele>
        <time>2018-05-23T09:02:39Z</time>
      </trkpt>
      <trkpt lat="45.98806" lon="4.83043">
        <ele>264</ele>
        <time>2018-05-23T09:02:42Z</time>
      </trkpt>
      <trkpt lat="45.98804" lon="4.83044">
        <ele>264</ele>
        <time>2018-05-23T09:02:43Z</time>
      </trkpt>
      <trkpt lat="45.98797" lon="4.8305">
        <ele>264</ele>
        <time>2018-05-23T09:02:46Z</time>
      </trkpt>
      <trkpt lat="45.98795" lon="4.83052">
        <ele>265</ele>
        <time>2018-05-23T09:02:47Z</time>
      </trkpt>
      <trkpt lat="45.98788" lon="4.83058">
        <ele>265</ele>
        <time>2018-05-23T09:02:50Z</time>
      </trkpt>
      <trkpt lat="45.98786" lon="4.8306">
        <ele>265</ele>
        <time>2018-05-23T09:02:51Z</time>
      </trkpt>
      <trkpt lat="45.98779" lon="4.83066">
        <ele>265</ele>
        <time>2018-05-23T09:02:54Z</time>
      </trkpt>
      <trkpt lat="45.98777" lon="4.83068">
        <ele>265</ele>
        <time>2018-05-23T09:02:55Z</time>
      </trkpt>
      <trkpt lat="45.98771" lon="4.83073">
        <ele>266</ele>
        <time>2018-05-23T09:02:58Z</time>
      </trkpt>
      <trkpt lat="45.98769" lon="4.83075">
        <ele>266</ele>
        <time>2018-05-23T09:02:59Z</time>
      </trkpt>
      <trkpt lat="45.98762" lon="4.83081">
        <ele>266</ele>
        <time>2018-05-23T09:03:02Z</time>
      </trkpt>
      <trkpt lat="45.9876" lon="4.83083">
        <ele>266</ele>
        <time>2018-05-23T09:03:03Z</time>
      </trkpt>
      <trkpt lat="45.98754" lon="4.83088">
        <ele>266</ele>
        <time>2018-05-23T09:03:06Z</time>
      </trkpt>
      <trkpt lat="45.98751" lon="4.8309">
        <ele>266</ele>
        <time>2018-05-23T09:03:07Z</time>
      </trkpt>
      <trkpt lat="45.98745" lon="4.83097">
        <ele>267</ele>
        <time>2018-05-23T09:03:10Z</time>
      </trkpt>
      <trkpt lat="45.98743" lon="4.83099">
        <ele>267</ele>
        <time>2018-05-23T09:03:11Z</time>
      </trkpt>
      <trkpt lat="45.98736" lon="4.83105">
        <ele>267</ele>
        <time>2018-05-23T09:03:14Z</time>
      </trkpt>
      <trkpt lat="45.98733" lon="4.83107">
        <ele>267</ele>
        <time>2018-05-23T09:03:15Z</time>
      </trkpt>
      <trkpt lat="45.98728" lon="4.83111">
        <ele>267</ele>
        <time>2018-05-23T09:03:17Z</time>
      </trkpt>
      <trkpt lat="45.98726" lon="4.83113">
        <ele>267</ele>
        <time>2018-05-23T09:03:18Z</time>
      </trkpt>
      <trkpt lat="45.98719" lon="4.83118">
        <ele>267</ele>
        <time>2018-05-23T09:03:20Z</time>
      </trkpt>
      <trkpt lat="45.98711" lon="4.83125">
        <ele>266</ele>
        <time>2018-05-23T09:03:21Z</time>
      </trkpt>
      <trkpt lat="45.98705" lon="4.8313">
        <ele>266</ele>
        <time>2018-05-23T09:03:23Z</time>
      </trkpt>
      <trkpt lat="45.98701" lon="4.83133">
        <ele>266</ele>
        <time>2018-05-23T09:03:24Z</time>
      </trkpt>
      <trkpt lat="45.98695" lon="4.8314">
        <ele>266</ele>
        <time>2018-05-23T09:03:26Z</time>
      </trkpt>
      <trkpt lat="45.98691" lon="4.83143">
        <ele>266</ele>
        <time>2018-05-23T09:03:27Z</time>
      </trkpt>
      <trkpt lat="45.98684" lon="4.83148">
        <ele>266</ele>
        <time>2018-05-23T09:03:29Z</time>
      </trkpt>
      <trkpt lat="45.98681" lon="4.8315">
        <ele>266</ele>
        <time>2018-05-23T09:03:30Z</time>
      </trkpt>
      <trkpt lat="45.98674" lon="4.83155">
        <ele>266</ele>
        <time>2018-05-23T09:03:32Z</time>
      </trkpt>
      <trkpt lat="45.9867" lon="4.83157">
        <ele>266</ele>
        <time>2018-05-23T09:03:33Z</time>
      </trkpt>
      <trkpt lat="45.98663" lon="4.83163">
        <ele>266</ele>
        <time>2018-05-23T09:03:35Z</time>
      </trkpt>
      <trkpt lat="45.98659" lon="4.83166">
        <ele>266</ele>
        <time>2018-05-23T09:03:36Z</time>
      </trkpt>
      <trkpt lat="45.98653" lon="4.83172">
        <ele>267</ele>
        <time>2018-05-23T09:03:38Z</time>
      </trkpt>
      <trkpt lat="45.98649" lon="4.83174">
        <ele>267</ele>
        <time>2018-05-23T09:03:39Z</time>
      </trkpt>
      <trkpt lat="45.98642" lon="4.83181">
        <ele>267</ele>
        <time>2018-05-23T09:03:41Z</time>
      </trkpt>
      <trkpt lat="45.98639" lon="4.83184">
        <ele>267</ele>
        <time>2018-05-23T09:03:42Z</time>
      </trkpt>
      <trkpt lat="45.98632" lon="4.83191">
        <ele>267</ele>
        <time>2018-05-23T09:03:44Z</time>
      </trkpt>
      <trkpt lat="45.98629" lon="4.83194">
        <ele>267</ele>
        <time>2018-05-23T09:03:45Z</time>
      </trkpt>
      <trkpt lat="45.98622" lon="4.83202">
        <ele>267</ele>
        <time>2018-05-23T09:03:47Z</time>
      </trkpt>
      <trkpt lat="45.98619" lon="4.83206">
        <ele>267</ele>
        <time>2018-05-23T09:03:48Z</time>
      </trkpt>
      <trkpt lat="45.98613" lon="4.83214">
        <ele>267</ele>
        <time>2018-05-23T09:03:50Z</time>
      </trkpt>
      <trkpt lat="45.98611" lon="4.83218">
        <ele>267</ele>
        <time>2018-05-23T09:03:51Z</time>
      </trkpt>
      <trkpt lat="45.98605" lon="4.83226">
        <ele>267</ele>
        <time>2018-05-23T09:03:53Z</time>
      </trkpt>
      <trkpt lat="45.98602" lon="4.8323">
        <ele>268</ele>
        <time>2018-05-23T09:03:54Z</time>
      </trkpt>
      <trkpt lat="45.98597" lon="4.83239">
        <ele>268</ele>
        <time>2018-05-23T09:03:56Z</time>
      </trkpt>
      <trkpt lat="45.98593" lon="4.83244">
        <ele>268</ele>
        <time>2018-05-23T09:03:57Z</time>
      </trkpt>
      <trkpt lat="45.9859" lon="4.83249">
        <ele>268</ele>
        <time>2018-05-23T09:03:58Z</time>
      </trkpt>
      <trkpt lat="45.98586" lon="4.83254">
        <ele>268</ele>
        <time>2018-05-23T09:03:59Z</time>
      </trkpt>
      <trkpt lat="45.98582" lon="4.83258">
        <ele>268</ele>
        <time>2018-05-23T09:04:00Z</time>
      </trkpt>
      <trkpt lat="45.98578" lon="4.83262">
        <ele>269</ele>
        <time>2018-05-23T09:04:01Z</time>
      </trkpt>
      <trkpt lat="45.98575" lon="4.83267">
        <ele>269</ele>
        <time>2018-05-23T09:04:02Z</time>
      </trkpt>
      <trkpt lat="45.98571" lon="4.83272">
        <ele>269</ele>
        <time>2018-05-23T09:04:03Z</time>
      </trkpt>
      <trkpt lat="45.98568" lon="4.83277">
        <ele>269</ele>
        <time>2018-05-23T09:04:04Z</time>
      </trkpt>
      <trkpt lat="45.98564" lon="4.83282">
        <ele>269</ele>
        <time>2018-05-23T09:04:05Z</time>
      </trkpt>
      <trkpt lat="45.98558" lon="4.8329">
        <ele>269</ele>
        <time>2018-05-23T09:04:07Z</time>
      </trkpt>
      <trkpt lat="45.98555" lon="4.83294">
        <ele>269</ele>
        <time>2018-05-23T09:04:08Z</time>
      </trkpt>
      <trkpt lat="45.98551" lon="4.83299">
        <ele>269</ele>
        <time>2018-05-23T09:04:09Z</time>
      </trkpt>
      <trkpt lat="45.98548" lon="4.83303">
        <ele>269</ele>
        <time>2018-05-23T09:04:10Z</time>
      </trkpt>
      <trkpt lat="45.98542" lon="4.83311">
        <ele>269</ele>
        <time>2018-05-23T09:04:12Z</time>
      </trkpt>
      <trkpt lat="45.98538" lon="4.83315">
        <ele>269</ele>
        <time>2018-05-23T09:04:13Z</time>
      </trkpt>
      <trkpt lat="45.98535" lon="4.8332">
        <ele>269</ele>
        <time>2018-05-23T09:04:14Z</time>
      </trkpt>
      <trkpt lat="45.98531" lon="4.83325">
        <ele>269</ele>
        <time>2018-05-23T09:04:15Z</time>
      </trkpt>
      <trkpt lat="45.98528" lon="4.8333">
        <ele>269</ele>
        <time>2018-05-23T09:04:16Z</time>
      </trkpt>
      <trkpt lat="45.98525" lon="4.83334">
        <ele>270</ele>
        <time>2018-05-23T09:04:17Z</time>
      </trkpt>
      <trkpt lat="45.98522" lon="4.83339">
        <ele>270</ele>
        <time>2018-05-23T09:04:18Z</time>
      </trkpt>
      <trkpt lat="45.98518" lon="4.83344">
        <ele>270</ele>
        <time>2018-05-23T09:04:19Z</time>
      </trkpt>
      <trkpt lat="45.98514" lon="4.83349">
        <ele>270</ele>
        <time>2018-05-23T09:04:20Z</time>
      </trkpt>
      <trkpt lat="45.98511" lon="4.83355">
        <ele>270</ele>
        <time>2018-05-23T09:04:21Z</time>
      </trkpt>
      <trkpt lat="45.98508" lon="4.83361">
        <ele>269</ele>
        <time>2018-05-23T09:04:22Z</time>
      </trkpt>
      <trkpt lat="45.98504" lon="4.83366">
        <ele>269</ele>
        <time>2018-05-23T09:04:23Z</time>
      </trkpt>
      <trkpt lat="45.98499" lon="4.83371">
        <ele>270</ele>
        <time>2018-05-23T09:04:24Z</time>
      </trkpt>
      <trkpt lat="45.98496" lon="4.83377">
        <ele>269</ele>
        <time>2018-05-23T09:04:25Z</time>
      </trkpt>
      <trkpt lat="45.98492" lon="4.83383">
        <ele>269</ele>
        <time>2018-05-23T09:04:26Z</time>
      </trkpt>
      <trkpt lat="45.98488" lon="4.83388">
        <ele>269</ele>
        <time>2018-05-23T09:04:27Z</time>
      </trkpt>
      <trkpt lat="45.98484" lon="4.83393">
        <ele>269</ele>
        <time>2018-05-23T09:04:28Z</time>
      </trkpt>
      <trkpt lat="45.98479" lon="4.83397">
        <ele>269</ele>
        <time>2018-05-23T09:04:29Z</time>
      </trkpt>
      <trkpt lat="45.98476" lon="4.83403">
        <ele>269</ele>
        <time>2018-05-23T09:04:30Z</time>
      </trkpt>
      <trkpt lat="45.98472" lon="4.83408">
        <ele>269</ele>
        <time>2018-05-23T09:04:31Z</time>
      </trkpt>
      <trkpt lat="45.98468" lon="4.83413">
        <ele>269</ele>
        <time>2018-05-23T09:04:32Z</time>
      </trkpt>
      <trkpt lat="45.98463" lon="4.83418">
        <ele>269</ele>
        <time>2018-05-23T09:04:33Z</time>
      </trkpt>
      <trkpt lat="45.9846" lon="4.83422">
        <ele>269</ele>
        <time>2018-05-23T09:04:34Z</time>
      </trkpt>
      <trkpt lat="45.98456" lon="4.83427">
        <ele>268</ele>
        <time>2018-05-23T09:04:35Z</time>
      </trkpt>
      <trkpt lat="45.98452" lon="4.83433">
        <ele>268</ele>
        <time>2018-05-23T09:04:36Z</time>
      </trkpt>
      <trkpt lat="45.98448" lon="4.83438">
        <ele>268</ele>
        <time>2018-05-23T09:04:37Z</time>
      </trkpt>
      <trkpt lat="45.98443" lon="4.83443">
        <ele>268</ele>
        <time>2018-05-23T09:04:38Z</time>
      </trkpt>
      <trkpt lat="45.98439" lon="4.83448">
        <ele>268</ele>
        <time>2018-05-23T09:04:39Z</time>
      </trkpt>
      <trkpt lat="45.98435" lon="4.83454">
        <ele>268</ele>
        <time>2018-05-23T09:04:40Z</time>
      </trkpt>
      <trkpt lat="45.98432" lon="4.8346">
        <ele>268</ele>
        <time>2018-05-23T09:04:41Z</time>
      </trkpt>
      <trkpt lat="45.98428" lon="4.83466">
        <ele>268</ele>
        <time>2018-05-23T09:04:42Z</time>
      </trkpt>
      <trkpt lat="45.98424" lon="4.83472">
        <ele>268</ele>
        <time>2018-05-23T09:04:43Z</time>
      </trkpt>
      <trkpt lat="45.9842" lon="4.83478">
        <ele>268</ele>
        <time>2018-05-23T09:04:44Z</time>
      </trkpt>
      <trkpt lat="45.98415" lon="4.83483">
        <ele>269</ele>
        <time>2018-05-23T09:04:45Z</time>
      </trkpt>
      <trkpt lat="45.98411" lon="4.83489">
        <ele>269</ele>
        <time>2018-05-23T09:04:46Z</time>
      </trkpt>
      <trkpt lat="45.98407" lon="4.83494">
        <ele>268</ele>
        <time>2018-05-23T09:04:47Z</time>
      </trkpt>
      <trkpt lat="45.98403" lon="4.83499">
        <ele>269</ele>
        <time>2018-05-23T09:04:48Z</time>
      </trkpt>
      <trkpt lat="45.98399" lon="4.83505">
        <ele>269</ele>
        <time>2018-05-23T09:04:49Z</time>
      </trkpt>
      <trkpt lat="45.98395" lon="4.83509">
        <ele>269</ele>
        <time>2018-05-23T09:04:50Z</time>
      </trkpt>
      <trkpt lat="45.98391" lon="4.83515">
        <ele>269</ele>
        <time>2018-05-23T09:04:51Z</time>
      </trkpt>
      <trkpt lat="45.98387" lon="4.83523">
        <ele>269</ele>
        <time>2018-05-23T09:04:52Z</time>
      </trkpt>
      <trkpt lat="45.98383" lon="4.83528">
        <ele>269</ele>
        <time>2018-05-23T09:04:53Z</time>
      </trkpt>
      <trkpt lat="45.9838" lon="4.83533">
        <ele>269</ele>
        <time>2018-05-23T09:04:54Z</time>
      </trkpt>
      <trkpt lat="45.98376" lon="4.83538">
        <ele>269</ele>
        <time>2018-05-23T09:04:55Z</time>
      </trkpt>
      <trkpt lat="45.98373" lon="4.83544">
        <ele>269</ele>
        <time>2018-05-23T09:04:56Z</time>
      </trkpt>
      <trkpt lat="45.98369" lon="4.83549">
        <ele>269</ele>
        <time>2018-05-23T09:04:57Z</time>
      </trkpt>
      <trkpt lat="45.98365" lon="4.83554">
        <ele>269</ele>
        <time>2018-05-23T09:04:58Z</time>
      </trkpt>
      <trkpt lat="45.98362" lon="4.83558">
        <ele>269</ele>
        <time>2018-05-23T09:04:59Z</time>
      </trkpt>
      <trkpt lat="45.98358" lon="4.83563">
        <ele>269</ele>
        <time>2018-05-23T09:05:00Z</time>
      </trkpt>
      <trkpt lat="45.98354" lon="4.83568">
        <ele>269</ele>
        <time>2018-05-23T09:05:01Z</time>
      </trkpt>
      <trkpt lat="45.9835" lon="4.83573">
        <ele>269</ele>
        <time>2018-05-23T09:05:02Z</time>
      </trkpt>
      <trkpt lat="45.98347" lon="4.83578">
        <ele>270</ele>
        <time>2018-05-23T09:05:03Z</time>
      </trkpt>
      <trkpt lat="45.98343" lon="4.83582">
        <ele>270</ele>
        <time>2018-05-23T09:05:04Z</time>
      </trkpt>
      <trkpt lat="45.9834" lon="4.83587">
        <ele>270</ele>
        <time>2018-05-23T09:05:05Z</time>
      </trkpt>
      <trkpt lat="45.98337" lon="4.83592">
        <ele>270</ele>
        <time>2018-05-23T09:05:06Z</time>
      </trkpt>
      <trkpt lat="45.98333" lon="4.83596">
        <ele>270</ele>
        <time>2018-05-23T09:05:07Z</time>
      </trkpt>
      <trkpt lat="45.9833" lon="4.83601">
        <ele>271</ele>
        <time>2018-05-23T09:05:08Z</time>
      </trkpt>
      <trkpt lat="45.98327" lon="4.83606">
        <ele>271</ele>
        <time>2018-05-23T09:05:09Z</time>
      </trkpt>
      <trkpt lat="45.98321" lon="4.83615">
        <ele>271</ele>
        <time>2018-05-23T09:05:11Z</time>
      </trkpt>
      <trkpt lat="45.98318" lon="4.83621">
        <ele>271</ele>
        <time>2018-05-23T09:05:12Z</time>
      </trkpt>
      <trkpt lat="45.98315" lon="4.83625">
        <ele>271</ele>
        <time>2018-05-23T09:05:13Z</time>
      </trkpt>
      <trkpt lat="45.98312" lon="4.8363">
        <ele>271</ele>
        <time>2018-05-23T09:05:14Z</time>
      </trkpt>
      <trkpt lat="45.98309" lon="4.83635">
        <ele>271</ele>
        <time>2018-05-23T09:05:15Z</time>
      </trkpt>
      <trkpt lat="45.98306" lon="4.83641">
        <ele>271</ele>
        <time>2018-05-23T09:05:16Z</time>
      </trkpt>
      <trkpt lat="45.98303" lon="4.83646">
        <ele>271</ele>
        <time>2018-05-23T09:05:17Z</time>
      </trkpt>
      <trkpt lat="45.98301" lon="4.83656">
        <ele>271</ele>
        <time>2018-05-23T09:05:18Z</time>
      </trkpt>
      <trkpt lat="45.98297" lon="4.83667">
        <ele>272</ele>
        <time>2018-05-23T09:05:20Z</time>
      </trkpt>
      <trkpt lat="45.98295" lon="4.83672">
        <ele>272</ele>
        <time>2018-05-23T09:05:21Z</time>
      </trkpt>
      <trkpt lat="45.98293" lon="4.8368">
        <ele>272</ele>
        <time>2018-05-23T09:05:22Z</time>
      </trkpt>
      <trkpt lat="45.9829" lon="4.83686">
        <ele>272</ele>
        <time>2018-05-23T09:05:23Z</time>
      </trkpt>
      <trkpt lat="45.98288" lon="4.83693">
        <ele>272</ele>
        <time>2018-05-23T09:05:24Z</time>
      </trkpt>
      <trkpt lat="45.98285" lon="4.83699">
        <ele>272</ele>
        <time>2018-05-23T09:05:25Z</time>
      </trkpt>
      <trkpt lat="45.98282" lon="4.83705">
        <ele>272</ele>
        <time>2018-05-23T09:05:26Z</time>
      </trkpt>
      <trkpt lat="45.9828" lon="4.83711">
        <ele>272</ele>
        <time>2018-05-23T09:05:27Z</time>
      </trkpt>
      <trkpt lat="45.98277" lon="4.83718">
        <ele>272</ele>
        <time>2018-05-23T09:05:28Z</time>
      </trkpt>
      <trkpt lat="45.98275" lon="4.83725">
        <ele>272</ele>
        <time>2018-05-23T09:05:29Z</time>
      </trkpt>
      <trkpt lat="45.98273" lon="4.83731">
        <ele>272</ele>
        <time>2018-05-23T09:05:30Z</time>
      </trkpt>
      <trkpt lat="45.9827" lon="4.83738">
        <ele>272</ele>
        <time>2018-05-23T09:05:31Z</time>
      </trkpt>
      <trkpt lat="45.98267" lon="4.83744">
        <ele>272</ele>
        <time>2018-05-23T09:05:32Z</time>
      </trkpt>
      <trkpt lat="45.98265" lon="4.8375">
        <ele>272</ele>
        <time>2018-05-23T09:05:33Z</time>
      </trkpt>
      <trkpt lat="45.98262" lon="4.83757">
        <ele>272</ele>
        <time>2018-05-23T09:05:34Z</time>
      </trkpt>
      <trkpt lat="45.9826" lon="4.83763">
        <ele>272</ele>
        <time>2018-05-23T09:05:35Z</time>
      </trkpt>
      <trkpt lat="45.98257" lon="4.83769">
        <ele>272</ele>
        <time>2018-05-23T09:05:36Z</time>
      </trkpt>
      <trkpt lat="45.98255" lon="4.83775">
        <ele>272</ele>
        <time>2018-05-23T09:05:37Z</time>
      </trkpt>
      <trkpt lat="45.98253" lon="4.83782">
        <ele>272</ele>
        <time>2018-05-23T09:05:38Z</time>
      </trkpt>
      <trkpt lat="45.98251" lon="4.83787">
        <ele>272</ele>
        <time>2018-05-23T09:05:39Z</time>
      </trkpt>
      <trkpt lat="45.9825" lon="4.83794">
        <ele>272</ele>
        <time>2018-05-23T09:05:40Z</time>
      </trkpt>
      <trkpt lat="45.98248" lon="4.838">
        <ele>272</ele>
        <time>2018-05-23T09:05:41Z</time>
      </trkpt>
      <trkpt lat="45.98246" lon="4.83807">
        <ele>272</ele>
        <time>2018-05-23T09:05:42Z</time>
      </trkpt>
      <trkpt lat="45.98244" lon="4.83812">
        <ele>272</ele>
        <time>2018-05-23T09:05:43Z</time>
      </trkpt>
      <trkpt lat="45.98241" lon="4.83818">
        <ele>272</ele>
        <time>2018-05-23T09:05:44Z</time>
      </trkpt>
      <trkpt lat="45.98239" lon="4.83825">
        <ele>272</ele>
        <time>2018-05-23T09:05:45Z</time>
      </trkpt>
      <trkpt lat="45.98237" lon="4.83831">
        <ele>272</ele>
        <time>2018-05-23T09:05:46Z</time>
      </trkpt>
      <trkpt lat="45.98235" lon="4.83837">
        <ele>272</ele>
        <time>2018-05-23T09:05:47Z</time>
      </trkpt>
      <trkpt lat="45.98233" lon="4.83844">
        <ele>272</ele>
        <time>2018-05-23T09:05:48Z</time>
      </trkpt>
      <trkpt lat="45.98231" lon="4.8385">
        <ele>272</ele>
        <time>2018-05-23T09:05:49Z</time>
      </trkpt>
      <trkpt lat="45.98229" lon="4.83857">
        <ele>272</ele>
        <time>2018-05-23T09:05:50Z</time>
      </trkpt>
      <trkpt lat="45.98226" lon="4.83863">
        <ele>272</ele>
        <time>2018-05-23T09:05:51Z</time>
      </trkpt>
      <trkpt lat="45.98224" lon="4.8387">
        <ele>272</ele>
        <time>2018-05-23T09:05:52Z</time>
      </trkpt>
      <trkpt lat="45.98222" lon="4.83877">
        <ele>272</ele>
        <time>2018-05-23T09:05:53Z</time>
      </trkpt>
      <trkpt lat="45.98218" lon="4.83888">
        <ele>272</ele>
        <time>2018-05-23T09:05:55Z</time>
      </trkpt>
      <trkpt lat="45.98216" lon="4.83894">
        <ele>273</ele>
        <time>2018-05-23T09:05:56Z</time>
      </trkpt>
      <trkpt lat="45.98212" lon="4.83906">
        <ele>273</ele>
        <time>2018-05-23T09:05:58Z</time>
      </trkpt>
      <trkpt lat="45.9821" lon="4.83911">
        <ele>273</ele>
        <time>2018-05-23T09:05:59Z</time>
      </trkpt>
      <trkpt lat="45.98207" lon="4.83923">
        <ele>273</ele>
        <time>2018-05-23T09:06:01Z</time>
      </trkpt>
      <trkpt lat="45.98205" lon="4.83929">
        <ele>273</ele>
        <time>2018-05-23T09:06:02Z</time>
      </trkpt>
      <trkpt lat="45.98203" lon="4.83936">
        <ele>273</ele>
        <time>2018-05-23T09:06:03Z</time>
      </trkpt>
      <trkpt lat="45.98201" lon="4.83942">
        <ele>273</ele>
        <time>2018-05-23T09:06:04Z</time>
      </trkpt>
      <trkpt lat="45.98198" lon="4.83948">
        <ele>273</ele>
        <time>2018-05-23T09:06:05Z</time>
      </trkpt>
      <trkpt lat="45.98196" lon="4.83953">
        <ele>273</ele>
        <time>2018-05-23T09:06:06Z</time>
      </trkpt>
      <trkpt lat="45.98194" lon="4.83959">
        <ele>273</ele>
        <time>2018-05-23T09:06:07Z</time>
      </trkpt>
      <trkpt lat="45.98191" lon="4.83965">
        <ele>273</ele>
        <time>2018-05-23T09:06:08Z</time>
      </trkpt>
      <trkpt lat="45.98186" lon="4.83975">
        <ele>273</ele>
        <time>2018-05-23T09:06:10Z</time>
      </trkpt>
      <trkpt lat="45.98185" lon="4.83982">
        <ele>273</ele>
        <time>2018-05-23T09:06:11Z</time>
      </trkpt>
      <trkpt lat="45.98183" lon="4.83988">
        <ele>273</ele>
        <time>2018-05-23T09:06:12Z</time>
      </trkpt>
      <trkpt lat="45.98181" lon="4.83995">
        <ele>273</ele>
        <time>2018-05-23T09:06:13Z</time>
      </trkpt>
      <trkpt lat="45.98176" lon="4.84006">
        <ele>273</ele>
        <time>2018-05-23T09:06:15Z</time>
      </trkpt>
      <trkpt lat="45.98174" lon="4.84012">
        <ele>273</ele>
        <time>2018-05-23T09:06:16Z</time>
      </trkpt>
      <trkpt lat="45.98169" lon="4.84021">
        <ele>273</ele>
        <time>2018-05-23T09:06:18Z</time>
      </trkpt>
      <trkpt lat="45.98166" lon="4.84026">
        <ele>273</ele>
        <time>2018-05-23T09:06:19Z</time>
      </trkpt>
      <trkpt lat="45.98162" lon="4.84035">
        <ele>273</ele>
        <time>2018-05-23T09:06:21Z</time>
      </trkpt>
      <trkpt lat="45.98159" lon="4.8404">
        <ele>273</ele>
        <time>2018-05-23T09:06:22Z</time>
      </trkpt>
      <trkpt lat="45.98156" lon="4.84045">
        <ele>273</ele>
        <time>2018-05-23T09:06:23Z</time>
      </trkpt>
      <trkpt lat="45.98152" lon="4.84051">
        <ele>273</ele>
        <time>2018-05-23T09:06:24Z</time>
      </trkpt>
      <trkpt lat="45.98148" lon="4.84057">
        <ele>273</ele>
        <time>2018-05-23T09:06:25Z</time>
      </trkpt>
      <trkpt lat="45.98144" lon="4.84062">
        <ele>273</ele>
        <time>2018-05-23T09:06:26Z</time>
      </trkpt>
      <trkpt lat="45.9814" lon="4.84066">
        <ele>273</ele>
        <time>2018-05-23T09:06:27Z</time>
      </trkpt>
      <trkpt lat="45.98136" lon="4.84071">
        <ele>273</ele>
        <time>2018-05-23T09:06:28Z</time>
      </trkpt>
      <trkpt lat="45.98132" lon="4.84075">
        <ele>273</ele>
        <time>2018-05-23T09:06:29Z</time>
      </trkpt>
      <trkpt lat="45.98128" lon="4.84079">
        <ele>273</ele>
        <time>2018-05-23T09:06:30Z</time>
      </trkpt>
      <trkpt lat="45.98124" lon="4.84083">
        <ele>273</ele>
        <time>2018-05-23T09:06:31Z</time>
      </trkpt>
      <trkpt lat="45.9812" lon="4.84087">
        <ele>273</ele>
        <time>2018-05-23T09:06:32Z</time>
      </trkpt>
      <trkpt lat="45.98116" lon="4.84091">
        <ele>273</ele>
        <time>2018-05-23T09:06:33Z</time>
      </trkpt>
      <trkpt lat="45.98112" lon="4.84095">
        <ele>273</ele>
        <time>2018-05-23T09:06:34Z</time>
      </trkpt>
      <trkpt lat="45.98108" lon="4.841">
        <ele>273</ele>
        <time>2018-05-23T09:06:35Z</time>
      </trkpt>
      <trkpt lat="45.98104" lon="4.84104">
        <ele>273</ele>
        <time>2018-05-23T09:06:36Z</time>
      </trkpt>
      <trkpt lat="45.981" lon="4.84109">
        <ele>273</ele>
        <time>2018-05-23T09:06:37Z</time>
      </trkpt>
      <trkpt lat="45.98095" lon="4.84112">
        <ele>273</ele>
        <time>2018-05-23T09:06:38Z</time>
      </trkpt>
      <trkpt lat="45.98088" lon="4.84119">
        <ele>273</ele>
        <time>2018-05-23T09:06:40Z</time>
      </trkpt>
      <trkpt lat="45.98083" lon="4.84122">
        <ele>273</ele>
        <time>2018-05-23T09:06:41Z</time>
      </trkpt>
      <trkpt lat="45.9808" lon="4.84126">
        <ele>273</ele>
        <time>2018-05-23T09:06:42Z</time>
      </trkpt>
      <trkpt lat="45.98076" lon="4.84129">
        <ele>273</ele>
        <time>2018-05-23T09:06:43Z</time>
      </trkpt>
      <trkpt lat="45.98069" lon="4.84138">
        <ele>273</ele>
        <time>2018-05-23T09:06:45Z</time>
      </trkpt>
      <trkpt lat="45.98065" lon="4.84142">
        <ele>273</ele>
        <time>2018-05-23T09:06:46Z</time>
      </trkpt>
      <trkpt lat="45.98061" lon="4.84146">
        <ele>273</ele>
        <time>2018-05-23T09:06:47Z</time>
      </trkpt>
      <trkpt lat="45.98057" lon="4.84149">
        <ele>273</ele>
        <time>2018-05-23T09:06:48Z</time>
      </trkpt>
      <trkpt lat="45.98052" lon="4.84153">
        <ele>273</ele>
        <time>2018-05-23T09:06:49Z</time>
      </trkpt>
      <trkpt lat="45.98048" lon="4.84156">
        <ele>273</ele>
        <time>2018-05-23T09:06:50Z</time>
      </trkpt>
      <trkpt lat="45.98044" lon="4.84159">
        <ele>273</ele>
        <time>2018-05-23T09:06:51Z</time>
      </trkpt>
      <trkpt lat="45.9804" lon="4.84162">
        <ele>273</ele>
        <time>2018-05-23T09:06:52Z</time>
      </trkpt>
      <trkpt lat="45.98036" lon="4.84166">
        <ele>273</ele>
        <time>2018-05-23T09:06:53Z</time>
      </trkpt>
      <trkpt lat="45.98032" lon="4.8417">
        <ele>273</ele>
        <time>2018-05-23T09:06:54Z</time>
      </trkpt>
      <trkpt lat="45.98028" lon="4.84174">
        <ele>274</ele>
        <time>2018-05-23T09:06:55Z</time>
      </trkpt>
      <trkpt lat="45.98024" lon="4.84178">
        <ele>274</ele>
        <time>2018-05-23T09:06:56Z</time>
      </trkpt>
      <trkpt lat="45.98021" lon="4.84181">
        <ele>274</ele>
        <time>2018-05-23T09:06:57Z</time>
      </trkpt>
      <trkpt lat="45.98017" lon="4.84185">
        <ele>274</ele>
        <time>2018-05-23T09:06:58Z</time>
      </trkpt>
      <trkpt lat="45.98012" lon="4.84188">
        <ele>274</ele>
        <time>2018-05-23T09:06:59Z</time>
      </trkpt>
      <trkpt lat="45.98008" lon="4.84191">
        <ele>274</ele>
        <time>2018-05-23T09:07:00Z</time>
      </trkpt>
      <trkpt lat="45.98003" lon="4.84195">
        <ele>274</ele>
        <time>2018-05-23T09:07:01Z</time>
      </trkpt>
      <trkpt lat="45.97999" lon="4.84199">
        <ele>274</ele>
        <time>2018-05-23T09:07:02Z</time>
      </trkpt>
      <trkpt lat="45.97995" lon="4.84203">
        <ele>274</ele>
        <time>2018-05-23T09:07:03Z</time>
      </trkpt>
      <trkpt lat="45.97991" lon="4.84206">
        <ele>274</ele>
        <time>2018-05-23T09:07:04Z</time>
      </trkpt>
      <trkpt lat="45.97987" lon="4.84211">
        <ele>274</ele>
        <time>2018-05-23T09:07:05Z</time>
      </trkpt>
      <trkpt lat="45.97983" lon="4.84214">
        <ele>274</ele>
        <time>2018-05-23T09:07:06Z</time>
      </trkpt>
      <trkpt lat="45.97976" lon="4.84221">
        <ele>274</ele>
        <time>2018-05-23T09:07:08Z</time>
      </trkpt>
      <trkpt lat="45.97972" lon="4.84225">
        <ele>274</ele>
        <time>2018-05-23T09:07:09Z</time>
      </trkpt>
      <trkpt lat="45.97968" lon="4.84229">
        <ele>274</ele>
        <time>2018-05-23T09:07:10Z</time>
      </trkpt>
      <trkpt lat="45.97963" lon="4.84233">
        <ele>274</ele>
        <time>2018-05-23T09:07:11Z</time>
      </trkpt>
      <trkpt lat="45.97959" lon="4.8424">
        <ele>274</ele>
        <time>2018-05-23T09:07:12Z</time>
      </trkpt>
      <trkpt lat="45.97954" lon="4.84242">
        <ele>275</ele>
        <time>2018-05-23T09:07:13Z</time>
      </trkpt>
      <trkpt lat="45.9795" lon="4.84246">
        <ele>275</ele>
        <time>2018-05-23T09:07:14Z</time>
      </trkpt>
      <trkpt lat="45.97947" lon="4.8425">
        <ele>275</ele>
        <time>2018-05-23T09:07:15Z</time>
      </trkpt>
      <trkpt lat="45.9794" lon="4.84257">
        <ele>275</ele>
        <time>2018-05-23T09:07:17Z</time>
      </trkpt>
      <trkpt lat="45.97936" lon="4.84261">
        <ele>275</ele>
        <time>2018-05-23T09:07:18Z</time>
      </trkpt>
      <trkpt lat="45.97931" lon="4.8427">
        <ele>275</ele>
        <time>2018-05-23T09:07:20Z</time>
      </trkpt>
      <trkpt lat="45.97928" lon="4.84276">
        <ele>275</ele>
        <time>2018-05-23T09:07:21Z</time>
      </trkpt>
      <trkpt lat="45.97925" lon="4.84281">
        <ele>275</ele>
        <time>2018-05-23T09:07:22Z</time>
      </trkpt>
      <trkpt lat="45.97924" lon="4.84287">
        <ele>275</ele>
        <time>2018-05-23T09:07:23Z</time>
      </trkpt>
      <trkpt lat="45.97923" lon="4.84294">
        <ele>275</ele>
        <time>2018-05-23T09:07:24Z</time>
      </trkpt>
      <trkpt lat="45.97923" lon="4.84302">
        <ele>275</ele>
        <time>2018-05-23T09:07:25Z</time>
      </trkpt>
      <trkpt lat="45.97927" lon="4.84313">
        <ele>275</ele>
        <time>2018-05-23T09:07:27Z</time>
      </trkpt>
      <trkpt lat="45.97927" lon="4.84319">
        <ele>275</ele>
        <time>2018-05-23T09:07:28Z</time>
      </trkpt>
      <trkpt lat="45.97929" lon="4.84331">
        <ele>275</ele>
        <time>2018-05-23T09:07:30Z</time>
      </trkpt>
      <trkpt lat="45.9793" lon="4.84336">
        <ele>275</ele>
        <time>2018-05-23T09:07:31Z</time>
      </trkpt>
      <trkpt lat="45.97933" lon="4.84348">
        <ele>275</ele>
        <time>2018-05-23T09:07:33Z</time>
      </trkpt>
      <trkpt lat="45.97934" lon="4.84355">
        <ele>275</ele>
        <time>2018-05-23T09:07:34Z</time>
      </trkpt>
      <trkpt lat="45.97936" lon="4.8436">
        <ele>275</ele>
        <time>2018-05-23T09:07:35Z</time>
      </trkpt>
      <trkpt lat="45.97937" lon="4.84367">
        <ele>275</ele>
        <time>2018-05-23T09:07:36Z</time>
      </trkpt>
      <trkpt lat="45.97938" lon="4.84373">
        <ele>275</ele>
        <time>2018-05-23T09:07:37Z</time>
      </trkpt>
      <trkpt lat="45.97939" lon="4.8438">
        <ele>275</ele>
        <time>2018-05-23T09:07:38Z</time>
      </trkpt>
      <trkpt lat="45.97939" lon="4.84387">
        <ele>275</ele>
        <time>2018-05-23T09:07:39Z</time>
      </trkpt>
      <trkpt lat="45.9794" lon="4.84395">
        <ele>275</ele>
        <time>2018-05-23T09:07:40Z</time>
      </trkpt>
      <trkpt lat="45.97941" lon="4.84402">
        <ele>275</ele>
        <time>2018-05-23T09:07:41Z</time>
      </trkpt>
      <trkpt lat="45.97942" lon="4.84409">
        <ele>275</ele>
        <time>2018-05-23T09:07:42Z</time>
      </trkpt>
      <trkpt lat="45.97945" lon="4.84421">
        <ele>275</ele>
        <time>2018-05-23T09:07:44Z</time>
      </trkpt>
      <trkpt lat="45.97946" lon="4.84428">
        <ele>275</ele>
        <time>2018-05-23T09:07:45Z</time>
      </trkpt>
      <trkpt lat="45.97947" lon="4.84434">
        <ele>275</ele>
        <time>2018-05-23T09:07:46Z</time>
      </trkpt>
      <trkpt lat="45.97948" lon="4.84441">
        <ele>275</ele>
        <time>2018-05-23T09:07:47Z</time>
      </trkpt>
      <trkpt lat="45.97949" lon="4.84453">
        <ele>275</ele>
        <time>2018-05-23T09:07:49Z</time>
      </trkpt>
      <trkpt lat="45.9795" lon="4.84459">
        <ele>275</ele>
        <time>2018-05-23T09:07:50Z</time>
      </trkpt>
      <trkpt lat="45.9795" lon="4.84466">
        <ele>275</ele>
        <time>2018-05-23T09:07:51Z</time>
      </trkpt>
      <trkpt lat="45.97951" lon="4.84472">
        <ele>275</ele>
        <time>2018-05-23T09:07:52Z</time>
      </trkpt>
      <trkpt lat="45.97952" lon="4.84479">
        <ele>275</ele>
        <time>2018-05-23T09:07:53Z</time>
      </trkpt>
      <trkpt lat="45.97954" lon="4.84485">
        <ele>275</ele>
        <time>2018-05-23T09:07:54Z</time>
      </trkpt>
      <trkpt lat="45.97954" lon="4.84492">
        <ele>275</ele>
        <time>2018-05-23T09:07:55Z</time>
      </trkpt>
      <trkpt lat="45.97956" lon="4.84498">
        <ele>275</ele>
        <time>2018-05-23T09:07:56Z</time>
      </trkpt>
      <trkpt lat="45.97957" lon="4.84506">
        <ele>275</ele>
        <time>2018-05-23T09:07:57Z</time>
      </trkpt>
      <trkpt lat="45.97958" lon="4.84513">
        <ele>275</ele>
        <time>2018-05-23T09:07:58Z</time>
      </trkpt>
      <trkpt lat="45.97959" lon="4.84521">
        <ele>275</ele>
        <time>2018-05-23T09:07:59Z</time>
      </trkpt>
      <trkpt lat="45.97961" lon="4.84529">
        <ele>275</ele>
        <time>2018-05-23T09:08:00Z</time>
      </trkpt>
      <trkpt lat="45.97963" lon="4.84538">
        <ele>275</ele>
        <time>2018-05-23T09:08:01Z</time>
      </trkpt>
      <trkpt lat="45.97964" lon="4.84546">
        <ele>275</ele>
        <time>2018-05-23T09:08:02Z</time>
      </trkpt>
      <trkpt lat="45.97965" lon="4.84554">
        <ele>275</ele>
        <time>2018-05-23T09:08:03Z</time>
      </trkpt>
      <trkpt lat="45.97966" lon="4.84562">
        <ele>275</ele>
        <time>2018-05-23T09:08:04Z</time>
      </trkpt>
      <trkpt lat="45.97967" lon="4.84569">
        <ele>275</ele>
        <time>2018-05-23T09:08:05Z</time>
      </trkpt>
      <trkpt lat="45.97968" lon="4.84576">
        <ele>275</ele>
        <time>2018-05-23T09:08:06Z</time>
      </trkpt>
      <trkpt lat="45.9797" lon="4.84584">
        <ele>275</ele>
        <time>2018-05-23T09:08:07Z</time>
      </trkpt>
      <trkpt lat="45.9797" lon="4.84592">
        <ele>275</ele>
        <time>2018-05-23T09:08:08Z</time>
      </trkpt>
      <trkpt lat="45.97971" lon="4.84599">
        <ele>275</ele>
        <time>2018-05-23T09:08:09Z</time>
      </trkpt>
      <trkpt lat="45.97973" lon="4.84606">
        <ele>275</ele>
        <time>2018-05-23T09:08:10Z</time>
      </trkpt>
      <trkpt lat="45.97974" lon="4.84614">
        <ele>275</ele>
        <time>2018-05-23T09:08:11Z</time>
      </trkpt>
      <trkpt lat="45.97975" lon="4.84621">
        <ele>275</ele>
        <time>2018-05-23T09:08:12Z</time>
      </trkpt>
      <trkpt lat="45.97976" lon="4.84629">
        <ele>275</ele>
        <time>2018-05-23T09:08:13Z</time>
      </trkpt>
      <trkpt lat="45.97978" lon="4.84637">
        <ele>275</ele>
        <time>2018-05-23T09:08:14Z</time>
      </trkpt>
      <trkpt lat="45.97979" lon="4.84645">
        <ele>275</ele>
        <time>2018-05-23T09:08:15Z</time>
      </trkpt>
      <trkpt lat="45.9798" lon="4.84652">
        <ele>275</ele>
        <time>2018-05-23T09:08:16Z</time>
      </trkpt>
      <trkpt lat="45.97981" lon="4.84659">
        <ele>274</ele>
        <time>2018-05-23T09:08:17Z</time>
      </trkpt>
      <trkpt lat="45.97982" lon="4.84667">
        <ele>274</ele>
        <time>2018-05-23T09:08:18Z</time>
      </trkpt>
      <trkpt lat="45.97984" lon="4.84674">
        <ele>275</ele>
        <time>2018-05-23T09:08:19Z</time>
      </trkpt>
      <trkpt lat="45.97984" lon="4.84681">
        <ele>275</ele>
        <time>2018-05-23T09:08:20Z</time>
      </trkpt>
      <trkpt lat="45.97984" lon="4.84688">
        <ele>275</ele>
        <time>2018-05-23T09:08:21Z</time>
      </trkpt>
      <trkpt lat="45.97985" lon="4.84695">
        <ele>275</ele>
        <time>2018-05-23T09:08:22Z</time>
      </trkpt>
      <trkpt lat="45.97991" lon="4.84704">
        <ele>275</ele>
        <time>2018-05-23T09:08:24Z</time>
      </trkpt>
      <trkpt lat="45.97992" lon="4.84713">
        <ele>275</ele>
        <time>2018-05-23T09:08:25Z</time>
      </trkpt>
      <trkpt lat="45.97993" lon="4.84721">
        <ele>275</ele>
        <time>2018-05-23T09:08:26Z</time>
      </trkpt>
      <trkpt lat="45.97993" lon="4.84728">
        <ele>275</ele>
        <time>2018-05-23T09:08:27Z</time>
      </trkpt>
      <trkpt lat="45.97993" lon="4.84735">
        <ele>275</ele>
        <time>2018-05-23T09:08:28Z</time>
      </trkpt>
      <trkpt lat="45.97994" lon="4.84741">
        <ele>275</ele>
        <time>2018-05-23T09:08:29Z</time>
      </trkpt>
      <trkpt lat="45.97995" lon="4.84748">
        <ele>275</ele>
        <time>2018-05-23T09:08:30Z</time>
      </trkpt>
      <trkpt lat="45.97995" lon="4.84755">
        <ele>275</ele>
        <time>2018-05-23T09:08:31Z</time>
      </trkpt>
      <trkpt lat="45.97995" lon="4.84762">
        <ele>275</ele>
        <time>2018-05-23T09:08:32Z</time>
      </trkpt>
      <trkpt lat="45.97996" lon="4.8477">
        <ele>274</ele>
        <time>2018-05-23T09:08:33Z</time>
      </trkpt>
      <trkpt lat="45.97997" lon="4.84778">
        <ele>274</ele>
        <time>2018-05-23T09:08:34Z</time>
      </trkpt>
      <trkpt lat="45.97998" lon="4.84787">
        <ele>274</ele>
        <time>2018-05-23T09:08:35Z</time>
      </trkpt>
      <trkpt lat="45.97998" lon="4.84795">
        <ele>274</ele>
        <time>2018-05-23T09:08:36Z</time>
      </trkpt>
      <trkpt lat="45.97999" lon="4.84803">
        <ele>274</ele>
        <time>2018-05-23T09:08:37Z</time>
      </trkpt>
      <trkpt lat="45.98" lon="4.8481">
        <ele>273</ele>
        <time>2018-05-23T09:08:38Z</time>
      </trkpt>
      <trkpt lat="45.98" lon="4.84818">
        <ele>272</ele>
        <time>2018-05-23T09:08:39Z</time>
      </trkpt>
      <trkpt lat="45.98" lon="4.84825">
        <ele>272</ele>
        <time>2018-05-23T09:08:40Z</time>
      </trkpt>
      <trkpt lat="45.98001" lon="4.84831">
        <ele>272</ele>
        <time>2018-05-23T09:08:41Z</time>
      </trkpt>
      <trkpt lat="45.98001" lon="4.84838">
        <ele>272</ele>
        <time>2018-05-23T09:08:42Z</time>
      </trkpt>
      <trkpt lat="45.98001" lon="4.84845">
        <ele>272</ele>
        <time>2018-05-23T09:08:43Z</time>
      </trkpt>
      <trkpt lat="45.98001" lon="4.84851">
        <ele>272</ele>
        <time>2018-05-23T09:08:44Z</time>
      </trkpt>
      <trkpt lat="45.98005" lon="4.84857">
        <ele>272</ele>
        <time>2018-05-23T09:08:45Z</time>
      </trkpt>
      <trkpt lat="45.98006" lon="4.8487">
        <ele>272</ele>
        <time>2018-05-23T09:08:47Z</time>
      </trkpt>
      <trkpt lat="45.98007" lon="4.84876">
        <ele>272</ele>
        <time>2018-05-23T09:08:48Z</time>
      </trkpt>
      <trkpt lat="45.98008" lon="4.84883">
        <ele>272</ele>
        <time>2018-05-23T09:08:49Z</time>
      </trkpt>
      <trkpt lat="45.98007" lon="4.84891">
        <ele>272</ele>
        <time>2018-05-23T09:08:50Z</time>
      </trkpt>
      <trkpt lat="45.98008" lon="4.84898">
        <ele>272</ele>
        <time>2018-05-23T09:08:51Z</time>
      </trkpt>
      <trkpt lat="45.98008" lon="4.84906">
        <ele>272</ele>
        <time>2018-05-23T09:08:52Z</time>
      </trkpt>
      <trkpt lat="45.98009" lon="4.84912">
        <ele>272</ele>
        <time>2018-05-23T09:08:53Z</time>
      </trkpt>
      <trkpt lat="45.98009" lon="4.84919">
        <ele>272</ele>
        <time>2018-05-23T09:08:54Z</time>
      </trkpt>
      <trkpt lat="45.98009" lon="4.84925">
        <ele>272</ele>
        <time>2018-05-23T09:08:55Z</time>
      </trkpt>
      <trkpt lat="45.9801" lon="4.84932">
        <ele>272</ele>
        <time>2018-05-23T09:08:56Z</time>
      </trkpt>
      <trkpt lat="45.98011" lon="4.84939">
        <ele>272</ele>
        <time>2018-05-23T09:08:57Z</time>
      </trkpt>
      <trkpt lat="45.98012" lon="4.84947">
        <ele>272</ele>
        <time>2018-05-23T09:08:58Z</time>
      </trkpt>
      <trkpt lat="45.98013" lon="4.84956">
        <ele>272</ele>
        <time>2018-05-23T09:08:59Z</time>
      </trkpt>
      <trkpt lat="45.98013" lon="4.84964">
        <ele>272</ele>
        <time>2018-05-23T09:09:00Z</time>
      </trkpt>
      <trkpt lat="45.98014" lon="4.84972">
        <ele>272</ele>
        <time>2018-05-23T09:09:01Z</time>
      </trkpt>
      <trkpt lat="45.98014" lon="4.8498">
        <ele>272</ele>
        <time>2018-05-23T09:09:02Z</time>
      </trkpt>
      <trkpt lat="45.98015" lon="4.84987">
        <ele>272</ele>
        <time>2018-05-23T09:09:03Z</time>
      </trkpt>
      <trkpt lat="45.98016" lon="4.84994">
        <ele>272</ele>
        <time>2018-05-23T09:09:04Z</time>
      </trkpt>
      <trkpt lat="45.98017" lon="4.85001">
        <ele>272</ele>
        <time>2018-05-23T09:09:05Z</time>
      </trkpt>
      <trkpt lat="45.98018" lon="4.85008">
        <ele>272</ele>
        <time>2018-05-23T09:09:06Z</time>
      </trkpt>
      <trkpt lat="45.98018" lon="4.8502">
        <ele>273</ele>
        <time>2018-05-23T09:09:08Z</time>
      </trkpt>
      <trkpt lat="45.98019" lon="4.85026">
        <ele>273</ele>
        <time>2018-05-23T09:09:09Z</time>
      </trkpt>
      <trkpt lat="45.98019" lon="4.85033">
        <ele>273</ele>
        <time>2018-05-23T09:09:10Z</time>
      </trkpt>
      <trkpt lat="45.98019" lon="4.8504">
        <ele>273</ele>
        <time>2018-05-23T09:09:11Z</time>
      </trkpt>
      <trkpt lat="45.98019" lon="4.85047">
        <ele>273</ele>
        <time>2018-05-23T09:09:12Z</time>
      </trkpt>
      <trkpt lat="45.98019" lon="4.85055">
        <ele>273</ele>
        <time>2018-05-23T09:09:13Z</time>
      </trkpt>
      <trkpt lat="45.98019" lon="4.85064">
        <ele>273</ele>
        <time>2018-05-23T09:09:14Z</time>
      </trkpt>
      <trkpt lat="45.98019" lon="4.85071">
        <ele>273</ele>
        <time>2018-05-23T09:09:15Z</time>
      </trkpt>
      <trkpt lat="45.9802" lon="4.85079">
        <ele>273</ele>
        <time>2018-05-23T09:09:16Z</time>
      </trkpt>
      <trkpt lat="45.9802" lon="4.85085">
        <ele>274</ele>
        <time>2018-05-23T09:09:17Z</time>
      </trkpt>
      <trkpt lat="45.98022" lon="4.85098">
        <ele>274</ele>
        <time>2018-05-23T09:09:19Z</time>
      </trkpt>
      <trkpt lat="45.98022" lon="4.85106">
        <ele>274</ele>
        <time>2018-05-23T09:09:20Z</time>
      </trkpt>
      <trkpt lat="45.98023" lon="4.85114">
        <ele>274</ele>
        <time>2018-05-23T09:09:22Z</time>
      </trkpt>
      <trkpt lat="45.98025" lon="4.8512">
        <ele>274</ele>
        <time>2018-05-23T09:09:23Z</time>
      </trkpt>
      <trkpt lat="45.98027" lon="4.8513">
        <ele>274</ele>
        <time>2018-05-23T09:09:25Z</time>
      </trkpt>
      <trkpt lat="45.98031" lon="4.85136">
        <ele>275</ele>
        <time>2018-05-23T09:09:26Z</time>
      </trkpt>
      <trkpt lat="45.98033" lon="4.85142">
        <ele>275</ele>
        <time>2018-05-23T09:09:27Z</time>
      </trkpt>
      <trkpt lat="45.98035" lon="4.85148">
        <ele>275</ele>
        <time>2018-05-23T09:09:28Z</time>
      </trkpt>
      <trkpt lat="45.98038" lon="4.85159">
        <ele>275</ele>
        <time>2018-05-23T09:09:30Z</time>
      </trkpt>
      <trkpt lat="45.9804" lon="4.85165">
        <ele>275</ele>
        <time>2018-05-23T09:09:31Z</time>
      </trkpt>
      <trkpt lat="45.98043" lon="4.85176">
        <ele>276</ele>
        <time>2018-05-23T09:09:33Z</time>
      </trkpt>
      <trkpt lat="45.98045" lon="4.85182">
        <ele>276</ele>
        <time>2018-05-23T09:09:34Z</time>
      </trkpt>
      <trkpt lat="45.98049" lon="4.85193">
        <ele>276</ele>
        <time>2018-05-23T09:09:36Z</time>
      </trkpt>
      <trkpt lat="45.9805" lon="4.85198">
        <ele>276</ele>
        <time>2018-05-23T09:09:37Z</time>
      </trkpt>
      <trkpt lat="45.98054" lon="4.85209">
        <ele>276</ele>
        <time>2018-05-23T09:09:39Z</time>
      </trkpt>
      <trkpt lat="45.98055" lon="4.85214">
        <ele>276</ele>
        <time>2018-05-23T09:09:40Z</time>
      </trkpt>
      <trkpt lat="45.98057" lon="4.8522">
        <ele>276</ele>
        <time>2018-05-23T09:09:41Z</time>
      </trkpt>
      <trkpt lat="45.98059" lon="4.85226">
        <ele>276</ele>
        <time>2018-05-23T09:09:42Z</time>
      </trkpt>
      <trkpt lat="45.98061" lon="4.85234">
        <ele>276</ele>
        <time>2018-05-23T09:09:43Z</time>
      </trkpt>
      <trkpt lat="45.98063" lon="4.85239">
        <ele>276</ele>
        <time>2018-05-23T09:09:44Z</time>
      </trkpt>
      <trkpt lat="45.98066" lon="4.85245">
        <ele>276</ele>
        <time>2018-05-23T09:09:45Z</time>
      </trkpt>
      <trkpt lat="45.98069" lon="4.8525">
        <ele>276</ele>
        <time>2018-05-23T09:09:46Z</time>
      </trkpt>
      <trkpt lat="45.98072" lon="4.85256">
        <ele>276</ele>
        <time>2018-05-23T09:09:47Z</time>
      </trkpt>
      <trkpt lat="45.98075" lon="4.85265">
        <ele>276</ele>
        <time>2018-05-23T09:09:48Z</time>
      </trkpt>
      <trkpt lat="45.98078" lon="4.85272">
        <ele>276</ele>
        <time>2018-05-23T09:09:49Z</time>
      </trkpt>
      <trkpt lat="45.9808" lon="4.85279">
        <ele>276</ele>
        <time>2018-05-23T09:09:50Z</time>
      </trkpt>
      <trkpt lat="45.98084" lon="4.85287">
        <ele>276</ele>
        <time>2018-05-23T09:09:51Z</time>
      </trkpt>
      <trkpt lat="45.98088" lon="4.85291">
        <ele>276</ele>
        <time>2018-05-23T09:09:52Z</time>
      </trkpt>
      <trkpt lat="45.9809" lon="4.85296">
        <ele>276</ele>
        <time>2018-05-23T09:09:53Z</time>
      </trkpt>
      <trkpt lat="45.98093" lon="4.85302">
        <ele>276</ele>
        <time>2018-05-23T09:09:54Z</time>
      </trkpt>
      <trkpt lat="45.98097" lon="4.85306">
        <ele>276</ele>
        <time>2018-05-23T09:09:55Z</time>
      </trkpt>
      <trkpt lat="45.981" lon="4.85312">
        <ele>276</ele>
        <time>2018-05-23T09:09:56Z</time>
      </trkpt>
      <trkpt lat="45.98102" lon="4.85318">
        <ele>276</ele>
        <time>2018-05-23T09:09:57Z</time>
      </trkpt>
      <trkpt lat="45.98104" lon="4.85324">
        <ele>276</ele>
        <time>2018-05-23T09:09:58Z</time>
      </trkpt>
      <trkpt lat="45.98107" lon="4.8533">
        <ele>276</ele>
        <time>2018-05-23T09:09:59Z</time>
      </trkpt>
      <trkpt lat="45.9811" lon="4.85336">
        <ele>276</ele>
        <time>2018-05-23T09:10:00Z</time>
      </trkpt>
      <trkpt lat="45.98113" lon="4.85342">
        <ele>276</ele>
        <time>2018-05-23T09:10:01Z</time>
      </trkpt>
      <trkpt lat="45.98116" lon="4.85349">
        <ele>276</ele>
        <time>2018-05-23T09:10:02Z</time>
      </trkpt>
      <trkpt lat="45.98118" lon="4.85355">
        <ele>276</ele>
        <time>2018-05-23T09:10:03Z</time>
      </trkpt>
      <trkpt lat="45.98121" lon="4.8536">
        <ele>276</ele>
        <time>2018-05-23T09:10:04Z</time>
      </trkpt>
      <trkpt lat="45.98125" lon="4.85365">
        <ele>276</ele>
        <time>2018-05-23T09:10:05Z</time>
      </trkpt>
      <trkpt lat="45.98127" lon="4.85371">
        <ele>276</ele>
        <time>2018-05-23T09:10:06Z</time>
      </trkpt>
      <trkpt lat="45.9813" lon="4.85377">
        <ele>276</ele>
        <time>2018-05-23T09:10:07Z</time>
      </trkpt>
      <trkpt lat="45.98132" lon="4.85383">
        <ele>276</ele>
        <time>2018-05-23T09:10:08Z</time>
      </trkpt>
      <trkpt lat="45.98135" lon="4.8539">
        <ele>276</ele>
        <time>2018-05-23T09:10:09Z</time>
      </trkpt>
      <trkpt lat="45.98137" lon="4.85396">
        <ele>276</ele>
        <time>2018-05-23T09:10:10Z</time>
      </trkpt>
      <trkpt lat="45.98139" lon="4.85404">
        <ele>276</ele>
        <time>2018-05-23T09:10:11Z</time>
      </trkpt>
      <trkpt lat="45.98141" lon="4.8541">
        <ele>276</ele>
        <time>2018-05-23T09:10:12Z</time>
      </trkpt>
      <trkpt lat="45.98143" lon="4.85419">
        <ele>276</ele>
        <time>2018-05-23T09:10:13Z</time>
      </trkpt>
      <trkpt lat="45.98146" lon="4.85426">
        <ele>276</ele>
        <time>2018-05-23T09:10:14Z</time>
      </trkpt>
      <trkpt lat="45.98149" lon="4.85434">
        <ele>276</ele>
        <time>2018-05-23T09:10:15Z</time>
      </trkpt>
      <trkpt lat="45.98153" lon="4.85441">
        <ele>276</ele>
        <time>2018-05-23T09:10:16Z</time>
      </trkpt>
      <trkpt lat="45.98155" lon="4.85448">
        <ele>276</ele>
        <time>2018-05-23T09:10:17Z</time>
      </trkpt>
      <trkpt lat="45.98159" lon="4.85455">
        <ele>276</ele>
        <time>2018-05-23T09:10:18Z</time>
      </trkpt>
      <trkpt lat="45.98161" lon="4.85462">
        <ele>275</ele>
        <time>2018-05-23T09:10:19Z</time>
      </trkpt>
      <trkpt lat="45.98163" lon="4.85469">
        <ele>275</ele>
        <time>2018-05-23T09:10:20Z</time>
      </trkpt>
      <trkpt lat="45.98166" lon="4.85475">
        <ele>275</ele>
        <time>2018-05-23T09:10:21Z</time>
      </trkpt>
      <trkpt lat="45.98168" lon="4.85481">
        <ele>275</ele>
        <time>2018-05-23T09:10:22Z</time>
      </trkpt>
      <trkpt lat="45.9817" lon="4.85487">
        <ele>275</ele>
        <time>2018-05-23T09:10:23Z</time>
      </trkpt>
      <trkpt lat="45.98173" lon="4.85494">
        <ele>275</ele>
        <time>2018-05-23T09:10:24Z</time>
      </trkpt>
      <trkpt lat="45.98176" lon="4.85501">
        <ele>275</ele>
        <time>2018-05-23T09:10:25Z</time>
      </trkpt>
      <trkpt lat="45.9818" lon="4.85506">
        <ele>275</ele>
        <time>2018-05-23T09:10:26Z</time>
      </trkpt>
      <trkpt lat="45.98182" lon="4.85512">
        <ele>275</ele>
        <time>2018-05-23T09:10:27Z</time>
      </trkpt>
      <trkpt lat="45.98185" lon="4.85517">
        <ele>275</ele>
        <time>2018-05-23T09:10:28Z</time>
      </trkpt>
      <trkpt lat="45.98187" lon="4.85524">
        <ele>276</ele>
        <time>2018-05-23T09:10:29Z</time>
      </trkpt>
      <trkpt lat="45.98189" lon="4.8553">
        <ele>276</ele>
        <time>2018-05-23T09:10:30Z</time>
      </trkpt>
      <trkpt lat="45.98193" lon="4.85536">
        <ele>276</ele>
        <time>2018-05-23T09:10:31Z</time>
      </trkpt>
      <trkpt lat="45.98196" lon="4.85542">
        <ele>276</ele>
        <time>2018-05-23T09:10:32Z</time>
      </trkpt>
      <trkpt lat="45.98199" lon="4.8555">
        <ele>276</ele>
        <time>2018-05-23T09:10:33Z</time>
      </trkpt>
      <trkpt lat="45.98201" lon="4.85559">
        <ele>276</ele>
        <time>2018-05-23T09:10:34Z</time>
      </trkpt>
      <trkpt lat="45.98204" lon="4.85566">
        <ele>276</ele>
        <time>2018-05-23T09:10:35Z</time>
      </trkpt>
      <trkpt lat="45.98207" lon="4.85573">
        <ele>276</ele>
        <time>2018-05-23T09:10:36Z</time>
      </trkpt>
      <trkpt lat="45.98209" lon="4.8558">
        <ele>276</ele>
        <time>2018-05-23T09:10:37Z</time>
      </trkpt>
      <trkpt lat="45.98212" lon="4.85588">
        <ele>277</ele>
        <time>2018-05-23T09:10:38Z</time>
      </trkpt>
      <trkpt lat="45.98215" lon="4.85595">
        <ele>277</ele>
        <time>2018-05-23T09:10:39Z</time>
      </trkpt>
      <trkpt lat="45.98217" lon="4.85601">
        <ele>277</ele>
        <time>2018-05-23T09:10:40Z</time>
      </trkpt>
      <trkpt lat="45.98219" lon="4.85606">
        <ele>277</ele>
        <time>2018-05-23T09:10:41Z</time>
      </trkpt>
      <trkpt lat="45.98222" lon="4.85612">
        <ele>277</ele>
        <time>2018-05-23T09:10:42Z</time>
      </trkpt>
      <trkpt lat="45.98223" lon="4.85618">
        <ele>277</ele>
        <time>2018-05-23T09:10:43Z</time>
      </trkpt>
      <trkpt lat="45.98226" lon="4.85623">
        <ele>277</ele>
        <time>2018-05-23T09:10:44Z</time>
      </trkpt>
      <trkpt lat="45.98229" lon="4.8563">
        <ele>277</ele>
        <time>2018-05-23T09:10:45Z</time>
      </trkpt>
      <trkpt lat="45.98232" lon="4.85638">
        <ele>277</ele>
        <time>2018-05-23T09:10:46Z</time>
      </trkpt>
      <trkpt lat="45.98236" lon="4.85649">
        <ele>277</ele>
        <time>2018-05-23T09:10:48Z</time>
      </trkpt>
      <trkpt lat="45.98238" lon="4.85657">
        <ele>276</ele>
        <time>2018-05-23T09:10:49Z</time>
      </trkpt>
      <trkpt lat="45.9824" lon="4.85663">
        <ele>276</ele>
        <time>2018-05-23T09:10:50Z</time>
      </trkpt>
      <trkpt lat="45.98242" lon="4.85669">
        <ele>276</ele>
        <time>2018-05-23T09:10:51Z</time>
      </trkpt>
      <trkpt lat="45.98246" lon="4.8568">
        <ele>276</ele>
        <time>2018-05-23T09:10:53Z</time>
      </trkpt>
      <trkpt lat="45.98249" lon="4.85685">
        <ele>276</ele>
        <time>2018-05-23T09:10:54Z</time>
      </trkpt>
      <trkpt lat="45.98251" lon="4.85692">
        <ele>275</ele>
        <time>2018-05-23T09:10:55Z</time>
      </trkpt>
      <trkpt lat="45.98255" lon="4.85695">
        <ele>275</ele>
        <time>2018-05-23T09:10:56Z</time>
      </trkpt>
      <trkpt lat="45.98257" lon="4.85701">
        <ele>275</ele>
        <time>2018-05-23T09:10:57Z</time>
      </trkpt>
      <trkpt lat="45.9826" lon="4.85708">
        <ele>275</ele>
        <time>2018-05-23T09:10:58Z</time>
      </trkpt>
      <trkpt lat="45.98263" lon="4.85715">
        <ele>275</ele>
        <time>2018-05-23T09:10:59Z</time>
      </trkpt>
      <trkpt lat="45.98266" lon="4.85721">
        <ele>275</ele>
        <time>2018-05-23T09:11:00Z</time>
      </trkpt>
      <trkpt lat="45.98268" lon="4.85729">
        <ele>275</ele>
        <time>2018-05-23T09:11:01Z</time>
      </trkpt>
      <trkpt lat="45.98271" lon="4.85736">
        <ele>275</ele>
        <time>2018-05-23T09:11:02Z</time>
      </trkpt>
      <trkpt lat="45.98273" lon="4.85742">
        <ele>274</ele>
        <time>2018-05-23T09:11:03Z</time>
      </trkpt>
      <trkpt lat="45.98275" lon="4.85749">
        <ele>274</ele>
        <time>2018-05-23T09:11:04Z</time>
      </trkpt>
      <trkpt lat="45.98277" lon="4.85756">
        <ele>275</ele>
        <time>2018-05-23T09:11:05Z</time>
      </trkpt>
      <trkpt lat="45.9828" lon="4.85762">
        <ele>275</ele>
        <time>2018-05-23T09:11:06Z</time>
      </trkpt>
      <trkpt lat="45.98282" lon="4.85768">
        <ele>275</ele>
        <time>2018-05-23T09:11:07Z</time>
      </trkpt>
      <trkpt lat="45.98285" lon="4.85774">
        <ele>275</ele>
        <time>2018-05-23T09:11:08Z</time>
      </trkpt>
      <trkpt lat="45.98287" lon="4.8578">
        <ele>275</ele>
        <time>2018-05-23T09:11:09Z</time>
      </trkpt>
      <trkpt lat="45.98289" lon="4.85786">
        <ele>275</ele>
        <time>2018-05-23T09:11:10Z</time>
      </trkpt>
      <trkpt lat="45.98292" lon="4.85792">
        <ele>275</ele>
        <time>2018-05-23T09:11:11Z</time>
      </trkpt>
      <trkpt lat="45.98295" lon="4.85799">
        <ele>275</ele>
        <time>2018-05-23T09:11:12Z</time>
      </trkpt>
      <trkpt lat="45.98297" lon="4.85805">
        <ele>275</ele>
        <time>2018-05-23T09:11:13Z</time>
      </trkpt>
      <trkpt lat="45.983" lon="4.8581">
        <ele>275</ele>
        <time>2018-05-23T09:11:14Z</time>
      </trkpt>
      <trkpt lat="45.98303" lon="4.85816">
        <ele>275</ele>
        <time>2018-05-23T09:11:15Z</time>
      </trkpt>
      <trkpt lat="45.98306" lon="4.85822">
        <ele>275</ele>
        <time>2018-05-23T09:11:16Z</time>
      </trkpt>
      <trkpt lat="45.98309" lon="4.85832">
        <ele>275</ele>
        <time>2018-05-23T09:11:17Z</time>
      </trkpt>
      <trkpt lat="45.98312" lon="4.85837">
        <ele>276</ele>
        <time>2018-05-23T09:11:18Z</time>
      </trkpt>
      <trkpt lat="45.98314" lon="4.85843">
        <ele>276</ele>
        <time>2018-05-23T09:11:19Z</time>
      </trkpt>
      <trkpt lat="45.98317" lon="4.8585">
        <ele>276</ele>
        <time>2018-05-23T09:11:20Z</time>
      </trkpt>
      <trkpt lat="45.98321" lon="4.85859">
        <ele>276</ele>
        <time>2018-05-23T09:11:21Z</time>
      </trkpt>
      <trkpt lat="45.98323" lon="4.85866">
        <ele>276</ele>
        <time>2018-05-23T09:11:22Z</time>
      </trkpt>
      <trkpt lat="45.98324" lon="4.85873">
        <ele>276</ele>
        <time>2018-05-23T09:11:23Z</time>
      </trkpt>
      <trkpt lat="45.98327" lon="4.85881">
        <ele>276</ele>
        <time>2018-05-23T09:11:24Z</time>
      </trkpt>
      <trkpt lat="45.9833" lon="4.85888">
        <ele>276</ele>
        <time>2018-05-23T09:11:25Z</time>
      </trkpt>
      <trkpt lat="45.98333" lon="4.85896">
        <ele>276</ele>
        <time>2018-05-23T09:11:26Z</time>
      </trkpt>
      <trkpt lat="45.98338" lon="4.85903">
        <ele>276</ele>
        <time>2018-05-23T09:11:27Z</time>
      </trkpt>
      <trkpt lat="45.9834" lon="4.85909">
        <ele>276</ele>
        <time>2018-05-23T09:11:28Z</time>
      </trkpt>
      <trkpt lat="45.98343" lon="4.8592">
        <ele>276</ele>
        <time>2018-05-23T09:11:29Z</time>
      </trkpt>
      <trkpt lat="45.98345" lon="4.85928">
        <ele>276</ele>
        <time>2018-05-23T09:11:30Z</time>
      </trkpt>
      <trkpt lat="45.98348" lon="4.85935">
        <ele>276</ele>
        <time>2018-05-23T09:11:31Z</time>
      </trkpt>
      <trkpt lat="45.98351" lon="4.85941">
        <ele>276</ele>
        <time>2018-05-23T09:11:32Z</time>
      </trkpt>
      <trkpt lat="45.98352" lon="4.85949">
        <ele>276</ele>
        <time>2018-05-23T09:11:33Z</time>
      </trkpt>
      <trkpt lat="45.98357" lon="4.85953">
        <ele>276</ele>
        <time>2018-05-23T09:11:34Z</time>
      </trkpt>
      <trkpt lat="45.98358" lon="4.8596">
        <ele>276</ele>
        <time>2018-05-23T09:11:35Z</time>
      </trkpt>
      <trkpt lat="45.98359" lon="4.85967">
        <ele>276</ele>
        <time>2018-05-23T09:11:36Z</time>
      </trkpt>
      <trkpt lat="45.9836" lon="4.85973">
        <ele>276</ele>
        <time>2018-05-23T09:11:37Z</time>
      </trkpt>
      <trkpt lat="45.98364" lon="4.85979">
        <ele>276</ele>
        <time>2018-05-23T09:11:38Z</time>
      </trkpt>
      <trkpt lat="45.98368" lon="4.85985">
        <ele>276</ele>
        <time>2018-05-23T09:11:39Z</time>
      </trkpt>
      <trkpt lat="45.98371" lon="4.85993">
        <ele>277</ele>
        <time>2018-05-23T09:11:40Z</time>
      </trkpt>
      <trkpt lat="45.98373" lon="4.86">
        <ele>277</ele>
        <time>2018-05-23T09:11:41Z</time>
      </trkpt>
      <trkpt lat="45.98376" lon="4.86007">
        <ele>277</ele>
        <time>2018-05-23T09:11:42Z</time>
      </trkpt>
      <trkpt lat="45.98378" lon="4.86012">
        <ele>277</ele>
        <time>2018-05-23T09:11:43Z</time>
      </trkpt>
      <trkpt lat="45.98381" lon="4.8602">
        <ele>277</ele>
        <time>2018-05-23T09:11:44Z</time>
      </trkpt>
      <trkpt lat="45.98384" lon="4.86024">
        <ele>277</ele>
        <time>2018-05-23T09:11:45Z</time>
      </trkpt>
      <trkpt lat="45.98387" lon="4.86031">
        <ele>277</ele>
        <time>2018-05-23T09:11:46Z</time>
      </trkpt>
      <trkpt lat="45.9839" lon="4.86038">
        <ele>277</ele>
        <time>2018-05-23T09:11:47Z</time>
      </trkpt>
      <trkpt lat="45.98392" lon="4.86045">
        <ele>277</ele>
        <time>2018-05-23T09:11:48Z</time>
      </trkpt>
      <trkpt lat="45.98395" lon="4.86051">
        <ele>277</ele>
        <time>2018-05-23T09:11:49Z</time>
      </trkpt>
      <trkpt lat="45.98397" lon="4.86057">
        <ele>277</ele>
        <time>2018-05-23T09:11:50Z</time>
      </trkpt>
      <trkpt lat="45.984" lon="4.86063">
        <ele>277</ele>
        <time>2018-05-23T09:11:51Z</time>
      </trkpt>
      <trkpt lat="45.98401" lon="4.86069">
        <ele>277</ele>
        <time>2018-05-23T09:11:52Z</time>
      </trkpt>
      <trkpt lat="45.98403" lon="4.86077">
        <ele>277</ele>
        <time>2018-05-23T09:11:53Z</time>
      </trkpt>
      <trkpt lat="45.98404" lon="4.86084">
        <ele>277</ele>
        <time>2018-05-23T09:11:54Z</time>
      </trkpt>
      <trkpt lat="45.98406" lon="4.86093">
        <ele>277</ele>
        <time>2018-05-23T09:11:56Z</time>
      </trkpt>
      <trkpt lat="45.98407" lon="4.861">
        <ele>277</ele>
        <time>2018-05-23T09:11:57Z</time>
      </trkpt>
      <trkpt lat="45.98411" lon="4.86111">
        <ele>277</ele>
        <time>2018-05-23T09:11:59Z</time>
      </trkpt>
      <trkpt lat="45.98411" lon="4.86116">
        <ele>277</ele>
        <time>2018-05-23T09:12:00Z</time>
      </trkpt>
      <trkpt lat="45.98412" lon="4.86126">
        <ele>276</ele>
        <time>2018-05-23T09:12:02Z</time>
      </trkpt>
      <trkpt lat="45.98413" lon="4.86132">
        <ele>276</ele>
        <time>2018-05-23T09:12:03Z</time>
      </trkpt>
      <trkpt lat="45.98415" lon="4.86143">
        <ele>276</ele>
        <time>2018-05-23T09:12:05Z</time>
      </trkpt>
      <trkpt lat="45.98416" lon="4.86149">
        <ele>276</ele>
        <time>2018-05-23T09:12:06Z</time>
      </trkpt>
      <trkpt lat="45.98418" lon="4.86161">
        <ele>276</ele>
        <time>2018-05-23T09:12:08Z</time>
      </trkpt>
      <trkpt lat="45.98419" lon="4.86167">
        <ele>276</ele>
        <time>2018-05-23T09:12:09Z</time>
      </trkpt>
      <trkpt lat="45.98421" lon="4.86178">
        <ele>275</ele>
        <time>2018-05-23T09:12:11Z</time>
      </trkpt>
      <trkpt lat="45.98421" lon="4.86184">
        <ele>275</ele>
        <time>2018-05-23T09:12:12Z</time>
      </trkpt>
      <trkpt lat="45.98423" lon="4.86196">
        <ele>275</ele>
        <time>2018-05-23T09:12:14Z</time>
      </trkpt>
      <trkpt lat="45.98424" lon="4.86201">
        <ele>275</ele>
        <time>2018-05-23T09:12:15Z</time>
      </trkpt>
      <trkpt lat="45.98426" lon="4.86213">
        <ele>275</ele>
        <time>2018-05-23T09:12:17Z</time>
      </trkpt>
      <trkpt lat="45.98425" lon="4.8622">
        <ele>275</ele>
        <time>2018-05-23T09:12:18Z</time>
      </trkpt>
      <trkpt lat="45.98426" lon="4.86228">
        <ele>275</ele>
        <time>2018-05-23T09:12:19Z</time>
      </trkpt>
      <trkpt lat="45.98427" lon="4.86236">
        <ele>275</ele>
        <time>2018-05-23T09:12:20Z</time>
      </trkpt>
      <trkpt lat="45.98428" lon="4.86245">
        <ele>275</ele>
        <time>2018-05-23T09:12:21Z</time>
      </trkpt>
      <trkpt lat="45.98429" lon="4.86253">
        <ele>275</ele>
        <time>2018-05-23T09:12:22Z</time>
      </trkpt>
      <trkpt lat="45.98431" lon="4.86261">
        <ele>275</ele>
        <time>2018-05-23T09:12:23Z</time>
      </trkpt>
      <trkpt lat="45.98432" lon="4.86269">
        <ele>275</ele>
        <time>2018-05-23T09:12:24Z</time>
      </trkpt>
      <trkpt lat="45.98434" lon="4.86279">
        <ele>276</ele>
        <time>2018-05-23T09:12:25Z</time>
      </trkpt>
      <trkpt lat="45.98436" lon="4.86287">
        <ele>276</ele>
        <time>2018-05-23T09:12:26Z</time>
      </trkpt>
      <trkpt lat="45.98437" lon="4.86297">
        <ele>276</ele>
        <time>2018-05-23T09:12:27Z</time>
      </trkpt>
      <trkpt lat="45.9844" lon="4.86301">
        <ele>276</ele>
        <time>2018-05-23T09:12:28Z</time>
      </trkpt>
      <trkpt lat="45.98442" lon="4.86312">
        <ele>276</ele>
        <time>2018-05-23T09:12:29Z</time>
      </trkpt>
      <trkpt lat="45.98444" lon="4.86321">
        <ele>276</ele>
        <time>2018-05-23T09:12:30Z</time>
      </trkpt>
      <trkpt lat="45.98446" lon="4.86331">
        <ele>276</ele>
        <time>2018-05-23T09:12:31Z</time>
      </trkpt>
      <trkpt lat="45.98449" lon="4.8634">
        <ele>277</ele>
        <time>2018-05-23T09:12:32Z</time>
      </trkpt>
      <trkpt lat="45.98452" lon="4.86349">
        <ele>277</ele>
        <time>2018-05-23T09:12:33Z</time>
      </trkpt>
      <trkpt lat="45.98454" lon="4.86357">
        <ele>277</ele>
        <time>2018-05-23T09:12:34Z</time>
      </trkpt>
      <trkpt lat="45.98457" lon="4.86366">
        <ele>277</ele>
        <time>2018-05-23T09:12:35Z</time>
      </trkpt>
      <trkpt lat="45.98459" lon="4.86374">
        <ele>277</ele>
        <time>2018-05-23T09:12:36Z</time>
      </trkpt>
      <trkpt lat="45.98462" lon="4.86383">
        <ele>277</ele>
        <time>2018-05-23T09:12:37Z</time>
      </trkpt>
      <trkpt lat="45.98465" lon="4.86393">
        <ele>277</ele>
        <time>2018-05-23T09:12:38Z</time>
      </trkpt>
      <trkpt lat="45.98468" lon="4.86401">
        <ele>277</ele>
        <time>2018-05-23T09:12:39Z</time>
      </trkpt>
      <trkpt lat="45.98472" lon="4.86407">
        <ele>277</ele>
        <time>2018-05-23T09:12:40Z</time>
      </trkpt>
      <trkpt lat="45.98475" lon="4.86415">
        <ele>277</ele>
        <time>2018-05-23T09:12:41Z</time>
      </trkpt>
      <trkpt lat="45.98478" lon="4.86422">
        <ele>278</ele>
        <time>2018-05-23T09:12:42Z</time>
      </trkpt>
      <trkpt lat="45.98481" lon="4.8643">
        <ele>278</ele>
        <time>2018-05-23T09:12:43Z</time>
      </trkpt>
      <trkpt lat="45.98485" lon="4.86436">
        <ele>278</ele>
        <time>2018-05-23T09:12:44Z</time>
      </trkpt>
      <trkpt lat="45.98488" lon="4.86442">
        <ele>278</ele>
        <time>2018-05-23T09:12:45Z</time>
      </trkpt>
      <trkpt lat="45.9849" lon="4.8645">
        <ele>278</ele>
        <time>2018-05-23T09:12:46Z</time>
      </trkpt>
      <trkpt lat="45.98492" lon="4.86455">
        <ele>278</ele>
        <time>2018-05-23T09:12:47Z</time>
      </trkpt>
      <trkpt lat="45.98495" lon="4.86463">
        <ele>278</ele>
        <time>2018-05-23T09:12:48Z</time>
      </trkpt>
      <trkpt lat="45.98497" lon="4.8647">
        <ele>279</ele>
        <time>2018-05-23T09:12:49Z</time>
      </trkpt>
      <trkpt lat="45.985" lon="4.86474">
        <ele>279</ele>
        <time>2018-05-23T09:12:50Z</time>
      </trkpt>
      <trkpt lat="45.98503" lon="4.8648">
        <ele>278</ele>
        <time>2018-05-23T09:12:51Z</time>
      </trkpt>
      <trkpt lat="45.98506" lon="4.86486">
        <ele>279</ele>
        <time>2018-05-23T09:12:52Z</time>
      </trkpt>
      <trkpt lat="45.98509" lon="4.8649">
        <ele>279</ele>
        <time>2018-05-23T09:12:53Z</time>
      </trkpt>
      <trkpt lat="45.98512" lon="4.86497">
        <ele>279</ele>
        <time>2018-05-23T09:12:54Z</time>
      </trkpt>
      <trkpt lat="45.98515" lon="4.86503">
        <ele>279</ele>
        <time>2018-05-23T09:12:55Z</time>
      </trkpt>
      <trkpt lat="45.98517" lon="4.86511">
        <ele>279</ele>
        <time>2018-05-23T09:12:56Z</time>
      </trkpt>
      <trkpt lat="45.9852" lon="4.86517">
        <ele>279</ele>
        <time>2018-05-23T09:12:57Z</time>
      </trkpt>
      <trkpt lat="45.98523" lon="4.86524">
        <ele>279</ele>
        <time>2018-05-23T09:12:58Z</time>
      </trkpt>
      <trkpt lat="45.98526" lon="4.86531">
        <ele>279</ele>
        <time>2018-05-23T09:12:59Z</time>
      </trkpt>
      <trkpt lat="45.98529" lon="4.86537">
        <ele>279</ele>
        <time>2018-05-23T09:13:00Z</time>
      </trkpt>
      <trkpt lat="45.98532" lon="4.86542">
        <ele>279</ele>
        <time>2018-05-23T09:13:01Z</time>
      </trkpt>
      <trkpt lat="45.98535" lon="4.86549">
        <ele>279</ele>
        <time>2018-05-23T09:13:02Z</time>
      </trkpt>
      <trkpt lat="45.98537" lon="4.86554">
        <ele>279</ele>
        <time>2018-05-23T09:13:03Z</time>
      </trkpt>
      <trkpt lat="45.9854" lon="4.86562">
        <ele>279</ele>
        <time>2018-05-23T09:13:04Z</time>
      </trkpt>
      <trkpt lat="45.98543" lon="4.86568">
        <ele>278</ele>
        <time>2018-05-23T09:13:05Z</time>
      </trkpt>
      <trkpt lat="45.98545" lon="4.86574">
        <ele>278</ele>
        <time>2018-05-23T09:13:06Z</time>
      </trkpt>
      <trkpt lat="45.98548" lon="4.8658">
        <ele>278</ele>
        <time>2018-05-23T09:13:07Z</time>
      </trkpt>
      <trkpt lat="45.98551" lon="4.86586">
        <ele>278</ele>
        <time>2018-05-23T09:13:08Z</time>
      </trkpt>
      <trkpt lat="45.98553" lon="4.86593">
        <ele>278</ele>
        <time>2018-05-23T09:13:09Z</time>
      </trkpt>
      <trkpt lat="45.98554" lon="4.86601">
        <ele>278</ele>
        <time>2018-05-23T09:13:10Z</time>
      </trkpt>
      <trkpt lat="45.98557" lon="4.86608">
        <ele>278</ele>
        <time>2018-05-23T09:13:11Z</time>
      </trkpt>
      <trkpt lat="45.98558" lon="4.86616">
        <ele>278</ele>
        <time>2018-05-23T09:13:12Z</time>
      </trkpt>
      <trkpt lat="45.98559" lon="4.86624">
        <ele>278</ele>
        <time>2018-05-23T09:13:13Z</time>
      </trkpt>
      <trkpt lat="45.98561" lon="4.86632">
        <ele>278</ele>
        <time>2018-05-23T09:13:14Z</time>
      </trkpt>
      <trkpt lat="45.98561" lon="4.86643">
        <ele>277</ele>
        <time>2018-05-23T09:13:15Z</time>
      </trkpt>
      <trkpt lat="45.98563" lon="4.8665">
        <ele>277</ele>
        <time>2018-05-23T09:13:16Z</time>
      </trkpt>
      <trkpt lat="45.98564" lon="4.86657">
        <ele>277</ele>
        <time>2018-05-23T09:13:17Z</time>
      </trkpt>
      <trkpt lat="45.98565" lon="4.86665">
        <ele>277</ele>
        <time>2018-05-23T09:13:18Z</time>
      </trkpt>
      <trkpt lat="45.98566" lon="4.86672">
        <ele>276</ele>
        <time>2018-05-23T09:13:19Z</time>
      </trkpt>
      <trkpt lat="45.98568" lon="4.86679">
        <ele>276</ele>
        <time>2018-05-23T09:13:20Z</time>
      </trkpt>
      <trkpt lat="45.9857" lon="4.86687">
        <ele>277</ele>
        <time>2018-05-23T09:13:21Z</time>
      </trkpt>
      <trkpt lat="45.9857" lon="4.86693">
        <ele>277</ele>
        <time>2018-05-23T09:13:22Z</time>
      </trkpt>
      <trkpt lat="45.9857" lon="4.86701">
        <ele>277</ele>
        <time>2018-05-23T09:13:23Z</time>
      </trkpt>
      <trkpt lat="45.98571" lon="4.86707">
        <ele>277</ele>
        <time>2018-05-23T09:13:24Z</time>
      </trkpt>
      <trkpt lat="45.98571" lon="4.86716">
        <ele>277</ele>
        <time>2018-05-23T09:13:25Z</time>
      </trkpt>
      <trkpt lat="45.9857" lon="4.86723">
        <ele>277</ele>
        <time>2018-05-23T09:13:26Z</time>
      </trkpt>
      <trkpt lat="45.98571" lon="4.86731">
        <ele>277</ele>
        <time>2018-05-23T09:13:27Z</time>
      </trkpt>
      <trkpt lat="45.98571" lon="4.86738">
        <ele>277</ele>
        <time>2018-05-23T09:13:28Z</time>
      </trkpt>
      <trkpt lat="45.98572" lon="4.86745">
        <ele>277</ele>
        <time>2018-05-23T09:13:29Z</time>
      </trkpt>
      <trkpt lat="45.98573" lon="4.86753">
        <ele>277</ele>
        <time>2018-05-23T09:13:30Z</time>
      </trkpt>
      <trkpt lat="45.98574" lon="4.8676">
        <ele>277</ele>
        <time>2018-05-23T09:13:31Z</time>
      </trkpt>
      <trkpt lat="45.98576" lon="4.86767">
        <ele>277</ele>
        <time>2018-05-23T09:13:32Z</time>
      </trkpt>
      <trkpt lat="45.98577" lon="4.86773">
        <ele>277</ele>
        <time>2018-05-23T09:13:33Z</time>
      </trkpt>
      <trkpt lat="45.98578" lon="4.8678">
        <ele>277</ele>
        <time>2018-05-23T09:13:34Z</time>
      </trkpt>
      <trkpt lat="45.9858" lon="4.86789">
        <ele>277</ele>
        <time>2018-05-23T09:13:35Z</time>
      </trkpt>
      <trkpt lat="45.98581" lon="4.86798">
        <ele>277</ele>
        <time>2018-05-23T09:13:36Z</time>
      </trkpt>
      <trkpt lat="45.98583" lon="4.86806">
        <ele>277</ele>
        <time>2018-05-23T09:13:37Z</time>
      </trkpt>
      <trkpt lat="45.98585" lon="4.86814">
        <ele>276</ele>
        <time>2018-05-23T09:13:38Z</time>
      </trkpt>
      <trkpt lat="45.98586" lon="4.86823">
        <ele>277</ele>
        <time>2018-05-23T09:13:39Z</time>
      </trkpt>
      <trkpt lat="45.98587" lon="4.86831">
        <ele>277</ele>
        <time>2018-05-23T09:13:40Z</time>
      </trkpt>
      <trkpt lat="45.98588" lon="4.86839">
        <ele>277</ele>
        <time>2018-05-23T09:13:41Z</time>
      </trkpt>
      <trkpt lat="45.98589" lon="4.86848">
        <ele>277</ele>
        <time>2018-05-23T09:13:42Z</time>
      </trkpt>
      <trkpt lat="45.98586" lon="4.86856">
        <ele>277</ele>
        <time>2018-05-23T09:13:43Z</time>
      </trkpt>
      <trkpt lat="45.98589" lon="4.86868">
        <ele>277</ele>
        <time>2018-05-23T09:13:44Z</time>
      </trkpt>
      <trkpt lat="45.98589" lon="4.86876">
        <ele>277</ele>
        <time>2018-05-23T09:13:45Z</time>
      </trkpt>
      <trkpt lat="45.98588" lon="4.86884">
        <ele>278</ele>
        <time>2018-05-23T09:13:46Z</time>
      </trkpt>
      <trkpt lat="45.98589" lon="4.86892">
        <ele>278</ele>
        <time>2018-05-23T09:13:47Z</time>
      </trkpt>
      <trkpt lat="45.98589" lon="4.869">
        <ele>278</ele>
        <time>2018-05-23T09:13:48Z</time>
      </trkpt>
      <trkpt lat="45.98588" lon="4.86906">
        <ele>278</ele>
        <time>2018-05-23T09:13:49Z</time>
      </trkpt>
      <trkpt lat="45.98588" lon="4.86914">
        <ele>279</ele>
        <time>2018-05-23T09:13:50Z</time>
      </trkpt>
      <trkpt lat="45.98588" lon="4.8692">
        <ele>279</ele>
        <time>2018-05-23T09:13:51Z</time>
      </trkpt>
      <trkpt lat="45.98587" lon="4.86928">
        <ele>279</ele>
        <time>2018-05-23T09:13:52Z</time>
      </trkpt>
      <trkpt lat="45.98586" lon="4.86936">
        <ele>279</ele>
        <time>2018-05-23T09:13:53Z</time>
      </trkpt>
      <trkpt lat="45.98586" lon="4.86944">
        <ele>279</ele>
        <time>2018-05-23T09:13:54Z</time>
      </trkpt>
      <trkpt lat="45.98584" lon="4.86957">
        <ele>279</ele>
        <time>2018-05-23T09:13:56Z</time>
      </trkpt>
      <trkpt lat="45.98585" lon="4.86965">
        <ele>279</ele>
        <time>2018-05-23T09:13:57Z</time>
      </trkpt>
      <trkpt lat="45.98585" lon="4.86973">
        <ele>279</ele>
        <time>2018-05-23T09:13:58Z</time>
      </trkpt>
      <trkpt lat="45.98585" lon="4.86982">
        <ele>279</ele>
        <time>2018-05-23T09:13:59Z</time>
      </trkpt>
      <trkpt lat="45.98586" lon="4.8699">
        <ele>279</ele>
        <time>2018-05-23T09:14:00Z</time>
      </trkpt>
      <trkpt lat="45.98587" lon="4.86998">
        <ele>280</ele>
        <time>2018-05-23T09:14:01Z</time>
      </trkpt>
      <trkpt lat="45.98589" lon="4.87007">
        <ele>280</ele>
        <time>2018-05-23T09:14:02Z</time>
      </trkpt>
      <trkpt lat="45.98591" lon="4.87015">
        <ele>279</ele>
        <time>2018-05-23T09:14:03Z</time>
      </trkpt>
      <trkpt lat="45.98591" lon="4.87024">
        <ele>279</ele>
        <time>2018-05-23T09:14:04Z</time>
      </trkpt>
      <trkpt lat="45.98593" lon="4.87032">
        <ele>279</ele>
        <time>2018-05-23T09:14:05Z</time>
      </trkpt>
      <trkpt lat="45.98592" lon="4.8704">
        <ele>279</ele>
        <time>2018-05-23T09:14:06Z</time>
      </trkpt>
      <trkpt lat="45.98594" lon="4.87046">
        <ele>279</ele>
        <time>2018-05-23T09:14:07Z</time>
      </trkpt>
      <trkpt lat="45.98597" lon="4.87054">
        <ele>279</ele>
        <time>2018-05-23T09:14:08Z</time>
      </trkpt>
      <trkpt lat="45.986" lon="4.8706">
        <ele>279</ele>
        <time>2018-05-23T09:14:09Z</time>
      </trkpt>
      <trkpt lat="45.98602" lon="4.87068">
        <ele>279</ele>
        <time>2018-05-23T09:14:10Z</time>
      </trkpt>
      <trkpt lat="45.98603" lon="4.87076">
        <ele>279</ele>
        <time>2018-05-23T09:14:11Z</time>
      </trkpt>
      <trkpt lat="45.98605" lon="4.87085">
        <ele>279</ele>
        <time>2018-05-23T09:14:12Z</time>
      </trkpt>
      <trkpt lat="45.98606" lon="4.87093">
        <ele>279</ele>
        <time>2018-05-23T09:14:13Z</time>
      </trkpt>
      <trkpt lat="45.98605" lon="4.87103">
        <ele>279</ele>
        <time>2018-05-23T09:14:15Z</time>
      </trkpt>
      <trkpt lat="45.98605" lon="4.87115">
        <ele>279</ele>
        <time>2018-05-23T09:14:16Z</time>
      </trkpt>
      <trkpt lat="45.98606" lon="4.87123">
        <ele>279</ele>
        <time>2018-05-23T09:14:17Z</time>
      </trkpt>
      <trkpt lat="45.98606" lon="4.87133">
        <ele>279</ele>
        <time>2018-05-23T09:14:18Z</time>
      </trkpt>
      <trkpt lat="45.98608" lon="4.87141">
        <ele>278</ele>
        <time>2018-05-23T09:14:19Z</time>
      </trkpt>
      <trkpt lat="45.98608" lon="4.87149">
        <ele>278</ele>
        <time>2018-05-23T09:14:20Z</time>
      </trkpt>
      <trkpt lat="45.98607" lon="4.87161">
        <ele>278</ele>
        <time>2018-05-23T09:14:22Z</time>
      </trkpt>
      <trkpt lat="45.98608" lon="4.87168">
        <ele>277</ele>
        <time>2018-05-23T09:14:23Z</time>
      </trkpt>
      <trkpt lat="45.98608" lon="4.87175">
        <ele>277</ele>
        <time>2018-05-23T09:14:24Z</time>
      </trkpt>
      <trkpt lat="45.98608" lon="4.87181">
        <ele>277</ele>
        <time>2018-05-23T09:14:25Z</time>
      </trkpt>
      <trkpt lat="45.98607" lon="4.87193">
        <ele>277</ele>
        <time>2018-05-23T09:14:27Z</time>
      </trkpt>
      <trkpt lat="45.98607" lon="4.87199">
        <ele>277</ele>
        <time>2018-05-23T09:14:28Z</time>
      </trkpt>
      <trkpt lat="45.98606" lon="4.8721">
        <ele>277</ele>
        <time>2018-05-23T09:14:29Z</time>
      </trkpt>
      <trkpt lat="45.98605" lon="4.87214">
        <ele>277</ele>
        <time>2018-05-23T09:14:30Z</time>
      </trkpt>
      <trkpt lat="45.98603" lon="4.87225">
        <ele>277</ele>
        <time>2018-05-23T09:14:32Z</time>
      </trkpt>
      <trkpt lat="45.98603" lon="4.87235">
        <ele>277</ele>
        <time>2018-05-23T09:14:33Z</time>
      </trkpt>
      <trkpt lat="45.98602" lon="4.87245">
        <ele>277</ele>
        <time>2018-05-23T09:14:34Z</time>
      </trkpt>
      <trkpt lat="45.986" lon="4.87253">
        <ele>275</ele>
        <time>2018-05-23T09:14:35Z</time>
      </trkpt>
      <trkpt lat="45.98599" lon="4.87265">
        <ele>275</ele>
        <time>2018-05-23T09:14:36Z</time>
      </trkpt>
      <trkpt lat="45.98599" lon="4.87273">
        <ele>275</ele>
        <time>2018-05-23T09:14:37Z</time>
      </trkpt>
      <trkpt lat="45.98597" lon="4.87282">
        <ele>275</ele>
        <time>2018-05-23T09:14:38Z</time>
      </trkpt>
      <trkpt lat="45.98595" lon="4.87291">
        <ele>275</ele>
        <time>2018-05-23T09:14:39Z</time>
      </trkpt>
      <trkpt lat="45.98595" lon="4.87299">
        <ele>275</ele>
        <time>2018-05-23T09:14:40Z</time>
      </trkpt>
      <trkpt lat="45.98598" lon="4.8731">
        <ele>274</ele>
        <time>2018-05-23T09:14:41Z</time>
      </trkpt>
      <trkpt lat="45.98602" lon="4.8732">
        <ele>274</ele>
        <time>2018-05-23T09:14:42Z</time>
      </trkpt>
      <trkpt lat="45.98603" lon="4.87329">
        <ele>274</ele>
        <time>2018-05-23T09:14:43Z</time>
      </trkpt>
      <trkpt lat="45.98605" lon="4.87338">
        <ele>272</ele>
        <time>2018-05-23T09:14:44Z</time>
      </trkpt>
      <trkpt lat="45.98607" lon="4.87348">
        <ele>272</ele>
        <time>2018-05-23T09:14:45Z</time>
      </trkpt>
      <trkpt lat="45.98608" lon="4.87358">
        <ele>272</ele>
        <time>2018-05-23T09:14:46Z</time>
      </trkpt>
      <trkpt lat="45.98609" lon="4.87367">
        <ele>272</ele>
        <time>2018-05-23T09:14:47Z</time>
      </trkpt>
      <trkpt lat="45.98612" lon="4.87376">
        <ele>271</ele>
        <time>2018-05-23T09:14:48Z</time>
      </trkpt>
      <trkpt lat="45.98614" lon="4.87386">
        <ele>271</ele>
        <time>2018-05-23T09:14:49Z</time>
      </trkpt>
      <trkpt lat="45.98614" lon="4.87398">
        <ele>271</ele>
        <time>2018-05-23T09:14:50Z</time>
      </trkpt>
      <trkpt lat="45.98615" lon="4.87408">
        <ele>271</ele>
        <time>2018-05-23T09:14:51Z</time>
      </trkpt>
      <trkpt lat="45.98617" lon="4.87418">
        <ele>269</ele>
        <time>2018-05-23T09:14:52Z</time>
      </trkpt>
      <trkpt lat="45.98621" lon="4.87427">
        <ele>269</ele>
        <time>2018-05-23T09:14:53Z</time>
      </trkpt>
      <trkpt lat="45.98622" lon="4.87437">
        <ele>269</ele>
        <time>2018-05-23T09:14:54Z</time>
      </trkpt>
      <trkpt lat="45.98624" lon="4.87448">
        <ele>268</ele>
        <time>2018-05-23T09:14:55Z</time>
      </trkpt>
      <trkpt lat="45.98627" lon="4.87459">
        <ele>268</ele>
        <time>2018-05-23T09:14:56Z</time>
      </trkpt>
      <trkpt lat="45.98629" lon="4.87469">
        <ele>268</ele>
        <time>2018-05-23T09:14:57Z</time>
      </trkpt>
      <trkpt lat="45.98631" lon="4.87479">
        <ele>268</ele>
        <time>2018-05-23T09:14:58Z</time>
      </trkpt>
      <trkpt lat="45.98633" lon="4.87489">
        <ele>268</ele>
        <time>2018-05-23T09:14:59Z</time>
      </trkpt>
      <trkpt lat="45.98634" lon="4.87499">
        <ele>267</ele>
        <time>2018-05-23T09:15:00Z</time>
      </trkpt>
      <trkpt lat="45.98635" lon="4.8751">
        <ele>267</ele>
        <time>2018-05-23T09:15:01Z</time>
      </trkpt>
      <trkpt lat="45.98637" lon="4.8752">
        <ele>267</ele>
        <time>2018-05-23T09:15:02Z</time>
      </trkpt>
      <trkpt lat="45.98639" lon="4.87528">
        <ele>267</ele>
        <time>2018-05-23T09:15:03Z</time>
      </trkpt>
      <trkpt lat="45.9864" lon="4.87537">
        <ele>267</ele>
        <time>2018-05-23T09:15:04Z</time>
      </trkpt>
      <trkpt lat="45.98643" lon="4.87546">
        <ele>267</ele>
        <time>2018-05-23T09:15:05Z</time>
      </trkpt>
      <trkpt lat="45.98647" lon="4.87555">
        <ele>267</ele>
        <time>2018-05-23T09:15:06Z</time>
      </trkpt>
      <trkpt lat="45.98652" lon="4.87563">
        <ele>267</ele>
        <time>2018-05-23T09:15:07Z</time>
      </trkpt>
      <trkpt lat="45.98657" lon="4.8757">
        <ele>267</ele>
        <time>2018-05-23T09:15:08Z</time>
      </trkpt>
      <trkpt lat="45.98664" lon="4.8757">
        <ele>267</ele>
        <time>2018-05-23T09:15:09Z</time>
      </trkpt>
      <trkpt lat="45.98671" lon="4.87572">
        <ele>267</ele>
        <time>2018-05-23T09:15:10Z</time>
      </trkpt>
      <trkpt lat="45.98678" lon="4.87568">
        <ele>267</ele>
        <time>2018-05-23T09:15:11Z</time>
      </trkpt>
      <trkpt lat="45.98684" lon="4.87567">
        <ele>267</ele>
        <time>2018-05-23T09:15:12Z</time>
      </trkpt>
      <trkpt lat="45.9869" lon="4.87565">
        <ele>267</ele>
        <time>2018-05-23T09:15:13Z</time>
      </trkpt>
      <trkpt lat="45.98698" lon="4.87561">
        <ele>267</ele>
        <time>2018-05-23T09:15:15Z</time>
      </trkpt>
      <trkpt lat="45.98702" lon="4.87559">
        <ele>267</ele>
        <time>2018-05-23T09:15:16Z</time>
      </trkpt>
      <trkpt lat="45.98707" lon="4.87557">
        <ele>267</ele>
        <time>2018-05-23T09:15:17Z</time>
      </trkpt>
      <trkpt lat="45.98711" lon="4.87555">
        <ele>267</ele>
        <time>2018-05-23T09:15:18Z</time>
      </trkpt>
      <trkpt lat="45.98717" lon="4.87553">
        <ele>267</ele>
        <time>2018-05-23T09:15:19Z</time>
      </trkpt>
      <trkpt lat="45.98722" lon="4.87555">
        <ele>267</ele>
        <time>2018-05-23T09:15:20Z</time>
      </trkpt>
      <trkpt lat="45.98723" lon="4.87554">
        <ele>267</ele>
        <time>2018-05-23T09:15:21Z</time>
      </trkpt>
      <trkpt lat="45.98731" lon="4.87553">
        <ele>267</ele>
        <time>2018-05-23T09:15:22Z</time>
      </trkpt>
      <trkpt lat="45.98736" lon="4.87553">
        <ele>267</ele>
        <time>2018-05-23T09:15:23Z</time>
      </trkpt>
      <trkpt lat="45.98741" lon="4.87553">
        <ele>267</ele>
        <time>2018-05-23T09:15:24Z</time>
      </trkpt>
      <trkpt lat="45.98745" lon="4.87556">
        <ele>267</ele>
        <time>2018-05-23T09:15:25Z</time>
      </trkpt>
      <trkpt lat="45.9875" lon="4.87556">
        <ele>267</ele>
        <time>2018-05-23T09:15:26Z</time>
      </trkpt>
      <trkpt lat="45.98757" lon="4.87561">
        <ele>269</ele>
        <time>2018-05-23T09:15:28Z</time>
      </trkpt>
      <trkpt lat="45.98762" lon="4.87563">
        <ele>269</ele>
        <time>2018-05-23T09:15:29Z</time>
      </trkpt>
      <trkpt lat="45.98766" lon="4.87567">
        <ele>269</ele>
        <time>2018-05-23T09:15:30Z</time>
      </trkpt>
      <trkpt lat="45.98772" lon="4.8757">
        <ele>269</ele>
        <time>2018-05-23T09:15:31Z</time>
      </trkpt>
      <trkpt lat="45.98779" lon="4.87573">
        <ele>269</ele>
        <time>2018-05-23T09:15:32Z</time>
      </trkpt>
      <trkpt lat="45.9878" lon="4.87579">
        <ele>269</ele>
        <time>2018-05-23T09:15:33Z</time>
      </trkpt>
      <trkpt lat="45.98785" lon="4.87586">
        <ele>271</ele>
        <time>2018-05-23T09:15:35Z</time>
      </trkpt>
      <trkpt lat="45.98786" lon="4.87592">
        <ele>271</ele>
        <time>2018-05-23T09:15:36Z</time>
      </trkpt>
      <trkpt lat="45.98791" lon="4.87599">
        <ele>271</ele>
        <time>2018-05-23T09:15:38Z</time>
      </trkpt>
      <trkpt lat="45.98795" lon="4.87605">
        <ele>271</ele>
        <time>2018-05-23T09:15:39Z</time>
      </trkpt>
      <trkpt lat="45.98799" lon="4.87611">
        <ele>271</ele>
        <time>2018-05-23T09:15:41Z</time>
      </trkpt>
      <trkpt lat="45.98802" lon="4.87618">
        <ele>271</ele>
        <time>2018-05-23T09:15:42Z</time>
      </trkpt>
      <trkpt lat="45.98805" lon="4.87629">
        <ele>271</ele>
        <time>2018-05-23T09:15:44Z</time>
      </trkpt>
      <trkpt lat="45.98806" lon="4.87631">
        <ele>271</ele>
        <time>2018-05-23T09:15:45Z</time>
      </trkpt>
      <trkpt lat="45.98808" lon="4.87638">
        <ele>272</ele>
        <time>2018-05-23T09:15:48Z</time>
      </trkpt>
      <trkpt lat="45.98809" lon="4.87653">
        <ele>272</ele>
        <time>2018-05-23T09:15:49Z</time>
      </trkpt>
      <trkpt lat="45.98813" lon="4.8766">
        <ele>272</ele>
        <time>2018-05-23T09:15:50Z</time>
      </trkpt>
      <trkpt lat="45.98817" lon="4.87666">
        <ele>272</ele>
        <time>2018-05-23T09:15:51Z</time>
      </trkpt>
      <trkpt lat="45.98818" lon="4.87674">
        <ele>273</ele>
        <time>2018-05-23T09:15:52Z</time>
      </trkpt>
      <trkpt lat="45.98819" lon="4.8768">
        <ele>273</ele>
        <time>2018-05-23T09:15:53Z</time>
      </trkpt>
      <trkpt lat="45.98822" lon="4.87687">
        <ele>273</ele>
        <time>2018-05-23T09:15:54Z</time>
      </trkpt>
      <trkpt lat="45.98824" lon="4.87694">
        <ele>273</ele>
        <time>2018-05-23T09:15:55Z</time>
      </trkpt>
      <trkpt lat="45.98828" lon="4.87704">
        <ele>273</ele>
        <time>2018-05-23T09:15:57Z</time>
      </trkpt>
      <trkpt lat="45.9883" lon="4.87712">
        <ele>273</ele>
        <time>2018-05-23T09:15:58Z</time>
      </trkpt>
      <trkpt lat="45.9883" lon="4.87718">
        <ele>274</ele>
        <time>2018-05-23T09:15:59Z</time>
      </trkpt>
      <trkpt lat="45.98832" lon="4.87725">
        <ele>274</ele>
        <time>2018-05-23T09:16:00Z</time>
      </trkpt>
      <trkpt lat="45.98833" lon="4.87732">
        <ele>273</ele>
        <time>2018-05-23T09:16:01Z</time>
      </trkpt>
      <trkpt lat="45.98834" lon="4.87738">
        <ele>273</ele>
        <time>2018-05-23T09:16:02Z</time>
      </trkpt>
      <trkpt lat="45.98836" lon="4.87744">
        <ele>273</ele>
        <time>2018-05-23T09:16:03Z</time>
      </trkpt>
      <trkpt lat="45.98835" lon="4.87753">
        <ele>273</ele>
        <time>2018-05-23T09:16:04Z</time>
      </trkpt>
      <trkpt lat="45.98836" lon="4.87759">
        <ele>273</ele>
        <time>2018-05-23T09:16:05Z</time>
      </trkpt>
      <trkpt lat="45.98838" lon="4.87766">
        <ele>273</ele>
        <time>2018-05-23T09:16:06Z</time>
      </trkpt>
      <trkpt lat="45.98839" lon="4.87773">
        <ele>273</ele>
        <time>2018-05-23T09:16:07Z</time>
      </trkpt>
      <trkpt lat="45.98843" lon="4.87779">
        <ele>273</ele>
        <time>2018-05-23T09:16:08Z</time>
      </trkpt>
      <trkpt lat="45.98844" lon="4.87786">
        <ele>273</ele>
        <time>2018-05-23T09:16:09Z</time>
      </trkpt>
      <trkpt lat="45.98846" lon="4.87793">
        <ele>273</ele>
        <time>2018-05-23T09:16:10Z</time>
      </trkpt>
      <trkpt lat="45.98849" lon="4.87799">
        <ele>273</ele>
        <time>2018-05-23T09:16:11Z</time>
      </trkpt>
      <trkpt lat="45.98852" lon="4.87804">
        <ele>273</ele>
        <time>2018-05-23T09:16:12Z</time>
      </trkpt>
      <trkpt lat="45.98855" lon="4.87815">
        <ele>273</ele>
        <time>2018-05-23T09:16:14Z</time>
      </trkpt>
      <trkpt lat="45.98858" lon="4.8782">
        <ele>273</ele>
        <time>2018-05-23T09:16:15Z</time>
      </trkpt>
      <trkpt lat="45.98861" lon="4.87825">
        <ele>273</ele>
        <time>2018-05-23T09:16:16Z</time>
      </trkpt>
      <trkpt lat="45.98863" lon="4.87831">
        <ele>273</ele>
        <time>2018-05-23T09:16:17Z</time>
      </trkpt>
      <trkpt lat="45.98867" lon="4.87838">
        <ele>273</ele>
        <time>2018-05-23T09:16:18Z</time>
      </trkpt>
      <trkpt lat="45.9887" lon="4.87844">
        <ele>273</ele>
        <time>2018-05-23T09:16:19Z</time>
      </trkpt>
      <trkpt lat="45.98874" lon="4.87855">
        <ele>273</ele>
        <time>2018-05-23T09:16:21Z</time>
      </trkpt>
      <trkpt lat="45.98879" lon="4.87861">
        <ele>272</ele>
        <time>2018-05-23T09:16:22Z</time>
      </trkpt>
      <trkpt lat="45.98882" lon="4.87866">
        <ele>272</ele>
        <time>2018-05-23T09:16:23Z</time>
      </trkpt>
      <trkpt lat="45.98886" lon="4.8787">
        <ele>272</ele>
        <time>2018-05-23T09:16:24Z</time>
      </trkpt>
      <trkpt lat="45.9889" lon="4.87879">
        <ele>272</ele>
        <time>2018-05-23T09:16:26Z</time>
      </trkpt>
      <trkpt lat="45.98892" lon="4.87884">
        <ele>272</ele>
        <time>2018-05-23T09:16:27Z</time>
      </trkpt>
      <trkpt lat="45.989" lon="4.8789">
        <ele>272</ele>
        <time>2018-05-23T09:16:29Z</time>
      </trkpt>
      <trkpt lat="45.98904" lon="4.87893">
        <ele>272</ele>
        <time>2018-05-23T09:16:30Z</time>
      </trkpt>
      <trkpt lat="45.98909" lon="4.87901">
        <ele>272</ele>
        <time>2018-05-23T09:16:32Z</time>
      </trkpt>
      <trkpt lat="45.98911" lon="4.87903">
        <ele>272</ele>
        <time>2018-05-23T09:16:33Z</time>
      </trkpt>
      <trkpt lat="45.98916" lon="4.87908">
        <ele>271</ele>
        <time>2018-05-23T09:16:34Z</time>
      </trkpt>
      <trkpt lat="45.98919" lon="4.8791">
        <ele>272</ele>
        <time>2018-05-23T09:16:35Z</time>
      </trkpt>
      <trkpt lat="45.98922" lon="4.87913">
        <ele>272</ele>
        <time>2018-05-23T09:16:37Z</time>
      </trkpt>
      <trkpt lat="45.98927" lon="4.87918">
        <ele>272</ele>
        <time>2018-05-23T09:16:38Z</time>
      </trkpt>
      <trkpt lat="45.98935" lon="4.87924">
        <ele>272</ele>
        <time>2018-05-23T09:16:41Z</time>
      </trkpt>
      <trkpt lat="45.98937" lon="4.87924">
        <ele>272</ele>
        <time>2018-05-23T09:16:42Z</time>
      </trkpt>
      <trkpt lat="45.98945" lon="4.87928">
        <ele>273</ele>
        <time>2018-05-23T09:16:44Z</time>
      </trkpt>
      <trkpt lat="45.98946" lon="4.87929">
        <ele>273</ele>
        <time>2018-05-23T09:16:45Z</time>
      </trkpt>
      <trkpt lat="45.98954" lon="4.87935">
        <ele>273</ele>
        <time>2018-05-23T09:16:49Z</time>
      </trkpt>
      <trkpt lat="45.98956" lon="4.87937">
        <ele>273</ele>
        <time>2018-05-23T09:16:50Z</time>
      </trkpt>
      <trkpt lat="45.9896" lon="4.87941">
        <ele>273</ele>
        <time>2018-05-23T09:16:52Z</time>
      </trkpt>
      <trkpt lat="45.98967" lon="4.87947">
        <ele>274</ele>
        <time>2018-05-23T09:16:53Z</time>
      </trkpt>
      <trkpt lat="45.98974" lon="4.8795">
        <ele>274</ele>
        <time>2018-05-23T09:16:56Z</time>
      </trkpt>
      <trkpt lat="45.98977" lon="4.87951">
        <ele>274</ele>
        <time>2018-05-23T09:16:57Z</time>
      </trkpt>
      <trkpt lat="45.98986" lon="4.87954">
        <ele>274</ele>
        <time>2018-05-23T09:17:00Z</time>
      </trkpt>
      <trkpt lat="45.98988" lon="4.87955">
        <ele>274</ele>
        <time>2018-05-23T09:17:01Z</time>
      </trkpt>
      <trkpt lat="45.98999" lon="4.87959">
        <ele>274</ele>
        <time>2018-05-23T09:17:02Z</time>
      </trkpt>
      <trkpt lat="45.99005" lon="4.87961">
        <ele>276</ele>
        <time>2018-05-23T09:17:05Z</time>
      </trkpt>
      <trkpt lat="45.99008" lon="4.87962">
        <ele>276</ele>
        <time>2018-05-23T09:17:06Z</time>
      </trkpt>
      <trkpt lat="45.99015" lon="4.87966">
        <ele>276</ele>
        <time>2018-05-23T09:17:09Z</time>
      </trkpt>
      <trkpt lat="45.99017" lon="4.87968">
        <ele>276</ele>
        <time>2018-05-23T09:17:10Z</time>
      </trkpt>
      <trkpt lat="45.99025" lon="4.87973">
        <ele>276</ele>
        <time>2018-05-23T09:17:13Z</time>
      </trkpt>
      <trkpt lat="45.99028" lon="4.87975">
        <ele>276</ele>
        <time>2018-05-23T09:17:14Z</time>
      </trkpt>
      <trkpt lat="45.99034" lon="4.87978">
        <ele>276</ele>
        <time>2018-05-23T09:17:16Z</time>
      </trkpt>
      <trkpt lat="45.99036" lon="4.8798">
        <ele>276</ele>
        <time>2018-05-23T09:17:17Z</time>
      </trkpt>
      <trkpt lat="45.99042" lon="4.87983">
        <ele>277</ele>
        <time>2018-05-23T09:17:19Z</time>
      </trkpt>
      <trkpt lat="45.99051" lon="4.87989">
        <ele>277</ele>
        <time>2018-05-23T09:17:20Z</time>
      </trkpt>
      <trkpt lat="45.99058" lon="4.87992">
        <ele>277</ele>
        <time>2018-05-23T09:17:22Z</time>
      </trkpt>
      <trkpt lat="45.9906" lon="4.87993">
        <ele>277</ele>
        <time>2018-05-23T09:17:23Z</time>
      </trkpt>
      <trkpt lat="45.99062" lon="4.87994">
        <ele>277</ele>
        <time>2018-05-23T09:17:24Z</time>
      </trkpt>
      <trkpt lat="45.99068" lon="4.87997">
        <ele>277</ele>
        <time>2018-05-23T09:17:25Z</time>
      </trkpt>
      <trkpt lat="45.99075" lon="4.88001">
        <ele>278</ele>
        <time>2018-05-23T09:17:28Z</time>
      </trkpt>
      <trkpt lat="45.99077" lon="4.88003">
        <ele>278</ele>
        <time>2018-05-23T09:17:29Z</time>
      </trkpt>
      <trkpt lat="45.99083" lon="4.88006">
        <ele>278</ele>
        <time>2018-05-23T09:17:31Z</time>
      </trkpt>
      <trkpt lat="45.99087" lon="4.88007">
        <ele>278</ele>
        <time>2018-05-23T09:17:32Z</time>
      </trkpt>
      <trkpt lat="45.99095" lon="4.88011">
        <ele>278</ele>
        <time>2018-05-23T09:17:33Z</time>
      </trkpt>
      <trkpt lat="45.99104" lon="4.88016">
        <ele>278</ele>
        <time>2018-05-23T09:17:36Z</time>
      </trkpt>
      <trkpt lat="45.99108" lon="4.88019">
        <ele>278</ele>
        <time>2018-05-23T09:17:37Z</time>
      </trkpt>
      <trkpt lat="45.99115" lon="4.88023">
        <ele>278</ele>
        <time>2018-05-23T09:17:39Z</time>
      </trkpt>
      <trkpt lat="45.99118" lon="4.88026">
        <ele>278</ele>
        <time>2018-05-23T09:17:40Z</time>
      </trkpt>
      <trkpt lat="45.99125" lon="4.8803">
        <ele>279</ele>
        <time>2018-05-23T09:17:42Z</time>
      </trkpt>
      <trkpt lat="45.99129" lon="4.88032">
        <ele>279</ele>
        <time>2018-05-23T09:17:43Z</time>
      </trkpt>
      <trkpt lat="45.99136" lon="4.88036">
        <ele>279</ele>
        <time>2018-05-23T09:17:45Z</time>
      </trkpt>
      <trkpt lat="45.9914" lon="4.88038">
        <ele>279</ele>
        <time>2018-05-23T09:17:46Z</time>
      </trkpt>
      <trkpt lat="45.99148" lon="4.88042">
        <ele>279</ele>
        <time>2018-05-23T09:17:48Z</time>
      </trkpt>
      <trkpt lat="45.99152" lon="4.88045">
        <ele>279</ele>
        <time>2018-05-23T09:17:49Z</time>
      </trkpt>
      <trkpt lat="45.99156" lon="4.88048">
        <ele>279</ele>
        <time>2018-05-23T09:17:50Z</time>
      </trkpt>
      <trkpt lat="45.99159" lon="4.88051">
        <ele>279</ele>
        <time>2018-05-23T09:17:51Z</time>
      </trkpt>
      <trkpt lat="45.99167" lon="4.88057">
        <ele>279</ele>
        <time>2018-05-23T09:17:53Z</time>
      </trkpt>
      <trkpt lat="45.9917" lon="4.8806">
        <ele>279</ele>
        <time>2018-05-23T09:17:54Z</time>
      </trkpt>
      <trkpt lat="45.99178" lon="4.88067">
        <ele>279</ele>
        <time>2018-05-23T09:17:56Z</time>
      </trkpt>
      <trkpt lat="45.99181" lon="4.8807">
        <ele>279</ele>
        <time>2018-05-23T09:17:57Z</time>
      </trkpt>
      <trkpt lat="45.99188" lon="4.88076">
        <ele>280</ele>
        <time>2018-05-23T09:17:59Z</time>
      </trkpt>
      <trkpt lat="45.99192" lon="4.88079">
        <ele>280</ele>
        <time>2018-05-23T09:18:00Z</time>
      </trkpt>
      <trkpt lat="45.99199" lon="4.88085">
        <ele>280</ele>
        <time>2018-05-23T09:18:02Z</time>
      </trkpt>
      <trkpt lat="45.99202" lon="4.88088">
        <ele>280</ele>
        <time>2018-05-23T09:18:03Z</time>
      </trkpt>
      <trkpt lat="45.99209" lon="4.88094">
        <ele>280</ele>
        <time>2018-05-23T09:18:05Z</time>
      </trkpt>
      <trkpt lat="45.99212" lon="4.88098">
        <ele>280</ele>
        <time>2018-05-23T09:18:06Z</time>
      </trkpt>
      <trkpt lat="45.9922" lon="4.88104">
        <ele>280</ele>
        <time>2018-05-23T09:18:08Z</time>
      </trkpt>
      <trkpt lat="45.99224" lon="4.88106">
        <ele>280</ele>
        <time>2018-05-23T09:18:09Z</time>
      </trkpt>
      <trkpt lat="45.99231" lon="4.88112">
        <ele>280</ele>
        <time>2018-05-23T09:18:11Z</time>
      </trkpt>
      <trkpt lat="45.99235" lon="4.88116">
        <ele>280</ele>
        <time>2018-05-23T09:18:12Z</time>
      </trkpt>
      <trkpt lat="45.99242" lon="4.88123">
        <ele>280</ele>
        <time>2018-05-23T09:18:14Z</time>
      </trkpt>
      <trkpt lat="45.99246" lon="4.88126">
        <ele>280</ele>
        <time>2018-05-23T09:18:15Z</time>
      </trkpt>
      <trkpt lat="45.99253" lon="4.88132">
        <ele>283</ele>
        <time>2018-05-23T09:18:17Z</time>
      </trkpt>
      <trkpt lat="45.99257" lon="4.88136">
        <ele>283</ele>
        <time>2018-05-23T09:18:18Z</time>
      </trkpt>
      <trkpt lat="45.99261" lon="4.88139">
        <ele>283</ele>
        <time>2018-05-23T09:18:19Z</time>
      </trkpt>
      <trkpt lat="45.99265" lon="4.88144">
        <ele>283</ele>
        <time>2018-05-23T09:18:20Z</time>
      </trkpt>
      <trkpt lat="45.99272" lon="4.88151">
        <ele>283</ele>
        <time>2018-05-23T09:18:22Z</time>
      </trkpt>
      <trkpt lat="45.99276" lon="4.88154">
        <ele>283</ele>
        <time>2018-05-23T09:18:23Z</time>
      </trkpt>
      <trkpt lat="45.99283" lon="4.8816">
        <ele>284</ele>
        <time>2018-05-23T09:18:25Z</time>
      </trkpt>
      <trkpt lat="45.99287" lon="4.88164">
        <ele>284</ele>
        <time>2018-05-23T09:18:26Z</time>
      </trkpt>
      <trkpt lat="45.99294" lon="4.8817">
        <ele>284</ele>
        <time>2018-05-23T09:18:28Z</time>
      </trkpt>
      <trkpt lat="45.99298" lon="4.88173">
        <ele>284</ele>
        <time>2018-05-23T09:18:29Z</time>
      </trkpt>
      <trkpt lat="45.99305" lon="4.88179">
        <ele>285</ele>
        <time>2018-05-23T09:18:31Z</time>
      </trkpt>
      <trkpt lat="45.99309" lon="4.88182">
        <ele>285</ele>
        <time>2018-05-23T09:18:32Z</time>
      </trkpt>
      <trkpt lat="45.99316" lon="4.88188">
        <ele>285</ele>
        <time>2018-05-23T09:18:34Z</time>
      </trkpt>
      <trkpt lat="45.99319" lon="4.88191">
        <ele>285</ele>
        <time>2018-05-23T09:18:35Z</time>
      </trkpt>
      <trkpt lat="45.99326" lon="4.88198">
        <ele>285</ele>
        <time>2018-05-23T09:18:37Z</time>
      </trkpt>
      <trkpt lat="45.99329" lon="4.88201">
        <ele>285</ele>
        <time>2018-05-23T09:18:38Z</time>
      </trkpt>
      <trkpt lat="45.99336" lon="4.88208">
        <ele>287</ele>
        <time>2018-05-23T09:18:40Z</time>
      </trkpt>
      <trkpt lat="45.9934" lon="4.8821">
        <ele>287</ele>
        <time>2018-05-23T09:18:41Z</time>
      </trkpt>
      <trkpt lat="45.99347" lon="4.88216">
        <ele>287</ele>
        <time>2018-05-23T09:18:43Z</time>
      </trkpt>
      <trkpt lat="45.99352" lon="4.8822">
        <ele>287</ele>
        <time>2018-05-23T09:18:44Z</time>
      </trkpt>
      <trkpt lat="45.99355" lon="4.88223">
        <ele>287</ele>
        <time>2018-05-23T09:18:45Z</time>
      </trkpt>
      <trkpt lat="45.99359" lon="4.88227">
        <ele>287</ele>
        <time>2018-05-23T09:18:46Z</time>
      </trkpt>
      <trkpt lat="45.99366" lon="4.88234">
        <ele>287</ele>
        <time>2018-05-23T09:18:48Z</time>
      </trkpt>
      <trkpt lat="45.9937" lon="4.88238">
        <ele>287</ele>
        <time>2018-05-23T09:18:49Z</time>
      </trkpt>
      <trkpt lat="45.99373" lon="4.88243">
        <ele>287</ele>
        <time>2018-05-23T09:18:50Z</time>
      </trkpt>
      <trkpt lat="45.99376" lon="4.88247">
        <ele>287</ele>
        <time>2018-05-23T09:18:51Z</time>
      </trkpt>
      <trkpt lat="45.99379" lon="4.88253">
        <ele>285</ele>
        <time>2018-05-23T09:18:52Z</time>
      </trkpt>
      <trkpt lat="45.99381" lon="4.88258">
        <ele>285</ele>
        <time>2018-05-23T09:18:53Z</time>
      </trkpt>
      <trkpt lat="45.99385" lon="4.88265">
        <ele>285</ele>
        <time>2018-05-23T09:18:54Z</time>
      </trkpt>
      <trkpt lat="45.99388" lon="4.88268">
        <ele>285</ele>
        <time>2018-05-23T09:18:55Z</time>
      </trkpt>
      <trkpt lat="45.99393" lon="4.88273">
        <ele>285</ele>
        <time>2018-05-23T09:18:57Z</time>
      </trkpt>
      <trkpt lat="45.99397" lon="4.88278">
        <ele>284</ele>
        <time>2018-05-23T09:18:58Z</time>
      </trkpt>
      <trkpt lat="45.99397" lon="4.88284">
        <ele>284</ele>
        <time>2018-05-23T09:18:59Z</time>
      </trkpt>
      <trkpt lat="45.994" lon="4.88291">
        <ele>284</ele>
        <time>2018-05-23T09:19:00Z</time>
      </trkpt>
      <trkpt lat="45.99404" lon="4.88301">
        <ele>284</ele>
        <time>2018-05-23T09:19:02Z</time>
      </trkpt>
      <trkpt lat="45.99405" lon="4.88308">
        <ele>283</ele>
        <time>2018-05-23T09:19:03Z</time>
      </trkpt>
      <trkpt lat="45.99406" lon="4.88315">
        <ele>283</ele>
        <time>2018-05-23T09:19:04Z</time>
      </trkpt>
      <trkpt lat="45.99408" lon="4.88321">
        <ele>283</ele>
        <time>2018-05-23T09:19:05Z</time>
      </trkpt>
      <trkpt lat="45.9941" lon="4.88326">
        <ele>283</ele>
        <time>2018-05-23T09:19:06Z</time>
      </trkpt>
      <trkpt lat="45.99413" lon="4.88333">
        <ele>282</ele>
        <time>2018-05-23T09:19:07Z</time>
      </trkpt>
      <trkpt lat="45.99418" lon="4.88344">
        <ele>282</ele>
        <time>2018-05-23T09:19:09Z</time>
      </trkpt>
      <trkpt lat="45.99419" lon="4.8835">
        <ele>282</ele>
        <time>2018-05-23T09:19:10Z</time>
      </trkpt>
      <trkpt lat="45.99423" lon="4.88361">
        <ele>283</ele>
        <time>2018-05-23T09:19:12Z</time>
      </trkpt>
      <trkpt lat="45.99424" lon="4.88367">
        <ele>283</ele>
        <time>2018-05-23T09:19:13Z</time>
      </trkpt>
      <trkpt lat="45.99429" lon="4.88377">
        <ele>283</ele>
        <time>2018-05-23T09:19:15Z</time>
      </trkpt>
      <trkpt lat="45.99431" lon="4.88383">
        <ele>283</ele>
        <time>2018-05-23T09:19:16Z</time>
      </trkpt>
      <trkpt lat="45.99434" lon="4.88388">
        <ele>283</ele>
        <time>2018-05-23T09:19:17Z</time>
      </trkpt>
      <trkpt lat="45.99437" lon="4.88393">
        <ele>283</ele>
        <time>2018-05-23T09:19:18Z</time>
      </trkpt>
      <trkpt lat="45.9944" lon="4.88398">
        <ele>283</ele>
        <time>2018-05-23T09:19:19Z</time>
      </trkpt>
      <trkpt lat="45.99443" lon="4.88403">
        <ele>283</ele>
        <time>2018-05-23T09:19:20Z</time>
      </trkpt>
      <trkpt lat="45.99449" lon="4.88412">
        <ele>283</ele>
        <time>2018-05-23T09:19:22Z</time>
      </trkpt>
      <trkpt lat="45.99453" lon="4.88416">
        <ele>283</ele>
        <time>2018-05-23T09:19:23Z</time>
      </trkpt>
      <trkpt lat="45.9946" lon="4.88423">
        <ele>284</ele>
        <time>2018-05-23T09:19:25Z</time>
      </trkpt>
      <trkpt lat="45.99465" lon="4.88426">
        <ele>284</ele>
        <time>2018-05-23T09:19:26Z</time>
      </trkpt>
      <trkpt lat="45.99472" lon="4.88433">
        <ele>284</ele>
        <time>2018-05-23T09:19:28Z</time>
      </trkpt>
      <trkpt lat="45.99475" lon="4.88437">
        <ele>284</ele>
        <time>2018-05-23T09:19:29Z</time>
      </trkpt>
      <trkpt lat="45.99478" lon="4.88442">
        <ele>284</ele>
        <time>2018-05-23T09:19:30Z</time>
      </trkpt>
      <trkpt lat="45.99482" lon="4.88446">
        <ele>284</ele>
        <time>2018-05-23T09:19:31Z</time>
      </trkpt>
      <trkpt lat="45.99485" lon="4.88452">
        <ele>284</ele>
        <time>2018-05-23T09:19:32Z</time>
      </trkpt>
      <trkpt lat="45.99488" lon="4.88457">
        <ele>284</ele>
        <time>2018-05-23T09:19:33Z</time>
      </trkpt>
      <trkpt lat="45.99491" lon="4.88463">
        <ele>284</ele>
        <time>2018-05-23T09:19:34Z</time>
      </trkpt>
      <trkpt lat="45.99495" lon="4.88468">
        <ele>284</ele>
        <time>2018-05-23T09:19:35Z</time>
      </trkpt>
      <trkpt lat="45.99498" lon="4.88474">
        <ele>284</ele>
        <time>2018-05-23T09:19:36Z</time>
      </trkpt>
      <trkpt lat="45.99502" lon="4.88479">
        <ele>284</ele>
        <time>2018-05-23T09:19:37Z</time>
      </trkpt>
      <trkpt lat="45.99505" lon="4.88485">
        <ele>284</ele>
        <time>2018-05-23T09:19:38Z</time>
      </trkpt>
      <trkpt lat="45.99507" lon="4.8849">
        <ele>284</ele>
        <time>2018-05-23T09:19:39Z</time>
      </trkpt>
      <trkpt lat="45.99513" lon="4.885">
        <ele>284</ele>
        <time>2018-05-23T09:19:41Z</time>
      </trkpt>
      <trkpt lat="45.99516" lon="4.88506">
        <ele>285</ele>
        <time>2018-05-23T09:19:42Z</time>
      </trkpt>
      <trkpt lat="45.99522" lon="4.88515">
        <ele>285</ele>
        <time>2018-05-23T09:19:44Z</time>
      </trkpt>
      <trkpt lat="45.99524" lon="4.88521">
        <ele>285</ele>
        <time>2018-05-23T09:19:45Z</time>
      </trkpt>
      <trkpt lat="45.99527" lon="4.88526">
        <ele>285</ele>
        <time>2018-05-23T09:19:46Z</time>
      </trkpt>
      <trkpt lat="45.99529" lon="4.88532">
        <ele>285</ele>
        <time>2018-05-23T09:19:47Z</time>
      </trkpt>
      <trkpt lat="45.99532" lon="4.88537">
        <ele>285</ele>
        <time>2018-05-23T09:19:48Z</time>
      </trkpt>
      <trkpt lat="45.99534" lon="4.88543">
        <ele>285</ele>
        <time>2018-05-23T09:19:49Z</time>
      </trkpt>
      <trkpt lat="45.99537" lon="4.8855">
        <ele>285</ele>
        <time>2018-05-23T09:19:50Z</time>
      </trkpt>
      <trkpt lat="45.99539" lon="4.88555">
        <ele>285</ele>
        <time>2018-05-23T09:19:51Z</time>
      </trkpt>
      <trkpt lat="45.99541" lon="4.88561">
        <ele>285</ele>
        <time>2018-05-23T09:19:52Z</time>
      </trkpt>
      <trkpt lat="45.99543" lon="4.88567">
        <ele>285</ele>
        <time>2018-05-23T09:19:53Z</time>
      </trkpt>
      <trkpt lat="45.99544" lon="4.88574">
        <ele>286</ele>
        <time>2018-05-23T09:19:54Z</time>
      </trkpt>
      <trkpt lat="45.99547" lon="4.88582">
        <ele>286</ele>
        <time>2018-05-23T09:19:55Z</time>
      </trkpt>
      <trkpt lat="45.99548" lon="4.88588">
        <ele>286</ele>
        <time>2018-05-23T09:19:56Z</time>
      </trkpt>
      <trkpt lat="45.99549" lon="4.88595">
        <ele>286</ele>
        <time>2018-05-23T09:19:57Z</time>
      </trkpt>
      <trkpt lat="45.9955" lon="4.88602">
        <ele>286</ele>
        <time>2018-05-23T09:19:58Z</time>
      </trkpt>
      <trkpt lat="45.99551" lon="4.88609">
        <ele>286</ele>
        <time>2018-05-23T09:19:59Z</time>
      </trkpt>
      <trkpt lat="45.99551" lon="4.88616">
        <ele>286</ele>
        <time>2018-05-23T09:20:00Z</time>
      </trkpt>
      <trkpt lat="45.99552" lon="4.88623">
        <ele>286</ele>
        <time>2018-05-23T09:20:01Z</time>
      </trkpt>
      <trkpt lat="45.99553" lon="4.88636">
        <ele>286</ele>
        <time>2018-05-23T09:20:03Z</time>
      </trkpt>
      <trkpt lat="45.99553" lon="4.88642">
        <ele>286</ele>
        <time>2018-05-23T09:20:04Z</time>
      </trkpt>
      <trkpt lat="45.99554" lon="4.88649">
        <ele>286</ele>
        <time>2018-05-23T09:20:05Z</time>
      </trkpt>
      <trkpt lat="45.99554" lon="4.88656">
        <ele>286</ele>
        <time>2018-05-23T09:20:06Z</time>
      </trkpt>
      <trkpt lat="45.99555" lon="4.88663">
        <ele>286</ele>
        <time>2018-05-23T09:20:07Z</time>
      </trkpt>
      <trkpt lat="45.99556" lon="4.88669">
        <ele>286</ele>
        <time>2018-05-23T09:20:08Z</time>
      </trkpt>
      <trkpt lat="45.99556" lon="4.88675">
        <ele>286</ele>
        <time>2018-05-23T09:20:09Z</time>
      </trkpt>
      <trkpt lat="45.99556" lon="4.88682">
        <ele>286</ele>
        <time>2018-05-23T09:20:10Z</time>
      </trkpt>
      <trkpt lat="45.99557" lon="4.88695">
        <ele>286</ele>
        <time>2018-05-23T09:20:12Z</time>
      </trkpt>
      <trkpt lat="45.99558" lon="4.887">
        <ele>286</ele>
        <time>2018-05-23T09:20:13Z</time>
      </trkpt>
      <trkpt lat="45.99559" lon="4.88707">
        <ele>286</ele>
        <time>2018-05-23T09:20:14Z</time>
      </trkpt>
      <trkpt lat="45.99559" lon="4.88714">
        <ele>286</ele>
        <time>2018-05-23T09:20:15Z</time>
      </trkpt>
      <trkpt lat="45.9956" lon="4.88719">
        <ele>286</ele>
        <time>2018-05-23T09:20:16Z</time>
      </trkpt>
      <trkpt lat="45.99562" lon="4.88726">
        <ele>286</ele>
        <time>2018-05-23T09:20:17Z</time>
      </trkpt>
      <trkpt lat="45.99563" lon="4.88737">
        <ele>287</ele>
        <time>2018-05-23T09:20:19Z</time>
      </trkpt>
      <trkpt lat="45.99563" lon="4.88743">
        <ele>287</ele>
        <time>2018-05-23T09:20:20Z</time>
      </trkpt>
      <trkpt lat="45.99564" lon="4.88755">
        <ele>287</ele>
        <time>2018-05-23T09:20:22Z</time>
      </trkpt>
      <trkpt lat="45.99564" lon="4.88763">
        <ele>287</ele>
        <time>2018-05-23T09:20:23Z</time>
      </trkpt>
      <trkpt lat="45.99565" lon="4.88769">
        <ele>287</ele>
        <time>2018-05-23T09:20:24Z</time>
      </trkpt>
      <trkpt lat="45.99566" lon="4.88777">
        <ele>287</ele>
        <time>2018-05-23T09:20:25Z</time>
      </trkpt>
      <trkpt lat="45.9957" lon="4.88787">
        <ele>287</ele>
        <time>2018-05-23T09:20:26Z</time>
      </trkpt>
      <trkpt lat="45.9957" lon="4.88794">
        <ele>287</ele>
        <time>2018-05-23T09:20:27Z</time>
      </trkpt>
      <trkpt lat="45.9957" lon="4.88801">
        <ele>287</ele>
        <time>2018-05-23T09:20:28Z</time>
      </trkpt>
      <trkpt lat="45.9957" lon="4.88809">
        <ele>287</ele>
        <time>2018-05-23T09:20:29Z</time>
      </trkpt>
      <trkpt lat="45.99571" lon="4.88816">
        <ele>287</ele>
        <time>2018-05-23T09:20:30Z</time>
      </trkpt>
      <trkpt lat="45.99572" lon="4.88823">
        <ele>287</ele>
        <time>2018-05-23T09:20:31Z</time>
      </trkpt>
      <trkpt lat="45.99573" lon="4.88836">
        <ele>287</ele>
        <time>2018-05-23T09:20:33Z</time>
      </trkpt>
      <trkpt lat="45.99574" lon="4.88843">
        <ele>287</ele>
        <time>2018-05-23T09:20:34Z</time>
      </trkpt>
      <trkpt lat="45.99574" lon="4.88851">
        <ele>287</ele>
        <time>2018-05-23T09:20:35Z</time>
      </trkpt>
      <trkpt lat="45.99574" lon="4.88859">
        <ele>287</ele>
        <time>2018-05-23T09:20:36Z</time>
      </trkpt>
      <trkpt lat="45.99575" lon="4.88866">
        <ele>287</ele>
        <time>2018-05-23T09:20:37Z</time>
      </trkpt>
      <trkpt lat="45.99574" lon="4.88873">
        <ele>287</ele>
        <time>2018-05-23T09:20:38Z</time>
      </trkpt>
      <trkpt lat="45.99576" lon="4.8888">
        <ele>287</ele>
        <time>2018-05-23T09:20:39Z</time>
      </trkpt>
      <trkpt lat="45.99576" lon="4.88888">
        <ele>287</ele>
        <time>2018-05-23T09:20:40Z</time>
      </trkpt>
      <trkpt lat="45.99578" lon="4.88898">
        <ele>287</ele>
        <time>2018-05-23T09:20:41Z</time>
      </trkpt>
      <trkpt lat="45.99579" lon="4.88905">
        <ele>287</ele>
        <time>2018-05-23T09:20:42Z</time>
      </trkpt>
      <trkpt lat="45.99579" lon="4.88914">
        <ele>287</ele>
        <time>2018-05-23T09:20:43Z</time>
      </trkpt>
      <trkpt lat="45.9958" lon="4.88921">
        <ele>287</ele>
        <time>2018-05-23T09:20:44Z</time>
      </trkpt>
      <trkpt lat="45.99581" lon="4.88933">
        <ele>287</ele>
        <time>2018-05-23T09:20:46Z</time>
      </trkpt>
      <trkpt lat="45.99582" lon="4.88939">
        <ele>287</ele>
        <time>2018-05-23T09:20:47Z</time>
      </trkpt>
      <trkpt lat="45.99583" lon="4.88946">
        <ele>287</ele>
        <time>2018-05-23T09:20:48Z</time>
      </trkpt>
      <trkpt lat="45.99583" lon="4.88953">
        <ele>287</ele>
        <time>2018-05-23T09:20:49Z</time>
      </trkpt>
      <trkpt lat="45.99583" lon="4.88961">
        <ele>287</ele>
        <time>2018-05-23T09:20:50Z</time>
      </trkpt>
      <trkpt lat="45.99584" lon="4.88969">
        <ele>288</ele>
        <time>2018-05-23T09:20:51Z</time>
      </trkpt>
      <trkpt lat="45.99584" lon="4.88977">
        <ele>288</ele>
        <time>2018-05-23T09:20:52Z</time>
      </trkpt>
      <trkpt lat="45.99584" lon="4.88985">
        <ele>288</ele>
        <time>2018-05-23T09:20:53Z</time>
      </trkpt>
      <trkpt lat="45.99583" lon="4.88991">
        <ele>288</ele>
        <time>2018-05-23T09:20:54Z</time>
      </trkpt>
      <trkpt lat="45.99583" lon="4.88998">
        <ele>288</ele>
        <time>2018-05-23T09:20:55Z</time>
      </trkpt>
      <trkpt lat="45.99586" lon="4.89006">
        <ele>288</ele>
        <time>2018-05-23T09:20:56Z</time>
      </trkpt>
      <trkpt lat="45.99585" lon="4.89012">
        <ele>288</ele>
        <time>2018-05-23T09:20:57Z</time>
      </trkpt>
      <trkpt lat="45.99584" lon="4.89019">
        <ele>288</ele>
        <time>2018-05-23T09:20:58Z</time>
      </trkpt>
      <trkpt lat="45.99584" lon="4.89026">
        <ele>288</ele>
        <time>2018-05-23T09:20:59Z</time>
      </trkpt>
      <trkpt lat="45.99583" lon="4.89032">
        <ele>289</ele>
        <time>2018-05-23T09:21:00Z</time>
      </trkpt>
      <trkpt lat="45.99583" lon="4.89039">
        <ele>288</ele>
        <time>2018-05-23T09:21:01Z</time>
      </trkpt>
      <trkpt lat="45.99582" lon="4.89051">
        <ele>288</ele>
        <time>2018-05-23T09:21:03Z</time>
      </trkpt>
      <trkpt lat="45.99581" lon="4.89058">
        <ele>289</ele>
        <time>2018-05-23T09:21:04Z</time>
      </trkpt>
      <trkpt lat="45.9958" lon="4.89065">
        <ele>289</ele>
        <time>2018-05-23T09:21:05Z</time>
      </trkpt>
      <trkpt lat="45.99582" lon="4.89074">
        <ele>289</ele>
        <time>2018-05-23T09:21:06Z</time>
      </trkpt>
      <trkpt lat="45.99581" lon="4.89082">
        <ele>289</ele>
        <time>2018-05-23T09:21:07Z</time>
      </trkpt>
      <trkpt lat="45.9958" lon="4.89088">
        <ele>289</ele>
        <time>2018-05-23T09:21:08Z</time>
      </trkpt>
      <trkpt lat="45.9958" lon="4.89095">
        <ele>289</ele>
        <time>2018-05-23T09:21:09Z</time>
      </trkpt>
      <trkpt lat="45.99579" lon="4.89102">
        <ele>289</ele>
        <time>2018-05-23T09:21:10Z</time>
      </trkpt>
      <trkpt lat="45.99577" lon="4.89114">
        <ele>289</ele>
        <time>2018-05-23T09:21:12Z</time>
      </trkpt>
      <trkpt lat="45.99577" lon="4.89121">
        <ele>289</ele>
        <time>2018-05-23T09:21:13Z</time>
      </trkpt>
      <trkpt lat="45.99577" lon="4.89127">
        <ele>289</ele>
        <time>2018-05-23T09:21:14Z</time>
      </trkpt>
      <trkpt lat="45.99578" lon="4.89137">
        <ele>289</ele>
        <time>2018-05-23T09:21:15Z</time>
      </trkpt>
      <trkpt lat="45.99578" lon="4.89148">
        <ele>289</ele>
        <time>2018-05-23T09:21:17Z</time>
      </trkpt>
      <trkpt lat="45.99578" lon="4.89155">
        <ele>288</ele>
        <time>2018-05-23T09:21:18Z</time>
      </trkpt>
      <trkpt lat="45.99578" lon="4.89161">
        <ele>288</ele>
        <time>2018-05-23T09:21:19Z</time>
      </trkpt>
      <trkpt lat="45.99578" lon="4.89168">
        <ele>288</ele>
        <time>2018-05-23T09:21:20Z</time>
      </trkpt>
      <trkpt lat="45.99579" lon="4.89176">
        <ele>288</ele>
        <time>2018-05-23T09:21:21Z</time>
      </trkpt>
      <trkpt lat="45.99579" lon="4.89181">
        <ele>288</ele>
        <time>2018-05-23T09:21:22Z</time>
      </trkpt>
      <trkpt lat="45.99579" lon="4.89188">
        <ele>288</ele>
        <time>2018-05-23T09:21:23Z</time>
      </trkpt>
      <trkpt lat="45.99579" lon="4.89195">
        <ele>288</ele>
        <time>2018-05-23T09:21:24Z</time>
      </trkpt>
      <trkpt lat="45.9958" lon="4.89202">
        <ele>288</ele>
        <time>2018-05-23T09:21:25Z</time>
      </trkpt>
      <trkpt lat="45.9958" lon="4.8921">
        <ele>288</ele>
        <time>2018-05-23T09:21:26Z</time>
      </trkpt>
      <trkpt lat="45.99581" lon="4.89222">
        <ele>288</ele>
        <time>2018-05-23T09:21:28Z</time>
      </trkpt>
      <trkpt lat="45.99582" lon="4.8923">
        <ele>288</ele>
        <time>2018-05-23T09:21:29Z</time>
      </trkpt>
      <trkpt lat="45.99582" lon="4.89236">
        <ele>288</ele>
        <time>2018-05-23T09:21:30Z</time>
      </trkpt>
      <trkpt lat="45.99583" lon="4.89243">
        <ele>288</ele>
        <time>2018-05-23T09:21:31Z</time>
      </trkpt>
      <trkpt lat="45.99583" lon="4.89254">
        <ele>288</ele>
        <time>2018-05-23T09:21:33Z</time>
      </trkpt>
      <trkpt lat="45.99584" lon="4.8926">
        <ele>288</ele>
        <time>2018-05-23T09:21:34Z</time>
      </trkpt>
      <trkpt lat="45.99585" lon="4.89266">
        <ele>288</ele>
        <time>2018-05-23T09:21:35Z</time>
      </trkpt>
      <trkpt lat="45.99586" lon="4.89273">
        <ele>288</ele>
        <time>2018-05-23T09:21:36Z</time>
      </trkpt>
      <trkpt lat="45.99587" lon="4.89279">
        <ele>289</ele>
        <time>2018-05-23T09:21:37Z</time>
      </trkpt>
      <trkpt lat="45.99586" lon="4.89286">
        <ele>289</ele>
        <time>2018-05-23T09:21:38Z</time>
      </trkpt>
      <trkpt lat="45.99587" lon="4.89298">
        <ele>289</ele>
        <time>2018-05-23T09:21:40Z</time>
      </trkpt>
      <trkpt lat="45.99587" lon="4.89304">
        <ele>289</ele>
        <time>2018-05-23T09:21:41Z</time>
      </trkpt>
      <trkpt lat="45.99589" lon="4.89317">
        <ele>289</ele>
        <time>2018-05-23T09:21:43Z</time>
      </trkpt>
      <trkpt lat="45.99589" lon="4.89324">
        <ele>289</ele>
        <time>2018-05-23T09:21:44Z</time>
      </trkpt>
      <trkpt lat="45.99589" lon="4.89331">
        <ele>289</ele>
        <time>2018-05-23T09:21:45Z</time>
      </trkpt>
      <trkpt lat="45.99589" lon="4.89339">
        <ele>289</ele>
        <time>2018-05-23T09:21:46Z</time>
      </trkpt>
      <trkpt lat="45.9959" lon="4.89351">
        <ele>289</ele>
        <time>2018-05-23T09:21:48Z</time>
      </trkpt>
      <trkpt lat="45.9959" lon="4.89358">
        <ele>289</ele>
        <time>2018-05-23T09:21:49Z</time>
      </trkpt>
      <trkpt lat="45.99591" lon="4.8937">
        <ele>289</ele>
        <time>2018-05-23T09:21:51Z</time>
      </trkpt>
      <trkpt lat="45.99592" lon="4.89377">
        <ele>290</ele>
        <time>2018-05-23T09:21:52Z</time>
      </trkpt>
      <trkpt lat="45.99593" lon="4.89388">
        <ele>290</ele>
        <time>2018-05-23T09:21:54Z</time>
      </trkpt>
      <trkpt lat="45.99593" lon="4.89394">
        <ele>290</ele>
        <time>2018-05-23T09:21:55Z</time>
      </trkpt>
      <trkpt lat="45.99593" lon="4.89401">
        <ele>290</ele>
        <time>2018-05-23T09:21:56Z</time>
      </trkpt>
      <trkpt lat="45.99594" lon="4.89407">
        <ele>290</ele>
        <time>2018-05-23T09:21:57Z</time>
      </trkpt>
      <trkpt lat="45.99594" lon="4.89415">
        <ele>290</ele>
        <time>2018-05-23T09:21:58Z</time>
      </trkpt>
      <trkpt lat="45.99595" lon="4.89422">
        <ele>290</ele>
        <time>2018-05-23T09:21:59Z</time>
      </trkpt>
      <trkpt lat="45.99596" lon="4.89429">
        <ele>290</ele>
        <time>2018-05-23T09:22:00Z</time>
      </trkpt>
      <trkpt lat="45.99596" lon="4.89435">
        <ele>290</ele>
        <time>2018-05-23T09:22:01Z</time>
      </trkpt>
      <trkpt lat="45.99596" lon="4.89442">
        <ele>290</ele>
        <time>2018-05-23T09:22:02Z</time>
      </trkpt>
      <trkpt lat="45.99595" lon="4.89448">
        <ele>290</ele>
        <time>2018-05-23T09:22:03Z</time>
      </trkpt>
      <trkpt lat="45.99596" lon="4.8946">
        <ele>290</ele>
        <time>2018-05-23T09:22:05Z</time>
      </trkpt>
      <trkpt lat="45.99596" lon="4.89466">
        <ele>290</ele>
        <time>2018-05-23T09:22:06Z</time>
      </trkpt>
      <trkpt lat="45.99597" lon="4.89473">
        <ele>290</ele>
        <time>2018-05-23T09:22:07Z</time>
      </trkpt>
      <trkpt lat="45.99597" lon="4.8948">
        <ele>290</ele>
        <time>2018-05-23T09:22:08Z</time>
      </trkpt>
      <trkpt lat="45.99598" lon="4.89487">
        <ele>290</ele>
        <time>2018-05-23T09:22:09Z</time>
      </trkpt>
      <trkpt lat="45.99598" lon="4.89493">
        <ele>290</ele>
        <time>2018-05-23T09:22:10Z</time>
      </trkpt>
      <trkpt lat="45.99599" lon="4.89505">
        <ele>290</ele>
        <time>2018-05-23T09:22:12Z</time>
      </trkpt>
      <trkpt lat="45.996" lon="4.89512">
        <ele>290</ele>
        <time>2018-05-23T09:22:13Z</time>
      </trkpt>
      <trkpt lat="45.99601" lon="4.89525">
        <ele>291</ele>
        <time>2018-05-23T09:22:15Z</time>
      </trkpt>
      <trkpt lat="45.99601" lon="4.89531">
        <ele>291</ele>
        <time>2018-05-23T09:22:16Z</time>
      </trkpt>
      <trkpt lat="45.99602" lon="4.89541">
        <ele>291</ele>
        <time>2018-05-23T09:22:18Z</time>
      </trkpt>
      <trkpt lat="45.99603" lon="4.89548">
        <ele>291</ele>
        <time>2018-05-23T09:22:19Z</time>
      </trkpt>
      <trkpt lat="45.99603" lon="4.89561">
        <ele>291</ele>
        <time>2018-05-23T09:22:21Z</time>
      </trkpt>
      <trkpt lat="45.99604" lon="4.89566">
        <ele>291</ele>
        <time>2018-05-23T09:22:22Z</time>
      </trkpt>
      <trkpt lat="45.99603" lon="4.89578">
        <ele>291</ele>
        <time>2018-05-23T09:22:24Z</time>
      </trkpt>
      <trkpt lat="45.99604" lon="4.89585">
        <ele>292</ele>
        <time>2018-05-23T09:22:25Z</time>
      </trkpt>
      <trkpt lat="45.99605" lon="4.89593">
        <ele>292</ele>
        <time>2018-05-23T09:22:26Z</time>
      </trkpt>
      <trkpt lat="45.99605" lon="4.89598">
        <ele>292</ele>
        <time>2018-05-23T09:22:27Z</time>
      </trkpt>
      <trkpt lat="45.99607" lon="4.8961">
        <ele>291</ele>
        <time>2018-05-23T09:22:29Z</time>
      </trkpt>
      <trkpt lat="45.99607" lon="4.89617">
        <ele>291</ele>
        <time>2018-05-23T09:22:30Z</time>
      </trkpt>
      <trkpt lat="45.99608" lon="4.89629">
        <ele>291</ele>
        <time>2018-05-23T09:22:32Z</time>
      </trkpt>
      <trkpt lat="45.9961" lon="4.89634">
        <ele>291</ele>
        <time>2018-05-23T09:22:33Z</time>
      </trkpt>
      <trkpt lat="45.99609" lon="4.89646">
        <ele>291</ele>
        <time>2018-05-23T09:22:35Z</time>
      </trkpt>
      <trkpt lat="45.99609" lon="4.89652">
        <ele>291</ele>
        <time>2018-05-23T09:22:36Z</time>
      </trkpt>
      <trkpt lat="45.99609" lon="4.89657">
        <ele>291</ele>
        <time>2018-05-23T09:22:37Z</time>
      </trkpt>
      <trkpt lat="45.99609" lon="4.89666">
        <ele>291</ele>
        <time>2018-05-23T09:22:38Z</time>
      </trkpt>
      <trkpt lat="45.99611" lon="4.89678">
        <ele>291</ele>
        <time>2018-05-23T09:22:40Z</time>
      </trkpt>
      <trkpt lat="45.9961" lon="4.89684">
        <ele>291</ele>
        <time>2018-05-23T09:22:41Z</time>
      </trkpt>
      <trkpt lat="45.9961" lon="4.89692">
        <ele>291</ele>
        <time>2018-05-23T09:22:42Z</time>
      </trkpt>
      <trkpt lat="45.99609" lon="4.89699">
        <ele>291</ele>
        <time>2018-05-23T09:22:43Z</time>
      </trkpt>
      <trkpt lat="45.99609" lon="4.89706">
        <ele>291</ele>
        <time>2018-05-23T09:22:44Z</time>
      </trkpt>
      <trkpt lat="45.99609" lon="4.89712">
        <ele>292</ele>
        <time>2018-05-23T09:22:45Z</time>
      </trkpt>
      <trkpt lat="45.99609" lon="4.89719">
        <ele>292</ele>
        <time>2018-05-23T09:22:46Z</time>
      </trkpt>
      <trkpt lat="45.99609" lon="4.89727">
        <ele>292</ele>
        <time>2018-05-23T09:22:47Z</time>
      </trkpt>
      <trkpt lat="45.9961" lon="4.89733">
        <ele>292</ele>
        <time>2018-05-23T09:22:48Z</time>
      </trkpt>
      <trkpt lat="45.9961" lon="4.8974">
        <ele>292</ele>
        <time>2018-05-23T09:22:49Z</time>
      </trkpt>
      <trkpt lat="45.99607" lon="4.89749">
        <ele>292</ele>
        <time>2018-05-23T09:22:51Z</time>
      </trkpt>
      <trkpt lat="45.9961" lon="4.89757">
        <ele>292</ele>
        <time>2018-05-23T09:22:52Z</time>
      </trkpt>
      <trkpt lat="45.9961" lon="4.89763">
        <ele>292</ele>
        <time>2018-05-23T09:22:53Z</time>
      </trkpt>
      <trkpt lat="45.9961" lon="4.89771">
        <ele>292</ele>
        <time>2018-05-23T09:22:54Z</time>
      </trkpt>
      <trkpt lat="45.99609" lon="4.89779">
        <ele>292</ele>
        <time>2018-05-23T09:22:55Z</time>
      </trkpt>
      <trkpt lat="45.99608" lon="4.89787">
        <ele>292</ele>
        <time>2018-05-23T09:22:56Z</time>
      </trkpt>
      <trkpt lat="45.99608" lon="4.89794">
        <ele>292</ele>
        <time>2018-05-23T09:22:57Z</time>
      </trkpt>
      <trkpt lat="45.99608" lon="4.898">
        <ele>292</ele>
        <time>2018-05-23T09:22:58Z</time>
      </trkpt>
      <trkpt lat="45.99607" lon="4.89807">
        <ele>292</ele>
        <time>2018-05-23T09:22:59Z</time>
      </trkpt>
      <trkpt lat="45.99607" lon="4.89815">
        <ele>292</ele>
        <time>2018-05-23T09:23:00Z</time>
      </trkpt>
      <trkpt lat="45.99606" lon="4.89824">
        <ele>292</ele>
        <time>2018-05-23T09:23:01Z</time>
      </trkpt>
      <trkpt lat="45.99607" lon="4.89832">
        <ele>292</ele>
        <time>2018-05-23T09:23:02Z</time>
      </trkpt>
      <trkpt lat="45.99605" lon="4.89838">
        <ele>293</ele>
        <time>2018-05-23T09:23:04Z</time>
      </trkpt>
      <trkpt lat="45.99603" lon="4.89848">
        <ele>293</ele>
        <time>2018-05-23T09:23:05Z</time>
      </trkpt>
      <trkpt lat="45.99603" lon="4.89857">
        <ele>293</ele>
        <time>2018-05-23T09:23:06Z</time>
      </trkpt>
      <trkpt lat="45.99605" lon="4.89864">
        <ele>293</ele>
        <time>2018-05-23T09:23:07Z</time>
      </trkpt>
      <trkpt lat="45.99604" lon="4.89875">
        <ele>293</ele>
        <time>2018-05-23T09:23:09Z</time>
      </trkpt>
      <trkpt lat="45.99602" lon="4.89881">
        <ele>292</ele>
        <time>2018-05-23T09:23:10Z</time>
      </trkpt>
      <trkpt lat="45.99602" lon="4.89888">
        <ele>292</ele>
        <time>2018-05-23T09:23:11Z</time>
      </trkpt>
      <trkpt lat="45.99603" lon="4.89895">
        <ele>292</ele>
        <time>2018-05-23T09:23:12Z</time>
      </trkpt>
      <trkpt lat="45.99604" lon="4.89906">
        <ele>292</ele>
        <time>2018-05-23T09:23:14Z</time>
      </trkpt>
      <trkpt lat="45.99604" lon="4.89913">
        <ele>292</ele>
        <time>2018-05-23T09:23:15Z</time>
      </trkpt>
      <trkpt lat="45.99603" lon="4.89925">
        <ele>293</ele>
        <time>2018-05-23T09:23:17Z</time>
      </trkpt>
      <trkpt lat="45.99605" lon="4.89932">
        <ele>293</ele>
        <time>2018-05-23T09:23:18Z</time>
      </trkpt>
      <trkpt lat="45.99606" lon="4.89939">
        <ele>293</ele>
        <time>2018-05-23T09:23:19Z</time>
      </trkpt>
      <trkpt lat="45.99606" lon="4.89945">
        <ele>294</ele>
        <time>2018-05-23T09:23:20Z</time>
      </trkpt>
      <trkpt lat="45.99606" lon="4.89957">
        <ele>294</ele>
        <time>2018-05-23T09:23:22Z</time>
      </trkpt>
      <trkpt lat="45.99607" lon="4.89963">
        <ele>294</ele>
        <time>2018-05-23T09:23:23Z</time>
      </trkpt>
      <trkpt lat="45.99607" lon="4.89969">
        <ele>294</ele>
        <time>2018-05-23T09:23:24Z</time>
      </trkpt>
      <trkpt lat="45.99607" lon="4.89977">
        <ele>294</ele>
        <time>2018-05-23T09:23:25Z</time>
      </trkpt>
      <trkpt lat="45.99607" lon="4.89989">
        <ele>294</ele>
        <time>2018-05-23T09:23:27Z</time>
      </trkpt>
      <trkpt lat="45.99608" lon="4.89995">
        <ele>294</ele>
        <time>2018-05-23T09:23:28Z</time>
      </trkpt>
      <trkpt lat="45.9961" lon="4.90007">
        <ele>296</ele>
        <time>2018-05-23T09:23:30Z</time>
      </trkpt>
      <trkpt lat="45.99611" lon="4.90013">
        <ele>296</ele>
        <time>2018-05-23T09:23:31Z</time>
      </trkpt>
      <trkpt lat="45.99615" lon="4.90022">
        <ele>296</ele>
        <time>2018-05-23T09:23:33Z</time>
      </trkpt>
      <trkpt lat="45.99617" lon="4.90029">
        <ele>296</ele>
        <time>2018-05-23T09:23:34Z</time>
      </trkpt>
      <trkpt lat="45.9962" lon="4.9004">
        <ele>296</ele>
        <time>2018-05-23T09:23:36Z</time>
      </trkpt>
      <trkpt lat="45.99622" lon="4.90045">
        <ele>297</ele>
        <time>2018-05-23T09:23:37Z</time>
      </trkpt>
      <trkpt lat="45.99626" lon="4.90055">
        <ele>297</ele>
        <time>2018-05-23T09:23:39Z</time>
      </trkpt>
      <trkpt lat="45.99628" lon="4.90059">
        <ele>297</ele>
        <time>2018-05-23T09:23:40Z</time>
      </trkpt>
      <trkpt lat="45.99632" lon="4.90069">
        <ele>297</ele>
        <time>2018-05-23T09:23:42Z</time>
      </trkpt>
      <trkpt lat="45.99634" lon="4.90075">
        <ele>297</ele>
        <time>2018-05-23T09:23:43Z</time>
      </trkpt>
      <trkpt lat="45.99637" lon="4.90084">
        <ele>298</ele>
        <time>2018-05-23T09:23:45Z</time>
      </trkpt>
      <trkpt lat="45.99639" lon="4.9009">
        <ele>299</ele>
        <time>2018-05-23T09:23:46Z</time>
      </trkpt>
      <trkpt lat="45.99642" lon="4.901">
        <ele>299</ele>
        <time>2018-05-23T09:23:48Z</time>
      </trkpt>
      <trkpt lat="45.99642" lon="4.90102">
        <ele>299</ele>
        <time>2018-05-23T09:23:49Z</time>
      </trkpt>
      <trkpt lat="45.99644" lon="4.90112">
        <ele>299</ele>
        <time>2018-05-23T09:23:52Z</time>
      </trkpt>
      <trkpt lat="45.99645" lon="4.90116">
        <ele>299</ele>
        <time>2018-05-23T09:23:53Z</time>
      </trkpt>
      <trkpt lat="45.99647" lon="4.90128">
        <ele>299</ele>
        <time>2018-05-23T09:23:56Z</time>
      </trkpt>
      <trkpt lat="45.99648" lon="4.90132">
        <ele>299</ele>
        <time>2018-05-23T09:23:57Z</time>
      </trkpt>
      <trkpt lat="45.99651" lon="4.9014">
        <ele>300</ele>
        <time>2018-05-23T09:23:59Z</time>
      </trkpt>
      <trkpt lat="45.99652" lon="4.90145">
        <ele>300</ele>
        <time>2018-05-23T09:24:00Z</time>
      </trkpt>
      <trkpt lat="45.99656" lon="4.90156">
        <ele>300</ele>
        <time>2018-05-23T09:24:03Z</time>
      </trkpt>
      <trkpt lat="45.99657" lon="4.90159">
        <ele>300</ele>
        <time>2018-05-23T09:24:04Z</time>
      </trkpt>
      <trkpt lat="45.99661" lon="4.9017">
        <ele>301</ele>
        <time>2018-05-23T09:24:07Z</time>
      </trkpt>
      <trkpt lat="45.99661" lon="4.90173">
        <ele>301</ele>
        <time>2018-05-23T09:24:08Z</time>
      </trkpt>
      <trkpt lat="45.99664" lon="4.90182">
        <ele>301</ele>
        <time>2018-05-23T09:24:11Z</time>
      </trkpt>
      <trkpt lat="45.99665" lon="4.90185">
        <ele>301</ele>
        <time>2018-05-23T09:24:12Z</time>
      </trkpt>
      <trkpt lat="45.99668" lon="4.90194">
        <ele>303</ele>
        <time>2018-05-23T09:24:15Z</time>
      </trkpt>
      <trkpt lat="45.99669" lon="4.90197">
        <ele>303</ele>
        <time>2018-05-23T09:24:16Z</time>
      </trkpt>
      <trkpt lat="45.99672" lon="4.90209">
        <ele>303</ele>
        <time>2018-05-23T09:24:20Z</time>
      </trkpt>
      <trkpt lat="45.99673" lon="4.90213">
        <ele>303</ele>
        <time>2018-05-23T09:24:21Z</time>
      </trkpt>
      <trkpt lat="45.99675" lon="4.90223">
        <ele>304</ele>
        <time>2018-05-23T09:24:24Z</time>
      </trkpt>
      <trkpt lat="45.99676" lon="4.90227">
        <ele>304</ele>
        <time>2018-05-23T09:24:25Z</time>
      </trkpt>
      <trkpt lat="45.99678" lon="4.90239">
        <ele>304</ele>
        <time>2018-05-23T09:24:28Z</time>
      </trkpt>
      <trkpt lat="45.99679" lon="4.90243">
        <ele>304</ele>
        <time>2018-05-23T09:24:29Z</time>
      </trkpt>
      <trkpt lat="45.9968" lon="4.90253">
        <ele>304</ele>
        <time>2018-05-23T09:24:31Z</time>
      </trkpt>
      <trkpt lat="45.9968" lon="4.90257">
        <ele>304</ele>
        <time>2018-05-23T09:24:32Z</time>
      </trkpt>
      <trkpt lat="45.9968" lon="4.90262">
        <ele>304</ele>
        <time>2018-05-23T09:24:33Z</time>
      </trkpt>
      <trkpt lat="45.99679" lon="4.90276">
        <ele>305</ele>
        <time>2018-05-23T09:24:34Z</time>
      </trkpt>
      <trkpt lat="45.99677" lon="4.90286">
        <ele>304</ele>
        <time>2018-05-23T09:24:36Z</time>
      </trkpt>
      <trkpt lat="45.99676" lon="4.90292">
        <ele>304</ele>
        <time>2018-05-23T09:24:37Z</time>
      </trkpt>
      <trkpt lat="45.99674" lon="4.90305">
        <ele>304</ele>
        <time>2018-05-23T09:24:39Z</time>
      </trkpt>
      <trkpt lat="45.99673" lon="4.90308">
        <ele>304</ele>
        <time>2018-05-23T09:24:40Z</time>
      </trkpt>
      <trkpt lat="45.99674" lon="4.90319">
        <ele>303</ele>
        <time>2018-05-23T09:24:43Z</time>
      </trkpt>
      <trkpt lat="45.99674" lon="4.90322">
        <ele>303</ele>
        <time>2018-05-23T09:24:44Z</time>
      </trkpt>
      <trkpt lat="45.99675" lon="4.90329">
        <ele>303</ele>
        <time>2018-05-23T09:24:48Z</time>
      </trkpt>
      <trkpt lat="45.9968" lon="4.90335">
        <ele>302</ele>
        <time>2018-05-23T09:24:51Z</time>
      </trkpt>
      <trkpt lat="45.99684" lon="4.90339">
        <ele>302</ele>
        <time>2018-05-23T09:24:52Z</time>
      </trkpt>
      <trkpt lat="45.99688" lon="4.90347">
        <ele>303</ele>
        <time>2018-05-23T09:24:53Z</time>
      </trkpt>
      <trkpt lat="45.99687" lon="4.90359">
        <ele>302</ele>
        <time>2018-05-23T09:24:55Z</time>
      </trkpt>
      <trkpt lat="45.99684" lon="4.90366">
        <ele>302</ele>
        <time>2018-05-23T09:24:56Z</time>
      </trkpt>
      <trkpt lat="45.99682" lon="4.90374">
        <ele>302</ele>
        <time>2018-05-23T09:24:57Z</time>
      </trkpt>
      <trkpt lat="45.99681" lon="4.90381">
        <ele>302</ele>
        <time>2018-05-23T09:24:58Z</time>
      </trkpt>
      <trkpt lat="45.99681" lon="4.90389">
        <ele>302</ele>
        <time>2018-05-23T09:24:59Z</time>
      </trkpt>
      <trkpt lat="45.9968" lon="4.90396">
        <ele>302</ele>
        <time>2018-05-23T09:25:00Z</time>
      </trkpt>
      <trkpt lat="45.99677" lon="4.90404">
        <ele>302</ele>
        <time>2018-05-23T09:25:01Z</time>
      </trkpt>
      <trkpt lat="45.99674" lon="4.90414">
        <ele>301</ele>
        <time>2018-05-23T09:25:02Z</time>
      </trkpt>
      <trkpt lat="45.99673" lon="4.90422">
        <ele>301</ele>
        <time>2018-05-23T09:25:03Z</time>
      </trkpt>
      <trkpt lat="45.9967" lon="4.9043">
        <ele>300</ele>
        <time>2018-05-23T09:25:04Z</time>
      </trkpt>
      <trkpt lat="45.99665" lon="4.90437">
        <ele>300</ele>
        <time>2018-05-23T09:25:06Z</time>
      </trkpt>
      <trkpt lat="45.99662" lon="4.90438">
        <ele>300</ele>
        <time>2018-05-23T09:25:07Z</time>
      </trkpt>
      <trkpt lat="45.99653" lon="4.90439">
        <ele>300</ele>
        <time>2018-05-23T09:25:09Z</time>
      </trkpt>
      <trkpt lat="45.9965" lon="4.90442">
        <ele>300</ele>
        <time>2018-05-23T09:25:10Z</time>
      </trkpt>
      <trkpt lat="45.99643" lon="4.90445">
        <ele>300</ele>
        <time>2018-05-23T09:25:13Z</time>
      </trkpt>
      <trkpt lat="45.99636" lon="4.90445">
        <ele>300</ele>
        <time>2018-05-23T09:25:14Z</time>
      </trkpt>
      <trkpt lat="45.99629" lon="4.90448">
        <ele>300</ele>
        <time>2018-05-23T09:25:16Z</time>
      </trkpt>
      <trkpt lat="45.99625" lon="4.9045">
        <ele>300</ele>
        <time>2018-05-23T09:25:17Z</time>
      </trkpt>
      <trkpt lat="45.99617" lon="4.90452">
        <ele>300</ele>
        <time>2018-05-23T09:25:19Z</time>
      </trkpt>
      <trkpt lat="45.99612" lon="4.90453">
        <ele>300</ele>
        <time>2018-05-23T09:25:20Z</time>
      </trkpt>
      <trkpt lat="45.99604" lon="4.90452">
        <ele>300</ele>
        <time>2018-05-23T09:25:22Z</time>
      </trkpt>
      <trkpt lat="45.996" lon="4.90448">
        <ele>300</ele>
        <time>2018-05-23T09:25:23Z</time>
      </trkpt>
      <trkpt lat="45.99596" lon="4.90439">
        <ele>300</ele>
        <time>2018-05-23T09:25:25Z</time>
      </trkpt>
      <trkpt lat="45.99596" lon="4.90433">
        <ele>300</ele>
        <time>2018-05-23T09:25:26Z</time>
      </trkpt>
      <trkpt lat="45.99597" lon="4.9042">
        <ele>300</ele>
        <time>2018-05-23T09:25:28Z</time>
      </trkpt>
      <trkpt lat="45.99597" lon="4.90414">
        <ele>300</ele>
        <time>2018-05-23T09:25:29Z</time>
      </trkpt>
      <trkpt lat="45.99597" lon="4.90407">
        <ele>300</ele>
        <time>2018-05-23T09:25:30Z</time>
      </trkpt>
      <trkpt lat="45.99599" lon="4.90398">
        <ele>301</ele>
        <time>2018-05-23T09:25:31Z</time>
      </trkpt>
      <trkpt lat="45.99598" lon="4.90392">
        <ele>301</ele>
        <time>2018-05-23T09:25:32Z</time>
      </trkpt>
      <trkpt lat="45.99597" lon="4.90385">
        <ele>301</ele>
        <time>2018-05-23T09:25:33Z</time>
      </trkpt>
      <trkpt lat="45.99599" lon="4.90373">
        <ele>301</ele>
        <time>2018-05-23T09:25:35Z</time>
      </trkpt>
      <trkpt lat="45.99598" lon="4.9037">
        <ele>301</ele>
        <time>2018-05-23T09:25:36Z</time>
      </trkpt>
      <trkpt lat="45.996" lon="4.90358">
        <ele>301</ele>
        <time>2018-05-23T09:25:39Z</time>
      </trkpt>
      <trkpt lat="45.99599" lon="4.90353">
        <ele>301</ele>
        <time>2018-05-23T09:25:40Z</time>
      </trkpt>
      <trkpt lat="45.99597" lon="4.90343">
        <ele>301</ele>
        <time>2018-05-23T09:25:42Z</time>
      </trkpt>
      <trkpt lat="45.99597" lon="4.90339">
        <ele>301</ele>
        <time>2018-05-23T09:25:43Z</time>
      </trkpt>
      <trkpt lat="45.99595" lon="4.9033">
        <ele>301</ele>
        <time>2018-05-23T09:25:45Z</time>
      </trkpt>
      <trkpt lat="45.99593" lon="4.90326">
        <ele>301</ele>
        <time>2018-05-23T09:25:46Z</time>
      </trkpt>
      <trkpt lat="45.9959" lon="4.9032">
        <ele>301</ele>
        <time>2018-05-23T09:25:48Z</time>
      </trkpt>
      <trkpt lat="45.99574" lon="4.90318">
        <ele>301</ele>
        <time>2018-05-23T09:25:49Z</time>
      </trkpt>
      <trkpt lat="45.99569" lon="4.90318">
        <ele>301</ele>
        <time>2018-05-23T09:25:50Z</time>
      </trkpt>
      <trkpt lat="45.99563" lon="4.90319">
        <ele>301</ele>
        <time>2018-05-23T09:25:51Z</time>
      </trkpt>
      <trkpt lat="45.99555" lon="4.90318">
        <ele>301</ele>
        <time>2018-05-23T09:25:53Z</time>
      </trkpt>
      <trkpt lat="45.9955" lon="4.90317">
        <ele>300</ele>
        <time>2018-05-23T09:25:54Z</time>
      </trkpt>
      <trkpt lat="45.99542" lon="4.90315">
        <ele>300</ele>
        <time>2018-05-23T09:25:56Z</time>
      </trkpt>
      <trkpt lat="45.99538" lon="4.90314">
        <ele>300</ele>
        <time>2018-05-23T09:25:57Z</time>
      </trkpt>
      <trkpt lat="45.99533" lon="4.90314">
        <ele>300</ele>
        <time>2018-05-23T09:25:58Z</time>
      </trkpt>
      <trkpt lat="45.99528" lon="4.90313">
        <ele>300</ele>
        <time>2018-05-23T09:25:59Z</time>
      </trkpt>
      <trkpt lat="45.99521" lon="4.90314">
        <ele>300</ele>
        <time>2018-05-23T09:26:00Z</time>
      </trkpt>
      <trkpt lat="45.99513" lon="4.90315">
        <ele>301</ele>
        <time>2018-05-23T09:26:01Z</time>
      </trkpt>
      <trkpt lat="45.99505" lon="4.90314">
        <ele>301</ele>
        <time>2018-05-23T09:26:03Z</time>
      </trkpt>
      <trkpt lat="45.99503" lon="4.90314">
        <ele>301</ele>
        <time>2018-05-23T09:26:04Z</time>
      </trkpt>
      <trkpt lat="45.99502" lon="4.90314">
        <ele>301</ele>
        <time>2018-05-23T09:26:05Z</time>
      </trkpt>
      <trkpt lat="45.99493" lon="4.9031">
        <ele>300</ele>
        <time>2018-05-23T09:26:06Z</time>
      </trkpt>
      <trkpt lat="45.99486" lon="4.90312">
        <ele>300</ele>
        <time>2018-05-23T09:26:07Z</time>
      </trkpt>
      <trkpt lat="45.99481" lon="4.9031">
        <ele>300</ele>
        <time>2018-05-23T09:26:08Z</time>
      </trkpt>
      <trkpt lat="45.99477" lon="4.90311">
        <ele>300</ele>
        <time>2018-05-23T09:26:09Z</time>
      </trkpt>
      <trkpt lat="45.99471" lon="4.90308">
        <ele>300</ele>
        <time>2018-05-23T09:26:10Z</time>
      </trkpt>
      <trkpt lat="45.99463" lon="4.90308">
        <ele>300</ele>
        <time>2018-05-23T09:26:12Z</time>
      </trkpt>
      <trkpt lat="45.99457" lon="4.90308">
        <ele>300</ele>
        <time>2018-05-23T09:26:13Z</time>
      </trkpt>
      <trkpt lat="45.99453" lon="4.90306">
        <ele>300</ele>
        <time>2018-05-23T09:26:14Z</time>
      </trkpt>
      <trkpt lat="45.99448" lon="4.90304">
        <ele>300</ele>
        <time>2018-05-23T09:26:15Z</time>
      </trkpt>
      <trkpt lat="45.99443" lon="4.90303">
        <ele>300</ele>
        <time>2018-05-23T09:26:16Z</time>
      </trkpt>
      <trkpt lat="45.99437" lon="4.90302">
        <ele>300</ele>
        <time>2018-05-23T09:26:17Z</time>
      </trkpt>
      <trkpt lat="45.99432" lon="4.903">
        <ele>300</ele>
        <time>2018-05-23T09:26:18Z</time>
      </trkpt>
      <trkpt lat="45.99427" lon="4.90299">
        <ele>300</ele>
        <time>2018-05-23T09:26:19Z</time>
      </trkpt>
      <trkpt lat="45.9942" lon="4.90298">
        <ele>300</ele>
        <time>2018-05-23T09:26:20Z</time>
      </trkpt>
      <trkpt lat="45.99414" lon="4.90297">
        <ele>300</ele>
        <time>2018-05-23T09:26:21Z</time>
      </trkpt>
      <trkpt lat="45.99408" lon="4.90297">
        <ele>300</ele>
        <time>2018-05-23T09:26:22Z</time>
      </trkpt>
      <trkpt lat="45.99403" lon="4.90295">
        <ele>300</ele>
        <time>2018-05-23T09:26:23Z</time>
      </trkpt>
      <trkpt lat="45.99397" lon="4.90294">
        <ele>300</ele>
        <time>2018-05-23T09:26:24Z</time>
      </trkpt>
      <trkpt lat="45.99391" lon="4.90294">
        <ele>300</ele>
        <time>2018-05-23T09:26:25Z</time>
      </trkpt>
      <trkpt lat="45.99385" lon="4.90293">
        <ele>300</ele>
        <time>2018-05-23T09:26:26Z</time>
      </trkpt>
      <trkpt lat="45.99378" lon="4.90293">
        <ele>300</ele>
        <time>2018-05-23T09:26:27Z</time>
      </trkpt>
      <trkpt lat="45.99373" lon="4.90293">
        <ele>300</ele>
        <time>2018-05-23T09:26:28Z</time>
      </trkpt>
      <trkpt lat="45.99367" lon="4.90292">
        <ele>300</ele>
        <time>2018-05-23T09:26:29Z</time>
      </trkpt>
      <trkpt lat="45.99362" lon="4.90291">
        <ele>299</ele>
        <time>2018-05-23T09:26:30Z</time>
      </trkpt>
      <trkpt lat="45.99357" lon="4.90291">
        <ele>299</ele>
        <time>2018-05-23T09:26:31Z</time>
      </trkpt>
      <trkpt lat="45.99353" lon="4.90292">
        <ele>300</ele>
        <time>2018-05-23T09:26:32Z</time>
      </trkpt>
      <trkpt lat="45.99348" lon="4.90292">
        <ele>300</ele>
        <time>2018-05-23T09:26:33Z</time>
      </trkpt>
      <trkpt lat="45.99342" lon="4.90291">
        <ele>299</ele>
        <time>2018-05-23T09:26:34Z</time>
      </trkpt>
      <trkpt lat="45.99337" lon="4.9029">
        <ele>299</ele>
        <time>2018-05-23T09:26:35Z</time>
      </trkpt>
      <trkpt lat="45.99329" lon="4.90286">
        <ele>299</ele>
        <time>2018-05-23T09:26:37Z</time>
      </trkpt>
      <trkpt lat="45.99325" lon="4.90284">
        <ele>299</ele>
        <time>2018-05-23T09:26:38Z</time>
      </trkpt>
      <trkpt lat="45.99322" lon="4.90278">
        <ele>299</ele>
        <time>2018-05-23T09:26:39Z</time>
      </trkpt>
      <trkpt lat="45.99315" lon="4.90277">
        <ele>299</ele>
        <time>2018-05-23T09:26:40Z</time>
      </trkpt>
      <trkpt lat="45.99311" lon="4.90266">
        <ele>299</ele>
        <time>2018-05-23T09:26:42Z</time>
      </trkpt>
      <trkpt lat="45.99308" lon="4.90261">
        <ele>299</ele>
        <time>2018-05-23T09:26:43Z</time>
      </trkpt>
      <trkpt lat="45.99305" lon="4.90256">
        <ele>299</ele>
        <time>2018-05-23T09:26:44Z</time>
      </trkpt>
      <trkpt lat="45.99301" lon="4.90252">
        <ele>299</ele>
        <time>2018-05-23T09:26:45Z</time>
      </trkpt>
      <trkpt lat="45.99298" lon="4.90246">
        <ele>298</ele>
        <time>2018-05-23T09:26:46Z</time>
      </trkpt>
      <trkpt lat="45.99294" lon="4.90239">
        <ele>298</ele>
        <time>2018-05-23T09:26:47Z</time>
      </trkpt>
      <trkpt lat="45.99289" lon="4.90234">
        <ele>298</ele>
        <time>2018-05-23T09:26:48Z</time>
      </trkpt>
      <trkpt lat="45.99286" lon="4.90228">
        <ele>298</ele>
        <time>2018-05-23T09:26:49Z</time>
      </trkpt>
      <trkpt lat="45.99282" lon="4.90222">
        <ele>298</ele>
        <time>2018-05-23T09:26:50Z</time>
      </trkpt>
      <trkpt lat="45.99277" lon="4.90215">
        <ele>298</ele>
        <time>2018-05-23T09:26:51Z</time>
      </trkpt>
      <trkpt lat="45.99273" lon="4.90209">
        <ele>298</ele>
        <time>2018-05-23T09:26:52Z</time>
      </trkpt>
      <trkpt lat="45.99269" lon="4.90203">
        <ele>298</ele>
        <time>2018-05-23T09:26:53Z</time>
      </trkpt>
      <trkpt lat="45.99264" lon="4.90197">
        <ele>298</ele>
        <time>2018-05-23T09:26:54Z</time>
      </trkpt>
      <trkpt lat="45.99259" lon="4.90192">
        <ele>298</ele>
        <time>2018-05-23T09:26:55Z</time>
      </trkpt>
      <trkpt lat="45.99255" lon="4.90187">
        <ele>298</ele>
        <time>2018-05-23T09:26:56Z</time>
      </trkpt>
      <trkpt lat="45.99252" lon="4.90183">
        <ele>297</ele>
        <time>2018-05-23T09:26:57Z</time>
      </trkpt>
      <trkpt lat="45.99246" lon="4.90179">
        <ele>297</ele>
        <time>2018-05-23T09:26:58Z</time>
      </trkpt>
      <trkpt lat="45.99242" lon="4.90174">
        <ele>297</ele>
        <time>2018-05-23T09:26:59Z</time>
      </trkpt>
      <trkpt lat="45.99238" lon="4.9017">
        <ele>297</ele>
        <time>2018-05-23T09:27:00Z</time>
      </trkpt>
      <trkpt lat="45.99234" lon="4.90164">
        <ele>297</ele>
        <time>2018-05-23T09:27:01Z</time>
      </trkpt>
      <trkpt lat="45.99231" lon="4.90158">
        <ele>297</ele>
        <time>2018-05-23T09:27:02Z</time>
      </trkpt>
      <trkpt lat="45.99228" lon="4.90153">
        <ele>297</ele>
        <time>2018-05-23T09:27:03Z</time>
      </trkpt>
      <trkpt lat="45.99225" lon="4.90147">
        <ele>297</ele>
        <time>2018-05-23T09:27:04Z</time>
      </trkpt>
      <trkpt lat="45.99221" lon="4.90142">
        <ele>297</ele>
        <time>2018-05-23T09:27:05Z</time>
      </trkpt>
      <trkpt lat="45.99217" lon="4.90137">
        <ele>297</ele>
        <time>2018-05-23T09:27:06Z</time>
      </trkpt>
      <trkpt lat="45.99214" lon="4.90132">
        <ele>297</ele>
        <time>2018-05-23T09:27:07Z</time>
      </trkpt>
      <trkpt lat="45.99213" lon="4.90126">
        <ele>297</ele>
        <time>2018-05-23T09:27:08Z</time>
      </trkpt>
      <trkpt lat="45.99209" lon="4.9012">
        <ele>297</ele>
        <time>2018-05-23T09:27:09Z</time>
      </trkpt>
      <trkpt lat="45.99204" lon="4.90111">
        <ele>297</ele>
        <time>2018-05-23T09:27:11Z</time>
      </trkpt>
      <trkpt lat="45.99201" lon="4.90107">
        <ele>297</ele>
        <time>2018-05-23T09:27:12Z</time>
      </trkpt>
      <trkpt lat="45.99197" lon="4.90102">
        <ele>297</ele>
        <time>2018-05-23T09:27:13Z</time>
      </trkpt>
      <trkpt lat="45.99192" lon="4.90099">
        <ele>297</ele>
        <time>2018-05-23T09:27:14Z</time>
      </trkpt>
      <trkpt lat="45.99188" lon="4.90095">
        <ele>297</ele>
        <time>2018-05-23T09:27:15Z</time>
      </trkpt>
      <trkpt lat="45.99185" lon="4.90088">
        <ele>297</ele>
        <time>2018-05-23T09:27:16Z</time>
      </trkpt>
      <trkpt lat="45.99182" lon="4.90081">
        <ele>297</ele>
        <time>2018-05-23T09:27:17Z</time>
      </trkpt>
      <trkpt lat="45.99179" lon="4.90074">
        <ele>297</ele>
        <time>2018-05-23T09:27:18Z</time>
      </trkpt>
      <trkpt lat="45.99175" lon="4.90069">
        <ele>297</ele>
        <time>2018-05-23T09:27:19Z</time>
      </trkpt>
      <trkpt lat="45.9917" lon="4.90063">
        <ele>297</ele>
        <time>2018-05-23T09:27:20Z</time>
      </trkpt>
      <trkpt lat="45.99165" lon="4.90056">
        <ele>297</ele>
        <time>2018-05-23T09:27:21Z</time>
      </trkpt>
      <trkpt lat="45.99162" lon="4.90049">
        <ele>297</ele>
        <time>2018-05-23T09:27:22Z</time>
      </trkpt>
      <trkpt lat="45.99158" lon="4.90042">
        <ele>297</ele>
        <time>2018-05-23T09:27:23Z</time>
      </trkpt>
      <trkpt lat="45.99153" lon="4.90037">
        <ele>297</ele>
        <time>2018-05-23T09:27:24Z</time>
      </trkpt>
      <trkpt lat="45.99149" lon="4.90032">
        <ele>297</ele>
        <time>2018-05-23T09:27:25Z</time>
      </trkpt>
      <trkpt lat="45.99144" lon="4.90027">
        <ele>297</ele>
        <time>2018-05-23T09:27:26Z</time>
      </trkpt>
      <trkpt lat="45.9914" lon="4.90022">
        <ele>297</ele>
        <time>2018-05-23T09:27:27Z</time>
      </trkpt>
      <trkpt lat="45.99136" lon="4.90017">
        <ele>297</ele>
        <time>2018-05-23T09:27:28Z</time>
      </trkpt>
      <trkpt lat="45.99131" lon="4.90012">
        <ele>296</ele>
        <time>2018-05-23T09:27:29Z</time>
      </trkpt>
      <trkpt lat="45.99126" lon="4.90007">
        <ele>296</ele>
        <time>2018-05-23T09:27:30Z</time>
      </trkpt>
      <trkpt lat="45.99121" lon="4.90002">
        <ele>296</ele>
        <time>2018-05-23T09:27:31Z</time>
      </trkpt>
      <trkpt lat="45.99116" lon="4.89996">
        <ele>295</ele>
        <time>2018-05-23T09:27:32Z</time>
      </trkpt>
      <trkpt lat="45.99112" lon="4.89991">
        <ele>295</ele>
        <time>2018-05-23T09:27:33Z</time>
      </trkpt>
      <trkpt lat="45.99107" lon="4.89984">
        <ele>295</ele>
        <time>2018-05-23T09:27:34Z</time>
      </trkpt>
      <trkpt lat="45.99103" lon="4.89977">
        <ele>295</ele>
        <time>2018-05-23T09:27:35Z</time>
      </trkpt>
      <trkpt lat="45.99098" lon="4.89971">
        <ele>295</ele>
        <time>2018-05-23T09:27:36Z</time>
      </trkpt>
      <trkpt lat="45.99095" lon="4.89965">
        <ele>295</ele>
        <time>2018-05-23T09:27:37Z</time>
      </trkpt>
      <trkpt lat="45.99092" lon="4.89958">
        <ele>295</ele>
        <time>2018-05-23T09:27:38Z</time>
      </trkpt>
      <trkpt lat="45.99088" lon="4.89953">
        <ele>295</ele>
        <time>2018-05-23T09:27:39Z</time>
      </trkpt>
      <trkpt lat="45.99085" lon="4.89947">
        <ele>295</ele>
        <time>2018-05-23T09:27:40Z</time>
      </trkpt>
      <trkpt lat="45.9908" lon="4.89942">
        <ele>294</ele>
        <time>2018-05-23T09:27:41Z</time>
      </trkpt>
      <trkpt lat="45.99076" lon="4.89938">
        <ele>294</ele>
        <time>2018-05-23T09:27:42Z</time>
      </trkpt>
      <trkpt lat="45.99071" lon="4.89932">
        <ele>294</ele>
        <time>2018-05-23T09:27:43Z</time>
      </trkpt>
      <trkpt lat="45.99068" lon="4.89926">
        <ele>294</ele>
        <time>2018-05-23T09:27:44Z</time>
      </trkpt>
      <trkpt lat="45.99065" lon="4.8992">
        <ele>294</ele>
        <time>2018-05-23T09:27:45Z</time>
      </trkpt>
      <trkpt lat="45.99061" lon="4.89915">
        <ele>294</ele>
        <time>2018-05-23T09:27:46Z</time>
      </trkpt>
      <trkpt lat="45.99056" lon="4.89909">
        <ele>293</ele>
        <time>2018-05-23T09:27:47Z</time>
      </trkpt>
      <trkpt lat="45.99052" lon="4.89904">
        <ele>293</ele>
        <time>2018-05-23T09:27:48Z</time>
      </trkpt>
      <trkpt lat="45.99047" lon="4.89899">
        <ele>293</ele>
        <time>2018-05-23T09:27:49Z</time>
      </trkpt>
      <trkpt lat="45.99044" lon="4.89893">
        <ele>293</ele>
        <time>2018-05-23T09:27:50Z</time>
      </trkpt>
      <trkpt lat="45.99039" lon="4.89889">
        <ele>293</ele>
        <time>2018-05-23T09:27:51Z</time>
      </trkpt>
      <trkpt lat="45.99035" lon="4.89884">
        <ele>293</ele>
        <time>2018-05-23T09:27:52Z</time>
      </trkpt>
      <trkpt lat="45.99031" lon="4.89878">
        <ele>293</ele>
        <time>2018-05-23T09:27:53Z</time>
      </trkpt>
      <trkpt lat="45.99028" lon="4.89872">
        <ele>293</ele>
        <time>2018-05-23T09:27:54Z</time>
      </trkpt>
      <trkpt lat="45.99024" lon="4.89867">
        <ele>293</ele>
        <time>2018-05-23T09:27:55Z</time>
      </trkpt>
      <trkpt lat="45.99021" lon="4.89861">
        <ele>293</ele>
        <time>2018-05-23T09:27:56Z</time>
      </trkpt>
      <trkpt lat="45.99016" lon="4.89854">
        <ele>293</ele>
        <time>2018-05-23T09:27:57Z</time>
      </trkpt>
      <trkpt lat="45.99012" lon="4.89848">
        <ele>293</ele>
        <time>2018-05-23T09:27:58Z</time>
      </trkpt>
      <trkpt lat="45.99007" lon="4.89842">
        <ele>293</ele>
        <time>2018-05-23T09:27:59Z</time>
      </trkpt>
      <trkpt lat="45.99003" lon="4.89836">
        <ele>293</ele>
        <time>2018-05-23T09:28:00Z</time>
      </trkpt>
      <trkpt lat="45.98999" lon="4.89831">
        <ele>293</ele>
        <time>2018-05-23T09:28:01Z</time>
      </trkpt>
      <trkpt lat="45.98994" lon="4.89826">
        <ele>293</ele>
        <time>2018-05-23T09:28:02Z</time>
      </trkpt>
      <trkpt lat="45.98989" lon="4.8982">
        <ele>293</ele>
        <time>2018-05-23T09:28:03Z</time>
      </trkpt>
      <trkpt lat="45.98984" lon="4.89816">
        <ele>293</ele>
        <time>2018-05-23T09:28:04Z</time>
      </trkpt>
      <trkpt lat="45.9898" lon="4.89811">
        <ele>293</ele>
        <time>2018-05-23T09:28:05Z</time>
      </trkpt>
      <trkpt lat="45.98976" lon="4.89806">
        <ele>293</ele>
        <time>2018-05-23T09:28:06Z</time>
      </trkpt>
      <trkpt lat="45.98971" lon="4.89802">
        <ele>293</ele>
        <time>2018-05-23T09:28:07Z</time>
      </trkpt>
      <trkpt lat="45.98967" lon="4.89798">
        <ele>293</ele>
        <time>2018-05-23T09:28:08Z</time>
      </trkpt>
      <trkpt lat="45.98963" lon="4.89794">
        <ele>293</ele>
        <time>2018-05-23T09:28:09Z</time>
      </trkpt>
      <trkpt lat="45.98958" lon="4.8979">
        <ele>293</ele>
        <time>2018-05-23T09:28:10Z</time>
      </trkpt>
      <trkpt lat="45.98953" lon="4.89785">
        <ele>293</ele>
        <time>2018-05-23T09:28:11Z</time>
      </trkpt>
      <trkpt lat="45.98948" lon="4.89781">
        <ele>293</ele>
        <time>2018-05-23T09:28:12Z</time>
      </trkpt>
      <trkpt lat="45.98943" lon="4.89777">
        <ele>293</ele>
        <time>2018-05-23T09:28:13Z</time>
      </trkpt>
      <trkpt lat="45.98936" lon="4.89773">
        <ele>293</ele>
        <time>2018-05-23T09:28:14Z</time>
      </trkpt>
      <trkpt lat="45.9893" lon="4.89768">
        <ele>293</ele>
        <time>2018-05-23T09:28:15Z</time>
      </trkpt>
      <trkpt lat="45.98925" lon="4.89764">
        <ele>293</ele>
        <time>2018-05-23T09:28:16Z</time>
      </trkpt>
      <trkpt lat="45.98919" lon="4.89761">
        <ele>293</ele>
        <time>2018-05-23T09:28:17Z</time>
      </trkpt>
      <trkpt lat="45.98914" lon="4.89756">
        <ele>293</ele>
        <time>2018-05-23T09:28:18Z</time>
      </trkpt>
      <trkpt lat="45.98908" lon="4.89752">
        <ele>293</ele>
        <time>2018-05-23T09:28:19Z</time>
      </trkpt>
      <trkpt lat="45.98904" lon="4.89748">
        <ele>293</ele>
        <time>2018-05-23T09:28:20Z</time>
      </trkpt>
      <trkpt lat="45.98898" lon="4.89745">
        <ele>293</ele>
        <time>2018-05-23T09:28:21Z</time>
      </trkpt>
      <trkpt lat="45.98893" lon="4.89741">
        <ele>293</ele>
        <time>2018-05-23T09:28:22Z</time>
      </trkpt>
      <trkpt lat="45.98888" lon="4.89737">
        <ele>293</ele>
        <time>2018-05-23T09:28:23Z</time>
      </trkpt>
      <trkpt lat="45.98882" lon="4.89733">
        <ele>293</ele>
        <time>2018-05-23T09:28:24Z</time>
      </trkpt>
      <trkpt lat="45.98876" lon="4.8973">
        <ele>293</ele>
        <time>2018-05-23T09:28:25Z</time>
      </trkpt>
      <trkpt lat="45.98871" lon="4.89725">
        <ele>293</ele>
        <time>2018-05-23T09:28:26Z</time>
      </trkpt>
      <trkpt lat="45.98866" lon="4.89721">
        <ele>293</ele>
        <time>2018-05-23T09:28:27Z</time>
      </trkpt>
      <trkpt lat="45.9886" lon="4.89717">
        <ele>293</ele>
        <time>2018-05-23T09:28:28Z</time>
      </trkpt>
      <trkpt lat="45.98855" lon="4.89713">
        <ele>293</ele>
        <time>2018-05-23T09:28:29Z</time>
      </trkpt>
      <trkpt lat="45.9885" lon="4.89708">
        <ele>292</ele>
        <time>2018-05-23T09:28:30Z</time>
      </trkpt>
      <trkpt lat="45.98845" lon="4.89704">
        <ele>292</ele>
        <time>2018-05-23T09:28:31Z</time>
      </trkpt>
      <trkpt lat="45.9884" lon="4.89698">
        <ele>292</ele>
        <time>2018-05-23T09:28:32Z</time>
      </trkpt>
      <trkpt lat="45.98834" lon="4.89693">
        <ele>292</ele>
        <time>2018-05-23T09:28:33Z</time>
      </trkpt>
      <trkpt lat="45.98829" lon="4.89689">
        <ele>292</ele>
        <time>2018-05-23T09:28:34Z</time>
      </trkpt>
      <trkpt lat="45.98823" lon="4.89684">
        <ele>292</ele>
        <time>2018-05-23T09:28:35Z</time>
      </trkpt>
      <trkpt lat="45.98818" lon="4.8968">
        <ele>292</ele>
        <time>2018-05-23T09:28:36Z</time>
      </trkpt>
      <trkpt lat="45.98813" lon="4.89675">
        <ele>292</ele>
        <time>2018-05-23T09:28:37Z</time>
      </trkpt>
      <trkpt lat="45.98808" lon="4.89669">
        <ele>292</ele>
        <time>2018-05-23T09:28:38Z</time>
      </trkpt>
      <trkpt lat="45.98803" lon="4.89664">
        <ele>291</ele>
        <time>2018-05-23T09:28:39Z</time>
      </trkpt>
      <trkpt lat="45.98797" lon="4.89658">
        <ele>291</ele>
        <time>2018-05-23T09:28:40Z</time>
      </trkpt>
      <trkpt lat="45.98793" lon="4.89652">
        <ele>291</ele>
        <time>2018-05-23T09:28:41Z</time>
      </trkpt>
      <trkpt lat="45.98788" lon="4.89645">
        <ele>291</ele>
        <time>2018-05-23T09:28:42Z</time>
      </trkpt>
      <trkpt lat="45.98783" lon="4.89639">
        <ele>291</ele>
        <time>2018-05-23T09:28:43Z</time>
      </trkpt>
      <trkpt lat="45.98778" lon="4.89632">
        <ele>291</ele>
        <time>2018-05-23T09:28:44Z</time>
      </trkpt>
      <trkpt lat="45.98774" lon="4.89625">
        <ele>291</ele>
        <time>2018-05-23T09:28:45Z</time>
      </trkpt>
      <trkpt lat="45.98769" lon="4.89619">
        <ele>291</ele>
        <time>2018-05-23T09:28:46Z</time>
      </trkpt>
      <trkpt lat="45.98765" lon="4.89612">
        <ele>291</ele>
        <time>2018-05-23T09:28:47Z</time>
      </trkpt>
      <trkpt lat="45.9876" lon="4.89605">
        <ele>291</ele>
        <time>2018-05-23T09:28:48Z</time>
      </trkpt>
      <trkpt lat="45.98755" lon="4.89598">
        <ele>291</ele>
        <time>2018-05-23T09:28:49Z</time>
      </trkpt>
      <trkpt lat="45.9875" lon="4.89592">
        <ele>291</ele>
        <time>2018-05-23T09:28:50Z</time>
      </trkpt>
      <trkpt lat="45.98745" lon="4.89585">
        <ele>291</ele>
        <time>2018-05-23T09:28:51Z</time>
      </trkpt>
      <trkpt lat="45.98741" lon="4.89578">
        <ele>290</ele>
        <time>2018-05-23T09:28:52Z</time>
      </trkpt>
      <trkpt lat="45.98737" lon="4.89571">
        <ele>290</ele>
        <time>2018-05-23T09:28:53Z</time>
      </trkpt>
      <trkpt lat="45.98732" lon="4.89565">
        <ele>290</ele>
        <time>2018-05-23T09:28:54Z</time>
      </trkpt>
      <trkpt lat="45.98728" lon="4.89558">
        <ele>290</ele>
        <time>2018-05-23T09:28:55Z</time>
      </trkpt>
      <trkpt lat="45.98722" lon="4.89552">
        <ele>290</ele>
        <time>2018-05-23T09:28:56Z</time>
      </trkpt>
      <trkpt lat="45.98718" lon="4.89545">
        <ele>290</ele>
        <time>2018-05-23T09:28:57Z</time>
      </trkpt>
      <trkpt lat="45.98713" lon="4.8954">
        <ele>290</ele>
        <time>2018-05-23T09:28:58Z</time>
      </trkpt>
      <trkpt lat="45.98709" lon="4.89534">
        <ele>289</ele>
        <time>2018-05-23T09:28:59Z</time>
      </trkpt>
      <trkpt lat="45.98703" lon="4.89527">
        <ele>289</ele>
        <time>2018-05-23T09:29:00Z</time>
      </trkpt>
      <trkpt lat="45.98699" lon="4.8952">
        <ele>289</ele>
        <time>2018-05-23T09:29:01Z</time>
      </trkpt>
      <trkpt lat="45.98694" lon="4.89513">
        <ele>289</ele>
        <time>2018-05-23T09:29:02Z</time>
      </trkpt>
      <trkpt lat="45.98688" lon="4.89506">
        <ele>289</ele>
        <time>2018-05-23T09:29:03Z</time>
      </trkpt>
      <trkpt lat="45.98684" lon="4.89499">
        <ele>289</ele>
        <time>2018-05-23T09:29:04Z</time>
      </trkpt>
      <trkpt lat="45.98679" lon="4.89492">
        <ele>289</ele>
        <time>2018-05-23T09:29:05Z</time>
      </trkpt>
      <trkpt lat="45.98675" lon="4.89484">
        <ele>289</ele>
        <time>2018-05-23T09:29:06Z</time>
      </trkpt>
      <trkpt lat="45.9867" lon="4.89478">
        <ele>289</ele>
        <time>2018-05-23T09:29:07Z</time>
      </trkpt>
      <trkpt lat="45.98665" lon="4.89471">
        <ele>290</ele>
        <time>2018-05-23T09:29:08Z</time>
      </trkpt>
      <trkpt lat="45.9866" lon="4.89466">
        <ele>290</ele>
        <time>2018-05-23T09:29:09Z</time>
      </trkpt>
      <trkpt lat="45.98655" lon="4.8946">
        <ele>290</ele>
        <time>2018-05-23T09:29:10Z</time>
      </trkpt>
      <trkpt lat="45.9865" lon="4.89454">
        <ele>290</ele>
        <time>2018-05-23T09:29:11Z</time>
      </trkpt>
      <trkpt lat="45.98645" lon="4.89448">
        <ele>291</ele>
        <time>2018-05-23T09:29:12Z</time>
      </trkpt>
      <trkpt lat="45.9864" lon="4.89443">
        <ele>291</ele>
        <time>2018-05-23T09:29:13Z</time>
      </trkpt>
      <trkpt lat="45.98634" lon="4.89438">
        <ele>291</ele>
        <time>2018-05-23T09:29:14Z</time>
      </trkpt>
      <trkpt lat="45.98629" lon="4.89433">
        <ele>291</ele>
        <time>2018-05-23T09:29:15Z</time>
      </trkpt>
      <trkpt lat="45.98624" lon="4.89428">
        <ele>291</ele>
        <time>2018-05-23T09:29:16Z</time>
      </trkpt>
      <trkpt lat="45.9862" lon="4.89423">
        <ele>291</ele>
        <time>2018-05-23T09:29:17Z</time>
      </trkpt>
      <trkpt lat="45.98615" lon="4.89417">
        <ele>292</ele>
        <time>2018-05-23T09:29:18Z</time>
      </trkpt>
      <trkpt lat="45.9861" lon="4.89413">
        <ele>291</ele>
        <time>2018-05-23T09:29:19Z</time>
      </trkpt>
      <trkpt lat="45.98605" lon="4.89407">
        <ele>292</ele>
        <time>2018-05-23T09:29:20Z</time>
      </trkpt>
      <trkpt lat="45.98599" lon="4.89401">
        <ele>292</ele>
        <time>2018-05-23T09:29:21Z</time>
      </trkpt>
      <trkpt lat="45.98594" lon="4.89395">
        <ele>292</ele>
        <time>2018-05-23T09:29:22Z</time>
      </trkpt>
      <trkpt lat="45.98589" lon="4.8939">
        <ele>292</ele>
        <time>2018-05-23T09:29:23Z</time>
      </trkpt>
      <trkpt lat="45.98584" lon="4.89384">
        <ele>292</ele>
        <time>2018-05-23T09:29:24Z</time>
      </trkpt>
      <trkpt lat="45.98578" lon="4.89378">
        <ele>295</ele>
        <time>2018-05-23T09:29:25Z</time>
      </trkpt>
      <trkpt lat="45.98572" lon="4.89372">
        <ele>295</ele>
        <time>2018-05-23T09:29:26Z</time>
      </trkpt>
      <trkpt lat="45.98567" lon="4.89365">
        <ele>295</ele>
        <time>2018-05-23T09:29:27Z</time>
      </trkpt>
      <trkpt lat="45.98562" lon="4.89359">
        <ele>295</ele>
        <time>2018-05-23T09:29:28Z</time>
      </trkpt>
      <trkpt lat="45.98557" lon="4.89353">
        <ele>295</ele>
        <time>2018-05-23T09:29:29Z</time>
      </trkpt>
      <trkpt lat="45.98552" lon="4.89347">
        <ele>295</ele>
        <time>2018-05-23T09:29:30Z</time>
      </trkpt>
      <trkpt lat="45.98546" lon="4.8934">
        <ele>295</ele>
        <time>2018-05-23T09:29:31Z</time>
      </trkpt>
      <trkpt lat="45.98539" lon="4.89335">
        <ele>295</ele>
        <time>2018-05-23T09:29:32Z</time>
      </trkpt>
      <trkpt lat="45.98535" lon="4.8933">
        <ele>293</ele>
        <time>2018-05-23T09:29:33Z</time>
      </trkpt>
      <trkpt lat="45.98531" lon="4.89324">
        <ele>293</ele>
        <time>2018-05-23T09:29:34Z</time>
      </trkpt>
      <trkpt lat="45.98529" lon="4.89316">
        <ele>293</ele>
        <time>2018-05-23T09:29:35Z</time>
      </trkpt>
      <trkpt lat="45.98525" lon="4.89311">
        <ele>293</ele>
        <time>2018-05-23T09:29:36Z</time>
      </trkpt>
      <trkpt lat="45.9852" lon="4.89304">
        <ele>293</ele>
        <time>2018-05-23T09:29:37Z</time>
      </trkpt>
      <trkpt lat="45.98517" lon="4.89297">
        <ele>293</ele>
        <time>2018-05-23T09:29:38Z</time>
      </trkpt>
      <trkpt lat="45.98513" lon="4.89293">
        <ele>292</ele>
        <time>2018-05-23T09:29:39Z</time>
      </trkpt>
      <trkpt lat="45.98508" lon="4.89287">
        <ele>292</ele>
        <time>2018-05-23T09:29:40Z</time>
      </trkpt>
      <trkpt lat="45.98504" lon="4.89281">
        <ele>292</ele>
        <time>2018-05-23T09:29:41Z</time>
      </trkpt>
      <trkpt lat="45.98501" lon="4.89275">
        <ele>292</ele>
        <time>2018-05-23T09:29:42Z</time>
      </trkpt>
      <trkpt lat="45.98498" lon="4.89268">
        <ele>291</ele>
        <time>2018-05-23T09:29:43Z</time>
      </trkpt>
      <trkpt lat="45.98494" lon="4.89262">
        <ele>291</ele>
        <time>2018-05-23T09:29:44Z</time>
      </trkpt>
      <trkpt lat="45.9849" lon="4.89254">
        <ele>291</ele>
        <time>2018-05-23T09:29:45Z</time>
      </trkpt>
      <trkpt lat="45.98487" lon="4.89247">
        <ele>289</ele>
        <time>2018-05-23T09:29:46Z</time>
      </trkpt>
      <trkpt lat="45.98484" lon="4.89241">
        <ele>289</ele>
        <time>2018-05-23T09:29:47Z</time>
      </trkpt>
      <trkpt lat="45.9848" lon="4.89233">
        <ele>289</ele>
        <time>2018-05-23T09:29:48Z</time>
      </trkpt>
      <trkpt lat="45.98477" lon="4.89225">
        <ele>289</ele>
        <time>2018-05-23T09:29:49Z</time>
      </trkpt>
      <trkpt lat="45.98473" lon="4.89218">
        <ele>289</ele>
        <time>2018-05-23T09:29:50Z</time>
      </trkpt>
      <trkpt lat="45.9847" lon="4.89209">
        <ele>289</ele>
        <time>2018-05-23T09:29:51Z</time>
      </trkpt>
      <trkpt lat="45.98464" lon="4.892">
        <ele>289</ele>
        <time>2018-05-23T09:29:52Z</time>
      </trkpt>
      <trkpt lat="45.98457" lon="4.89195">
        <ele>289</ele>
        <time>2018-05-23T09:29:53Z</time>
      </trkpt>
      <trkpt lat="45.98452" lon="4.89187">
        <ele>289</ele>
        <time>2018-05-23T09:29:54Z</time>
      </trkpt>
      <trkpt lat="45.98446" lon="4.8918">
        <ele>288</ele>
        <time>2018-05-23T09:29:55Z</time>
      </trkpt>
      <trkpt lat="45.98439" lon="4.89171">
        <ele>288</ele>
        <time>2018-05-23T09:29:56Z</time>
      </trkpt>
      <trkpt lat="45.98435" lon="4.89163">
        <ele>288</ele>
        <time>2018-05-23T09:29:57Z</time>
      </trkpt>
      <trkpt lat="45.98431" lon="4.89154">
        <ele>288</ele>
        <time>2018-05-23T09:29:58Z</time>
      </trkpt>
      <trkpt lat="45.98426" lon="4.89146">
        <ele>288</ele>
        <time>2018-05-23T09:29:59Z</time>
      </trkpt>
      <trkpt lat="45.98421" lon="4.89138">
        <ele>288</ele>
        <time>2018-05-23T09:30:00Z</time>
      </trkpt>
      <trkpt lat="45.98418" lon="4.89132">
        <ele>288</ele>
        <time>2018-05-23T09:30:01Z</time>
      </trkpt>
      <trkpt lat="45.98413" lon="4.89123">
        <ele>285</ele>
        <time>2018-05-23T09:30:02Z</time>
      </trkpt>
      <trkpt lat="45.98409" lon="4.89115">
        <ele>286</ele>
        <time>2018-05-23T09:30:03Z</time>
      </trkpt>
      <trkpt lat="45.98404" lon="4.89109">
        <ele>286</ele>
        <time>2018-05-23T09:30:04Z</time>
      </trkpt>
      <trkpt lat="45.98401" lon="4.89098">
        <ele>286</ele>
        <time>2018-05-23T09:30:05Z</time>
      </trkpt>
      <trkpt lat="45.98396" lon="4.89091">
        <ele>286</ele>
        <time>2018-05-23T09:30:06Z</time>
      </trkpt>
      <trkpt lat="45.98392" lon="4.89083">
        <ele>285</ele>
        <time>2018-05-23T09:30:07Z</time>
      </trkpt>
      <trkpt lat="45.98388" lon="4.89073">
        <ele>285</ele>
        <time>2018-05-23T09:30:08Z</time>
      </trkpt>
      <trkpt lat="45.98383" lon="4.89063">
        <ele>285</ele>
        <time>2018-05-23T09:30:09Z</time>
      </trkpt>
      <trkpt lat="45.98379" lon="4.89052">
        <ele>284</ele>
        <time>2018-05-23T09:30:10Z</time>
      </trkpt>
      <trkpt lat="45.98376" lon="4.89042">
        <ele>284</ele>
        <time>2018-05-23T09:30:11Z</time>
      </trkpt>
      <trkpt lat="45.98372" lon="4.89032">
        <ele>284</ele>
        <time>2018-05-23T09:30:12Z</time>
      </trkpt>
      <trkpt lat="45.98372" lon="4.89021">
        <ele>284</ele>
        <time>2018-05-23T09:30:13Z</time>
      </trkpt>
      <trkpt lat="45.9837" lon="4.89011">
        <ele>284</ele>
        <time>2018-05-23T09:30:14Z</time>
      </trkpt>
      <trkpt lat="45.98367" lon="4.89001">
        <ele>283</ele>
        <time>2018-05-23T09:30:15Z</time>
      </trkpt>
      <trkpt lat="45.98366" lon="4.88991">
        <ele>282</ele>
        <time>2018-05-23T09:30:16Z</time>
      </trkpt>
      <trkpt lat="45.98363" lon="4.88979">
        <ele>282</ele>
        <time>2018-05-23T09:30:17Z</time>
      </trkpt>
      <trkpt lat="45.98361" lon="4.8897">
        <ele>282</ele>
        <time>2018-05-23T09:30:18Z</time>
      </trkpt>
      <trkpt lat="45.98359" lon="4.8896">
        <ele>282</ele>
        <time>2018-05-23T09:30:19Z</time>
      </trkpt>
      <trkpt lat="45.98356" lon="4.8895">
        <ele>282</ele>
        <time>2018-05-23T09:30:20Z</time>
      </trkpt>
      <trkpt lat="45.98355" lon="4.8894">
        <ele>282</ele>
        <time>2018-05-23T09:30:21Z</time>
      </trkpt>
      <trkpt lat="45.98352" lon="4.88931">
        <ele>281</ele>
        <time>2018-05-23T09:30:22Z</time>
      </trkpt>
      <trkpt lat="45.98351" lon="4.88921">
        <ele>281</ele>
        <time>2018-05-23T09:30:23Z</time>
      </trkpt>
      <trkpt lat="45.98347" lon="4.88911">
        <ele>280</ele>
        <time>2018-05-23T09:30:24Z</time>
      </trkpt>
      <trkpt lat="45.98345" lon="4.88902">
        <ele>280</ele>
        <time>2018-05-23T09:30:25Z</time>
      </trkpt>
      <trkpt lat="45.98343" lon="4.88893">
        <ele>280</ele>
        <time>2018-05-23T09:30:26Z</time>
      </trkpt>
      <trkpt lat="45.98342" lon="4.88883">
        <ele>280</ele>
        <time>2018-05-23T09:30:27Z</time>
      </trkpt>
      <trkpt lat="45.9834" lon="4.88873">
        <ele>280</ele>
        <time>2018-05-23T09:30:28Z</time>
      </trkpt>
      <trkpt lat="45.98335" lon="4.88865">
        <ele>280</ele>
        <time>2018-05-23T09:30:29Z</time>
      </trkpt>
      <trkpt lat="45.98332" lon="4.88856">
        <ele>278</ele>
        <time>2018-05-23T09:30:30Z</time>
      </trkpt>
      <trkpt lat="45.98331" lon="4.88848">
        <ele>278</ele>
        <time>2018-05-23T09:30:31Z</time>
      </trkpt>
      <trkpt lat="45.98329" lon="4.8884">
        <ele>278</ele>
        <time>2018-05-23T09:30:32Z</time>
      </trkpt>
      <trkpt lat="45.98327" lon="4.88831">
        <ele>278</ele>
        <time>2018-05-23T09:30:33Z</time>
      </trkpt>
      <trkpt lat="45.98324" lon="4.88822">
        <ele>277</ele>
        <time>2018-05-23T09:30:34Z</time>
      </trkpt>
      <trkpt lat="45.98322" lon="4.88814">
        <ele>277</ele>
        <time>2018-05-23T09:30:35Z</time>
      </trkpt>
      <trkpt lat="45.98321" lon="4.88806">
        <ele>277</ele>
        <time>2018-05-23T09:30:36Z</time>
      </trkpt>
      <trkpt lat="45.9832" lon="4.88798">
        <ele>277</ele>
        <time>2018-05-23T09:30:37Z</time>
      </trkpt>
      <trkpt lat="45.98318" lon="4.88789">
        <ele>277</ele>
        <time>2018-05-23T09:30:38Z</time>
      </trkpt>
      <trkpt lat="45.98317" lon="4.88782">
        <ele>277</ele>
        <time>2018-05-23T09:30:39Z</time>
      </trkpt>
      <trkpt lat="45.98314" lon="4.88774">
        <ele>277</ele>
        <time>2018-05-23T09:30:40Z</time>
      </trkpt>
      <trkpt lat="45.98311" lon="4.88766">
        <ele>277</ele>
        <time>2018-05-23T09:30:41Z</time>
      </trkpt>
      <trkpt lat="45.98309" lon="4.88759">
        <ele>276</ele>
        <time>2018-05-23T09:30:42Z</time>
      </trkpt>
      <trkpt lat="45.98308" lon="4.88751">
        <ele>276</ele>
        <time>2018-05-23T09:30:43Z</time>
      </trkpt>
      <trkpt lat="45.98307" lon="4.88743">
        <ele>276</ele>
        <time>2018-05-23T09:30:44Z</time>
      </trkpt>
      <trkpt lat="45.98305" lon="4.88736">
        <ele>276</ele>
        <time>2018-05-23T09:30:45Z</time>
      </trkpt>
      <trkpt lat="45.98303" lon="4.88727">
        <ele>276</ele>
        <time>2018-05-23T09:30:46Z</time>
      </trkpt>
      <trkpt lat="45.983" lon="4.88718">
        <ele>276</ele>
        <time>2018-05-23T09:30:47Z</time>
      </trkpt>
      <trkpt lat="45.98297" lon="4.88709">
        <ele>276</ele>
        <time>2018-05-23T09:30:48Z</time>
      </trkpt>
      <trkpt lat="45.98295" lon="4.88699">
        <ele>276</ele>
        <time>2018-05-23T09:30:49Z</time>
      </trkpt>
      <trkpt lat="45.98292" lon="4.8869">
        <ele>276</ele>
        <time>2018-05-23T09:30:50Z</time>
      </trkpt>
      <trkpt lat="45.9829" lon="4.88681">
        <ele>276</ele>
        <time>2018-05-23T09:30:51Z</time>
      </trkpt>
      <trkpt lat="45.9829" lon="4.88672">
        <ele>276</ele>
        <time>2018-05-23T09:30:52Z</time>
      </trkpt>
      <trkpt lat="45.98287" lon="4.88663">
        <ele>276</ele>
        <time>2018-05-23T09:30:53Z</time>
      </trkpt>
      <trkpt lat="45.98284" lon="4.88658">
        <ele>276</ele>
        <time>2018-05-23T09:30:54Z</time>
      </trkpt>
      <trkpt lat="45.98281" lon="4.88649">
        <ele>276</ele>
        <time>2018-05-23T09:30:55Z</time>
      </trkpt>
      <trkpt lat="45.98279" lon="4.88641">
        <ele>276</ele>
        <time>2018-05-23T09:30:56Z</time>
      </trkpt>
      <trkpt lat="45.98278" lon="4.88633">
        <ele>276</ele>
        <time>2018-05-23T09:30:57Z</time>
      </trkpt>
      <trkpt lat="45.98277" lon="4.88625">
        <ele>276</ele>
        <time>2018-05-23T09:30:58Z</time>
      </trkpt>
      <trkpt lat="45.98274" lon="4.88616">
        <ele>276</ele>
        <time>2018-05-23T09:30:59Z</time>
      </trkpt>
      <trkpt lat="45.98272" lon="4.88608">
        <ele>276</ele>
        <time>2018-05-23T09:31:00Z</time>
      </trkpt>
      <trkpt lat="45.98271" lon="4.88599">
        <ele>276</ele>
        <time>2018-05-23T09:31:01Z</time>
      </trkpt>
      <trkpt lat="45.98269" lon="4.88591">
        <ele>275</ele>
        <time>2018-05-23T09:31:02Z</time>
      </trkpt>
      <trkpt lat="45.98267" lon="4.88584">
        <ele>275</ele>
        <time>2018-05-23T09:31:03Z</time>
      </trkpt>
      <trkpt lat="45.98265" lon="4.88575">
        <ele>276</ele>
        <time>2018-05-23T09:31:04Z</time>
      </trkpt>
      <trkpt lat="45.98262" lon="4.88565">
        <ele>276</ele>
        <time>2018-05-23T09:31:05Z</time>
      </trkpt>
      <trkpt lat="45.9826" lon="4.88557">
        <ele>276</ele>
        <time>2018-05-23T09:31:06Z</time>
      </trkpt>
      <trkpt lat="45.98256" lon="4.8855">
        <ele>276</ele>
        <time>2018-05-23T09:31:07Z</time>
      </trkpt>
      <trkpt lat="45.98256" lon="4.88542">
        <ele>276</ele>
        <time>2018-05-23T09:31:08Z</time>
      </trkpt>
      <trkpt lat="45.98254" lon="4.88534">
        <ele>276</ele>
        <time>2018-05-23T09:31:09Z</time>
      </trkpt>
      <trkpt lat="45.98252" lon="4.88527">
        <ele>277</ele>
        <time>2018-05-23T09:31:10Z</time>
      </trkpt>
      <trkpt lat="45.98251" lon="4.88517">
        <ele>277</ele>
        <time>2018-05-23T09:31:11Z</time>
      </trkpt>
      <trkpt lat="45.98249" lon="4.88509">
        <ele>277</ele>
        <time>2018-05-23T09:31:12Z</time>
      </trkpt>
      <trkpt lat="45.98248" lon="4.88501">
        <ele>277</ele>
        <time>2018-05-23T09:31:13Z</time>
      </trkpt>
      <trkpt lat="45.98245" lon="4.88492">
        <ele>277</ele>
        <time>2018-05-23T09:31:14Z</time>
      </trkpt>
      <trkpt lat="45.98243" lon="4.88483">
        <ele>276</ele>
        <time>2018-05-23T09:31:15Z</time>
      </trkpt>
      <trkpt lat="45.98241" lon="4.88475">
        <ele>276</ele>
        <time>2018-05-23T09:31:16Z</time>
      </trkpt>
      <trkpt lat="45.98239" lon="4.88466">
        <ele>276</ele>
        <time>2018-05-23T09:31:17Z</time>
      </trkpt>
      <trkpt lat="45.98238" lon="4.88458">
        <ele>276</ele>
        <time>2018-05-23T09:31:18Z</time>
      </trkpt>
      <trkpt lat="45.98235" lon="4.88449">
        <ele>276</ele>
        <time>2018-05-23T09:31:19Z</time>
      </trkpt>
      <trkpt lat="45.98233" lon="4.88442">
        <ele>276</ele>
        <time>2018-05-23T09:31:20Z</time>
      </trkpt>
      <trkpt lat="45.98231" lon="4.88434">
        <ele>276</ele>
        <time>2018-05-23T09:31:21Z</time>
      </trkpt>
      <trkpt lat="45.98229" lon="4.88425">
        <ele>276</ele>
        <time>2018-05-23T09:31:22Z</time>
      </trkpt>
      <trkpt lat="45.98227" lon="4.88416">
        <ele>276</ele>
        <time>2018-05-23T09:31:23Z</time>
      </trkpt>
      <trkpt lat="45.98225" lon="4.88408">
        <ele>275</ele>
        <time>2018-05-23T09:31:24Z</time>
      </trkpt>
      <trkpt lat="45.98223" lon="4.88399">
        <ele>275</ele>
        <time>2018-05-23T09:31:25Z</time>
      </trkpt>
      <trkpt lat="45.98221" lon="4.88391">
        <ele>275</ele>
        <time>2018-05-23T09:31:26Z</time>
      </trkpt>
      <trkpt lat="45.9822" lon="4.88382">
        <ele>275</ele>
        <time>2018-05-23T09:31:27Z</time>
      </trkpt>
      <trkpt lat="45.98221" lon="4.88373">
        <ele>275</ele>
        <time>2018-05-23T09:31:28Z</time>
      </trkpt>
      <trkpt lat="45.9822" lon="4.88363">
        <ele>275</ele>
        <time>2018-05-23T09:31:29Z</time>
      </trkpt>
      <trkpt lat="45.98218" lon="4.88355">
        <ele>275</ele>
        <time>2018-05-23T09:31:30Z</time>
      </trkpt>
      <trkpt lat="45.98218" lon="4.88346">
        <ele>275</ele>
        <time>2018-05-23T09:31:31Z</time>
      </trkpt>
      <trkpt lat="45.98218" lon="4.88337">
        <ele>275</ele>
        <time>2018-05-23T09:31:32Z</time>
      </trkpt>
      <trkpt lat="45.98218" lon="4.88329">
        <ele>274</ele>
        <time>2018-05-23T09:31:33Z</time>
      </trkpt>
      <trkpt lat="45.98218" lon="4.8832">
        <ele>274</ele>
        <time>2018-05-23T09:31:34Z</time>
      </trkpt>
      <trkpt lat="45.98218" lon="4.88311">
        <ele>274</ele>
        <time>2018-05-23T09:31:35Z</time>
      </trkpt>
      <trkpt lat="45.98216" lon="4.88303">
        <ele>274</ele>
        <time>2018-05-23T09:31:36Z</time>
      </trkpt>
      <trkpt lat="45.98214" lon="4.88294">
        <ele>274</ele>
        <time>2018-05-23T09:31:37Z</time>
      </trkpt>
      <trkpt lat="45.98213" lon="4.88284">
        <ele>274</ele>
        <time>2018-05-23T09:31:38Z</time>
      </trkpt>
      <trkpt lat="45.98211" lon="4.88276">
        <ele>274</ele>
        <time>2018-05-23T09:31:39Z</time>
      </trkpt>
      <trkpt lat="45.9821" lon="4.88266">
        <ele>274</ele>
        <time>2018-05-23T09:31:40Z</time>
      </trkpt>
      <trkpt lat="45.98207" lon="4.88257">
        <ele>274</ele>
        <time>2018-05-23T09:31:41Z</time>
      </trkpt>
      <trkpt lat="45.98205" lon="4.88249">
        <ele>273</ele>
        <time>2018-05-23T09:31:42Z</time>
      </trkpt>
      <trkpt lat="45.98202" lon="4.88241">
        <ele>273</ele>
        <time>2018-05-23T09:31:43Z</time>
      </trkpt>
      <trkpt lat="45.98199" lon="4.88232">
        <ele>273</ele>
        <time>2018-05-23T09:31:44Z</time>
      </trkpt>
      <trkpt lat="45.98197" lon="4.88224">
        <ele>273</ele>
        <time>2018-05-23T09:31:45Z</time>
      </trkpt>
      <trkpt lat="45.98194" lon="4.88217">
        <ele>273</ele>
        <time>2018-05-23T09:31:46Z</time>
      </trkpt>
      <trkpt lat="45.98192" lon="4.88209">
        <ele>273</ele>
        <time>2018-05-23T09:31:47Z</time>
      </trkpt>
      <trkpt lat="45.9819" lon="4.88201">
        <ele>273</ele>
        <time>2018-05-23T09:31:48Z</time>
      </trkpt>
      <trkpt lat="45.98188" lon="4.88194">
        <ele>273</ele>
        <time>2018-05-23T09:31:49Z</time>
      </trkpt>
      <trkpt lat="45.98187" lon="4.88187">
        <ele>273</ele>
        <time>2018-05-23T09:31:50Z</time>
      </trkpt>
      <trkpt lat="45.98186" lon="4.88178">
        <ele>273</ele>
        <time>2018-05-23T09:31:51Z</time>
      </trkpt>
      <trkpt lat="45.98184" lon="4.88172">
        <ele>273</ele>
        <time>2018-05-23T09:31:52Z</time>
      </trkpt>
      <trkpt lat="45.98182" lon="4.88164">
        <ele>273</ele>
        <time>2018-05-23T09:31:53Z</time>
      </trkpt>
      <trkpt lat="45.9818" lon="4.88157">
        <ele>273</ele>
        <time>2018-05-23T09:31:54Z</time>
      </trkpt>
      <trkpt lat="45.98177" lon="4.88149">
        <ele>273</ele>
        <time>2018-05-23T09:31:55Z</time>
      </trkpt>
      <trkpt lat="45.98176" lon="4.88143">
        <ele>273</ele>
        <time>2018-05-23T09:31:56Z</time>
      </trkpt>
      <trkpt lat="45.98172" lon="4.88137">
        <ele>273</ele>
        <time>2018-05-23T09:31:57Z</time>
      </trkpt>
      <trkpt lat="45.98169" lon="4.8813">
        <ele>273</ele>
        <time>2018-05-23T09:31:58Z</time>
      </trkpt>
      <trkpt lat="45.98167" lon="4.88123">
        <ele>273</ele>
        <time>2018-05-23T09:31:59Z</time>
      </trkpt>
      <trkpt lat="45.98165" lon="4.88115">
        <ele>274</ele>
        <time>2018-05-23T09:32:00Z</time>
      </trkpt>
      <trkpt lat="45.98163" lon="4.88108">
        <ele>274</ele>
        <time>2018-05-23T09:32:01Z</time>
      </trkpt>
      <trkpt lat="45.9816" lon="4.88101">
        <ele>274</ele>
        <time>2018-05-23T09:32:02Z</time>
      </trkpt>
      <trkpt lat="45.98158" lon="4.88095">
        <ele>274</ele>
        <time>2018-05-23T09:32:03Z</time>
      </trkpt>
      <trkpt lat="45.98156" lon="4.8809">
        <ele>274</ele>
        <time>2018-05-23T09:32:04Z</time>
      </trkpt>
      <trkpt lat="45.98154" lon="4.88082">
        <ele>274</ele>
        <time>2018-05-23T09:32:05Z</time>
      </trkpt>
      <trkpt lat="45.98151" lon="4.88076">
        <ele>274</ele>
        <time>2018-05-23T09:32:06Z</time>
      </trkpt>
      <trkpt lat="45.98149" lon="4.88068">
        <ele>275</ele>
        <time>2018-05-23T09:32:07Z</time>
      </trkpt>
      <trkpt lat="45.98147" lon="4.88061">
        <ele>275</ele>
        <time>2018-05-23T09:32:08Z</time>
      </trkpt>
      <trkpt lat="45.98145" lon="4.88054">
        <ele>275</ele>
        <time>2018-05-23T09:32:09Z</time>
      </trkpt>
      <trkpt lat="45.98142" lon="4.88047">
        <ele>275</ele>
        <time>2018-05-23T09:32:10Z</time>
      </trkpt>
      <trkpt lat="45.9814" lon="4.8804">
        <ele>275</ele>
        <time>2018-05-23T09:32:11Z</time>
      </trkpt>
      <trkpt lat="45.98138" lon="4.88032">
        <ele>276</ele>
        <time>2018-05-23T09:32:12Z</time>
      </trkpt>
      <trkpt lat="45.98136" lon="4.88026">
        <ele>276</ele>
        <time>2018-05-23T09:32:13Z</time>
      </trkpt>
      <trkpt lat="45.98134" lon="4.88019">
        <ele>276</ele>
        <time>2018-05-23T09:32:14Z</time>
      </trkpt>
      <trkpt lat="45.98132" lon="4.88012">
        <ele>276</ele>
        <time>2018-05-23T09:32:15Z</time>
      </trkpt>
      <trkpt lat="45.9813" lon="4.88004">
        <ele>276</ele>
        <time>2018-05-23T09:32:16Z</time>
      </trkpt>
      <trkpt lat="45.98127" lon="4.87997">
        <ele>277</ele>
        <time>2018-05-23T09:32:17Z</time>
      </trkpt>
      <trkpt lat="45.98125" lon="4.87991">
        <ele>277</ele>
        <time>2018-05-23T09:32:18Z</time>
      </trkpt>
      <trkpt lat="45.98123" lon="4.87985">
        <ele>277</ele>
        <time>2018-05-23T09:32:19Z</time>
      </trkpt>
      <trkpt lat="45.98121" lon="4.87979">
        <ele>277</ele>
        <time>2018-05-23T09:32:20Z</time>
      </trkpt>
      <trkpt lat="45.98119" lon="4.87973">
        <ele>277</ele>
        <time>2018-05-23T09:32:21Z</time>
      </trkpt>
      <trkpt lat="45.98116" lon="4.87967">
        <ele>277</ele>
        <time>2018-05-23T09:32:22Z</time>
      </trkpt>
      <trkpt lat="45.98115" lon="4.8796">
        <ele>277</ele>
        <time>2018-05-23T09:32:23Z</time>
      </trkpt>
      <trkpt lat="45.98113" lon="4.87954">
        <ele>277</ele>
        <time>2018-05-23T09:32:24Z</time>
      </trkpt>
      <trkpt lat="45.98111" lon="4.87947">
        <ele>277</ele>
        <time>2018-05-23T09:32:25Z</time>
      </trkpt>
      <trkpt lat="45.98109" lon="4.87941">
        <ele>277</ele>
        <time>2018-05-23T09:32:26Z</time>
      </trkpt>
      <trkpt lat="45.98107" lon="4.87933">
        <ele>277</ele>
        <time>2018-05-23T09:32:27Z</time>
      </trkpt>
      <trkpt lat="45.98104" lon="4.87928">
        <ele>277</ele>
        <time>2018-05-23T09:32:28Z</time>
      </trkpt>
      <trkpt lat="45.98103" lon="4.87922">
        <ele>277</ele>
        <time>2018-05-23T09:32:29Z</time>
      </trkpt>
      <trkpt lat="45.98101" lon="4.87915">
        <ele>278</ele>
        <time>2018-05-23T09:32:30Z</time>
      </trkpt>
      <trkpt lat="45.98099" lon="4.87909">
        <ele>278</ele>
        <time>2018-05-23T09:32:31Z</time>
      </trkpt>
      <trkpt lat="45.98096" lon="4.87902">
        <ele>278</ele>
        <time>2018-05-23T09:32:32Z</time>
      </trkpt>
      <trkpt lat="45.98095" lon="4.87896">
        <ele>278</ele>
        <time>2018-05-23T09:32:33Z</time>
      </trkpt>
      <trkpt lat="45.98093" lon="4.87889">
        <ele>278</ele>
        <time>2018-05-23T09:32:34Z</time>
      </trkpt>
      <trkpt lat="45.98091" lon="4.87882">
        <ele>278</ele>
        <time>2018-05-23T09:32:35Z</time>
      </trkpt>
      <trkpt lat="45.98089" lon="4.87876">
        <ele>278</ele>
        <time>2018-05-23T09:32:36Z</time>
      </trkpt>
      <trkpt lat="45.98088" lon="4.87869">
        <ele>278</ele>
        <time>2018-05-23T09:32:37Z</time>
      </trkpt>
      <trkpt lat="45.98086" lon="4.87863">
        <ele>278</ele>
        <time>2018-05-23T09:32:38Z</time>
      </trkpt>
      <trkpt lat="45.98084" lon="4.87857">
        <ele>278</ele>
        <time>2018-05-23T09:32:39Z</time>
      </trkpt>
      <trkpt lat="45.98082" lon="4.8785">
        <ele>279</ele>
        <time>2018-05-23T09:32:40Z</time>
      </trkpt>
      <trkpt lat="45.9808" lon="4.87844">
        <ele>279</ele>
        <time>2018-05-23T09:32:41Z</time>
      </trkpt>
      <trkpt lat="45.98078" lon="4.87838">
        <ele>279</ele>
        <time>2018-05-23T09:32:42Z</time>
      </trkpt>
      <trkpt lat="45.98076" lon="4.87831">
        <ele>279</ele>
        <time>2018-05-23T09:32:43Z</time>
      </trkpt>
      <trkpt lat="45.98074" lon="4.87826">
        <ele>279</ele>
        <time>2018-05-23T09:32:44Z</time>
      </trkpt>
      <trkpt lat="45.98073" lon="4.8782">
        <ele>279</ele>
        <time>2018-05-23T09:32:45Z</time>
      </trkpt>
      <trkpt lat="45.98071" lon="4.87813">
        <ele>280</ele>
        <time>2018-05-23T09:32:46Z</time>
      </trkpt>
      <trkpt lat="45.98067" lon="4.87803">
        <ele>280</ele>
        <time>2018-05-23T09:32:48Z</time>
      </trkpt>
      <trkpt lat="45.98065" lon="4.87797">
        <ele>280</ele>
        <time>2018-05-23T09:32:49Z</time>
      </trkpt>
      <trkpt lat="45.98063" lon="4.87791">
        <ele>280</ele>
        <time>2018-05-23T09:32:50Z</time>
      </trkpt>
      <trkpt lat="45.98061" lon="4.87785">
        <ele>280</ele>
        <time>2018-05-23T09:32:51Z</time>
      </trkpt>
      <trkpt lat="45.98059" lon="4.87778">
        <ele>280</ele>
        <time>2018-05-23T09:32:52Z</time>
      </trkpt>
      <trkpt lat="45.98057" lon="4.87771">
        <ele>280</ele>
        <time>2018-05-23T09:32:53Z</time>
      </trkpt>
      <trkpt lat="45.98055" lon="4.87764">
        <ele>280</ele>
        <time>2018-05-23T09:32:54Z</time>
      </trkpt>
      <trkpt lat="45.98052" lon="4.87757">
        <ele>280</ele>
        <time>2018-05-23T09:32:55Z</time>
      </trkpt>
      <trkpt lat="45.98048" lon="4.87746">
        <ele>280</ele>
        <time>2018-05-23T09:32:57Z</time>
      </trkpt>
      <trkpt lat="45.98046" lon="4.87739">
        <ele>280</ele>
        <time>2018-05-23T09:32:58Z</time>
      </trkpt>
      <trkpt lat="45.98045" lon="4.87731">
        <ele>280</ele>
        <time>2018-05-23T09:32:59Z</time>
      </trkpt>
      <trkpt lat="45.98043" lon="4.87725">
        <ele>280</ele>
        <time>2018-05-23T09:33:00Z</time>
      </trkpt>
      <trkpt lat="45.98039" lon="4.87715">
        <ele>279</ele>
        <time>2018-05-23T09:33:02Z</time>
      </trkpt>
      <trkpt lat="45.98037" lon="4.87709">
        <ele>279</ele>
        <time>2018-05-23T09:33:03Z</time>
      </trkpt>
      <trkpt lat="45.98035" lon="4.87702">
        <ele>280</ele>
        <time>2018-05-23T09:33:04Z</time>
      </trkpt>
      <trkpt lat="45.98034" lon="4.87697">
        <ele>280</ele>
        <time>2018-05-23T09:33:05Z</time>
      </trkpt>
      <trkpt lat="45.98032" lon="4.87691">
        <ele>280</ele>
        <time>2018-05-23T09:33:06Z</time>
      </trkpt>
      <trkpt lat="45.98031" lon="4.87683">
        <ele>280</ele>
        <time>2018-05-23T09:33:07Z</time>
      </trkpt>
      <trkpt lat="45.98027" lon="4.87671">
        <ele>280</ele>
        <time>2018-05-23T09:33:09Z</time>
      </trkpt>
      <trkpt lat="45.98025" lon="4.87665">
        <ele>280</ele>
        <time>2018-05-23T09:33:10Z</time>
      </trkpt>
      <trkpt lat="45.98024" lon="4.87658">
        <ele>280</ele>
        <time>2018-05-23T09:33:11Z</time>
      </trkpt>
      <trkpt lat="45.98022" lon="4.87651">
        <ele>280</ele>
        <time>2018-05-23T09:33:12Z</time>
      </trkpt>
      <trkpt lat="45.98018" lon="4.87643">
        <ele>280</ele>
        <time>2018-05-23T09:33:14Z</time>
      </trkpt>
      <trkpt lat="45.98016" lon="4.87639">
        <ele>280</ele>
        <time>2018-05-23T09:33:15Z</time>
      </trkpt>
      <trkpt lat="45.98015" lon="4.87632">
        <ele>280</ele>
        <time>2018-05-23T09:33:16Z</time>
      </trkpt>
      <trkpt lat="45.98012" lon="4.87626">
        <ele>280</ele>
        <time>2018-05-23T09:33:17Z</time>
      </trkpt>
      <trkpt lat="45.9801" lon="4.8762">
        <ele>280</ele>
        <time>2018-05-23T09:33:18Z</time>
      </trkpt>
      <trkpt lat="45.98008" lon="4.87613">
        <ele>280</ele>
        <time>2018-05-23T09:33:19Z</time>
      </trkpt>
      <trkpt lat="45.98006" lon="4.87607">
        <ele>280</ele>
        <time>2018-05-23T09:33:20Z</time>
      </trkpt>
      <trkpt lat="45.98003" lon="4.87601">
        <ele>280</ele>
        <time>2018-05-23T09:33:21Z</time>
      </trkpt>
      <trkpt lat="45.97999" lon="4.87594">
        <ele>280</ele>
        <time>2018-05-23T09:33:22Z</time>
      </trkpt>
      <trkpt lat="45.97997" lon="4.87585">
        <ele>280</ele>
        <time>2018-05-23T09:33:23Z</time>
      </trkpt>
      <trkpt lat="45.97993" lon="4.87579">
        <ele>280</ele>
        <time>2018-05-23T09:33:24Z</time>
      </trkpt>
      <trkpt lat="45.9799" lon="4.87573">
        <ele>280</ele>
        <time>2018-05-23T09:33:25Z</time>
      </trkpt>
      <trkpt lat="45.97988" lon="4.87567">
        <ele>280</ele>
        <time>2018-05-23T09:33:26Z</time>
      </trkpt>
      <trkpt lat="45.97983" lon="4.87563">
        <ele>279</ele>
        <time>2018-05-23T09:33:27Z</time>
      </trkpt>
      <trkpt lat="45.97979" lon="4.87559">
        <ele>279</ele>
        <time>2018-05-23T09:33:28Z</time>
      </trkpt>
      <trkpt lat="45.97974" lon="4.87554">
        <ele>279</ele>
        <time>2018-05-23T09:33:29Z</time>
      </trkpt>
      <trkpt lat="45.97969" lon="4.8755">
        <ele>279</ele>
        <time>2018-05-23T09:33:30Z</time>
      </trkpt>
      <trkpt lat="45.97963" lon="4.87548">
        <ele>279</ele>
        <time>2018-05-23T09:33:31Z</time>
      </trkpt>
      <trkpt lat="45.97957" lon="4.87542">
        <ele>279</ele>
        <time>2018-05-23T09:33:33Z</time>
      </trkpt>
      <trkpt lat="45.97952" lon="4.8754">
        <ele>279</ele>
        <time>2018-05-23T09:33:34Z</time>
      </trkpt>
      <trkpt lat="45.97947" lon="4.87538">
        <ele>279</ele>
        <time>2018-05-23T09:33:35Z</time>
      </trkpt>
      <trkpt lat="45.97942" lon="4.87535">
        <ele>279</ele>
        <time>2018-05-23T09:33:36Z</time>
      </trkpt>
      <trkpt lat="45.97938" lon="4.87533">
        <ele>279</ele>
        <time>2018-05-23T09:33:37Z</time>
      </trkpt>
      <trkpt lat="45.97933" lon="4.87532">
        <ele>279</ele>
        <time>2018-05-23T09:33:38Z</time>
      </trkpt>
      <trkpt lat="45.97928" lon="4.87531">
        <ele>279</ele>
        <time>2018-05-23T09:33:39Z</time>
      </trkpt>
      <trkpt lat="45.97924" lon="4.87529">
        <ele>279</ele>
        <time>2018-05-23T09:33:40Z</time>
      </trkpt>
      <trkpt lat="45.9792" lon="4.87527">
        <ele>279</ele>
        <time>2018-05-23T09:33:41Z</time>
      </trkpt>
      <trkpt lat="45.97914" lon="4.87524">
        <ele>280</ele>
        <time>2018-05-23T09:33:42Z</time>
      </trkpt>
      <trkpt lat="45.9791" lon="4.87521">
        <ele>280</ele>
        <time>2018-05-23T09:33:43Z</time>
      </trkpt>
      <trkpt lat="45.97905" lon="4.87519">
        <ele>280</ele>
        <time>2018-05-23T09:33:44Z</time>
      </trkpt>
      <trkpt lat="45.979" lon="4.87515">
        <ele>280</ele>
        <time>2018-05-23T09:33:45Z</time>
      </trkpt>
      <trkpt lat="45.97895" lon="4.87512">
        <ele>280</ele>
        <time>2018-05-23T09:33:46Z</time>
      </trkpt>
      <trkpt lat="45.97889" lon="4.8751">
        <ele>280</ele>
        <time>2018-05-23T09:33:47Z</time>
      </trkpt>
      <trkpt lat="45.97884" lon="4.87506">
        <ele>281</ele>
        <time>2018-05-23T09:33:48Z</time>
      </trkpt>
      <trkpt lat="45.97877" lon="4.87502">
        <ele>281</ele>
        <time>2018-05-23T09:33:49Z</time>
      </trkpt>
      <trkpt lat="45.97872" lon="4.87498">
        <ele>280</ele>
        <time>2018-05-23T09:33:50Z</time>
      </trkpt>
      <trkpt lat="45.97866" lon="4.87494">
        <ele>280</ele>
        <time>2018-05-23T09:33:51Z</time>
      </trkpt>
      <trkpt lat="45.97862" lon="4.87491">
        <ele>280</ele>
        <time>2018-05-23T09:33:52Z</time>
      </trkpt>
      <trkpt lat="45.97855" lon="4.87483">
        <ele>281</ele>
        <time>2018-05-23T09:33:54Z</time>
      </trkpt>
      <trkpt lat="45.97852" lon="4.87479">
        <ele>281</ele>
        <time>2018-05-23T09:33:55Z</time>
      </trkpt>
      <trkpt lat="45.97848" lon="4.87474">
        <ele>281</ele>
        <time>2018-05-23T09:33:56Z</time>
      </trkpt>
      <trkpt lat="45.97845" lon="4.8747">
        <ele>281</ele>
        <time>2018-05-23T09:33:57Z</time>
      </trkpt>
      <trkpt lat="45.97841" lon="4.87465">
        <ele>281</ele>
        <time>2018-05-23T09:33:58Z</time>
      </trkpt>
      <trkpt lat="45.97837" lon="4.87462">
        <ele>281</ele>
        <time>2018-05-23T09:33:59Z</time>
      </trkpt>
      <trkpt lat="45.97832" lon="4.87455">
        <ele>282</ele>
        <time>2018-05-23T09:34:01Z</time>
      </trkpt>
      <trkpt lat="45.97826" lon="4.87452">
        <ele>282</ele>
        <time>2018-05-23T09:34:02Z</time>
      </trkpt>
      <trkpt lat="45.97821" lon="4.87447">
        <ele>282</ele>
        <time>2018-05-23T09:34:03Z</time>
      </trkpt>
      <trkpt lat="45.97818" lon="4.87442">
        <ele>282</ele>
        <time>2018-05-23T09:34:04Z</time>
      </trkpt>
      <trkpt lat="45.97814" lon="4.87439">
        <ele>282</ele>
        <time>2018-05-23T09:34:05Z</time>
      </trkpt>
      <trkpt lat="45.97811" lon="4.87434">
        <ele>282</ele>
        <time>2018-05-23T09:34:06Z</time>
      </trkpt>
      <trkpt lat="45.97804" lon="4.87428">
        <ele>283</ele>
        <time>2018-05-23T09:34:08Z</time>
      </trkpt>
      <trkpt lat="45.97801" lon="4.87425">
        <ele>283</ele>
        <time>2018-05-23T09:34:09Z</time>
      </trkpt>
      <trkpt lat="45.97795" lon="4.87417">
        <ele>283</ele>
        <time>2018-05-23T09:34:11Z</time>
      </trkpt>
      <trkpt lat="45.97791" lon="4.87413">
        <ele>284</ele>
        <time>2018-05-23T09:34:12Z</time>
      </trkpt>
      <trkpt lat="45.97785" lon="4.87405">
        <ele>284</ele>
        <time>2018-05-23T09:34:14Z</time>
      </trkpt>
      <trkpt lat="45.97782" lon="4.87402">
        <ele>284</ele>
        <time>2018-05-23T09:34:15Z</time>
      </trkpt>
      <trkpt lat="45.97776" lon="4.87395">
        <ele>284</ele>
        <time>2018-05-23T09:34:17Z</time>
      </trkpt>
      <trkpt lat="45.97773" lon="4.87391">
        <ele>284</ele>
        <time>2018-05-23T09:34:18Z</time>
      </trkpt>
      <trkpt lat="45.97767" lon="4.87382">
        <ele>284</ele>
        <time>2018-05-23T09:34:20Z</time>
      </trkpt>
      <trkpt lat="45.97765" lon="4.87378">
        <ele>284</ele>
        <time>2018-05-23T09:34:21Z</time>
      </trkpt>
      <trkpt lat="45.97759" lon="4.87369">
        <ele>285</ele>
        <time>2018-05-23T09:34:23Z</time>
      </trkpt>
      <trkpt lat="45.97757" lon="4.87365">
        <ele>285</ele>
        <time>2018-05-23T09:34:24Z</time>
      </trkpt>
      <trkpt lat="45.97751" lon="4.87357">
        <ele>285</ele>
        <time>2018-05-23T09:34:26Z</time>
      </trkpt>
      <trkpt lat="45.97749" lon="4.87353">
        <ele>286</ele>
        <time>2018-05-23T09:34:27Z</time>
      </trkpt>
      <trkpt lat="45.97743" lon="4.87345">
        <ele>286</ele>
        <time>2018-05-23T09:34:29Z</time>
      </trkpt>
      <trkpt lat="45.9774" lon="4.87341">
        <ele>286</ele>
        <time>2018-05-23T09:34:30Z</time>
      </trkpt>
      <trkpt lat="45.97736" lon="4.87338">
        <ele>286</ele>
        <time>2018-05-23T09:34:31Z</time>
      </trkpt>
      <trkpt lat="45.97729" lon="4.87335">
        <ele>286</ele>
        <time>2018-05-23T09:34:32Z</time>
      </trkpt>
      <trkpt lat="45.97726" lon="4.87331">
        <ele>286</ele>
        <time>2018-05-23T09:34:33Z</time>
      </trkpt>
      <trkpt lat="45.9772" lon="4.87328">
        <ele>286</ele>
        <time>2018-05-23T09:34:34Z</time>
      </trkpt>
      <trkpt lat="45.97715" lon="4.8732">
        <ele>286</ele>
        <time>2018-05-23T09:34:36Z</time>
      </trkpt>
      <trkpt lat="45.97711" lon="4.87315">
        <ele>286</ele>
        <time>2018-05-23T09:34:37Z</time>
      </trkpt>
      <trkpt lat="45.97705" lon="4.87306">
        <ele>286</ele>
        <time>2018-05-23T09:34:39Z</time>
      </trkpt>
      <trkpt lat="45.97702" lon="4.87303">
        <ele>286</ele>
        <time>2018-05-23T09:34:40Z</time>
      </trkpt>
      <trkpt lat="45.977" lon="4.87297">
        <ele>286</ele>
        <time>2018-05-23T09:34:41Z</time>
      </trkpt>
      <trkpt lat="45.97696" lon="4.87293">
        <ele>286</ele>
        <time>2018-05-23T09:34:42Z</time>
      </trkpt>
      <trkpt lat="45.97692" lon="4.87289">
        <ele>286</ele>
        <time>2018-05-23T09:34:43Z</time>
      </trkpt>
      <trkpt lat="45.97687" lon="4.87285">
        <ele>286</ele>
        <time>2018-05-23T09:34:44Z</time>
      </trkpt>
      <trkpt lat="45.9768" lon="4.87279">
        <ele>286</ele>
        <time>2018-05-23T09:34:46Z</time>
      </trkpt>
      <trkpt lat="45.97677" lon="4.87276">
        <ele>286</ele>
        <time>2018-05-23T09:34:47Z</time>
      </trkpt>
      <trkpt lat="45.97673" lon="4.87273">
        <ele>286</ele>
        <time>2018-05-23T09:34:48Z</time>
      </trkpt>
      <trkpt lat="45.97669" lon="4.87269">
        <ele>286</ele>
        <time>2018-05-23T09:34:49Z</time>
      </trkpt>
      <trkpt lat="45.97664" lon="4.87266">
        <ele>285</ele>
        <time>2018-05-23T09:34:50Z</time>
      </trkpt>
      <trkpt lat="45.9766" lon="4.87261">
        <ele>285</ele>
        <time>2018-05-23T09:34:51Z</time>
      </trkpt>
      <trkpt lat="45.97655" lon="4.87257">
        <ele>285</ele>
        <time>2018-05-23T09:34:52Z</time>
      </trkpt>
      <trkpt lat="45.97649" lon="4.87253">
        <ele>285</ele>
        <time>2018-05-23T09:34:53Z</time>
      </trkpt>
      <trkpt lat="45.97642" lon="4.87247">
        <ele>285</ele>
        <time>2018-05-23T09:34:54Z</time>
      </trkpt>
      <trkpt lat="45.97637" lon="4.87242">
        <ele>284</ele>
        <time>2018-05-23T09:34:55Z</time>
      </trkpt>
      <trkpt lat="45.97634" lon="4.87235">
        <ele>284</ele>
        <time>2018-05-23T09:34:56Z</time>
      </trkpt>
      <trkpt lat="45.97629" lon="4.87231">
        <ele>284</ele>
        <time>2018-05-23T09:34:57Z</time>
      </trkpt>
      <trkpt lat="45.97624" lon="4.87225">
        <ele>284</ele>
        <time>2018-05-23T09:34:58Z</time>
      </trkpt>
      <trkpt lat="45.97619" lon="4.87221">
        <ele>284</ele>
        <time>2018-05-23T09:34:59Z</time>
      </trkpt>
      <trkpt lat="45.97615" lon="4.87216">
        <ele>284</ele>
        <time>2018-05-23T09:35:00Z</time>
      </trkpt>
      <trkpt lat="45.97612" lon="4.87212">
        <ele>284</ele>
        <time>2018-05-23T09:35:01Z</time>
      </trkpt>
      <trkpt lat="45.97607" lon="4.87207">
        <ele>284</ele>
        <time>2018-05-23T09:35:02Z</time>
      </trkpt>
      <trkpt lat="45.97602" lon="4.87203">
        <ele>284</ele>
        <time>2018-05-23T09:35:03Z</time>
      </trkpt>
      <trkpt lat="45.97597" lon="4.87198">
        <ele>283</ele>
        <time>2018-05-23T09:35:04Z</time>
      </trkpt>
      <trkpt lat="45.97592" lon="4.87194">
        <ele>283</ele>
        <time>2018-05-23T09:35:05Z</time>
      </trkpt>
      <trkpt lat="45.97587" lon="4.8719">
        <ele>283</ele>
        <time>2018-05-23T09:35:06Z</time>
      </trkpt>
      <trkpt lat="45.97583" lon="4.87185">
        <ele>283</ele>
        <time>2018-05-23T09:35:07Z</time>
      </trkpt>
      <trkpt lat="45.97578" lon="4.8718">
        <ele>283</ele>
        <time>2018-05-23T09:35:08Z</time>
      </trkpt>
      <trkpt lat="45.97572" lon="4.87176">
        <ele>283</ele>
        <time>2018-05-23T09:35:09Z</time>
      </trkpt>
      <trkpt lat="45.97567" lon="4.87171">
        <ele>283</ele>
        <time>2018-05-23T09:35:10Z</time>
      </trkpt>
      <trkpt lat="45.97567" lon="4.87164">
        <ele>283</ele>
        <time>2018-05-23T09:35:11Z</time>
      </trkpt>
      <trkpt lat="45.97561" lon="4.87162">
        <ele>283</ele>
        <time>2018-05-23T09:35:12Z</time>
      </trkpt>
      <trkpt lat="45.97557" lon="4.87158">
        <ele>283</ele>
        <time>2018-05-23T09:35:13Z</time>
      </trkpt>
      <trkpt lat="45.97553" lon="4.87153">
        <ele>283</ele>
        <time>2018-05-23T09:35:14Z</time>
      </trkpt>
      <trkpt lat="45.97548" lon="4.87148">
        <ele>283</ele>
        <time>2018-05-23T09:35:15Z</time>
      </trkpt>
      <trkpt lat="45.97542" lon="4.87146">
        <ele>283</ele>
        <time>2018-05-23T09:35:16Z</time>
      </trkpt>
      <trkpt lat="45.97537" lon="4.87141">
        <ele>283</ele>
        <time>2018-05-23T09:35:17Z</time>
      </trkpt>
      <trkpt lat="45.97532" lon="4.87136">
        <ele>283</ele>
        <time>2018-05-23T09:35:18Z</time>
      </trkpt>
      <trkpt lat="45.97527" lon="4.87131">
        <ele>283</ele>
        <time>2018-05-23T09:35:19Z</time>
      </trkpt>
      <trkpt lat="45.97523" lon="4.87127">
        <ele>283</ele>
        <time>2018-05-23T09:35:20Z</time>
      </trkpt>
      <trkpt lat="45.97518" lon="4.87123">
        <ele>283</ele>
        <time>2018-05-23T09:35:21Z</time>
      </trkpt>
      <trkpt lat="45.97513" lon="4.87119">
        <ele>283</ele>
        <time>2018-05-23T09:35:22Z</time>
      </trkpt>
      <trkpt lat="45.97508" lon="4.87115">
        <ele>283</ele>
        <time>2018-05-23T09:35:23Z</time>
      </trkpt>
      <trkpt lat="45.97503" lon="4.8711">
        <ele>283</ele>
        <time>2018-05-23T09:35:24Z</time>
      </trkpt>
      <trkpt lat="45.97496" lon="4.87104">
        <ele>283</ele>
        <time>2018-05-23T09:35:25Z</time>
      </trkpt>
      <trkpt lat="45.97491" lon="4.87099">
        <ele>283</ele>
        <time>2018-05-23T09:35:26Z</time>
      </trkpt>
      <trkpt lat="45.97487" lon="4.87095">
        <ele>283</ele>
        <time>2018-05-23T09:35:27Z</time>
      </trkpt>
      <trkpt lat="45.97482" lon="4.87088">
        <ele>283</ele>
        <time>2018-05-23T09:35:28Z</time>
      </trkpt>
      <trkpt lat="45.97478" lon="4.87084">
        <ele>283</ele>
        <time>2018-05-23T09:35:29Z</time>
      </trkpt>
      <trkpt lat="45.97472" lon="4.87075">
        <ele>284</ele>
        <time>2018-05-23T09:35:31Z</time>
      </trkpt>
      <trkpt lat="45.97468" lon="4.87069">
        <ele>284</ele>
        <time>2018-05-23T09:35:32Z</time>
      </trkpt>
      <trkpt lat="45.97463" lon="4.87065">
        <ele>284</ele>
        <time>2018-05-23T09:35:33Z</time>
      </trkpt>
      <trkpt lat="45.97458" lon="4.8706">
        <ele>284</ele>
        <time>2018-05-23T09:35:34Z</time>
      </trkpt>
      <trkpt lat="45.97453" lon="4.87055">
        <ele>284</ele>
        <time>2018-05-23T09:35:35Z</time>
      </trkpt>
      <trkpt lat="45.97448" lon="4.87051">
        <ele>284</ele>
        <time>2018-05-23T09:35:36Z</time>
      </trkpt>
      <trkpt lat="45.97444" lon="4.87046">
        <ele>284</ele>
        <time>2018-05-23T09:35:37Z</time>
      </trkpt>
      <trkpt lat="45.9744" lon="4.87041">
        <ele>284</ele>
        <time>2018-05-23T09:35:38Z</time>
      </trkpt>
      <trkpt lat="45.97435" lon="4.87037">
        <ele>284</ele>
        <time>2018-05-23T09:35:39Z</time>
      </trkpt>
      <trkpt lat="45.97431" lon="4.87033">
        <ele>284</ele>
        <time>2018-05-23T09:35:40Z</time>
      </trkpt>
      <trkpt lat="45.97427" lon="4.87029">
        <ele>284</ele>
        <time>2018-05-23T09:35:41Z</time>
      </trkpt>
      <trkpt lat="45.97423" lon="4.87025">
        <ele>284</ele>
        <time>2018-05-23T09:35:42Z</time>
      </trkpt>
      <trkpt lat="45.97415" lon="4.87019">
        <ele>285</ele>
        <time>2018-05-23T09:35:44Z</time>
      </trkpt>
      <trkpt lat="45.9741" lon="4.87013">
        <ele>285</ele>
        <time>2018-05-23T09:35:45Z</time>
      </trkpt>
      <trkpt lat="45.97406" lon="4.87009">
        <ele>285</ele>
        <time>2018-05-23T09:35:46Z</time>
      </trkpt>
      <trkpt lat="45.97402" lon="4.87004">
        <ele>285</ele>
        <time>2018-05-23T09:35:47Z</time>
      </trkpt>
      <trkpt lat="45.97397" lon="4.87">
        <ele>285</ele>
        <time>2018-05-23T09:35:48Z</time>
      </trkpt>
      <trkpt lat="45.97394" lon="4.86996">
        <ele>285</ele>
        <time>2018-05-23T09:35:49Z</time>
      </trkpt>
      <trkpt lat="45.9739" lon="4.86992">
        <ele>285</ele>
        <time>2018-05-23T09:35:50Z</time>
      </trkpt>
      <trkpt lat="45.97386" lon="4.86988">
        <ele>285</ele>
        <time>2018-05-23T09:35:51Z</time>
      </trkpt>
      <trkpt lat="45.97385" lon="4.86986">
        <ele>285</ele>
        <time>2018-05-23T09:35:52Z</time>
      </trkpt>
      <trkpt lat="45.97379" lon="4.86979">
        <ele>285</ele>
        <time>2018-05-23T09:35:53Z</time>
      </trkpt>
      <trkpt lat="45.97374" lon="4.86976">
        <ele>285</ele>
        <time>2018-05-23T09:35:54Z</time>
      </trkpt>
      <trkpt lat="45.97369" lon="4.86972">
        <ele>285</ele>
        <time>2018-05-23T09:35:55Z</time>
      </trkpt>
      <trkpt lat="45.97366" lon="4.86968">
        <ele>285</ele>
        <time>2018-05-23T09:35:56Z</time>
      </trkpt>
      <trkpt lat="45.97362" lon="4.86962">
        <ele>285</ele>
        <time>2018-05-23T09:35:57Z</time>
      </trkpt>
      <trkpt lat="45.97356" lon="4.86955">
        <ele>284</ele>
        <time>2018-05-23T09:35:58Z</time>
      </trkpt>
      <trkpt lat="45.97352" lon="4.86951">
        <ele>284</ele>
        <time>2018-05-23T09:35:59Z</time>
      </trkpt>
      <trkpt lat="45.97347" lon="4.86946">
        <ele>284</ele>
        <time>2018-05-23T09:36:00Z</time>
      </trkpt>
      <trkpt lat="45.97343" lon="4.86942">
        <ele>284</ele>
        <time>2018-05-23T09:36:01Z</time>
      </trkpt>
      <trkpt lat="45.9734" lon="4.86936">
        <ele>284</ele>
        <time>2018-05-23T09:36:02Z</time>
      </trkpt>
      <trkpt lat="45.97335" lon="4.86931">
        <ele>284</ele>
        <time>2018-05-23T09:36:03Z</time>
      </trkpt>
      <trkpt lat="45.97332" lon="4.86926">
        <ele>284</ele>
        <time>2018-05-23T09:36:04Z</time>
      </trkpt>
      <trkpt lat="45.97328" lon="4.86921">
        <ele>284</ele>
        <time>2018-05-23T09:36:05Z</time>
      </trkpt>
      <trkpt lat="45.97325" lon="4.86915">
        <ele>284</ele>
        <time>2018-05-23T09:36:06Z</time>
      </trkpt>
      <trkpt lat="45.97322" lon="4.8691">
        <ele>284</ele>
        <time>2018-05-23T09:36:07Z</time>
      </trkpt>
      <trkpt lat="45.97318" lon="4.86904">
        <ele>284</ele>
        <time>2018-05-23T09:36:08Z</time>
      </trkpt>
      <trkpt lat="45.97315" lon="4.86897">
        <ele>284</ele>
        <time>2018-05-23T09:36:09Z</time>
      </trkpt>
      <trkpt lat="45.9731" lon="4.86891">
        <ele>284</ele>
        <time>2018-05-23T09:36:10Z</time>
      </trkpt>
      <trkpt lat="45.97306" lon="4.86886">
        <ele>284</ele>
        <time>2018-05-23T09:36:11Z</time>
      </trkpt>
      <trkpt lat="45.97301" lon="4.8688">
        <ele>284</ele>
        <time>2018-05-23T09:36:12Z</time>
      </trkpt>
      <trkpt lat="45.97296" lon="4.86875">
        <ele>284</ele>
        <time>2018-05-23T09:36:13Z</time>
      </trkpt>
      <trkpt lat="45.97293" lon="4.86869">
        <ele>284</ele>
        <time>2018-05-23T09:36:14Z</time>
      </trkpt>
      <trkpt lat="45.97289" lon="4.86863">
        <ele>285</ele>
        <time>2018-05-23T09:36:15Z</time>
      </trkpt>
      <trkpt lat="45.97284" lon="4.86857">
        <ele>285</ele>
        <time>2018-05-23T09:36:16Z</time>
      </trkpt>
      <trkpt lat="45.97281" lon="4.86852">
        <ele>285</ele>
        <time>2018-05-23T09:36:17Z</time>
      </trkpt>
      <trkpt lat="45.97277" lon="4.86846">
        <ele>285</ele>
        <time>2018-05-23T09:36:18Z</time>
      </trkpt>
      <trkpt lat="45.97274" lon="4.8684">
        <ele>285</ele>
        <time>2018-05-23T09:36:19Z</time>
      </trkpt>
      <trkpt lat="45.9727" lon="4.86834">
        <ele>285</ele>
        <time>2018-05-23T09:36:20Z</time>
      </trkpt>
      <trkpt lat="45.97267" lon="4.86828">
        <ele>285</ele>
        <time>2018-05-23T09:36:21Z</time>
      </trkpt>
      <trkpt lat="45.97264" lon="4.86823">
        <ele>285</ele>
        <time>2018-05-23T09:36:22Z</time>
      </trkpt>
      <trkpt lat="45.9726" lon="4.86816">
        <ele>285</ele>
        <time>2018-05-23T09:36:23Z</time>
      </trkpt>
      <trkpt lat="45.97256" lon="4.86811">
        <ele>285</ele>
        <time>2018-05-23T09:36:24Z</time>
      </trkpt>
      <trkpt lat="45.97252" lon="4.86806">
        <ele>285</ele>
        <time>2018-05-23T09:36:25Z</time>
      </trkpt>
      <trkpt lat="45.97248" lon="4.86801">
        <ele>284</ele>
        <time>2018-05-23T09:36:26Z</time>
      </trkpt>
      <trkpt lat="45.97244" lon="4.86798">
        <ele>284</ele>
        <time>2018-05-23T09:36:27Z</time>
      </trkpt>
      <trkpt lat="45.9724" lon="4.86794">
        <ele>284</ele>
        <time>2018-05-23T09:36:28Z</time>
      </trkpt>
      <trkpt lat="45.97235" lon="4.86791">
        <ele>284</ele>
        <time>2018-05-23T09:36:29Z</time>
      </trkpt>
      <trkpt lat="45.97229" lon="4.86788">
        <ele>284</ele>
        <time>2018-05-23T09:36:30Z</time>
      </trkpt>
      <trkpt lat="45.97224" lon="4.86788">
        <ele>284</ele>
        <time>2018-05-23T09:36:31Z</time>
      </trkpt>
      <trkpt lat="45.97218" lon="4.86788">
        <ele>284</ele>
        <time>2018-05-23T09:36:32Z</time>
      </trkpt>
      <trkpt lat="45.97213" lon="4.86789">
        <ele>284</ele>
        <time>2018-05-23T09:36:33Z</time>
      </trkpt>
      <trkpt lat="45.97207" lon="4.8679">
        <ele>284</ele>
        <time>2018-05-23T09:36:34Z</time>
      </trkpt>
      <trkpt lat="45.97202" lon="4.86793">
        <ele>284</ele>
        <time>2018-05-23T09:36:35Z</time>
      </trkpt>
      <trkpt lat="45.97196" lon="4.86795">
        <ele>284</ele>
        <time>2018-05-23T09:36:36Z</time>
      </trkpt>
      <trkpt lat="45.97191" lon="4.86797">
        <ele>284</ele>
        <time>2018-05-23T09:36:37Z</time>
      </trkpt>
      <trkpt lat="45.97185" lon="4.868">
        <ele>284</ele>
        <time>2018-05-23T09:36:38Z</time>
      </trkpt>
      <trkpt lat="45.9718" lon="4.86802">
        <ele>284</ele>
        <time>2018-05-23T09:36:39Z</time>
      </trkpt>
      <trkpt lat="45.97174" lon="4.86805">
        <ele>283</ele>
        <time>2018-05-23T09:36:40Z</time>
      </trkpt>
      <trkpt lat="45.97168" lon="4.86807">
        <ele>283</ele>
        <time>2018-05-23T09:36:41Z</time>
      </trkpt>
      <trkpt lat="45.97162" lon="4.86811">
        <ele>283</ele>
        <time>2018-05-23T09:36:42Z</time>
      </trkpt>
      <trkpt lat="45.97156" lon="4.86813">
        <ele>283</ele>
        <time>2018-05-23T09:36:43Z</time>
      </trkpt>
      <trkpt lat="45.9715" lon="4.86815">
        <ele>283</ele>
        <time>2018-05-23T09:36:44Z</time>
      </trkpt>
      <trkpt lat="45.97144" lon="4.86818">
        <ele>283</ele>
        <time>2018-05-23T09:36:45Z</time>
      </trkpt>
      <trkpt lat="45.9714" lon="4.86823">
        <ele>283</ele>
        <time>2018-05-23T09:36:46Z</time>
      </trkpt>
      <trkpt lat="45.97134" lon="4.86825">
        <ele>283</ele>
        <time>2018-05-23T09:36:47Z</time>
      </trkpt>
      <trkpt lat="45.97127" lon="4.86828">
        <ele>283</ele>
        <time>2018-05-23T09:36:48Z</time>
      </trkpt>
      <trkpt lat="45.97121" lon="4.8683">
        <ele>283</ele>
        <time>2018-05-23T09:36:49Z</time>
      </trkpt>
      <trkpt lat="45.97115" lon="4.86832">
        <ele>283</ele>
        <time>2018-05-23T09:36:50Z</time>
      </trkpt>
      <trkpt lat="45.97109" lon="4.86834">
        <ele>284</ele>
        <time>2018-05-23T09:36:51Z</time>
      </trkpt>
      <trkpt lat="45.97103" lon="4.86836">
        <ele>284</ele>
        <time>2018-05-23T09:36:52Z</time>
      </trkpt>
      <trkpt lat="45.97097" lon="4.86837">
        <ele>284</ele>
        <time>2018-05-23T09:36:53Z</time>
      </trkpt>
      <trkpt lat="45.9709" lon="4.86838">
        <ele>284</ele>
        <time>2018-05-23T09:36:54Z</time>
      </trkpt>
      <trkpt lat="45.97084" lon="4.86838">
        <ele>284</ele>
        <time>2018-05-23T09:36:55Z</time>
      </trkpt>
      <trkpt lat="45.97077" lon="4.86839">
        <ele>284</ele>
        <time>2018-05-23T09:36:56Z</time>
      </trkpt>
      <trkpt lat="45.97072" lon="4.8684">
        <ele>284</ele>
        <time>2018-05-23T09:36:57Z</time>
      </trkpt>
      <trkpt lat="45.97065" lon="4.86841">
        <ele>284</ele>
        <time>2018-05-23T09:36:58Z</time>
      </trkpt>
      <trkpt lat="45.9706" lon="4.86842">
        <ele>284</ele>
        <time>2018-05-23T09:36:59Z</time>
      </trkpt>
      <trkpt lat="45.97054" lon="4.86843">
        <ele>285</ele>
        <time>2018-05-23T09:37:00Z</time>
      </trkpt>
      <trkpt lat="45.97048" lon="4.86843">
        <ele>285</ele>
        <time>2018-05-23T09:37:01Z</time>
      </trkpt>
      <trkpt lat="45.97042" lon="4.86843">
        <ele>285</ele>
        <time>2018-05-23T09:37:02Z</time>
      </trkpt>
      <trkpt lat="45.97037" lon="4.86844">
        <ele>285</ele>
        <time>2018-05-23T09:37:03Z</time>
      </trkpt>
      <trkpt lat="45.97032" lon="4.86844">
        <ele>285</ele>
        <time>2018-05-23T09:37:04Z</time>
      </trkpt>
      <trkpt lat="45.97027" lon="4.86845">
        <ele>285</ele>
        <time>2018-05-23T09:37:05Z</time>
      </trkpt>
      <trkpt lat="45.97021" lon="4.86845">
        <ele>285</ele>
        <time>2018-05-23T09:37:06Z</time>
      </trkpt>
      <trkpt lat="45.97015" lon="4.86846">
        <ele>285</ele>
        <time>2018-05-23T09:37:07Z</time>
      </trkpt>
      <trkpt lat="45.9701" lon="4.86848">
        <ele>285</ele>
        <time>2018-05-23T09:37:08Z</time>
      </trkpt>
      <trkpt lat="45.97004" lon="4.86848">
        <ele>285</ele>
        <time>2018-05-23T09:37:09Z</time>
      </trkpt>
      <trkpt lat="45.96999" lon="4.86848">
        <ele>286</ele>
        <time>2018-05-23T09:37:10Z</time>
      </trkpt>
      <trkpt lat="45.96994" lon="4.86848">
        <ele>286</ele>
        <time>2018-05-23T09:37:11Z</time>
      </trkpt>
      <trkpt lat="45.96989" lon="4.86847">
        <ele>286</ele>
        <time>2018-05-23T09:37:12Z</time>
      </trkpt>
      <trkpt lat="45.96985" lon="4.86846">
        <ele>286</ele>
        <time>2018-05-23T09:37:13Z</time>
      </trkpt>
      <trkpt lat="45.96979" lon="4.86844">
        <ele>286</ele>
        <time>2018-05-23T09:37:14Z</time>
      </trkpt>
      <trkpt lat="45.96975" lon="4.86842">
        <ele>286</ele>
        <time>2018-05-23T09:37:15Z</time>
      </trkpt>
      <trkpt lat="45.9697" lon="4.86839">
        <ele>286</ele>
        <time>2018-05-23T09:37:16Z</time>
      </trkpt>
      <trkpt lat="45.96965" lon="4.86837">
        <ele>286</ele>
        <time>2018-05-23T09:37:17Z</time>
      </trkpt>
      <trkpt lat="45.96957" lon="4.86833">
        <ele>287</ele>
        <time>2018-05-23T09:37:19Z</time>
      </trkpt>
      <trkpt lat="45.96954" lon="4.86831">
        <ele>286</ele>
        <time>2018-05-23T09:37:20Z</time>
      </trkpt>
      <trkpt lat="45.9695" lon="4.86827">
        <ele>287</ele>
        <time>2018-05-23T09:37:21Z</time>
      </trkpt>
      <trkpt lat="45.96945" lon="4.86825">
        <ele>287</ele>
        <time>2018-05-23T09:37:22Z</time>
      </trkpt>
      <trkpt lat="45.96941" lon="4.86821">
        <ele>287</ele>
        <time>2018-05-23T09:37:23Z</time>
      </trkpt>
      <trkpt lat="45.96936" lon="4.86819">
        <ele>287</ele>
        <time>2018-05-23T09:37:24Z</time>
      </trkpt>
      <trkpt lat="45.96928" lon="4.86813">
        <ele>287</ele>
        <time>2018-05-23T09:37:26Z</time>
      </trkpt>
      <trkpt lat="45.96924" lon="4.86811">
        <ele>287</ele>
        <time>2018-05-23T09:37:27Z</time>
      </trkpt>
      <trkpt lat="45.96917" lon="4.86807">
        <ele>287</ele>
        <time>2018-05-23T09:37:29Z</time>
      </trkpt>
      <trkpt lat="45.96916" lon="4.86806">
        <ele>288</ele>
        <time>2018-05-23T09:37:30Z</time>
      </trkpt>
      <trkpt lat="45.9691" lon="4.86801">
        <ele>288</ele>
        <time>2018-05-23T09:37:33Z</time>
      </trkpt>
      <trkpt lat="45.96908" lon="4.86799">
        <ele>288</ele>
        <time>2018-05-23T09:37:34Z</time>
      </trkpt>
      <trkpt lat="45.96902" lon="4.86795">
        <ele>289</ele>
        <time>2018-05-23T09:37:36Z</time>
      </trkpt>
      <trkpt lat="45.96899" lon="4.86793">
        <ele>289</ele>
        <time>2018-05-23T09:37:37Z</time>
      </trkpt>
      <trkpt lat="45.96894" lon="4.86788">
        <ele>289</ele>
        <time>2018-05-23T09:37:39Z</time>
      </trkpt>
      <trkpt lat="45.96891" lon="4.86786">
        <ele>289</ele>
        <time>2018-05-23T09:37:40Z</time>
      </trkpt>
      <trkpt lat="45.96885" lon="4.8678">
        <ele>289</ele>
        <time>2018-05-23T09:37:42Z</time>
      </trkpt>
      <trkpt lat="45.96877" lon="4.8677">
        <ele>289</ele>
        <time>2018-05-23T09:37:43Z</time>
      </trkpt>
      <trkpt lat="45.96874" lon="4.86766">
        <ele>289</ele>
        <time>2018-05-23T09:37:45Z</time>
      </trkpt>
      <trkpt lat="45.96869" lon="4.86761">
        <ele>289</ele>
        <time>2018-05-23T09:37:46Z</time>
      </trkpt>
      <trkpt lat="45.96863" lon="4.86756">
        <ele>289</ele>
        <time>2018-05-23T09:37:49Z</time>
      </trkpt>
      <trkpt lat="45.96861" lon="4.86754">
        <ele>289</ele>
        <time>2018-05-23T09:37:50Z</time>
      </trkpt>
      <trkpt lat="45.96854" lon="4.86747">
        <ele>288</ele>
        <time>2018-05-23T09:37:51Z</time>
      </trkpt>
      <trkpt lat="45.96851" lon="4.86744">
        <ele>288</ele>
        <time>2018-05-23T09:37:52Z</time>
      </trkpt>
      <trkpt lat="45.96845" lon="4.86738">
        <ele>289</ele>
        <time>2018-05-23T09:37:54Z</time>
      </trkpt>
      <trkpt lat="45.96842" lon="4.86735">
        <ele>289</ele>
        <time>2018-05-23T09:37:55Z</time>
      </trkpt>
      <trkpt lat="45.96835" lon="4.86728">
        <ele>288</ele>
        <time>2018-05-23T09:37:57Z</time>
      </trkpt>
      <trkpt lat="45.96831" lon="4.86725">
        <ele>289</ele>
        <time>2018-05-23T09:37:58Z</time>
      </trkpt>
      <trkpt lat="45.96824" lon="4.86719">
        <ele>289</ele>
        <time>2018-05-23T09:38:00Z</time>
      </trkpt>
      <trkpt lat="45.9682" lon="4.86716">
        <ele>289</ele>
        <time>2018-05-23T09:38:01Z</time>
      </trkpt>
      <trkpt lat="45.96813" lon="4.8671">
        <ele>289</ele>
        <time>2018-05-23T09:38:03Z</time>
      </trkpt>
      <trkpt lat="45.96809" lon="4.86707">
        <ele>289</ele>
        <time>2018-05-23T09:38:04Z</time>
      </trkpt>
      <trkpt lat="45.96802" lon="4.86699">
        <ele>289</ele>
        <time>2018-05-23T09:38:06Z</time>
      </trkpt>
      <trkpt lat="45.96799" lon="4.86696">
        <ele>289</ele>
        <time>2018-05-23T09:38:07Z</time>
      </trkpt>
      <trkpt lat="45.96792" lon="4.86689">
        <ele>289</ele>
        <time>2018-05-23T09:38:09Z</time>
      </trkpt>
      <trkpt lat="45.96789" lon="4.86685">
        <ele>289</ele>
        <time>2018-05-23T09:38:10Z</time>
      </trkpt>
      <trkpt lat="45.96782" lon="4.86677">
        <ele>289</ele>
        <time>2018-05-23T09:38:12Z</time>
      </trkpt>
      <trkpt lat="45.96779" lon="4.86673">
        <ele>289</ele>
        <time>2018-05-23T09:38:13Z</time>
      </trkpt>
      <trkpt lat="45.96772" lon="4.86666">
        <ele>289</ele>
        <time>2018-05-23T09:38:15Z</time>
      </trkpt>
      <trkpt lat="45.96769" lon="4.86661">
        <ele>290</ele>
        <time>2018-05-23T09:38:16Z</time>
      </trkpt>
      <trkpt lat="45.96764" lon="4.86652">
        <ele>290</ele>
        <time>2018-05-23T09:38:18Z</time>
      </trkpt>
      <trkpt lat="45.96762" lon="4.86647">
        <ele>290</ele>
        <time>2018-05-23T09:38:19Z</time>
      </trkpt>
      <trkpt lat="45.96755" lon="4.8664">
        <ele>290</ele>
        <time>2018-05-23T09:38:21Z</time>
      </trkpt>
      <trkpt lat="45.96751" lon="4.86639">
        <ele>290</ele>
        <time>2018-05-23T09:38:22Z</time>
      </trkpt>
      <trkpt lat="45.96746" lon="4.8664">
        <ele>290</ele>
        <time>2018-05-23T09:38:23Z</time>
      </trkpt>
      <trkpt lat="45.96744" lon="4.86652">
        <ele>290</ele>
        <time>2018-05-23T09:38:24Z</time>
      </trkpt>
      <trkpt lat="45.96739" lon="4.86662">
        <ele>290</ele>
        <time>2018-05-23T09:38:26Z</time>
      </trkpt>
      <trkpt lat="45.96736" lon="4.86667">
        <ele>290</ele>
        <time>2018-05-23T09:38:27Z</time>
      </trkpt>
      <trkpt lat="45.96733" lon="4.86672">
        <ele>290</ele>
        <time>2018-05-23T09:38:28Z</time>
      </trkpt>
      <trkpt lat="45.9673" lon="4.86677">
        <ele>289</ele>
        <time>2018-05-23T09:38:29Z</time>
      </trkpt>
      <trkpt lat="45.96726" lon="4.86682">
        <ele>289</ele>
        <time>2018-05-23T09:38:30Z</time>
      </trkpt>
      <trkpt lat="45.96723" lon="4.86687">
        <ele>289</ele>
        <time>2018-05-23T09:38:31Z</time>
      </trkpt>
      <trkpt lat="45.9672" lon="4.86691">
        <ele>289</ele>
        <time>2018-05-23T09:38:32Z</time>
      </trkpt>
      <trkpt lat="45.96717" lon="4.86697">
        <ele>289</ele>
        <time>2018-05-23T09:38:33Z</time>
      </trkpt>
      <trkpt lat="45.96714" lon="4.86702">
        <ele>289</ele>
        <time>2018-05-23T09:38:34Z</time>
      </trkpt>
      <trkpt lat="45.96711" lon="4.86706">
        <ele>289</ele>
        <time>2018-05-23T09:38:35Z</time>
      </trkpt>
      <trkpt lat="45.96707" lon="4.86712">
        <ele>289</ele>
        <time>2018-05-23T09:38:36Z</time>
      </trkpt>
      <trkpt lat="45.96704" lon="4.86718">
        <ele>289</ele>
        <time>2018-05-23T09:38:37Z</time>
      </trkpt>
      <trkpt lat="45.967" lon="4.86723">
        <ele>289</ele>
        <time>2018-05-23T09:38:38Z</time>
      </trkpt>
      <trkpt lat="45.96696" lon="4.86729">
        <ele>289</ele>
        <time>2018-05-23T09:38:39Z</time>
      </trkpt>
      <trkpt lat="45.96693" lon="4.86735">
        <ele>289</ele>
        <time>2018-05-23T09:38:40Z</time>
      </trkpt>
      <trkpt lat="45.96689" lon="4.86741">
        <ele>289</ele>
        <time>2018-05-23T09:38:41Z</time>
      </trkpt>
      <trkpt lat="45.96685" lon="4.86747">
        <ele>289</ele>
        <time>2018-05-23T09:38:42Z</time>
      </trkpt>
      <trkpt lat="45.96682" lon="4.86754">
        <ele>289</ele>
        <time>2018-05-23T09:38:43Z</time>
      </trkpt>
      <trkpt lat="45.96678" lon="4.86759">
        <ele>289</ele>
        <time>2018-05-23T09:38:44Z</time>
      </trkpt>
      <trkpt lat="45.96675" lon="4.86765">
        <ele>289</ele>
        <time>2018-05-23T09:38:45Z</time>
      </trkpt>
      <trkpt lat="45.96671" lon="4.86771">
        <ele>289</ele>
        <time>2018-05-23T09:38:46Z</time>
      </trkpt>
      <trkpt lat="45.96668" lon="4.86777">
        <ele>289</ele>
        <time>2018-05-23T09:38:47Z</time>
      </trkpt>
      <trkpt lat="45.96665" lon="4.86783">
        <ele>288</ele>
        <time>2018-05-23T09:38:48Z</time>
      </trkpt>
      <trkpt lat="45.96662" lon="4.86791">
        <ele>288</ele>
        <time>2018-05-23T09:38:49Z</time>
      </trkpt>
      <trkpt lat="45.96659" lon="4.86796">
        <ele>288</ele>
        <time>2018-05-23T09:38:50Z</time>
      </trkpt>
      <trkpt lat="45.96656" lon="4.86801">
        <ele>288</ele>
        <time>2018-05-23T09:38:51Z</time>
      </trkpt>
      <trkpt lat="45.96653" lon="4.86808">
        <ele>288</ele>
        <time>2018-05-23T09:38:52Z</time>
      </trkpt>
      <trkpt lat="45.9665" lon="4.86813">
        <ele>288</ele>
        <time>2018-05-23T09:38:53Z</time>
      </trkpt>
      <trkpt lat="45.96645" lon="4.86824">
        <ele>288</ele>
        <time>2018-05-23T09:38:55Z</time>
      </trkpt>
      <trkpt lat="45.96642" lon="4.8683">
        <ele>288</ele>
        <time>2018-05-23T09:38:56Z</time>
      </trkpt>
      <trkpt lat="45.96639" lon="4.86835">
        <ele>287</ele>
        <time>2018-05-23T09:38:57Z</time>
      </trkpt>
      <trkpt lat="45.96636" lon="4.8684">
        <ele>287</ele>
        <time>2018-05-23T09:38:58Z</time>
      </trkpt>
      <trkpt lat="45.96633" lon="4.86846">
        <ele>287</ele>
        <time>2018-05-23T09:38:59Z</time>
      </trkpt>
      <trkpt lat="45.9663" lon="4.86851">
        <ele>287</ele>
        <time>2018-05-23T09:39:00Z</time>
      </trkpt>
      <trkpt lat="45.96623" lon="4.86858">
        <ele>287</ele>
        <time>2018-05-23T09:39:02Z</time>
      </trkpt>
      <trkpt lat="45.9662" lon="4.86863">
        <ele>287</ele>
        <time>2018-05-23T09:39:03Z</time>
      </trkpt>
      <trkpt lat="45.96617" lon="4.86869">
        <ele>287</ele>
        <time>2018-05-23T09:39:04Z</time>
      </trkpt>
      <trkpt lat="45.96615" lon="4.86874">
        <ele>287</ele>
        <time>2018-05-23T09:39:05Z</time>
      </trkpt>
      <trkpt lat="45.96612" lon="4.86878">
        <ele>287</ele>
        <time>2018-05-23T09:39:06Z</time>
      </trkpt>
      <trkpt lat="45.96608" lon="4.86883">
        <ele>287</ele>
        <time>2018-05-23T09:39:07Z</time>
      </trkpt>
      <trkpt lat="45.96605" lon="4.86891">
        <ele>287</ele>
        <time>2018-05-23T09:39:08Z</time>
      </trkpt>
      <trkpt lat="45.96602" lon="4.86896">
        <ele>286</ele>
        <time>2018-05-23T09:39:09Z</time>
      </trkpt>
      <trkpt lat="45.96599" lon="4.86901">
        <ele>286</ele>
        <time>2018-05-23T09:39:10Z</time>
      </trkpt>
      <trkpt lat="45.96596" lon="4.86906">
        <ele>286</ele>
        <time>2018-05-23T09:39:11Z</time>
      </trkpt>
      <trkpt lat="45.96592" lon="4.86912">
        <ele>286</ele>
        <time>2018-05-23T09:39:12Z</time>
      </trkpt>
      <trkpt lat="45.96589" lon="4.86918">
        <ele>285</ele>
        <time>2018-05-23T09:39:13Z</time>
      </trkpt>
      <trkpt lat="45.96584" lon="4.86922">
        <ele>285</ele>
        <time>2018-05-23T09:39:14Z</time>
      </trkpt>
      <trkpt lat="45.96581" lon="4.86928">
        <ele>284</ele>
        <time>2018-05-23T09:39:15Z</time>
      </trkpt>
      <trkpt lat="45.96577" lon="4.86934">
        <ele>284</ele>
        <time>2018-05-23T09:39:16Z</time>
      </trkpt>
      <trkpt lat="45.96573" lon="4.86941">
        <ele>284</ele>
        <time>2018-05-23T09:39:17Z</time>
      </trkpt>
      <trkpt lat="45.96569" lon="4.86947">
        <ele>284</ele>
        <time>2018-05-23T09:39:18Z</time>
      </trkpt>
      <trkpt lat="45.96566" lon="4.86954">
        <ele>284</ele>
        <time>2018-05-23T09:39:19Z</time>
      </trkpt>
      <trkpt lat="45.96563" lon="4.8696">
        <ele>283</ele>
        <time>2018-05-23T09:39:20Z</time>
      </trkpt>
      <trkpt lat="45.96559" lon="4.86965">
        <ele>283</ele>
        <time>2018-05-23T09:39:21Z</time>
      </trkpt>
      <trkpt lat="45.96553" lon="4.86975">
        <ele>283</ele>
        <time>2018-05-23T09:39:23Z</time>
      </trkpt>
      <trkpt lat="45.96552" lon="4.86976">
        <ele>283</ele>
        <time>2018-05-23T09:39:24Z</time>
      </trkpt>
      <trkpt lat="45.96547" lon="4.86983">
        <ele>283</ele>
        <time>2018-05-23T09:39:27Z</time>
      </trkpt>
      <trkpt lat="45.96545" lon="4.86986">
        <ele>283</ele>
        <time>2018-05-23T09:39:28Z</time>
      </trkpt>
      <trkpt lat="45.96542" lon="4.86997">
        <ele>283</ele>
        <time>2018-05-23T09:39:31Z</time>
      </trkpt>
      <trkpt lat="45.96541" lon="4.87002">
        <ele>283</ele>
        <time>2018-05-23T09:39:32Z</time>
      </trkpt>
      <trkpt lat="45.96538" lon="4.87013">
        <ele>283</ele>
        <time>2018-05-23T09:39:37Z</time>
      </trkpt>
      <trkpt lat="45.96537" lon="4.87014">
        <ele>283</ele>
        <time>2018-05-23T09:39:38Z</time>
      </trkpt>
      <trkpt lat="45.9653" lon="4.87014">
        <ele>283</ele>
        <time>2018-05-23T09:39:44Z</time>
      </trkpt>
      <trkpt lat="45.96529" lon="4.87013">
        <ele>283</ele>
        <time>2018-05-23T09:39:45Z</time>
      </trkpt>
      <trkpt lat="45.9653" lon="4.87016">
        <ele>283</ele>
        <time>2018-05-23T09:39:52Z</time>
      </trkpt>
      <trkpt lat="45.9653" lon="4.87016">
        <ele>283</ele>
        <time>2018-05-23T09:39:53Z</time>
      </trkpt>
      <trkpt lat="45.9653" lon="4.87025">
        <ele>283</ele>
        <time>2018-05-23T09:45:44Z</time>
      </trkpt>
      <trkpt lat="45.9653" lon="4.87026">
        <ele>283</ele>
        <time>2018-05-23T09:45:45Z</time>
      </trkpt>
      <trkpt lat="45.96529" lon="4.87026">
        <ele>283</ele>
        <time>2018-05-23T09:45:46Z</time>
      </trkpt>
      <trkpt lat="45.96538" lon="4.87024">
        <ele>283</ele>
        <time>2018-05-23T09:49:35Z</time>
      </trkpt>
      <trkpt lat="45.96539" lon="4.87023">
        <ele>283</ele>
        <time>2018-05-23T09:49:36Z</time>
      </trkpt>
      <trkpt lat="45.96548" lon="4.87025">
        <ele>283</ele>
        <time>2018-05-23T09:49:41Z</time>
      </trkpt>
      <trkpt lat="45.9655" lon="4.87026">
        <ele>283</ele>
        <time>2018-05-23T09:49:42Z</time>
      </trkpt>
      <trkpt lat="45.96555" lon="4.87034">
        <ele>283</ele>
        <time>2018-05-23T09:49:46Z</time>
      </trkpt>
      <trkpt lat="45.96556" lon="4.87038">
        <ele>283</ele>
        <time>2018-05-23T09:49:47Z</time>
      </trkpt>
      <trkpt lat="45.96557" lon="4.87049">
        <ele>283</ele>
        <time>2018-05-23T09:49:50Z</time>
      </trkpt>
      <trkpt lat="45.96557" lon="4.87052">
        <ele>283</ele>
        <time>2018-05-23T09:49:51Z</time>
      </trkpt>
      <trkpt lat="45.96555" lon="4.87065">
        <ele>283</ele>
        <time>2018-05-23T09:49:55Z</time>
      </trkpt>
      <trkpt lat="45.96554" lon="4.87067">
        <ele>283</ele>
        <time>2018-05-23T09:49:56Z</time>
      </trkpt>
      <trkpt lat="45.96545" lon="4.87072">
        <ele>283</ele>
        <time>2018-05-23T09:50:02Z</time>
      </trkpt>
      <trkpt lat="45.96545" lon="4.87071">
        <ele>283</ele>
        <time>2018-05-23T09:50:03Z</time>
      </trkpt>
      <trkpt lat="45.96541" lon="4.87062">
        <ele>283</ele>
        <time>2018-05-23T09:50:05Z</time>
      </trkpt>
      <trkpt lat="45.9654" lon="4.87055">
        <ele>283</ele>
        <time>2018-05-23T09:50:06Z</time>
      </trkpt>
      <trkpt lat="45.96539" lon="4.87045">
        <ele>283</ele>
        <time>2018-05-23T09:50:09Z</time>
      </trkpt>
      <trkpt lat="45.96539" lon="4.87041">
        <ele>283</ele>
        <time>2018-05-23T09:50:10Z</time>
      </trkpt>
      <trkpt lat="45.96541" lon="4.87029">
        <ele>283</ele>
        <time>2018-05-23T09:50:13Z</time>
      </trkpt>
      <trkpt lat="45.96543" lon="4.87016">
        <ele>283</ele>
        <time>2018-05-23T09:50:14Z</time>
      </trkpt>
      <trkpt lat="45.96545" lon="4.87006">
        <ele>283</ele>
        <time>2018-05-23T09:50:16Z</time>
      </trkpt>
      <trkpt lat="45.96546" lon="4.87003">
        <ele>283</ele>
        <time>2018-05-23T09:50:17Z</time>
      </trkpt>
      <trkpt lat="45.96546" lon="4.86996">
        <ele>283</ele>
        <time>2018-05-23T09:50:19Z</time>
      </trkpt>
      <trkpt lat="45.96547" lon="4.86987">
        <ele>283</ele>
        <time>2018-05-23T09:50:20Z</time>
      </trkpt>
      <trkpt lat="45.9655" lon="4.86982">
        <ele>283</ele>
        <time>2018-05-23T09:50:22Z</time>
      </trkpt>
      <trkpt lat="45.96555" lon="4.86977">
        <ele>283</ele>
        <time>2018-05-23T09:50:23Z</time>
      </trkpt>
      <trkpt lat="45.9656" lon="4.86968">
        <ele>283</ele>
        <time>2018-05-23T09:50:27Z</time>
      </trkpt>
      <trkpt lat="45.96561" lon="4.86966">
        <ele>283</ele>
        <time>2018-05-23T09:50:28Z</time>
      </trkpt>
      <trkpt lat="45.96566" lon="4.86957">
        <ele>284</ele>
        <time>2018-05-23T09:50:29Z</time>
      </trkpt>
      <trkpt lat="45.96567" lon="4.86955">
        <ele>284</ele>
        <time>2018-05-23T09:50:30Z</time>
      </trkpt>
      <trkpt lat="45.96573" lon="4.86945">
        <ele>284</ele>
        <time>2018-05-23T09:50:32Z</time>
      </trkpt>
      <trkpt lat="45.96574" lon="4.86943">
        <ele>284</ele>
        <time>2018-05-23T09:50:33Z</time>
      </trkpt>
      <trkpt lat="45.96579" lon="4.86935">
        <ele>284</ele>
        <time>2018-05-23T09:50:36Z</time>
      </trkpt>
      <trkpt lat="45.96581" lon="4.86932">
        <ele>284</ele>
        <time>2018-05-23T09:50:37Z</time>
      </trkpt>
      <trkpt lat="45.96583" lon="4.86928">
        <ele>284</ele>
        <time>2018-05-23T09:50:38Z</time>
      </trkpt>
      <trkpt lat="45.9659" lon="4.86917">
        <ele>285</ele>
        <time>2018-05-23T09:50:39Z</time>
      </trkpt>
      <trkpt lat="45.96595" lon="4.86907">
        <ele>286</ele>
        <time>2018-05-23T09:50:41Z</time>
      </trkpt>
      <trkpt lat="45.96598" lon="4.86902">
        <ele>286</ele>
        <time>2018-05-23T09:50:42Z</time>
      </trkpt>
      <trkpt lat="45.96604" lon="4.86892">
        <ele>287</ele>
        <time>2018-05-23T09:50:46Z</time>
      </trkpt>
      <trkpt lat="45.96605" lon="4.86889">
        <ele>287</ele>
        <time>2018-05-23T09:50:47Z</time>
      </trkpt>
      <trkpt lat="45.96611" lon="4.86881">
        <ele>287</ele>
        <time>2018-05-23T09:50:48Z</time>
      </trkpt>
      <trkpt lat="45.96613" lon="4.86877">
        <ele>287</ele>
        <time>2018-05-23T09:50:49Z</time>
      </trkpt>
      <trkpt lat="45.96618" lon="4.86869">
        <ele>287</ele>
        <time>2018-05-23T09:50:52Z</time>
      </trkpt>
      <trkpt lat="45.9662" lon="4.86867">
        <ele>287</ele>
        <time>2018-05-23T09:50:53Z</time>
      </trkpt>
      <trkpt lat="45.96623" lon="4.86861">
        <ele>287</ele>
        <time>2018-05-23T09:50:55Z</time>
      </trkpt>
      <trkpt lat="45.96627" lon="4.8685">
        <ele>287</ele>
        <time>2018-05-23T09:50:56Z</time>
      </trkpt>
      <trkpt lat="45.9663" lon="4.86845">
        <ele>287</ele>
        <time>2018-05-23T09:50:57Z</time>
      </trkpt>
      <trkpt lat="45.96633" lon="4.86839">
        <ele>287</ele>
        <time>2018-05-23T09:50:58Z</time>
      </trkpt>
      <trkpt lat="45.96638" lon="4.86831">
        <ele>288</ele>
        <time>2018-05-23T09:51:00Z</time>
      </trkpt>
      <trkpt lat="45.96643" lon="4.86826">
        <ele>288</ele>
        <time>2018-05-23T09:51:01Z</time>
      </trkpt>
      <trkpt lat="45.96646" lon="4.86821">
        <ele>288</ele>
        <time>2018-05-23T09:51:02Z</time>
      </trkpt>
      <trkpt lat="45.96649" lon="4.86816">
        <ele>288</ele>
        <time>2018-05-23T09:51:03Z</time>
      </trkpt>
      <trkpt lat="45.96654" lon="4.86808">
        <ele>288</ele>
        <time>2018-05-23T09:51:05Z</time>
      </trkpt>
      <trkpt lat="45.96656" lon="4.86803">
        <ele>288</ele>
        <time>2018-05-23T09:51:06Z</time>
      </trkpt>
      <trkpt lat="45.9666" lon="4.86796">
        <ele>288</ele>
        <time>2018-05-23T09:51:07Z</time>
      </trkpt>
      <trkpt lat="45.96662" lon="4.86792">
        <ele>288</ele>
        <time>2018-05-23T09:51:08Z</time>
      </trkpt>
      <trkpt lat="45.96666" lon="4.86787">
        <ele>288</ele>
        <time>2018-05-23T09:51:09Z</time>
      </trkpt>
      <trkpt lat="45.96669" lon="4.86782">
        <ele>289</ele>
        <time>2018-05-23T09:51:10Z</time>
      </trkpt>
      <trkpt lat="45.96674" lon="4.86772">
        <ele>289</ele>
        <time>2018-05-23T09:51:12Z</time>
      </trkpt>
      <trkpt lat="45.96677" lon="4.86768">
        <ele>289</ele>
        <time>2018-05-23T09:51:13Z</time>
      </trkpt>
      <trkpt lat="45.96683" lon="4.86758">
        <ele>289</ele>
        <time>2018-05-23T09:51:15Z</time>
      </trkpt>
      <trkpt lat="45.96686" lon="4.86753">
        <ele>289</ele>
        <time>2018-05-23T09:51:16Z</time>
      </trkpt>
      <trkpt lat="45.96692" lon="4.86746">
        <ele>289</ele>
        <time>2018-05-23T09:51:18Z</time>
      </trkpt>
      <trkpt lat="45.96695" lon="4.86742">
        <ele>289</ele>
        <time>2018-05-23T09:51:19Z</time>
      </trkpt>
      <trkpt lat="45.967" lon="4.86732">
        <ele>289</ele>
        <time>2018-05-23T09:51:21Z</time>
      </trkpt>
      <trkpt lat="45.96702" lon="4.86727">
        <ele>289</ele>
        <time>2018-05-23T09:51:22Z</time>
      </trkpt>
      <trkpt lat="45.96708" lon="4.86718">
        <ele>289</ele>
        <time>2018-05-23T09:51:24Z</time>
      </trkpt>
      <trkpt lat="45.96711" lon="4.86713">
        <ele>289</ele>
        <time>2018-05-23T09:51:25Z</time>
      </trkpt>
      <trkpt lat="45.96714" lon="4.86709">
        <ele>289</ele>
        <time>2018-05-23T09:51:26Z</time>
      </trkpt>
      <trkpt lat="45.96717" lon="4.86702">
        <ele>289</ele>
        <time>2018-05-23T09:51:27Z</time>
      </trkpt>
      <trkpt lat="45.96721" lon="4.86696">
        <ele>289</ele>
        <time>2018-05-23T09:51:28Z</time>
      </trkpt>
      <trkpt lat="45.96723" lon="4.86691">
        <ele>289</ele>
        <time>2018-05-23T09:51:29Z</time>
      </trkpt>
      <trkpt lat="45.96729" lon="4.86682">
        <ele>289</ele>
        <time>2018-05-23T09:51:31Z</time>
      </trkpt>
      <trkpt lat="45.96732" lon="4.86677">
        <ele>290</ele>
        <time>2018-05-23T09:51:32Z</time>
      </trkpt>
      <trkpt lat="45.96737" lon="4.86669">
        <ele>290</ele>
        <time>2018-05-23T09:51:34Z</time>
      </trkpt>
      <trkpt lat="45.9674" lon="4.86665">
        <ele>290</ele>
        <time>2018-05-23T09:51:35Z</time>
      </trkpt>
      <trkpt lat="45.96745" lon="4.86656">
        <ele>290</ele>
        <time>2018-05-23T09:51:38Z</time>
      </trkpt>
      <trkpt lat="45.96747" lon="4.86654">
        <ele>290</ele>
        <time>2018-05-23T09:51:39Z</time>
      </trkpt>
      <trkpt lat="45.96752" lon="4.86647">
        <ele>290</ele>
        <time>2018-05-23T09:51:42Z</time>
      </trkpt>
      <trkpt lat="45.96755" lon="4.86637">
        <ele>290</ele>
        <time>2018-05-23T09:51:43Z</time>
      </trkpt>
      <trkpt lat="45.96751" lon="4.86627">
        <ele>290</ele>
        <time>2018-05-23T09:51:45Z</time>
      </trkpt>
      <trkpt lat="45.96748" lon="4.86623">
        <ele>290</ele>
        <time>2018-05-23T09:51:46Z</time>
      </trkpt>
      <trkpt lat="45.96741" lon="4.8662">
        <ele>290</ele>
        <time>2018-05-23T09:51:48Z</time>
      </trkpt>
      <trkpt lat="45.96737" lon="4.8662">
        <ele>290</ele>
        <time>2018-05-23T09:51:49Z</time>
      </trkpt>
      <trkpt lat="45.96728" lon="4.86619">
        <ele>290</ele>
        <time>2018-05-23T09:51:51Z</time>
      </trkpt>
      <trkpt lat="45.96724" lon="4.86618">
        <ele>290</ele>
        <time>2018-05-23T09:51:52Z</time>
      </trkpt>
      <trkpt lat="45.96716" lon="4.86614">
        <ele>290</ele>
        <time>2018-05-23T09:51:54Z</time>
      </trkpt>
      <trkpt lat="45.96712" lon="4.86612">
        <ele>290</ele>
        <time>2018-05-23T09:51:55Z</time>
      </trkpt>
      <trkpt lat="45.96704" lon="4.86606">
        <ele>290</ele>
        <time>2018-05-23T09:51:57Z</time>
      </trkpt>
      <trkpt lat="45.96701" lon="4.86602">
        <ele>290</ele>
        <time>2018-05-23T09:51:58Z</time>
      </trkpt>
      <trkpt lat="45.96696" lon="4.86597">
        <ele>290</ele>
        <time>2018-05-23T09:51:59Z</time>
      </trkpt>
      <trkpt lat="45.96692" lon="4.86596">
        <ele>290</ele>
        <time>2018-05-23T09:52:00Z</time>
      </trkpt>
      <trkpt lat="45.96686" lon="4.86594">
        <ele>290</ele>
        <time>2018-05-23T09:52:01Z</time>
      </trkpt>
      <trkpt lat="45.96683" lon="4.8659">
        <ele>290</ele>
        <time>2018-05-23T09:52:02Z</time>
      </trkpt>
      <trkpt lat="45.96678" lon="4.86587">
        <ele>290</ele>
        <time>2018-05-23T09:52:03Z</time>
      </trkpt>
      <trkpt lat="45.96675" lon="4.86584">
        <ele>290</ele>
        <time>2018-05-23T09:52:04Z</time>
      </trkpt>
      <trkpt lat="45.96668" lon="4.86576">
        <ele>290</ele>
        <time>2018-05-23T09:52:06Z</time>
      </trkpt>
      <trkpt lat="45.96664" lon="4.86572">
        <ele>290</ele>
        <time>2018-05-23T09:52:07Z</time>
      </trkpt>
      <trkpt lat="45.96659" lon="4.86564">
        <ele>290</ele>
        <time>2018-05-23T09:52:09Z</time>
      </trkpt>
      <trkpt lat="45.96655" lon="4.8656">
        <ele>290</ele>
        <time>2018-05-23T09:52:10Z</time>
      </trkpt>
      <trkpt lat="45.9665" lon="4.86558">
        <ele>291</ele>
        <time>2018-05-23T09:52:11Z</time>
      </trkpt>
      <trkpt lat="45.96646" lon="4.86555">
        <ele>291</ele>
        <time>2018-05-23T09:52:12Z</time>
      </trkpt>
      <trkpt lat="45.96642" lon="4.86551">
        <ele>291</ele>
        <time>2018-05-23T09:52:13Z</time>
      </trkpt>
      <trkpt lat="45.96637" lon="4.86548">
        <ele>291</ele>
        <time>2018-05-23T09:52:14Z</time>
      </trkpt>
      <trkpt lat="45.96633" lon="4.86544">
        <ele>291</ele>
        <time>2018-05-23T09:52:15Z</time>
      </trkpt>
      <trkpt lat="45.9663" lon="4.8654">
        <ele>291</ele>
        <time>2018-05-23T09:52:16Z</time>
      </trkpt>
      <trkpt lat="45.96625" lon="4.86538">
        <ele>291</ele>
        <time>2018-05-23T09:52:17Z</time>
      </trkpt>
      <trkpt lat="45.96621" lon="4.86534">
        <ele>291</ele>
        <time>2018-05-23T09:52:18Z</time>
      </trkpt>
      <trkpt lat="45.96617" lon="4.8653">
        <ele>291</ele>
        <time>2018-05-23T09:52:19Z</time>
      </trkpt>
      <trkpt lat="45.96614" lon="4.86526">
        <ele>291</ele>
        <time>2018-05-23T09:52:20Z</time>
      </trkpt>
      <trkpt lat="45.96611" lon="4.86522">
        <ele>291</ele>
        <time>2018-05-23T09:52:21Z</time>
      </trkpt>
      <trkpt lat="45.96605" lon="4.86518">
        <ele>291</ele>
        <time>2018-05-23T09:52:22Z</time>
      </trkpt>
      <trkpt lat="45.96601" lon="4.86514">
        <ele>291</ele>
        <time>2018-05-23T09:52:23Z</time>
      </trkpt>
      <trkpt lat="45.96598" lon="4.86508">
        <ele>291</ele>
        <time>2018-05-23T09:52:24Z</time>
      </trkpt>
      <trkpt lat="45.96594" lon="4.86503">
        <ele>292</ele>
        <time>2018-05-23T09:52:25Z</time>
      </trkpt>
      <trkpt lat="45.9659" lon="4.86497">
        <ele>292</ele>
        <time>2018-05-23T09:52:26Z</time>
      </trkpt>
      <trkpt lat="45.96586" lon="4.86491">
        <ele>292</ele>
        <time>2018-05-23T09:52:27Z</time>
      </trkpt>
      <trkpt lat="45.96584" lon="4.86485">
        <ele>292</ele>
        <time>2018-05-23T09:52:28Z</time>
      </trkpt>
      <trkpt lat="45.96581" lon="4.86478">
        <ele>290</ele>
        <time>2018-05-23T09:52:29Z</time>
      </trkpt>
      <trkpt lat="45.96579" lon="4.8647">
        <ele>289</ele>
        <time>2018-05-23T09:52:30Z</time>
      </trkpt>
      <trkpt lat="45.96578" lon="4.86462">
        <ele>289</ele>
        <time>2018-05-23T09:52:31Z</time>
      </trkpt>
      <trkpt lat="45.96577" lon="4.86455">
        <ele>289</ele>
        <time>2018-05-23T09:52:32Z</time>
      </trkpt>
      <trkpt lat="45.96576" lon="4.86446">
        <ele>289</ele>
        <time>2018-05-23T09:52:33Z</time>
      </trkpt>
      <trkpt lat="45.96575" lon="4.86438">
        <ele>289</ele>
        <time>2018-05-23T09:52:34Z</time>
      </trkpt>
      <trkpt lat="45.96574" lon="4.86429">
        <ele>289</ele>
        <time>2018-05-23T09:52:35Z</time>
      </trkpt>
      <trkpt lat="45.96572" lon="4.86421">
        <ele>289</ele>
        <time>2018-05-23T09:52:36Z</time>
      </trkpt>
      <trkpt lat="45.96572" lon="4.86411">
        <ele>288</ele>
        <time>2018-05-23T09:52:37Z</time>
      </trkpt>
      <trkpt lat="45.96571" lon="4.86402">
        <ele>287</ele>
        <time>2018-05-23T09:52:38Z</time>
      </trkpt>
      <trkpt lat="45.9657" lon="4.86392">
        <ele>287</ele>
        <time>2018-05-23T09:52:39Z</time>
      </trkpt>
      <trkpt lat="45.96568" lon="4.8638">
        <ele>286</ele>
        <time>2018-05-23T09:52:40Z</time>
      </trkpt>
      <trkpt lat="45.96569" lon="4.86371">
        <ele>286</ele>
        <time>2018-05-23T09:52:41Z</time>
      </trkpt>
      <trkpt lat="45.96569" lon="4.86361">
        <ele>285</ele>
        <time>2018-05-23T09:52:42Z</time>
      </trkpt>
      <trkpt lat="45.96569" lon="4.86352">
        <ele>285</ele>
        <time>2018-05-23T09:52:43Z</time>
      </trkpt>
      <trkpt lat="45.96569" lon="4.86342">
        <ele>285</ele>
        <time>2018-05-23T09:52:44Z</time>
      </trkpt>
      <trkpt lat="45.96568" lon="4.86334">
        <ele>285</ele>
        <time>2018-05-23T09:52:45Z</time>
      </trkpt>
      <trkpt lat="45.96569" lon="4.86324">
        <ele>283</ele>
        <time>2018-05-23T09:52:46Z</time>
      </trkpt>
      <trkpt lat="45.96569" lon="4.86315">
        <ele>283</ele>
        <time>2018-05-23T09:52:47Z</time>
      </trkpt>
      <trkpt lat="45.9657" lon="4.86308">
        <ele>283</ele>
        <time>2018-05-23T09:52:48Z</time>
      </trkpt>
      <trkpt lat="45.96571" lon="4.86298">
        <ele>282</ele>
        <time>2018-05-23T09:52:49Z</time>
      </trkpt>
      <trkpt lat="45.96572" lon="4.86288">
        <ele>282</ele>
        <time>2018-05-23T09:52:50Z</time>
      </trkpt>
      <trkpt lat="45.96574" lon="4.86278">
        <ele>282</ele>
        <time>2018-05-23T09:52:51Z</time>
      </trkpt>
      <trkpt lat="45.96575" lon="4.86267">
        <ele>281</ele>
        <time>2018-05-23T09:52:52Z</time>
      </trkpt>
      <trkpt lat="45.96576" lon="4.86257">
        <ele>281</ele>
        <time>2018-05-23T09:52:53Z</time>
      </trkpt>
      <trkpt lat="45.96577" lon="4.86247">
        <ele>280</ele>
        <time>2018-05-23T09:52:54Z</time>
      </trkpt>
      <trkpt lat="45.96577" lon="4.86235">
        <ele>280</ele>
        <time>2018-05-23T09:52:55Z</time>
      </trkpt>
      <trkpt lat="45.96579" lon="4.86222">
        <ele>280</ele>
        <time>2018-05-23T09:52:56Z</time>
      </trkpt>
      <trkpt lat="45.9658" lon="4.8621">
        <ele>280</ele>
        <time>2018-05-23T09:52:57Z</time>
      </trkpt>
      <trkpt lat="45.96581" lon="4.86195">
        <ele>279</ele>
        <time>2018-05-23T09:52:58Z</time>
      </trkpt>
      <trkpt lat="45.96582" lon="4.86182">
        <ele>280</ele>
        <time>2018-05-23T09:52:59Z</time>
      </trkpt>
      <trkpt lat="45.96584" lon="4.86169">
        <ele>280</ele>
        <time>2018-05-23T09:53:00Z</time>
      </trkpt>
      <trkpt lat="45.96585" lon="4.86158">
        <ele>281</ele>
        <time>2018-05-23T09:53:01Z</time>
      </trkpt>
      <trkpt lat="45.96588" lon="4.86143">
        <ele>281</ele>
        <time>2018-05-23T09:53:02Z</time>
      </trkpt>
      <trkpt lat="45.96589" lon="4.8613">
        <ele>281</ele>
        <time>2018-05-23T09:53:03Z</time>
      </trkpt>
      <trkpt lat="45.9659" lon="4.86117">
        <ele>281</ele>
        <time>2018-05-23T09:53:04Z</time>
      </trkpt>
      <trkpt lat="45.9659" lon="4.86105">
        <ele>280</ele>
        <time>2018-05-23T09:53:05Z</time>
      </trkpt>
      <trkpt lat="45.96589" lon="4.86092">
        <ele>279</ele>
        <time>2018-05-23T09:53:06Z</time>
      </trkpt>
      <trkpt lat="45.96586" lon="4.8608">
        <ele>278</ele>
        <time>2018-05-23T09:53:07Z</time>
      </trkpt>
      <trkpt lat="45.96582" lon="4.86067">
        <ele>277</ele>
        <time>2018-05-23T09:53:08Z</time>
      </trkpt>
      <trkpt lat="45.96578" lon="4.86055">
        <ele>277</ele>
        <time>2018-05-23T09:53:09Z</time>
      </trkpt>
      <trkpt lat="45.96572" lon="4.86046">
        <ele>276</ele>
        <time>2018-05-23T09:53:10Z</time>
      </trkpt>
      <trkpt lat="45.96566" lon="4.86035">
        <ele>276</ele>
        <time>2018-05-23T09:53:11Z</time>
      </trkpt>
      <trkpt lat="45.96562" lon="4.86025">
        <ele>276</ele>
        <time>2018-05-23T09:53:12Z</time>
      </trkpt>
      <trkpt lat="45.96556" lon="4.86014">
        <ele>276</ele>
        <time>2018-05-23T09:53:13Z</time>
      </trkpt>
      <trkpt lat="45.9655" lon="4.86004">
        <ele>276</ele>
        <time>2018-05-23T09:53:14Z</time>
      </trkpt>
      <trkpt lat="45.96545" lon="4.85994">
        <ele>275</ele>
        <time>2018-05-23T09:53:15Z</time>
      </trkpt>
      <trkpt lat="45.96539" lon="4.85984">
        <ele>275</ele>
        <time>2018-05-23T09:53:16Z</time>
      </trkpt>
      <trkpt lat="45.96535" lon="4.85973">
        <ele>275</ele>
        <time>2018-05-23T09:53:17Z</time>
      </trkpt>
      <trkpt lat="45.96531" lon="4.85963">
        <ele>275</ele>
        <time>2018-05-23T09:53:18Z</time>
      </trkpt>
      <trkpt lat="45.96525" lon="4.85953">
        <ele>275</ele>
        <time>2018-05-23T09:53:19Z</time>
      </trkpt>
      <trkpt lat="45.9652" lon="4.85943">
        <ele>275</ele>
        <time>2018-05-23T09:53:20Z</time>
      </trkpt>
      <trkpt lat="45.96515" lon="4.85931">
        <ele>275</ele>
        <time>2018-05-23T09:53:21Z</time>
      </trkpt>
      <trkpt lat="45.96512" lon="4.8592">
        <ele>274</ele>
        <time>2018-05-23T09:53:22Z</time>
      </trkpt>
      <trkpt lat="45.9651" lon="4.85909">
        <ele>275</ele>
        <time>2018-05-23T09:53:23Z</time>
      </trkpt>
      <trkpt lat="45.96507" lon="4.85897">
        <ele>275</ele>
        <time>2018-05-23T09:53:24Z</time>
      </trkpt>
      <trkpt lat="45.96505" lon="4.85887">
        <ele>275</ele>
        <time>2018-05-23T09:53:25Z</time>
      </trkpt>
      <trkpt lat="45.96503" lon="4.85876">
        <ele>275</ele>
        <time>2018-05-23T09:53:26Z</time>
      </trkpt>
      <trkpt lat="45.96502" lon="4.85866">
        <ele>275</ele>
        <time>2018-05-23T09:53:27Z</time>
      </trkpt>
      <trkpt lat="45.965" lon="4.85856">
        <ele>275</ele>
        <time>2018-05-23T09:53:28Z</time>
      </trkpt>
      <trkpt lat="45.96499" lon="4.85845">
        <ele>275</ele>
        <time>2018-05-23T09:53:29Z</time>
      </trkpt>
      <trkpt lat="45.96498" lon="4.85834">
        <ele>275</ele>
        <time>2018-05-23T09:53:30Z</time>
      </trkpt>
      <trkpt lat="45.96497" lon="4.85823">
        <ele>274</ele>
        <time>2018-05-23T09:53:31Z</time>
      </trkpt>
      <trkpt lat="45.96496" lon="4.85815">
        <ele>274</ele>
        <time>2018-05-23T09:53:32Z</time>
      </trkpt>
      <trkpt lat="45.96494" lon="4.85804">
        <ele>274</ele>
        <time>2018-05-23T09:53:33Z</time>
      </trkpt>
      <trkpt lat="45.96493" lon="4.85794">
        <ele>274</ele>
        <time>2018-05-23T09:53:34Z</time>
      </trkpt>
      <trkpt lat="45.96493" lon="4.85782">
        <ele>274</ele>
        <time>2018-05-23T09:53:35Z</time>
      </trkpt>
      <trkpt lat="45.96491" lon="4.85772">
        <ele>274</ele>
        <time>2018-05-23T09:53:36Z</time>
      </trkpt>
      <trkpt lat="45.9649" lon="4.85762">
        <ele>274</ele>
        <time>2018-05-23T09:53:37Z</time>
      </trkpt>
      <trkpt lat="45.96489" lon="4.85753">
        <ele>274</ele>
        <time>2018-05-23T09:53:38Z</time>
      </trkpt>
      <trkpt lat="45.96487" lon="4.85742">
        <ele>273</ele>
        <time>2018-05-23T09:53:39Z</time>
      </trkpt>
      <trkpt lat="45.96486" lon="4.85732">
        <ele>273</ele>
        <time>2018-05-23T09:53:40Z</time>
      </trkpt>
      <trkpt lat="45.96486" lon="4.85723">
        <ele>272</ele>
        <time>2018-05-23T09:53:41Z</time>
      </trkpt>
      <trkpt lat="45.96484" lon="4.85712">
        <ele>272</ele>
        <time>2018-05-23T09:53:42Z</time>
      </trkpt>
      <trkpt lat="45.96481" lon="4.85703">
        <ele>272</ele>
        <time>2018-05-23T09:53:43Z</time>
      </trkpt>
      <trkpt lat="45.9648" lon="4.85692">
        <ele>272</ele>
        <time>2018-05-23T09:53:44Z</time>
      </trkpt>
      <trkpt lat="45.96478" lon="4.85681">
        <ele>272</ele>
        <time>2018-05-23T09:53:45Z</time>
      </trkpt>
      <trkpt lat="45.96477" lon="4.8567">
        <ele>272</ele>
        <time>2018-05-23T09:53:46Z</time>
      </trkpt>
      <trkpt lat="45.96476" lon="4.8566">
        <ele>271</ele>
        <time>2018-05-23T09:53:47Z</time>
      </trkpt>
      <trkpt lat="45.96475" lon="4.8565">
        <ele>271</ele>
        <time>2018-05-23T09:53:48Z</time>
      </trkpt>
      <trkpt lat="45.96474" lon="4.8564">
        <ele>271</ele>
        <time>2018-05-23T09:53:49Z</time>
      </trkpt>
      <trkpt lat="45.96473" lon="4.85629">
        <ele>271</ele>
        <time>2018-05-23T09:53:50Z</time>
      </trkpt>
      <trkpt lat="45.96472" lon="4.8562">
        <ele>271</ele>
        <time>2018-05-23T09:53:51Z</time>
      </trkpt>
      <trkpt lat="45.96472" lon="4.8561">
        <ele>271</ele>
        <time>2018-05-23T09:53:52Z</time>
      </trkpt>
      <trkpt lat="45.96472" lon="4.85599">
        <ele>271</ele>
        <time>2018-05-23T09:53:53Z</time>
      </trkpt>
      <trkpt lat="45.9647" lon="4.8559">
        <ele>271</ele>
        <time>2018-05-23T09:53:54Z</time>
      </trkpt>
      <trkpt lat="45.9647" lon="4.8558">
        <ele>272</ele>
        <time>2018-05-23T09:53:55Z</time>
      </trkpt>
      <trkpt lat="45.96471" lon="4.85572">
        <ele>272</ele>
        <time>2018-05-23T09:53:56Z</time>
      </trkpt>
      <trkpt lat="45.9647" lon="4.85561">
        <ele>272</ele>
        <time>2018-05-23T09:53:57Z</time>
      </trkpt>
      <trkpt lat="45.96467" lon="4.85552">
        <ele>272</ele>
        <time>2018-05-23T09:53:58Z</time>
      </trkpt>
      <trkpt lat="45.96466" lon="4.85542">
        <ele>272</ele>
        <time>2018-05-23T09:53:59Z</time>
      </trkpt>
      <trkpt lat="45.96466" lon="4.8553">
        <ele>272</ele>
        <time>2018-05-23T09:54:00Z</time>
      </trkpt>
      <trkpt lat="45.96464" lon="4.85519">
        <ele>272</ele>
        <time>2018-05-23T09:54:01Z</time>
      </trkpt>
      <trkpt lat="45.96465" lon="4.85507">
        <ele>272</ele>
        <time>2018-05-23T09:54:02Z</time>
      </trkpt>
      <trkpt lat="45.96466" lon="4.85497">
        <ele>272</ele>
        <time>2018-05-23T09:54:03Z</time>
      </trkpt>
      <trkpt lat="45.96465" lon="4.85487">
        <ele>272</ele>
        <time>2018-05-23T09:54:04Z</time>
      </trkpt>
      <trkpt lat="45.96464" lon="4.85476">
        <ele>272</ele>
        <time>2018-05-23T09:54:05Z</time>
      </trkpt>
      <trkpt lat="45.96462" lon="4.85467">
        <ele>272</ele>
        <time>2018-05-23T09:54:06Z</time>
      </trkpt>
      <trkpt lat="45.96462" lon="4.85457">
        <ele>272</ele>
        <time>2018-05-23T09:54:07Z</time>
      </trkpt>
      <trkpt lat="45.96462" lon="4.85445">
        <ele>272</ele>
        <time>2018-05-23T09:54:08Z</time>
      </trkpt>
      <trkpt lat="45.96462" lon="4.85435">
        <ele>272</ele>
        <time>2018-05-23T09:54:09Z</time>
      </trkpt>
      <trkpt lat="45.96461" lon="4.85425">
        <ele>272</ele>
        <time>2018-05-23T09:54:10Z</time>
      </trkpt>
      <trkpt lat="45.9646" lon="4.85415">
        <ele>272</ele>
        <time>2018-05-23T09:54:11Z</time>
      </trkpt>
      <trkpt lat="45.9646" lon="4.85406">
        <ele>272</ele>
        <time>2018-05-23T09:54:12Z</time>
      </trkpt>
      <trkpt lat="45.96459" lon="4.85395">
        <ele>272</ele>
        <time>2018-05-23T09:54:13Z</time>
      </trkpt>
      <trkpt lat="45.96459" lon="4.85385">
        <ele>272</ele>
        <time>2018-05-23T09:54:14Z</time>
      </trkpt>
      <trkpt lat="45.96458" lon="4.85376">
        <ele>272</ele>
        <time>2018-05-23T09:54:15Z</time>
      </trkpt>
      <trkpt lat="45.96459" lon="4.85366">
        <ele>272</ele>
        <time>2018-05-23T09:54:16Z</time>
      </trkpt>
      <trkpt lat="45.96457" lon="4.85357">
        <ele>272</ele>
        <time>2018-05-23T09:54:17Z</time>
      </trkpt>
      <trkpt lat="45.96457" lon="4.85348">
        <ele>272</ele>
        <time>2018-05-23T09:54:18Z</time>
      </trkpt>
      <trkpt lat="45.96456" lon="4.85339">
        <ele>272</ele>
        <time>2018-05-23T09:54:19Z</time>
      </trkpt>
      <trkpt lat="45.96455" lon="4.85328">
        <ele>271</ele>
        <time>2018-05-23T09:54:20Z</time>
      </trkpt>
      <trkpt lat="45.96454" lon="4.85318">
        <ele>271</ele>
        <time>2018-05-23T09:54:21Z</time>
      </trkpt>
      <trkpt lat="45.96453" lon="4.85308">
        <ele>271</ele>
        <time>2018-05-23T09:54:22Z</time>
      </trkpt>
      <trkpt lat="45.96453" lon="4.85297">
        <ele>270</ele>
        <time>2018-05-23T09:54:23Z</time>
      </trkpt>
      <trkpt lat="45.96453" lon="4.85286">
        <ele>270</ele>
        <time>2018-05-23T09:54:24Z</time>
      </trkpt>
      <trkpt lat="45.96451" lon="4.85275">
        <ele>270</ele>
        <time>2018-05-23T09:54:25Z</time>
      </trkpt>
      <trkpt lat="45.96452" lon="4.85264">
        <ele>270</ele>
        <time>2018-05-23T09:54:26Z</time>
      </trkpt>
      <trkpt lat="45.96451" lon="4.85254">
        <ele>270</ele>
        <time>2018-05-23T09:54:27Z</time>
      </trkpt>
      <trkpt lat="45.9645" lon="4.85244">
        <ele>269</ele>
        <time>2018-05-23T09:54:28Z</time>
      </trkpt>
      <trkpt lat="45.9645" lon="4.8523">
        <ele>269</ele>
        <time>2018-05-23T09:54:29Z</time>
      </trkpt>
      <trkpt lat="45.9645" lon="4.85222">
        <ele>269</ele>
        <time>2018-05-23T09:54:30Z</time>
      </trkpt>
      <trkpt lat="45.96451" lon="4.85211">
        <ele>269</ele>
        <time>2018-05-23T09:54:31Z</time>
      </trkpt>
      <trkpt lat="45.96452" lon="4.852">
        <ele>269</ele>
        <time>2018-05-23T09:54:32Z</time>
      </trkpt>
      <trkpt lat="45.96454" lon="4.85191">
        <ele>269</ele>
        <time>2018-05-23T09:54:33Z</time>
      </trkpt>
      <trkpt lat="45.96455" lon="4.85181">
        <ele>269</ele>
        <time>2018-05-23T09:54:34Z</time>
      </trkpt>
      <trkpt lat="45.96457" lon="4.85171">
        <ele>269</ele>
        <time>2018-05-23T09:54:35Z</time>
      </trkpt>
      <trkpt lat="45.96459" lon="4.85159">
        <ele>268</ele>
        <time>2018-05-23T09:54:36Z</time>
      </trkpt>
      <trkpt lat="45.9646" lon="4.85149">
        <ele>268</ele>
        <time>2018-05-23T09:54:37Z</time>
      </trkpt>
      <trkpt lat="45.96463" lon="4.85138">
        <ele>268</ele>
        <time>2018-05-23T09:54:38Z</time>
      </trkpt>
      <trkpt lat="45.96466" lon="4.85128">
        <ele>268</ele>
        <time>2018-05-23T09:54:39Z</time>
      </trkpt>
      <trkpt lat="45.96468" lon="4.85117">
        <ele>268</ele>
        <time>2018-05-23T09:54:40Z</time>
      </trkpt>
      <trkpt lat="45.96469" lon="4.85106">
        <ele>268</ele>
        <time>2018-05-23T09:54:41Z</time>
      </trkpt>
      <trkpt lat="45.96469" lon="4.85094">
        <ele>268</ele>
        <time>2018-05-23T09:54:42Z</time>
      </trkpt>
      <trkpt lat="45.96469" lon="4.85082">
        <ele>267</ele>
        <time>2018-05-23T09:54:43Z</time>
      </trkpt>
      <trkpt lat="45.9647" lon="4.85071">
        <ele>267</ele>
        <time>2018-05-23T09:54:44Z</time>
      </trkpt>
      <trkpt lat="45.96469" lon="4.85058">
        <ele>266</ele>
        <time>2018-05-23T09:54:45Z</time>
      </trkpt>
      <trkpt lat="45.9647" lon="4.85046">
        <ele>266</ele>
        <time>2018-05-23T09:54:46Z</time>
      </trkpt>
      <trkpt lat="45.9647" lon="4.85033">
        <ele>266</ele>
        <time>2018-05-23T09:54:47Z</time>
      </trkpt>
      <trkpt lat="45.96473" lon="4.85022">
        <ele>266</ele>
        <time>2018-05-23T09:54:48Z</time>
      </trkpt>
      <trkpt lat="45.96473" lon="4.8501">
        <ele>266</ele>
        <time>2018-05-23T09:54:49Z</time>
      </trkpt>
      <trkpt lat="45.96474" lon="4.84997">
        <ele>263</ele>
        <time>2018-05-23T09:54:50Z</time>
      </trkpt>
      <trkpt lat="45.96474" lon="4.84984">
        <ele>262</ele>
        <time>2018-05-23T09:54:51Z</time>
      </trkpt>
      <trkpt lat="45.96476" lon="4.84971">
        <ele>262</ele>
        <time>2018-05-23T09:54:52Z</time>
      </trkpt>
      <trkpt lat="45.96479" lon="4.84958">
        <ele>261</ele>
        <time>2018-05-23T09:54:53Z</time>
      </trkpt>
      <trkpt lat="45.96482" lon="4.84944">
        <ele>260</ele>
        <time>2018-05-23T09:54:54Z</time>
      </trkpt>
      <trkpt lat="45.96485" lon="4.8493">
        <ele>259</ele>
        <time>2018-05-23T09:54:55Z</time>
      </trkpt>
      <trkpt lat="45.96488" lon="4.84918">
        <ele>258</ele>
        <time>2018-05-23T09:54:56Z</time>
      </trkpt>
      <trkpt lat="45.96492" lon="4.84905">
        <ele>256</ele>
        <time>2018-05-23T09:54:57Z</time>
      </trkpt>
      <trkpt lat="45.96495" lon="4.84889">
        <ele>256</ele>
        <time>2018-05-23T09:54:58Z</time>
      </trkpt>
      <trkpt lat="45.96498" lon="4.84878">
        <ele>255</ele>
        <time>2018-05-23T09:54:59Z</time>
      </trkpt>
      <trkpt lat="45.96499" lon="4.84864">
        <ele>255</ele>
        <time>2018-05-23T09:55:00Z</time>
      </trkpt>
      <trkpt lat="45.96503" lon="4.84852">
        <ele>256</ele>
        <time>2018-05-23T09:55:01Z</time>
      </trkpt>
      <trkpt lat="45.96506" lon="4.84838">
        <ele>254</ele>
        <time>2018-05-23T09:55:02Z</time>
      </trkpt>
      <trkpt lat="45.96509" lon="4.84824">
        <ele>254</ele>
        <time>2018-05-23T09:55:03Z</time>
      </trkpt>
      <trkpt lat="45.96512" lon="4.84811">
        <ele>254</ele>
        <time>2018-05-23T09:55:04Z</time>
      </trkpt>
      <trkpt lat="45.96516" lon="4.84797">
        <ele>254</ele>
        <time>2018-05-23T09:55:05Z</time>
      </trkpt>
      <trkpt lat="45.96518" lon="4.84783">
        <ele>254</ele>
        <time>2018-05-23T09:55:06Z</time>
      </trkpt>
      <trkpt lat="45.96521" lon="4.84769">
        <ele>253</ele>
        <time>2018-05-23T09:55:07Z</time>
      </trkpt>
      <trkpt lat="45.96524" lon="4.84756">
        <ele>253</ele>
        <time>2018-05-23T09:55:08Z</time>
      </trkpt>
      <trkpt lat="45.96526" lon="4.84742">
        <ele>253</ele>
        <time>2018-05-23T09:55:09Z</time>
      </trkpt>
      <trkpt lat="45.96529" lon="4.84728">
        <ele>253</ele>
        <time>2018-05-23T09:55:10Z</time>
      </trkpt>
      <trkpt lat="45.96531" lon="4.84715">
        <ele>253</ele>
        <time>2018-05-23T09:55:11Z</time>
      </trkpt>
      <trkpt lat="45.9653" lon="4.84702">
        <ele>253</ele>
        <time>2018-05-23T09:55:12Z</time>
      </trkpt>
      <trkpt lat="45.96527" lon="4.8469">
        <ele>253</ele>
        <time>2018-05-23T09:55:13Z</time>
      </trkpt>
      <trkpt lat="45.96522" lon="4.84678">
        <ele>252</ele>
        <time>2018-05-23T09:55:14Z</time>
      </trkpt>
      <trkpt lat="45.96523" lon="4.84665">
        <ele>252</ele>
        <time>2018-05-23T09:55:15Z</time>
      </trkpt>
      <trkpt lat="45.9652" lon="4.84654">
        <ele>252</ele>
        <time>2018-05-23T09:55:16Z</time>
      </trkpt>
      <trkpt lat="45.9652" lon="4.84643">
        <ele>252</ele>
        <time>2018-05-23T09:55:17Z</time>
      </trkpt>
      <trkpt lat="45.9652" lon="4.84629">
        <ele>252</ele>
        <time>2018-05-23T09:55:18Z</time>
      </trkpt>
      <trkpt lat="45.9652" lon="4.84617">
        <ele>252</ele>
        <time>2018-05-23T09:55:19Z</time>
      </trkpt>
      <trkpt lat="45.96521" lon="4.84606">
        <ele>252</ele>
        <time>2018-05-23T09:55:20Z</time>
      </trkpt>
      <trkpt lat="45.96522" lon="4.84595">
        <ele>252</ele>
        <time>2018-05-23T09:55:21Z</time>
      </trkpt>
      <trkpt lat="45.96522" lon="4.84583">
        <ele>253</ele>
        <time>2018-05-23T09:55:22Z</time>
      </trkpt>
      <trkpt lat="45.96523" lon="4.84573">
        <ele>253</ele>
        <time>2018-05-23T09:55:23Z</time>
      </trkpt>
      <trkpt lat="45.96526" lon="4.84564">
        <ele>253</ele>
        <time>2018-05-23T09:55:24Z</time>
      </trkpt>
      <trkpt lat="45.96526" lon="4.84554">
        <ele>253</ele>
        <time>2018-05-23T09:55:25Z</time>
      </trkpt>
      <trkpt lat="45.96526" lon="4.84545">
        <ele>253</ele>
        <time>2018-05-23T09:55:26Z</time>
      </trkpt>
      <trkpt lat="45.96525" lon="4.84534">
        <ele>253</ele>
        <time>2018-05-23T09:55:27Z</time>
      </trkpt>
      <trkpt lat="45.96525" lon="4.84525">
        <ele>253</ele>
        <time>2018-05-23T09:55:28Z</time>
      </trkpt>
      <trkpt lat="45.96527" lon="4.84515">
        <ele>253</ele>
        <time>2018-05-23T09:55:29Z</time>
      </trkpt>
      <trkpt lat="45.96527" lon="4.84504">
        <ele>253</ele>
        <time>2018-05-23T09:55:30Z</time>
      </trkpt>
      <trkpt lat="45.96527" lon="4.84494">
        <ele>253</ele>
        <time>2018-05-23T09:55:31Z</time>
      </trkpt>
      <trkpt lat="45.96528" lon="4.84484">
        <ele>253</ele>
        <time>2018-05-23T09:55:32Z</time>
      </trkpt>
      <trkpt lat="45.96529" lon="4.84474">
        <ele>253</ele>
        <time>2018-05-23T09:55:33Z</time>
      </trkpt>
      <trkpt lat="45.9653" lon="4.84463">
        <ele>253</ele>
        <time>2018-05-23T09:55:34Z</time>
      </trkpt>
      <trkpt lat="45.9653" lon="4.84452">
        <ele>253</ele>
        <time>2018-05-23T09:55:35Z</time>
      </trkpt>
      <trkpt lat="45.96532" lon="4.84443">
        <ele>253</ele>
        <time>2018-05-23T09:55:36Z</time>
      </trkpt>
      <trkpt lat="45.96533" lon="4.84432">
        <ele>253</ele>
        <time>2018-05-23T09:55:37Z</time>
      </trkpt>
      <trkpt lat="45.96534" lon="4.84424">
        <ele>253</ele>
        <time>2018-05-23T09:55:38Z</time>
      </trkpt>
      <trkpt lat="45.96534" lon="4.84416">
        <ele>252</ele>
        <time>2018-05-23T09:55:39Z</time>
      </trkpt>
      <trkpt lat="45.96535" lon="4.84406">
        <ele>252</ele>
        <time>2018-05-23T09:55:40Z</time>
      </trkpt>
      <trkpt lat="45.96535" lon="4.84397">
        <ele>252</ele>
        <time>2018-05-23T09:55:41Z</time>
      </trkpt>
      <trkpt lat="45.96535" lon="4.84386">
        <ele>252</ele>
        <time>2018-05-23T09:55:42Z</time>
      </trkpt>
      <trkpt lat="45.96533" lon="4.84378">
        <ele>251</ele>
        <time>2018-05-23T09:55:43Z</time>
      </trkpt>
      <trkpt lat="45.96531" lon="4.8437">
        <ele>251</ele>
        <time>2018-05-23T09:55:44Z</time>
      </trkpt>
      <trkpt lat="45.96528" lon="4.8436">
        <ele>251</ele>
        <time>2018-05-23T09:55:45Z</time>
      </trkpt>
      <trkpt lat="45.96525" lon="4.84351">
        <ele>251</ele>
        <time>2018-05-23T09:55:46Z</time>
      </trkpt>
      <trkpt lat="45.96523" lon="4.8434">
        <ele>251</ele>
        <time>2018-05-23T09:55:47Z</time>
      </trkpt>
      <trkpt lat="45.96519" lon="4.84332">
        <ele>250</ele>
        <time>2018-05-23T09:55:48Z</time>
      </trkpt>
      <trkpt lat="45.96517" lon="4.84323">
        <ele>250</ele>
        <time>2018-05-23T09:55:49Z</time>
      </trkpt>
      <trkpt lat="45.96515" lon="4.84315">
        <ele>250</ele>
        <time>2018-05-23T09:55:50Z</time>
      </trkpt>
      <trkpt lat="45.96513" lon="4.84306">
        <ele>250</ele>
        <time>2018-05-23T09:55:51Z</time>
      </trkpt>
      <trkpt lat="45.96511" lon="4.84297">
        <ele>250</ele>
        <time>2018-05-23T09:55:52Z</time>
      </trkpt>
      <trkpt lat="45.9651" lon="4.8429">
        <ele>250</ele>
        <time>2018-05-23T09:55:53Z</time>
      </trkpt>
      <trkpt lat="45.96508" lon="4.84281">
        <ele>250</ele>
        <time>2018-05-23T09:55:54Z</time>
      </trkpt>
      <trkpt lat="45.96506" lon="4.84273">
        <ele>250</ele>
        <time>2018-05-23T09:55:55Z</time>
      </trkpt>
      <trkpt lat="45.96505" lon="4.84264">
        <ele>251</ele>
        <time>2018-05-23T09:55:56Z</time>
      </trkpt>
      <trkpt lat="45.96503" lon="4.84256">
        <ele>251</ele>
        <time>2018-05-23T09:55:57Z</time>
      </trkpt>
      <trkpt lat="45.965" lon="4.84248">
        <ele>251</ele>
        <time>2018-05-23T09:55:58Z</time>
      </trkpt>
      <trkpt lat="45.96498" lon="4.84241">
        <ele>251</ele>
        <time>2018-05-23T09:55:59Z</time>
      </trkpt>
      <trkpt lat="45.96497" lon="4.84233">
        <ele>251</ele>
        <time>2018-05-23T09:56:00Z</time>
      </trkpt>
      <trkpt lat="45.96495" lon="4.84225">
        <ele>252</ele>
        <time>2018-05-23T09:56:01Z</time>
      </trkpt>
      <trkpt lat="45.96494" lon="4.84217">
        <ele>252</ele>
        <time>2018-05-23T09:56:02Z</time>
      </trkpt>
      <trkpt lat="45.9649" lon="4.84208">
        <ele>252</ele>
        <time>2018-05-23T09:56:03Z</time>
      </trkpt>
      <trkpt lat="45.96489" lon="4.84201">
        <ele>251</ele>
        <time>2018-05-23T09:56:04Z</time>
      </trkpt>
      <trkpt lat="45.96486" lon="4.84192">
        <ele>251</ele>
        <time>2018-05-23T09:56:05Z</time>
      </trkpt>
      <trkpt lat="45.96484" lon="4.84184">
        <ele>251</ele>
        <time>2018-05-23T09:56:06Z</time>
      </trkpt>
      <trkpt lat="45.96483" lon="4.84176">
        <ele>251</ele>
        <time>2018-05-23T09:56:07Z</time>
      </trkpt>
      <trkpt lat="45.96481" lon="4.84169">
        <ele>251</ele>
        <time>2018-05-23T09:56:08Z</time>
      </trkpt>
      <trkpt lat="45.96479" lon="4.84161">
        <ele>251</ele>
        <time>2018-05-23T09:56:09Z</time>
      </trkpt>
      <trkpt lat="45.96477" lon="4.84153">
        <ele>251</ele>
        <time>2018-05-23T09:56:10Z</time>
      </trkpt>
      <trkpt lat="45.96476" lon="4.84145">
        <ele>251</ele>
        <time>2018-05-23T09:56:11Z</time>
      </trkpt>
      <trkpt lat="45.96473" lon="4.84137">
        <ele>251</ele>
        <time>2018-05-23T09:56:12Z</time>
      </trkpt>
      <trkpt lat="45.96471" lon="4.84129">
        <ele>251</ele>
        <time>2018-05-23T09:56:13Z</time>
      </trkpt>
      <trkpt lat="45.96468" lon="4.84124">
        <ele>251</ele>
        <time>2018-05-23T09:56:14Z</time>
      </trkpt>
      <trkpt lat="45.96466" lon="4.84116">
        <ele>251</ele>
        <time>2018-05-23T09:56:15Z</time>
      </trkpt>
      <trkpt lat="45.96463" lon="4.84108">
        <ele>251</ele>
        <time>2018-05-23T09:56:16Z</time>
      </trkpt>
      <trkpt lat="45.96461" lon="4.841">
        <ele>252</ele>
        <time>2018-05-23T09:56:17Z</time>
      </trkpt>
      <trkpt lat="45.96458" lon="4.84091">
        <ele>252</ele>
        <time>2018-05-23T09:56:18Z</time>
      </trkpt>
      <trkpt lat="45.96455" lon="4.84083">
        <ele>251</ele>
        <time>2018-05-23T09:56:19Z</time>
      </trkpt>
      <trkpt lat="45.96452" lon="4.84074">
        <ele>251</ele>
        <time>2018-05-23T09:56:20Z</time>
      </trkpt>
      <trkpt lat="45.96449" lon="4.84065">
        <ele>251</ele>
        <time>2018-05-23T09:56:21Z</time>
      </trkpt>
      <trkpt lat="45.96446" lon="4.84057">
        <ele>251</ele>
        <time>2018-05-23T09:56:22Z</time>
      </trkpt>
      <trkpt lat="45.96444" lon="4.8405">
        <ele>251</ele>
        <time>2018-05-23T09:56:23Z</time>
      </trkpt>
      <trkpt lat="45.9644" lon="4.84041">
        <ele>251</ele>
        <time>2018-05-23T09:56:24Z</time>
      </trkpt>
      <trkpt lat="45.96437" lon="4.84033">
        <ele>251</ele>
        <time>2018-05-23T09:56:25Z</time>
      </trkpt>
      <trkpt lat="45.96434" lon="4.84024">
        <ele>251</ele>
        <time>2018-05-23T09:56:26Z</time>
      </trkpt>
      <trkpt lat="45.96432" lon="4.84017">
        <ele>252</ele>
        <time>2018-05-23T09:56:27Z</time>
      </trkpt>
      <trkpt lat="45.96428" lon="4.84008">
        <ele>252</ele>
        <time>2018-05-23T09:56:28Z</time>
      </trkpt>
      <trkpt lat="45.96424" lon="4.84">
        <ele>252</ele>
        <time>2018-05-23T09:56:29Z</time>
      </trkpt>
      <trkpt lat="45.9642" lon="4.83991">
        <ele>252</ele>
        <time>2018-05-23T09:56:30Z</time>
      </trkpt>
      <trkpt lat="45.96416" lon="4.83982">
        <ele>253</ele>
        <time>2018-05-23T09:56:31Z</time>
      </trkpt>
      <trkpt lat="45.96412" lon="4.83973">
        <ele>253</ele>
        <time>2018-05-23T09:56:32Z</time>
      </trkpt>
      <trkpt lat="45.96408" lon="4.83965">
        <ele>252</ele>
        <time>2018-05-23T09:56:33Z</time>
      </trkpt>
      <trkpt lat="45.96404" lon="4.83955">
        <ele>252</ele>
        <time>2018-05-23T09:56:34Z</time>
      </trkpt>
      <trkpt lat="45.964" lon="4.83946">
        <ele>252</ele>
        <time>2018-05-23T09:56:35Z</time>
      </trkpt>
      <trkpt lat="45.96397" lon="4.83936">
        <ele>251</ele>
        <time>2018-05-23T09:56:36Z</time>
      </trkpt>
      <trkpt lat="45.96392" lon="4.83926">
        <ele>251</ele>
        <time>2018-05-23T09:56:37Z</time>
      </trkpt>
      <trkpt lat="45.96388" lon="4.83916">
        <ele>248</ele>
        <time>2018-05-23T09:56:38Z</time>
      </trkpt>
      <trkpt lat="45.96384" lon="4.83907">
        <ele>248</ele>
        <time>2018-05-23T09:56:39Z</time>
      </trkpt>
      <trkpt lat="45.96379" lon="4.83897">
        <ele>248</ele>
        <time>2018-05-23T09:56:40Z</time>
      </trkpt>
      <trkpt lat="45.96375" lon="4.83888">
        <ele>248</ele>
        <time>2018-05-23T09:56:41Z</time>
      </trkpt>
      <trkpt lat="45.96372" lon="4.8388">
        <ele>247</ele>
        <time>2018-05-23T09:56:42Z</time>
      </trkpt>
      <trkpt lat="45.96367" lon="4.83871">
        <ele>247</ele>
        <time>2018-05-23T09:56:43Z</time>
      </trkpt>
      <trkpt lat="45.96364" lon="4.83862">
        <ele>247</ele>
        <time>2018-05-23T09:56:44Z</time>
      </trkpt>
      <trkpt lat="45.96359" lon="4.83854">
        <ele>246</ele>
        <time>2018-05-23T09:56:45Z</time>
      </trkpt>
      <trkpt lat="45.96355" lon="4.83846">
        <ele>246</ele>
        <time>2018-05-23T09:56:46Z</time>
      </trkpt>
      <trkpt lat="45.96349" lon="4.83839">
        <ele>245</ele>
        <time>2018-05-23T09:56:47Z</time>
      </trkpt>
      <trkpt lat="45.96344" lon="4.83832">
        <ele>245</ele>
        <time>2018-05-23T09:56:48Z</time>
      </trkpt>
      <trkpt lat="45.96339" lon="4.83826">
        <ele>244</ele>
        <time>2018-05-23T09:56:49Z</time>
      </trkpt>
      <trkpt lat="45.96333" lon="4.83821">
        <ele>244</ele>
        <time>2018-05-23T09:56:50Z</time>
      </trkpt>
      <trkpt lat="45.96327" lon="4.83815">
        <ele>244</ele>
        <time>2018-05-23T09:56:51Z</time>
      </trkpt>
      <trkpt lat="45.96321" lon="4.8381">
        <ele>244</ele>
        <time>2018-05-23T09:56:52Z</time>
      </trkpt>
      <trkpt lat="45.96316" lon="4.83805">
        <ele>245</ele>
        <time>2018-05-23T09:56:53Z</time>
      </trkpt>
      <trkpt lat="45.96311" lon="4.838">
        <ele>245</ele>
        <time>2018-05-23T09:56:54Z</time>
      </trkpt>
      <trkpt lat="45.96306" lon="4.83794">
        <ele>245</ele>
        <time>2018-05-23T09:56:55Z</time>
      </trkpt>
      <trkpt lat="45.963" lon="4.83789">
        <ele>245</ele>
        <time>2018-05-23T09:56:56Z</time>
      </trkpt>
      <trkpt lat="45.96294" lon="4.83784">
        <ele>245</ele>
        <time>2018-05-23T09:56:57Z</time>
      </trkpt>
      <trkpt lat="45.96288" lon="4.83779">
        <ele>245</ele>
        <time>2018-05-23T09:56:58Z</time>
      </trkpt>
      <trkpt lat="45.96282" lon="4.83775">
        <ele>245</ele>
        <time>2018-05-23T09:56:59Z</time>
      </trkpt>
      <trkpt lat="45.96276" lon="4.83769">
        <ele>245</ele>
        <time>2018-05-23T09:57:00Z</time>
      </trkpt>
      <trkpt lat="45.96272" lon="4.83762">
        <ele>245</ele>
        <time>2018-05-23T09:57:01Z</time>
      </trkpt>
      <trkpt lat="45.96266" lon="4.83757">
        <ele>245</ele>
        <time>2018-05-23T09:57:02Z</time>
      </trkpt>
      <trkpt lat="45.9626" lon="4.83751">
        <ele>244</ele>
        <time>2018-05-23T09:57:03Z</time>
      </trkpt>
      <trkpt lat="45.96255" lon="4.83745">
        <ele>245</ele>
        <time>2018-05-23T09:57:04Z</time>
      </trkpt>
      <trkpt lat="45.9625" lon="4.83739">
        <ele>244</ele>
        <time>2018-05-23T09:57:05Z</time>
      </trkpt>
      <trkpt lat="45.96246" lon="4.83733">
        <ele>244</ele>
        <time>2018-05-23T09:57:06Z</time>
      </trkpt>
      <trkpt lat="45.96241" lon="4.83727">
        <ele>244</ele>
        <time>2018-05-23T09:57:07Z</time>
      </trkpt>
      <trkpt lat="45.96236" lon="4.8372">
        <ele>244</ele>
        <time>2018-05-23T09:57:08Z</time>
      </trkpt>
      <trkpt lat="45.9623" lon="4.83714">
        <ele>244</ele>
        <time>2018-05-23T09:57:09Z</time>
      </trkpt>
      <trkpt lat="45.96226" lon="4.83708">
        <ele>244</ele>
        <time>2018-05-23T09:57:10Z</time>
      </trkpt>
      <trkpt lat="45.9622" lon="4.83704">
        <ele>244</ele>
        <time>2018-05-23T09:57:11Z</time>
      </trkpt>
      <trkpt lat="45.96216" lon="4.83699">
        <ele>244</ele>
        <time>2018-05-23T09:57:12Z</time>
      </trkpt>
      <trkpt lat="45.96211" lon="4.83694">
        <ele>243</ele>
        <time>2018-05-23T09:57:13Z</time>
      </trkpt>
      <trkpt lat="45.96207" lon="4.83688">
        <ele>243</ele>
        <time>2018-05-23T09:57:14Z</time>
      </trkpt>
      <trkpt lat="45.96201" lon="4.83684">
        <ele>243</ele>
        <time>2018-05-23T09:57:15Z</time>
      </trkpt>
      <trkpt lat="45.96196" lon="4.83678">
        <ele>243</ele>
        <time>2018-05-23T09:57:16Z</time>
      </trkpt>
      <trkpt lat="45.96192" lon="4.83674">
        <ele>243</ele>
        <time>2018-05-23T09:57:17Z</time>
      </trkpt>
      <trkpt lat="45.96187" lon="4.83668">
        <ele>243</ele>
        <time>2018-05-23T09:57:18Z</time>
      </trkpt>
      <trkpt lat="45.96182" lon="4.83661">
        <ele>242</ele>
        <time>2018-05-23T09:57:19Z</time>
      </trkpt>
      <trkpt lat="45.96177" lon="4.83655">
        <ele>242</ele>
        <time>2018-05-23T09:57:20Z</time>
      </trkpt>
      <trkpt lat="45.96173" lon="4.83647">
        <ele>242</ele>
        <time>2018-05-23T09:57:21Z</time>
      </trkpt>
      <trkpt lat="45.96167" lon="4.8364">
        <ele>242</ele>
        <time>2018-05-23T09:57:22Z</time>
      </trkpt>
      <trkpt lat="45.96163" lon="4.83633">
        <ele>243</ele>
        <time>2018-05-23T09:57:23Z</time>
      </trkpt>
      <trkpt lat="45.96161" lon="4.83624">
        <ele>242</ele>
        <time>2018-05-23T09:57:24Z</time>
      </trkpt>
      <trkpt lat="45.96159" lon="4.83615">
        <ele>242</ele>
        <time>2018-05-23T09:57:25Z</time>
      </trkpt>
      <trkpt lat="45.96156" lon="4.83605">
        <ele>242</ele>
        <time>2018-05-23T09:57:26Z</time>
      </trkpt>
      <trkpt lat="45.96154" lon="4.83596">
        <ele>242</ele>
        <time>2018-05-23T09:57:27Z</time>
      </trkpt>
      <trkpt lat="45.96152" lon="4.83587">
        <ele>241</ele>
        <time>2018-05-23T09:57:28Z</time>
      </trkpt>
      <trkpt lat="45.9615" lon="4.83578">
        <ele>241</ele>
        <time>2018-05-23T09:57:29Z</time>
      </trkpt>
      <trkpt lat="45.96148" lon="4.83569">
        <ele>241</ele>
        <time>2018-05-23T09:57:30Z</time>
      </trkpt>
      <trkpt lat="45.96146" lon="4.8356">
        <ele>241</ele>
        <time>2018-05-23T09:57:31Z</time>
      </trkpt>
      <trkpt lat="45.96144" lon="4.83551">
        <ele>242</ele>
        <time>2018-05-23T09:57:32Z</time>
      </trkpt>
      <trkpt lat="45.96142" lon="4.83543">
        <ele>242</ele>
        <time>2018-05-23T09:57:33Z</time>
      </trkpt>
      <trkpt lat="45.96139" lon="4.83535">
        <ele>242</ele>
        <time>2018-05-23T09:57:34Z</time>
      </trkpt>
      <trkpt lat="45.96137" lon="4.83526">
        <ele>242</ele>
        <time>2018-05-23T09:57:35Z</time>
      </trkpt>
      <trkpt lat="45.96136" lon="4.83517">
        <ele>242</ele>
        <time>2018-05-23T09:57:36Z</time>
      </trkpt>
      <trkpt lat="45.96135" lon="4.83509">
        <ele>242</ele>
        <time>2018-05-23T09:57:37Z</time>
      </trkpt>
      <trkpt lat="45.96132" lon="4.835">
        <ele>242</ele>
        <time>2018-05-23T09:57:38Z</time>
      </trkpt>
      <trkpt lat="45.96131" lon="4.83492">
        <ele>242</ele>
        <time>2018-05-23T09:57:39Z</time>
      </trkpt>
      <trkpt lat="45.96129" lon="4.83482">
        <ele>242</ele>
        <time>2018-05-23T09:57:40Z</time>
      </trkpt>
      <trkpt lat="45.96127" lon="4.83473">
        <ele>242</ele>
        <time>2018-05-23T09:57:41Z</time>
      </trkpt>
      <trkpt lat="45.96125" lon="4.83465">
        <ele>242</ele>
        <time>2018-05-23T09:57:42Z</time>
      </trkpt>
      <trkpt lat="45.96122" lon="4.83455">
        <ele>242</ele>
        <time>2018-05-23T09:57:43Z</time>
      </trkpt>
      <trkpt lat="45.9612" lon="4.83445">
        <ele>242</ele>
        <time>2018-05-23T09:57:44Z</time>
      </trkpt>
      <trkpt lat="45.96118" lon="4.83434">
        <ele>242</ele>
        <time>2018-05-23T09:57:45Z</time>
      </trkpt>
      <trkpt lat="45.96115" lon="4.83424">
        <ele>243</ele>
        <time>2018-05-23T09:57:46Z</time>
      </trkpt>
      <trkpt lat="45.96113" lon="4.83414">
        <ele>243</ele>
        <time>2018-05-23T09:57:47Z</time>
      </trkpt>
      <trkpt lat="45.96111" lon="4.83403">
        <ele>243</ele>
        <time>2018-05-23T09:57:48Z</time>
      </trkpt>
      <trkpt lat="45.96109" lon="4.83391">
        <ele>243</ele>
        <time>2018-05-23T09:57:49Z</time>
      </trkpt>
      <trkpt lat="45.96107" lon="4.83381">
        <ele>242</ele>
        <time>2018-05-23T09:57:50Z</time>
      </trkpt>
      <trkpt lat="45.96105" lon="4.83372">
        <ele>242</ele>
        <time>2018-05-23T09:57:51Z</time>
      </trkpt>
      <trkpt lat="45.96103" lon="4.83362">
        <ele>242</ele>
        <time>2018-05-23T09:57:52Z</time>
      </trkpt>
      <trkpt lat="45.96103" lon="4.83353">
        <ele>242</ele>
        <time>2018-05-23T09:57:53Z</time>
      </trkpt>
      <trkpt lat="45.96099" lon="4.83345">
        <ele>242</ele>
        <time>2018-05-23T09:57:54Z</time>
      </trkpt>
      <trkpt lat="45.96096" lon="4.83334">
        <ele>242</ele>
        <time>2018-05-23T09:57:55Z</time>
      </trkpt>
      <trkpt lat="45.96095" lon="4.83324">
        <ele>241</ele>
        <time>2018-05-23T09:57:56Z</time>
      </trkpt>
      <trkpt lat="45.96091" lon="4.83315">
        <ele>241</ele>
        <time>2018-05-23T09:57:57Z</time>
      </trkpt>
      <trkpt lat="45.96091" lon="4.83304">
        <ele>241</ele>
        <time>2018-05-23T09:57:58Z</time>
      </trkpt>
      <trkpt lat="45.9609" lon="4.83294">
        <ele>241</ele>
        <time>2018-05-23T09:57:59Z</time>
      </trkpt>
      <trkpt lat="45.96089" lon="4.83284">
        <ele>241</ele>
        <time>2018-05-23T09:58:00Z</time>
      </trkpt>
      <trkpt lat="45.96089" lon="4.83276">
        <ele>241</ele>
        <time>2018-05-23T09:58:01Z</time>
      </trkpt>
      <trkpt lat="45.96089" lon="4.83267">
        <ele>241</ele>
        <time>2018-05-23T09:58:02Z</time>
      </trkpt>
      <trkpt lat="45.9609" lon="4.83258">
        <ele>241</ele>
        <time>2018-05-23T09:58:03Z</time>
      </trkpt>
      <trkpt lat="45.96091" lon="4.83246">
        <ele>240</ele>
        <time>2018-05-23T09:58:04Z</time>
      </trkpt>
      <trkpt lat="45.96092" lon="4.83237">
        <ele>240</ele>
        <time>2018-05-23T09:58:05Z</time>
      </trkpt>
      <trkpt lat="45.96091" lon="4.83226">
        <ele>240</ele>
        <time>2018-05-23T09:58:06Z</time>
      </trkpt>
      <trkpt lat="45.96092" lon="4.83217">
        <ele>240</ele>
        <time>2018-05-23T09:58:07Z</time>
      </trkpt>
      <trkpt lat="45.96092" lon="4.83207">
        <ele>240</ele>
        <time>2018-05-23T09:58:08Z</time>
      </trkpt>
      <trkpt lat="45.96092" lon="4.83198">
        <ele>240</ele>
        <time>2018-05-23T09:58:09Z</time>
      </trkpt>
      <trkpt lat="45.96091" lon="4.83188">
        <ele>240</ele>
        <time>2018-05-23T09:58:10Z</time>
      </trkpt>
      <trkpt lat="45.96091" lon="4.83178">
        <ele>240</ele>
        <time>2018-05-23T09:58:11Z</time>
      </trkpt>
      <trkpt lat="45.9609" lon="4.83168">
        <ele>240</ele>
        <time>2018-05-23T09:58:12Z</time>
      </trkpt>
      <trkpt lat="45.96091" lon="4.83158">
        <ele>240</ele>
        <time>2018-05-23T09:58:13Z</time>
      </trkpt>
      <trkpt lat="45.9609" lon="4.83146">
        <ele>240</ele>
        <time>2018-05-23T09:58:14Z</time>
      </trkpt>
      <trkpt lat="45.96089" lon="4.83137">
        <ele>240</ele>
        <time>2018-05-23T09:58:15Z</time>
      </trkpt>
      <trkpt lat="45.96088" lon="4.83126">
        <ele>240</ele>
        <time>2018-05-23T09:58:16Z</time>
      </trkpt>
      <trkpt lat="45.96087" lon="4.83117">
        <ele>240</ele>
        <time>2018-05-23T09:58:17Z</time>
      </trkpt>
      <trkpt lat="45.96086" lon="4.83106">
        <ele>240</ele>
        <time>2018-05-23T09:58:18Z</time>
      </trkpt>
      <trkpt lat="45.96087" lon="4.83096">
        <ele>240</ele>
        <time>2018-05-23T09:58:19Z</time>
      </trkpt>
      <trkpt lat="45.96086" lon="4.83087">
        <ele>240</ele>
        <time>2018-05-23T09:58:20Z</time>
      </trkpt>
      <trkpt lat="45.96084" lon="4.83078">
        <ele>240</ele>
        <time>2018-05-23T09:58:21Z</time>
      </trkpt>
      <trkpt lat="45.96082" lon="4.83069">
        <ele>242</ele>
        <time>2018-05-23T09:58:22Z</time>
      </trkpt>
      <trkpt lat="45.96078" lon="4.8306">
        <ele>242</ele>
        <time>2018-05-23T09:58:23Z</time>
      </trkpt>
      <trkpt lat="45.96075" lon="4.83051">
        <ele>242</ele>
        <time>2018-05-23T09:58:24Z</time>
      </trkpt>
      <trkpt lat="45.96073" lon="4.83043">
        <ele>243</ele>
        <time>2018-05-23T09:58:25Z</time>
      </trkpt>
      <trkpt lat="45.96071" lon="4.83035">
        <ele>243</ele>
        <time>2018-05-23T09:58:26Z</time>
      </trkpt>
      <trkpt lat="45.96069" lon="4.83027">
        <ele>242</ele>
        <time>2018-05-23T09:58:27Z</time>
      </trkpt>
      <trkpt lat="45.96069" lon="4.8302">
        <ele>242</ele>
        <time>2018-05-23T09:58:28Z</time>
      </trkpt>
      <trkpt lat="45.96071" lon="4.83012">
        <ele>242</ele>
        <time>2018-05-23T09:58:29Z</time>
      </trkpt>
      <trkpt lat="45.96071" lon="4.83004">
        <ele>241</ele>
        <time>2018-05-23T09:58:30Z</time>
      </trkpt>
      <trkpt lat="45.96072" lon="4.82995">
        <ele>240</ele>
        <time>2018-05-23T09:58:31Z</time>
      </trkpt>
      <trkpt lat="45.96073" lon="4.82985">
        <ele>241</ele>
        <time>2018-05-23T09:58:32Z</time>
      </trkpt>
      <trkpt lat="45.96074" lon="4.82976">
        <ele>241</ele>
        <time>2018-05-23T09:58:33Z</time>
      </trkpt>
      <trkpt lat="45.96075" lon="4.82968">
        <ele>241</ele>
        <time>2018-05-23T09:58:34Z</time>
      </trkpt>
      <trkpt lat="45.96078" lon="4.82959">
        <ele>241</ele>
        <time>2018-05-23T09:58:35Z</time>
      </trkpt>
      <trkpt lat="45.96078" lon="4.82952">
        <ele>241</ele>
        <time>2018-05-23T09:58:36Z</time>
      </trkpt>
      <trkpt lat="45.96079" lon="4.8294">
        <ele>240</ele>
        <time>2018-05-23T09:58:37Z</time>
      </trkpt>
      <trkpt lat="45.96082" lon="4.82931">
        <ele>240</ele>
        <time>2018-05-23T09:58:38Z</time>
      </trkpt>
      <trkpt lat="45.96085" lon="4.82923">
        <ele>238</ele>
        <time>2018-05-23T09:58:39Z</time>
      </trkpt>
      <trkpt lat="45.96088" lon="4.82916">
        <ele>238</ele>
        <time>2018-05-23T09:58:40Z</time>
      </trkpt>
      <trkpt lat="45.96088" lon="4.82906">
        <ele>238</ele>
        <time>2018-05-23T09:58:41Z</time>
      </trkpt>
      <trkpt lat="45.9609" lon="4.82898">
        <ele>238</ele>
        <time>2018-05-23T09:58:42Z</time>
      </trkpt>
      <trkpt lat="45.96092" lon="4.82894">
        <ele>237</ele>
        <time>2018-05-23T09:58:43Z</time>
      </trkpt>
      <trkpt lat="45.96094" lon="4.82887">
        <ele>237</ele>
        <time>2018-05-23T09:58:44Z</time>
      </trkpt>
      <trkpt lat="45.96095" lon="4.8288">
        <ele>237</ele>
        <time>2018-05-23T09:58:45Z</time>
      </trkpt>
      <trkpt lat="45.96097" lon="4.82873">
        <ele>237</ele>
        <time>2018-05-23T09:58:46Z</time>
      </trkpt>
      <trkpt lat="45.96098" lon="4.82866">
        <ele>237</ele>
        <time>2018-05-23T09:58:47Z</time>
      </trkpt>
      <trkpt lat="45.961" lon="4.82857">
        <ele>237</ele>
        <time>2018-05-23T09:58:48Z</time>
      </trkpt>
      <trkpt lat="45.961" lon="4.82848">
        <ele>237</ele>
        <time>2018-05-23T09:58:49Z</time>
      </trkpt>
      <trkpt lat="45.961" lon="4.82841">
        <ele>237</ele>
        <time>2018-05-23T09:58:50Z</time>
      </trkpt>
      <trkpt lat="45.96099" lon="4.82831">
        <ele>237</ele>
        <time>2018-05-23T09:58:51Z</time>
      </trkpt>
      <trkpt lat="45.96097" lon="4.82823">
        <ele>237</ele>
        <time>2018-05-23T09:58:52Z</time>
      </trkpt>
      <trkpt lat="45.96095" lon="4.82816">
        <ele>237</ele>
        <time>2018-05-23T09:58:53Z</time>
      </trkpt>
      <trkpt lat="45.96094" lon="4.82808">
        <ele>237</ele>
        <time>2018-05-23T09:58:54Z</time>
      </trkpt>
      <trkpt lat="45.96092" lon="4.82799">
        <ele>237</ele>
        <time>2018-05-23T09:58:55Z</time>
      </trkpt>
      <trkpt lat="45.9609" lon="4.82793">
        <ele>237</ele>
        <time>2018-05-23T09:58:56Z</time>
      </trkpt>
      <trkpt lat="45.96089" lon="4.82784">
        <ele>237</ele>
        <time>2018-05-23T09:58:57Z</time>
      </trkpt>
      <trkpt lat="45.96087" lon="4.82776">
        <ele>237</ele>
        <time>2018-05-23T09:58:58Z</time>
      </trkpt>
      <trkpt lat="45.96085" lon="4.82769">
        <ele>237</ele>
        <time>2018-05-23T09:58:59Z</time>
      </trkpt>
      <trkpt lat="45.96082" lon="4.82761">
        <ele>237</ele>
        <time>2018-05-23T09:59:00Z</time>
      </trkpt>
      <trkpt lat="45.9608" lon="4.82754">
        <ele>237</ele>
        <time>2018-05-23T09:59:01Z</time>
      </trkpt>
      <trkpt lat="45.96078" lon="4.82746">
        <ele>237</ele>
        <time>2018-05-23T09:59:02Z</time>
      </trkpt>
      <trkpt lat="45.96074" lon="4.82739">
        <ele>237</ele>
        <time>2018-05-23T09:59:03Z</time>
      </trkpt>
      <trkpt lat="45.96072" lon="4.82732">
        <ele>237</ele>
        <time>2018-05-23T09:59:04Z</time>
      </trkpt>
      <trkpt lat="45.96069" lon="4.82724">
        <ele>237</ele>
        <time>2018-05-23T09:59:05Z</time>
      </trkpt>
      <trkpt lat="45.96067" lon="4.82717">
        <ele>237</ele>
        <time>2018-05-23T09:59:06Z</time>
      </trkpt>
      <trkpt lat="45.96064" lon="4.82711">
        <ele>237</ele>
        <time>2018-05-23T09:59:07Z</time>
      </trkpt>
      <trkpt lat="45.96062" lon="4.82704">
        <ele>237</ele>
        <time>2018-05-23T09:59:08Z</time>
      </trkpt>
      <trkpt lat="45.96059" lon="4.82697">
        <ele>237</ele>
        <time>2018-05-23T09:59:09Z</time>
      </trkpt>
      <trkpt lat="45.96057" lon="4.8269">
        <ele>236</ele>
        <time>2018-05-23T09:59:10Z</time>
      </trkpt>
      <trkpt lat="45.96055" lon="4.82683">
        <ele>236</ele>
        <time>2018-05-23T09:59:11Z</time>
      </trkpt>
      <trkpt lat="45.96052" lon="4.82675">
        <ele>236</ele>
        <time>2018-05-23T09:59:12Z</time>
      </trkpt>
      <trkpt lat="45.96049" lon="4.82668">
        <ele>236</ele>
        <time>2018-05-23T09:59:13Z</time>
      </trkpt>
      <trkpt lat="45.96047" lon="4.82661">
        <ele>235</ele>
        <time>2018-05-23T09:59:14Z</time>
      </trkpt>
      <trkpt lat="45.96044" lon="4.82654">
        <ele>235</ele>
        <time>2018-05-23T09:59:15Z</time>
      </trkpt>
      <trkpt lat="45.96043" lon="4.82647">
        <ele>235</ele>
        <time>2018-05-23T09:59:16Z</time>
      </trkpt>
      <trkpt lat="45.9604" lon="4.8264">
        <ele>235</ele>
        <time>2018-05-23T09:59:17Z</time>
      </trkpt>
      <trkpt lat="45.96038" lon="4.82633">
        <ele>235</ele>
        <time>2018-05-23T09:59:18Z</time>
      </trkpt>
      <trkpt lat="45.96035" lon="4.82626">
        <ele>235</ele>
        <time>2018-05-23T09:59:19Z</time>
      </trkpt>
      <trkpt lat="45.96032" lon="4.82619">
        <ele>235</ele>
        <time>2018-05-23T09:59:20Z</time>
      </trkpt>
      <trkpt lat="45.96029" lon="4.8261">
        <ele>235</ele>
        <time>2018-05-23T09:59:21Z</time>
      </trkpt>
      <trkpt lat="45.96025" lon="4.82602">
        <ele>235</ele>
        <time>2018-05-23T09:59:22Z</time>
      </trkpt>
      <trkpt lat="45.96023" lon="4.82595">
        <ele>235</ele>
        <time>2018-05-23T09:59:23Z</time>
      </trkpt>
      <trkpt lat="45.96021" lon="4.82587">
        <ele>235</ele>
        <time>2018-05-23T09:59:24Z</time>
      </trkpt>
      <trkpt lat="45.96019" lon="4.82579">
        <ele>234</ele>
        <time>2018-05-23T09:59:25Z</time>
      </trkpt>
      <trkpt lat="45.96019" lon="4.82571">
        <ele>235</ele>
        <time>2018-05-23T09:59:26Z</time>
      </trkpt>
      <trkpt lat="45.96018" lon="4.8256">
        <ele>235</ele>
        <time>2018-05-23T09:59:27Z</time>
      </trkpt>
      <trkpt lat="45.96017" lon="4.82552">
        <ele>235</ele>
        <time>2018-05-23T09:59:28Z</time>
      </trkpt>
      <trkpt lat="45.96018" lon="4.82544">
        <ele>235</ele>
        <time>2018-05-23T09:59:29Z</time>
      </trkpt>
      <trkpt lat="45.96018" lon="4.82533">
        <ele>235</ele>
        <time>2018-05-23T09:59:30Z</time>
      </trkpt>
      <trkpt lat="45.96018" lon="4.82525">
        <ele>235</ele>
        <time>2018-05-23T09:59:31Z</time>
      </trkpt>
      <trkpt lat="45.96018" lon="4.82519">
        <ele>235</ele>
        <time>2018-05-23T09:59:32Z</time>
      </trkpt>
      <trkpt lat="45.96017" lon="4.8251">
        <ele>235</ele>
        <time>2018-05-23T09:59:33Z</time>
      </trkpt>
      <trkpt lat="45.96017" lon="4.82502">
        <ele>235</ele>
        <time>2018-05-23T09:59:34Z</time>
      </trkpt>
      <trkpt lat="45.96019" lon="4.82494">
        <ele>235</ele>
        <time>2018-05-23T09:59:35Z</time>
      </trkpt>
      <trkpt lat="45.96019" lon="4.82485">
        <ele>235</ele>
        <time>2018-05-23T09:59:36Z</time>
      </trkpt>
      <trkpt lat="45.96019" lon="4.82478">
        <ele>235</ele>
        <time>2018-05-23T09:59:37Z</time>
      </trkpt>
      <trkpt lat="45.96019" lon="4.8247">
        <ele>235</ele>
        <time>2018-05-23T09:59:38Z</time>
      </trkpt>
      <trkpt lat="45.9602" lon="4.82462">
        <ele>235</ele>
        <time>2018-05-23T09:59:39Z</time>
      </trkpt>
      <trkpt lat="45.96021" lon="4.82455">
        <ele>235</ele>
        <time>2018-05-23T09:59:40Z</time>
      </trkpt>
      <trkpt lat="45.96022" lon="4.82445">
        <ele>235</ele>
        <time>2018-05-23T09:59:41Z</time>
      </trkpt>
      <trkpt lat="45.96022" lon="4.82437">
        <ele>235</ele>
        <time>2018-05-23T09:59:42Z</time>
      </trkpt>
      <trkpt lat="45.96023" lon="4.8243">
        <ele>235</ele>
        <time>2018-05-23T09:59:43Z</time>
      </trkpt>
      <trkpt lat="45.96023" lon="4.82423">
        <ele>235</ele>
        <time>2018-05-23T09:59:44Z</time>
      </trkpt>
      <trkpt lat="45.96024" lon="4.82415">
        <ele>235</ele>
        <time>2018-05-23T09:59:45Z</time>
      </trkpt>
      <trkpt lat="45.96024" lon="4.82407">
        <ele>235</ele>
        <time>2018-05-23T09:59:46Z</time>
      </trkpt>
      <trkpt lat="45.96025" lon="4.824">
        <ele>235</ele>
        <time>2018-05-23T09:59:47Z</time>
      </trkpt>
      <trkpt lat="45.96027" lon="4.82393">
        <ele>235</ele>
        <time>2018-05-23T09:59:48Z</time>
      </trkpt>
      <trkpt lat="45.96028" lon="4.82387">
        <ele>235</ele>
        <time>2018-05-23T09:59:49Z</time>
      </trkpt>
      <trkpt lat="45.9603" lon="4.8238">
        <ele>235</ele>
        <time>2018-05-23T09:59:50Z</time>
      </trkpt>
      <trkpt lat="45.96032" lon="4.82369">
        <ele>235</ele>
        <time>2018-05-23T09:59:52Z</time>
      </trkpt>
      <trkpt lat="45.96031" lon="4.82366">
        <ele>235</ele>
        <time>2018-05-23T09:59:53Z</time>
      </trkpt>
      <trkpt lat="45.96025" lon="4.82361">
        <ele>235</ele>
        <time>2018-05-23T09:59:56Z</time>
      </trkpt>
      <trkpt lat="45.96022" lon="4.8236">
        <ele>235</ele>
        <time>2018-05-23T09:59:57Z</time>
      </trkpt>
      <trkpt lat="45.96014" lon="4.82357">
        <ele>235</ele>
        <time>2018-05-23T09:59:58Z</time>
      </trkpt>
      <trkpt lat="45.9601" lon="4.82356">
        <ele>235</ele>
        <time>2018-05-23T09:59:59Z</time>
      </trkpt>
      <trkpt lat="45.96004" lon="4.82354">
        <ele>235</ele>
        <time>2018-05-23T10:00:01Z</time>
      </trkpt>
      <trkpt lat="45.95998" lon="4.82352">
        <ele>236</ele>
        <time>2018-05-23T10:00:02Z</time>
      </trkpt>
      <trkpt lat="45.95991" lon="4.82352">
        <ele>236</ele>
        <time>2018-05-23T10:00:04Z</time>
      </trkpt>
      <trkpt lat="45.95988" lon="4.82352">
        <ele>236</ele>
        <time>2018-05-23T10:00:05Z</time>
      </trkpt>
      <trkpt lat="45.95981" lon="4.82352">
        <ele>236</ele>
        <time>2018-05-23T10:00:07Z</time>
      </trkpt>
      <trkpt lat="45.95977" lon="4.82353">
        <ele>237</ele>
        <time>2018-05-23T10:00:08Z</time>
      </trkpt>
      <trkpt lat="45.95969" lon="4.82355">
        <ele>237</ele>
        <time>2018-05-23T10:00:11Z</time>
      </trkpt>
      <trkpt lat="45.95967" lon="4.82356">
        <ele>237</ele>
        <time>2018-05-23T10:00:12Z</time>
      </trkpt>
      <trkpt lat="45.9596" lon="4.82359">
        <ele>237</ele>
        <time>2018-05-23T10:00:15Z</time>
      </trkpt>
      <trkpt lat="45.95957" lon="4.8236">
        <ele>237</ele>
        <time>2018-05-23T10:00:16Z</time>
      </trkpt>
      <trkpt lat="45.95949" lon="4.82361">
        <ele>237</ele>
        <time>2018-05-23T10:00:19Z</time>
      </trkpt>
      <trkpt lat="45.95946" lon="4.82361">
        <ele>237</ele>
        <time>2018-05-23T10:00:20Z</time>
      </trkpt>
      <trkpt lat="45.95938" lon="4.82361">
        <ele>238</ele>
        <time>2018-05-23T10:00:23Z</time>
      </trkpt>
      <trkpt lat="45.95935" lon="4.82361">
        <ele>238</ele>
        <time>2018-05-23T10:00:24Z</time>
      </trkpt>
      <trkpt lat="45.95926" lon="4.82362">
        <ele>238</ele>
        <time>2018-05-23T10:00:27Z</time>
      </trkpt>
      <trkpt lat="45.95924" lon="4.82363">
        <ele>238</ele>
        <time>2018-05-23T10:00:28Z</time>
      </trkpt>
      <trkpt lat="45.95915" lon="4.82364">
        <ele>242</ele>
        <time>2018-05-23T10:00:31Z</time>
      </trkpt>
      <trkpt lat="45.95913" lon="4.82364">
        <ele>242</ele>
        <time>2018-05-23T10:00:32Z</time>
      </trkpt>
      <trkpt lat="45.95905" lon="4.82364">
        <ele>242</ele>
        <time>2018-05-23T10:00:35Z</time>
      </trkpt>
      <trkpt lat="45.95902" lon="4.82365">
        <ele>242</ele>
        <time>2018-05-23T10:00:36Z</time>
      </trkpt>
      <trkpt lat="45.95896" lon="4.82366">
        <ele>243</ele>
        <time>2018-05-23T10:00:39Z</time>
      </trkpt>
      <trkpt lat="45.95893" lon="4.82366">
        <ele>243</ele>
        <time>2018-05-23T10:00:40Z</time>
      </trkpt>
      <trkpt lat="45.95886" lon="4.82367">
        <ele>243</ele>
        <time>2018-05-23T10:00:43Z</time>
      </trkpt>
      <trkpt lat="45.95884" lon="4.82368">
        <ele>244</ele>
        <time>2018-05-23T10:00:44Z</time>
      </trkpt>
      <trkpt lat="45.95877" lon="4.82367">
        <ele>244</ele>
        <time>2018-05-23T10:00:47Z</time>
      </trkpt>
      <trkpt lat="45.95874" lon="4.82367">
        <ele>244</ele>
        <time>2018-05-23T10:00:48Z</time>
      </trkpt>
      <trkpt lat="45.95865" lon="4.82369">
        <ele>245</ele>
        <time>2018-05-23T10:00:52Z</time>
      </trkpt>
      <trkpt lat="45.95863" lon="4.82369">
        <ele>245</ele>
        <time>2018-05-23T10:00:53Z</time>
      </trkpt>
      <trkpt lat="45.95856" lon="4.82369">
        <ele>245</ele>
        <time>2018-05-23T10:00:56Z</time>
      </trkpt>
      <trkpt lat="45.95854" lon="4.82369">
        <ele>245</ele>
        <time>2018-05-23T10:00:57Z</time>
      </trkpt>
      <trkpt lat="45.95846" lon="4.8237">
        <ele>246</ele>
        <time>2018-05-23T10:01:01Z</time>
      </trkpt>
      <trkpt lat="45.95844" lon="4.8237">
        <ele>246</ele>
        <time>2018-05-23T10:01:02Z</time>
      </trkpt>
      <trkpt lat="45.95836" lon="4.8237">
        <ele>246</ele>
        <time>2018-05-23T10:01:06Z</time>
      </trkpt>
      <trkpt lat="45.95834" lon="4.8237">
        <ele>246</ele>
        <time>2018-05-23T10:01:07Z</time>
      </trkpt>
      <trkpt lat="45.95827" lon="4.82369">
        <ele>251</ele>
        <time>2018-05-23T10:01:10Z</time>
      </trkpt>
      <trkpt lat="45.95825" lon="4.82368">
        <ele>251</ele>
        <time>2018-05-23T10:01:11Z</time>
      </trkpt>
      <trkpt lat="45.95818" lon="4.82367">
        <ele>252</ele>
        <time>2018-05-23T10:01:14Z</time>
      </trkpt>
      <trkpt lat="45.95815" lon="4.82366">
        <ele>252</ele>
        <time>2018-05-23T10:01:15Z</time>
      </trkpt>
      <trkpt lat="45.95807" lon="4.82363">
        <ele>252</ele>
        <time>2018-05-23T10:01:19Z</time>
      </trkpt>
      <trkpt lat="45.95805" lon="4.82363">
        <ele>252</ele>
        <time>2018-05-23T10:01:20Z</time>
      </trkpt>
      <trkpt lat="45.95798" lon="4.8236">
        <ele>252</ele>
        <time>2018-05-23T10:01:24Z</time>
      </trkpt>
      <trkpt lat="45.95796" lon="4.82359">
        <ele>252</ele>
        <time>2018-05-23T10:01:25Z</time>
      </trkpt>
      <trkpt lat="45.95787" lon="4.82354">
        <ele>253</ele>
        <time>2018-05-23T10:01:29Z</time>
      </trkpt>
      <trkpt lat="45.95785" lon="4.82352">
        <ele>253</ele>
        <time>2018-05-23T10:01:30Z</time>
      </trkpt>
      <trkpt lat="45.95779" lon="4.82345">
        <ele>253</ele>
        <time>2018-05-23T10:01:33Z</time>
      </trkpt>
      <trkpt lat="45.95776" lon="4.82343">
        <ele>253</ele>
        <time>2018-05-23T10:01:34Z</time>
      </trkpt>
      <trkpt lat="45.9577" lon="4.82335">
        <ele>254</ele>
        <time>2018-05-23T10:01:37Z</time>
      </trkpt>
      <trkpt lat="45.95767" lon="4.82332">
        <ele>253</ele>
        <time>2018-05-23T10:01:38Z</time>
      </trkpt>
      <trkpt lat="45.95762" lon="4.82325">
        <ele>253</ele>
        <time>2018-05-23T10:01:41Z</time>
      </trkpt>
      <trkpt lat="45.9576" lon="4.82322">
        <ele>253</ele>
        <time>2018-05-23T10:01:42Z</time>
      </trkpt>
      <trkpt lat="45.95753" lon="4.82315">
        <ele>253</ele>
        <time>2018-05-23T10:01:45Z</time>
      </trkpt>
      <trkpt lat="45.95751" lon="4.82313">
        <ele>253</ele>
        <time>2018-05-23T10:01:46Z</time>
      </trkpt>
      <trkpt lat="45.95744" lon="4.82306">
        <ele>255</ele>
        <time>2018-05-23T10:01:49Z</time>
      </trkpt>
      <trkpt lat="45.95741" lon="4.82304">
        <ele>255</ele>
        <time>2018-05-23T10:01:50Z</time>
      </trkpt>
      <trkpt lat="45.95735" lon="4.82298">
        <ele>255</ele>
        <time>2018-05-23T10:01:53Z</time>
      </trkpt>
      <trkpt lat="45.95733" lon="4.82295">
        <ele>255</ele>
        <time>2018-05-23T10:01:54Z</time>
      </trkpt>
      <trkpt lat="45.95726" lon="4.82287">
        <ele>255</ele>
        <time>2018-05-23T10:01:57Z</time>
      </trkpt>
      <trkpt lat="45.95724" lon="4.82285">
        <ele>255</ele>
        <time>2018-05-23T10:01:58Z</time>
      </trkpt>
      <trkpt lat="45.95718" lon="4.8228">
        <ele>255</ele>
        <time>2018-05-23T10:02:00Z</time>
      </trkpt>
      <trkpt lat="45.95716" lon="4.82277">
        <ele>255</ele>
        <time>2018-05-23T10:02:01Z</time>
      </trkpt>
      <trkpt lat="45.9571" lon="4.82273">
        <ele>255</ele>
        <time>2018-05-23T10:02:03Z</time>
      </trkpt>
      <trkpt lat="45.95707" lon="4.8227">
        <ele>255</ele>
        <time>2018-05-23T10:02:04Z</time>
      </trkpt>
      <trkpt lat="45.95702" lon="4.82264">
        <ele>255</ele>
        <time>2018-05-23T10:02:06Z</time>
      </trkpt>
      <trkpt lat="45.95699" lon="4.82261">
        <ele>255</ele>
        <time>2018-05-23T10:02:07Z</time>
      </trkpt>
      <trkpt lat="45.95696" lon="4.82258">
        <ele>255</ele>
        <time>2018-05-23T10:02:08Z</time>
      </trkpt>
      <trkpt lat="45.95688" lon="4.8225">
        <ele>255</ele>
        <time>2018-05-23T10:02:09Z</time>
      </trkpt>
      <trkpt lat="45.95683" lon="4.82244">
        <ele>255</ele>
        <time>2018-05-23T10:02:12Z</time>
      </trkpt>
      <trkpt lat="45.95681" lon="4.82241">
        <ele>255</ele>
        <time>2018-05-23T10:02:13Z</time>
      </trkpt>
      <trkpt lat="45.95674" lon="4.82235">
        <ele>255</ele>
        <time>2018-05-23T10:02:16Z</time>
      </trkpt>
      <trkpt lat="45.95672" lon="4.82233">
        <ele>255</ele>
        <time>2018-05-23T10:02:17Z</time>
      </trkpt>
      <trkpt lat="45.95664" lon="4.82227">
        <ele>257</ele>
        <time>2018-05-23T10:02:20Z</time>
      </trkpt>
      <trkpt lat="45.95662" lon="4.82225">
        <ele>257</ele>
        <time>2018-05-23T10:02:21Z</time>
      </trkpt>
      <trkpt lat="45.95654" lon="4.82221">
        <ele>257</ele>
        <time>2018-05-23T10:02:24Z</time>
      </trkpt>
      <trkpt lat="45.95651" lon="4.82221">
        <ele>257</ele>
        <time>2018-05-23T10:02:25Z</time>
      </trkpt>
      <trkpt lat="45.95644" lon="4.82221">
        <ele>257</ele>
        <time>2018-05-23T10:02:27Z</time>
      </trkpt>
      <trkpt lat="45.95641" lon="4.82221">
        <ele>257</ele>
        <time>2018-05-23T10:02:28Z</time>
      </trkpt>
      <trkpt lat="45.95635" lon="4.82221">
        <ele>257</ele>
        <time>2018-05-23T10:02:30Z</time>
      </trkpt>
      <trkpt lat="45.95631" lon="4.82221">
        <ele>257</ele>
        <time>2018-05-23T10:02:31Z</time>
      </trkpt>
      <trkpt lat="45.95625" lon="4.82222">
        <ele>257</ele>
        <time>2018-05-23T10:02:33Z</time>
      </trkpt>
      <trkpt lat="45.95622" lon="4.82223">
        <ele>257</ele>
        <time>2018-05-23T10:02:34Z</time>
      </trkpt>
      <trkpt lat="45.95615" lon="4.82224">
        <ele>257</ele>
        <time>2018-05-23T10:02:36Z</time>
      </trkpt>
      <trkpt lat="45.95612" lon="4.82225">
        <ele>257</ele>
        <time>2018-05-23T10:02:37Z</time>
      </trkpt>
      <trkpt lat="45.95605" lon="4.82226">
        <ele>257</ele>
        <time>2018-05-23T10:02:39Z</time>
      </trkpt>
      <trkpt lat="45.95602" lon="4.82226">
        <ele>257</ele>
        <time>2018-05-23T10:02:40Z</time>
      </trkpt>
      <trkpt lat="45.95595" lon="4.82224">
        <ele>257</ele>
        <time>2018-05-23T10:02:42Z</time>
      </trkpt>
      <trkpt lat="45.95592" lon="4.82223">
        <ele>257</ele>
        <time>2018-05-23T10:02:43Z</time>
      </trkpt>
      <trkpt lat="45.95585" lon="4.8222">
        <ele>257</ele>
        <time>2018-05-23T10:02:45Z</time>
      </trkpt>
      <trkpt lat="45.95582" lon="4.82217">
        <ele>258</ele>
        <time>2018-05-23T10:02:46Z</time>
      </trkpt>
      <trkpt lat="45.95576" lon="4.82212">
        <ele>258</ele>
        <time>2018-05-23T10:02:48Z</time>
      </trkpt>
      <trkpt lat="45.95574" lon="4.82209">
        <ele>258</ele>
        <time>2018-05-23T10:02:49Z</time>
      </trkpt>
      <trkpt lat="45.95568" lon="4.82203">
        <ele>258</ele>
        <time>2018-05-23T10:02:51Z</time>
      </trkpt>
      <trkpt lat="45.95565" lon="4.82201">
        <ele>258</ele>
        <time>2018-05-23T10:02:52Z</time>
      </trkpt>
      <trkpt lat="45.95556" lon="4.82194">
        <ele>259</ele>
        <time>2018-05-23T10:02:53Z</time>
      </trkpt>
      <trkpt lat="45.9555" lon="4.82189">
        <ele>259</ele>
        <time>2018-05-23T10:02:56Z</time>
      </trkpt>
      <trkpt lat="45.95547" lon="4.82187">
        <ele>259</ele>
        <time>2018-05-23T10:02:57Z</time>
      </trkpt>
      <trkpt lat="45.95542" lon="4.82183">
        <ele>259</ele>
        <time>2018-05-23T10:02:59Z</time>
      </trkpt>
      <trkpt lat="45.95533" lon="4.82177">
        <ele>259</ele>
        <time>2018-05-23T10:03:00Z</time>
      </trkpt>
      <trkpt lat="45.95527" lon="4.8217">
        <ele>259</ele>
        <time>2018-05-23T10:03:02Z</time>
      </trkpt>
      <trkpt lat="45.95524" lon="4.82167">
        <ele>259</ele>
        <time>2018-05-23T10:03:03Z</time>
      </trkpt>
      <trkpt lat="45.95518" lon="4.82161">
        <ele>259</ele>
        <time>2018-05-23T10:03:05Z</time>
      </trkpt>
      <trkpt lat="45.95515" lon="4.82157">
        <ele>259</ele>
        <time>2018-05-23T10:03:06Z</time>
      </trkpt>
      <trkpt lat="45.95508" lon="4.82152">
        <ele>259</ele>
        <time>2018-05-23T10:03:09Z</time>
      </trkpt>
      <trkpt lat="45.95506" lon="4.8215">
        <ele>259</ele>
        <time>2018-05-23T10:03:10Z</time>
      </trkpt>
      <trkpt lat="45.95499" lon="4.82144">
        <ele>260</ele>
        <time>2018-05-23T10:03:13Z</time>
      </trkpt>
      <trkpt lat="45.95497" lon="4.82141">
        <ele>260</ele>
        <time>2018-05-23T10:03:14Z</time>
      </trkpt>
      <trkpt lat="45.95494" lon="4.82139">
        <ele>260</ele>
        <time>2018-05-23T10:03:15Z</time>
      </trkpt>
      <trkpt lat="45.95486" lon="4.82131">
        <ele>260</ele>
        <time>2018-05-23T10:03:16Z</time>
      </trkpt>
      <trkpt lat="45.9548" lon="4.82125">
        <ele>260</ele>
        <time>2018-05-23T10:03:18Z</time>
      </trkpt>
      <trkpt lat="45.95476" lon="4.82121">
        <ele>260</ele>
        <time>2018-05-23T10:03:19Z</time>
      </trkpt>
      <trkpt lat="45.95473" lon="4.82117">
        <ele>260</ele>
        <time>2018-05-23T10:03:20Z</time>
      </trkpt>
      <trkpt lat="45.95469" lon="4.82113">
        <ele>260</ele>
        <time>2018-05-23T10:03:21Z</time>
      </trkpt>
      <trkpt lat="45.95464" lon="4.82111">
        <ele>260</ele>
        <time>2018-05-23T10:03:22Z</time>
      </trkpt>
      <trkpt lat="45.95461" lon="4.82107">
        <ele>260</ele>
        <time>2018-05-23T10:03:23Z</time>
      </trkpt>
      <trkpt lat="45.95457" lon="4.82103">
        <ele>260</ele>
        <time>2018-05-23T10:03:24Z</time>
      </trkpt>
      <trkpt lat="45.95453" lon="4.82099">
        <ele>260</ele>
        <time>2018-05-23T10:03:25Z</time>
      </trkpt>
      <trkpt lat="45.95449" lon="4.82095">
        <ele>260</ele>
        <time>2018-05-23T10:03:26Z</time>
      </trkpt>
      <trkpt lat="45.95446" lon="4.82091">
        <ele>260</ele>
        <time>2018-05-23T10:03:27Z</time>
      </trkpt>
      <trkpt lat="45.95444" lon="4.82083">
        <ele>260</ele>
        <time>2018-05-23T10:03:28Z</time>
      </trkpt>
      <trkpt lat="45.95439" lon="4.82078">
        <ele>260</ele>
        <time>2018-05-23T10:03:29Z</time>
      </trkpt>
      <trkpt lat="45.95436" lon="4.82073">
        <ele>260</ele>
        <time>2018-05-23T10:03:30Z</time>
      </trkpt>
      <trkpt lat="45.95432" lon="4.82069">
        <ele>260</ele>
        <time>2018-05-23T10:03:31Z</time>
      </trkpt>
      <trkpt lat="45.95425" lon="4.82062">
        <ele>260</ele>
        <time>2018-05-23T10:03:33Z</time>
      </trkpt>
      <trkpt lat="45.9542" lon="4.82059">
        <ele>260</ele>
        <time>2018-05-23T10:03:34Z</time>
      </trkpt>
      <trkpt lat="45.95413" lon="4.82052">
        <ele>261</ele>
        <time>2018-05-23T10:03:36Z</time>
      </trkpt>
      <trkpt lat="45.9541" lon="4.82048">
        <ele>261</ele>
        <time>2018-05-23T10:03:37Z</time>
      </trkpt>
      <trkpt lat="45.95406" lon="4.82045">
        <ele>261</ele>
        <time>2018-05-23T10:03:38Z</time>
      </trkpt>
      <trkpt lat="45.95401" lon="4.82041">
        <ele>261</ele>
        <time>2018-05-23T10:03:39Z</time>
      </trkpt>
      <trkpt lat="45.95395" lon="4.82033">
        <ele>261</ele>
        <time>2018-05-23T10:03:41Z</time>
      </trkpt>
      <trkpt lat="45.95391" lon="4.82028">
        <ele>261</ele>
        <time>2018-05-23T10:03:42Z</time>
      </trkpt>
      <trkpt lat="45.95387" lon="4.82023">
        <ele>261</ele>
        <time>2018-05-23T10:03:43Z</time>
      </trkpt>
      <trkpt lat="45.95383" lon="4.8202">
        <ele>262</ele>
        <time>2018-05-23T10:03:44Z</time>
      </trkpt>
      <trkpt lat="45.95378" lon="4.82015">
        <ele>262</ele>
        <time>2018-05-23T10:03:45Z</time>
      </trkpt>
      <trkpt lat="45.95374" lon="4.82011">
        <ele>262</ele>
        <time>2018-05-23T10:03:46Z</time>
      </trkpt>
      <trkpt lat="45.95371" lon="4.82007">
        <ele>262</ele>
        <time>2018-05-23T10:03:47Z</time>
      </trkpt>
      <trkpt lat="45.95367" lon="4.82002">
        <ele>262</ele>
        <time>2018-05-23T10:03:48Z</time>
      </trkpt>
      <trkpt lat="45.95364" lon="4.81998">
        <ele>261</ele>
        <time>2018-05-23T10:03:49Z</time>
      </trkpt>
      <trkpt lat="45.9536" lon="4.81994">
        <ele>261</ele>
        <time>2018-05-23T10:03:50Z</time>
      </trkpt>
      <trkpt lat="45.95352" lon="4.81987">
        <ele>262</ele>
        <time>2018-05-23T10:03:52Z</time>
      </trkpt>
      <trkpt lat="45.95349" lon="4.81982">
        <ele>262</ele>
        <time>2018-05-23T10:03:53Z</time>
      </trkpt>
      <trkpt lat="45.95344" lon="4.81979">
        <ele>262</ele>
        <time>2018-05-23T10:03:54Z</time>
      </trkpt>
      <trkpt lat="45.95341" lon="4.81976">
        <ele>262</ele>
        <time>2018-05-23T10:03:55Z</time>
      </trkpt>
      <trkpt lat="45.95337" lon="4.81972">
        <ele>262</ele>
        <time>2018-05-23T10:03:56Z</time>
      </trkpt>
      <trkpt lat="45.95333" lon="4.81968">
        <ele>262</ele>
        <time>2018-05-23T10:03:57Z</time>
      </trkpt>
      <trkpt lat="45.95326" lon="4.8196">
        <ele>262</ele>
        <time>2018-05-23T10:03:59Z</time>
      </trkpt>
      <trkpt lat="45.95323" lon="4.81955">
        <ele>262</ele>
        <time>2018-05-23T10:04:00Z</time>
      </trkpt>
      <trkpt lat="45.95319" lon="4.81951">
        <ele>262</ele>
        <time>2018-05-23T10:04:01Z</time>
      </trkpt>
      <trkpt lat="45.95314" lon="4.81948">
        <ele>262</ele>
        <time>2018-05-23T10:04:02Z</time>
      </trkpt>
      <trkpt lat="45.9531" lon="4.81943">
        <ele>261</ele>
        <time>2018-05-23T10:04:03Z</time>
      </trkpt>
      <trkpt lat="45.95307" lon="4.81939">
        <ele>261</ele>
        <time>2018-05-23T10:04:04Z</time>
      </trkpt>
      <trkpt lat="45.95303" lon="4.81934">
        <ele>261</ele>
        <time>2018-05-23T10:04:05Z</time>
      </trkpt>
      <trkpt lat="45.95299" lon="4.81929">
        <ele>261</ele>
        <time>2018-05-23T10:04:06Z</time>
      </trkpt>
      <trkpt lat="45.95296" lon="4.81925">
        <ele>261</ele>
        <time>2018-05-23T10:04:07Z</time>
      </trkpt>
      <trkpt lat="45.95292" lon="4.8192">
        <ele>261</ele>
        <time>2018-05-23T10:04:08Z</time>
      </trkpt>
      <trkpt lat="45.95288" lon="4.81914">
        <ele>260</ele>
        <time>2018-05-23T10:04:09Z</time>
      </trkpt>
      <trkpt lat="45.95285" lon="4.81909">
        <ele>260</ele>
        <time>2018-05-23T10:04:10Z</time>
      </trkpt>
      <trkpt lat="45.95281" lon="4.81905">
        <ele>260</ele>
        <time>2018-05-23T10:04:11Z</time>
      </trkpt>
      <trkpt lat="45.95278" lon="4.81899">
        <ele>260</ele>
        <time>2018-05-23T10:04:12Z</time>
      </trkpt>
      <trkpt lat="45.95274" lon="4.81893">
        <ele>260</ele>
        <time>2018-05-23T10:04:13Z</time>
      </trkpt>
      <trkpt lat="45.9527" lon="4.81888">
        <ele>260</ele>
        <time>2018-05-23T10:04:14Z</time>
      </trkpt>
      <trkpt lat="45.95267" lon="4.81883">
        <ele>260</ele>
        <time>2018-05-23T10:04:15Z</time>
      </trkpt>
      <trkpt lat="45.95264" lon="4.81877">
        <ele>260</ele>
        <time>2018-05-23T10:04:16Z</time>
      </trkpt>
      <trkpt lat="45.9526" lon="4.81872">
        <ele>260</ele>
        <time>2018-05-23T10:04:17Z</time>
      </trkpt>
      <trkpt lat="45.95256" lon="4.81867">
        <ele>260</ele>
        <time>2018-05-23T10:04:18Z</time>
      </trkpt>
      <trkpt lat="45.95253" lon="4.81861">
        <ele>260</ele>
        <time>2018-05-23T10:04:19Z</time>
      </trkpt>
      <trkpt lat="45.95249" lon="4.81856">
        <ele>260</ele>
        <time>2018-05-23T10:04:20Z</time>
      </trkpt>
      <trkpt lat="45.95245" lon="4.8185">
        <ele>260</ele>
        <time>2018-05-23T10:04:21Z</time>
      </trkpt>
      <trkpt lat="45.95241" lon="4.81843">
        <ele>260</ele>
        <time>2018-05-23T10:04:22Z</time>
      </trkpt>
      <trkpt lat="45.95237" lon="4.81836">
        <ele>260</ele>
        <time>2018-05-23T10:04:23Z</time>
      </trkpt>
      <trkpt lat="45.95233" lon="4.81829">
        <ele>259</ele>
        <time>2018-05-23T10:04:24Z</time>
      </trkpt>
      <trkpt lat="45.95229" lon="4.81822">
        <ele>259</ele>
        <time>2018-05-23T10:04:25Z</time>
      </trkpt>
      <trkpt lat="45.95225" lon="4.81815">
        <ele>259</ele>
        <time>2018-05-23T10:04:26Z</time>
      </trkpt>
      <trkpt lat="45.9522" lon="4.81808">
        <ele>259</ele>
        <time>2018-05-23T10:04:27Z</time>
      </trkpt>
      <trkpt lat="45.95216" lon="4.81801">
        <ele>259</ele>
        <time>2018-05-23T10:04:28Z</time>
      </trkpt>
      <trkpt lat="45.9521" lon="4.81795">
        <ele>259</ele>
        <time>2018-05-23T10:04:29Z</time>
      </trkpt>
      <trkpt lat="45.95206" lon="4.81788">
        <ele>258</ele>
        <time>2018-05-23T10:04:30Z</time>
      </trkpt>
      <trkpt lat="45.95201" lon="4.81781">
        <ele>258</ele>
        <time>2018-05-23T10:04:31Z</time>
      </trkpt>
      <trkpt lat="45.95197" lon="4.81774">
        <ele>258</ele>
        <time>2018-05-23T10:04:32Z</time>
      </trkpt>
      <trkpt lat="45.95192" lon="4.81767">
        <ele>258</ele>
        <time>2018-05-23T10:04:33Z</time>
      </trkpt>
      <trkpt lat="45.95187" lon="4.81759">
        <ele>258</ele>
        <time>2018-05-23T10:04:34Z</time>
      </trkpt>
      <trkpt lat="45.95182" lon="4.81751">
        <ele>258</ele>
        <time>2018-05-23T10:04:35Z</time>
      </trkpt>
      <trkpt lat="45.95175" lon="4.81742">
        <ele>257</ele>
        <time>2018-05-23T10:04:36Z</time>
      </trkpt>
      <trkpt lat="45.9517" lon="4.81733">
        <ele>257</ele>
        <time>2018-05-23T10:04:37Z</time>
      </trkpt>
      <trkpt lat="45.95165" lon="4.81724">
        <ele>256</ele>
        <time>2018-05-23T10:04:38Z</time>
      </trkpt>
      <trkpt lat="45.9516" lon="4.81714">
        <ele>256</ele>
        <time>2018-05-23T10:04:39Z</time>
      </trkpt>
      <trkpt lat="45.95156" lon="4.81703">
        <ele>255</ele>
        <time>2018-05-23T10:04:40Z</time>
      </trkpt>
      <trkpt lat="45.95152" lon="4.81692">
        <ele>255</ele>
        <time>2018-05-23T10:04:41Z</time>
      </trkpt>
      <trkpt lat="45.95149" lon="4.8168">
        <ele>255</ele>
        <time>2018-05-23T10:04:42Z</time>
      </trkpt>
      <trkpt lat="45.95144" lon="4.81667">
        <ele>255</ele>
        <time>2018-05-23T10:04:43Z</time>
      </trkpt>
      <trkpt lat="45.95139" lon="4.81654">
        <ele>253</ele>
        <time>2018-05-23T10:04:44Z</time>
      </trkpt>
      <trkpt lat="45.95136" lon="4.8164">
        <ele>253</ele>
        <time>2018-05-23T10:04:45Z</time>
      </trkpt>
      <trkpt lat="45.95132" lon="4.81627">
        <ele>253</ele>
        <time>2018-05-23T10:04:46Z</time>
      </trkpt>
      <trkpt lat="45.95128" lon="4.81615">
        <ele>252</ele>
        <time>2018-05-23T10:04:47Z</time>
      </trkpt>
      <trkpt lat="45.95122" lon="4.81602">
        <ele>252</ele>
        <time>2018-05-23T10:04:48Z</time>
      </trkpt>
      <trkpt lat="45.95117" lon="4.81589">
        <ele>252</ele>
        <time>2018-05-23T10:04:49Z</time>
      </trkpt>
      <trkpt lat="45.95113" lon="4.81578">
        <ele>251</ele>
        <time>2018-05-23T10:04:50Z</time>
      </trkpt>
      <trkpt lat="45.95109" lon="4.81565">
        <ele>251</ele>
        <time>2018-05-23T10:04:51Z</time>
      </trkpt>
      <trkpt lat="45.95105" lon="4.81553">
        <ele>251</ele>
        <time>2018-05-23T10:04:52Z</time>
      </trkpt>
      <trkpt lat="45.95101" lon="4.81541">
        <ele>251</ele>
        <time>2018-05-23T10:04:53Z</time>
      </trkpt>
      <trkpt lat="45.95098" lon="4.81531">
        <ele>251</ele>
        <time>2018-05-23T10:04:54Z</time>
      </trkpt>
      <trkpt lat="45.95092" lon="4.81523">
        <ele>251</ele>
        <time>2018-05-23T10:04:55Z</time>
      </trkpt>
      <trkpt lat="45.95088" lon="4.81514">
        <ele>252</ele>
        <time>2018-05-23T10:04:56Z</time>
      </trkpt>
      <trkpt lat="45.95085" lon="4.81505">
        <ele>252</ele>
        <time>2018-05-23T10:04:57Z</time>
      </trkpt>
      <trkpt lat="45.95083" lon="4.81496">
        <ele>252</ele>
        <time>2018-05-23T10:04:58Z</time>
      </trkpt>
      <trkpt lat="45.9508" lon="4.81488">
        <ele>252</ele>
        <time>2018-05-23T10:04:59Z</time>
      </trkpt>
      <trkpt lat="45.95077" lon="4.8148">
        <ele>253</ele>
        <time>2018-05-23T10:05:00Z</time>
      </trkpt>
      <trkpt lat="45.95075" lon="4.81474">
        <ele>253</ele>
        <time>2018-05-23T10:05:01Z</time>
      </trkpt>
      <trkpt lat="45.95073" lon="4.81467">
        <ele>253</ele>
        <time>2018-05-23T10:05:02Z</time>
      </trkpt>
      <trkpt lat="45.95069" lon="4.81456">
        <ele>253</ele>
        <time>2018-05-23T10:05:04Z</time>
      </trkpt>
      <trkpt lat="45.95067" lon="4.8145">
        <ele>253</ele>
        <time>2018-05-23T10:05:05Z</time>
      </trkpt>
      <trkpt lat="45.95065" lon="4.81444">
        <ele>253</ele>
        <time>2018-05-23T10:05:06Z</time>
      </trkpt>
      <trkpt lat="45.95064" lon="4.81437">
        <ele>253</ele>
        <time>2018-05-23T10:05:07Z</time>
      </trkpt>
      <trkpt lat="45.95061" lon="4.8143">
        <ele>253</ele>
        <time>2018-05-23T10:05:08Z</time>
      </trkpt>
      <trkpt lat="45.95059" lon="4.81424">
        <ele>253</ele>
        <time>2018-05-23T10:05:09Z</time>
      </trkpt>
      <trkpt lat="45.95056" lon="4.81418">
        <ele>253</ele>
        <time>2018-05-23T10:05:10Z</time>
      </trkpt>
      <trkpt lat="45.95053" lon="4.81413">
        <ele>253</ele>
        <time>2018-05-23T10:05:11Z</time>
      </trkpt>
      <trkpt lat="45.95051" lon="4.81407">
        <ele>253</ele>
        <time>2018-05-23T10:05:12Z</time>
      </trkpt>
      <trkpt lat="45.95048" lon="4.81399">
        <ele>253</ele>
        <time>2018-05-23T10:05:13Z</time>
      </trkpt>
      <trkpt lat="45.95046" lon="4.81393">
        <ele>253</ele>
        <time>2018-05-23T10:05:14Z</time>
      </trkpt>
      <trkpt lat="45.95044" lon="4.81385">
        <ele>254</ele>
        <time>2018-05-23T10:05:15Z</time>
      </trkpt>
      <trkpt lat="45.95042" lon="4.81379">
        <ele>254</ele>
        <time>2018-05-23T10:05:16Z</time>
      </trkpt>
      <trkpt lat="45.9504" lon="4.81372">
        <ele>254</ele>
        <time>2018-05-23T10:05:17Z</time>
      </trkpt>
      <trkpt lat="45.95038" lon="4.81365">
        <ele>254</ele>
        <time>2018-05-23T10:05:18Z</time>
      </trkpt>
      <trkpt lat="45.95036" lon="4.81358">
        <ele>254</ele>
        <time>2018-05-23T10:05:19Z</time>
      </trkpt>
      <trkpt lat="45.95034" lon="4.8135">
        <ele>254</ele>
        <time>2018-05-23T10:05:20Z</time>
      </trkpt>
      <trkpt lat="45.95031" lon="4.81343">
        <ele>254</ele>
        <time>2018-05-23T10:05:21Z</time>
      </trkpt>
      <trkpt lat="45.95028" lon="4.81337">
        <ele>254</ele>
        <time>2018-05-23T10:05:22Z</time>
      </trkpt>
      <trkpt lat="45.95025" lon="4.81329">
        <ele>255</ele>
        <time>2018-05-23T10:05:23Z</time>
      </trkpt>
      <trkpt lat="45.95024" lon="4.8132">
        <ele>255</ele>
        <time>2018-05-23T10:05:24Z</time>
      </trkpt>
      <trkpt lat="45.95022" lon="4.81315">
        <ele>255</ele>
        <time>2018-05-23T10:05:25Z</time>
      </trkpt>
      <trkpt lat="45.95021" lon="4.81308">
        <ele>255</ele>
        <time>2018-05-23T10:05:26Z</time>
      </trkpt>
      <trkpt lat="45.9502" lon="4.813">
        <ele>255</ele>
        <time>2018-05-23T10:05:27Z</time>
      </trkpt>
      <trkpt lat="45.95019" lon="4.81293">
        <ele>255</ele>
        <time>2018-05-23T10:05:28Z</time>
      </trkpt>
      <trkpt lat="45.95018" lon="4.81287">
        <ele>255</ele>
        <time>2018-05-23T10:05:29Z</time>
      </trkpt>
      <trkpt lat="45.95017" lon="4.8128">
        <ele>255</ele>
        <time>2018-05-23T10:05:30Z</time>
      </trkpt>
      <trkpt lat="45.95015" lon="4.81273">
        <ele>255</ele>
        <time>2018-05-23T10:05:31Z</time>
      </trkpt>
      <trkpt lat="45.95014" lon="4.81266">
        <ele>255</ele>
        <time>2018-05-23T10:05:32Z</time>
      </trkpt>
      <trkpt lat="45.95013" lon="4.81259">
        <ele>256</ele>
        <time>2018-05-23T10:05:33Z</time>
      </trkpt>
      <trkpt lat="45.95012" lon="4.81247">
        <ele>256</ele>
        <time>2018-05-23T10:05:35Z</time>
      </trkpt>
      <trkpt lat="45.95011" lon="4.8124">
        <ele>256</ele>
        <time>2018-05-23T10:05:36Z</time>
      </trkpt>
      <trkpt lat="45.9501" lon="4.81232">
        <ele>256</ele>
        <time>2018-05-23T10:05:37Z</time>
      </trkpt>
      <trkpt lat="45.9501" lon="4.81224">
        <ele>256</ele>
        <time>2018-05-23T10:05:38Z</time>
      </trkpt>
      <trkpt lat="45.95009" lon="4.81217">
        <ele>256</ele>
        <time>2018-05-23T10:05:39Z</time>
      </trkpt>
      <trkpt lat="45.95009" lon="4.8121">
        <ele>256</ele>
        <time>2018-05-23T10:05:40Z</time>
      </trkpt>
      <trkpt lat="45.95008" lon="4.81203">
        <ele>256</ele>
        <time>2018-05-23T10:05:41Z</time>
      </trkpt>
      <trkpt lat="45.95007" lon="4.81197">
        <ele>256</ele>
        <time>2018-05-23T10:05:42Z</time>
      </trkpt>
      <trkpt lat="45.95006" lon="4.8119">
        <ele>256</ele>
        <time>2018-05-23T10:05:43Z</time>
      </trkpt>
      <trkpt lat="45.95006" lon="4.81182">
        <ele>256</ele>
        <time>2018-05-23T10:05:44Z</time>
      </trkpt>
      <trkpt lat="45.95006" lon="4.81175">
        <ele>256</ele>
        <time>2018-05-23T10:05:45Z</time>
      </trkpt>
      <trkpt lat="45.95004" lon="4.81169">
        <ele>256</ele>
        <time>2018-05-23T10:05:46Z</time>
      </trkpt>
      <trkpt lat="45.95001" lon="4.81158">
        <ele>256</ele>
        <time>2018-05-23T10:05:48Z</time>
      </trkpt>
      <trkpt lat="45.95" lon="4.81152">
        <ele>256</ele>
        <time>2018-05-23T10:05:49Z</time>
      </trkpt>
      <trkpt lat="45.94999" lon="4.81139">
        <ele>256</ele>
        <time>2018-05-23T10:05:51Z</time>
      </trkpt>
      <trkpt lat="45.94997" lon="4.81133">
        <ele>256</ele>
        <time>2018-05-23T10:05:52Z</time>
      </trkpt>
      <trkpt lat="45.94997" lon="4.81125">
        <ele>257</ele>
        <time>2018-05-23T10:05:53Z</time>
      </trkpt>
      <trkpt lat="45.94997" lon="4.81119">
        <ele>257</ele>
        <time>2018-05-23T10:05:54Z</time>
      </trkpt>
      <trkpt lat="45.94997" lon="4.81106">
        <ele>257</ele>
        <time>2018-05-23T10:05:56Z</time>
      </trkpt>
      <trkpt lat="45.94998" lon="4.811">
        <ele>257</ele>
        <time>2018-05-23T10:05:57Z</time>
      </trkpt>
      <trkpt lat="45.94997" lon="4.81094">
        <ele>257</ele>
        <time>2018-05-23T10:05:58Z</time>
      </trkpt>
      <trkpt lat="45.94996" lon="4.81087">
        <ele>257</ele>
        <time>2018-05-23T10:05:59Z</time>
      </trkpt>
      <trkpt lat="45.94994" lon="4.81076">
        <ele>257</ele>
        <time>2018-05-23T10:06:01Z</time>
      </trkpt>
      <trkpt lat="45.94993" lon="4.81069">
        <ele>257</ele>
        <time>2018-05-23T10:06:02Z</time>
      </trkpt>
      <trkpt lat="45.94994" lon="4.81062">
        <ele>257</ele>
        <time>2018-05-23T10:06:03Z</time>
      </trkpt>
      <trkpt lat="45.94992" lon="4.81055">
        <ele>257</ele>
        <time>2018-05-23T10:06:04Z</time>
      </trkpt>
      <trkpt lat="45.94993" lon="4.81047">
        <ele>257</ele>
        <time>2018-05-23T10:06:05Z</time>
      </trkpt>
      <trkpt lat="45.94991" lon="4.81042">
        <ele>257</ele>
        <time>2018-05-23T10:06:06Z</time>
      </trkpt>
      <trkpt lat="45.94991" lon="4.81037">
        <ele>257</ele>
        <time>2018-05-23T10:06:07Z</time>
      </trkpt>
      <trkpt lat="45.94991" lon="4.81028">
        <ele>257</ele>
        <time>2018-05-23T10:06:08Z</time>
      </trkpt>
      <trkpt lat="45.94991" lon="4.81022">
        <ele>257</ele>
        <time>2018-05-23T10:06:09Z</time>
      </trkpt>
      <trkpt lat="45.94991" lon="4.81014">
        <ele>257</ele>
        <time>2018-05-23T10:06:10Z</time>
      </trkpt>
      <trkpt lat="45.9499" lon="4.81008">
        <ele>257</ele>
        <time>2018-05-23T10:06:11Z</time>
      </trkpt>
      <trkpt lat="45.9499" lon="4.81001">
        <ele>257</ele>
        <time>2018-05-23T10:06:12Z</time>
      </trkpt>
      <trkpt lat="45.9499" lon="4.80994">
        <ele>257</ele>
        <time>2018-05-23T10:06:13Z</time>
      </trkpt>
      <trkpt lat="45.94989" lon="4.80988">
        <ele>257</ele>
        <time>2018-05-23T10:06:14Z</time>
      </trkpt>
      <trkpt lat="45.94988" lon="4.80982">
        <ele>258</ele>
        <time>2018-05-23T10:06:15Z</time>
      </trkpt>
      <trkpt lat="45.94987" lon="4.80975">
        <ele>258</ele>
        <time>2018-05-23T10:06:16Z</time>
      </trkpt>
      <trkpt lat="45.94986" lon="4.80969">
        <ele>258</ele>
        <time>2018-05-23T10:06:17Z</time>
      </trkpt>
      <trkpt lat="45.94985" lon="4.80961">
        <ele>258</ele>
        <time>2018-05-23T10:06:18Z</time>
      </trkpt>
      <trkpt lat="45.94983" lon="4.80953">
        <ele>258</ele>
        <time>2018-05-23T10:06:19Z</time>
      </trkpt>
      <trkpt lat="45.94982" lon="4.80947">
        <ele>258</ele>
        <time>2018-05-23T10:06:20Z</time>
      </trkpt>
      <trkpt lat="45.9498" lon="4.80941">
        <ele>258</ele>
        <time>2018-05-23T10:06:21Z</time>
      </trkpt>
      <trkpt lat="45.94978" lon="4.80934">
        <ele>258</ele>
        <time>2018-05-23T10:06:22Z</time>
      </trkpt>
      <trkpt lat="45.94977" lon="4.80926">
        <ele>258</ele>
        <time>2018-05-23T10:06:23Z</time>
      </trkpt>
      <trkpt lat="45.94976" lon="4.80918">
        <ele>258</ele>
        <time>2018-05-23T10:06:24Z</time>
      </trkpt>
      <trkpt lat="45.94973" lon="4.80907">
        <ele>258</ele>
        <time>2018-05-23T10:06:26Z</time>
      </trkpt>
      <trkpt lat="45.94972" lon="4.80899">
        <ele>258</ele>
        <time>2018-05-23T10:06:27Z</time>
      </trkpt>
      <trkpt lat="45.94971" lon="4.8089">
        <ele>258</ele>
        <time>2018-05-23T10:06:29Z</time>
      </trkpt>
      <trkpt lat="45.9497" lon="4.80883">
        <ele>258</ele>
        <time>2018-05-23T10:06:30Z</time>
      </trkpt>
      <trkpt lat="45.94969" lon="4.80872">
        <ele>259</ele>
        <time>2018-05-23T10:06:32Z</time>
      </trkpt>
      <trkpt lat="45.94969" lon="4.80866">
        <ele>259</ele>
        <time>2018-05-23T10:06:33Z</time>
      </trkpt>
      <trkpt lat="45.94966" lon="4.80854">
        <ele>259</ele>
        <time>2018-05-23T10:06:35Z</time>
      </trkpt>
      <trkpt lat="45.94964" lon="4.80848">
        <ele>259</ele>
        <time>2018-05-23T10:06:36Z</time>
      </trkpt>
      <trkpt lat="45.94962" lon="4.80837">
        <ele>259</ele>
        <time>2018-05-23T10:06:38Z</time>
      </trkpt>
      <trkpt lat="45.94961" lon="4.80832">
        <ele>259</ele>
        <time>2018-05-23T10:06:39Z</time>
      </trkpt>
      <trkpt lat="45.94959" lon="4.80821">
        <ele>259</ele>
        <time>2018-05-23T10:06:42Z</time>
      </trkpt>
      <trkpt lat="45.94958" lon="4.80818">
        <ele>258</ele>
        <time>2018-05-23T10:06:43Z</time>
      </trkpt>
      <trkpt lat="45.94955" lon="4.80806">
        <ele>259</ele>
        <time>2018-05-23T10:06:47Z</time>
      </trkpt>
      <trkpt lat="45.94955" lon="4.80802">
        <ele>259</ele>
        <time>2018-05-23T10:06:48Z</time>
      </trkpt>
      <trkpt lat="45.94956" lon="4.8079">
        <ele>259</ele>
        <time>2018-05-23T10:06:49Z</time>
      </trkpt>
      <trkpt lat="45.94956" lon="4.80785">
        <ele>259</ele>
        <time>2018-05-23T10:06:50Z</time>
      </trkpt>
      <trkpt lat="45.94956" lon="4.80778">
        <ele>259</ele>
        <time>2018-05-23T10:06:51Z</time>
      </trkpt>
      <trkpt lat="45.94954" lon="4.80771">
        <ele>259</ele>
        <time>2018-05-23T10:06:52Z</time>
      </trkpt>
      <trkpt lat="45.94955" lon="4.80761">
        <ele>259</ele>
        <time>2018-05-23T10:06:53Z</time>
      </trkpt>
      <trkpt lat="45.94956" lon="4.80754">
        <ele>259</ele>
        <time>2018-05-23T10:06:54Z</time>
      </trkpt>
      <trkpt lat="45.94955" lon="4.80747">
        <ele>259</ele>
        <time>2018-05-23T10:06:55Z</time>
      </trkpt>
      <trkpt lat="45.94955" lon="4.80739">
        <ele>259</ele>
        <time>2018-05-23T10:06:56Z</time>
      </trkpt>
      <trkpt lat="45.94956" lon="4.80732">
        <ele>259</ele>
        <time>2018-05-23T10:06:57Z</time>
      </trkpt>
      <trkpt lat="45.94958" lon="4.80726">
        <ele>259</ele>
        <time>2018-05-23T10:06:58Z</time>
      </trkpt>
      <trkpt lat="45.94958" lon="4.80719">
        <ele>259</ele>
        <time>2018-05-23T10:06:59Z</time>
      </trkpt>
      <trkpt lat="45.94958" lon="4.80712">
        <ele>259</ele>
        <time>2018-05-23T10:07:00Z</time>
      </trkpt>
      <trkpt lat="45.94958" lon="4.807">
        <ele>259</ele>
        <time>2018-05-23T10:07:02Z</time>
      </trkpt>
      <trkpt lat="45.94957" lon="4.80694">
        <ele>259</ele>
        <time>2018-05-23T10:07:03Z</time>
      </trkpt>
      <trkpt lat="45.94957" lon="4.80688">
        <ele>259</ele>
        <time>2018-05-23T10:07:04Z</time>
      </trkpt>
      <trkpt lat="45.94956" lon="4.8068">
        <ele>259</ele>
        <time>2018-05-23T10:07:05Z</time>
      </trkpt>
      <trkpt lat="45.94955" lon="4.80674">
        <ele>259</ele>
        <time>2018-05-23T10:07:06Z</time>
      </trkpt>
      <trkpt lat="45.94955" lon="4.80666">
        <ele>259</ele>
        <time>2018-05-23T10:07:07Z</time>
      </trkpt>
      <trkpt lat="45.94954" lon="4.80658">
        <ele>259</ele>
        <time>2018-05-23T10:07:08Z</time>
      </trkpt>
      <trkpt lat="45.94954" lon="4.80651">
        <ele>259</ele>
        <time>2018-05-23T10:07:09Z</time>
      </trkpt>
      <trkpt lat="45.94953" lon="4.80642">
        <ele>258</ele>
        <time>2018-05-23T10:07:10Z</time>
      </trkpt>
      <trkpt lat="45.94952" lon="4.80634">
        <ele>258</ele>
        <time>2018-05-23T10:07:11Z</time>
      </trkpt>
      <trkpt lat="45.94952" lon="4.80625">
        <ele>258</ele>
        <time>2018-05-23T10:07:12Z</time>
      </trkpt>
      <trkpt lat="45.94952" lon="4.80617">
        <ele>258</ele>
        <time>2018-05-23T10:07:13Z</time>
      </trkpt>
      <trkpt lat="45.94951" lon="4.8061">
        <ele>258</ele>
        <time>2018-05-23T10:07:14Z</time>
      </trkpt>
      <trkpt lat="45.9495" lon="4.80603">
        <ele>258</ele>
        <time>2018-05-23T10:07:15Z</time>
      </trkpt>
      <trkpt lat="45.9495" lon="4.80595">
        <ele>258</ele>
        <time>2018-05-23T10:07:16Z</time>
      </trkpt>
      <trkpt lat="45.9495" lon="4.80586">
        <ele>258</ele>
        <time>2018-05-23T10:07:17Z</time>
      </trkpt>
      <trkpt lat="45.94949" lon="4.80579">
        <ele>257</ele>
        <time>2018-05-23T10:07:18Z</time>
      </trkpt>
      <trkpt lat="45.94948" lon="4.80571">
        <ele>257</ele>
        <time>2018-05-23T10:07:19Z</time>
      </trkpt>
      <trkpt lat="45.94948" lon="4.80562">
        <ele>257</ele>
        <time>2018-05-23T10:07:20Z</time>
      </trkpt>
      <trkpt lat="45.94948" lon="4.80554">
        <ele>258</ele>
        <time>2018-05-23T10:07:21Z</time>
      </trkpt>
      <trkpt lat="45.94947" lon="4.80547">
        <ele>258</ele>
        <time>2018-05-23T10:07:22Z</time>
      </trkpt>
      <trkpt lat="45.94947" lon="4.8054">
        <ele>258</ele>
        <time>2018-05-23T10:07:23Z</time>
      </trkpt>
      <trkpt lat="45.94947" lon="4.80532">
        <ele>258</ele>
        <time>2018-05-23T10:07:24Z</time>
      </trkpt>
      <trkpt lat="45.94947" lon="4.80525">
        <ele>258</ele>
        <time>2018-05-23T10:07:25Z</time>
      </trkpt>
      <trkpt lat="45.94947" lon="4.80519">
        <ele>258</ele>
        <time>2018-05-23T10:07:26Z</time>
      </trkpt>
      <trkpt lat="45.94946" lon="4.8051">
        <ele>258</ele>
        <time>2018-05-23T10:07:27Z</time>
      </trkpt>
      <trkpt lat="45.94946" lon="4.80501">
        <ele>258</ele>
        <time>2018-05-23T10:07:28Z</time>
      </trkpt>
      <trkpt lat="45.94947" lon="4.80493">
        <ele>258</ele>
        <time>2018-05-23T10:07:29Z</time>
      </trkpt>
      <trkpt lat="45.94947" lon="4.80483">
        <ele>258</ele>
        <time>2018-05-23T10:07:30Z</time>
      </trkpt>
      <trkpt lat="45.94947" lon="4.80473">
        <ele>258</ele>
        <time>2018-05-23T10:07:31Z</time>
      </trkpt>
      <trkpt lat="45.94946" lon="4.80464">
        <ele>258</ele>
        <time>2018-05-23T10:07:32Z</time>
      </trkpt>
      <trkpt lat="45.94947" lon="4.80455">
        <ele>258</ele>
        <time>2018-05-23T10:07:33Z</time>
      </trkpt>
      <trkpt lat="45.94946" lon="4.80445">
        <ele>259</ele>
        <time>2018-05-23T10:07:34Z</time>
      </trkpt>
      <trkpt lat="45.94946" lon="4.80436">
        <ele>259</ele>
        <time>2018-05-23T10:07:35Z</time>
      </trkpt>
      <trkpt lat="45.94947" lon="4.80426">
        <ele>259</ele>
        <time>2018-05-23T10:07:36Z</time>
      </trkpt>
      <trkpt lat="45.94949" lon="4.80417">
        <ele>259</ele>
        <time>2018-05-23T10:07:37Z</time>
      </trkpt>
      <trkpt lat="45.94949" lon="4.80411">
        <ele>258</ele>
        <time>2018-05-23T10:07:38Z</time>
      </trkpt>
      <trkpt lat="45.94949" lon="4.80402">
        <ele>258</ele>
        <time>2018-05-23T10:07:39Z</time>
      </trkpt>
      <trkpt lat="45.9495" lon="4.80396">
        <ele>258</ele>
        <time>2018-05-23T10:07:40Z</time>
      </trkpt>
      <trkpt lat="45.94951" lon="4.80388">
        <ele>258</ele>
        <time>2018-05-23T10:07:41Z</time>
      </trkpt>
      <trkpt lat="45.94951" lon="4.8038">
        <ele>258</ele>
        <time>2018-05-23T10:07:42Z</time>
      </trkpt>
      <trkpt lat="45.94952" lon="4.80372">
        <ele>258</ele>
        <time>2018-05-23T10:07:43Z</time>
      </trkpt>
      <trkpt lat="45.94952" lon="4.80364">
        <ele>258</ele>
        <time>2018-05-23T10:07:44Z</time>
      </trkpt>
      <trkpt lat="45.94951" lon="4.80355">
        <ele>258</ele>
        <time>2018-05-23T10:07:45Z</time>
      </trkpt>
      <trkpt lat="45.94949" lon="4.80344">
        <ele>258</ele>
        <time>2018-05-23T10:07:46Z</time>
      </trkpt>
      <trkpt lat="45.94948" lon="4.80334">
        <ele>258</ele>
        <time>2018-05-23T10:07:47Z</time>
      </trkpt>
      <trkpt lat="45.94948" lon="4.80325">
        <ele>257</ele>
        <time>2018-05-23T10:07:48Z</time>
      </trkpt>
      <trkpt lat="45.94948" lon="4.80316">
        <ele>257</ele>
        <time>2018-05-23T10:07:49Z</time>
      </trkpt>
      <trkpt lat="45.94947" lon="4.80306">
        <ele>257</ele>
        <time>2018-05-23T10:07:50Z</time>
      </trkpt>
      <trkpt lat="45.94947" lon="4.80296">
        <ele>257</ele>
        <time>2018-05-23T10:07:51Z</time>
      </trkpt>
      <trkpt lat="45.94947" lon="4.80287">
        <ele>257</ele>
        <time>2018-05-23T10:07:52Z</time>
      </trkpt>
      <trkpt lat="45.94947" lon="4.80277">
        <ele>257</ele>
        <time>2018-05-23T10:07:53Z</time>
      </trkpt>
      <trkpt lat="45.94946" lon="4.80269">
        <ele>257</ele>
        <time>2018-05-23T10:07:54Z</time>
      </trkpt>
      <trkpt lat="45.94944" lon="4.80261">
        <ele>257</ele>
        <time>2018-05-23T10:07:55Z</time>
      </trkpt>
      <trkpt lat="45.94944" lon="4.80251">
        <ele>257</ele>
        <time>2018-05-23T10:07:56Z</time>
      </trkpt>
      <trkpt lat="45.94943" lon="4.80243">
        <ele>256</ele>
        <time>2018-05-23T10:07:57Z</time>
      </trkpt>
      <trkpt lat="45.94943" lon="4.80234">
        <ele>256</ele>
        <time>2018-05-23T10:07:58Z</time>
      </trkpt>
      <trkpt lat="45.94941" lon="4.80225">
        <ele>256</ele>
        <time>2018-05-23T10:07:59Z</time>
      </trkpt>
      <trkpt lat="45.9494" lon="4.80217">
        <ele>256</ele>
        <time>2018-05-23T10:08:00Z</time>
      </trkpt>
      <trkpt lat="45.94939" lon="4.80209">
        <ele>256</ele>
        <time>2018-05-23T10:08:01Z</time>
      </trkpt>
      <trkpt lat="45.9494" lon="4.80203">
        <ele>256</ele>
        <time>2018-05-23T10:08:02Z</time>
      </trkpt>
      <trkpt lat="45.94938" lon="4.80194">
        <ele>256</ele>
        <time>2018-05-23T10:08:03Z</time>
      </trkpt>
      <trkpt lat="45.94937" lon="4.80185">
        <ele>256</ele>
        <time>2018-05-23T10:08:04Z</time>
      </trkpt>
      <trkpt lat="45.94936" lon="4.80178">
        <ele>256</ele>
        <time>2018-05-23T10:08:05Z</time>
      </trkpt>
      <trkpt lat="45.94935" lon="4.8017">
        <ele>256</ele>
        <time>2018-05-23T10:08:06Z</time>
      </trkpt>
      <trkpt lat="45.94933" lon="4.80161">
        <ele>255</ele>
        <time>2018-05-23T10:08:07Z</time>
      </trkpt>
      <trkpt lat="45.94932" lon="4.80152">
        <ele>256</ele>
        <time>2018-05-23T10:08:08Z</time>
      </trkpt>
      <trkpt lat="45.9493" lon="4.80144">
        <ele>256</ele>
        <time>2018-05-23T10:08:09Z</time>
      </trkpt>
      <trkpt lat="45.94928" lon="4.80135">
        <ele>256</ele>
        <time>2018-05-23T10:08:10Z</time>
      </trkpt>
      <trkpt lat="45.94925" lon="4.80126">
        <ele>256</ele>
        <time>2018-05-23T10:08:11Z</time>
      </trkpt>
      <trkpt lat="45.94922" lon="4.80118">
        <ele>256</ele>
        <time>2018-05-23T10:08:12Z</time>
      </trkpt>
      <trkpt lat="45.9492" lon="4.8011">
        <ele>256</ele>
        <time>2018-05-23T10:08:13Z</time>
      </trkpt>
      <trkpt lat="45.94919" lon="4.80102">
        <ele>256</ele>
        <time>2018-05-23T10:08:14Z</time>
      </trkpt>
      <trkpt lat="45.94917" lon="4.80093">
        <ele>257</ele>
        <time>2018-05-23T10:08:15Z</time>
      </trkpt>
      <trkpt lat="45.94914" lon="4.80085">
        <ele>257</ele>
        <time>2018-05-23T10:08:16Z</time>
      </trkpt>
      <trkpt lat="45.94912" lon="4.80076">
        <ele>257</ele>
        <time>2018-05-23T10:08:17Z</time>
      </trkpt>
      <trkpt lat="45.94909" lon="4.80067">
        <ele>256</ele>
        <time>2018-05-23T10:08:18Z</time>
      </trkpt>
      <trkpt lat="45.94905" lon="4.80058">
        <ele>256</ele>
        <time>2018-05-23T10:08:19Z</time>
      </trkpt>
      <trkpt lat="45.94904" lon="4.80049">
        <ele>256</ele>
        <time>2018-05-23T10:08:20Z</time>
      </trkpt>
      <trkpt lat="45.94901" lon="4.8004">
        <ele>256</ele>
        <time>2018-05-23T10:08:21Z</time>
      </trkpt>
      <trkpt lat="45.94899" lon="4.80032">
        <ele>256</ele>
        <time>2018-05-23T10:08:22Z</time>
      </trkpt>
      <trkpt lat="45.94896" lon="4.80023">
        <ele>256</ele>
        <time>2018-05-23T10:08:23Z</time>
      </trkpt>
      <trkpt lat="45.94893" lon="4.80015">
        <ele>256</ele>
        <time>2018-05-23T10:08:24Z</time>
      </trkpt>
      <trkpt lat="45.9489" lon="4.80007">
        <ele>256</ele>
        <time>2018-05-23T10:08:25Z</time>
      </trkpt>
      <trkpt lat="45.94887" lon="4.8">
        <ele>256</ele>
        <time>2018-05-23T10:08:26Z</time>
      </trkpt>
      <trkpt lat="45.94884" lon="4.79992">
        <ele>256</ele>
        <time>2018-05-23T10:08:27Z</time>
      </trkpt>
      <trkpt lat="45.94881" lon="4.79985">
        <ele>256</ele>
        <time>2018-05-23T10:08:28Z</time>
      </trkpt>
      <trkpt lat="45.94878" lon="4.79977">
        <ele>256</ele>
        <time>2018-05-23T10:08:29Z</time>
      </trkpt>
      <trkpt lat="45.94876" lon="4.79969">
        <ele>256</ele>
        <time>2018-05-23T10:08:30Z</time>
      </trkpt>
      <trkpt lat="45.94873" lon="4.79963">
        <ele>256</ele>
        <time>2018-05-23T10:08:31Z</time>
      </trkpt>
      <trkpt lat="45.94869" lon="4.79955">
        <ele>256</ele>
        <time>2018-05-23T10:08:32Z</time>
      </trkpt>
      <trkpt lat="45.94866" lon="4.79949">
        <ele>256</ele>
        <time>2018-05-23T10:08:33Z</time>
      </trkpt>
      <trkpt lat="45.94863" lon="4.79941">
        <ele>256</ele>
        <time>2018-05-23T10:08:34Z</time>
      </trkpt>
      <trkpt lat="45.94859" lon="4.79934">
        <ele>256</ele>
        <time>2018-05-23T10:08:35Z</time>
      </trkpt>
      <trkpt lat="45.94855" lon="4.79926">
        <ele>256</ele>
        <time>2018-05-23T10:08:36Z</time>
      </trkpt>
      <trkpt lat="45.94852" lon="4.79918">
        <ele>256</ele>
        <time>2018-05-23T10:08:37Z</time>
      </trkpt>
      <trkpt lat="45.94848" lon="4.7991">
        <ele>256</ele>
        <time>2018-05-23T10:08:38Z</time>
      </trkpt>
      <trkpt lat="45.94845" lon="4.79903">
        <ele>255</ele>
        <time>2018-05-23T10:08:39Z</time>
      </trkpt>
      <trkpt lat="45.94841" lon="4.79894">
        <ele>255</ele>
        <time>2018-05-23T10:08:40Z</time>
      </trkpt>
      <trkpt lat="45.94838" lon="4.79887">
        <ele>255</ele>
        <time>2018-05-23T10:08:41Z</time>
      </trkpt>
      <trkpt lat="45.94836" lon="4.79878">
        <ele>255</ele>
        <time>2018-05-23T10:08:42Z</time>
      </trkpt>
      <trkpt lat="45.94833" lon="4.79871">
        <ele>255</ele>
        <time>2018-05-23T10:08:43Z</time>
      </trkpt>
      <trkpt lat="45.94831" lon="4.7986">
        <ele>255</ele>
        <time>2018-05-23T10:08:44Z</time>
      </trkpt>
      <trkpt lat="45.94829" lon="4.79853">
        <ele>254</ele>
        <time>2018-05-23T10:08:45Z</time>
      </trkpt>
      <trkpt lat="45.94827" lon="4.79843">
        <ele>254</ele>
        <time>2018-05-23T10:08:46Z</time>
      </trkpt>
      <trkpt lat="45.94824" lon="4.79834">
        <ele>254</ele>
        <time>2018-05-23T10:08:47Z</time>
      </trkpt>
      <trkpt lat="45.94822" lon="4.79825">
        <ele>254</ele>
        <time>2018-05-23T10:08:48Z</time>
      </trkpt>
      <trkpt lat="45.9482" lon="4.79816">
        <ele>254</ele>
        <time>2018-05-23T10:08:49Z</time>
      </trkpt>
      <trkpt lat="45.9482" lon="4.79809">
        <ele>254</ele>
        <time>2018-05-23T10:08:50Z</time>
      </trkpt>
      <trkpt lat="45.94817" lon="4.79801">
        <ele>254</ele>
        <time>2018-05-23T10:08:51Z</time>
      </trkpt>
      <trkpt lat="45.94815" lon="4.79793">
        <ele>254</ele>
        <time>2018-05-23T10:08:52Z</time>
      </trkpt>
      <trkpt lat="45.94813" lon="4.79785">
        <ele>254</ele>
        <time>2018-05-23T10:08:53Z</time>
      </trkpt>
      <trkpt lat="45.9481" lon="4.79778">
        <ele>254</ele>
        <time>2018-05-23T10:08:54Z</time>
      </trkpt>
      <trkpt lat="45.94808" lon="4.7977">
        <ele>254</ele>
        <time>2018-05-23T10:08:55Z</time>
      </trkpt>
      <trkpt lat="45.94805" lon="4.79763">
        <ele>254</ele>
        <time>2018-05-23T10:08:56Z</time>
      </trkpt>
      <trkpt lat="45.94803" lon="4.79756">
        <ele>254</ele>
        <time>2018-05-23T10:08:57Z</time>
      </trkpt>
      <trkpt lat="45.94803" lon="4.79749">
        <ele>254</ele>
        <time>2018-05-23T10:08:58Z</time>
      </trkpt>
      <trkpt lat="45.94801" lon="4.79742">
        <ele>254</ele>
        <time>2018-05-23T10:08:59Z</time>
      </trkpt>
      <trkpt lat="45.948" lon="4.79735">
        <ele>254</ele>
        <time>2018-05-23T10:09:00Z</time>
      </trkpt>
      <trkpt lat="45.94799" lon="4.79726">
        <ele>254</ele>
        <time>2018-05-23T10:09:01Z</time>
      </trkpt>
      <trkpt lat="45.94797" lon="4.7972">
        <ele>254</ele>
        <time>2018-05-23T10:09:02Z</time>
      </trkpt>
      <trkpt lat="45.94794" lon="4.79714">
        <ele>254</ele>
        <time>2018-05-23T10:09:03Z</time>
      </trkpt>
      <trkpt lat="45.94792" lon="4.79707">
        <ele>254</ele>
        <time>2018-05-23T10:09:04Z</time>
      </trkpt>
      <trkpt lat="45.94789" lon="4.79699">
        <ele>254</ele>
        <time>2018-05-23T10:09:05Z</time>
      </trkpt>
      <trkpt lat="45.94787" lon="4.79691">
        <ele>254</ele>
        <time>2018-05-23T10:09:06Z</time>
      </trkpt>
      <trkpt lat="45.94785" lon="4.79684">
        <ele>254</ele>
        <time>2018-05-23T10:09:07Z</time>
      </trkpt>
      <trkpt lat="45.94783" lon="4.79676">
        <ele>254</ele>
        <time>2018-05-23T10:09:08Z</time>
      </trkpt>
      <trkpt lat="45.94779" lon="4.79669">
        <ele>254</ele>
        <time>2018-05-23T10:09:09Z</time>
      </trkpt>
      <trkpt lat="45.94777" lon="4.79662">
        <ele>254</ele>
        <time>2018-05-23T10:09:10Z</time>
      </trkpt>
      <trkpt lat="45.94776" lon="4.79655">
        <ele>254</ele>
        <time>2018-05-23T10:09:11Z</time>
      </trkpt>
      <trkpt lat="45.94774" lon="4.79647">
        <ele>254</ele>
        <time>2018-05-23T10:09:12Z</time>
      </trkpt>
      <trkpt lat="45.94773" lon="4.7964">
        <ele>254</ele>
        <time>2018-05-23T10:09:13Z</time>
      </trkpt>
      <trkpt lat="45.94772" lon="4.79631">
        <ele>253</ele>
        <time>2018-05-23T10:09:14Z</time>
      </trkpt>
      <trkpt lat="45.9477" lon="4.79624">
        <ele>253</ele>
        <time>2018-05-23T10:09:15Z</time>
      </trkpt>
      <trkpt lat="45.94768" lon="4.79616">
        <ele>253</ele>
        <time>2018-05-23T10:09:16Z</time>
      </trkpt>
      <trkpt lat="45.94766" lon="4.79609">
        <ele>253</ele>
        <time>2018-05-23T10:09:17Z</time>
      </trkpt>
      <trkpt lat="45.94764" lon="4.796">
        <ele>253</ele>
        <time>2018-05-23T10:09:18Z</time>
      </trkpt>
      <trkpt lat="45.94763" lon="4.79594">
        <ele>253</ele>
        <time>2018-05-23T10:09:19Z</time>
      </trkpt>
      <trkpt lat="45.94764" lon="4.79585">
        <ele>253</ele>
        <time>2018-05-23T10:09:23Z</time>
      </trkpt>
      <trkpt lat="45.94767" lon="4.79576">
        <ele>252</ele>
        <time>2018-05-23T10:09:24Z</time>
      </trkpt>
      <trkpt lat="45.94765" lon="4.79563">
        <ele>252</ele>
        <time>2018-05-23T10:09:26Z</time>
      </trkpt>
      <trkpt lat="45.94759" lon="4.79555">
        <ele>252</ele>
        <time>2018-05-23T10:09:27Z</time>
      </trkpt>
      <trkpt lat="45.94757" lon="4.79548">
        <ele>252</ele>
        <time>2018-05-23T10:09:28Z</time>
      </trkpt>
      <trkpt lat="45.94755" lon="4.7954">
        <ele>252</ele>
        <time>2018-05-23T10:09:29Z</time>
      </trkpt>
      <trkpt lat="45.94753" lon="4.79532">
        <ele>252</ele>
        <time>2018-05-23T10:09:30Z</time>
      </trkpt>
      <trkpt lat="45.9475" lon="4.79525">
        <ele>253</ele>
        <time>2018-05-23T10:09:31Z</time>
      </trkpt>
      <trkpt lat="45.94747" lon="4.79518">
        <ele>252</ele>
        <time>2018-05-23T10:09:32Z</time>
      </trkpt>
      <trkpt lat="45.94744" lon="4.79511">
        <ele>252</ele>
        <time>2018-05-23T10:09:33Z</time>
      </trkpt>
      <trkpt lat="45.94741" lon="4.79504">
        <ele>252</ele>
        <time>2018-05-23T10:09:34Z</time>
      </trkpt>
      <trkpt lat="45.94739" lon="4.79498">
        <ele>252</ele>
        <time>2018-05-23T10:09:35Z</time>
      </trkpt>
      <trkpt lat="45.94736" lon="4.79491">
        <ele>252</ele>
        <time>2018-05-23T10:09:36Z</time>
      </trkpt>
      <trkpt lat="45.94733" lon="4.79485">
        <ele>253</ele>
        <time>2018-05-23T10:09:37Z</time>
      </trkpt>
      <trkpt lat="45.9473" lon="4.79478">
        <ele>253</ele>
        <time>2018-05-23T10:09:38Z</time>
      </trkpt>
      <trkpt lat="45.94727" lon="4.79471">
        <ele>253</ele>
        <time>2018-05-23T10:09:39Z</time>
      </trkpt>
      <trkpt lat="45.94725" lon="4.79463">
        <ele>253</ele>
        <time>2018-05-23T10:09:40Z</time>
      </trkpt>
      <trkpt lat="45.94722" lon="4.79458">
        <ele>253</ele>
        <time>2018-05-23T10:09:41Z</time>
      </trkpt>
      <trkpt lat="45.94719" lon="4.79452">
        <ele>253</ele>
        <time>2018-05-23T10:09:42Z</time>
      </trkpt>
      <trkpt lat="45.94716" lon="4.79446">
        <ele>253</ele>
        <time>2018-05-23T10:09:43Z</time>
      </trkpt>
      <trkpt lat="45.94713" lon="4.79439">
        <ele>253</ele>
        <time>2018-05-23T10:09:44Z</time>
      </trkpt>
      <trkpt lat="45.9471" lon="4.79432">
        <ele>253</ele>
        <time>2018-05-23T10:09:45Z</time>
      </trkpt>
      <trkpt lat="45.94707" lon="4.79425">
        <ele>253</ele>
        <time>2018-05-23T10:09:46Z</time>
      </trkpt>
      <trkpt lat="45.94704" lon="4.79418">
        <ele>253</ele>
        <time>2018-05-23T10:09:47Z</time>
      </trkpt>
      <trkpt lat="45.94703" lon="4.79412">
        <ele>253</ele>
        <time>2018-05-23T10:09:48Z</time>
      </trkpt>
      <trkpt lat="45.94699" lon="4.79405">
        <ele>253</ele>
        <time>2018-05-23T10:09:49Z</time>
      </trkpt>
      <trkpt lat="45.94697" lon="4.79398">
        <ele>253</ele>
        <time>2018-05-23T10:09:50Z</time>
      </trkpt>
      <trkpt lat="45.94694" lon="4.79392">
        <ele>253</ele>
        <time>2018-05-23T10:09:51Z</time>
      </trkpt>
      <trkpt lat="45.94691" lon="4.79386">
        <ele>253</ele>
        <time>2018-05-23T10:09:52Z</time>
      </trkpt>
      <trkpt lat="45.94687" lon="4.7938">
        <ele>253</ele>
        <time>2018-05-23T10:09:53Z</time>
      </trkpt>
      <trkpt lat="45.94684" lon="4.79374">
        <ele>253</ele>
        <time>2018-05-23T10:09:54Z</time>
      </trkpt>
      <trkpt lat="45.94681" lon="4.79367">
        <ele>253</ele>
        <time>2018-05-23T10:09:55Z</time>
      </trkpt>
      <trkpt lat="45.94675" lon="4.79357">
        <ele>253</ele>
        <time>2018-05-23T10:09:57Z</time>
      </trkpt>
      <trkpt lat="45.94672" lon="4.7935">
        <ele>253</ele>
        <time>2018-05-23T10:09:58Z</time>
      </trkpt>
      <trkpt lat="45.94669" lon="4.79344">
        <ele>254</ele>
        <time>2018-05-23T10:09:59Z</time>
      </trkpt>
      <trkpt lat="45.94666" lon="4.79336">
        <ele>254</ele>
        <time>2018-05-23T10:10:00Z</time>
      </trkpt>
      <trkpt lat="45.94663" lon="4.7933">
        <ele>254</ele>
        <time>2018-05-23T10:10:01Z</time>
      </trkpt>
      <trkpt lat="45.9466" lon="4.79322">
        <ele>254</ele>
        <time>2018-05-23T10:10:02Z</time>
      </trkpt>
      <trkpt lat="45.94658" lon="4.79317">
        <ele>254</ele>
        <time>2018-05-23T10:10:03Z</time>
      </trkpt>
      <trkpt lat="45.94654" lon="4.79311">
        <ele>254</ele>
        <time>2018-05-23T10:10:04Z</time>
      </trkpt>
      <trkpt lat="45.94651" lon="4.79304">
        <ele>254</ele>
        <time>2018-05-23T10:10:05Z</time>
      </trkpt>
      <trkpt lat="45.94647" lon="4.79298">
        <ele>254</ele>
        <time>2018-05-23T10:10:06Z</time>
      </trkpt>
      <trkpt lat="45.94643" lon="4.79291">
        <ele>254</ele>
        <time>2018-05-23T10:10:07Z</time>
      </trkpt>
      <trkpt lat="45.94639" lon="4.79283">
        <ele>254</ele>
        <time>2018-05-23T10:10:08Z</time>
      </trkpt>
      <trkpt lat="45.94635" lon="4.79277">
        <ele>254</ele>
        <time>2018-05-23T10:10:09Z</time>
      </trkpt>
      <trkpt lat="45.94631" lon="4.79271">
        <ele>254</ele>
        <time>2018-05-23T10:10:10Z</time>
      </trkpt>
      <trkpt lat="45.94628" lon="4.79263">
        <ele>254</ele>
        <time>2018-05-23T10:10:11Z</time>
      </trkpt>
      <trkpt lat="45.94625" lon="4.79256">
        <ele>255</ele>
        <time>2018-05-23T10:10:12Z</time>
      </trkpt>
      <trkpt lat="45.94622" lon="4.79248">
        <ele>256</ele>
        <time>2018-05-23T10:10:13Z</time>
      </trkpt>
      <trkpt lat="45.94619" lon="4.79239">
        <ele>256</ele>
        <time>2018-05-23T10:10:14Z</time>
      </trkpt>
      <trkpt lat="45.94616" lon="4.79232">
        <ele>256</ele>
        <time>2018-05-23T10:10:15Z</time>
      </trkpt>
      <trkpt lat="45.9461" lon="4.79225">
        <ele>256</ele>
        <time>2018-05-23T10:10:16Z</time>
      </trkpt>
      <trkpt lat="45.94606" lon="4.79217">
        <ele>257</ele>
        <time>2018-05-23T10:10:17Z</time>
      </trkpt>
      <trkpt lat="45.94604" lon="4.79209">
        <ele>257</ele>
        <time>2018-05-23T10:10:18Z</time>
      </trkpt>
      <trkpt lat="45.94599" lon="4.79202">
        <ele>257</ele>
        <time>2018-05-23T10:10:19Z</time>
      </trkpt>
      <trkpt lat="45.94595" lon="4.79195">
        <ele>257</ele>
        <time>2018-05-23T10:10:20Z</time>
      </trkpt>
      <trkpt lat="45.94591" lon="4.79188">
        <ele>258</ele>
        <time>2018-05-23T10:10:21Z</time>
      </trkpt>
      <trkpt lat="45.9459" lon="4.79179">
        <ele>258</ele>
        <time>2018-05-23T10:10:22Z</time>
      </trkpt>
      <trkpt lat="45.94586" lon="4.79172">
        <ele>259</ele>
        <time>2018-05-23T10:10:23Z</time>
      </trkpt>
      <trkpt lat="45.94579" lon="4.79165">
        <ele>259</ele>
        <time>2018-05-23T10:10:24Z</time>
      </trkpt>
      <trkpt lat="45.94577" lon="4.79158">
        <ele>258</ele>
        <time>2018-05-23T10:10:25Z</time>
      </trkpt>
      <trkpt lat="45.94572" lon="4.79151">
        <ele>258</ele>
        <time>2018-05-23T10:10:26Z</time>
      </trkpt>
      <trkpt lat="45.94568" lon="4.79146">
        <ele>257</ele>
        <time>2018-05-23T10:10:27Z</time>
      </trkpt>
      <trkpt lat="45.94564" lon="4.79138">
        <ele>257</ele>
        <time>2018-05-23T10:10:28Z</time>
      </trkpt>
      <trkpt lat="45.94562" lon="4.79131">
        <ele>257</ele>
        <time>2018-05-23T10:10:29Z</time>
      </trkpt>
      <trkpt lat="45.94556" lon="4.79122">
        <ele>257</ele>
        <time>2018-05-23T10:10:30Z</time>
      </trkpt>
      <trkpt lat="45.94556" lon="4.7911">
        <ele>257</ele>
        <time>2018-05-23T10:10:31Z</time>
      </trkpt>
      <trkpt lat="45.94554" lon="4.79102">
        <ele>257</ele>
        <time>2018-05-23T10:10:32Z</time>
      </trkpt>
      <trkpt lat="45.94552" lon="4.79095">
        <ele>257</ele>
        <time>2018-05-23T10:10:33Z</time>
      </trkpt>
      <trkpt lat="45.94546" lon="4.79089">
        <ele>256</ele>
        <time>2018-05-23T10:10:34Z</time>
      </trkpt>
      <trkpt lat="45.94542" lon="4.79083">
        <ele>256</ele>
        <time>2018-05-23T10:10:35Z</time>
      </trkpt>
      <trkpt lat="45.94539" lon="4.79079">
        <ele>256</ele>
        <time>2018-05-23T10:10:36Z</time>
      </trkpt>
      <trkpt lat="45.94536" lon="4.79071">
        <ele>255</ele>
        <time>2018-05-23T10:10:37Z</time>
      </trkpt>
      <trkpt lat="45.94532" lon="4.79065">
        <ele>255</ele>
        <time>2018-05-23T10:10:38Z</time>
      </trkpt>
      <trkpt lat="45.94528" lon="4.79059">
        <ele>255</ele>
        <time>2018-05-23T10:10:39Z</time>
      </trkpt>
      <trkpt lat="45.94525" lon="4.79053">
        <ele>255</ele>
        <time>2018-05-23T10:10:40Z</time>
      </trkpt>
      <trkpt lat="45.94524" lon="4.79046">
        <ele>255</ele>
        <time>2018-05-23T10:10:41Z</time>
      </trkpt>
      <trkpt lat="45.94521" lon="4.7904">
        <ele>255</ele>
        <time>2018-05-23T10:10:42Z</time>
      </trkpt>
      <trkpt lat="45.94518" lon="4.79033">
        <ele>255</ele>
        <time>2018-05-23T10:10:43Z</time>
      </trkpt>
      <trkpt lat="45.94514" lon="4.79027">
        <ele>255</ele>
        <time>2018-05-23T10:10:44Z</time>
      </trkpt>
      <trkpt lat="45.94511" lon="4.79021">
        <ele>255</ele>
        <time>2018-05-23T10:10:45Z</time>
      </trkpt>
      <trkpt lat="45.94508" lon="4.79014">
        <ele>255</ele>
        <time>2018-05-23T10:10:46Z</time>
      </trkpt>
      <trkpt lat="45.94505" lon="4.79006">
        <ele>254</ele>
        <time>2018-05-23T10:10:47Z</time>
      </trkpt>
      <trkpt lat="45.94501" lon="4.78999">
        <ele>254</ele>
        <time>2018-05-23T10:10:48Z</time>
      </trkpt>
      <trkpt lat="45.94496" lon="4.7899">
        <ele>254</ele>
        <time>2018-05-23T10:10:49Z</time>
      </trkpt>
      <trkpt lat="45.94492" lon="4.78983">
        <ele>254</ele>
        <time>2018-05-23T10:10:50Z</time>
      </trkpt>
      <trkpt lat="45.94486" lon="4.78975">
        <ele>254</ele>
        <time>2018-05-23T10:10:51Z</time>
      </trkpt>
      <trkpt lat="45.94481" lon="4.78967">
        <ele>254</ele>
        <time>2018-05-23T10:10:52Z</time>
      </trkpt>
      <trkpt lat="45.94476" lon="4.78957">
        <ele>254</ele>
        <time>2018-05-23T10:10:53Z</time>
      </trkpt>
      <trkpt lat="45.94473" lon="4.78949">
        <ele>254</ele>
        <time>2018-05-23T10:10:54Z</time>
      </trkpt>
      <trkpt lat="45.94469" lon="4.78937">
        <ele>254</ele>
        <time>2018-05-23T10:10:55Z</time>
      </trkpt>
      <trkpt lat="45.94466" lon="4.78926">
        <ele>254</ele>
        <time>2018-05-23T10:10:56Z</time>
      </trkpt>
      <trkpt lat="45.94464" lon="4.78912">
        <ele>253</ele>
        <time>2018-05-23T10:10:57Z</time>
      </trkpt>
      <trkpt lat="45.94461" lon="4.78899">
        <ele>253</ele>
        <time>2018-05-23T10:10:58Z</time>
      </trkpt>
      <trkpt lat="45.9446" lon="4.78886">
        <ele>253</ele>
        <time>2018-05-23T10:10:59Z</time>
      </trkpt>
      <trkpt lat="45.94463" lon="4.78872">
        <ele>253</ele>
        <time>2018-05-23T10:11:00Z</time>
      </trkpt>
      <trkpt lat="45.94465" lon="4.78857">
        <ele>253</ele>
        <time>2018-05-23T10:11:01Z</time>
      </trkpt>
      <trkpt lat="45.94467" lon="4.78843">
        <ele>253</ele>
        <time>2018-05-23T10:11:02Z</time>
      </trkpt>
      <trkpt lat="45.9447" lon="4.78827">
        <ele>251</ele>
        <time>2018-05-23T10:11:03Z</time>
      </trkpt>
      <trkpt lat="45.94475" lon="4.78813">
        <ele>251</ele>
        <time>2018-05-23T10:11:04Z</time>
      </trkpt>
      <trkpt lat="45.94477" lon="4.78798">
        <ele>250</ele>
        <time>2018-05-23T10:11:05Z</time>
      </trkpt>
      <trkpt lat="45.9448" lon="4.78782">
        <ele>250</ele>
        <time>2018-05-23T10:11:06Z</time>
      </trkpt>
      <trkpt lat="45.94482" lon="4.78765">
        <ele>249</ele>
        <time>2018-05-23T10:11:07Z</time>
      </trkpt>
      <trkpt lat="45.94483" lon="4.78748">
        <ele>246</ele>
        <time>2018-05-23T10:11:08Z</time>
      </trkpt>
      <trkpt lat="45.94484" lon="4.78731">
        <ele>246</ele>
        <time>2018-05-23T10:11:09Z</time>
      </trkpt>
      <trkpt lat="45.94484" lon="4.78713">
        <ele>245</ele>
        <time>2018-05-23T10:11:10Z</time>
      </trkpt>
      <trkpt lat="45.94482" lon="4.78697">
        <ele>244</ele>
        <time>2018-05-23T10:11:11Z</time>
      </trkpt>
      <trkpt lat="45.94483" lon="4.78679">
        <ele>243</ele>
        <time>2018-05-23T10:11:12Z</time>
      </trkpt>
      <trkpt lat="45.94478" lon="4.78662">
        <ele>241</ele>
        <time>2018-05-23T10:11:13Z</time>
      </trkpt>
      <trkpt lat="45.94475" lon="4.78645">
        <ele>241</ele>
        <time>2018-05-23T10:11:14Z</time>
      </trkpt>
      <trkpt lat="45.94472" lon="4.78628">
        <ele>241</ele>
        <time>2018-05-23T10:11:15Z</time>
      </trkpt>
      <trkpt lat="45.94467" lon="4.7861">
        <ele>241</ele>
        <time>2018-05-23T10:11:16Z</time>
      </trkpt>
      <trkpt lat="45.94461" lon="4.78594">
        <ele>240</ele>
        <time>2018-05-23T10:11:17Z</time>
      </trkpt>
      <trkpt lat="45.94456" lon="4.78578">
        <ele>240</ele>
        <time>2018-05-23T10:11:18Z</time>
      </trkpt>
      <trkpt lat="45.94447" lon="4.78564">
        <ele>239</ele>
        <time>2018-05-23T10:11:19Z</time>
      </trkpt>
      <trkpt lat="45.94437" lon="4.78551">
        <ele>239</ele>
        <time>2018-05-23T10:11:20Z</time>
      </trkpt>
      <trkpt lat="45.94432" lon="4.78537">
        <ele>239</ele>
        <time>2018-05-23T10:11:21Z</time>
      </trkpt>
      <trkpt lat="45.94424" lon="4.78523">
        <ele>237</ele>
        <time>2018-05-23T10:11:22Z</time>
      </trkpt>
      <trkpt lat="45.94414" lon="4.78509">
        <ele>235</ele>
        <time>2018-05-23T10:11:23Z</time>
      </trkpt>
      <trkpt lat="45.94406" lon="4.78498">
        <ele>234</ele>
        <time>2018-05-23T10:11:24Z</time>
      </trkpt>
      <trkpt lat="45.94395" lon="4.78487">
        <ele>235</ele>
        <time>2018-05-23T10:11:25Z</time>
      </trkpt>
      <trkpt lat="45.94385" lon="4.78477">
        <ele>236</ele>
        <time>2018-05-23T10:11:26Z</time>
      </trkpt>
      <trkpt lat="45.94374" lon="4.78466">
        <ele>236</ele>
        <time>2018-05-23T10:11:27Z</time>
      </trkpt>
      <trkpt lat="45.94364" lon="4.78454">
        <ele>235</ele>
        <time>2018-05-23T10:11:28Z</time>
      </trkpt>
      <trkpt lat="45.94356" lon="4.78442">
        <ele>235</ele>
        <time>2018-05-23T10:11:29Z</time>
      </trkpt>
      <trkpt lat="45.94348" lon="4.7843">
        <ele>233</ele>
        <time>2018-05-23T10:11:30Z</time>
      </trkpt>
      <trkpt lat="45.94339" lon="4.78419">
        <ele>231</ele>
        <time>2018-05-23T10:11:31Z</time>
      </trkpt>
      <trkpt lat="45.94332" lon="4.78405">
        <ele>229</ele>
        <time>2018-05-23T10:11:32Z</time>
      </trkpt>
      <trkpt lat="45.94325" lon="4.78391">
        <ele>230</ele>
        <time>2018-05-23T10:11:33Z</time>
      </trkpt>
      <trkpt lat="45.94317" lon="4.78377">
        <ele>230</ele>
        <time>2018-05-23T10:11:34Z</time>
      </trkpt>
      <trkpt lat="45.94311" lon="4.78364">
        <ele>229</ele>
        <time>2018-05-23T10:11:35Z</time>
      </trkpt>
      <trkpt lat="45.94305" lon="4.78351">
        <ele>229</ele>
        <time>2018-05-23T10:11:36Z</time>
      </trkpt>
      <trkpt lat="45.94297" lon="4.78339">
        <ele>228</ele>
        <time>2018-05-23T10:11:37Z</time>
      </trkpt>
      <trkpt lat="45.9429" lon="4.78329">
        <ele>228</ele>
        <time>2018-05-23T10:11:38Z</time>
      </trkpt>
      <trkpt lat="45.94281" lon="4.78319">
        <ele>228</ele>
        <time>2018-05-23T10:11:39Z</time>
      </trkpt>
      <trkpt lat="45.94268" lon="4.78312">
        <ele>227</ele>
        <time>2018-05-23T10:11:40Z</time>
      </trkpt>
      <trkpt lat="45.94257" lon="4.78305">
        <ele>227</ele>
        <time>2018-05-23T10:11:41Z</time>
      </trkpt>
      <trkpt lat="45.94247" lon="4.78299">
        <ele>222</ele>
        <time>2018-05-23T10:11:42Z</time>
      </trkpt>
      <trkpt lat="45.94237" lon="4.78297">
        <ele>222</ele>
        <time>2018-05-23T10:11:43Z</time>
      </trkpt>
      <trkpt lat="45.94227" lon="4.78294">
        <ele>222</ele>
        <time>2018-05-23T10:11:44Z</time>
      </trkpt>
      <trkpt lat="45.94215" lon="4.78292">
        <ele>222</ele>
        <time>2018-05-23T10:11:45Z</time>
      </trkpt>
      <trkpt lat="45.94206" lon="4.78291">
        <ele>221</ele>
        <time>2018-05-23T10:11:46Z</time>
      </trkpt>
      <trkpt lat="45.94196" lon="4.7829">
        <ele>221</ele>
        <time>2018-05-23T10:11:47Z</time>
      </trkpt>
      <trkpt lat="45.94186" lon="4.78286">
        <ele>221</ele>
        <time>2018-05-23T10:11:48Z</time>
      </trkpt>
      <trkpt lat="45.94177" lon="4.7828">
        <ele>221</ele>
        <time>2018-05-23T10:11:49Z</time>
      </trkpt>
      <trkpt lat="45.94167" lon="4.78273">
        <ele>220</ele>
        <time>2018-05-23T10:11:50Z</time>
      </trkpt>
      <trkpt lat="45.94158" lon="4.78267">
        <ele>216</ele>
        <time>2018-05-23T10:11:51Z</time>
      </trkpt>
      <trkpt lat="45.94148" lon="4.78258">
        <ele>216</ele>
        <time>2018-05-23T10:11:52Z</time>
      </trkpt>
      <trkpt lat="45.9414" lon="4.78251">
        <ele>215</ele>
        <time>2018-05-23T10:11:53Z</time>
      </trkpt>
      <trkpt lat="45.94131" lon="4.78245">
        <ele>215</ele>
        <time>2018-05-23T10:11:54Z</time>
      </trkpt>
      <trkpt lat="45.94123" lon="4.7824">
        <ele>215</ele>
        <time>2018-05-23T10:11:55Z</time>
      </trkpt>
      <trkpt lat="45.94114" lon="4.78235">
        <ele>214</ele>
        <time>2018-05-23T10:11:56Z</time>
      </trkpt>
      <trkpt lat="45.94104" lon="4.78229">
        <ele>213</ele>
        <time>2018-05-23T10:11:57Z</time>
      </trkpt>
      <trkpt lat="45.94095" lon="4.78223">
        <ele>213</ele>
        <time>2018-05-23T10:11:58Z</time>
      </trkpt>
      <trkpt lat="45.94085" lon="4.78217">
        <ele>213</ele>
        <time>2018-05-23T10:11:59Z</time>
      </trkpt>
      <trkpt lat="45.94077" lon="4.78211">
        <ele>206</ele>
        <time>2018-05-23T10:12:00Z</time>
      </trkpt>
      <trkpt lat="45.94067" lon="4.78206">
        <ele>206</ele>
        <time>2018-05-23T10:12:01Z</time>
      </trkpt>
      <trkpt lat="45.94057" lon="4.78199">
        <ele>206</ele>
        <time>2018-05-23T10:12:02Z</time>
      </trkpt>
      <trkpt lat="45.94048" lon="4.78195">
        <ele>205</ele>
        <time>2018-05-23T10:12:03Z</time>
      </trkpt>
      <trkpt lat="45.94042" lon="4.78188">
        <ele>205</ele>
        <time>2018-05-23T10:12:04Z</time>
      </trkpt>
      <trkpt lat="45.94034" lon="4.78183">
        <ele>205</ele>
        <time>2018-05-23T10:12:05Z</time>
      </trkpt>
      <trkpt lat="45.94028" lon="4.78179">
        <ele>204</ele>
        <time>2018-05-23T10:12:06Z</time>
      </trkpt>
      <trkpt lat="45.94022" lon="4.78175">
        <ele>204</ele>
        <time>2018-05-23T10:12:07Z</time>
      </trkpt>
      <trkpt lat="45.94017" lon="4.78171">
        <ele>203</ele>
        <time>2018-05-23T10:12:08Z</time>
      </trkpt>
      <trkpt lat="45.94011" lon="4.78169">
        <ele>202</ele>
        <time>2018-05-23T10:12:09Z</time>
      </trkpt>
      <trkpt lat="45.94005" lon="4.78162">
        <ele>202</ele>
        <time>2018-05-23T10:12:11Z</time>
      </trkpt>
      <trkpt lat="45.93999" lon="4.78158">
        <ele>200</ele>
        <time>2018-05-23T10:12:12Z</time>
      </trkpt>
      <trkpt lat="45.93994" lon="4.78151">
        <ele>199</ele>
        <time>2018-05-23T10:12:14Z</time>
      </trkpt>
      <trkpt lat="45.93991" lon="4.78147">
        <ele>198</ele>
        <time>2018-05-23T10:12:15Z</time>
      </trkpt>
      <trkpt lat="45.9399" lon="4.78135">
        <ele>197</ele>
        <time>2018-05-23T10:12:17Z</time>
      </trkpt>
      <trkpt lat="45.9399" lon="4.78131">
        <ele>197</ele>
        <time>2018-05-23T10:12:18Z</time>
      </trkpt>
      <trkpt lat="45.93993" lon="4.78121">
        <ele>197</ele>
        <time>2018-05-23T10:12:20Z</time>
      </trkpt>
      <trkpt lat="45.93994" lon="4.78115">
        <ele>197</ele>
        <time>2018-05-23T10:12:21Z</time>
      </trkpt>
      <trkpt lat="45.93995" lon="4.78104">
        <ele>197</ele>
        <time>2018-05-23T10:12:23Z</time>
      </trkpt>
      <trkpt lat="45.93996" lon="4.78098">
        <ele>198</ele>
        <time>2018-05-23T10:12:24Z</time>
      </trkpt>
      <trkpt lat="45.93999" lon="4.78085">
        <ele>199</ele>
        <time>2018-05-23T10:12:26Z</time>
      </trkpt>
      <trkpt lat="45.94" lon="4.7808">
        <ele>199</ele>
        <time>2018-05-23T10:12:27Z</time>
      </trkpt>
      <trkpt lat="45.94002" lon="4.78069">
        <ele>201</ele>
        <time>2018-05-23T10:12:29Z</time>
      </trkpt>
      <trkpt lat="45.94002" lon="4.78066">
        <ele>201</ele>
        <time>2018-05-23T10:12:30Z</time>
      </trkpt>
      <trkpt lat="45.94007" lon="4.78055">
        <ele>201</ele>
        <time>2018-05-23T10:12:36Z</time>
      </trkpt>
      <trkpt lat="45.94008" lon="4.78055">
        <ele>201</ele>
        <time>2018-05-23T10:12:37Z</time>
      </trkpt>
      <trkpt lat="45.94016" lon="4.78057">
        <ele>201</ele>
        <time>2018-05-23T10:12:50Z</time>
      </trkpt>
      <trkpt lat="45.94016" lon="4.78057">
        <ele>201</ele>
        <time>2018-05-23T10:12:51Z</time>
      </trkpt>
      <trkpt lat="45.94016" lon="4.78058">
        <ele>201</ele>
        <time>2018-05-23T10:12:55Z</time>
      </trkpt>
      <trkpt lat="45.94016" lon="4.78058">
        <ele>201</ele>
        <time>2018-05-23T10:12:56Z</time>
      </trkpt>
      <trkpt lat="45.94017" lon="4.78048">
        <ele>202</ele>
        <time>2018-05-23T10:15:35Z</time>
      </trkpt>
      <trkpt lat="45.94018" lon="4.78045">
        <ele>202</ele>
        <time>2018-05-23T10:15:36Z</time>
      </trkpt>
      <trkpt lat="45.94019" lon="4.78041">
        <ele>202</ele>
        <time>2018-05-23T10:15:37Z</time>
      </trkpt>
      <trkpt lat="45.94021" lon="4.78029">
        <ele>201</ele>
        <time>2018-05-23T10:15:38Z</time>
      </trkpt>
      <trkpt lat="45.94023" lon="4.78019">
        <ele>201</ele>
        <time>2018-05-23T10:15:40Z</time>
      </trkpt>
      <trkpt lat="45.94024" lon="4.78014">
        <ele>201</ele>
        <time>2018-05-23T10:15:41Z</time>
      </trkpt>
      <trkpt lat="45.94024" lon="4.78002">
        <ele>201</ele>
        <time>2018-05-23T10:15:43Z</time>
      </trkpt>
      <trkpt lat="45.94024" lon="4.77993">
        <ele>200</ele>
        <time>2018-05-23T10:15:44Z</time>
      </trkpt>
      <trkpt lat="45.94025" lon="4.77986">
        <ele>200</ele>
        <time>2018-05-23T10:15:45Z</time>
      </trkpt>
      <trkpt lat="45.94024" lon="4.7798">
        <ele>200</ele>
        <time>2018-05-23T10:15:46Z</time>
      </trkpt>
      <trkpt lat="45.94026" lon="4.77973">
        <ele>200</ele>
        <time>2018-05-23T10:15:47Z</time>
      </trkpt>
      <trkpt lat="45.94027" lon="4.77967">
        <ele>200</ele>
        <time>2018-05-23T10:15:48Z</time>
      </trkpt>
      <trkpt lat="45.94028" lon="4.7796">
        <ele>200</ele>
        <time>2018-05-23T10:15:49Z</time>
      </trkpt>
      <trkpt lat="45.94031" lon="4.77954">
        <ele>201</ele>
        <time>2018-05-23T10:15:50Z</time>
      </trkpt>
      <trkpt lat="45.94032" lon="4.77949">
        <ele>201</ele>
        <time>2018-05-23T10:15:51Z</time>
      </trkpt>
      <trkpt lat="45.94034" lon="4.77942">
        <ele>201</ele>
        <time>2018-05-23T10:15:52Z</time>
      </trkpt>
      <trkpt lat="45.94033" lon="4.7793">
        <ele>200</ele>
        <time>2018-05-23T10:15:54Z</time>
      </trkpt>
      <trkpt lat="45.94032" lon="4.77926">
        <ele>200</ele>
        <time>2018-05-23T10:15:55Z</time>
      </trkpt>
      <trkpt lat="45.94029" lon="4.77923">
        <ele>200</ele>
        <time>2018-05-23T10:15:57Z</time>
      </trkpt>
      <trkpt lat="45.94018" lon="4.7792">
        <ele>198</ele>
        <time>2018-05-23T10:15:58Z</time>
      </trkpt>
      <trkpt lat="45.9401" lon="4.77918">
        <ele>196</ele>
        <time>2018-05-23T10:15:59Z</time>
      </trkpt>
      <trkpt lat="45.94" lon="4.77923">
        <ele>193</ele>
        <time>2018-05-23T10:16:00Z</time>
      </trkpt>
      <trkpt lat="45.93993" lon="4.77929">
        <ele>192</ele>
        <time>2018-05-23T10:16:01Z</time>
      </trkpt>
      <trkpt lat="45.93986" lon="4.77931">
        <ele>192</ele>
        <time>2018-05-23T10:16:02Z</time>
      </trkpt>
      <trkpt lat="45.93981" lon="4.77934">
        <ele>191</ele>
        <time>2018-05-23T10:16:03Z</time>
      </trkpt>
      <trkpt lat="45.93976" lon="4.77938">
        <ele>191</ele>
        <time>2018-05-23T10:16:04Z</time>
      </trkpt>
      <trkpt lat="45.93972" lon="4.77941">
        <ele>191</ele>
        <time>2018-05-23T10:16:05Z</time>
      </trkpt>
      <trkpt lat="45.93967" lon="4.77943">
        <ele>190</ele>
        <time>2018-05-23T10:16:06Z</time>
      </trkpt>
      <trkpt lat="45.93961" lon="4.77947">
        <ele>190</ele>
        <time>2018-05-23T10:16:08Z</time>
      </trkpt>
      <trkpt lat="45.93957" lon="4.77949">
        <ele>190</ele>
        <time>2018-05-23T10:16:09Z</time>
      </trkpt>
      <trkpt lat="45.93951" lon="4.77955">
        <ele>190</ele>
        <time>2018-05-23T10:16:14Z</time>
      </trkpt>
      <trkpt lat="45.93948" lon="4.77957">
        <ele>189</ele>
        <time>2018-05-23T10:16:15Z</time>
      </trkpt>
      <trkpt lat="45.9394" lon="4.77962">
        <ele>189</ele>
        <time>2018-05-23T10:16:18Z</time>
      </trkpt>
      <trkpt lat="45.93937" lon="4.77964">
        <ele>189</ele>
        <time>2018-05-23T10:16:19Z</time>
      </trkpt>
      <trkpt lat="45.9393" lon="4.77968">
        <ele>189</ele>
        <time>2018-05-23T10:16:22Z</time>
      </trkpt>
      <trkpt lat="45.93927" lon="4.77969">
        <ele>188</ele>
        <time>2018-05-23T10:16:23Z</time>
      </trkpt>
      <trkpt lat="45.9392" lon="4.77972">
        <ele>188</ele>
        <time>2018-05-23T10:16:26Z</time>
      </trkpt>
      <trkpt lat="45.93918" lon="4.77973">
        <ele>188</ele>
        <time>2018-05-23T10:16:27Z</time>
      </trkpt>
      <trkpt lat="45.93912" lon="4.77978">
        <ele>182</ele>
        <time>2018-05-23T10:16:30Z</time>
      </trkpt>
      <trkpt lat="45.9391" lon="4.7798">
        <ele>182</ele>
        <time>2018-05-23T10:16:31Z</time>
      </trkpt>
      <trkpt lat="45.93904" lon="4.77986">
        <ele>182</ele>
        <time>2018-05-23T10:16:35Z</time>
      </trkpt>
      <trkpt lat="45.93902" lon="4.77988">
        <ele>182</ele>
        <time>2018-05-23T10:16:36Z</time>
      </trkpt>
      <trkpt lat="45.93899" lon="4.77993">
        <ele>182</ele>
        <time>2018-05-23T10:16:38Z</time>
      </trkpt>
      <trkpt lat="45.93893" lon="4.78">
        <ele>184</ele>
        <time>2018-05-23T10:16:39Z</time>
      </trkpt>
      <trkpt lat="45.93886" lon="4.78009">
        <ele>184</ele>
        <time>2018-05-23T10:16:42Z</time>
      </trkpt>
      <trkpt lat="45.93886" lon="4.7801">
        <ele>184</ele>
        <time>2018-05-23T10:16:43Z</time>
      </trkpt>
      <trkpt lat="45.93877" lon="4.78013">
        <ele>183</ele>
        <time>2018-05-23T10:16:53Z</time>
      </trkpt>
      <trkpt lat="45.93875" lon="4.78013">
        <ele>183</ele>
        <time>2018-05-23T10:16:54Z</time>
      </trkpt>
      <trkpt lat="45.93867" lon="4.78006">
        <ele>183</ele>
        <time>2018-05-23T10:16:59Z</time>
      </trkpt>
      <trkpt lat="45.93863" lon="4.77998">
        <ele>179</ele>
        <time>2018-05-23T10:17:00Z</time>
      </trkpt>
      <trkpt lat="45.93856" lon="4.7799">
        <ele>179</ele>
        <time>2018-05-23T10:17:02Z</time>
      </trkpt>
      <trkpt lat="45.93852" lon="4.77989">
        <ele>179</ele>
        <time>2018-05-23T10:17:03Z</time>
      </trkpt>
      <trkpt lat="45.93845" lon="4.77984">
        <ele>179</ele>
        <time>2018-05-23T10:17:05Z</time>
      </trkpt>
      <trkpt lat="45.93842" lon="4.77981">
        <ele>178</ele>
        <time>2018-05-23T10:17:06Z</time>
      </trkpt>
      <trkpt lat="45.93836" lon="4.77973">
        <ele>178</ele>
        <time>2018-05-23T10:17:08Z</time>
      </trkpt>
      <trkpt lat="45.93833" lon="4.77969">
        <ele>172</ele>
        <time>2018-05-23T10:17:09Z</time>
      </trkpt>
      <trkpt lat="45.93827" lon="4.7796">
        <ele>171</ele>
        <time>2018-05-23T10:17:11Z</time>
      </trkpt>
      <trkpt lat="45.93823" lon="4.77956">
        <ele>170</ele>
        <time>2018-05-23T10:17:12Z</time>
      </trkpt>
      <trkpt lat="45.93819" lon="4.77952">
        <ele>170</ele>
        <time>2018-05-23T10:17:13Z</time>
      </trkpt>
      <trkpt lat="45.93816" lon="4.77948">
        <ele>169</ele>
        <time>2018-05-23T10:17:14Z</time>
      </trkpt>
      <trkpt lat="45.9381" lon="4.77938">
        <ele>169</ele>
        <time>2018-05-23T10:17:16Z</time>
      </trkpt>
      <trkpt lat="45.93806" lon="4.77932">
        <ele>168</ele>
        <time>2018-05-23T10:17:17Z</time>
      </trkpt>
      <trkpt lat="45.93803" lon="4.77928">
        <ele>168</ele>
        <time>2018-05-23T10:17:18Z</time>
      </trkpt>
      <trkpt lat="45.93799" lon="4.77924">
        <ele>168</ele>
        <time>2018-05-23T10:17:19Z</time>
      </trkpt>
      <trkpt lat="45.93796" lon="4.7792">
        <ele>168</ele>
        <time>2018-05-23T10:17:20Z</time>
      </trkpt>
      <trkpt lat="45.93791" lon="4.77915">
        <ele>166</ele>
        <time>2018-05-23T10:17:21Z</time>
      </trkpt>
      <trkpt lat="45.93787" lon="4.7791">
        <ele>166</ele>
        <time>2018-05-23T10:17:22Z</time>
      </trkpt>
      <trkpt lat="45.93783" lon="4.77907">
        <ele>166</ele>
        <time>2018-05-23T10:17:23Z</time>
      </trkpt>
      <trkpt lat="45.9378" lon="4.77902">
        <ele>166</ele>
        <time>2018-05-23T10:17:24Z</time>
      </trkpt>
      <trkpt lat="45.93776" lon="4.77899">
        <ele>166</ele>
        <time>2018-05-23T10:17:25Z</time>
      </trkpt>
      <trkpt lat="45.93772" lon="4.77894">
        <ele>166</ele>
        <time>2018-05-23T10:17:26Z</time>
      </trkpt>
      <trkpt lat="45.93767" lon="4.77891">
        <ele>166</ele>
        <time>2018-05-23T10:17:27Z</time>
      </trkpt>
      <trkpt lat="45.93763" lon="4.77886">
        <ele>166</ele>
        <time>2018-05-23T10:17:28Z</time>
      </trkpt>
      <trkpt lat="45.9376" lon="4.77879">
        <ele>166</ele>
        <time>2018-05-23T10:17:29Z</time>
      </trkpt>
      <trkpt lat="45.93755" lon="4.77874">
        <ele>166</ele>
        <time>2018-05-23T10:17:30Z</time>
      </trkpt>
      <trkpt lat="45.93751" lon="4.77868">
        <ele>166</ele>
        <time>2018-05-23T10:17:31Z</time>
      </trkpt>
      <trkpt lat="45.93747" lon="4.77862">
        <ele>167</ele>
        <time>2018-05-23T10:17:32Z</time>
      </trkpt>
      <trkpt lat="45.93742" lon="4.77857">
        <ele>167</ele>
        <time>2018-05-23T10:17:33Z</time>
      </trkpt>
      <trkpt lat="45.93737" lon="4.77851">
        <ele>167</ele>
        <time>2018-05-23T10:17:34Z</time>
      </trkpt>
      <trkpt lat="45.93732" lon="4.77845">
        <ele>167</ele>
        <time>2018-05-23T10:17:35Z</time>
      </trkpt>
      <trkpt lat="45.93728" lon="4.77839">
        <ele>167</ele>
        <time>2018-05-23T10:17:36Z</time>
      </trkpt>
      <trkpt lat="45.93723" lon="4.77834">
        <ele>167</ele>
        <time>2018-05-23T10:17:37Z</time>
      </trkpt>
      <trkpt lat="45.93717" lon="4.77827">
        <ele>168</ele>
        <time>2018-05-23T10:17:38Z</time>
      </trkpt>
      <trkpt lat="45.93713" lon="4.7782">
        <ele>169</ele>
        <time>2018-05-23T10:17:39Z</time>
      </trkpt>
      <trkpt lat="45.93707" lon="4.77814">
        <ele>169</ele>
        <time>2018-05-23T10:17:40Z</time>
      </trkpt>
      <trkpt lat="45.93702" lon="4.77806">
        <ele>169</ele>
        <time>2018-05-23T10:17:41Z</time>
      </trkpt>
      <trkpt lat="45.93697" lon="4.778">
        <ele>169</ele>
        <time>2018-05-23T10:17:42Z</time>
      </trkpt>
      <trkpt lat="45.93693" lon="4.77794">
        <ele>169</ele>
        <time>2018-05-23T10:17:43Z</time>
      </trkpt>
      <trkpt lat="45.93688" lon="4.77787">
        <ele>170</ele>
        <time>2018-05-23T10:17:44Z</time>
      </trkpt>
      <trkpt lat="45.93683" lon="4.77779">
        <ele>170</ele>
        <time>2018-05-23T10:17:45Z</time>
      </trkpt>
      <trkpt lat="45.93679" lon="4.77772">
        <ele>170</ele>
        <time>2018-05-23T10:17:46Z</time>
      </trkpt>
      <trkpt lat="45.93674" lon="4.77765">
        <ele>170</ele>
        <time>2018-05-23T10:17:47Z</time>
      </trkpt>
      <trkpt lat="45.93669" lon="4.77757">
        <ele>171</ele>
        <time>2018-05-23T10:17:48Z</time>
      </trkpt>
      <trkpt lat="45.93663" lon="4.77749">
        <ele>171</ele>
        <time>2018-05-23T10:17:49Z</time>
      </trkpt>
      <trkpt lat="45.93659" lon="4.77741">
        <ele>170</ele>
        <time>2018-05-23T10:17:50Z</time>
      </trkpt>
      <trkpt lat="45.93654" lon="4.77732">
        <ele>170</ele>
        <time>2018-05-23T10:17:51Z</time>
      </trkpt>
      <trkpt lat="45.9365" lon="4.77723">
        <ele>170</ele>
        <time>2018-05-23T10:17:52Z</time>
      </trkpt>
      <trkpt lat="45.93646" lon="4.77715">
        <ele>170</ele>
        <time>2018-05-23T10:17:53Z</time>
      </trkpt>
      <trkpt lat="45.93641" lon="4.77705">
        <ele>170</ele>
        <time>2018-05-23T10:17:54Z</time>
      </trkpt>
      <trkpt lat="45.93636" lon="4.77696">
        <ele>169</ele>
        <time>2018-05-23T10:17:55Z</time>
      </trkpt>
      <trkpt lat="45.93632" lon="4.77686">
        <ele>169</ele>
        <time>2018-05-23T10:17:56Z</time>
      </trkpt>
      <trkpt lat="45.93627" lon="4.77676">
        <ele>169</ele>
        <time>2018-05-23T10:17:57Z</time>
      </trkpt>
      <trkpt lat="45.93625" lon="4.77667">
        <ele>169</ele>
        <time>2018-05-23T10:17:58Z</time>
      </trkpt>
      <trkpt lat="45.93622" lon="4.77657">
        <ele>169</ele>
        <time>2018-05-23T10:17:59Z</time>
      </trkpt>
      <trkpt lat="45.93617" lon="4.77646">
        <ele>169</ele>
        <time>2018-05-23T10:18:00Z</time>
      </trkpt>
      <trkpt lat="45.93612" lon="4.77634">
        <ele>169</ele>
        <time>2018-05-23T10:18:01Z</time>
      </trkpt>
      <trkpt lat="45.93607" lon="4.77625">
        <ele>170</ele>
        <time>2018-05-23T10:18:02Z</time>
      </trkpt>
      <trkpt lat="45.93604" lon="4.77616">
        <ele>170</ele>
        <time>2018-05-23T10:18:03Z</time>
      </trkpt>
      <trkpt lat="45.936" lon="4.77607">
        <ele>170</ele>
        <time>2018-05-23T10:18:04Z</time>
      </trkpt>
      <trkpt lat="45.93598" lon="4.77598">
        <ele>170</ele>
        <time>2018-05-23T10:18:05Z</time>
      </trkpt>
      <trkpt lat="45.93595" lon="4.77589">
        <ele>170</ele>
        <time>2018-05-23T10:18:06Z</time>
      </trkpt>
      <trkpt lat="45.93591" lon="4.7758">
        <ele>170</ele>
        <time>2018-05-23T10:18:07Z</time>
      </trkpt>
      <trkpt lat="45.93588" lon="4.7757">
        <ele>170</ele>
        <time>2018-05-23T10:18:08Z</time>
      </trkpt>
      <trkpt lat="45.93586" lon="4.7756">
        <ele>170</ele>
        <time>2018-05-23T10:18:09Z</time>
      </trkpt>
      <trkpt lat="45.93583" lon="4.77552">
        <ele>169</ele>
        <time>2018-05-23T10:18:10Z</time>
      </trkpt>
      <trkpt lat="45.93581" lon="4.77543">
        <ele>169</ele>
        <time>2018-05-23T10:18:11Z</time>
      </trkpt>
      <trkpt lat="45.93577" lon="4.77534">
        <ele>169</ele>
        <time>2018-05-23T10:18:12Z</time>
      </trkpt>
      <trkpt lat="45.93575" lon="4.77526">
        <ele>169</ele>
        <time>2018-05-23T10:18:13Z</time>
      </trkpt>
      <trkpt lat="45.93572" lon="4.77518">
        <ele>169</ele>
        <time>2018-05-23T10:18:14Z</time>
      </trkpt>
      <trkpt lat="45.93569" lon="4.77509">
        <ele>169</ele>
        <time>2018-05-23T10:18:15Z</time>
      </trkpt>
      <trkpt lat="45.93567" lon="4.77499">
        <ele>169</ele>
        <time>2018-05-23T10:18:16Z</time>
      </trkpt>
      <trkpt lat="45.93566" lon="4.77491">
        <ele>169</ele>
        <time>2018-05-23T10:18:17Z</time>
      </trkpt>
      <trkpt lat="45.93565" lon="4.77482">
        <ele>169</ele>
        <time>2018-05-23T10:18:18Z</time>
      </trkpt>
      <trkpt lat="45.93563" lon="4.77475">
        <ele>169</ele>
        <time>2018-05-23T10:18:19Z</time>
      </trkpt>
      <trkpt lat="45.93561" lon="4.77466">
        <ele>169</ele>
        <time>2018-05-23T10:18:20Z</time>
      </trkpt>
      <trkpt lat="45.93558" lon="4.77458">
        <ele>169</ele>
        <time>2018-05-23T10:18:21Z</time>
      </trkpt>
      <trkpt lat="45.93556" lon="4.7745">
        <ele>169</ele>
        <time>2018-05-23T10:18:22Z</time>
      </trkpt>
      <trkpt lat="45.93554" lon="4.77442">
        <ele>169</ele>
        <time>2018-05-23T10:18:23Z</time>
      </trkpt>
      <trkpt lat="45.93552" lon="4.77433">
        <ele>169</ele>
        <time>2018-05-23T10:18:24Z</time>
      </trkpt>
      <trkpt lat="45.93551" lon="4.77425">
        <ele>170</ele>
        <time>2018-05-23T10:18:25Z</time>
      </trkpt>
      <trkpt lat="45.93548" lon="4.77415">
        <ele>170</ele>
        <time>2018-05-23T10:18:26Z</time>
      </trkpt>
      <trkpt lat="45.93546" lon="4.77406">
        <ele>170</ele>
        <time>2018-05-23T10:18:27Z</time>
      </trkpt>
      <trkpt lat="45.93545" lon="4.77397">
        <ele>170</ele>
        <time>2018-05-23T10:18:28Z</time>
      </trkpt>
      <trkpt lat="45.93543" lon="4.77389">
        <ele>170</ele>
        <time>2018-05-23T10:18:29Z</time>
      </trkpt>
      <trkpt lat="45.93541" lon="4.77381">
        <ele>170</ele>
        <time>2018-05-23T10:18:30Z</time>
      </trkpt>
      <trkpt lat="45.9354" lon="4.77374">
        <ele>170</ele>
        <time>2018-05-23T10:18:31Z</time>
      </trkpt>
      <trkpt lat="45.93538" lon="4.77366">
        <ele>170</ele>
        <time>2018-05-23T10:18:32Z</time>
      </trkpt>
      <trkpt lat="45.93536" lon="4.77357">
        <ele>170</ele>
        <time>2018-05-23T10:18:33Z</time>
      </trkpt>
      <trkpt lat="45.93533" lon="4.77349">
        <ele>170</ele>
        <time>2018-05-23T10:18:34Z</time>
      </trkpt>
      <trkpt lat="45.93531" lon="4.77342">
        <ele>170</ele>
        <time>2018-05-23T10:18:35Z</time>
      </trkpt>
      <trkpt lat="45.93528" lon="4.77334">
        <ele>170</ele>
        <time>2018-05-23T10:18:36Z</time>
      </trkpt>
      <trkpt lat="45.93527" lon="4.77327">
        <ele>170</ele>
        <time>2018-05-23T10:18:37Z</time>
      </trkpt>
      <trkpt lat="45.93525" lon="4.77319">
        <ele>170</ele>
        <time>2018-05-23T10:18:38Z</time>
      </trkpt>
      <trkpt lat="45.93523" lon="4.77311">
        <ele>170</ele>
        <time>2018-05-23T10:18:39Z</time>
      </trkpt>
      <trkpt lat="45.9352" lon="4.77303">
        <ele>170</ele>
        <time>2018-05-23T10:18:40Z</time>
      </trkpt>
      <trkpt lat="45.93518" lon="4.77295">
        <ele>170</ele>
        <time>2018-05-23T10:18:41Z</time>
      </trkpt>
      <trkpt lat="45.93516" lon="4.77285">
        <ele>170</ele>
        <time>2018-05-23T10:18:42Z</time>
      </trkpt>
      <trkpt lat="45.93515" lon="4.77277">
        <ele>170</ele>
        <time>2018-05-23T10:18:43Z</time>
      </trkpt>
      <trkpt lat="45.93511" lon="4.7727">
        <ele>170</ele>
        <time>2018-05-23T10:18:44Z</time>
      </trkpt>
      <trkpt lat="45.93511" lon="4.77263">
        <ele>170</ele>
        <time>2018-05-23T10:18:45Z</time>
      </trkpt>
      <trkpt lat="45.93509" lon="4.77255">
        <ele>170</ele>
        <time>2018-05-23T10:18:46Z</time>
      </trkpt>
      <trkpt lat="45.93507" lon="4.77247">
        <ele>170</ele>
        <time>2018-05-23T10:18:47Z</time>
      </trkpt>
      <trkpt lat="45.93506" lon="4.77239">
        <ele>169</ele>
        <time>2018-05-23T10:18:48Z</time>
      </trkpt>
      <trkpt lat="45.93505" lon="4.77231">
        <ele>169</ele>
        <time>2018-05-23T10:18:49Z</time>
      </trkpt>
      <trkpt lat="45.93501" lon="4.77224">
        <ele>169</ele>
        <time>2018-05-23T10:18:50Z</time>
      </trkpt>
      <trkpt lat="45.93498" lon="4.77216">
        <ele>169</ele>
        <time>2018-05-23T10:18:51Z</time>
      </trkpt>
      <trkpt lat="45.93497" lon="4.77207">
        <ele>169</ele>
        <time>2018-05-23T10:18:52Z</time>
      </trkpt>
      <trkpt lat="45.93495" lon="4.77199">
        <ele>169</ele>
        <time>2018-05-23T10:18:53Z</time>
      </trkpt>
      <trkpt lat="45.93497" lon="4.77192">
        <ele>169</ele>
        <time>2018-05-23T10:18:54Z</time>
      </trkpt>
      <trkpt lat="45.93495" lon="4.77184">
        <ele>169</ele>
        <time>2018-05-23T10:18:55Z</time>
      </trkpt>
      <trkpt lat="45.93493" lon="4.77175">
        <ele>169</ele>
        <time>2018-05-23T10:18:56Z</time>
      </trkpt>
      <trkpt lat="45.9349" lon="4.77166">
        <ele>169</ele>
        <time>2018-05-23T10:18:57Z</time>
      </trkpt>
      <trkpt lat="45.93488" lon="4.77158">
        <ele>169</ele>
        <time>2018-05-23T10:18:58Z</time>
      </trkpt>
      <trkpt lat="45.93487" lon="4.77149">
        <ele>169</ele>
        <time>2018-05-23T10:18:59Z</time>
      </trkpt>
      <trkpt lat="45.93485" lon="4.77141">
        <ele>169</ele>
        <time>2018-05-23T10:19:00Z</time>
      </trkpt>
      <trkpt lat="45.93483" lon="4.77134">
        <ele>169</ele>
        <time>2018-05-23T10:19:01Z</time>
      </trkpt>
      <trkpt lat="45.93481" lon="4.77125">
        <ele>169</ele>
        <time>2018-05-23T10:19:02Z</time>
      </trkpt>
      <trkpt lat="45.93479" lon="4.77116">
        <ele>169</ele>
        <time>2018-05-23T10:19:03Z</time>
      </trkpt>
      <trkpt lat="45.93478" lon="4.77108">
        <ele>169</ele>
        <time>2018-05-23T10:19:04Z</time>
      </trkpt>
      <trkpt lat="45.93475" lon="4.77099">
        <ele>169</ele>
        <time>2018-05-23T10:19:05Z</time>
      </trkpt>
      <trkpt lat="45.93474" lon="4.7709">
        <ele>169</ele>
        <time>2018-05-23T10:19:06Z</time>
      </trkpt>
      <trkpt lat="45.93472" lon="4.77081">
        <ele>170</ele>
        <time>2018-05-23T10:19:07Z</time>
      </trkpt>
      <trkpt lat="45.93471" lon="4.77073">
        <ele>170</ele>
        <time>2018-05-23T10:19:08Z</time>
      </trkpt>
      <trkpt lat="45.9347" lon="4.77064">
        <ele>170</ele>
        <time>2018-05-23T10:19:09Z</time>
      </trkpt>
      <trkpt lat="45.93468" lon="4.77055">
        <ele>170</ele>
        <time>2018-05-23T10:19:10Z</time>
      </trkpt>
      <trkpt lat="45.93466" lon="4.77047">
        <ele>170</ele>
        <time>2018-05-23T10:19:11Z</time>
      </trkpt>
      <trkpt lat="45.93464" lon="4.77039">
        <ele>170</ele>
        <time>2018-05-23T10:19:12Z</time>
      </trkpt>
      <trkpt lat="45.93462" lon="4.7703">
        <ele>170</ele>
        <time>2018-05-23T10:19:13Z</time>
      </trkpt>
      <trkpt lat="45.93461" lon="4.7702">
        <ele>170</ele>
        <time>2018-05-23T10:19:14Z</time>
      </trkpt>
      <trkpt lat="45.9346" lon="4.77011">
        <ele>170</ele>
        <time>2018-05-23T10:19:15Z</time>
      </trkpt>
      <trkpt lat="45.93458" lon="4.77003">
        <ele>170</ele>
        <time>2018-05-23T10:19:16Z</time>
      </trkpt>
      <trkpt lat="45.93457" lon="4.76994">
        <ele>170</ele>
        <time>2018-05-23T10:19:17Z</time>
      </trkpt>
      <trkpt lat="45.93455" lon="4.76984">
        <ele>170</ele>
        <time>2018-05-23T10:19:18Z</time>
      </trkpt>
      <trkpt lat="45.93454" lon="4.76976">
        <ele>170</ele>
        <time>2018-05-23T10:19:19Z</time>
      </trkpt>
      <trkpt lat="45.93451" lon="4.76966">
        <ele>170</ele>
        <time>2018-05-23T10:19:20Z</time>
      </trkpt>
      <trkpt lat="45.93449" lon="4.76957">
        <ele>170</ele>
        <time>2018-05-23T10:19:21Z</time>
      </trkpt>
      <trkpt lat="45.93449" lon="4.76949">
        <ele>170</ele>
        <time>2018-05-23T10:19:22Z</time>
      </trkpt>
      <trkpt lat="45.93447" lon="4.76941">
        <ele>170</ele>
        <time>2018-05-23T10:19:23Z</time>
      </trkpt>
      <trkpt lat="45.93445" lon="4.76932">
        <ele>170</ele>
        <time>2018-05-23T10:19:24Z</time>
      </trkpt>
      <trkpt lat="45.93443" lon="4.76923">
        <ele>170</ele>
        <time>2018-05-23T10:19:25Z</time>
      </trkpt>
      <trkpt lat="45.93441" lon="4.76914">
        <ele>170</ele>
        <time>2018-05-23T10:19:26Z</time>
      </trkpt>
      <trkpt lat="45.9344" lon="4.76905">
        <ele>170</ele>
        <time>2018-05-23T10:19:27Z</time>
      </trkpt>
      <trkpt lat="45.93439" lon="4.76897">
        <ele>170</ele>
        <time>2018-05-23T10:19:28Z</time>
      </trkpt>
      <trkpt lat="45.93437" lon="4.76888">
        <ele>171</ele>
        <time>2018-05-23T10:19:29Z</time>
      </trkpt>
      <trkpt lat="45.93434" lon="4.76879">
        <ele>171</ele>
        <time>2018-05-23T10:19:30Z</time>
      </trkpt>
      <trkpt lat="45.93432" lon="4.76871">
        <ele>171</ele>
        <time>2018-05-23T10:19:31Z</time>
      </trkpt>
      <trkpt lat="45.93429" lon="4.76864">
        <ele>171</ele>
        <time>2018-05-23T10:19:32Z</time>
      </trkpt>
      <trkpt lat="45.93426" lon="4.76856">
        <ele>171</ele>
        <time>2018-05-23T10:19:33Z</time>
      </trkpt>
      <trkpt lat="45.93421" lon="4.76849">
        <ele>171</ele>
        <time>2018-05-23T10:19:34Z</time>
      </trkpt>
      <trkpt lat="45.93418" lon="4.76842">
        <ele>172</ele>
        <time>2018-05-23T10:19:35Z</time>
      </trkpt>
      <trkpt lat="45.93415" lon="4.76833">
        <ele>172</ele>
        <time>2018-05-23T10:19:36Z</time>
      </trkpt>
      <trkpt lat="45.93413" lon="4.76826">
        <ele>172</ele>
        <time>2018-05-23T10:19:37Z</time>
      </trkpt>
      <trkpt lat="45.93409" lon="4.76819">
        <ele>172</ele>
        <time>2018-05-23T10:19:38Z</time>
      </trkpt>
      <trkpt lat="45.93403" lon="4.76812">
        <ele>172</ele>
        <time>2018-05-23T10:19:39Z</time>
      </trkpt>
      <trkpt lat="45.93398" lon="4.76806">
        <ele>172</ele>
        <time>2018-05-23T10:19:40Z</time>
      </trkpt>
      <trkpt lat="45.93394" lon="4.76799">
        <ele>172</ele>
        <time>2018-05-23T10:19:41Z</time>
      </trkpt>
      <trkpt lat="45.93388" lon="4.76793">
        <ele>172</ele>
        <time>2018-05-23T10:19:42Z</time>
      </trkpt>
      <trkpt lat="45.93384" lon="4.76785">
        <ele>172</ele>
        <time>2018-05-23T10:19:43Z</time>
      </trkpt>
      <trkpt lat="45.93379" lon="4.76781">
        <ele>172</ele>
        <time>2018-05-23T10:19:44Z</time>
      </trkpt>
      <trkpt lat="45.93374" lon="4.76775">
        <ele>172</ele>
        <time>2018-05-23T10:19:45Z</time>
      </trkpt>
      <trkpt lat="45.93369" lon="4.7677">
        <ele>172</ele>
        <time>2018-05-23T10:19:46Z</time>
      </trkpt>
      <trkpt lat="45.93364" lon="4.76764">
        <ele>172</ele>
        <time>2018-05-23T10:19:47Z</time>
      </trkpt>
      <trkpt lat="45.93359" lon="4.76758">
        <ele>172</ele>
        <time>2018-05-23T10:19:48Z</time>
      </trkpt>
      <trkpt lat="45.93353" lon="4.76752">
        <ele>172</ele>
        <time>2018-05-23T10:19:49Z</time>
      </trkpt>
      <trkpt lat="45.93348" lon="4.76748">
        <ele>172</ele>
        <time>2018-05-23T10:19:50Z</time>
      </trkpt>
      <trkpt lat="45.93342" lon="4.76743">
        <ele>173</ele>
        <time>2018-05-23T10:19:51Z</time>
      </trkpt>
      <trkpt lat="45.93336" lon="4.76738">
        <ele>172</ele>
        <time>2018-05-23T10:19:52Z</time>
      </trkpt>
      <trkpt lat="45.93331" lon="4.76733">
        <ele>172</ele>
        <time>2018-05-23T10:19:53Z</time>
      </trkpt>
      <trkpt lat="45.93326" lon="4.76727">
        <ele>172</ele>
        <time>2018-05-23T10:19:54Z</time>
      </trkpt>
      <trkpt lat="45.93321" lon="4.76722">
        <ele>172</ele>
        <time>2018-05-23T10:19:55Z</time>
      </trkpt>
      <trkpt lat="45.93317" lon="4.76718">
        <ele>172</ele>
        <time>2018-05-23T10:19:56Z</time>
      </trkpt>
      <trkpt lat="45.93312" lon="4.76715">
        <ele>172</ele>
        <time>2018-05-23T10:19:57Z</time>
      </trkpt>
      <trkpt lat="45.93306" lon="4.76712">
        <ele>172</ele>
        <time>2018-05-23T10:19:58Z</time>
      </trkpt>
      <trkpt lat="45.93301" lon="4.76707">
        <ele>172</ele>
        <time>2018-05-23T10:19:59Z</time>
      </trkpt>
      <trkpt lat="45.93296" lon="4.76703">
        <ele>172</ele>
        <time>2018-05-23T10:20:00Z</time>
      </trkpt>
      <trkpt lat="45.93292" lon="4.76699">
        <ele>172</ele>
        <time>2018-05-23T10:20:01Z</time>
      </trkpt>
      <trkpt lat="45.93287" lon="4.76694">
        <ele>172</ele>
        <time>2018-05-23T10:20:02Z</time>
      </trkpt>
      <trkpt lat="45.93282" lon="4.76689">
        <ele>172</ele>
        <time>2018-05-23T10:20:03Z</time>
      </trkpt>
      <trkpt lat="45.93278" lon="4.76684">
        <ele>172</ele>
        <time>2018-05-23T10:20:04Z</time>
      </trkpt>
      <trkpt lat="45.93273" lon="4.76679">
        <ele>172</ele>
        <time>2018-05-23T10:20:05Z</time>
      </trkpt>
      <trkpt lat="45.93269" lon="4.76675">
        <ele>172</ele>
        <time>2018-05-23T10:20:06Z</time>
      </trkpt>
      <trkpt lat="45.93265" lon="4.76669">
        <ele>172</ele>
        <time>2018-05-23T10:20:07Z</time>
      </trkpt>
      <trkpt lat="45.9326" lon="4.76665">
        <ele>171</ele>
        <time>2018-05-23T10:20:08Z</time>
      </trkpt>
      <trkpt lat="45.93255" lon="4.7666">
        <ele>171</ele>
        <time>2018-05-23T10:20:09Z</time>
      </trkpt>
      <trkpt lat="45.93251" lon="4.76655">
        <ele>171</ele>
        <time>2018-05-23T10:20:10Z</time>
      </trkpt>
      <trkpt lat="45.93243" lon="4.76652">
        <ele>171</ele>
        <time>2018-05-23T10:20:11Z</time>
      </trkpt>
      <trkpt lat="45.93238" lon="4.76648">
        <ele>171</ele>
        <time>2018-05-23T10:20:12Z</time>
      </trkpt>
      <trkpt lat="45.93236" lon="4.76641">
        <ele>171</ele>
        <time>2018-05-23T10:20:13Z</time>
      </trkpt>
      <trkpt lat="45.93233" lon="4.76636">
        <ele>171</ele>
        <time>2018-05-23T10:20:14Z</time>
      </trkpt>
      <trkpt lat="45.93228" lon="4.76631">
        <ele>170</ele>
        <time>2018-05-23T10:20:15Z</time>
      </trkpt>
      <trkpt lat="45.93224" lon="4.76625">
        <ele>170</ele>
        <time>2018-05-23T10:20:16Z</time>
      </trkpt>
      <trkpt lat="45.93218" lon="4.7662">
        <ele>170</ele>
        <time>2018-05-23T10:20:17Z</time>
      </trkpt>
      <trkpt lat="45.93214" lon="4.76615">
        <ele>170</ele>
        <time>2018-05-23T10:20:18Z</time>
      </trkpt>
      <trkpt lat="45.93209" lon="4.7661">
        <ele>170</ele>
        <time>2018-05-23T10:20:19Z</time>
      </trkpt>
      <trkpt lat="45.93203" lon="4.76606">
        <ele>170</ele>
        <time>2018-05-23T10:20:20Z</time>
      </trkpt>
      <trkpt lat="45.93198" lon="4.76601">
        <ele>170</ele>
        <time>2018-05-23T10:20:21Z</time>
      </trkpt>
      <trkpt lat="45.93193" lon="4.76596">
        <ele>170</ele>
        <time>2018-05-23T10:20:22Z</time>
      </trkpt>
      <trkpt lat="45.93188" lon="4.76592">
        <ele>171</ele>
        <time>2018-05-23T10:20:23Z</time>
      </trkpt>
      <trkpt lat="45.93186" lon="4.76588">
        <ele>171</ele>
        <time>2018-05-23T10:20:24Z</time>
      </trkpt>
      <trkpt lat="45.93181" lon="4.76582">
        <ele>170</ele>
        <time>2018-05-23T10:20:25Z</time>
      </trkpt>
      <trkpt lat="45.93177" lon="4.76577">
        <ele>170</ele>
        <time>2018-05-23T10:20:26Z</time>
      </trkpt>
      <trkpt lat="45.93173" lon="4.76573">
        <ele>170</ele>
        <time>2018-05-23T10:20:27Z</time>
      </trkpt>
      <trkpt lat="45.93168" lon="4.76568">
        <ele>170</ele>
        <time>2018-05-23T10:20:28Z</time>
      </trkpt>
      <trkpt lat="45.93164" lon="4.76564">
        <ele>170</ele>
        <time>2018-05-23T10:20:29Z</time>
      </trkpt>
      <trkpt lat="45.93161" lon="4.76559">
        <ele>170</ele>
        <time>2018-05-23T10:20:30Z</time>
      </trkpt>
      <trkpt lat="45.93155" lon="4.76555">
        <ele>170</ele>
        <time>2018-05-23T10:20:31Z</time>
      </trkpt>
      <trkpt lat="45.9315" lon="4.76549">
        <ele>170</ele>
        <time>2018-05-23T10:20:32Z</time>
      </trkpt>
      <trkpt lat="45.93145" lon="4.76543">
        <ele>170</ele>
        <time>2018-05-23T10:20:33Z</time>
      </trkpt>
      <trkpt lat="45.9314" lon="4.76535">
        <ele>170</ele>
        <time>2018-05-23T10:20:35Z</time>
      </trkpt>
      <trkpt lat="45.93137" lon="4.76529">
        <ele>170</ele>
        <time>2018-05-23T10:20:36Z</time>
      </trkpt>
      <trkpt lat="45.93132" lon="4.7652">
        <ele>170</ele>
        <time>2018-05-23T10:20:38Z</time>
      </trkpt>
      <trkpt lat="45.93129" lon="4.76516">
        <ele>170</ele>
        <time>2018-05-23T10:20:39Z</time>
      </trkpt>
      <trkpt lat="45.93121" lon="4.76513">
        <ele>170</ele>
        <time>2018-05-23T10:20:40Z</time>
      </trkpt>
      <trkpt lat="45.93117" lon="4.76507">
        <ele>170</ele>
        <time>2018-05-23T10:20:41Z</time>
      </trkpt>
      <trkpt lat="45.93112" lon="4.76501">
        <ele>170</ele>
        <time>2018-05-23T10:20:42Z</time>
      </trkpt>
      <trkpt lat="45.93107" lon="4.76495">
        <ele>169</ele>
        <time>2018-05-23T10:20:43Z</time>
      </trkpt>
      <trkpt lat="45.93102" lon="4.76491">
        <ele>169</ele>
        <time>2018-05-23T10:20:44Z</time>
      </trkpt>
      <trkpt lat="45.93097" lon="4.76485">
        <ele>169</ele>
        <time>2018-05-23T10:20:45Z</time>
      </trkpt>
      <trkpt lat="45.93092" lon="4.7648">
        <ele>169</ele>
        <time>2018-05-23T10:20:46Z</time>
      </trkpt>
      <trkpt lat="45.93088" lon="4.76476">
        <ele>169</ele>
        <time>2018-05-23T10:20:47Z</time>
      </trkpt>
      <trkpt lat="45.93081" lon="4.76473">
        <ele>169</ele>
        <time>2018-05-23T10:20:48Z</time>
      </trkpt>
      <trkpt lat="45.93075" lon="4.76468">
        <ele>169</ele>
        <time>2018-05-23T10:20:49Z</time>
      </trkpt>
      <trkpt lat="45.9307" lon="4.76465">
        <ele>169</ele>
        <time>2018-05-23T10:20:50Z</time>
      </trkpt>
      <trkpt lat="45.93065" lon="4.76459">
        <ele>169</ele>
        <time>2018-05-23T10:20:51Z</time>
      </trkpt>
      <trkpt lat="45.93062" lon="4.76454">
        <ele>169</ele>
        <time>2018-05-23T10:20:52Z</time>
      </trkpt>
      <trkpt lat="45.93057" lon="4.76449">
        <ele>169</ele>
        <time>2018-05-23T10:20:53Z</time>
      </trkpt>
      <trkpt lat="45.93052" lon="4.76444">
        <ele>169</ele>
        <time>2018-05-23T10:20:54Z</time>
      </trkpt>
      <trkpt lat="45.93047" lon="4.76439">
        <ele>169</ele>
        <time>2018-05-23T10:20:55Z</time>
      </trkpt>
      <trkpt lat="45.93039" lon="4.76436">
        <ele>169</ele>
        <time>2018-05-23T10:20:56Z</time>
      </trkpt>
      <trkpt lat="45.93033" lon="4.76432">
        <ele>169</ele>
        <time>2018-05-23T10:20:57Z</time>
      </trkpt>
      <trkpt lat="45.93028" lon="4.76428">
        <ele>169</ele>
        <time>2018-05-23T10:20:58Z</time>
      </trkpt>
      <trkpt lat="45.93024" lon="4.76423">
        <ele>169</ele>
        <time>2018-05-23T10:20:59Z</time>
      </trkpt>
      <trkpt lat="45.93018" lon="4.76418">
        <ele>169</ele>
        <time>2018-05-23T10:21:00Z</time>
      </trkpt>
      <trkpt lat="45.93014" lon="4.76413">
        <ele>169</ele>
        <time>2018-05-23T10:21:01Z</time>
      </trkpt>
      <trkpt lat="45.93006" lon="4.76408">
        <ele>169</ele>
        <time>2018-05-23T10:21:02Z</time>
      </trkpt>
      <trkpt lat="45.93002" lon="4.76403">
        <ele>169</ele>
        <time>2018-05-23T10:21:03Z</time>
      </trkpt>
      <trkpt lat="45.92998" lon="4.764">
        <ele>169</ele>
        <time>2018-05-23T10:21:04Z</time>
      </trkpt>
      <trkpt lat="45.92994" lon="4.76396">
        <ele>169</ele>
        <time>2018-05-23T10:21:05Z</time>
      </trkpt>
      <trkpt lat="45.9299" lon="4.76394">
        <ele>169</ele>
        <time>2018-05-23T10:21:06Z</time>
      </trkpt>
      <trkpt lat="45.92985" lon="4.76389">
        <ele>169</ele>
        <time>2018-05-23T10:21:07Z</time>
      </trkpt>
      <trkpt lat="45.9298" lon="4.76385">
        <ele>169</ele>
        <time>2018-05-23T10:21:08Z</time>
      </trkpt>
      <trkpt lat="45.92976" lon="4.76381">
        <ele>169</ele>
        <time>2018-05-23T10:21:09Z</time>
      </trkpt>
      <trkpt lat="45.92972" lon="4.76376">
        <ele>169</ele>
        <time>2018-05-23T10:21:10Z</time>
      </trkpt>
      <trkpt lat="45.92968" lon="4.76371">
        <ele>169</ele>
        <time>2018-05-23T10:21:11Z</time>
      </trkpt>
      <trkpt lat="45.92964" lon="4.76367">
        <ele>169</ele>
        <time>2018-05-23T10:21:12Z</time>
      </trkpt>
      <trkpt lat="45.92959" lon="4.76363">
        <ele>169</ele>
        <time>2018-05-23T10:21:13Z</time>
      </trkpt>
      <trkpt lat="45.92955" lon="4.76357">
        <ele>169</ele>
        <time>2018-05-23T10:21:14Z</time>
      </trkpt>
      <trkpt lat="45.92951" lon="4.76352">
        <ele>169</ele>
        <time>2018-05-23T10:21:15Z</time>
      </trkpt>
      <trkpt lat="45.92946" lon="4.76347">
        <ele>169</ele>
        <time>2018-05-23T10:21:16Z</time>
      </trkpt>
      <trkpt lat="45.92941" lon="4.76342">
        <ele>169</ele>
        <time>2018-05-23T10:21:17Z</time>
      </trkpt>
      <trkpt lat="45.92936" lon="4.76338">
        <ele>169</ele>
        <time>2018-05-23T10:21:18Z</time>
      </trkpt>
      <trkpt lat="45.92931" lon="4.76333">
        <ele>169</ele>
        <time>2018-05-23T10:21:19Z</time>
      </trkpt>
      <trkpt lat="45.92925" lon="4.76329">
        <ele>169</ele>
        <time>2018-05-23T10:21:20Z</time>
      </trkpt>
      <trkpt lat="45.92919" lon="4.76324">
        <ele>169</ele>
        <time>2018-05-23T10:21:21Z</time>
      </trkpt>
      <trkpt lat="45.92917" lon="4.76318">
        <ele>169</ele>
        <time>2018-05-23T10:21:22Z</time>
      </trkpt>
      <trkpt lat="45.92911" lon="4.76312">
        <ele>169</ele>
        <time>2018-05-23T10:21:23Z</time>
      </trkpt>
      <trkpt lat="45.92906" lon="4.76307">
        <ele>169</ele>
        <time>2018-05-23T10:21:24Z</time>
      </trkpt>
      <trkpt lat="45.92901" lon="4.76302">
        <ele>169</ele>
        <time>2018-05-23T10:21:25Z</time>
      </trkpt>
      <trkpt lat="45.92894" lon="4.76296">
        <ele>169</ele>
        <time>2018-05-23T10:21:26Z</time>
      </trkpt>
      <trkpt lat="45.92889" lon="4.76292">
        <ele>169</ele>
        <time>2018-05-23T10:21:27Z</time>
      </trkpt>
      <trkpt lat="45.92884" lon="4.76288">
        <ele>169</ele>
        <time>2018-05-23T10:21:28Z</time>
      </trkpt>
      <trkpt lat="45.92879" lon="4.76282">
        <ele>169</ele>
        <time>2018-05-23T10:21:29Z</time>
      </trkpt>
      <trkpt lat="45.92875" lon="4.76278">
        <ele>169</ele>
        <time>2018-05-23T10:21:30Z</time>
      </trkpt>
      <trkpt lat="45.9287" lon="4.76272">
        <ele>169</ele>
        <time>2018-05-23T10:21:31Z</time>
      </trkpt>
      <trkpt lat="45.92865" lon="4.76267">
        <ele>169</ele>
        <time>2018-05-23T10:21:32Z</time>
      </trkpt>
      <trkpt lat="45.92861" lon="4.76264">
        <ele>169</ele>
        <time>2018-05-23T10:21:33Z</time>
      </trkpt>
      <trkpt lat="45.92855" lon="4.76258">
        <ele>169</ele>
        <time>2018-05-23T10:21:34Z</time>
      </trkpt>
      <trkpt lat="45.92852" lon="4.76251">
        <ele>169</ele>
        <time>2018-05-23T10:21:35Z</time>
      </trkpt>
      <trkpt lat="45.92848" lon="4.76246">
        <ele>169</ele>
        <time>2018-05-23T10:21:36Z</time>
      </trkpt>
      <trkpt lat="45.92844" lon="4.76243">
        <ele>169</ele>
        <time>2018-05-23T10:21:37Z</time>
      </trkpt>
      <trkpt lat="45.92839" lon="4.76239">
        <ele>169</ele>
        <time>2018-05-23T10:21:38Z</time>
      </trkpt>
      <trkpt lat="45.92834" lon="4.76233">
        <ele>169</ele>
        <time>2018-05-23T10:21:39Z</time>
      </trkpt>
      <trkpt lat="45.9283" lon="4.76226">
        <ele>168</ele>
        <time>2018-05-23T10:21:40Z</time>
      </trkpt>
      <trkpt lat="45.92826" lon="4.76221">
        <ele>168</ele>
        <time>2018-05-23T10:21:41Z</time>
      </trkpt>
      <trkpt lat="45.92821" lon="4.76218">
        <ele>168</ele>
        <time>2018-05-23T10:21:42Z</time>
      </trkpt>
      <trkpt lat="45.92815" lon="4.76212">
        <ele>168</ele>
        <time>2018-05-23T10:21:43Z</time>
      </trkpt>
      <trkpt lat="45.92811" lon="4.76209">
        <ele>168</ele>
        <time>2018-05-23T10:21:44Z</time>
      </trkpt>
      <trkpt lat="45.92807" lon="4.76204">
        <ele>168</ele>
        <time>2018-05-23T10:21:45Z</time>
      </trkpt>
      <trkpt lat="45.92802" lon="4.76199">
        <ele>168</ele>
        <time>2018-05-23T10:21:46Z</time>
      </trkpt>
      <trkpt lat="45.92798" lon="4.76194">
        <ele>168</ele>
        <time>2018-05-23T10:21:47Z</time>
      </trkpt>
      <trkpt lat="45.92791" lon="4.76187">
        <ele>168</ele>
        <time>2018-05-23T10:21:49Z</time>
      </trkpt>
      <trkpt lat="45.92789" lon="4.7618">
        <ele>168</ele>
        <time>2018-05-23T10:21:50Z</time>
      </trkpt>
      <trkpt lat="45.92783" lon="4.76176">
        <ele>167</ele>
        <time>2018-05-23T10:21:51Z</time>
      </trkpt>
      <trkpt lat="45.92778" lon="4.76171">
        <ele>167</ele>
        <time>2018-05-23T10:21:52Z</time>
      </trkpt>
      <trkpt lat="45.92769" lon="4.76168">
        <ele>167</ele>
        <time>2018-05-23T10:21:53Z</time>
      </trkpt>
      <trkpt lat="45.92765" lon="4.76162">
        <ele>167</ele>
        <time>2018-05-23T10:21:54Z</time>
      </trkpt>
      <trkpt lat="45.92761" lon="4.76159">
        <ele>167</ele>
        <time>2018-05-23T10:21:55Z</time>
      </trkpt>
      <trkpt lat="45.92755" lon="4.76156">
        <ele>167</ele>
        <time>2018-05-23T10:21:56Z</time>
      </trkpt>
      <trkpt lat="45.92751" lon="4.76152">
        <ele>167</ele>
        <time>2018-05-23T10:21:57Z</time>
      </trkpt>
      <trkpt lat="45.92744" lon="4.76149">
        <ele>168</ele>
        <time>2018-05-23T10:21:58Z</time>
      </trkpt>
      <trkpt lat="45.92739" lon="4.76145">
        <ele>168</ele>
        <time>2018-05-23T10:21:59Z</time>
      </trkpt>
      <trkpt lat="45.92734" lon="4.76141">
        <ele>168</ele>
        <time>2018-05-23T10:22:00Z</time>
      </trkpt>
      <trkpt lat="45.92729" lon="4.76137">
        <ele>168</ele>
        <time>2018-05-23T10:22:01Z</time>
      </trkpt>
      <trkpt lat="45.92725" lon="4.76133">
        <ele>168</ele>
        <time>2018-05-23T10:22:02Z</time>
      </trkpt>
      <trkpt lat="45.9272" lon="4.76129">
        <ele>168</ele>
        <time>2018-05-23T10:22:03Z</time>
      </trkpt>
      <trkpt lat="45.92716" lon="4.76125">
        <ele>168</ele>
        <time>2018-05-23T10:22:04Z</time>
      </trkpt>
      <trkpt lat="45.9271" lon="4.76121">
        <ele>168</ele>
        <time>2018-05-23T10:22:05Z</time>
      </trkpt>
      <trkpt lat="45.92705" lon="4.76118">
        <ele>169</ele>
        <time>2018-05-23T10:22:06Z</time>
      </trkpt>
      <trkpt lat="45.92698" lon="4.76114">
        <ele>169</ele>
        <time>2018-05-23T10:22:07Z</time>
      </trkpt>
      <trkpt lat="45.92693" lon="4.7611">
        <ele>169</ele>
        <time>2018-05-23T10:22:08Z</time>
      </trkpt>
      <trkpt lat="45.92687" lon="4.76108">
        <ele>169</ele>
        <time>2018-05-23T10:22:09Z</time>
      </trkpt>
      <trkpt lat="45.9268" lon="4.76104">
        <ele>169</ele>
        <time>2018-05-23T10:22:10Z</time>
      </trkpt>
      <trkpt lat="45.92676" lon="4.761">
        <ele>169</ele>
        <time>2018-05-23T10:22:11Z</time>
      </trkpt>
      <trkpt lat="45.92672" lon="4.76096">
        <ele>169</ele>
        <time>2018-05-23T10:22:12Z</time>
      </trkpt>
      <trkpt lat="45.92668" lon="4.76093">
        <ele>170</ele>
        <time>2018-05-23T10:22:13Z</time>
      </trkpt>
      <trkpt lat="45.92662" lon="4.76087">
        <ele>170</ele>
        <time>2018-05-23T10:22:15Z</time>
      </trkpt>
      <trkpt lat="45.92658" lon="4.76084">
        <ele>170</ele>
        <time>2018-05-23T10:22:16Z</time>
      </trkpt>
      <trkpt lat="45.9265" lon="4.76078">
        <ele>170</ele>
        <time>2018-05-23T10:22:18Z</time>
      </trkpt>
      <trkpt lat="45.92644" lon="4.76076">
        <ele>170</ele>
        <time>2018-05-23T10:22:19Z</time>
      </trkpt>
      <trkpt lat="45.92637" lon="4.76069">
        <ele>170</ele>
        <time>2018-05-23T10:22:21Z</time>
      </trkpt>
      <trkpt lat="45.92633" lon="4.76065">
        <ele>170</ele>
        <time>2018-05-23T10:22:22Z</time>
      </trkpt>
      <trkpt lat="45.92628" lon="4.76062">
        <ele>170</ele>
        <time>2018-05-23T10:22:23Z</time>
      </trkpt>
      <trkpt lat="45.92624" lon="4.7606">
        <ele>171</ele>
        <time>2018-05-23T10:22:24Z</time>
      </trkpt>
      <trkpt lat="45.92616" lon="4.76057">
        <ele>171</ele>
        <time>2018-05-23T10:22:26Z</time>
      </trkpt>
      <trkpt lat="45.92613" lon="4.76054">
        <ele>171</ele>
        <time>2018-05-23T10:22:27Z</time>
      </trkpt>
      <trkpt lat="45.92606" lon="4.76048">
        <ele>171</ele>
        <time>2018-05-23T10:22:29Z</time>
      </trkpt>
      <trkpt lat="45.92602" lon="4.76045">
        <ele>171</ele>
        <time>2018-05-23T10:22:30Z</time>
      </trkpt>
      <trkpt lat="45.92594" lon="4.76042">
        <ele>171</ele>
        <time>2018-05-23T10:22:32Z</time>
      </trkpt>
      <trkpt lat="45.9259" lon="4.76039">
        <ele>171</ele>
        <time>2018-05-23T10:22:33Z</time>
      </trkpt>
      <trkpt lat="45.92583" lon="4.76035">
        <ele>172</ele>
        <time>2018-05-23T10:22:35Z</time>
      </trkpt>
      <trkpt lat="45.92579" lon="4.76032">
        <ele>172</ele>
        <time>2018-05-23T10:22:36Z</time>
      </trkpt>
      <trkpt lat="45.92572" lon="4.76027">
        <ele>172</ele>
        <time>2018-05-23T10:22:38Z</time>
      </trkpt>
      <trkpt lat="45.92568" lon="4.76024">
        <ele>172</ele>
        <time>2018-05-23T10:22:39Z</time>
      </trkpt>
      <trkpt lat="45.9256" lon="4.76019">
        <ele>172</ele>
        <time>2018-05-23T10:22:41Z</time>
      </trkpt>
      <trkpt lat="45.92557" lon="4.76017">
        <ele>172</ele>
        <time>2018-05-23T10:22:42Z</time>
      </trkpt>
      <trkpt lat="45.92549" lon="4.76011">
        <ele>172</ele>
        <time>2018-05-23T10:22:44Z</time>
      </trkpt>
      <trkpt lat="45.92545" lon="4.76009">
        <ele>172</ele>
        <time>2018-05-23T10:22:45Z</time>
      </trkpt>
      <trkpt lat="45.92538" lon="4.76003">
        <ele>172</ele>
        <time>2018-05-23T10:22:47Z</time>
      </trkpt>
      <trkpt lat="45.92534" lon="4.76001">
        <ele>172</ele>
        <time>2018-05-23T10:22:48Z</time>
      </trkpt>
      <trkpt lat="45.92528" lon="4.75994">
        <ele>172</ele>
        <time>2018-05-23T10:22:50Z</time>
      </trkpt>
      <trkpt lat="45.92523" lon="4.75991">
        <ele>172</ele>
        <time>2018-05-23T10:22:51Z</time>
      </trkpt>
      <trkpt lat="45.92515" lon="4.75986">
        <ele>172</ele>
        <time>2018-05-23T10:22:53Z</time>
      </trkpt>
      <trkpt lat="45.92511" lon="4.75982">
        <ele>172</ele>
        <time>2018-05-23T10:22:54Z</time>
      </trkpt>
      <trkpt lat="45.92507" lon="4.7598">
        <ele>172</ele>
        <time>2018-05-23T10:22:55Z</time>
      </trkpt>
      <trkpt lat="45.92502" lon="4.75977">
        <ele>172</ele>
        <time>2018-05-23T10:22:56Z</time>
      </trkpt>
      <trkpt lat="45.92498" lon="4.75974">
        <ele>172</ele>
        <time>2018-05-23T10:22:57Z</time>
      </trkpt>
      <trkpt lat="45.92494" lon="4.75971">
        <ele>172</ele>
        <time>2018-05-23T10:22:58Z</time>
      </trkpt>
      <trkpt lat="45.92489" lon="4.75967">
        <ele>172</ele>
        <time>2018-05-23T10:22:59Z</time>
      </trkpt>
      <trkpt lat="45.92484" lon="4.75964">
        <ele>172</ele>
        <time>2018-05-23T10:23:00Z</time>
      </trkpt>
      <trkpt lat="45.92479" lon="4.7596">
        <ele>172</ele>
        <time>2018-05-23T10:23:01Z</time>
      </trkpt>
      <trkpt lat="45.92474" lon="4.75957">
        <ele>172</ele>
        <time>2018-05-23T10:23:02Z</time>
      </trkpt>
      <trkpt lat="45.92468" lon="4.75954">
        <ele>172</ele>
        <time>2018-05-23T10:23:03Z</time>
      </trkpt>
      <trkpt lat="45.92463" lon="4.7595">
        <ele>172</ele>
        <time>2018-05-23T10:23:04Z</time>
      </trkpt>
      <trkpt lat="45.92459" lon="4.75947">
        <ele>172</ele>
        <time>2018-05-23T10:23:05Z</time>
      </trkpt>
      <trkpt lat="45.92453" lon="4.75942">
        <ele>172</ele>
        <time>2018-05-23T10:23:06Z</time>
      </trkpt>
      <trkpt lat="45.92447" lon="4.75939">
        <ele>172</ele>
        <time>2018-05-23T10:23:07Z</time>
      </trkpt>
      <trkpt lat="45.92442" lon="4.75935">
        <ele>172</ele>
        <time>2018-05-23T10:23:08Z</time>
      </trkpt>
      <trkpt lat="45.92437" lon="4.7593">
        <ele>172</ele>
        <time>2018-05-23T10:23:09Z</time>
      </trkpt>
      <trkpt lat="45.92432" lon="4.75927">
        <ele>172</ele>
        <time>2018-05-23T10:23:10Z</time>
      </trkpt>
      <trkpt lat="45.92425" lon="4.75923">
        <ele>172</ele>
        <time>2018-05-23T10:23:11Z</time>
      </trkpt>
      <trkpt lat="45.92417" lon="4.75918">
        <ele>172</ele>
        <time>2018-05-23T10:23:12Z</time>
      </trkpt>
      <trkpt lat="45.9241" lon="4.75914">
        <ele>172</ele>
        <time>2018-05-23T10:23:13Z</time>
      </trkpt>
      <trkpt lat="45.92404" lon="4.7591">
        <ele>172</ele>
        <time>2018-05-23T10:23:14Z</time>
      </trkpt>
      <trkpt lat="45.92397" lon="4.75906">
        <ele>173</ele>
        <time>2018-05-23T10:23:15Z</time>
      </trkpt>
      <trkpt lat="45.92391" lon="4.75902">
        <ele>173</ele>
        <time>2018-05-23T10:23:16Z</time>
      </trkpt>
      <trkpt lat="45.92384" lon="4.75897">
        <ele>173</ele>
        <time>2018-05-23T10:23:17Z</time>
      </trkpt>
      <trkpt lat="45.92378" lon="4.75893">
        <ele>173</ele>
        <time>2018-05-23T10:23:18Z</time>
      </trkpt>
      <trkpt lat="45.92372" lon="4.75888">
        <ele>173</ele>
        <time>2018-05-23T10:23:19Z</time>
      </trkpt>
      <trkpt lat="45.92366" lon="4.75884">
        <ele>173</ele>
        <time>2018-05-23T10:23:20Z</time>
      </trkpt>
      <trkpt lat="45.92361" lon="4.7588">
        <ele>173</ele>
        <time>2018-05-23T10:23:21Z</time>
      </trkpt>
      <trkpt lat="45.92356" lon="4.75877">
        <ele>173</ele>
        <time>2018-05-23T10:23:22Z</time>
      </trkpt>
      <trkpt lat="45.9235" lon="4.75873">
        <ele>173</ele>
        <time>2018-05-23T10:23:23Z</time>
      </trkpt>
      <trkpt lat="45.92345" lon="4.7587">
        <ele>173</ele>
        <time>2018-05-23T10:23:24Z</time>
      </trkpt>
      <trkpt lat="45.92339" lon="4.75867">
        <ele>173</ele>
        <time>2018-05-23T10:23:25Z</time>
      </trkpt>
      <trkpt lat="45.92335" lon="4.75864">
        <ele>173</ele>
        <time>2018-05-23T10:23:26Z</time>
      </trkpt>
      <trkpt lat="45.92331" lon="4.7586">
        <ele>173</ele>
        <time>2018-05-23T10:23:27Z</time>
      </trkpt>
      <trkpt lat="45.92326" lon="4.75854">
        <ele>174</ele>
        <time>2018-05-23T10:23:28Z</time>
      </trkpt>
      <trkpt lat="45.92319" lon="4.75848">
        <ele>174</ele>
        <time>2018-05-23T10:23:29Z</time>
      </trkpt>
      <trkpt lat="45.92313" lon="4.75845">
        <ele>174</ele>
        <time>2018-05-23T10:23:30Z</time>
      </trkpt>
      <trkpt lat="45.92307" lon="4.75842">
        <ele>173</ele>
        <time>2018-05-23T10:23:31Z</time>
      </trkpt>
      <trkpt lat="45.92301" lon="4.75838">
        <ele>173</ele>
        <time>2018-05-23T10:23:32Z</time>
      </trkpt>
      <trkpt lat="45.92295" lon="4.75834">
        <ele>173</ele>
        <time>2018-05-23T10:23:33Z</time>
      </trkpt>
      <trkpt lat="45.92291" lon="4.7583">
        <ele>174</ele>
        <time>2018-05-23T10:23:34Z</time>
      </trkpt>
      <trkpt lat="45.92286" lon="4.75828">
        <ele>174</ele>
        <time>2018-05-23T10:23:35Z</time>
      </trkpt>
      <trkpt lat="45.92281" lon="4.75824">
        <ele>174</ele>
        <time>2018-05-23T10:23:36Z</time>
      </trkpt>
      <trkpt lat="45.92276" lon="4.7582">
        <ele>174</ele>
        <time>2018-05-23T10:23:37Z</time>
      </trkpt>
      <trkpt lat="45.92272" lon="4.75816">
        <ele>174</ele>
        <time>2018-05-23T10:23:38Z</time>
      </trkpt>
      <trkpt lat="45.92268" lon="4.7581">
        <ele>174</ele>
        <time>2018-05-23T10:23:39Z</time>
      </trkpt>
      <trkpt lat="45.92266" lon="4.75804">
        <ele>174</ele>
        <time>2018-05-23T10:23:40Z</time>
      </trkpt>
      <trkpt lat="45.92264" lon="4.75797">
        <ele>174</ele>
        <time>2018-05-23T10:23:41Z</time>
      </trkpt>
      <trkpt lat="45.9226" lon="4.75792">
        <ele>174</ele>
        <time>2018-05-23T10:23:42Z</time>
      </trkpt>
      <trkpt lat="45.92258" lon="4.75785">
        <ele>174</ele>
        <time>2018-05-23T10:23:43Z</time>
      </trkpt>
      <trkpt lat="45.92256" lon="4.75778">
        <ele>174</ele>
        <time>2018-05-23T10:23:44Z</time>
      </trkpt>
      <trkpt lat="45.92254" lon="4.75772">
        <ele>174</ele>
        <time>2018-05-23T10:23:45Z</time>
      </trkpt>
      <trkpt lat="45.92253" lon="4.75764">
        <ele>174</ele>
        <time>2018-05-23T10:23:46Z</time>
      </trkpt>
      <trkpt lat="45.92254" lon="4.75756">
        <ele>174</ele>
        <time>2018-05-23T10:23:47Z</time>
      </trkpt>
      <trkpt lat="45.92253" lon="4.75748">
        <ele>174</ele>
        <time>2018-05-23T10:23:48Z</time>
      </trkpt>
      <trkpt lat="45.92251" lon="4.7574">
        <ele>174</ele>
        <time>2018-05-23T10:23:49Z</time>
      </trkpt>
      <trkpt lat="45.92249" lon="4.75732">
        <ele>174</ele>
        <time>2018-05-23T10:23:50Z</time>
      </trkpt>
      <trkpt lat="45.92246" lon="4.75725">
        <ele>174</ele>
        <time>2018-05-23T10:23:51Z</time>
      </trkpt>
      <trkpt lat="45.92244" lon="4.75718">
        <ele>174</ele>
        <time>2018-05-23T10:23:52Z</time>
      </trkpt>
      <trkpt lat="45.9224" lon="4.75711">
        <ele>174</ele>
        <time>2018-05-23T10:23:53Z</time>
      </trkpt>
      <trkpt lat="45.92236" lon="4.75705">
        <ele>174</ele>
        <time>2018-05-23T10:23:54Z</time>
      </trkpt>
      <trkpt lat="45.92232" lon="4.757">
        <ele>174</ele>
        <time>2018-05-23T10:23:55Z</time>
      </trkpt>
      <trkpt lat="45.92227" lon="4.75694">
        <ele>174</ele>
        <time>2018-05-23T10:23:56Z</time>
      </trkpt>
      <trkpt lat="45.92222" lon="4.75689">
        <ele>174</ele>
        <time>2018-05-23T10:23:57Z</time>
      </trkpt>
      <trkpt lat="45.92217" lon="4.75685">
        <ele>174</ele>
        <time>2018-05-23T10:23:58Z</time>
      </trkpt>
      <trkpt lat="45.92212" lon="4.7568">
        <ele>174</ele>
        <time>2018-05-23T10:23:59Z</time>
      </trkpt>
      <trkpt lat="45.92208" lon="4.75675">
        <ele>174</ele>
        <time>2018-05-23T10:24:00Z</time>
      </trkpt>
      <trkpt lat="45.92203" lon="4.75671">
        <ele>174</ele>
        <time>2018-05-23T10:24:01Z</time>
      </trkpt>
      <trkpt lat="45.92199" lon="4.75666">
        <ele>174</ele>
        <time>2018-05-23T10:24:02Z</time>
      </trkpt>
      <trkpt lat="45.92194" lon="4.75661">
        <ele>174</ele>
        <time>2018-05-23T10:24:03Z</time>
      </trkpt>
      <trkpt lat="45.92189" lon="4.75657">
        <ele>174</ele>
        <time>2018-05-23T10:24:04Z</time>
      </trkpt>
      <trkpt lat="45.92185" lon="4.75652">
        <ele>174</ele>
        <time>2018-05-23T10:24:05Z</time>
      </trkpt>
      <trkpt lat="45.9218" lon="4.75648">
        <ele>174</ele>
        <time>2018-05-23T10:24:06Z</time>
      </trkpt>
      <trkpt lat="45.92176" lon="4.75644">
        <ele>174</ele>
        <time>2018-05-23T10:24:07Z</time>
      </trkpt>
      <trkpt lat="45.9217" lon="4.7564">
        <ele>174</ele>
        <time>2018-05-23T10:24:08Z</time>
      </trkpt>
      <trkpt lat="45.92165" lon="4.75636">
        <ele>174</ele>
        <time>2018-05-23T10:24:09Z</time>
      </trkpt>
      <trkpt lat="45.92161" lon="4.75631">
        <ele>174</ele>
        <time>2018-05-23T10:24:10Z</time>
      </trkpt>
      <trkpt lat="45.92155" lon="4.75626">
        <ele>174</ele>
        <time>2018-05-23T10:24:11Z</time>
      </trkpt>
      <trkpt lat="45.9215" lon="4.75621">
        <ele>174</ele>
        <time>2018-05-23T10:24:12Z</time>
      </trkpt>
      <trkpt lat="45.92146" lon="4.75617">
        <ele>174</ele>
        <time>2018-05-23T10:24:13Z</time>
      </trkpt>
      <trkpt lat="45.92141" lon="4.75612">
        <ele>174</ele>
        <time>2018-05-23T10:24:14Z</time>
      </trkpt>
      <trkpt lat="45.92137" lon="4.75607">
        <ele>174</ele>
        <time>2018-05-23T10:24:15Z</time>
      </trkpt>
      <trkpt lat="45.92133" lon="4.75602">
        <ele>174</ele>
        <time>2018-05-23T10:24:16Z</time>
      </trkpt>
      <trkpt lat="45.92129" lon="4.75597">
        <ele>174</ele>
        <time>2018-05-23T10:24:17Z</time>
      </trkpt>
      <trkpt lat="45.92125" lon="4.75593">
        <ele>174</ele>
        <time>2018-05-23T10:24:18Z</time>
      </trkpt>
      <trkpt lat="45.92119" lon="4.75583">
        <ele>174</ele>
        <time>2018-05-23T10:24:23Z</time>
      </trkpt>
      <trkpt lat="45.92119" lon="4.75581">
        <ele>174</ele>
        <time>2018-05-23T10:24:24Z</time>
      </trkpt>
      <trkpt lat="45.92117" lon="4.75571">
        <ele>174</ele>
        <time>2018-05-23T10:24:28Z</time>
      </trkpt>
      <trkpt lat="45.92116" lon="4.75567">
        <ele>174</ele>
        <time>2018-05-23T10:24:29Z</time>
      </trkpt>
      <trkpt lat="45.92119" lon="4.75556">
        <ele>174</ele>
        <time>2018-05-23T10:24:32Z</time>
      </trkpt>
      <trkpt lat="45.92124" lon="4.75545">
        <ele>174</ele>
        <time>2018-05-23T10:24:33Z</time>
      </trkpt>
      <trkpt lat="45.92129" lon="4.75537">
        <ele>174</ele>
        <time>2018-05-23T10:24:35Z</time>
      </trkpt>
      <trkpt lat="45.92132" lon="4.75533">
        <ele>174</ele>
        <time>2018-05-23T10:24:36Z</time>
      </trkpt>
      <trkpt lat="45.92138" lon="4.75523">
        <ele>174</ele>
        <time>2018-05-23T10:24:38Z</time>
      </trkpt>
      <trkpt lat="45.92142" lon="4.75518">
        <ele>174</ele>
        <time>2018-05-23T10:24:39Z</time>
      </trkpt>
      <trkpt lat="45.92145" lon="4.75512">
        <ele>175</ele>
        <time>2018-05-23T10:24:40Z</time>
      </trkpt>
      <trkpt lat="45.92148" lon="4.75507">
        <ele>175</ele>
        <time>2018-05-23T10:24:41Z</time>
      </trkpt>
      <trkpt lat="45.9215" lon="4.75501">
        <ele>175</ele>
        <time>2018-05-23T10:24:42Z</time>
      </trkpt>
      <trkpt lat="45.92152" lon="4.75494">
        <ele>175</ele>
        <time>2018-05-23T10:24:43Z</time>
      </trkpt>
      <trkpt lat="45.92154" lon="4.75488">
        <ele>176</ele>
        <time>2018-05-23T10:24:44Z</time>
      </trkpt>
      <trkpt lat="45.92157" lon="4.75481">
        <ele>176</ele>
        <time>2018-05-23T10:24:45Z</time>
      </trkpt>
      <trkpt lat="45.92159" lon="4.75475">
        <ele>176</ele>
        <time>2018-05-23T10:24:46Z</time>
      </trkpt>
      <trkpt lat="45.92163" lon="4.75466">
        <ele>176</ele>
        <time>2018-05-23T10:24:47Z</time>
      </trkpt>
      <trkpt lat="45.92165" lon="4.75459">
        <ele>176</ele>
        <time>2018-05-23T10:24:48Z</time>
      </trkpt>
      <trkpt lat="45.92168" lon="4.75454">
        <ele>176</ele>
        <time>2018-05-23T10:24:49Z</time>
      </trkpt>
      <trkpt lat="45.9217" lon="4.75447">
        <ele>176</ele>
        <time>2018-05-23T10:24:50Z</time>
      </trkpt>
      <trkpt lat="45.92173" lon="4.7544">
        <ele>177</ele>
        <time>2018-05-23T10:24:51Z</time>
      </trkpt>
      <trkpt lat="45.92176" lon="4.75434">
        <ele>177</ele>
        <time>2018-05-23T10:24:52Z</time>
      </trkpt>
      <trkpt lat="45.92178" lon="4.75427">
        <ele>177</ele>
        <time>2018-05-23T10:24:53Z</time>
      </trkpt>
      <trkpt lat="45.92179" lon="4.75421">
        <ele>177</ele>
        <time>2018-05-23T10:24:54Z</time>
      </trkpt>
      <trkpt lat="45.92182" lon="4.75414">
        <ele>177</ele>
        <time>2018-05-23T10:24:55Z</time>
      </trkpt>
      <trkpt lat="45.92185" lon="4.75406">
        <ele>177</ele>
        <time>2018-05-23T10:24:56Z</time>
      </trkpt>
      <trkpt lat="45.92188" lon="4.754">
        <ele>177</ele>
        <time>2018-05-23T10:24:57Z</time>
      </trkpt>
      <trkpt lat="45.92191" lon="4.75393">
        <ele>177</ele>
        <time>2018-05-23T10:24:58Z</time>
      </trkpt>
      <trkpt lat="45.92193" lon="4.75385">
        <ele>177</ele>
        <time>2018-05-23T10:24:59Z</time>
      </trkpt>
      <trkpt lat="45.92197" lon="4.75378">
        <ele>177</ele>
        <time>2018-05-23T10:25:00Z</time>
      </trkpt>
      <trkpt lat="45.922" lon="4.7537">
        <ele>177</ele>
        <time>2018-05-23T10:25:01Z</time>
      </trkpt>
      <trkpt lat="45.92203" lon="4.75363">
        <ele>177</ele>
        <time>2018-05-23T10:25:02Z</time>
      </trkpt>
      <trkpt lat="45.92204" lon="4.75354">
        <ele>177</ele>
        <time>2018-05-23T10:25:03Z</time>
      </trkpt>
      <trkpt lat="45.92205" lon="4.75345">
        <ele>177</ele>
        <time>2018-05-23T10:25:04Z</time>
      </trkpt>
      <trkpt lat="45.92207" lon="4.75337">
        <ele>177</ele>
        <time>2018-05-23T10:25:05Z</time>
      </trkpt>
      <trkpt lat="45.92209" lon="4.75327">
        <ele>176</ele>
        <time>2018-05-23T10:25:06Z</time>
      </trkpt>
      <trkpt lat="45.9221" lon="4.75317">
        <ele>176</ele>
        <time>2018-05-23T10:25:07Z</time>
      </trkpt>
      <trkpt lat="45.92211" lon="4.75306">
        <ele>176</ele>
        <time>2018-05-23T10:25:08Z</time>
      </trkpt>
      <trkpt lat="45.92211" lon="4.75299">
        <ele>176</ele>
        <time>2018-05-23T10:25:09Z</time>
      </trkpt>
      <trkpt lat="45.92212" lon="4.75289">
        <ele>176</ele>
        <time>2018-05-23T10:25:10Z</time>
      </trkpt>
      <trkpt lat="45.92212" lon="4.75278">
        <ele>176</ele>
        <time>2018-05-23T10:25:11Z</time>
      </trkpt>
      <trkpt lat="45.92213" lon="4.75267">
        <ele>176</ele>
        <time>2018-05-23T10:25:12Z</time>
      </trkpt>
      <trkpt lat="45.92212" lon="4.75257">
        <ele>175</ele>
        <time>2018-05-23T10:25:13Z</time>
      </trkpt>
      <trkpt lat="45.92213" lon="4.75246">
        <ele>175</ele>
        <time>2018-05-23T10:25:14Z</time>
      </trkpt>
      <trkpt lat="45.92214" lon="4.75236">
        <ele>175</ele>
        <time>2018-05-23T10:25:15Z</time>
      </trkpt>
      <trkpt lat="45.92214" lon="4.75226">
        <ele>175</ele>
        <time>2018-05-23T10:25:16Z</time>
      </trkpt>
      <trkpt lat="45.92216" lon="4.75216">
        <ele>175</ele>
        <time>2018-05-23T10:25:17Z</time>
      </trkpt>
      <trkpt lat="45.92217" lon="4.75205">
        <ele>175</ele>
        <time>2018-05-23T10:25:18Z</time>
      </trkpt>
      <trkpt lat="45.92219" lon="4.75194">
        <ele>175</ele>
        <time>2018-05-23T10:25:19Z</time>
      </trkpt>
      <trkpt lat="45.92221" lon="4.75183">
        <ele>175</ele>
        <time>2018-05-23T10:25:20Z</time>
      </trkpt>
      <trkpt lat="45.92225" lon="4.75173">
        <ele>175</ele>
        <time>2018-05-23T10:25:21Z</time>
      </trkpt>
      <trkpt lat="45.92228" lon="4.75164">
        <ele>174</ele>
        <time>2018-05-23T10:25:22Z</time>
      </trkpt>
      <trkpt lat="45.92232" lon="4.75155">
        <ele>174</ele>
        <time>2018-05-23T10:25:23Z</time>
      </trkpt>
      <trkpt lat="45.92236" lon="4.75146">
        <ele>174</ele>
        <time>2018-05-23T10:25:24Z</time>
      </trkpt>
      <trkpt lat="45.92241" lon="4.75139">
        <ele>174</ele>
        <time>2018-05-23T10:25:25Z</time>
      </trkpt>
      <trkpt lat="45.92245" lon="4.75132">
        <ele>174</ele>
        <time>2018-05-23T10:25:26Z</time>
      </trkpt>
      <trkpt lat="45.9225" lon="4.75126">
        <ele>174</ele>
        <time>2018-05-23T10:25:27Z</time>
      </trkpt>
      <trkpt lat="45.92256" lon="4.7512">
        <ele>174</ele>
        <time>2018-05-23T10:25:28Z</time>
      </trkpt>
      <trkpt lat="45.92261" lon="4.75115">
        <ele>174</ele>
        <time>2018-05-23T10:25:29Z</time>
      </trkpt>
      <trkpt lat="45.92266" lon="4.75109">
        <ele>174</ele>
        <time>2018-05-23T10:25:30Z</time>
      </trkpt>
      <trkpt lat="45.92271" lon="4.75104">
        <ele>174</ele>
        <time>2018-05-23T10:25:31Z</time>
      </trkpt>
      <trkpt lat="45.92276" lon="4.75099">
        <ele>173</ele>
        <time>2018-05-23T10:25:32Z</time>
      </trkpt>
      <trkpt lat="45.92282" lon="4.75094">
        <ele>173</ele>
        <time>2018-05-23T10:25:33Z</time>
      </trkpt>
      <trkpt lat="45.92286" lon="4.7509">
        <ele>173</ele>
        <time>2018-05-23T10:25:34Z</time>
      </trkpt>
      <trkpt lat="45.9229" lon="4.75086">
        <ele>173</ele>
        <time>2018-05-23T10:25:35Z</time>
      </trkpt>
      <trkpt lat="45.92295" lon="4.7508">
        <ele>172</ele>
        <time>2018-05-23T10:25:36Z</time>
      </trkpt>
      <trkpt lat="45.92298" lon="4.75076">
        <ele>172</ele>
        <time>2018-05-23T10:25:37Z</time>
      </trkpt>
      <trkpt lat="45.92302" lon="4.75071">
        <ele>172</ele>
        <time>2018-05-23T10:25:38Z</time>
      </trkpt>
      <trkpt lat="45.92307" lon="4.75065">
        <ele>172</ele>
        <time>2018-05-23T10:25:39Z</time>
      </trkpt>
      <trkpt lat="45.92311" lon="4.7506">
        <ele>172</ele>
        <time>2018-05-23T10:25:40Z</time>
      </trkpt>
      <trkpt lat="45.92316" lon="4.75054">
        <ele>172</ele>
        <time>2018-05-23T10:25:41Z</time>
      </trkpt>
      <trkpt lat="45.9232" lon="4.75048">
        <ele>172</ele>
        <time>2018-05-23T10:25:42Z</time>
      </trkpt>
      <trkpt lat="45.92323" lon="4.75041">
        <ele>172</ele>
        <time>2018-05-23T10:25:43Z</time>
      </trkpt>
      <trkpt lat="45.92326" lon="4.75035">
        <ele>171</ele>
        <time>2018-05-23T10:25:44Z</time>
      </trkpt>
      <trkpt lat="45.92329" lon="4.75029">
        <ele>171</ele>
        <time>2018-05-23T10:25:45Z</time>
      </trkpt>
      <trkpt lat="45.92333" lon="4.75021">
        <ele>171</ele>
        <time>2018-05-23T10:25:46Z</time>
      </trkpt>
      <trkpt lat="45.92338" lon="4.75012">
        <ele>170</ele>
        <time>2018-05-23T10:25:47Z</time>
      </trkpt>
      <trkpt lat="45.9234" lon="4.75004">
        <ele>170</ele>
        <time>2018-05-23T10:25:48Z</time>
      </trkpt>
      <trkpt lat="45.92344" lon="4.74997">
        <ele>170</ele>
        <time>2018-05-23T10:25:49Z</time>
      </trkpt>
      <trkpt lat="45.92347" lon="4.74989">
        <ele>170</ele>
        <time>2018-05-23T10:25:50Z</time>
      </trkpt>
      <trkpt lat="45.9235" lon="4.74982">
        <ele>170</ele>
        <time>2018-05-23T10:25:51Z</time>
      </trkpt>
      <trkpt lat="45.92353" lon="4.74974">
        <ele>170</ele>
        <time>2018-05-23T10:25:52Z</time>
      </trkpt>
      <trkpt lat="45.92355" lon="4.74965">
        <ele>170</ele>
        <time>2018-05-23T10:25:53Z</time>
      </trkpt>
      <trkpt lat="45.92358" lon="4.74957">
        <ele>170</ele>
        <time>2018-05-23T10:25:54Z</time>
      </trkpt>
      <trkpt lat="45.9236" lon="4.7495">
        <ele>170</ele>
        <time>2018-05-23T10:25:55Z</time>
      </trkpt>
      <trkpt lat="45.92363" lon="4.74942">
        <ele>170</ele>
        <time>2018-05-23T10:25:56Z</time>
      </trkpt>
      <trkpt lat="45.92366" lon="4.74933">
        <ele>170</ele>
        <time>2018-05-23T10:25:57Z</time>
      </trkpt>
      <trkpt lat="45.92369" lon="4.74926">
        <ele>170</ele>
        <time>2018-05-23T10:25:58Z</time>
      </trkpt>
      <trkpt lat="45.92372" lon="4.74919">
        <ele>170</ele>
        <time>2018-05-23T10:25:59Z</time>
      </trkpt>
      <trkpt lat="45.92375" lon="4.74911">
        <ele>171</ele>
        <time>2018-05-23T10:26:00Z</time>
      </trkpt>
      <trkpt lat="45.92378" lon="4.74904">
        <ele>171</ele>
        <time>2018-05-23T10:26:01Z</time>
      </trkpt>
      <trkpt lat="45.92381" lon="4.74897">
        <ele>171</ele>
        <time>2018-05-23T10:26:02Z</time>
      </trkpt>
      <trkpt lat="45.92382" lon="4.7489">
        <ele>171</ele>
        <time>2018-05-23T10:26:03Z</time>
      </trkpt>
      <trkpt lat="45.92385" lon="4.74879">
        <ele>171</ele>
        <time>2018-05-23T10:26:05Z</time>
      </trkpt>
      <trkpt lat="45.92387" lon="4.74871">
        <ele>171</ele>
        <time>2018-05-23T10:26:06Z</time>
      </trkpt>
      <trkpt lat="45.9239" lon="4.74862">
        <ele>171</ele>
        <time>2018-05-23T10:26:07Z</time>
      </trkpt>
      <trkpt lat="45.92392" lon="4.74854">
        <ele>171</ele>
        <time>2018-05-23T10:26:08Z</time>
      </trkpt>
      <trkpt lat="45.92394" lon="4.74846">
        <ele>171</ele>
        <time>2018-05-23T10:26:09Z</time>
      </trkpt>
      <trkpt lat="45.92396" lon="4.74839">
        <ele>171</ele>
        <time>2018-05-23T10:26:10Z</time>
      </trkpt>
      <trkpt lat="45.92398" lon="4.74832">
        <ele>171</ele>
        <time>2018-05-23T10:26:11Z</time>
      </trkpt>
      <trkpt lat="45.92401" lon="4.74823">
        <ele>171</ele>
        <time>2018-05-23T10:26:12Z</time>
      </trkpt>
      <trkpt lat="45.92403" lon="4.74814">
        <ele>171</ele>
        <time>2018-05-23T10:26:13Z</time>
      </trkpt>
      <trkpt lat="45.92403" lon="4.74807">
        <ele>171</ele>
        <time>2018-05-23T10:26:14Z</time>
      </trkpt>
      <trkpt lat="45.92406" lon="4.74799">
        <ele>171</ele>
        <time>2018-05-23T10:26:15Z</time>
      </trkpt>
      <trkpt lat="45.92406" lon="4.74791">
        <ele>171</ele>
        <time>2018-05-23T10:26:16Z</time>
      </trkpt>
      <trkpt lat="45.92408" lon="4.74783">
        <ele>171</ele>
        <time>2018-05-23T10:26:17Z</time>
      </trkpt>
      <trkpt lat="45.9241" lon="4.74776">
        <ele>171</ele>
        <time>2018-05-23T10:26:18Z</time>
      </trkpt>
      <trkpt lat="45.92412" lon="4.74769">
        <ele>172</ele>
        <time>2018-05-23T10:26:19Z</time>
      </trkpt>
      <trkpt lat="45.92414" lon="4.7476">
        <ele>172</ele>
        <time>2018-05-23T10:26:20Z</time>
      </trkpt>
      <trkpt lat="45.92416" lon="4.74752">
        <ele>172</ele>
        <time>2018-05-23T10:26:21Z</time>
      </trkpt>
      <trkpt lat="45.92419" lon="4.74745">
        <ele>172</ele>
        <time>2018-05-23T10:26:22Z</time>
      </trkpt>
      <trkpt lat="45.92421" lon="4.74738">
        <ele>172</ele>
        <time>2018-05-23T10:26:23Z</time>
      </trkpt>
      <trkpt lat="45.92424" lon="4.74731">
        <ele>171</ele>
        <time>2018-05-23T10:26:24Z</time>
      </trkpt>
      <trkpt lat="45.92427" lon="4.74722">
        <ele>171</ele>
        <time>2018-05-23T10:26:25Z</time>
      </trkpt>
      <trkpt lat="45.9243" lon="4.74715">
        <ele>171</ele>
        <time>2018-05-23T10:26:26Z</time>
      </trkpt>
      <trkpt lat="45.92433" lon="4.74707">
        <ele>171</ele>
        <time>2018-05-23T10:26:27Z</time>
      </trkpt>
      <trkpt lat="45.92436" lon="4.747">
        <ele>171</ele>
        <time>2018-05-23T10:26:28Z</time>
      </trkpt>
      <trkpt lat="45.92439" lon="4.74693">
        <ele>171</ele>
        <time>2018-05-23T10:26:29Z</time>
      </trkpt>
      <trkpt lat="45.92442" lon="4.74687">
        <ele>171</ele>
        <time>2018-05-23T10:26:30Z</time>
      </trkpt>
      <trkpt lat="45.92445" lon="4.7468">
        <ele>171</ele>
        <time>2018-05-23T10:26:31Z</time>
      </trkpt>
      <trkpt lat="45.92449" lon="4.74673">
        <ele>171</ele>
        <time>2018-05-23T10:26:32Z</time>
      </trkpt>
      <trkpt lat="45.92452" lon="4.74664">
        <ele>171</ele>
        <time>2018-05-23T10:26:33Z</time>
      </trkpt>
      <trkpt lat="45.92456" lon="4.74658">
        <ele>171</ele>
        <time>2018-05-23T10:26:34Z</time>
      </trkpt>
      <trkpt lat="45.92459" lon="4.74651">
        <ele>171</ele>
        <time>2018-05-23T10:26:35Z</time>
      </trkpt>
      <trkpt lat="45.92463" lon="4.74646">
        <ele>171</ele>
        <time>2018-05-23T10:26:36Z</time>
      </trkpt>
      <trkpt lat="45.92468" lon="4.74639">
        <ele>171</ele>
        <time>2018-05-23T10:26:37Z</time>
      </trkpt>
      <trkpt lat="45.92475" lon="4.74632">
        <ele>171</ele>
        <time>2018-05-23T10:26:38Z</time>
      </trkpt>
      <trkpt lat="45.92479" lon="4.74629">
        <ele>171</ele>
        <time>2018-05-23T10:26:39Z</time>
      </trkpt>
      <trkpt lat="45.92483" lon="4.74623">
        <ele>171</ele>
        <time>2018-05-23T10:26:40Z</time>
      </trkpt>
      <trkpt lat="45.92488" lon="4.74617">
        <ele>171</ele>
        <time>2018-05-23T10:26:41Z</time>
      </trkpt>
      <trkpt lat="45.92491" lon="4.74611">
        <ele>171</ele>
        <time>2018-05-23T10:26:42Z</time>
      </trkpt>
      <trkpt lat="45.92496" lon="4.74607">
        <ele>171</ele>
        <time>2018-05-23T10:26:43Z</time>
      </trkpt>
      <trkpt lat="45.92501" lon="4.74601">
        <ele>171</ele>
        <time>2018-05-23T10:26:44Z</time>
      </trkpt>
      <trkpt lat="45.92505" lon="4.74596">
        <ele>171</ele>
        <time>2018-05-23T10:26:45Z</time>
      </trkpt>
      <trkpt lat="45.92507" lon="4.74591">
        <ele>171</ele>
        <time>2018-05-23T10:26:46Z</time>
      </trkpt>
      <trkpt lat="45.92512" lon="4.74583">
        <ele>171</ele>
        <time>2018-05-23T10:26:47Z</time>
      </trkpt>
      <trkpt lat="45.92517" lon="4.74578">
        <ele>171</ele>
        <time>2018-05-23T10:26:48Z</time>
      </trkpt>
      <trkpt lat="45.92522" lon="4.74572">
        <ele>171</ele>
        <time>2018-05-23T10:26:49Z</time>
      </trkpt>
      <trkpt lat="45.92526" lon="4.74567">
        <ele>171</ele>
        <time>2018-05-23T10:26:50Z</time>
      </trkpt>
      <trkpt lat="45.9253" lon="4.74562">
        <ele>171</ele>
        <time>2018-05-23T10:26:51Z</time>
      </trkpt>
      <trkpt lat="45.92534" lon="4.74554">
        <ele>171</ele>
        <time>2018-05-23T10:26:52Z</time>
      </trkpt>
      <trkpt lat="45.92538" lon="4.74548">
        <ele>171</ele>
        <time>2018-05-23T10:26:53Z</time>
      </trkpt>
      <trkpt lat="45.92542" lon="4.74543">
        <ele>170</ele>
        <time>2018-05-23T10:26:54Z</time>
      </trkpt>
      <trkpt lat="45.92547" lon="4.74537">
        <ele>170</ele>
        <time>2018-05-23T10:26:55Z</time>
      </trkpt>
      <trkpt lat="45.92551" lon="4.7453">
        <ele>170</ele>
        <time>2018-05-23T10:26:56Z</time>
      </trkpt>
      <trkpt lat="45.92554" lon="4.74524">
        <ele>170</ele>
        <time>2018-05-23T10:26:57Z</time>
      </trkpt>
      <trkpt lat="45.92558" lon="4.74518">
        <ele>170</ele>
        <time>2018-05-23T10:26:58Z</time>
      </trkpt>
      <trkpt lat="45.92562" lon="4.74511">
        <ele>170</ele>
        <time>2018-05-23T10:26:59Z</time>
      </trkpt>
      <trkpt lat="45.92566" lon="4.74504">
        <ele>170</ele>
        <time>2018-05-23T10:27:00Z</time>
      </trkpt>
      <trkpt lat="45.9257" lon="4.74498">
        <ele>170</ele>
        <time>2018-05-23T10:27:01Z</time>
      </trkpt>
      <trkpt lat="45.92574" lon="4.74491">
        <ele>170</ele>
        <time>2018-05-23T10:27:02Z</time>
      </trkpt>
      <trkpt lat="45.92578" lon="4.74485">
        <ele>170</ele>
        <time>2018-05-23T10:27:03Z</time>
      </trkpt>
      <trkpt lat="45.92581" lon="4.7448">
        <ele>170</ele>
        <time>2018-05-23T10:27:04Z</time>
      </trkpt>
      <trkpt lat="45.92585" lon="4.74472">
        <ele>170</ele>
        <time>2018-05-23T10:27:05Z</time>
      </trkpt>
      <trkpt lat="45.92588" lon="4.74465">
        <ele>170</ele>
        <time>2018-05-23T10:27:06Z</time>
      </trkpt>
      <trkpt lat="45.92594" lon="4.74456">
        <ele>170</ele>
        <time>2018-05-23T10:27:07Z</time>
      </trkpt>
      <trkpt lat="45.92596" lon="4.74452">
        <ele>170</ele>
        <time>2018-05-23T10:27:08Z</time>
      </trkpt>
      <trkpt lat="45.926" lon="4.74446">
        <ele>170</ele>
        <time>2018-05-23T10:27:09Z</time>
      </trkpt>
      <trkpt lat="45.92603" lon="4.7444">
        <ele>170</ele>
        <time>2018-05-23T10:27:10Z</time>
      </trkpt>
      <trkpt lat="45.92606" lon="4.74434">
        <ele>170</ele>
        <time>2018-05-23T10:27:11Z</time>
      </trkpt>
      <trkpt lat="45.9261" lon="4.74429">
        <ele>170</ele>
        <time>2018-05-23T10:27:12Z</time>
      </trkpt>
      <trkpt lat="45.92613" lon="4.74422">
        <ele>170</ele>
        <time>2018-05-23T10:27:13Z</time>
      </trkpt>
      <trkpt lat="45.92616" lon="4.74415">
        <ele>170</ele>
        <time>2018-05-23T10:27:14Z</time>
      </trkpt>
      <trkpt lat="45.9262" lon="4.74409">
        <ele>170</ele>
        <time>2018-05-23T10:27:15Z</time>
      </trkpt>
      <trkpt lat="45.92623" lon="4.74403">
        <ele>170</ele>
        <time>2018-05-23T10:27:16Z</time>
      </trkpt>
      <trkpt lat="45.92625" lon="4.74396">
        <ele>170</ele>
        <time>2018-05-23T10:27:17Z</time>
      </trkpt>
      <trkpt lat="45.92629" lon="4.74389">
        <ele>170</ele>
        <time>2018-05-23T10:27:18Z</time>
      </trkpt>
      <trkpt lat="45.92632" lon="4.74383">
        <ele>170</ele>
        <time>2018-05-23T10:27:19Z</time>
      </trkpt>
      <trkpt lat="45.92636" lon="4.74375">
        <ele>170</ele>
        <time>2018-05-23T10:27:20Z</time>
      </trkpt>
      <trkpt lat="45.92639" lon="4.7437">
        <ele>171</ele>
        <time>2018-05-23T10:27:21Z</time>
      </trkpt>
      <trkpt lat="45.92643" lon="4.74363">
        <ele>171</ele>
        <time>2018-05-23T10:27:22Z</time>
      </trkpt>
      <trkpt lat="45.92646" lon="4.74357">
        <ele>171</ele>
        <time>2018-05-23T10:27:23Z</time>
      </trkpt>
      <trkpt lat="45.9265" lon="4.74351">
        <ele>171</ele>
        <time>2018-05-23T10:27:24Z</time>
      </trkpt>
      <trkpt lat="45.92654" lon="4.74345">
        <ele>171</ele>
        <time>2018-05-23T10:27:25Z</time>
      </trkpt>
      <trkpt lat="45.92657" lon="4.74339">
        <ele>171</ele>
        <time>2018-05-23T10:27:26Z</time>
      </trkpt>
      <trkpt lat="45.9266" lon="4.74333">
        <ele>171</ele>
        <time>2018-05-23T10:27:27Z</time>
      </trkpt>
      <trkpt lat="45.92664" lon="4.74327">
        <ele>171</ele>
        <time>2018-05-23T10:27:28Z</time>
      </trkpt>
      <trkpt lat="45.92667" lon="4.74321">
        <ele>171</ele>
        <time>2018-05-23T10:27:29Z</time>
      </trkpt>
      <trkpt lat="45.9267" lon="4.74315">
        <ele>171</ele>
        <time>2018-05-23T10:27:30Z</time>
      </trkpt>
      <trkpt lat="45.92674" lon="4.74309">
        <ele>171</ele>
        <time>2018-05-23T10:27:31Z</time>
      </trkpt>
      <trkpt lat="45.92678" lon="4.74301">
        <ele>171</ele>
        <time>2018-05-23T10:27:32Z</time>
      </trkpt>
      <trkpt lat="45.92681" lon="4.74295">
        <ele>171</ele>
        <time>2018-05-23T10:27:33Z</time>
      </trkpt>
      <trkpt lat="45.92684" lon="4.74288">
        <ele>171</ele>
        <time>2018-05-23T10:27:34Z</time>
      </trkpt>
      <trkpt lat="45.92688" lon="4.74282">
        <ele>171</ele>
        <time>2018-05-23T10:27:35Z</time>
      </trkpt>
      <trkpt lat="45.92691" lon="4.74276">
        <ele>171</ele>
        <time>2018-05-23T10:27:36Z</time>
      </trkpt>
      <trkpt lat="45.92694" lon="4.74271">
        <ele>171</ele>
        <time>2018-05-23T10:27:37Z</time>
      </trkpt>
      <trkpt lat="45.92697" lon="4.74263">
        <ele>171</ele>
        <time>2018-05-23T10:27:38Z</time>
      </trkpt>
      <trkpt lat="45.92701" lon="4.74255">
        <ele>171</ele>
        <time>2018-05-23T10:27:39Z</time>
      </trkpt>
      <trkpt lat="45.92705" lon="4.74249">
        <ele>171</ele>
        <time>2018-05-23T10:27:40Z</time>
      </trkpt>
      <trkpt lat="45.92707" lon="4.74244">
        <ele>171</ele>
        <time>2018-05-23T10:27:41Z</time>
      </trkpt>
      <trkpt lat="45.92711" lon="4.74238">
        <ele>171</ele>
        <time>2018-05-23T10:27:42Z</time>
      </trkpt>
      <trkpt lat="45.92715" lon="4.74233">
        <ele>171</ele>
        <time>2018-05-23T10:27:43Z</time>
      </trkpt>
      <trkpt lat="45.92719" lon="4.74229">
        <ele>171</ele>
        <time>2018-05-23T10:27:44Z</time>
      </trkpt>
      <trkpt lat="45.92724" lon="4.74222">
        <ele>171</ele>
        <time>2018-05-23T10:27:45Z</time>
      </trkpt>
      <trkpt lat="45.92727" lon="4.74217">
        <ele>171</ele>
        <time>2018-05-23T10:27:46Z</time>
      </trkpt>
      <trkpt lat="45.92731" lon="4.74211">
        <ele>171</ele>
        <time>2018-05-23T10:27:47Z</time>
      </trkpt>
      <trkpt lat="45.92736" lon="4.74206">
        <ele>171</ele>
        <time>2018-05-23T10:27:48Z</time>
      </trkpt>
      <trkpt lat="45.9274" lon="4.74202">
        <ele>171</ele>
        <time>2018-05-23T10:27:49Z</time>
      </trkpt>
      <trkpt lat="45.92744" lon="4.74197">
        <ele>171</ele>
        <time>2018-05-23T10:27:50Z</time>
      </trkpt>
      <trkpt lat="45.92749" lon="4.7419">
        <ele>172</ele>
        <time>2018-05-23T10:27:51Z</time>
      </trkpt>
      <trkpt lat="45.92754" lon="4.74184">
        <ele>172</ele>
        <time>2018-05-23T10:27:52Z</time>
      </trkpt>
      <trkpt lat="45.92758" lon="4.74178">
        <ele>172</ele>
        <time>2018-05-23T10:27:53Z</time>
      </trkpt>
      <trkpt lat="45.92763" lon="4.74173">
        <ele>172</ele>
        <time>2018-05-23T10:27:54Z</time>
      </trkpt>
      <trkpt lat="45.92768" lon="4.74169">
        <ele>172</ele>
        <time>2018-05-23T10:27:55Z</time>
      </trkpt>
      <trkpt lat="45.92775" lon="4.74161">
        <ele>172</ele>
        <time>2018-05-23T10:27:56Z</time>
      </trkpt>
      <trkpt lat="45.92779" lon="4.74156">
        <ele>172</ele>
        <time>2018-05-23T10:27:57Z</time>
      </trkpt>
      <trkpt lat="45.92784" lon="4.7415">
        <ele>172</ele>
        <time>2018-05-23T10:27:58Z</time>
      </trkpt>
      <trkpt lat="45.92788" lon="4.74147">
        <ele>172</ele>
        <time>2018-05-23T10:27:59Z</time>
      </trkpt>
      <trkpt lat="45.92794" lon="4.74142">
        <ele>172</ele>
        <time>2018-05-23T10:28:00Z</time>
      </trkpt>
      <trkpt lat="45.92799" lon="4.74136">
        <ele>172</ele>
        <time>2018-05-23T10:28:01Z</time>
      </trkpt>
      <trkpt lat="45.92804" lon="4.74131">
        <ele>172</ele>
        <time>2018-05-23T10:28:02Z</time>
      </trkpt>
      <trkpt lat="45.92807" lon="4.74126">
        <ele>172</ele>
        <time>2018-05-23T10:28:03Z</time>
      </trkpt>
      <trkpt lat="45.92811" lon="4.74122">
        <ele>172</ele>
        <time>2018-05-23T10:28:04Z</time>
      </trkpt>
      <trkpt lat="45.92816" lon="4.74117">
        <ele>172</ele>
        <time>2018-05-23T10:28:05Z</time>
      </trkpt>
      <trkpt lat="45.92821" lon="4.74112">
        <ele>172</ele>
        <time>2018-05-23T10:28:06Z</time>
      </trkpt>
      <trkpt lat="45.92825" lon="4.74108">
        <ele>171</ele>
        <time>2018-05-23T10:28:07Z</time>
      </trkpt>
      <trkpt lat="45.92829" lon="4.74103">
        <ele>171</ele>
        <time>2018-05-23T10:28:08Z</time>
      </trkpt>
      <trkpt lat="45.92833" lon="4.74098">
        <ele>171</ele>
        <time>2018-05-23T10:28:09Z</time>
      </trkpt>
      <trkpt lat="45.92837" lon="4.74094">
        <ele>171</ele>
        <time>2018-05-23T10:28:10Z</time>
      </trkpt>
      <trkpt lat="45.92841" lon="4.7409">
        <ele>171</ele>
        <time>2018-05-23T10:28:11Z</time>
      </trkpt>
      <trkpt lat="45.92845" lon="4.74085">
        <ele>171</ele>
        <time>2018-05-23T10:28:12Z</time>
      </trkpt>
      <trkpt lat="45.92849" lon="4.7408">
        <ele>172</ele>
        <time>2018-05-23T10:28:13Z</time>
      </trkpt>
      <trkpt lat="45.92854" lon="4.74073">
        <ele>172</ele>
        <time>2018-05-23T10:28:14Z</time>
      </trkpt>
      <trkpt lat="45.92859" lon="4.74068">
        <ele>172</ele>
        <time>2018-05-23T10:28:15Z</time>
      </trkpt>
      <trkpt lat="45.92863" lon="4.74063">
        <ele>172</ele>
        <time>2018-05-23T10:28:16Z</time>
      </trkpt>
      <trkpt lat="45.92868" lon="4.74058">
        <ele>172</ele>
        <time>2018-05-23T10:28:17Z</time>
      </trkpt>
      <trkpt lat="45.92872" lon="4.74055">
        <ele>172</ele>
        <time>2018-05-23T10:28:18Z</time>
      </trkpt>
      <trkpt lat="45.92878" lon="4.74047">
        <ele>172</ele>
        <time>2018-05-23T10:28:19Z</time>
      </trkpt>
      <trkpt lat="45.92883" lon="4.74045">
        <ele>172</ele>
        <time>2018-05-23T10:28:20Z</time>
      </trkpt>
      <trkpt lat="45.92892" lon="4.74046">
        <ele>172</ele>
        <time>2018-05-23T10:28:22Z</time>
      </trkpt>
      <trkpt lat="45.92897" lon="4.74046">
        <ele>172</ele>
        <time>2018-05-23T10:28:23Z</time>
      </trkpt>
      <trkpt lat="45.92901" lon="4.74044">
        <ele>172</ele>
        <time>2018-05-23T10:28:24Z</time>
      </trkpt>
      <trkpt lat="45.92905" lon="4.74038">
        <ele>172</ele>
        <time>2018-05-23T10:28:25Z</time>
      </trkpt>
      <trkpt lat="45.9291" lon="4.74033">
        <ele>172</ele>
        <time>2018-05-23T10:28:26Z</time>
      </trkpt>
      <trkpt lat="45.92913" lon="4.74027">
        <ele>172</ele>
        <time>2018-05-23T10:28:27Z</time>
      </trkpt>
      <trkpt lat="45.92915" lon="4.7402">
        <ele>172</ele>
        <time>2018-05-23T10:28:28Z</time>
      </trkpt>
      <trkpt lat="45.92916" lon="4.74013">
        <ele>172</ele>
        <time>2018-05-23T10:28:29Z</time>
      </trkpt>
      <trkpt lat="45.92913" lon="4.74007">
        <ele>172</ele>
        <time>2018-05-23T10:28:30Z</time>
      </trkpt>
      <trkpt lat="45.92911" lon="4.73998">
        <ele>172</ele>
        <time>2018-05-23T10:28:31Z</time>
      </trkpt>
      <trkpt lat="45.92907" lon="4.73992">
        <ele>172</ele>
        <time>2018-05-23T10:28:32Z</time>
      </trkpt>
      <trkpt lat="45.92902" lon="4.73987">
        <ele>172</ele>
        <time>2018-05-23T10:28:33Z</time>
      </trkpt>
      <trkpt lat="45.92897" lon="4.73983">
        <ele>172</ele>
        <time>2018-05-23T10:28:34Z</time>
      </trkpt>
      <trkpt lat="45.92893" lon="4.73976">
        <ele>172</ele>
        <time>2018-05-23T10:28:35Z</time>
      </trkpt>
      <trkpt lat="45.92889" lon="4.7397">
        <ele>172</ele>
        <time>2018-05-23T10:28:36Z</time>
      </trkpt>
      <trkpt lat="45.92886" lon="4.73963">
        <ele>172</ele>
        <time>2018-05-23T10:28:37Z</time>
      </trkpt>
      <trkpt lat="45.92886" lon="4.73954">
        <ele>172</ele>
        <time>2018-05-23T10:28:38Z</time>
      </trkpt>
      <trkpt lat="45.92887" lon="4.73947">
        <ele>172</ele>
        <time>2018-05-23T10:28:39Z</time>
      </trkpt>
      <trkpt lat="45.92888" lon="4.73939">
        <ele>172</ele>
        <time>2018-05-23T10:28:40Z</time>
      </trkpt>
      <trkpt lat="45.92888" lon="4.7393">
        <ele>172</ele>
        <time>2018-05-23T10:28:41Z</time>
      </trkpt>
      <trkpt lat="45.92887" lon="4.73921">
        <ele>172</ele>
        <time>2018-05-23T10:28:42Z</time>
      </trkpt>
      <trkpt lat="45.92886" lon="4.73913">
        <ele>173</ele>
        <time>2018-05-23T10:28:43Z</time>
      </trkpt>
      <trkpt lat="45.92887" lon="4.73904">
        <ele>173</ele>
        <time>2018-05-23T10:28:44Z</time>
      </trkpt>
      <trkpt lat="45.92886" lon="4.73896">
        <ele>173</ele>
        <time>2018-05-23T10:28:45Z</time>
      </trkpt>
      <trkpt lat="45.92886" lon="4.73888">
        <ele>173</ele>
        <time>2018-05-23T10:28:46Z</time>
      </trkpt>
      <trkpt lat="45.92883" lon="4.73881">
        <ele>173</ele>
        <time>2018-05-23T10:28:47Z</time>
      </trkpt>
      <trkpt lat="45.92881" lon="4.73873">
        <ele>173</ele>
        <time>2018-05-23T10:28:48Z</time>
      </trkpt>
      <trkpt lat="45.92876" lon="4.73865">
        <ele>173</ele>
        <time>2018-05-23T10:28:49Z</time>
      </trkpt>
      <trkpt lat="45.92864" lon="4.7383">
        <ele>173</ele>
        <time>2018-05-23T10:28:53Z</time>
      </trkpt>
      <trkpt lat="45.92861" lon="4.73821">
        <ele>173</ele>
        <time>2018-05-23T10:28:54Z</time>
      </trkpt>
      <trkpt lat="45.92859" lon="4.73812">
        <ele>173</ele>
        <time>2018-05-23T10:28:55Z</time>
      </trkpt>
      <trkpt lat="45.92854" lon="4.73804">
        <ele>173</ele>
        <time>2018-05-23T10:28:56Z</time>
      </trkpt>
      <trkpt lat="45.92851" lon="4.73799">
        <ele>173</ele>
        <time>2018-05-23T10:28:57Z</time>
      </trkpt>
      <trkpt lat="45.92845" lon="4.73794">
        <ele>173</ele>
        <time>2018-05-23T10:28:58Z</time>
      </trkpt>
      <trkpt lat="45.92841" lon="4.7379">
        <ele>173</ele>
        <time>2018-05-23T10:28:59Z</time>
      </trkpt>
      <trkpt lat="45.92837" lon="4.73784">
        <ele>173</ele>
        <time>2018-05-23T10:29:00Z</time>
      </trkpt>
      <trkpt lat="45.92832" lon="4.7378">
        <ele>173</ele>
        <time>2018-05-23T10:29:01Z</time>
      </trkpt>
      <trkpt lat="45.92827" lon="4.73776">
        <ele>173</ele>
        <time>2018-05-23T10:29:02Z</time>
      </trkpt>
      <trkpt lat="45.92824" lon="4.73774">
        <ele>173</ele>
        <time>2018-05-23T10:29:03Z</time>
      </trkpt>
      <trkpt lat="45.92818" lon="4.7377">
        <ele>173</ele>
        <time>2018-05-23T10:29:04Z</time>
      </trkpt>
      <trkpt lat="45.92812" lon="4.73767">
        <ele>173</ele>
        <time>2018-05-23T10:29:05Z</time>
      </trkpt>
      <trkpt lat="45.92807" lon="4.73765">
        <ele>173</ele>
        <time>2018-05-23T10:29:06Z</time>
      </trkpt>
      <trkpt lat="45.92802" lon="4.73763">
        <ele>173</ele>
        <time>2018-05-23T10:29:07Z</time>
      </trkpt>
      <trkpt lat="45.92797" lon="4.73761">
        <ele>173</ele>
        <time>2018-05-23T10:29:09Z</time>
      </trkpt>
      <trkpt lat="45.92794" lon="4.73758">
        <ele>173</ele>
        <time>2018-05-23T10:29:10Z</time>
      </trkpt>
      <trkpt lat="45.92789" lon="4.73756">
        <ele>173</ele>
        <time>2018-05-23T10:29:11Z</time>
      </trkpt>
      <trkpt lat="45.92786" lon="4.73751">
        <ele>173</ele>
        <time>2018-05-23T10:29:12Z</time>
      </trkpt>
      <trkpt lat="45.92781" lon="4.73741">
        <ele>172</ele>
        <time>2018-05-23T10:29:14Z</time>
      </trkpt>
      <trkpt lat="45.92779" lon="4.73735">
        <ele>172</ele>
        <time>2018-05-23T10:29:15Z</time>
      </trkpt>
      <trkpt lat="45.92775" lon="4.73732">
        <ele>172</ele>
        <time>2018-05-23T10:29:16Z</time>
      </trkpt>
      <trkpt lat="45.92771" lon="4.73728">
        <ele>172</ele>
        <time>2018-05-23T10:29:17Z</time>
      </trkpt>
      <trkpt lat="45.92763" lon="4.73723">
        <ele>172</ele>
        <time>2018-05-23T10:29:19Z</time>
      </trkpt>
      <trkpt lat="45.92759" lon="4.73721">
        <ele>172</ele>
        <time>2018-05-23T10:29:20Z</time>
      </trkpt>
      <trkpt lat="45.92753" lon="4.73722">
        <ele>172</ele>
        <time>2018-05-23T10:29:21Z</time>
      </trkpt>
      <trkpt lat="45.92748" lon="4.73722">
        <ele>173</ele>
        <time>2018-05-23T10:29:22Z</time>
      </trkpt>
      <trkpt lat="45.92743" lon="4.73721">
        <ele>173</ele>
        <time>2018-05-23T10:29:23Z</time>
      </trkpt>
      <trkpt lat="45.92737" lon="4.7372">
        <ele>173</ele>
        <time>2018-05-23T10:29:24Z</time>
      </trkpt>
      <trkpt lat="45.92733" lon="4.73717">
        <ele>173</ele>
        <time>2018-05-23T10:29:25Z</time>
      </trkpt>
      <trkpt lat="45.92726" lon="4.73716">
        <ele>173</ele>
        <time>2018-05-23T10:29:26Z</time>
      </trkpt>
      <trkpt lat="45.9272" lon="4.73715">
        <ele>173</ele>
        <time>2018-05-23T10:29:27Z</time>
      </trkpt>
      <trkpt lat="45.92714" lon="4.73712">
        <ele>173</ele>
        <time>2018-05-23T10:29:28Z</time>
      </trkpt>
      <trkpt lat="45.92708" lon="4.7371">
        <ele>173</ele>
        <time>2018-05-23T10:29:29Z</time>
      </trkpt>
      <trkpt lat="45.92703" lon="4.73709">
        <ele>173</ele>
        <time>2018-05-23T10:29:30Z</time>
      </trkpt>
      <trkpt lat="45.92699" lon="4.73707">
        <ele>173</ele>
        <time>2018-05-23T10:29:31Z</time>
      </trkpt>
      <trkpt lat="45.92694" lon="4.73706">
        <ele>173</ele>
        <time>2018-05-23T10:29:32Z</time>
      </trkpt>
      <trkpt lat="45.9269" lon="4.73705">
        <ele>173</ele>
        <time>2018-05-23T10:29:33Z</time>
      </trkpt>
      <trkpt lat="45.92685" lon="4.73704">
        <ele>173</ele>
        <time>2018-05-23T10:29:34Z</time>
      </trkpt>
      <trkpt lat="45.9268" lon="4.73702">
        <ele>173</ele>
        <time>2018-05-23T10:29:35Z</time>
      </trkpt>
      <trkpt lat="45.92675" lon="4.73699">
        <ele>174</ele>
        <time>2018-05-23T10:29:36Z</time>
      </trkpt>
      <trkpt lat="45.9267" lon="4.73696">
        <ele>174</ele>
        <time>2018-05-23T10:29:37Z</time>
      </trkpt>
      <trkpt lat="45.92667" lon="4.73694">
        <ele>174</ele>
        <time>2018-05-23T10:29:38Z</time>
      </trkpt>
      <trkpt lat="45.92662" lon="4.73691">
        <ele>173</ele>
        <time>2018-05-23T10:29:39Z</time>
      </trkpt>
      <trkpt lat="45.92657" lon="4.73688">
        <ele>173</ele>
        <time>2018-05-23T10:29:40Z</time>
      </trkpt>
      <trkpt lat="45.9265" lon="4.73684">
        <ele>173</ele>
        <time>2018-05-23T10:29:42Z</time>
      </trkpt>
      <trkpt lat="45.92648" lon="4.73679">
        <ele>173</ele>
        <time>2018-05-23T10:29:43Z</time>
      </trkpt>
      <trkpt lat="45.92644" lon="4.73674">
        <ele>173</ele>
        <time>2018-05-23T10:29:44Z</time>
      </trkpt>
      <trkpt lat="45.92641" lon="4.7367">
        <ele>173</ele>
        <time>2018-05-23T10:29:45Z</time>
      </trkpt>
      <trkpt lat="45.92635" lon="4.73665">
        <ele>173</ele>
        <time>2018-05-23T10:29:46Z</time>
      </trkpt>
      <trkpt lat="45.92633" lon="4.7366">
        <ele>173</ele>
        <time>2018-05-23T10:29:47Z</time>
      </trkpt>
      <trkpt lat="45.92634" lon="4.73649">
        <ele>173</ele>
        <time>2018-05-23T10:29:49Z</time>
      </trkpt>
      <trkpt lat="45.92631" lon="4.73644">
        <ele>173</ele>
        <time>2018-05-23T10:29:50Z</time>
      </trkpt>
      <trkpt lat="45.92628" lon="4.73638">
        <ele>173</ele>
        <time>2018-05-23T10:29:51Z</time>
      </trkpt>
      <trkpt lat="45.92625" lon="4.73631">
        <ele>173</ele>
        <time>2018-05-23T10:29:52Z</time>
      </trkpt>
      <trkpt lat="45.92621" lon="4.73627">
        <ele>173</ele>
        <time>2018-05-23T10:29:53Z</time>
      </trkpt>
      <trkpt lat="45.92616" lon="4.73623">
        <ele>173</ele>
        <time>2018-05-23T10:29:54Z</time>
      </trkpt>
      <trkpt lat="45.92611" lon="4.73621">
        <ele>173</ele>
        <time>2018-05-23T10:29:55Z</time>
      </trkpt>
      <trkpt lat="45.92605" lon="4.73621">
        <ele>173</ele>
        <time>2018-05-23T10:29:56Z</time>
      </trkpt>
      <trkpt lat="45.92599" lon="4.7362">
        <ele>173</ele>
        <time>2018-05-23T10:29:57Z</time>
      </trkpt>
      <trkpt lat="45.92594" lon="4.73621">
        <ele>173</ele>
        <time>2018-05-23T10:29:58Z</time>
      </trkpt>
      <trkpt lat="45.92589" lon="4.73621">
        <ele>173</ele>
        <time>2018-05-23T10:29:59Z</time>
      </trkpt>
      <trkpt lat="45.92584" lon="4.73622">
        <ele>173</ele>
        <time>2018-05-23T10:30:00Z</time>
      </trkpt>
      <trkpt lat="45.92575" lon="4.73625">
        <ele>173</ele>
        <time>2018-05-23T10:30:02Z</time>
      </trkpt>
      <trkpt lat="45.92571" lon="4.73626">
        <ele>173</ele>
        <time>2018-05-23T10:30:03Z</time>
      </trkpt>
      <trkpt lat="45.92565" lon="4.73628">
        <ele>173</ele>
        <time>2018-05-23T10:30:04Z</time>
      </trkpt>
      <trkpt lat="45.92558" lon="4.7363">
        <ele>173</ele>
        <time>2018-05-23T10:30:05Z</time>
      </trkpt>
      <trkpt lat="45.92553" lon="4.73631">
        <ele>173</ele>
        <time>2018-05-23T10:30:06Z</time>
      </trkpt>
      <trkpt lat="45.92549" lon="4.73632">
        <ele>173</ele>
        <time>2018-05-23T10:30:07Z</time>
      </trkpt>
      <trkpt lat="45.92542" lon="4.73634">
        <ele>173</ele>
        <time>2018-05-23T10:30:08Z</time>
      </trkpt>
      <trkpt lat="45.92537" lon="4.73635">
        <ele>173</ele>
        <time>2018-05-23T10:30:09Z</time>
      </trkpt>
      <trkpt lat="45.92532" lon="4.73636">
        <ele>173</ele>
        <time>2018-05-23T10:30:10Z</time>
      </trkpt>
      <trkpt lat="45.92527" lon="4.73636">
        <ele>173</ele>
        <time>2018-05-23T10:30:11Z</time>
      </trkpt>
      <trkpt lat="45.92522" lon="4.73637">
        <ele>173</ele>
        <time>2018-05-23T10:30:12Z</time>
      </trkpt>
      <trkpt lat="45.92516" lon="4.7364">
        <ele>173</ele>
        <time>2018-05-23T10:30:13Z</time>
      </trkpt>
      <trkpt lat="45.92508" lon="4.73639">
        <ele>174</ele>
        <time>2018-05-23T10:30:15Z</time>
      </trkpt>
      <trkpt lat="45.92504" lon="4.73639">
        <ele>174</ele>
        <time>2018-05-23T10:30:16Z</time>
      </trkpt>
      <trkpt lat="45.92495" lon="4.73641">
        <ele>174</ele>
        <time>2018-05-23T10:30:18Z</time>
      </trkpt>
      <trkpt lat="45.9249" lon="4.7364">
        <ele>174</ele>
        <time>2018-05-23T10:30:19Z</time>
      </trkpt>
      <trkpt lat="45.92484" lon="4.73638">
        <ele>174</ele>
        <time>2018-05-23T10:30:20Z</time>
      </trkpt>
      <trkpt lat="45.9248" lon="4.73639">
        <ele>174</ele>
        <time>2018-05-23T10:30:21Z</time>
      </trkpt>
      <trkpt lat="45.92472" lon="4.73644">
        <ele>174</ele>
        <time>2018-05-23T10:30:23Z</time>
      </trkpt>
      <trkpt lat="45.92468" lon="4.73648">
        <ele>174</ele>
        <time>2018-05-23T10:30:24Z</time>
      </trkpt>
      <trkpt lat="45.92464" lon="4.7366">
        <ele>174</ele>
        <time>2018-05-23T10:30:26Z</time>
      </trkpt>
      <trkpt lat="45.92464" lon="4.73666">
        <ele>174</ele>
        <time>2018-05-23T10:30:27Z</time>
      </trkpt>
      <trkpt lat="45.92464" lon="4.73676">
        <ele>174</ele>
        <time>2018-05-23T10:30:29Z</time>
      </trkpt>
      <trkpt lat="45.92465" lon="4.7368">
        <ele>174</ele>
        <time>2018-05-23T10:30:30Z</time>
      </trkpt>
      <trkpt lat="45.92464" lon="4.73692">
        <ele>174</ele>
        <time>2018-05-23T10:30:32Z</time>
      </trkpt>
      <trkpt lat="45.92464" lon="4.73697">
        <ele>174</ele>
        <time>2018-05-23T10:30:33Z</time>
      </trkpt>
      <trkpt lat="45.92459" lon="4.73708">
        <ele>174</ele>
        <time>2018-05-23T10:31:10Z</time>
      </trkpt>
      <trkpt lat="45.92459" lon="4.73708">
        <ele>174</ele>
        <time>2018-05-23T10:31:11Z</time>
      </trkpt>
      <trkpt lat="45.92459" lon="4.73708">
        <ele>174</ele>
        <time>2018-05-23T10:31:22.715Z</time>
      </trkpt>
    </trkseg>
  </trk>
</gpx>